<?xml version='1.0' encoding='UTF-8'?><gpx version="1.1" creator="JPX - https://github.com/jenetics/jpx" xmlns="http://www.topografix.com/GPX/1/1"><trk><trkseg><trkpt lat="45.0665201" lon="10.8442101"><ele>19.0</ele><time>2026-04-26T07:48:41.809Z</time></trkpt><trkpt lat="45.0666152" lon="10.8442434"><ele>19.0</ele><time>2026-04-26T07:48:43.809Z</time></trkpt><trkpt lat="45.0667246" lon="10.8442939"><ele>19.0</ele><time>2026-04-26T07:48:45.808Z</time></trkpt><trkpt lat="45.0667959" lon="10.8443271"><ele>19.0</ele><time>2026-04-26T07:48:46.809Z</time></trkpt><trkpt lat="45.0669035" lon="10.8443347"><ele>19.0</ele><time>2026-04-26T07:48:48.807Z</time></trkpt><trkpt lat="45.0669716" lon="10.84434"><ele>19.0</ele><time>2026-04-26T07:48:49.807Z</time></trkpt><trkpt lat="45.0670466" lon="10.8443482"><ele>19.0</ele><time>2026-04-26T07:48:50.809Z</time></trkpt><trkpt lat="45.0671236" lon="10.844354"><ele>19.0</ele><time>2026-04-26T07:48:51.808Z</time></trkpt><trkpt lat="45.0672047" lon="10.8443584"><ele>19.0</ele><time>2026-04-26T07:48:52.809Z</time></trkpt><trkpt lat="45.0672919" lon="10.844364"><ele>19.0</ele><time>2026-04-26T07:48:53.808Z</time></trkpt><trkpt lat="45.0673831" lon="10.8443669"><ele>19.0</ele><time>2026-04-26T07:48:54.808Z</time></trkpt><trkpt lat="45.0674783" lon="10.8443642"><ele>18.8</ele><time>2026-04-26T07:48:55.808Z</time></trkpt><trkpt lat="45.0675703" lon="10.8443544"><ele>18.599999999999998</ele><time>2026-04-26T07:48:56.809Z</time></trkpt><trkpt lat="45.0676598" lon="10.844337"><ele>18.4</ele><time>2026-04-26T07:48:57.808Z</time></trkpt><trkpt lat="45.0677548" lon="10.844314"><ele>18.2</ele><time>2026-04-26T07:48:58.808Z</time></trkpt><trkpt lat="45.0678535" lon="10.8442944"><ele>18.0</ele><time>2026-04-26T07:48:59.809Z</time></trkpt><trkpt lat="45.0679559" lon="10.8442949"><ele>18.0</ele><time>2026-04-26T07:49:00.808Z</time></trkpt><trkpt lat="45.0680614" lon="10.8443217"><ele>18.0</ele><time>2026-04-26T07:49:01.808Z</time></trkpt><trkpt lat="45.0681774" lon="10.8443595"><ele>18.0</ele><time>2026-04-26T07:49:02.808Z</time></trkpt><trkpt lat="45.0683026" lon="10.8444076"><ele>18.0</ele><time>2026-04-26T07:49:03.809Z</time></trkpt><trkpt lat="45.0684352" lon="10.8444687"><ele>17.333333333333332</ele><time>2026-04-26T07:49:04.807Z</time></trkpt><trkpt lat="45.0685772" lon="10.8445315"><ele>16.666666666666664</ele><time>2026-04-26T07:49:05.808Z</time></trkpt><trkpt lat="45.0687211" lon="10.8445931"><ele>16.0</ele><time>2026-04-26T07:49:06.809Z</time></trkpt><trkpt lat="45.0688749" lon="10.8446581"><ele>16.0</ele><time>2026-04-26T07:49:07.808Z</time></trkpt><trkpt lat="45.0690417" lon="10.844726"><ele>16.0</ele><time>2026-04-26T07:49:08.809Z</time></trkpt><trkpt lat="45.0692195" lon="10.8447973"><ele>16.0</ele><time>2026-04-26T07:49:09.809Z</time></trkpt><trkpt lat="45.0694064" lon="10.8448736"><ele>16.0</ele><time>2026-04-26T07:49:10.808Z</time></trkpt><trkpt lat="45.0695966" lon="10.8449527"><ele>16.0</ele><time>2026-04-26T07:49:11.809Z</time></trkpt><trkpt lat="45.0697829" lon="10.8450336"><ele>16.0</ele><time>2026-04-26T07:49:12.808Z</time></trkpt><trkpt lat="45.0699748" lon="10.8451176"><ele>16.0</ele><time>2026-04-26T07:49:13.807Z</time></trkpt><trkpt lat="45.070169" lon="10.8452039"><ele>16.0</ele><time>2026-04-26T07:49:14.807Z</time></trkpt><trkpt lat="45.0703675" lon="10.8452937"><ele>16.0</ele><time>2026-04-26T07:49:15.808Z</time></trkpt><trkpt lat="45.0705671" lon="10.8453856"><ele>16.0</ele><time>2026-04-26T07:49:16.809Z</time></trkpt><trkpt lat="45.0707649" lon="10.845478"><ele>16.0</ele><time>2026-04-26T07:49:17.808Z</time></trkpt><trkpt lat="45.0709631" lon="10.845571"><ele>16.0</ele><time>2026-04-26T07:49:18.809Z</time></trkpt><trkpt lat="45.0711611" lon="10.8456644"><ele>16.333333333333332</ele><time>2026-04-26T07:49:19.807Z</time></trkpt><trkpt lat="45.0713592" lon="10.8457589"><ele>16.666666666666668</ele><time>2026-04-26T07:49:20.808Z</time></trkpt><trkpt lat="45.0715583" lon="10.8458543"><ele>17.0</ele><time>2026-04-26T07:49:21.808Z</time></trkpt><trkpt lat="45.0717572" lon="10.8459511"><ele>16.666666666666668</ele><time>2026-04-26T07:49:22.808Z</time></trkpt><trkpt lat="45.071957" lon="10.8460496"><ele>16.333333333333332</ele><time>2026-04-26T07:49:23.807Z</time></trkpt><trkpt lat="45.0721574" lon="10.8461493"><ele>16.0</ele><time>2026-04-26T07:49:24.808Z</time></trkpt><trkpt lat="45.0723596" lon="10.8462503"><ele>16.666666666666664</ele><time>2026-04-26T07:49:25.808Z</time></trkpt><trkpt lat="45.0725626" lon="10.8463528"><ele>17.333333333333332</ele><time>2026-04-26T07:49:26.808Z</time></trkpt><trkpt lat="45.0727684" lon="10.8464588"><ele>18.0</ele><time>2026-04-26T07:49:27.808Z</time></trkpt><trkpt lat="45.0729797" lon="10.8465698"><ele>18.0</ele><time>2026-04-26T07:49:28.809Z</time></trkpt><trkpt lat="45.0731962" lon="10.8466823"><ele>18.0</ele><time>2026-04-26T07:49:29.809Z</time></trkpt><trkpt lat="45.0734159" lon="10.8467945"><ele>17.5</ele><time>2026-04-26T07:49:30.809Z</time></trkpt><trkpt lat="45.0736414" lon="10.8469076"><ele>17.0</ele><time>2026-04-26T07:49:31.809Z</time></trkpt><trkpt lat="45.0738604" lon="10.8470194"><ele>17.0</ele><time>2026-04-26T07:49:32.808Z</time></trkpt><trkpt lat="45.0740837" lon="10.8471353"><ele>17.0</ele><time>2026-04-26T07:49:33.808Z</time></trkpt><trkpt lat="45.0743079" lon="10.8472524"><ele>16.5</ele><time>2026-04-26T07:49:34.808Z</time></trkpt><trkpt lat="45.0745298" lon="10.8473687"><ele>16.0</ele><time>2026-04-26T07:49:35.808Z</time></trkpt><trkpt lat="45.0747492" lon="10.8474796"><ele>16.0</ele><time>2026-04-26T07:49:36.808Z</time></trkpt><trkpt lat="45.0749629" lon="10.8475882"><ele>16.0</ele><time>2026-04-26T07:49:37.808Z</time></trkpt><trkpt lat="45.0751717" lon="10.8476935"><ele>16.0</ele><time>2026-04-26T07:49:38.808Z</time></trkpt><trkpt lat="45.075378" lon="10.8477999"><ele>16.0</ele><time>2026-04-26T07:49:39.809Z</time></trkpt><trkpt lat="45.0755836" lon="10.8479072"><ele>16.0</ele><time>2026-04-26T07:49:40.809Z</time></trkpt><trkpt lat="45.0757894" lon="10.8480129"><ele>16.0</ele><time>2026-04-26T07:49:41.809Z</time></trkpt><trkpt lat="45.0759945" lon="10.8481173"><ele>16.333333333333332</ele><time>2026-04-26T07:49:42.808Z</time></trkpt><trkpt lat="45.0761991" lon="10.848224"><ele>16.666666666666668</ele><time>2026-04-26T07:49:43.808Z</time></trkpt><trkpt lat="45.0764039" lon="10.8483314"><ele>17.0</ele><time>2026-04-26T07:49:44.809Z</time></trkpt><trkpt lat="45.0766101" lon="10.8484395"><ele>17.0</ele><time>2026-04-26T07:49:45.809Z</time></trkpt><trkpt lat="45.0768175" lon="10.848546"><ele>17.0</ele><time>2026-04-26T07:49:46.808Z</time></trkpt><trkpt lat="45.0770275" lon="10.8486528"><ele>17.0</ele><time>2026-04-26T07:49:47.809Z</time></trkpt><trkpt lat="45.07724" lon="10.8487617"><ele>16.5</ele><time>2026-04-26T07:49:48.808Z</time></trkpt><trkpt lat="45.0774541" lon="10.848873"><ele>16.0</ele><time>2026-04-26T07:49:49.809Z</time></trkpt><trkpt lat="45.0776715" lon="10.8489827"><ele>16.0</ele><time>2026-04-26T07:49:50.808Z</time></trkpt><trkpt lat="45.0778923" lon="10.8490926"><ele>16.0</ele><time>2026-04-26T07:49:51.809Z</time></trkpt><trkpt lat="45.0781161" lon="10.8492078"><ele>16.0</ele><time>2026-04-26T07:49:52.808Z</time></trkpt><trkpt lat="45.0783433" lon="10.8493259"><ele>16.0</ele><time>2026-04-26T07:49:53.809Z</time></trkpt><trkpt lat="45.0785744" lon="10.8494429"><ele>16.0</ele><time>2026-04-26T07:49:54.808Z</time></trkpt><trkpt lat="45.078809" lon="10.849563"><ele>16.0</ele><time>2026-04-26T07:49:55.808Z</time></trkpt><trkpt lat="45.0790445" lon="10.8496876"><ele>16.0</ele><time>2026-04-26T07:49:56.808Z</time></trkpt><trkpt lat="45.079277" lon="10.8498109"><ele>16.0</ele><time>2026-04-26T07:49:57.809Z</time></trkpt><trkpt lat="45.0795115" lon="10.8499318"><ele>16.0</ele><time>2026-04-26T07:49:58.808Z</time></trkpt><trkpt lat="45.0797477" lon="10.8500535"><ele>16.0</ele><time>2026-04-26T07:49:59.808Z</time></trkpt><trkpt lat="45.0799842" lon="10.8501759"><ele>17.0</ele><time>2026-04-26T07:50:00.807Z</time></trkpt><trkpt lat="45.0802212" lon="10.8502993"><ele>18.0</ele><time>2026-04-26T07:50:01.808Z</time></trkpt><trkpt lat="45.0804604" lon="10.8504219"><ele>18.0</ele><time>2026-04-26T07:50:02.808Z</time></trkpt><trkpt lat="45.0807008" lon="10.8505441"><ele>18.0</ele><time>2026-04-26T07:50:03.808Z</time></trkpt><trkpt lat="45.0809417" lon="10.850669"><ele>18.0</ele><time>2026-04-26T07:50:04.809Z</time></trkpt><trkpt lat="45.0811823" lon="10.8507965"><ele>18.0</ele><time>2026-04-26T07:50:05.809Z</time></trkpt><trkpt lat="45.0814228" lon="10.8509238"><ele>17.0</ele><time>2026-04-26T07:50:06.808Z</time></trkpt><trkpt lat="45.0816639" lon="10.851048"><ele>16.0</ele><time>2026-04-26T07:50:07.809Z</time></trkpt><trkpt lat="45.0819045" lon="10.8511733"><ele>16.0</ele><time>2026-04-26T07:50:08.809Z</time></trkpt><trkpt lat="45.0821456" lon="10.8512993"><ele>16.0</ele><time>2026-04-26T07:50:09.809Z</time></trkpt><trkpt lat="45.0823891" lon="10.851424"><ele>17.5</ele><time>2026-04-26T07:50:10.809Z</time></trkpt><trkpt lat="45.0826335" lon="10.8515484"><ele>19.0</ele><time>2026-04-26T07:50:11.808Z</time></trkpt><trkpt lat="45.0828782" lon="10.8516739"><ele>19.5</ele><time>2026-04-26T07:50:12.808Z</time></trkpt><trkpt lat="45.0831223" lon="10.8517994"><ele>20.0</ele><time>2026-04-26T07:50:13.809Z</time></trkpt><trkpt lat="45.0833657" lon="10.851923"><ele>18.0</ele><time>2026-04-26T07:50:14.808Z</time></trkpt><trkpt lat="45.083606" lon="10.8520471"><ele>16.0</ele><time>2026-04-26T07:50:15.809Z</time></trkpt><trkpt lat="45.0838463" lon="10.8521695"><ele>16.0</ele><time>2026-04-26T07:50:16.808Z</time></trkpt><trkpt lat="45.0840868" lon="10.8522969"><ele>16.0</ele><time>2026-04-26T07:50:17.807Z</time></trkpt><trkpt lat="45.0843264" lon="10.8524253"><ele>16.0</ele><time>2026-04-26T07:50:18.808Z</time></trkpt><trkpt lat="45.0845672" lon="10.852551"><ele>16.0</ele><time>2026-04-26T07:50:19.809Z</time></trkpt><trkpt lat="45.0848087" lon="10.852673"><ele>17.0</ele><time>2026-04-26T07:50:20.809Z</time></trkpt><trkpt lat="45.0850536" lon="10.852799"><ele>18.0</ele><time>2026-04-26T07:50:21.808Z</time></trkpt><trkpt lat="45.0852996" lon="10.8529275"><ele>18.0</ele><time>2026-04-26T07:50:22.808Z</time></trkpt><trkpt lat="45.0855431" lon="10.853053"><ele>18.0</ele><time>2026-04-26T07:50:23.808Z</time></trkpt><trkpt lat="45.0857845" lon="10.8531778"><ele>18.5</ele><time>2026-04-26T07:50:24.807Z</time></trkpt><trkpt lat="45.086025" lon="10.8533022"><ele>19.0</ele><time>2026-04-26T07:50:25.808Z</time></trkpt><trkpt lat="45.0862646" lon="10.8534256"><ele>19.0</ele><time>2026-04-26T07:50:26.809Z</time></trkpt><trkpt lat="45.0865034" lon="10.8535484"><ele>19.0</ele><time>2026-04-26T07:50:27.809Z</time></trkpt><trkpt lat="45.0867418" lon="10.8536687"><ele>19.0</ele><time>2026-04-26T07:50:28.809Z</time></trkpt><trkpt lat="45.0869787" lon="10.8537884"><ele>19.0</ele><time>2026-04-26T07:50:29.808Z</time></trkpt><trkpt lat="45.087215" lon="10.853911"><ele>17.0</ele><time>2026-04-26T07:50:30.808Z</time></trkpt><trkpt lat="45.0874511" lon="10.8540331"><ele>15.0</ele><time>2026-04-26T07:50:31.809Z</time></trkpt><trkpt lat="45.0876876" lon="10.8541548"><ele>15.0</ele><time>2026-04-26T07:50:32.808Z</time></trkpt><trkpt lat="45.0879248" lon="10.8542755"><ele>15.0</ele><time>2026-04-26T07:50:33.809Z</time></trkpt><trkpt lat="45.0881625" lon="10.854395"><ele>15.5</ele><time>2026-04-26T07:50:34.807Z</time></trkpt><trkpt lat="45.0884013" lon="10.85451"><ele>16.0</ele><time>2026-04-26T07:50:35.809Z</time></trkpt><trkpt lat="45.0886424" lon="10.8546213"><ele>16.0</ele><time>2026-04-26T07:50:36.808Z</time></trkpt><trkpt lat="45.0888856" lon="10.8547291"><ele>16.0</ele><time>2026-04-26T07:50:37.809Z</time></trkpt><trkpt lat="45.0891306" lon="10.8548357"><ele>17.0</ele><time>2026-04-26T07:50:38.807Z</time></trkpt><trkpt lat="45.0893765" lon="10.8549407"><ele>18.0</ele><time>2026-04-26T07:50:39.809Z</time></trkpt><trkpt lat="45.0896238" lon="10.8550423"><ele>18.5</ele><time>2026-04-26T07:50:40.807Z</time></trkpt><trkpt lat="45.0898728" lon="10.8551408"><ele>19.0</ele><time>2026-04-26T07:50:41.809Z</time></trkpt><trkpt lat="45.090123" lon="10.8552369"><ele>19.0</ele><time>2026-04-26T07:50:42.809Z</time></trkpt><trkpt lat="45.0903746" lon="10.8553313"><ele>19.0</ele><time>2026-04-26T07:50:43.809Z</time></trkpt><trkpt lat="45.0906265" lon="10.8554238"><ele>19.5</ele><time>2026-04-26T07:50:44.808Z</time></trkpt><trkpt lat="45.0908776" lon="10.8555125"><ele>20.0</ele><time>2026-04-26T07:50:45.808Z</time></trkpt><trkpt lat="45.0911264" lon="10.855598"><ele>20.0</ele><time>2026-04-26T07:50:46.807Z</time></trkpt><trkpt lat="45.0913744" lon="10.8556883"><ele>20.0</ele><time>2026-04-26T07:50:47.809Z</time></trkpt><trkpt lat="45.0916215" lon="10.8557751"><ele>19.5</ele><time>2026-04-26T07:50:48.808Z</time></trkpt><trkpt lat="45.0918692" lon="10.8558615"><ele>19.0</ele><time>2026-04-26T07:50:49.808Z</time></trkpt><trkpt lat="45.0921156" lon="10.8559497"><ele>19.0</ele><time>2026-04-26T07:50:50.809Z</time></trkpt><trkpt lat="45.0923611" lon="10.8560391"><ele>19.0</ele><time>2026-04-26T07:50:51.808Z</time></trkpt><trkpt lat="45.0926094" lon="10.8561266"><ele>19.0</ele><time>2026-04-26T07:50:52.809Z</time></trkpt><trkpt lat="45.0928608" lon="10.8562129"><ele>19.0</ele><time>2026-04-26T07:50:53.809Z</time></trkpt><trkpt lat="45.0931183" lon="10.8562986"><ele>20.5</ele><time>2026-04-26T07:50:54.808Z</time></trkpt><trkpt lat="45.0933865" lon="10.8563832"><ele>22.0</ele><time>2026-04-26T07:50:55.807Z</time></trkpt><trkpt lat="45.0936583" lon="10.856471"><ele>22.0</ele><time>2026-04-26T07:50:56.807Z</time></trkpt><trkpt lat="45.0939267" lon="10.8565593"><ele>22.0</ele><time>2026-04-26T07:50:57.809Z</time></trkpt><trkpt lat="45.0941954" lon="10.8566502"><ele>21.5</ele><time>2026-04-26T07:50:58.809Z</time></trkpt><trkpt lat="45.0944624" lon="10.8567419"><ele>21.0</ele><time>2026-04-26T07:50:59.808Z</time></trkpt><trkpt lat="45.0947248" lon="10.8568323"><ele>20.0</ele><time>2026-04-26T07:51:00.808Z</time></trkpt><trkpt lat="45.094989" lon="10.8569272"><ele>19.0</ele><time>2026-04-26T07:51:01.809Z</time></trkpt><trkpt lat="45.0952574" lon="10.8570265"><ele>19.0</ele><time>2026-04-26T07:51:02.808Z</time></trkpt><trkpt lat="45.0955307" lon="10.8571239"><ele>19.0</ele><time>2026-04-26T07:51:03.808Z</time></trkpt><trkpt lat="45.0958123" lon="10.857225"><ele>19.0</ele><time>2026-04-26T07:51:04.809Z</time></trkpt><trkpt lat="45.0960974" lon="10.8573259"><ele>19.0</ele><time>2026-04-26T07:51:05.808Z</time></trkpt><trkpt lat="45.096386" lon="10.8574302"><ele>18.0</ele><time>2026-04-26T07:51:06.808Z</time></trkpt><trkpt lat="45.0966825" lon="10.857538"><ele>17.0</ele><time>2026-04-26T07:51:07.808Z</time></trkpt><trkpt lat="45.0969737" lon="10.8576446"><ele>17.0</ele><time>2026-04-26T07:51:08.809Z</time></trkpt><trkpt lat="45.0972577" lon="10.8577495"><ele>17.0</ele><time>2026-04-26T07:51:09.807Z</time></trkpt><trkpt lat="45.0975404" lon="10.8578558"><ele>16.0</ele><time>2026-04-26T07:51:10.809Z</time></trkpt><trkpt lat="45.0978244" lon="10.8579565"><ele>15.0</ele><time>2026-04-26T07:51:11.807Z</time></trkpt><trkpt lat="45.0981121" lon="10.8580558"><ele>14.5</ele><time>2026-04-26T07:51:12.809Z</time></trkpt><trkpt lat="45.0983999" lon="10.8581571"><ele>14.0</ele><time>2026-04-26T07:51:13.808Z</time></trkpt><trkpt lat="45.0986904" lon="10.8582623"><ele>14.0</ele><time>2026-04-26T07:51:14.808Z</time></trkpt><trkpt lat="45.0989796" lon="10.8583711"><ele>14.0</ele><time>2026-04-26T07:51:15.808Z</time></trkpt><trkpt lat="45.0992664" lon="10.8584837"><ele>14.5</ele><time>2026-04-26T07:51:16.809Z</time></trkpt><trkpt lat="45.0995478" lon="10.8585951"><ele>15.0</ele><time>2026-04-26T07:51:17.808Z</time></trkpt><trkpt lat="45.0998244" lon="10.8586991"><ele>15.5</ele><time>2026-04-26T07:51:18.808Z</time></trkpt><trkpt lat="45.100095" lon="10.8587991"><ele>16.0</ele><time>2026-04-26T07:51:19.808Z</time></trkpt><trkpt lat="45.1003621" lon="10.8588959"><ele>16.0</ele><time>2026-04-26T07:51:20.807Z</time></trkpt><trkpt lat="45.1006245" lon="10.8589911"><ele>16.0</ele><time>2026-04-26T07:51:21.809Z</time></trkpt><trkpt lat="45.1008838" lon="10.8590858"><ele>15.0</ele><time>2026-04-26T07:51:22.808Z</time></trkpt><trkpt lat="45.1011421" lon="10.8591799"><ele>14.0</ele><time>2026-04-26T07:51:23.808Z</time></trkpt><trkpt lat="45.1013998" lon="10.859273"><ele>12.0</ele><time>2026-04-26T07:51:24.808Z</time></trkpt><trkpt lat="45.101656" lon="10.8593639"><ele>10.0</ele><time>2026-04-26T07:51:25.808Z</time></trkpt><trkpt lat="45.1019117" lon="10.8594546"><ele>10.0</ele><time>2026-04-26T07:51:26.808Z</time></trkpt><trkpt lat="45.1021666" lon="10.8595466"><ele>10.0</ele><time>2026-04-26T07:51:27.809Z</time></trkpt><trkpt lat="45.1024209" lon="10.8596375"><ele>11.0</ele><time>2026-04-26T07:51:28.808Z</time></trkpt><trkpt lat="45.1026753" lon="10.8597255"><ele>12.0</ele><time>2026-04-26T07:51:29.807Z</time></trkpt><trkpt lat="45.1029304" lon="10.8598146"><ele>12.0</ele><time>2026-04-26T07:51:30.808Z</time></trkpt><trkpt lat="45.1031847" lon="10.8599046"><ele>12.0</ele><time>2026-04-26T07:51:31.808Z</time></trkpt><trkpt lat="45.1034377" lon="10.8599962"><ele>12.0</ele><time>2026-04-26T07:51:32.808Z</time></trkpt><trkpt lat="45.1036893" lon="10.8600864"><ele>12.0</ele><time>2026-04-26T07:51:33.808Z</time></trkpt><trkpt lat="45.1039415" lon="10.8601751"><ele>11.0</ele><time>2026-04-26T07:51:34.808Z</time></trkpt><trkpt lat="45.1041921" lon="10.860267"><ele>10.0</ele><time>2026-04-26T07:51:35.807Z</time></trkpt><trkpt lat="45.1044425" lon="10.860362"><ele>10.0</ele><time>2026-04-26T07:51:36.807Z</time></trkpt><trkpt lat="45.1046919" lon="10.8604604"><ele>10.0</ele><time>2026-04-26T07:51:37.809Z</time></trkpt><trkpt lat="45.1049404" lon="10.8605614"><ele>11.5</ele><time>2026-04-26T07:51:38.808Z</time></trkpt><trkpt lat="45.1051883" lon="10.8606655"><ele>13.0</ele><time>2026-04-26T07:51:39.808Z</time></trkpt><trkpt lat="45.1054347" lon="10.8607718"><ele>13.0</ele><time>2026-04-26T07:51:40.807Z</time></trkpt><trkpt lat="45.1056803" lon="10.860883"><ele>13.0</ele><time>2026-04-26T07:51:41.808Z</time></trkpt><trkpt lat="45.1059259" lon="10.8609954"><ele>12.5</ele><time>2026-04-26T07:51:42.809Z</time></trkpt><trkpt lat="45.1061705" lon="10.8611092"><ele>12.0</ele><time>2026-04-26T07:51:43.808Z</time></trkpt><trkpt lat="45.1064159" lon="10.8612207"><ele>12.0</ele><time>2026-04-26T07:51:44.809Z</time></trkpt><trkpt lat="45.1066635" lon="10.8613308"><ele>12.0</ele><time>2026-04-26T07:51:45.808Z</time></trkpt><trkpt lat="45.1069105" lon="10.8614415"><ele>12.0</ele><time>2026-04-26T07:51:46.809Z</time></trkpt><trkpt lat="45.1071578" lon="10.8615532"><ele>12.0</ele><time>2026-04-26T07:51:47.808Z</time></trkpt><trkpt lat="45.1074061" lon="10.8616657"><ele>13.0</ele><time>2026-04-26T07:51:48.808Z</time></trkpt><trkpt lat="45.1076533" lon="10.8617782"><ele>14.0</ele><time>2026-04-26T07:51:49.808Z</time></trkpt><trkpt lat="45.1079008" lon="10.8618912"><ele>14.0</ele><time>2026-04-26T07:51:50.808Z</time></trkpt><trkpt lat="45.1081477" lon="10.8620037"><ele>14.0</ele><time>2026-04-26T07:51:51.808Z</time></trkpt><trkpt lat="45.1083946" lon="10.8621151"><ele>14.5</ele><time>2026-04-26T07:51:52.808Z</time></trkpt><trkpt lat="45.108643" lon="10.8622269"><ele>15.0</ele><time>2026-04-26T07:51:53.808Z</time></trkpt><trkpt lat="45.1088912" lon="10.8623393"><ele>16.0</ele><time>2026-04-26T07:51:54.809Z</time></trkpt><trkpt lat="45.1091396" lon="10.8624512"><ele>17.0</ele><time>2026-04-26T07:51:55.809Z</time></trkpt><trkpt lat="45.1093876" lon="10.862563"><ele>15.5</ele><time>2026-04-26T07:51:56.808Z</time></trkpt><trkpt lat="45.1096357" lon="10.862676"><ele>14.0</ele><time>2026-04-26T07:51:57.808Z</time></trkpt><trkpt lat="45.1098835" lon="10.8627902"><ele>15.0</ele><time>2026-04-26T07:51:58.809Z</time></trkpt><trkpt lat="45.1101308" lon="10.8629049"><ele>16.0</ele><time>2026-04-26T07:51:59.806Z</time></trkpt><trkpt lat="45.1103779" lon="10.8630182"><ele>16.0</ele><time>2026-04-26T07:52:00.806Z</time></trkpt><trkpt lat="45.1106244" lon="10.8631295"><ele>16.0</ele><time>2026-04-26T07:52:01.807Z</time></trkpt><trkpt lat="45.1108721" lon="10.8632401"><ele>16.5</ele><time>2026-04-26T07:52:02.807Z</time></trkpt><trkpt lat="45.111121" lon="10.8633516"><ele>17.0</ele><time>2026-04-26T07:52:03.807Z</time></trkpt><trkpt lat="45.111372" lon="10.8634636"><ele>16.5</ele><time>2026-04-26T07:52:04.806Z</time></trkpt><trkpt lat="45.1116235" lon="10.8635774"><ele>16.0</ele><time>2026-04-26T07:52:05.808Z</time></trkpt><trkpt lat="45.1118754" lon="10.8636939"><ele>16.0</ele><time>2026-04-26T07:52:06.807Z</time></trkpt><trkpt lat="45.1121324" lon="10.863811"><ele>16.0</ele><time>2026-04-26T07:52:07.807Z</time></trkpt><trkpt lat="45.1123948" lon="10.8639313"><ele>16.5</ele><time>2026-04-26T07:52:08.807Z</time></trkpt><trkpt lat="45.1126612" lon="10.8640517"><ele>17.0</ele><time>2026-04-26T07:52:09.807Z</time></trkpt><trkpt lat="45.1129318" lon="10.8641735"><ele>17.0</ele><time>2026-04-26T07:52:10.806Z</time></trkpt><trkpt lat="45.1132067" lon="10.8642975"><ele>17.0</ele><time>2026-04-26T07:52:11.807Z</time></trkpt><trkpt lat="45.1134845" lon="10.864424"><ele>17.5</ele><time>2026-04-26T07:52:12.807Z</time></trkpt><trkpt lat="45.1137651" lon="10.8645501"><ele>18.0</ele><time>2026-04-26T07:52:13.807Z</time></trkpt><trkpt lat="45.1140488" lon="10.8646781"><ele>17.0</ele><time>2026-04-26T07:52:14.807Z</time></trkpt><trkpt lat="45.1143352" lon="10.8648087"><ele>16.0</ele><time>2026-04-26T07:52:15.808Z</time></trkpt><trkpt lat="45.1146238" lon="10.8649398"><ele>16.0</ele><time>2026-04-26T07:52:16.806Z</time></trkpt><trkpt lat="45.114914" lon="10.8650714"><ele>16.0</ele><time>2026-04-26T07:52:17.806Z</time></trkpt><trkpt lat="45.1152014" lon="10.8652002"><ele>15.5</ele><time>2026-04-26T07:52:18.807Z</time></trkpt><trkpt lat="45.1154784" lon="10.8653245"><ele>15.0</ele><time>2026-04-26T07:52:19.808Z</time></trkpt><trkpt lat="45.1157431" lon="10.8654438"><ele>15.0</ele><time>2026-04-26T07:52:20.807Z</time></trkpt><trkpt lat="45.1159978" lon="10.8655597"><ele>15.0</ele><time>2026-04-26T07:52:21.808Z</time></trkpt><trkpt lat="45.1162518" lon="10.8656763"><ele>15.0</ele><time>2026-04-26T07:52:22.807Z</time></trkpt><trkpt lat="45.1165029" lon="10.8657919"><ele>15.0</ele><time>2026-04-26T07:52:23.806Z</time></trkpt><trkpt lat="45.1167536" lon="10.8659067"><ele>15.0</ele><time>2026-04-26T07:52:24.807Z</time></trkpt><trkpt lat="45.1170048" lon="10.8660214"><ele>15.0</ele><time>2026-04-26T07:52:25.807Z</time></trkpt><trkpt lat="45.1172552" lon="10.8661342"><ele>15.0</ele><time>2026-04-26T07:52:26.807Z</time></trkpt><trkpt lat="45.1175056" lon="10.8662479"><ele>15.0</ele><time>2026-04-26T07:52:27.806Z</time></trkpt><trkpt lat="45.1177548" lon="10.8663599"><ele>15.0</ele><time>2026-04-26T07:52:28.806Z</time></trkpt><trkpt lat="45.1180034" lon="10.8664699"><ele>15.0</ele><time>2026-04-26T07:52:29.808Z</time></trkpt><trkpt lat="45.1182512" lon="10.8665794"><ele>15.5</ele><time>2026-04-26T07:52:30.806Z</time></trkpt><trkpt lat="45.1184978" lon="10.8666911"><ele>16.0</ele><time>2026-04-26T07:52:31.807Z</time></trkpt><trkpt lat="45.1187418" lon="10.8668023"><ele>16.0</ele><time>2026-04-26T07:52:32.807Z</time></trkpt><trkpt lat="45.1189797" lon="10.8669102"><ele>16.0</ele><time>2026-04-26T07:52:33.808Z</time></trkpt><trkpt lat="45.1192166" lon="10.8670185"><ele>16.0</ele><time>2026-04-26T07:52:34.808Z</time></trkpt><trkpt lat="45.1194506" lon="10.8671281"><ele>16.0</ele><time>2026-04-26T07:52:35.806Z</time></trkpt><trkpt lat="45.1196862" lon="10.8672387"><ele>15.0</ele><time>2026-04-26T07:52:36.807Z</time></trkpt><trkpt lat="45.1199211" lon="10.8673487"><ele>14.0</ele><time>2026-04-26T07:52:37.806Z</time></trkpt><trkpt lat="45.1201581" lon="10.8674543"><ele>14.0</ele><time>2026-04-26T07:52:38.807Z</time></trkpt><trkpt lat="45.1203937" lon="10.8675599"><ele>14.0</ele><time>2026-04-26T07:52:39.807Z</time></trkpt><trkpt lat="45.1206282" lon="10.8676639"><ele>14.0</ele><time>2026-04-26T07:52:40.807Z</time></trkpt><trkpt lat="45.1208689" lon="10.8677714"><ele>14.0</ele><time>2026-04-26T07:52:41.808Z</time></trkpt><trkpt lat="45.1211139" lon="10.867883"><ele>14.0</ele><time>2026-04-26T07:52:42.807Z</time></trkpt><trkpt lat="45.1213622" lon="10.8679977"><ele>14.0</ele><time>2026-04-26T07:52:43.807Z</time></trkpt><trkpt lat="45.1216125" lon="10.8681127"><ele>14.5</ele><time>2026-04-26T07:52:44.807Z</time></trkpt><trkpt lat="45.1218676" lon="10.8682262"><ele>15.0</ele><time>2026-04-26T07:52:45.807Z</time></trkpt><trkpt lat="45.1221309" lon="10.8683373"><ele>16.0</ele><time>2026-04-26T07:52:46.807Z</time></trkpt><trkpt lat="45.1223996" lon="10.8684486"><ele>17.0</ele><time>2026-04-26T07:52:47.808Z</time></trkpt><trkpt lat="45.1226645" lon="10.8685585"><ele>17.0</ele><time>2026-04-26T07:52:48.808Z</time></trkpt><trkpt lat="45.1229241" lon="10.8686695"><ele>17.0</ele><time>2026-04-26T07:52:49.806Z</time></trkpt><trkpt lat="45.1231843" lon="10.868783"><ele>17.5</ele><time>2026-04-26T07:52:50.807Z</time></trkpt><trkpt lat="45.123447" lon="10.8688997"><ele>18.0</ele><time>2026-04-26T07:52:51.806Z</time></trkpt><trkpt lat="45.1237134" lon="10.8690189"><ele>18.0</ele><time>2026-04-26T07:52:52.806Z</time></trkpt><trkpt lat="45.1239818" lon="10.8691417"><ele>18.0</ele><time>2026-04-26T07:52:53.808Z</time></trkpt><trkpt lat="45.1242519" lon="10.8692653"><ele>17.5</ele><time>2026-04-26T07:52:54.808Z</time></trkpt><trkpt lat="45.1245221" lon="10.8693914"><ele>17.0</ele><time>2026-04-26T07:52:55.807Z</time></trkpt><trkpt lat="45.1247934" lon="10.8695196"><ele>17.5</ele><time>2026-04-26T07:52:56.806Z</time></trkpt><trkpt lat="45.1250657" lon="10.8696456"><ele>18.0</ele><time>2026-04-26T07:52:57.807Z</time></trkpt><trkpt lat="45.1253354" lon="10.8697694"><ele>18.0</ele><time>2026-04-26T07:52:58.807Z</time></trkpt><trkpt lat="45.125603" lon="10.8698898"><ele>18.0</ele><time>2026-04-26T07:52:59.806Z</time></trkpt><trkpt lat="45.1258686" lon="10.8700039"><ele>19.0</ele><time>2026-04-26T07:53:00.807Z</time></trkpt><trkpt lat="45.1261335" lon="10.870112"><ele>20.0</ele><time>2026-04-26T07:53:01.807Z</time></trkpt><trkpt lat="45.1263984" lon="10.8702129"><ele>20.0</ele><time>2026-04-26T07:53:02.807Z</time></trkpt><trkpt lat="45.1266631" lon="10.8703073"><ele>20.0</ele><time>2026-04-26T07:53:03.807Z</time></trkpt><trkpt lat="45.1269278" lon="10.8703963"><ele>20.0</ele><time>2026-04-26T07:53:04.808Z</time></trkpt><trkpt lat="45.127194" lon="10.8704813"><ele>20.0</ele><time>2026-04-26T07:53:05.808Z</time></trkpt><trkpt lat="45.1274634" lon="10.870564"><ele>20.0</ele><time>2026-04-26T07:53:06.808Z</time></trkpt><trkpt lat="45.127737" lon="10.870643"><ele>20.0</ele><time>2026-04-26T07:53:07.807Z</time></trkpt><trkpt lat="45.1280131" lon="10.8707135"><ele>20.5</ele><time>2026-04-26T07:53:08.806Z</time></trkpt><trkpt lat="45.1282931" lon="10.8707772"><ele>21.0</ele><time>2026-04-26T07:53:09.807Z</time></trkpt><trkpt lat="45.1285738" lon="10.8708415"><ele>21.0</ele><time>2026-04-26T07:53:10.807Z</time></trkpt><trkpt lat="45.1288524" lon="10.8709051"><ele>21.0</ele><time>2026-04-26T07:53:11.806Z</time></trkpt><trkpt lat="45.129132" lon="10.8709662"><ele>21.0</ele><time>2026-04-26T07:53:12.807Z</time></trkpt><trkpt lat="45.1294085" lon="10.8710232"><ele>21.0</ele><time>2026-04-26T07:53:13.808Z</time></trkpt><trkpt lat="45.1296819" lon="10.871077"><ele>21.0</ele><time>2026-04-26T07:53:14.808Z</time></trkpt><trkpt lat="45.1299598" lon="10.8711297"><ele>21.0</ele><time>2026-04-26T07:53:15.807Z</time></trkpt><trkpt lat="45.130239" lon="10.871179"><ele>21.0</ele><time>2026-04-26T07:53:16.807Z</time></trkpt><trkpt lat="45.1305203" lon="10.8712261"><ele>21.0</ele><time>2026-04-26T07:53:17.807Z</time></trkpt><trkpt lat="45.1308018" lon="10.8712738"><ele>20.0</ele><time>2026-04-26T07:53:18.808Z</time></trkpt><trkpt lat="45.1310845" lon="10.8713169"><ele>19.0</ele><time>2026-04-26T07:53:19.807Z</time></trkpt><trkpt lat="45.1313687" lon="10.871356"><ele>19.5</ele><time>2026-04-26T07:53:20.808Z</time></trkpt><trkpt lat="45.1316541" lon="10.8713911"><ele>20.0</ele><time>2026-04-26T07:53:21.808Z</time></trkpt><trkpt lat="45.1319406" lon="10.8714197"><ele>20.0</ele><time>2026-04-26T07:53:22.806Z</time></trkpt><trkpt lat="45.1322284" lon="10.8714406"><ele>20.0</ele><time>2026-04-26T07:53:23.807Z</time></trkpt><trkpt lat="45.1325179" lon="10.8714511"><ele>20.0</ele><time>2026-04-26T07:53:24.807Z</time></trkpt><trkpt lat="45.1328078" lon="10.8714573"><ele>20.0</ele><time>2026-04-26T07:53:25.808Z</time></trkpt><trkpt lat="45.1330958" lon="10.8714596"><ele>20.5</ele><time>2026-04-26T07:53:26.808Z</time></trkpt><trkpt lat="45.1333805" lon="10.8714557"><ele>21.0</ele><time>2026-04-26T07:53:27.808Z</time></trkpt><trkpt lat="45.1336618" lon="10.8714511"><ele>21.0</ele><time>2026-04-26T07:53:28.807Z</time></trkpt><trkpt lat="45.1339398" lon="10.871437"><ele>21.0</ele><time>2026-04-26T07:53:29.808Z</time></trkpt><trkpt lat="45.134214" lon="10.871426"><ele>20.5</ele><time>2026-04-26T07:53:30.807Z</time></trkpt><trkpt lat="45.1344853" lon="10.8714136"><ele>20.0</ele><time>2026-04-26T07:53:31.808Z</time></trkpt><trkpt lat="45.1347536" lon="10.8713977"><ele>19.5</ele><time>2026-04-26T07:53:32.806Z</time></trkpt><trkpt lat="45.1350219" lon="10.8713749"><ele>19.0</ele><time>2026-04-26T07:53:33.807Z</time></trkpt><trkpt lat="45.1352916" lon="10.8713483"><ele>19.0</ele><time>2026-04-26T07:53:34.807Z</time></trkpt><trkpt lat="45.135563" lon="10.8713141"><ele>19.0</ele><time>2026-04-26T07:53:35.807Z</time></trkpt><trkpt lat="45.1358342" lon="10.8712775"><ele>18.5</ele><time>2026-04-26T07:53:36.806Z</time></trkpt><trkpt lat="45.1361083" lon="10.871238"><ele>18.0</ele><time>2026-04-26T07:53:37.806Z</time></trkpt><trkpt lat="45.1363849" lon="10.8711947"><ele>17.0</ele><time>2026-04-26T07:53:38.807Z</time></trkpt><trkpt lat="45.1366648" lon="10.8711454"><ele>16.0</ele><time>2026-04-26T07:53:39.806Z</time></trkpt><trkpt lat="45.1369466" lon="10.8710872"><ele>16.0</ele><time>2026-04-26T07:53:40.807Z</time></trkpt><trkpt lat="45.1372322" lon="10.871021"><ele>16.0</ele><time>2026-04-26T07:53:41.807Z</time></trkpt><trkpt lat="45.1375199" lon="10.8709497"><ele>17.0</ele><time>2026-04-26T07:53:42.808Z</time></trkpt><trkpt lat="45.13781" lon="10.8708737"><ele>18.0</ele><time>2026-04-26T07:53:43.807Z</time></trkpt><trkpt lat="45.1381013" lon="10.8707937"><ele>20.0</ele><time>2026-04-26T07:53:44.807Z</time></trkpt><trkpt lat="45.1383919" lon="10.8707105"><ele>22.0</ele><time>2026-04-26T07:53:45.806Z</time></trkpt><trkpt lat="45.1386812" lon="10.8706274"><ele>22.0</ele><time>2026-04-26T07:53:46.807Z</time></trkpt><trkpt lat="45.1389662" lon="10.8705413"><ele>22.0</ele><time>2026-04-26T07:53:47.807Z</time></trkpt><trkpt lat="45.1392494" lon="10.8704538"><ele>21.0</ele><time>2026-04-26T07:53:48.807Z</time></trkpt><trkpt lat="45.1395305" lon="10.8703636"><ele>20.0</ele><time>2026-04-26T07:53:49.808Z</time></trkpt><trkpt lat="45.139809" lon="10.8702745"><ele>20.0</ele><time>2026-04-26T07:53:50.807Z</time></trkpt><trkpt lat="45.140086" lon="10.8701804"><ele>20.0</ele><time>2026-04-26T07:53:51.806Z</time></trkpt><trkpt lat="45.1403605" lon="10.8700832"><ele>20.0</ele><time>2026-04-26T07:53:52.807Z</time></trkpt><trkpt lat="45.1406355" lon="10.8699818"><ele>20.0</ele><time>2026-04-26T07:53:53.807Z</time></trkpt><trkpt lat="45.1409094" lon="10.8698777"><ele>20.0</ele><time>2026-04-26T07:53:54.807Z</time></trkpt><trkpt lat="45.1411833" lon="10.8697696"><ele>20.0</ele><time>2026-04-26T07:53:55.808Z</time></trkpt><trkpt lat="45.1414568" lon="10.8696577"><ele>20.5</ele><time>2026-04-26T07:53:56.808Z</time></trkpt><trkpt lat="45.1417318" lon="10.8695449"><ele>21.0</ele><time>2026-04-26T07:53:57.806Z</time></trkpt><trkpt lat="45.1420089" lon="10.8694285"><ele>21.0</ele><time>2026-04-26T07:53:58.807Z</time></trkpt><trkpt lat="45.142286" lon="10.8693115"><ele>21.0</ele><time>2026-04-26T07:53:59.808Z</time></trkpt><trkpt lat="45.1425638" lon="10.869196"><ele>20.0</ele><time>2026-04-26T07:54:00.807Z</time></trkpt><trkpt lat="45.1428401" lon="10.8690792"><ele>19.0</ele><time>2026-04-26T07:54:01.808Z</time></trkpt><trkpt lat="45.143118" lon="10.8689628"><ele>19.0</ele><time>2026-04-26T07:54:02.807Z</time></trkpt><trkpt lat="45.143395" lon="10.8688458"><ele>19.0</ele><time>2026-04-26T07:54:03.808Z</time></trkpt><trkpt lat="45.1436716" lon="10.8687282"><ele>19.0</ele><time>2026-04-26T07:54:04.808Z</time></trkpt><trkpt lat="45.1439474" lon="10.8686119"><ele>19.0</ele><time>2026-04-26T07:54:05.807Z</time></trkpt><trkpt lat="45.1442238" lon="10.8684959"><ele>20.5</ele><time>2026-04-26T07:54:06.808Z</time></trkpt><trkpt lat="45.1445" lon="10.8683799"><ele>22.0</ele><time>2026-04-26T07:54:07.807Z</time></trkpt><trkpt lat="45.1447755" lon="10.8682656"><ele>22.0</ele><time>2026-04-26T07:54:08.807Z</time></trkpt><trkpt lat="45.14505" lon="10.868152"><ele>22.0</ele><time>2026-04-26T07:54:09.807Z</time></trkpt><trkpt lat="45.1453242" lon="10.8680376"><ele>22.0</ele><time>2026-04-26T07:54:10.808Z</time></trkpt><trkpt lat="45.1455965" lon="10.8679219"><ele>22.0</ele><time>2026-04-26T07:54:11.807Z</time></trkpt><trkpt lat="45.1458681" lon="10.8678034"><ele>21.5</ele><time>2026-04-26T07:54:12.808Z</time></trkpt><trkpt lat="45.1461376" lon="10.8676873"><ele>21.0</ele><time>2026-04-26T07:54:13.806Z</time></trkpt><trkpt lat="45.1464083" lon="10.8675703"><ele>20.5</ele><time>2026-04-26T07:54:14.808Z</time></trkpt><trkpt lat="45.1466787" lon="10.8674545"><ele>20.0</ele><time>2026-04-26T07:54:15.808Z</time></trkpt><trkpt lat="45.146949" lon="10.8673396"><ele>20.0</ele><time>2026-04-26T07:54:16.807Z</time></trkpt><trkpt lat="45.1472223" lon="10.8672265"><ele>20.0</ele><time>2026-04-26T07:54:17.807Z</time></trkpt><trkpt lat="45.1474963" lon="10.8671138"><ele>21.0</ele><time>2026-04-26T07:54:18.807Z</time></trkpt><trkpt lat="45.1477701" lon="10.8670014"><ele>22.0</ele><time>2026-04-26T07:54:19.807Z</time></trkpt><trkpt lat="45.148045" lon="10.8668861"><ele>20.5</ele><time>2026-04-26T07:54:20.807Z</time></trkpt><trkpt lat="45.1483199" lon="10.8667708"><ele>19.0</ele><time>2026-04-26T07:54:21.807Z</time></trkpt><trkpt lat="45.1485958" lon="10.8666546"><ele>19.0</ele><time>2026-04-26T07:54:22.807Z</time></trkpt><trkpt lat="45.1488714" lon="10.866538"><ele>19.0</ele><time>2026-04-26T07:54:23.808Z</time></trkpt><trkpt lat="45.149148" lon="10.8664202"><ele>20.0</ele><time>2026-04-26T07:54:24.808Z</time></trkpt><trkpt lat="45.1494258" lon="10.8663038"><ele>21.0</ele><time>2026-04-26T07:54:25.807Z</time></trkpt><trkpt lat="45.1497035" lon="10.8661868"><ele>20.5</ele><time>2026-04-26T07:54:26.806Z</time></trkpt><trkpt lat="45.1499833" lon="10.8660698"><ele>20.0</ele><time>2026-04-26T07:54:27.808Z</time></trkpt><trkpt lat="45.1502642" lon="10.8659506"><ele>19.5</ele><time>2026-04-26T07:54:28.807Z</time></trkpt><trkpt lat="45.1505468" lon="10.8658298"><ele>19.0</ele><time>2026-04-26T07:54:29.808Z</time></trkpt><trkpt lat="45.1508311" lon="10.8657095"><ele>20.5</ele><time>2026-04-26T07:54:30.808Z</time></trkpt><trkpt lat="45.1511161" lon="10.8655875"><ele>22.0</ele><time>2026-04-26T07:54:31.806Z</time></trkpt><trkpt lat="45.1514018" lon="10.8654649"><ele>21.5</ele><time>2026-04-26T07:54:32.807Z</time></trkpt><trkpt lat="45.1516827" lon="10.8653444"><ele>21.0</ele><time>2026-04-26T07:54:33.807Z</time></trkpt><trkpt lat="45.1519605" lon="10.865227"><ele>21.0</ele><time>2026-04-26T07:54:34.806Z</time></trkpt><trkpt lat="45.1522346" lon="10.8651123"><ele>21.0</ele><time>2026-04-26T07:54:35.806Z</time></trkpt><trkpt lat="45.1525056" lon="10.8649996"><ele>21.0</ele><time>2026-04-26T07:54:36.807Z</time></trkpt><trkpt lat="45.1527765" lon="10.8648867"><ele>21.0</ele><time>2026-04-26T07:54:37.807Z</time></trkpt><trkpt lat="45.1530483" lon="10.8647755"><ele>20.5</ele><time>2026-04-26T07:54:38.807Z</time></trkpt><trkpt lat="45.1533188" lon="10.8646613"><ele>20.0</ele><time>2026-04-26T07:54:39.807Z</time></trkpt><trkpt lat="45.1535913" lon="10.8645425"><ele>20.0</ele><time>2026-04-26T07:54:40.807Z</time></trkpt><trkpt lat="45.1538626" lon="10.8644257"><ele>20.0</ele><time>2026-04-26T07:54:41.807Z</time></trkpt><trkpt lat="45.1541339" lon="10.86431"><ele>19.5</ele><time>2026-04-26T07:54:42.808Z</time></trkpt><trkpt lat="45.1544082" lon="10.864195"><ele>19.0</ele><time>2026-04-26T07:54:43.807Z</time></trkpt><trkpt lat="45.1546849" lon="10.8640802"><ele>20.0</ele><time>2026-04-26T07:54:44.807Z</time></trkpt><trkpt lat="45.1549634" lon="10.8639612"><ele>21.0</ele><time>2026-04-26T07:54:45.808Z</time></trkpt><trkpt lat="45.1552454" lon="10.8638442"><ele>21.0</ele><time>2026-04-26T07:54:46.807Z</time></trkpt><trkpt lat="45.155527" lon="10.8637292"><ele>21.0</ele><time>2026-04-26T07:54:47.808Z</time></trkpt><trkpt lat="45.1558094" lon="10.86361"><ele>21.5</ele><time>2026-04-26T07:54:48.807Z</time></trkpt><trkpt lat="45.1560921" lon="10.8634893"><ele>22.0</ele><time>2026-04-26T07:54:49.807Z</time></trkpt><trkpt lat="45.1563759" lon="10.8633709"><ele>21.0</ele><time>2026-04-26T07:54:50.807Z</time></trkpt><trkpt lat="45.1566597" lon="10.8632518"><ele>20.0</ele><time>2026-04-26T07:54:51.808Z</time></trkpt><trkpt lat="45.1569399" lon="10.863131"><ele>20.0</ele><time>2026-04-26T07:54:52.807Z</time></trkpt><trkpt lat="45.1572182" lon="10.8630082"><ele>20.0</ele><time>2026-04-26T07:54:53.807Z</time></trkpt><trkpt lat="45.157494" lon="10.8628866"><ele>20.0</ele><time>2026-04-26T07:54:54.806Z</time></trkpt><trkpt lat="45.1577676" lon="10.8627691"><ele>20.0</ele><time>2026-04-26T07:54:55.808Z</time></trkpt><trkpt lat="45.1580389" lon="10.8626542"><ele>21.0</ele><time>2026-04-26T07:54:56.807Z</time></trkpt><trkpt lat="45.1583077" lon="10.862542"><ele>22.0</ele><time>2026-04-26T07:54:57.808Z</time></trkpt><trkpt lat="45.1585751" lon="10.8624313"><ele>22.0</ele><time>2026-04-26T07:54:58.808Z</time></trkpt><trkpt lat="45.1588435" lon="10.8623209"><ele>22.0</ele><time>2026-04-26T07:54:59.808Z</time></trkpt><trkpt lat="45.1591133" lon="10.8622093"><ele>23.0</ele><time>2026-04-26T07:55:00.807Z</time></trkpt><trkpt lat="45.1593829" lon="10.862097"><ele>24.0</ele><time>2026-04-26T07:55:01.806Z</time></trkpt><trkpt lat="45.1596523" lon="10.861984"><ele>24.5</ele><time>2026-04-26T07:55:02.807Z</time></trkpt><trkpt lat="45.1599226" lon="10.8618659"><ele>25.0</ele><time>2026-04-26T07:55:03.807Z</time></trkpt><trkpt lat="45.1601939" lon="10.861747"><ele>24.5</ele><time>2026-04-26T07:55:04.807Z</time></trkpt><trkpt lat="45.1604652" lon="10.8616273"><ele>24.0</ele><time>2026-04-26T07:55:05.807Z</time></trkpt><trkpt lat="45.160736" lon="10.8615049"><ele>24.0</ele><time>2026-04-26T07:55:06.807Z</time></trkpt><trkpt lat="45.1610052" lon="10.8613787"><ele>24.0</ele><time>2026-04-26T07:55:07.807Z</time></trkpt><trkpt lat="45.1612737" lon="10.8612522"><ele>21.5</ele><time>2026-04-26T07:55:08.808Z</time></trkpt><trkpt lat="45.1615431" lon="10.8611251"><ele>19.0</ele><time>2026-04-26T07:55:09.807Z</time></trkpt><trkpt lat="45.1618136" lon="10.8609956"><ele>22.0</ele><time>2026-04-26T07:55:10.808Z</time></trkpt><trkpt lat="45.1620826" lon="10.860866"><ele>25.0</ele><time>2026-04-26T07:55:11.808Z</time></trkpt><trkpt lat="45.162354" lon="10.8607355"><ele>25.0</ele><time>2026-04-26T07:55:12.806Z</time></trkpt><trkpt lat="45.1626241" lon="10.8606073"><ele>25.0</ele><time>2026-04-26T07:55:13.807Z</time></trkpt><trkpt lat="45.162893" lon="10.8604774"><ele>25.0</ele><time>2026-04-26T07:55:14.807Z</time></trkpt><trkpt lat="45.1631608" lon="10.8603474"><ele>25.0</ele><time>2026-04-26T07:55:15.807Z</time></trkpt><trkpt lat="45.1634289" lon="10.8602153"><ele>24.0</ele><time>2026-04-26T07:55:16.807Z</time></trkpt><trkpt lat="45.1636959" lon="10.8600798"><ele>23.0</ele><time>2026-04-26T07:55:17.807Z</time></trkpt><trkpt lat="45.1639642" lon="10.8599467"><ele>24.0</ele><time>2026-04-26T07:55:18.807Z</time></trkpt><trkpt lat="45.1642319" lon="10.8598124"><ele>25.0</ele><time>2026-04-26T07:55:19.807Z</time></trkpt><trkpt lat="45.1644992" lon="10.8596791"><ele>25.0</ele><time>2026-04-26T07:55:20.807Z</time></trkpt><trkpt lat="45.1647669" lon="10.8595446"><ele>25.0</ele><time>2026-04-26T07:55:21.808Z</time></trkpt><trkpt lat="45.1650351" lon="10.8594105"><ele>25.5</ele><time>2026-04-26T07:55:22.808Z</time></trkpt><trkpt lat="45.1653038" lon="10.8592742"><ele>26.0</ele><time>2026-04-26T07:55:23.806Z</time></trkpt><trkpt lat="45.1655726" lon="10.8591378"><ele>25.5</ele><time>2026-04-26T07:55:24.806Z</time></trkpt><trkpt lat="45.165844" lon="10.8590011"><ele>25.0</ele><time>2026-04-26T07:55:25.807Z</time></trkpt><trkpt lat="45.1661175" lon="10.8588637"><ele>25.0</ele><time>2026-04-26T07:55:26.808Z</time></trkpt><trkpt lat="45.166392" lon="10.8587261"><ele>25.0</ele><time>2026-04-26T07:55:27.807Z</time></trkpt><trkpt lat="45.1666691" lon="10.8585874"><ele>24.0</ele><time>2026-04-26T07:55:28.808Z</time></trkpt><trkpt lat="45.1669466" lon="10.8584467"><ele>23.0</ele><time>2026-04-26T07:55:29.807Z</time></trkpt><trkpt lat="45.167223" lon="10.8583058"><ele>25.0</ele><time>2026-04-26T07:55:30.807Z</time></trkpt><trkpt lat="45.1674943" lon="10.8581672"><ele>27.0</ele><time>2026-04-26T07:55:31.808Z</time></trkpt><trkpt lat="45.1677626" lon="10.8580292"><ele>27.0</ele><time>2026-04-26T07:55:32.807Z</time></trkpt><trkpt lat="45.168027" lon="10.8578948"><ele>27.0</ele><time>2026-04-26T07:55:33.807Z</time></trkpt><trkpt lat="45.1682942" lon="10.8577615"><ele>26.0</ele><time>2026-04-26T07:55:34.806Z</time></trkpt><trkpt lat="45.1685628" lon="10.8576253"><ele>25.0</ele><time>2026-04-26T07:55:35.807Z</time></trkpt><trkpt lat="45.1688345" lon="10.8574867"><ele>25.0</ele><time>2026-04-26T07:55:36.808Z</time></trkpt><trkpt lat="45.1691094" lon="10.8573451"><ele>25.0</ele><time>2026-04-26T07:55:37.808Z</time></trkpt><trkpt lat="45.1693866" lon="10.8572034"><ele>25.0</ele><time>2026-04-26T07:55:38.807Z</time></trkpt><trkpt lat="45.1696639" lon="10.8570635"><ele>25.0</ele><time>2026-04-26T07:55:39.808Z</time></trkpt><trkpt lat="45.1699428" lon="10.8569242"><ele>24.5</ele><time>2026-04-26T07:55:40.807Z</time></trkpt><trkpt lat="45.1702239" lon="10.8567836"><ele>24.0</ele><time>2026-04-26T07:55:41.807Z</time></trkpt><trkpt lat="45.1705073" lon="10.856642"><ele>24.5</ele><time>2026-04-26T07:55:42.807Z</time></trkpt><trkpt lat="45.170791" lon="10.8565011"><ele>25.0</ele><time>2026-04-26T07:55:43.807Z</time></trkpt><trkpt lat="45.1710753" lon="10.8563527"><ele>25.0</ele><time>2026-04-26T07:55:44.807Z</time></trkpt><trkpt lat="45.1713597" lon="10.85621"><ele>25.0</ele><time>2026-04-26T07:55:45.808Z</time></trkpt><trkpt lat="45.1716458" lon="10.8560668"><ele>24.5</ele><time>2026-04-26T07:55:46.807Z</time></trkpt><trkpt lat="45.1719322" lon="10.8559238"><ele>24.0</ele><time>2026-04-26T07:55:47.807Z</time></trkpt><trkpt lat="45.1722191" lon="10.8557807"><ele>24.5</ele><time>2026-04-26T07:55:48.806Z</time></trkpt><trkpt lat="45.1725071" lon="10.8556376"><ele>25.0</ele><time>2026-04-26T07:55:49.807Z</time></trkpt><trkpt lat="45.1727942" lon="10.8554948"><ele>25.0</ele><time>2026-04-26T07:55:50.807Z</time></trkpt><trkpt lat="45.1730815" lon="10.8553501"><ele>25.0</ele><time>2026-04-26T07:55:51.808Z</time></trkpt><trkpt lat="45.1733685" lon="10.8552045"><ele>24.0</ele><time>2026-04-26T07:55:52.808Z</time></trkpt><trkpt lat="45.1736563" lon="10.8550595"><ele>23.0</ele><time>2026-04-26T07:55:53.807Z</time></trkpt><trkpt lat="45.1739452" lon="10.8549119"><ele>22.5</ele><time>2026-04-26T07:55:54.808Z</time></trkpt><trkpt lat="45.1742341" lon="10.854767"><ele>22.0</ele><time>2026-04-26T07:55:55.807Z</time></trkpt><trkpt lat="45.1745213" lon="10.8546215"><ele>22.0</ele><time>2026-04-26T07:55:56.808Z</time></trkpt><trkpt lat="45.174808" lon="10.8544749"><ele>22.0</ele><time>2026-04-26T07:55:57.808Z</time></trkpt><trkpt lat="45.1750944" lon="10.8543313"><ele>22.5</ele><time>2026-04-26T07:55:58.807Z</time></trkpt><trkpt lat="45.1753811" lon="10.8541872"><ele>23.0</ele><time>2026-04-26T07:55:59.807Z</time></trkpt><trkpt lat="45.1756649" lon="10.8540414"><ele>22.5</ele><time>2026-04-26T07:56:00.807Z</time></trkpt><trkpt lat="45.1759454" lon="10.8538985"><ele>22.0</ele><time>2026-04-26T07:56:01.807Z</time></trkpt><trkpt lat="45.1762245" lon="10.8537559"><ele>22.0</ele><time>2026-04-26T07:56:02.807Z</time></trkpt><trkpt lat="45.1765019" lon="10.8536149"><ele>22.0</ele><time>2026-04-26T07:56:03.807Z</time></trkpt><trkpt lat="45.1767822" lon="10.8534708"><ele>22.5</ele><time>2026-04-26T07:56:04.808Z</time></trkpt><trkpt lat="45.1770619" lon="10.8533316"><ele>23.0</ele><time>2026-04-26T07:56:05.806Z</time></trkpt><trkpt lat="45.1773425" lon="10.8531922"><ele>24.0</ele><time>2026-04-26T07:56:06.808Z</time></trkpt><trkpt lat="45.1776251" lon="10.8530532"><ele>25.0</ele><time>2026-04-26T07:56:07.807Z</time></trkpt><trkpt lat="45.1779068" lon="10.8529138"><ele>25.0</ele><time>2026-04-26T07:56:08.806Z</time></trkpt><trkpt lat="45.1781911" lon="10.8527719"><ele>25.0</ele><time>2026-04-26T07:56:09.807Z</time></trkpt><trkpt lat="45.1784714" lon="10.8526274"><ele>25.0</ele><time>2026-04-26T07:56:10.807Z</time></trkpt><trkpt lat="45.1787553" lon="10.8524843"><ele>25.0</ele><time>2026-04-26T07:56:11.807Z</time></trkpt><trkpt lat="45.1790383" lon="10.8523415"><ele>24.5</ele><time>2026-04-26T07:56:12.808Z</time></trkpt><trkpt lat="45.1793214" lon="10.8521973"><ele>24.0</ele><time>2026-04-26T07:56:13.807Z</time></trkpt><trkpt lat="45.1796054" lon="10.8520523"><ele>24.5</ele><time>2026-04-26T07:56:14.807Z</time></trkpt><trkpt lat="45.1798899" lon="10.8519081"><ele>25.0</ele><time>2026-04-26T07:56:15.807Z</time></trkpt><trkpt lat="45.1801763" lon="10.8517659"><ele>24.0</ele><time>2026-04-26T07:56:16.808Z</time></trkpt><trkpt lat="45.1804633" lon="10.8516256"><ele>23.0</ele><time>2026-04-26T07:56:17.808Z</time></trkpt><trkpt lat="45.1807511" lon="10.8514844"><ele>23.0</ele><time>2026-04-26T07:56:18.807Z</time></trkpt><trkpt lat="45.181039" lon="10.851342"><ele>23.0</ele><time>2026-04-26T07:56:19.808Z</time></trkpt><trkpt lat="45.1813263" lon="10.8511978"><ele>23.0</ele><time>2026-04-26T07:56:20.808Z</time></trkpt><trkpt lat="45.1816137" lon="10.8510519"><ele>23.0</ele><time>2026-04-26T07:56:21.807Z</time></trkpt><trkpt lat="45.1819016" lon="10.8509051"><ele>23.0</ele><time>2026-04-26T07:56:22.807Z</time></trkpt><trkpt lat="45.1821917" lon="10.8507583"><ele>23.0</ele><time>2026-04-26T07:56:23.808Z</time></trkpt><trkpt lat="45.1824844" lon="10.8506127"><ele>24.0</ele><time>2026-04-26T07:56:24.807Z</time></trkpt><trkpt lat="45.1827759" lon="10.8504694"><ele>25.0</ele><time>2026-04-26T07:56:25.808Z</time></trkpt><trkpt lat="45.1830706" lon="10.8503279"><ele>25.0</ele><time>2026-04-26T07:56:26.808Z</time></trkpt><trkpt lat="45.1833671" lon="10.850189"><ele>25.0</ele><time>2026-04-26T07:56:27.807Z</time></trkpt><trkpt lat="45.1836659" lon="10.8500565"><ele>24.5</ele><time>2026-04-26T07:56:28.807Z</time></trkpt><trkpt lat="45.1839689" lon="10.8499324"><ele>24.0</ele><time>2026-04-26T07:56:29.807Z</time></trkpt><trkpt lat="45.1842748" lon="10.8498205"><ele>25.0</ele><time>2026-04-26T07:56:30.806Z</time></trkpt><trkpt lat="45.1845808" lon="10.8497174"><ele>26.0</ele><time>2026-04-26T07:56:31.806Z</time></trkpt><trkpt lat="45.1848876" lon="10.8496238"><ele>26.0</ele><time>2026-04-26T07:56:32.808Z</time></trkpt><trkpt lat="45.1851965" lon="10.8495389"><ele>26.0</ele><time>2026-04-26T07:56:33.808Z</time></trkpt><trkpt lat="45.1855105" lon="10.8494628"><ele>25.0</ele><time>2026-04-26T07:56:34.807Z</time></trkpt><trkpt lat="45.1858373" lon="10.8493914"><ele>24.0</ele><time>2026-04-26T07:56:35.808Z</time></trkpt><trkpt lat="45.1861632" lon="10.8493269"><ele>24.5</ele><time>2026-04-26T07:56:36.808Z</time></trkpt><trkpt lat="45.1864865" lon="10.8492654"><ele>25.0</ele><time>2026-04-26T07:56:37.808Z</time></trkpt><trkpt lat="45.1868065" lon="10.8492096"><ele>25.0</ele><time>2026-04-26T07:56:38.807Z</time></trkpt><trkpt lat="45.1871236" lon="10.8491541"><ele>25.0</ele><time>2026-04-26T07:56:39.808Z</time></trkpt><trkpt lat="45.1874377" lon="10.8490975"><ele>26.0</ele><time>2026-04-26T07:56:40.808Z</time></trkpt><trkpt lat="45.1877485" lon="10.8490403"><ele>27.0</ele><time>2026-04-26T07:56:41.807Z</time></trkpt><trkpt lat="45.1880562" lon="10.8489818"><ele>27.0</ele><time>2026-04-26T07:56:42.808Z</time></trkpt><trkpt lat="45.1883621" lon="10.8489217"><ele>27.0</ele><time>2026-04-26T07:56:43.808Z</time></trkpt><trkpt lat="45.188667" lon="10.8488636"><ele>27.0</ele><time>2026-04-26T07:56:44.807Z</time></trkpt><trkpt lat="45.1889702" lon="10.8488067"><ele>27.0</ele><time>2026-04-26T07:56:45.807Z</time></trkpt><trkpt lat="45.1892721" lon="10.8487511"><ele>28.0</ele><time>2026-04-26T07:56:46.807Z</time></trkpt><trkpt lat="45.189574" lon="10.8486969"><ele>29.0</ele><time>2026-04-26T07:56:47.807Z</time></trkpt><trkpt lat="45.1898786" lon="10.8486446"><ele>29.5</ele><time>2026-04-26T07:56:48.808Z</time></trkpt><trkpt lat="45.1901852" lon="10.8485902"><ele>30.0</ele><time>2026-04-26T07:56:49.808Z</time></trkpt><trkpt lat="45.1904891" lon="10.8485331"><ele>28.0</ele><time>2026-04-26T07:56:50.808Z</time></trkpt><trkpt lat="45.1907939" lon="10.8484718"><ele>26.0</ele><time>2026-04-26T07:56:51.808Z</time></trkpt><trkpt lat="45.1910998" lon="10.8484083"><ele>26.0</ele><time>2026-04-26T07:56:52.807Z</time></trkpt><trkpt lat="45.1914069" lon="10.8483456"><ele>26.0</ele><time>2026-04-26T07:56:53.808Z</time></trkpt><trkpt lat="45.191716" lon="10.8482807"><ele>26.5</ele><time>2026-04-26T07:56:54.807Z</time></trkpt><trkpt lat="45.1920268" lon="10.8482157"><ele>27.0</ele><time>2026-04-26T07:56:55.806Z</time></trkpt><trkpt lat="45.1923393" lon="10.8481518"><ele>27.0</ele><time>2026-04-26T07:56:56.808Z</time></trkpt><trkpt lat="45.1926561" lon="10.8480867"><ele>27.0</ele><time>2026-04-26T07:56:57.807Z</time></trkpt><trkpt lat="45.1929751" lon="10.8480254"><ele>25.0</ele><time>2026-04-26T07:56:58.807Z</time></trkpt><trkpt lat="45.1932948" lon="10.847966"><ele>23.0</ele><time>2026-04-26T07:56:59.808Z</time></trkpt><trkpt lat="45.1936163" lon="10.847908"><ele>23.0</ele><time>2026-04-26T07:57:00.808Z</time></trkpt><trkpt lat="45.1939369" lon="10.8478498"><ele>23.0</ele><time>2026-04-26T07:57:01.807Z</time></trkpt><trkpt lat="45.1942577" lon="10.8477898"><ele>23.5</ele><time>2026-04-26T07:57:02.807Z</time></trkpt><trkpt lat="45.1945769" lon="10.84773"><ele>24.0</ele><time>2026-04-26T07:57:03.807Z</time></trkpt><trkpt lat="45.194897" lon="10.8476704"><ele>23.5</ele><time>2026-04-26T07:57:04.808Z</time></trkpt><trkpt lat="45.1952173" lon="10.8476113"><ele>23.0</ele><time>2026-04-26T07:57:05.808Z</time></trkpt><trkpt lat="45.1955364" lon="10.8475523"><ele>22.5</ele><time>2026-04-26T07:57:06.808Z</time></trkpt><trkpt lat="45.1958552" lon="10.847496"><ele>22.0</ele><time>2026-04-26T07:57:07.806Z</time></trkpt><trkpt lat="45.1961735" lon="10.8474405"><ele>22.0</ele><time>2026-04-26T07:57:08.807Z</time></trkpt><trkpt lat="45.1964925" lon="10.847384"><ele>22.0</ele><time>2026-04-26T07:57:09.808Z</time></trkpt><trkpt lat="45.1968112" lon="10.8473289"><ele>24.5</ele><time>2026-04-26T07:57:10.808Z</time></trkpt><trkpt lat="45.1971292" lon="10.8472766"><ele>27.0</ele><time>2026-04-26T07:57:11.808Z</time></trkpt><trkpt lat="45.197446" lon="10.8472267"><ele>27.0</ele><time>2026-04-26T07:57:12.808Z</time></trkpt><trkpt lat="45.1977618" lon="10.8471778"><ele>27.0</ele><time>2026-04-26T07:57:13.808Z</time></trkpt><trkpt lat="45.1980774" lon="10.8471274"><ele>26.5</ele><time>2026-04-26T07:57:14.807Z</time></trkpt><trkpt lat="45.1983886" lon="10.8470775"><ele>26.0</ele><time>2026-04-26T07:57:15.808Z</time></trkpt><trkpt lat="45.1986994" lon="10.8470245"><ele>25.0</ele><time>2026-04-26T07:57:16.808Z</time></trkpt><trkpt lat="45.19901" lon="10.846969"><ele>24.0</ele><time>2026-04-26T07:57:17.807Z</time></trkpt><trkpt lat="45.199318" lon="10.8469148"><ele>24.0</ele><time>2026-04-26T07:57:18.807Z</time></trkpt><trkpt lat="45.1996258" lon="10.8468669"><ele>24.0</ele><time>2026-04-26T07:57:19.807Z</time></trkpt><trkpt lat="45.1999325" lon="10.8468245"><ele>25.5</ele><time>2026-04-26T07:57:20.808Z</time></trkpt><trkpt lat="45.2002372" lon="10.8467927"><ele>27.0</ele><time>2026-04-26T07:57:21.808Z</time></trkpt><trkpt lat="45.2005427" lon="10.8467664"><ele>27.0</ele><time>2026-04-26T07:57:22.807Z</time></trkpt><trkpt lat="45.2008468" lon="10.8467513"><ele>27.0</ele><time>2026-04-26T07:57:23.808Z</time></trkpt><trkpt lat="45.201151" lon="10.8467446"><ele>27.0</ele><time>2026-04-26T07:57:24.807Z</time></trkpt><trkpt lat="45.201455" lon="10.8467461"><ele>27.0</ele><time>2026-04-26T07:57:25.808Z</time></trkpt><trkpt lat="45.2017593" lon="10.8467563"><ele>27.0</ele><time>2026-04-26T07:57:26.807Z</time></trkpt><trkpt lat="45.2020625" lon="10.8467679"><ele>27.0</ele><time>2026-04-26T07:57:27.808Z</time></trkpt><trkpt lat="45.2023652" lon="10.8467814"><ele>26.0</ele><time>2026-04-26T07:57:28.808Z</time></trkpt><trkpt lat="45.2026657" lon="10.8468022"><ele>25.0</ele><time>2026-04-26T07:57:29.807Z</time></trkpt><trkpt lat="45.202965" lon="10.8468306"><ele>26.5</ele><time>2026-04-26T07:57:30.808Z</time></trkpt><trkpt lat="45.2032622" lon="10.8468692"><ele>28.0</ele><time>2026-04-26T07:57:31.808Z</time></trkpt><trkpt lat="45.203558" lon="10.8469172"><ele>28.0</ele><time>2026-04-26T07:57:32.808Z</time></trkpt><trkpt lat="45.2038509" lon="10.8469697"><ele>28.0</ele><time>2026-04-26T07:57:33.806Z</time></trkpt><trkpt lat="45.2041443" lon="10.847034"><ele>28.0</ele><time>2026-04-26T07:57:34.808Z</time></trkpt><trkpt lat="45.2044391" lon="10.8471044"><ele>28.0</ele><time>2026-04-26T07:57:35.807Z</time></trkpt><trkpt lat="45.2047363" lon="10.8471838"><ele>27.5</ele><time>2026-04-26T07:57:36.808Z</time></trkpt><trkpt lat="45.205034" lon="10.8472693"><ele>27.0</ele><time>2026-04-26T07:57:37.807Z</time></trkpt><trkpt lat="45.2053318" lon="10.8473603"><ele>27.0</ele><time>2026-04-26T07:57:38.807Z</time></trkpt><trkpt lat="45.2056289" lon="10.8474607"><ele>27.0</ele><time>2026-04-26T07:57:39.807Z</time></trkpt><trkpt lat="45.2059272" lon="10.8475659"><ele>27.0</ele><time>2026-04-26T07:57:40.808Z</time></trkpt><trkpt lat="45.2062251" lon="10.8476773"><ele>27.0</ele><time>2026-04-26T07:57:41.807Z</time></trkpt><trkpt lat="45.2065231" lon="10.8477935"><ele>27.0</ele><time>2026-04-26T07:57:42.806Z</time></trkpt><trkpt lat="45.2068214" lon="10.8479175"><ele>27.0</ele><time>2026-04-26T07:57:43.807Z</time></trkpt><trkpt lat="45.207118" lon="10.8480513"><ele>26.5</ele><time>2026-04-26T07:57:44.807Z</time></trkpt><trkpt lat="45.2074136" lon="10.8481927"><ele>26.0</ele><time>2026-04-26T07:57:45.807Z</time></trkpt><trkpt lat="45.2077081" lon="10.8483411"><ele>26.0</ele><time>2026-04-26T07:57:46.807Z</time></trkpt><trkpt lat="45.2080001" lon="10.8484946"><ele>26.0</ele><time>2026-04-26T07:57:47.808Z</time></trkpt><trkpt lat="45.2082895" lon="10.848649"><ele>27.0</ele><time>2026-04-26T07:57:48.808Z</time></trkpt><trkpt lat="45.2085766" lon="10.8487983"><ele>28.0</ele><time>2026-04-26T07:57:49.808Z</time></trkpt><trkpt lat="45.2088618" lon="10.8489437"><ele>28.0</ele><time>2026-04-26T07:57:50.807Z</time></trkpt><trkpt lat="45.2091448" lon="10.8490874"><ele>28.0</ele><time>2026-04-26T07:57:51.807Z</time></trkpt><trkpt lat="45.2094281" lon="10.8492281"><ele>27.5</ele><time>2026-04-26T07:57:52.807Z</time></trkpt><trkpt lat="45.2097114" lon="10.8493701"><ele>27.0</ele><time>2026-04-26T07:57:53.807Z</time></trkpt><trkpt lat="45.2099942" lon="10.8495144"><ele>26.5</ele><time>2026-04-26T07:57:54.807Z</time></trkpt><trkpt lat="45.2102751" lon="10.8496584"><ele>26.0</ele><time>2026-04-26T07:57:55.807Z</time></trkpt><trkpt lat="45.2105562" lon="10.8498001"><ele>27.0</ele><time>2026-04-26T07:57:56.807Z</time></trkpt><trkpt lat="45.2108443" lon="10.8499411"><ele>28.0</ele><time>2026-04-26T07:57:57.808Z</time></trkpt><trkpt lat="45.2111438" lon="10.8500835"><ele>29.0</ele><time>2026-04-26T07:57:58.807Z</time></trkpt><trkpt lat="45.2114498" lon="10.8502295"><ele>30.0</ele><time>2026-04-26T07:57:59.807Z</time></trkpt><trkpt lat="45.2117602" lon="10.8503768"><ele>30.0</ele><time>2026-04-26T07:58:00.807Z</time></trkpt><trkpt lat="45.2120741" lon="10.8505252"><ele>30.0</ele><time>2026-04-26T07:58:01.807Z</time></trkpt><trkpt lat="45.2123846" lon="10.8506754"><ele>28.5</ele><time>2026-04-26T07:58:02.808Z</time></trkpt><trkpt lat="45.2126926" lon="10.8508303"><ele>27.0</ele><time>2026-04-26T07:58:03.807Z</time></trkpt><trkpt lat="45.2129992" lon="10.8509875"><ele>26.5</ele><time>2026-04-26T07:58:04.806Z</time></trkpt><trkpt lat="45.2133035" lon="10.8511433"><ele>26.0</ele><time>2026-04-26T07:58:05.807Z</time></trkpt><trkpt lat="45.2136053" lon="10.8512982"><ele>26.0</ele><time>2026-04-26T07:58:06.808Z</time></trkpt><trkpt lat="45.2139031" lon="10.8514506"><ele>26.0</ele><time>2026-04-26T07:58:07.806Z</time></trkpt><trkpt lat="45.2142009" lon="10.8516001"><ele>26.5</ele><time>2026-04-26T07:58:08.808Z</time></trkpt><trkpt lat="45.2144956" lon="10.8517522"><ele>27.0</ele><time>2026-04-26T07:58:09.807Z</time></trkpt><trkpt lat="45.2147896" lon="10.8519046"><ele>27.0</ele><time>2026-04-26T07:58:10.806Z</time></trkpt><trkpt lat="45.2150862" lon="10.8520576"><ele>27.0</ele><time>2026-04-26T07:58:11.806Z</time></trkpt><trkpt lat="45.2153832" lon="10.8522145"><ele>27.5</ele><time>2026-04-26T07:58:12.808Z</time></trkpt><trkpt lat="45.2156813" lon="10.8523731"><ele>28.0</ele><time>2026-04-26T07:58:13.808Z</time></trkpt><trkpt lat="45.215982" lon="10.8525338"><ele>28.0</ele><time>2026-04-26T07:58:14.807Z</time></trkpt><trkpt lat="45.2162814" lon="10.8526935"><ele>28.0</ele><time>2026-04-26T07:58:15.808Z</time></trkpt><trkpt lat="45.216579" lon="10.8528505"><ele>28.0</ele><time>2026-04-26T07:58:16.806Z</time></trkpt><trkpt lat="45.2168742" lon="10.8530061"><ele>28.0</ele><time>2026-04-26T07:58:17.807Z</time></trkpt><trkpt lat="45.217169" lon="10.8531605"><ele>27.5</ele><time>2026-04-26T07:58:18.808Z</time></trkpt><trkpt lat="45.2174627" lon="10.8533133"><ele>27.0</ele><time>2026-04-26T07:58:19.808Z</time></trkpt><trkpt lat="45.2177549" lon="10.8534642"><ele>26.5</ele><time>2026-04-26T07:58:20.808Z</time></trkpt><trkpt lat="45.2180464" lon="10.8536115"><ele>26.0</ele><time>2026-04-26T07:58:21.808Z</time></trkpt><trkpt lat="45.218337" lon="10.853755"><ele>27.0</ele><time>2026-04-26T07:58:22.808Z</time></trkpt><trkpt lat="45.2186271" lon="10.8538955"><ele>28.0</ele><time>2026-04-26T07:58:23.808Z</time></trkpt><trkpt lat="45.218915" lon="10.8540419"><ele>28.0</ele><time>2026-04-26T07:58:24.808Z</time></trkpt><trkpt lat="45.2192024" lon="10.8541907"><ele>28.0</ele><time>2026-04-26T07:58:25.807Z</time></trkpt><trkpt lat="45.2194885" lon="10.8543392"><ele>28.0</ele><time>2026-04-26T07:58:26.808Z</time></trkpt><trkpt lat="45.2197767" lon="10.8544879"><ele>28.0</ele><time>2026-04-26T07:58:27.807Z</time></trkpt><trkpt lat="45.2200672" lon="10.8546368"><ele>28.0</ele><time>2026-04-26T07:58:28.808Z</time></trkpt><trkpt lat="45.2203607" lon="10.8547859"><ele>28.0</ele><time>2026-04-26T07:58:29.807Z</time></trkpt><trkpt lat="45.2206553" lon="10.854937"><ele>28.0</ele><time>2026-04-26T07:58:30.808Z</time></trkpt><trkpt lat="45.2209533" lon="10.85509"><ele>28.0</ele><time>2026-04-26T07:58:31.807Z</time></trkpt><trkpt lat="45.2212519" lon="10.8552412"><ele>28.0</ele><time>2026-04-26T07:58:32.806Z</time></trkpt><trkpt lat="45.2215494" lon="10.8553931"><ele>28.0</ele><time>2026-04-26T07:58:33.807Z</time></trkpt><trkpt lat="45.2218419" lon="10.8555414"><ele>28.0</ele><time>2026-04-26T07:58:34.807Z</time></trkpt><trkpt lat="45.2221309" lon="10.855689"><ele>28.0</ele><time>2026-04-26T07:58:35.808Z</time></trkpt><trkpt lat="45.2224175" lon="10.8558337"><ele>27.5</ele><time>2026-04-26T07:58:36.807Z</time></trkpt><trkpt lat="45.2227011" lon="10.8559773"><ele>27.0</ele><time>2026-04-26T07:58:37.808Z</time></trkpt><trkpt lat="45.2229815" lon="10.8561227"><ele>27.0</ele><time>2026-04-26T07:58:38.807Z</time></trkpt><trkpt lat="45.2232636" lon="10.8562662"><ele>27.0</ele><time>2026-04-26T07:58:39.807Z</time></trkpt><trkpt lat="45.2235458" lon="10.8564078"><ele>27.0</ele><time>2026-04-26T07:58:40.808Z</time></trkpt><trkpt lat="45.2238288" lon="10.8565457"><ele>27.0</ele><time>2026-04-26T07:58:41.808Z</time></trkpt><trkpt lat="45.224111" lon="10.8566826"><ele>28.0</ele><time>2026-04-26T07:58:42.806Z</time></trkpt><trkpt lat="45.2243888" lon="10.8568224"><ele>29.0</ele><time>2026-04-26T07:58:43.807Z</time></trkpt><trkpt lat="45.2246652" lon="10.8569661"><ele>29.0</ele><time>2026-04-26T07:58:44.807Z</time></trkpt><trkpt lat="45.2249407" lon="10.8571079"><ele>29.0</ele><time>2026-04-26T07:58:45.807Z</time></trkpt><trkpt lat="45.2252102" lon="10.8572476"><ele>29.0</ele><time>2026-04-26T07:58:46.808Z</time></trkpt><trkpt lat="45.225476" lon="10.8573845"><ele>29.0</ele><time>2026-04-26T07:58:47.806Z</time></trkpt><trkpt lat="45.2257363" lon="10.8575178"><ele>29.0</ele><time>2026-04-26T07:58:48.808Z</time></trkpt><trkpt lat="45.2259964" lon="10.8576485"><ele>29.0</ele><time>2026-04-26T07:58:49.807Z</time></trkpt><trkpt lat="45.2262574" lon="10.857777"><ele>28.0</ele><time>2026-04-26T07:58:50.807Z</time></trkpt><trkpt lat="45.2265271" lon="10.8579071"><ele>27.0</ele><time>2026-04-26T07:58:51.808Z</time></trkpt><trkpt lat="45.2268031" lon="10.8580366"><ele>27.0</ele><time>2026-04-26T07:58:52.808Z</time></trkpt><trkpt lat="45.2270828" lon="10.8581686"><ele>27.0</ele><time>2026-04-26T07:58:53.806Z</time></trkpt><trkpt lat="45.2273663" lon="10.8583023"><ele>27.5</ele><time>2026-04-26T07:58:54.807Z</time></trkpt><trkpt lat="45.2276514" lon="10.8584418"><ele>28.0</ele><time>2026-04-26T07:58:55.808Z</time></trkpt><trkpt lat="45.2279363" lon="10.8585866"><ele>28.5</ele><time>2026-04-26T07:58:56.807Z</time></trkpt><trkpt lat="45.2282226" lon="10.8587335"><ele>29.0</ele><time>2026-04-26T07:58:57.807Z</time></trkpt><trkpt lat="45.2285124" lon="10.8588825"><ele>29.0</ele><time>2026-04-26T07:58:58.808Z</time></trkpt><trkpt lat="45.2288019" lon="10.8590303"><ele>29.0</ele><time>2026-04-26T07:58:59.807Z</time></trkpt><trkpt lat="45.2290933" lon="10.8591797"><ele>28.5</ele><time>2026-04-26T07:59:00.807Z</time></trkpt><trkpt lat="45.2293826" lon="10.8593282"><ele>28.0</ele><time>2026-04-26T07:59:01.806Z</time></trkpt><trkpt lat="45.2296714" lon="10.8594749"><ele>28.5</ele><time>2026-04-26T07:59:02.808Z</time></trkpt><trkpt lat="45.2299594" lon="10.8596228"><ele>29.0</ele><time>2026-04-26T07:59:03.808Z</time></trkpt><trkpt lat="45.2302468" lon="10.859771"><ele>29.0</ele><time>2026-04-26T07:59:04.807Z</time></trkpt><trkpt lat="45.2305314" lon="10.8599193"><ele>29.0</ele><time>2026-04-26T07:59:05.808Z</time></trkpt><trkpt lat="45.2308159" lon="10.8600649"><ele>27.5</ele><time>2026-04-26T07:59:06.808Z</time></trkpt><trkpt lat="45.2311012" lon="10.8602091"><ele>26.0</ele><time>2026-04-26T07:59:07.808Z</time></trkpt><trkpt lat="45.2313881" lon="10.8603532"><ele>27.0</ele><time>2026-04-26T07:59:08.807Z</time></trkpt><trkpt lat="45.2316764" lon="10.8604977"><ele>28.0</ele><time>2026-04-26T07:59:09.807Z</time></trkpt><trkpt lat="45.2319665" lon="10.8606432"><ele>28.0</ele><time>2026-04-26T07:59:10.808Z</time></trkpt><trkpt lat="45.2322578" lon="10.8607912"><ele>28.0</ele><time>2026-04-26T07:59:11.807Z</time></trkpt><trkpt lat="45.2325498" lon="10.8609397"><ele>27.5</ele><time>2026-04-26T07:59:12.807Z</time></trkpt><trkpt lat="45.2328427" lon="10.861089"><ele>27.0</ele><time>2026-04-26T07:59:13.808Z</time></trkpt><trkpt lat="45.2331378" lon="10.8612397"><ele>27.5</ele><time>2026-04-26T07:59:14.807Z</time></trkpt><trkpt lat="45.2334348" lon="10.8613921"><ele>28.0</ele><time>2026-04-26T07:59:15.807Z</time></trkpt><trkpt lat="45.2337313" lon="10.8615467"><ele>28.5</ele><time>2026-04-26T07:59:16.807Z</time></trkpt><trkpt lat="45.2340297" lon="10.8616997"><ele>29.0</ele><time>2026-04-26T07:59:17.808Z</time></trkpt><trkpt lat="45.2343296" lon="10.8618507"><ele>29.0</ele><time>2026-04-26T07:59:18.807Z</time></trkpt><trkpt lat="45.2346313" lon="10.8619964"><ele>29.0</ele><time>2026-04-26T07:59:19.807Z</time></trkpt><trkpt lat="45.2349372" lon="10.8621386"><ele>29.0</ele><time>2026-04-26T07:59:20.808Z</time></trkpt><trkpt lat="45.2352428" lon="10.862275"><ele>29.0</ele><time>2026-04-26T07:59:21.808Z</time></trkpt><trkpt lat="45.2355514" lon="10.8624057"><ele>28.5</ele><time>2026-04-26T07:59:22.808Z</time></trkpt><trkpt lat="45.2358612" lon="10.8625313"><ele>28.0</ele><time>2026-04-26T07:59:23.807Z</time></trkpt><trkpt lat="45.2361719" lon="10.8626525"><ele>28.0</ele><time>2026-04-26T07:59:24.808Z</time></trkpt><trkpt lat="45.2364841" lon="10.8627702"><ele>28.0</ele><time>2026-04-26T07:59:25.807Z</time></trkpt><trkpt lat="45.2367972" lon="10.8628828"><ele>28.0</ele><time>2026-04-26T07:59:26.807Z</time></trkpt><trkpt lat="45.2371099" lon="10.8629908"><ele>28.0</ele><time>2026-04-26T07:59:27.808Z</time></trkpt><trkpt lat="45.2374215" lon="10.863093"><ele>28.0</ele><time>2026-04-26T07:59:28.807Z</time></trkpt><trkpt lat="45.2377323" lon="10.8631918"><ele>28.0</ele><time>2026-04-26T07:59:29.808Z</time></trkpt><trkpt lat="45.2380425" lon="10.8632904"><ele>29.0</ele><time>2026-04-26T07:59:30.807Z</time></trkpt><trkpt lat="45.2383523" lon="10.8633898"><ele>30.0</ele><time>2026-04-26T07:59:31.808Z</time></trkpt><trkpt lat="45.2386615" lon="10.8634898"><ele>30.0</ele><time>2026-04-26T07:59:32.808Z</time></trkpt><trkpt lat="45.2389721" lon="10.8635893"><ele>30.0</ele><time>2026-04-26T07:59:33.808Z</time></trkpt><trkpt lat="45.2392835" lon="10.8636893"><ele>30.0</ele><time>2026-04-26T07:59:34.808Z</time></trkpt><trkpt lat="45.2395971" lon="10.8637891"><ele>30.0</ele><time>2026-04-26T07:59:35.806Z</time></trkpt><trkpt lat="45.2399115" lon="10.863891"><ele>30.0</ele><time>2026-04-26T07:59:36.807Z</time></trkpt><trkpt lat="45.240227" lon="10.8639931"><ele>30.0</ele><time>2026-04-26T07:59:37.808Z</time></trkpt><trkpt lat="45.2405438" lon="10.8640937"><ele>31.0</ele><time>2026-04-26T07:59:38.807Z</time></trkpt><trkpt lat="45.2408613" lon="10.8641938"><ele>32.0</ele><time>2026-04-26T07:59:39.807Z</time></trkpt><trkpt lat="45.2411797" lon="10.864293"><ele>31.5</ele><time>2026-04-26T07:59:40.808Z</time></trkpt><trkpt lat="45.2414966" lon="10.8643962"><ele>31.0</ele><time>2026-04-26T07:59:41.808Z</time></trkpt><trkpt lat="45.2418176" lon="10.8644935"><ele>31.0</ele><time>2026-04-26T07:59:42.808Z</time></trkpt><trkpt lat="45.242136" lon="10.8645935"><ele>31.0</ele><time>2026-04-26T07:59:43.807Z</time></trkpt><trkpt lat="45.242452" lon="10.8646928"><ele>30.5</ele><time>2026-04-26T07:59:44.806Z</time></trkpt><trkpt lat="45.2427655" lon="10.8647925"><ele>30.0</ele><time>2026-04-26T07:59:45.807Z</time></trkpt><trkpt lat="45.2430796" lon="10.8648928"><ele>30.5</ele><time>2026-04-26T07:59:46.806Z</time></trkpt><trkpt lat="45.2433929" lon="10.8649929"><ele>31.0</ele><time>2026-04-26T07:59:47.808Z</time></trkpt><trkpt lat="45.2437072" lon="10.8650925"><ele>30.0</ele><time>2026-04-26T07:59:48.806Z</time></trkpt><trkpt lat="45.2440219" lon="10.8651922"><ele>29.0</ele><time>2026-04-26T07:59:49.808Z</time></trkpt><trkpt lat="45.2443369" lon="10.8652928"><ele>29.0</ele><time>2026-04-26T07:59:50.807Z</time></trkpt><trkpt lat="45.2446521" lon="10.8653945"><ele>29.0</ele><time>2026-04-26T07:59:51.808Z</time></trkpt><trkpt lat="45.2449679" lon="10.8654967"><ele>30.5</ele><time>2026-04-26T07:59:52.807Z</time></trkpt><trkpt lat="45.2452834" lon="10.865599"><ele>32.0</ele><time>2026-04-26T07:59:53.807Z</time></trkpt><trkpt lat="45.2455993" lon="10.8657007"><ele>31.5</ele><time>2026-04-26T07:59:54.808Z</time></trkpt><trkpt lat="45.2459151" lon="10.8658022"><ele>31.0</ele><time>2026-04-26T07:59:55.807Z</time></trkpt><trkpt lat="45.2462311" lon="10.8659025"><ele>30.5</ele><time>2026-04-26T07:59:56.807Z</time></trkpt><trkpt lat="45.2465457" lon="10.8660018"><ele>30.0</ele><time>2026-04-26T07:59:57.807Z</time></trkpt><trkpt lat="45.2468577" lon="10.8661003"><ele>30.0</ele><time>2026-04-26T07:59:58.808Z</time></trkpt><trkpt lat="45.2471675" lon="10.8661978"><ele>30.0</ele><time>2026-04-26T07:59:59.808Z</time></trkpt><trkpt lat="45.2474731" lon="10.8662933"><ele>31.5</ele><time>2026-04-26T08:00:00.807Z</time></trkpt><trkpt lat="45.2477765" lon="10.8663884"><ele>33.0</ele><time>2026-04-26T08:00:01.808Z</time></trkpt><trkpt lat="45.2480794" lon="10.8664856"><ele>33.0</ele><time>2026-04-26T08:00:02.808Z</time></trkpt><trkpt lat="45.2483835" lon="10.8665832"><ele>33.0</ele><time>2026-04-26T08:00:03.807Z</time></trkpt><trkpt lat="45.2486877" lon="10.8666804"><ele>32.5</ele><time>2026-04-26T08:00:04.807Z</time></trkpt><trkpt lat="45.2489929" lon="10.8667758"><ele>32.0</ele><time>2026-04-26T08:00:05.807Z</time></trkpt><trkpt lat="45.2492985" lon="10.866872"><ele>32.0</ele><time>2026-04-26T08:00:06.808Z</time></trkpt><trkpt lat="45.2496047" lon="10.8669691"><ele>32.0</ele><time>2026-04-26T08:00:07.807Z</time></trkpt><trkpt lat="45.2499111" lon="10.8670654"><ele>31.0</ele><time>2026-04-26T08:00:08.808Z</time></trkpt><trkpt lat="45.2502168" lon="10.8671624"><ele>30.0</ele><time>2026-04-26T08:00:09.807Z</time></trkpt><trkpt lat="45.250521" lon="10.8672613"><ele>30.0</ele><time>2026-04-26T08:00:10.807Z</time></trkpt><trkpt lat="45.250825" lon="10.8673593"><ele>30.0</ele><time>2026-04-26T08:00:11.808Z</time></trkpt><trkpt lat="45.251129" lon="10.8674542"><ele>30.0</ele><time>2026-04-26T08:00:12.808Z</time></trkpt><trkpt lat="45.2514315" lon="10.8675482"><ele>30.0</ele><time>2026-04-26T08:00:13.807Z</time></trkpt><trkpt lat="45.2517345" lon="10.8676433"><ele>30.0</ele><time>2026-04-26T08:00:14.807Z</time></trkpt><trkpt lat="45.2520398" lon="10.8677404"><ele>30.0</ele><time>2026-04-26T08:00:15.808Z</time></trkpt><trkpt lat="45.2523473" lon="10.8678401"><ele>30.0</ele><time>2026-04-26T08:00:16.808Z</time></trkpt><trkpt lat="45.2526566" lon="10.8679407"><ele>30.0</ele><time>2026-04-26T08:00:17.808Z</time></trkpt><trkpt lat="45.2529689" lon="10.8680407"><ele>31.0</ele><time>2026-04-26T08:00:18.806Z</time></trkpt><trkpt lat="45.2532832" lon="10.8681399"><ele>32.0</ele><time>2026-04-26T08:00:19.808Z</time></trkpt><trkpt lat="45.2535996" lon="10.8682387"><ele>32.0</ele><time>2026-04-26T08:00:20.808Z</time></trkpt><trkpt lat="45.2539144" lon="10.8683397"><ele>32.0</ele><time>2026-04-26T08:00:21.807Z</time></trkpt><trkpt lat="45.254227" lon="10.8684434"><ele>31.5</ele><time>2026-04-26T08:00:22.807Z</time></trkpt><trkpt lat="45.254538" lon="10.8685472"><ele>31.0</ele><time>2026-04-26T08:00:23.808Z</time></trkpt><trkpt lat="45.2548475" lon="10.8686518"><ele>31.0</ele><time>2026-04-26T08:00:24.807Z</time></trkpt><trkpt lat="45.2551552" lon="10.8687582"><ele>31.0</ele><time>2026-04-26T08:00:25.806Z</time></trkpt><trkpt lat="45.2554621" lon="10.8688661"><ele>31.5</ele><time>2026-04-26T08:00:26.806Z</time></trkpt><trkpt lat="45.2557688" lon="10.868973"><ele>32.0</ele><time>2026-04-26T08:00:27.807Z</time></trkpt><trkpt lat="45.2560764" lon="10.8690739"><ele>32.0</ele><time>2026-04-26T08:00:28.807Z</time></trkpt><trkpt lat="45.2563842" lon="10.8691707"><ele>32.0</ele><time>2026-04-26T08:00:29.807Z</time></trkpt><trkpt lat="45.2566927" lon="10.8692664"><ele>32.0</ele><time>2026-04-26T08:00:30.807Z</time></trkpt><trkpt lat="45.2570011" lon="10.8693642"><ele>32.0</ele><time>2026-04-26T08:00:31.808Z</time></trkpt><trkpt lat="45.2573093" lon="10.869463"><ele>31.0</ele><time>2026-04-26T08:00:32.806Z</time></trkpt><trkpt lat="45.2576145" lon="10.86956"><ele>30.0</ele><time>2026-04-26T08:00:33.807Z</time></trkpt><trkpt lat="45.2579181" lon="10.869656"><ele>30.0</ele><time>2026-04-26T08:00:34.807Z</time></trkpt><trkpt lat="45.258221" lon="10.8697523"><ele>30.0</ele><time>2026-04-26T08:00:35.807Z</time></trkpt><trkpt lat="45.2585225" lon="10.8698475"><ele>30.0</ele><time>2026-04-26T08:00:36.807Z</time></trkpt><trkpt lat="45.2588242" lon="10.8699429"><ele>30.0</ele><time>2026-04-26T08:00:37.807Z</time></trkpt><trkpt lat="45.2591256" lon="10.8700392"><ele>31.5</ele><time>2026-04-26T08:00:38.807Z</time></trkpt><trkpt lat="45.259423" lon="10.870138"><ele>33.0</ele><time>2026-04-26T08:00:39.807Z</time></trkpt><trkpt lat="45.2597251" lon="10.8702355"><ele>32.0</ele><time>2026-04-26T08:00:40.808Z</time></trkpt><trkpt lat="45.2600256" lon="10.8703356"><ele>31.0</ele><time>2026-04-26T08:00:41.808Z</time></trkpt><trkpt lat="45.2603258" lon="10.8704356"><ele>31.5</ele><time>2026-04-26T08:00:42.806Z</time></trkpt><trkpt lat="45.2606279" lon="10.8705328"><ele>32.0</ele><time>2026-04-26T08:00:43.807Z</time></trkpt><trkpt lat="45.2609301" lon="10.8706279"><ele>32.0</ele><time>2026-04-26T08:00:44.807Z</time></trkpt><trkpt lat="45.261232" lon="10.8707204"><ele>32.0</ele><time>2026-04-26T08:00:45.808Z</time></trkpt><trkpt lat="45.261534" lon="10.8708141"><ele>32.5</ele><time>2026-04-26T08:00:46.807Z</time></trkpt><trkpt lat="45.2618365" lon="10.8709089"><ele>33.0</ele><time>2026-04-26T08:00:47.807Z</time></trkpt><trkpt lat="45.2621391" lon="10.8710059"><ele>33.0</ele><time>2026-04-26T08:00:48.806Z</time></trkpt><trkpt lat="45.2624447" lon="10.8711042"><ele>33.0</ele><time>2026-04-26T08:00:49.807Z</time></trkpt><trkpt lat="45.262752" lon="10.8712029"><ele>33.0</ele><time>2026-04-26T08:00:50.807Z</time></trkpt><trkpt lat="45.2630621" lon="10.871301"><ele>33.0</ele><time>2026-04-26T08:00:51.806Z</time></trkpt><trkpt lat="45.2633748" lon="10.871396"><ele>32.5</ele><time>2026-04-26T08:00:52.806Z</time></trkpt><trkpt lat="45.2636896" lon="10.871488"><ele>32.0</ele><time>2026-04-26T08:00:53.808Z</time></trkpt><trkpt lat="45.2640063" lon="10.8715786"><ele>33.0</ele><time>2026-04-26T08:00:54.807Z</time></trkpt><trkpt lat="45.2643231" lon="10.8716716"><ele>34.0</ele><time>2026-04-26T08:00:55.807Z</time></trkpt><trkpt lat="45.2646402" lon="10.8717681"><ele>33.0</ele><time>2026-04-26T08:00:56.808Z</time></trkpt><trkpt lat="45.2649572" lon="10.8718704"><ele>32.0</ele><time>2026-04-26T08:00:57.807Z</time></trkpt><trkpt lat="45.265273" lon="10.8719739"><ele>32.0</ele><time>2026-04-26T08:00:58.806Z</time></trkpt><trkpt lat="45.2655875" lon="10.8720766"><ele>32.0</ele><time>2026-04-26T08:00:59.806Z</time></trkpt><trkpt lat="45.2659016" lon="10.8721803"><ele>32.5</ele><time>2026-04-26T08:01:00.808Z</time></trkpt><trkpt lat="45.2662161" lon="10.8722847"><ele>33.0</ele><time>2026-04-26T08:01:01.806Z</time></trkpt><trkpt lat="45.2665301" lon="10.8723905"><ele>33.0</ele><time>2026-04-26T08:01:02.808Z</time></trkpt><trkpt lat="45.2668445" lon="10.8724985"><ele>33.0</ele><time>2026-04-26T08:01:03.808Z</time></trkpt><trkpt lat="45.2671597" lon="10.872606"><ele>32.0</ele><time>2026-04-26T08:01:04.807Z</time></trkpt><trkpt lat="45.2674744" lon="10.872713"><ele>31.0</ele><time>2026-04-26T08:01:05.808Z</time></trkpt><trkpt lat="45.2677896" lon="10.8728209"><ele>31.0</ele><time>2026-04-26T08:01:06.807Z</time></trkpt><trkpt lat="45.268103" lon="10.8729354"><ele>31.0</ele><time>2026-04-26T08:01:07.807Z</time></trkpt><trkpt lat="45.2684138" lon="10.8730601"><ele>31.5</ele><time>2026-04-26T08:01:08.808Z</time></trkpt><trkpt lat="45.2687214" lon="10.873192"><ele>32.0</ele><time>2026-04-26T08:01:09.808Z</time></trkpt><trkpt lat="45.2690262" lon="10.8733316"><ele>31.0</ele><time>2026-04-26T08:01:10.807Z</time></trkpt><trkpt lat="45.2693291" lon="10.8734776"><ele>30.0</ele><time>2026-04-26T08:01:11.807Z</time></trkpt><trkpt lat="45.2696302" lon="10.8736287"><ele>31.5</ele><time>2026-04-26T08:01:12.807Z</time></trkpt><trkpt lat="45.2699293" lon="10.8737834"><ele>33.0</ele><time>2026-04-26T08:01:13.807Z</time></trkpt><trkpt lat="45.2702264" lon="10.8739417"><ele>33.0</ele><time>2026-04-26T08:01:14.808Z</time></trkpt><trkpt lat="45.2705216" lon="10.8741064"><ele>33.0</ele><time>2026-04-26T08:01:15.807Z</time></trkpt><trkpt lat="45.2708131" lon="10.8742766"><ele>33.0</ele><time>2026-04-26T08:01:16.807Z</time></trkpt><trkpt lat="45.2711023" lon="10.8744509"><ele>33.0</ele><time>2026-04-26T08:01:17.807Z</time></trkpt><trkpt lat="45.2713882" lon="10.8746328"><ele>33.5</ele><time>2026-04-26T08:01:18.806Z</time></trkpt><trkpt lat="45.2716699" lon="10.8748199"><ele>34.0</ele><time>2026-04-26T08:01:19.808Z</time></trkpt><trkpt lat="45.2719511" lon="10.8750118"><ele>33.5</ele><time>2026-04-26T08:01:20.808Z</time></trkpt><trkpt lat="45.2722312" lon="10.8752098"><ele>33.0</ele><time>2026-04-26T08:01:21.807Z</time></trkpt><trkpt lat="45.2725115" lon="10.8754085"><ele>33.0</ele><time>2026-04-26T08:01:22.806Z</time></trkpt><trkpt lat="45.2727904" lon="10.8756126"><ele>33.0</ele><time>2026-04-26T08:01:23.808Z</time></trkpt><trkpt lat="45.2730689" lon="10.8758236"><ele>32.5</ele><time>2026-04-26T08:01:24.807Z</time></trkpt><trkpt lat="45.273347" lon="10.8760401"><ele>32.0</ele><time>2026-04-26T08:01:25.807Z</time></trkpt><trkpt lat="45.2736239" lon="10.876259"><ele>32.0</ele><time>2026-04-26T08:01:26.808Z</time></trkpt><trkpt lat="45.2739014" lon="10.8764796"><ele>32.0</ele><time>2026-04-26T08:01:27.808Z</time></trkpt><trkpt lat="45.2741791" lon="10.8766992"><ele>32.0</ele><time>2026-04-26T08:01:28.808Z</time></trkpt><trkpt lat="45.2744576" lon="10.8769181"><ele>32.0</ele><time>2026-04-26T08:01:29.808Z</time></trkpt><trkpt lat="45.2747376" lon="10.8771345"><ele>33.0</ele><time>2026-04-26T08:01:30.807Z</time></trkpt><trkpt lat="45.2750181" lon="10.877351"><ele>34.0</ele><time>2026-04-26T08:01:31.807Z</time></trkpt><trkpt lat="45.2752964" lon="10.8775647"><ele>34.5</ele><time>2026-04-26T08:01:32.808Z</time></trkpt><trkpt lat="45.2755782" lon="10.8777764"><ele>35.0</ele><time>2026-04-26T08:01:33.807Z</time></trkpt><trkpt lat="45.2758544" lon="10.8779973"><ele>35.5</ele><time>2026-04-26T08:01:34.807Z</time></trkpt><trkpt lat="45.2761329" lon="10.8782179"><ele>36.0</ele><time>2026-04-26T08:01:35.807Z</time></trkpt><trkpt lat="45.2764108" lon="10.8784383"><ele>36.0</ele><time>2026-04-26T08:01:36.806Z</time></trkpt><trkpt lat="45.2766884" lon="10.8786546"><ele>36.0</ele><time>2026-04-26T08:01:37.807Z</time></trkpt><trkpt lat="45.2769665" lon="10.8788725"><ele>36.0</ele><time>2026-04-26T08:01:38.807Z</time></trkpt><trkpt lat="45.2772445" lon="10.8790885"><ele>36.0</ele><time>2026-04-26T08:01:39.808Z</time></trkpt><trkpt lat="45.2775229" lon="10.8793052"><ele>35.5</ele><time>2026-04-26T08:01:40.808Z</time></trkpt><trkpt lat="45.2778024" lon="10.8795228"><ele>35.0</ele><time>2026-04-26T08:01:41.807Z</time></trkpt><trkpt lat="45.2780839" lon="10.8797402"><ele>35.5</ele><time>2026-04-26T08:01:42.808Z</time></trkpt><trkpt lat="45.2783664" lon="10.8799531"><ele>36.0</ele><time>2026-04-26T08:01:43.807Z</time></trkpt><trkpt lat="45.2786496" lon="10.8801639"><ele>35.0</ele><time>2026-04-26T08:01:44.808Z</time></trkpt><trkpt lat="45.2789354" lon="10.8803772"><ele>34.0</ele><time>2026-04-26T08:01:45.807Z</time></trkpt><trkpt lat="45.2792174" lon="10.8805899"><ele>34.0</ele><time>2026-04-26T08:01:46.807Z</time></trkpt><trkpt lat="45.2795014" lon="10.8808029"><ele>34.0</ele><time>2026-04-26T08:01:47.806Z</time></trkpt><trkpt lat="45.2797813" lon="10.8810157"><ele>33.5</ele><time>2026-04-26T08:01:48.807Z</time></trkpt><trkpt lat="45.2800575" lon="10.8812283"><ele>33.0</ele><time>2026-04-26T08:01:49.807Z</time></trkpt><trkpt lat="45.2803313" lon="10.8814433"><ele>32.5</ele><time>2026-04-26T08:01:50.807Z</time></trkpt><trkpt lat="45.2806006" lon="10.8816587"><ele>32.0</ele><time>2026-04-26T08:01:51.806Z</time></trkpt><trkpt lat="45.28087" lon="10.8818704"><ele>32.0</ele><time>2026-04-26T08:01:52.807Z</time></trkpt><trkpt lat="45.2811387" lon="10.8820867"><ele>32.0</ele><time>2026-04-26T08:01:53.808Z</time></trkpt><trkpt lat="45.2814071" lon="10.8823058"><ele>32.0</ele><time>2026-04-26T08:01:54.807Z</time></trkpt><trkpt lat="45.281676" lon="10.8825297"><ele>32.0</ele><time>2026-04-26T08:01:55.807Z</time></trkpt><trkpt lat="45.2819465" lon="10.8827549"><ele>32.0</ele><time>2026-04-26T08:01:56.807Z</time></trkpt><trkpt lat="45.2822194" lon="10.8829764"><ele>32.0</ele><time>2026-04-26T08:01:57.806Z</time></trkpt><trkpt lat="45.2824951" lon="10.8831957"><ele>34.5</ele><time>2026-04-26T08:01:58.807Z</time></trkpt><trkpt lat="45.2827727" lon="10.8834128"><ele>37.0</ele><time>2026-04-26T08:01:59.808Z</time></trkpt><trkpt lat="45.2830516" lon="10.8836285"><ele>34.5</ele><time>2026-04-26T08:02:00.807Z</time></trkpt><trkpt lat="45.2833324" lon="10.8838451"><ele>32.0</ele><time>2026-04-26T08:02:01.807Z</time></trkpt><trkpt lat="45.2836122" lon="10.8840622"><ele>32.5</ele><time>2026-04-26T08:02:02.807Z</time></trkpt><trkpt lat="45.2838932" lon="10.8842807"><ele>33.0</ele><time>2026-04-26T08:02:03.807Z</time></trkpt><trkpt lat="45.284176" lon="10.8844988"><ele>33.0</ele><time>2026-04-26T08:02:04.808Z</time></trkpt><trkpt lat="45.284456" lon="10.8847177"><ele>33.0</ele><time>2026-04-26T08:02:05.807Z</time></trkpt><trkpt lat="45.284737" lon="10.8849371"><ele>32.5</ele><time>2026-04-26T08:02:06.808Z</time></trkpt><trkpt lat="45.2850194" lon="10.8851589"><ele>32.0</ele><time>2026-04-26T08:02:07.808Z</time></trkpt><trkpt lat="45.2853016" lon="10.8853771"><ele>32.0</ele><time>2026-04-26T08:02:08.807Z</time></trkpt><trkpt lat="45.2855832" lon="10.8855951"><ele>32.0</ele><time>2026-04-26T08:02:09.807Z</time></trkpt><trkpt lat="45.285864" lon="10.8858117"><ele>32.0</ele><time>2026-04-26T08:02:10.807Z</time></trkpt><trkpt lat="45.2861421" lon="10.8860307"><ele>32.0</ele><time>2026-04-26T08:02:11.808Z</time></trkpt><trkpt lat="45.2864199" lon="10.8862487"><ele>32.5</ele><time>2026-04-26T08:02:12.807Z</time></trkpt><trkpt lat="45.2866973" lon="10.886468"><ele>33.0</ele><time>2026-04-26T08:02:13.808Z</time></trkpt><trkpt lat="45.2869733" lon="10.8866894"><ele>32.5</ele><time>2026-04-26T08:02:14.808Z</time></trkpt><trkpt lat="45.287248" lon="10.8869134"><ele>32.0</ele><time>2026-04-26T08:02:15.808Z</time></trkpt><trkpt lat="45.2875212" lon="10.8871415"><ele>32.5</ele><time>2026-04-26T08:02:16.807Z</time></trkpt><trkpt lat="45.2877907" lon="10.8873769"><ele>33.0</ele><time>2026-04-26T08:02:17.807Z</time></trkpt><trkpt lat="45.2880577" lon="10.8876172"><ele>34.0</ele><time>2026-04-26T08:02:18.807Z</time></trkpt><trkpt lat="45.2883218" lon="10.8878629"><ele>35.0</ele><time>2026-04-26T08:02:19.807Z</time></trkpt><trkpt lat="45.2885842" lon="10.8881124"><ele>35.0</ele><time>2026-04-26T08:02:20.807Z</time></trkpt><trkpt lat="45.2888446" lon="10.8883648"><ele>35.0</ele><time>2026-04-26T08:02:21.807Z</time></trkpt><trkpt lat="45.2891033" lon="10.8886211"><ele>35.0</ele><time>2026-04-26T08:02:22.807Z</time></trkpt><trkpt lat="45.2893605" lon="10.8888793"><ele>35.0</ele><time>2026-04-26T08:02:23.808Z</time></trkpt><trkpt lat="45.289616" lon="10.8891419"><ele>35.0</ele><time>2026-04-26T08:02:24.807Z</time></trkpt><trkpt lat="45.2898693" lon="10.8894076"><ele>35.0</ele><time>2026-04-26T08:02:25.806Z</time></trkpt><trkpt lat="45.2901204" lon="10.8896782"><ele>35.0</ele><time>2026-04-26T08:02:26.807Z</time></trkpt><trkpt lat="45.2903718" lon="10.8899529"><ele>35.0</ele><time>2026-04-26T08:02:27.807Z</time></trkpt><trkpt lat="45.2906216" lon="10.8902235"><ele>35.0</ele><time>2026-04-26T08:02:28.808Z</time></trkpt><trkpt lat="45.2908734" lon="10.8904948"><ele>35.0</ele><time>2026-04-26T08:02:29.807Z</time></trkpt><trkpt lat="45.291126" lon="10.8907617"><ele>34.5</ele><time>2026-04-26T08:02:30.807Z</time></trkpt><trkpt lat="45.29138" lon="10.8910281"><ele>34.0</ele><time>2026-04-26T08:02:31.807Z</time></trkpt><trkpt lat="45.2916348" lon="10.8912948"><ele>34.5</ele><time>2026-04-26T08:02:32.807Z</time></trkpt><trkpt lat="45.2918921" lon="10.8915588"><ele>35.0</ele><time>2026-04-26T08:02:33.807Z</time></trkpt><trkpt lat="45.2921452" lon="10.8918273"><ele>34.5</ele><time>2026-04-26T08:02:34.806Z</time></trkpt><trkpt lat="45.2923981" lon="10.8920961"><ele>34.0</ele><time>2026-04-26T08:02:35.807Z</time></trkpt><trkpt lat="45.292651" lon="10.8923661"><ele>34.5</ele><time>2026-04-26T08:02:36.807Z</time></trkpt><trkpt lat="45.2929027" lon="10.8926351"><ele>35.0</ele><time>2026-04-26T08:02:37.807Z</time></trkpt><trkpt lat="45.2931532" lon="10.8929064"><ele>35.0</ele><time>2026-04-26T08:02:38.807Z</time></trkpt><trkpt lat="45.2934038" lon="10.8931788"><ele>35.0</ele><time>2026-04-26T08:02:39.807Z</time></trkpt><trkpt lat="45.2936552" lon="10.8934495"><ele>35.0</ele><time>2026-04-26T08:02:40.806Z</time></trkpt><trkpt lat="45.2939069" lon="10.8937193"><ele>35.0</ele><time>2026-04-26T08:02:41.806Z</time></trkpt><trkpt lat="45.2941597" lon="10.8939879"><ele>34.0</ele><time>2026-04-26T08:02:42.807Z</time></trkpt><trkpt lat="45.2944125" lon="10.894256"><ele>33.0</ele><time>2026-04-26T08:02:43.807Z</time></trkpt><trkpt lat="45.2946651" lon="10.8945249"><ele>33.5</ele><time>2026-04-26T08:02:44.807Z</time></trkpt><trkpt lat="45.2949181" lon="10.8947957"><ele>34.0</ele><time>2026-04-26T08:02:45.808Z</time></trkpt><trkpt lat="45.2951708" lon="10.8950669"><ele>33.5</ele><time>2026-04-26T08:02:46.808Z</time></trkpt><trkpt lat="45.295423" lon="10.8953389"><ele>33.0</ele><time>2026-04-26T08:02:47.808Z</time></trkpt><trkpt lat="45.2956774" lon="10.8956085"><ele>33.0</ele><time>2026-04-26T08:02:48.807Z</time></trkpt><trkpt lat="45.2959336" lon="10.8958757"><ele>33.0</ele><time>2026-04-26T08:02:49.807Z</time></trkpt><trkpt lat="45.2961903" lon="10.8961419"><ele>33.5</ele><time>2026-04-26T08:02:50.807Z</time></trkpt><trkpt lat="45.296447" lon="10.8964074"><ele>34.0</ele><time>2026-04-26T08:02:51.808Z</time></trkpt><trkpt lat="45.2967033" lon="10.8966729"><ele>34.0</ele><time>2026-04-26T08:02:52.807Z</time></trkpt><trkpt lat="45.2969601" lon="10.8969399"><ele>34.0</ele><time>2026-04-26T08:02:53.808Z</time></trkpt><trkpt lat="45.2972132" lon="10.897204"><ele>34.5</ele><time>2026-04-26T08:02:54.807Z</time></trkpt><trkpt lat="45.2974612" lon="10.897467"><ele>35.0</ele><time>2026-04-26T08:02:55.806Z</time></trkpt><trkpt lat="45.2977066" lon="10.8977294"><ele>35.0</ele><time>2026-04-26T08:02:56.807Z</time></trkpt><trkpt lat="45.2979509" lon="10.8979895"><ele>35.0</ele><time>2026-04-26T08:02:57.807Z</time></trkpt><trkpt lat="45.2981938" lon="10.8982473"><ele>35.0</ele><time>2026-04-26T08:02:58.808Z</time></trkpt><trkpt lat="45.2984358" lon="10.8985056"><ele>35.0</ele><time>2026-04-26T08:02:59.808Z</time></trkpt><trkpt lat="45.298676" lon="10.898764"><ele>35.0</ele><time>2026-04-26T08:03:00.808Z</time></trkpt><trkpt lat="45.298917" lon="10.8990217"><ele>35.0</ele><time>2026-04-26T08:03:01.808Z</time></trkpt><trkpt lat="45.2991586" lon="10.8992815"><ele>34.0</ele><time>2026-04-26T08:03:02.808Z</time></trkpt><trkpt lat="45.2994035" lon="10.8995445"><ele>33.0</ele><time>2026-04-26T08:03:03.808Z</time></trkpt><trkpt lat="45.2996527" lon="10.8998097"><ele>33.0</ele><time>2026-04-26T08:03:04.808Z</time></trkpt><trkpt lat="45.2999054" lon="10.9000777"><ele>33.0</ele><time>2026-04-26T08:03:05.807Z</time></trkpt><trkpt lat="45.3001616" lon="10.9003498"><ele>32.5</ele><time>2026-04-26T08:03:06.806Z</time></trkpt><trkpt lat="45.3004234" lon="10.9006257"><ele>32.0</ele><time>2026-04-26T08:03:07.806Z</time></trkpt><trkpt lat="45.3006895" lon="10.9009027"><ele>33.5</ele><time>2026-04-26T08:03:08.807Z</time></trkpt><trkpt lat="45.3009612" lon="10.9011778"><ele>35.0</ele><time>2026-04-26T08:03:09.808Z</time></trkpt><trkpt lat="45.3012318" lon="10.9014467"><ele>34.5</ele><time>2026-04-26T08:03:10.808Z</time></trkpt><trkpt lat="45.3015024" lon="10.9017078"><ele>34.0</ele><time>2026-04-26T08:03:11.808Z</time></trkpt><trkpt lat="45.3017739" lon="10.9019603"><ele>34.0</ele><time>2026-04-26T08:03:12.807Z</time></trkpt><trkpt lat="45.3020463" lon="10.9022056"><ele>34.0</ele><time>2026-04-26T08:03:13.806Z</time></trkpt><trkpt lat="45.3023188" lon="10.9024452"><ele>35.5</ele><time>2026-04-26T08:03:14.806Z</time></trkpt><trkpt lat="45.3025889" lon="10.9026789"><ele>37.0</ele><time>2026-04-26T08:03:15.806Z</time></trkpt><trkpt lat="45.3028585" lon="10.9029066"><ele>35.5</ele><time>2026-04-26T08:03:16.808Z</time></trkpt><trkpt lat="45.3031264" lon="10.9031278"><ele>34.0</ele><time>2026-04-26T08:03:17.808Z</time></trkpt><trkpt lat="45.3033881" lon="10.9033382"><ele>34.5</ele><time>2026-04-26T08:03:18.808Z</time></trkpt><trkpt lat="45.3036437" lon="10.9035376"><ele>35.0</ele><time>2026-04-26T08:03:19.806Z</time></trkpt><trkpt lat="45.3038977" lon="10.9037291"><ele>37.0</ele><time>2026-04-26T08:03:20.807Z</time></trkpt><trkpt lat="45.3041514" lon="10.9039147"><ele>39.0</ele><time>2026-04-26T08:03:21.808Z</time></trkpt><trkpt lat="45.304403" lon="10.9040955"><ele>40.0</ele><time>2026-04-26T08:03:22.807Z</time></trkpt><trkpt lat="45.3046538" lon="10.9042735"><ele>41.0</ele><time>2026-04-26T08:03:23.806Z</time></trkpt><trkpt lat="45.3049072" lon="10.9044496"><ele>39.0</ele><time>2026-04-26T08:03:24.807Z</time></trkpt><trkpt lat="45.3051652" lon="10.9046242"><ele>37.0</ele><time>2026-04-26T08:03:25.806Z</time></trkpt><trkpt lat="45.3054301" lon="10.9047954"><ele>36.5</ele><time>2026-04-26T08:03:26.808Z</time></trkpt><trkpt lat="45.3057025" lon="10.9049657"><ele>36.0</ele><time>2026-04-26T08:03:27.808Z</time></trkpt><trkpt lat="45.3059828" lon="10.905137"><ele>36.0</ele><time>2026-04-26T08:03:28.808Z</time></trkpt><trkpt lat="45.306271" lon="10.9053077"><ele>36.0</ele><time>2026-04-26T08:03:29.806Z</time></trkpt><trkpt lat="45.3065729" lon="10.9054799"><ele>35.5</ele><time>2026-04-26T08:03:30.807Z</time></trkpt><trkpt lat="45.3068853" lon="10.9056526"><ele>35.0</ele><time>2026-04-26T08:03:31.807Z</time></trkpt><trkpt lat="45.3071984" lon="10.9058206"><ele>35.5</ele><time>2026-04-26T08:03:32.808Z</time></trkpt><trkpt lat="45.3075077" lon="10.9059836"><ele>36.0</ele><time>2026-04-26T08:03:33.807Z</time></trkpt><trkpt lat="45.3078154" lon="10.9061446"><ele>36.0</ele><time>2026-04-26T08:03:34.807Z</time></trkpt><trkpt lat="45.3081203" lon="10.9063032"><ele>36.0</ele><time>2026-04-26T08:03:35.808Z</time></trkpt><trkpt lat="45.3084222" lon="10.9064604"><ele>36.0</ele><time>2026-04-26T08:03:36.807Z</time></trkpt><trkpt lat="45.3087206" lon="10.9066172"><ele>36.0</ele><time>2026-04-26T08:03:37.806Z</time></trkpt><trkpt lat="45.3090167" lon="10.9067738"><ele>35.0</ele><time>2026-04-26T08:03:38.806Z</time></trkpt><trkpt lat="45.3093111" lon="10.9069271"><ele>34.0</ele><time>2026-04-26T08:03:39.806Z</time></trkpt><trkpt lat="45.3096037" lon="10.9070788"><ele>35.0</ele><time>2026-04-26T08:03:40.807Z</time></trkpt><trkpt lat="45.3098947" lon="10.9072281"><ele>36.0</ele><time>2026-04-26T08:03:41.808Z</time></trkpt><trkpt lat="45.3101858" lon="10.9073744"><ele>36.0</ele><time>2026-04-26T08:03:42.808Z</time></trkpt><trkpt lat="45.3104758" lon="10.9075196"><ele>36.0</ele><time>2026-04-26T08:03:43.807Z</time></trkpt><trkpt lat="45.3107648" lon="10.9076631"><ele>35.5</ele><time>2026-04-26T08:03:44.808Z</time></trkpt><trkpt lat="45.3110525" lon="10.9078057"><ele>35.0</ele><time>2026-04-26T08:03:45.808Z</time></trkpt><trkpt lat="45.3113382" lon="10.9079471"><ele>35.0</ele><time>2026-04-26T08:03:46.808Z</time></trkpt><trkpt lat="45.3116216" lon="10.908089"><ele>35.0</ele><time>2026-04-26T08:03:47.808Z</time></trkpt><trkpt lat="45.3119049" lon="10.9082325"><ele>35.0</ele><time>2026-04-26T08:03:48.807Z</time></trkpt><trkpt lat="45.3121881" lon="10.9083782"><ele>35.0</ele><time>2026-04-26T08:03:49.807Z</time></trkpt><trkpt lat="45.3124719" lon="10.9085235"><ele>35.0</ele><time>2026-04-26T08:03:50.808Z</time></trkpt><trkpt lat="45.3127551" lon="10.9086679"><ele>35.0</ele><time>2026-04-26T08:03:51.808Z</time></trkpt><trkpt lat="45.3130389" lon="10.9088104"><ele>36.0</ele><time>2026-04-26T08:03:52.806Z</time></trkpt><trkpt lat="45.3133227" lon="10.9089517"><ele>37.0</ele><time>2026-04-26T08:03:53.808Z</time></trkpt><trkpt lat="45.3136055" lon="10.9090929"><ele>37.0</ele><time>2026-04-26T08:03:54.806Z</time></trkpt><trkpt lat="45.3138909" lon="10.9092334"><ele>37.0</ele><time>2026-04-26T08:03:55.808Z</time></trkpt><trkpt lat="45.3141727" lon="10.9093753"><ele>37.5</ele><time>2026-04-26T08:03:56.807Z</time></trkpt><trkpt lat="45.3144596" lon="10.9095211"><ele>38.0</ele><time>2026-04-26T08:03:57.806Z</time></trkpt><trkpt lat="45.3147447" lon="10.9096674"><ele>38.0</ele><time>2026-04-26T08:03:58.808Z</time></trkpt><trkpt lat="45.3150279" lon="10.9098184"><ele>38.0</ele><time>2026-04-26T08:03:59.808Z</time></trkpt><trkpt lat="45.3153129" lon="10.9099717"><ele>37.5</ele><time>2026-04-26T08:04:00.808Z</time></trkpt><trkpt lat="45.3155955" lon="10.910126"><ele>37.0</ele><time>2026-04-26T08:04:01.807Z</time></trkpt><trkpt lat="45.3158771" lon="10.9102844"><ele>37.0</ele><time>2026-04-26T08:04:02.807Z</time></trkpt><trkpt lat="45.3161588" lon="10.9104462"><ele>37.0</ele><time>2026-04-26T08:04:03.806Z</time></trkpt><trkpt lat="45.3164427" lon="10.9106105"><ele>36.5</ele><time>2026-04-26T08:04:04.807Z</time></trkpt><trkpt lat="45.3167239" lon="10.9107769"><ele>36.0</ele><time>2026-04-26T08:04:05.808Z</time></trkpt><trkpt lat="45.3170027" lon="10.9109455"><ele>36.0</ele><time>2026-04-26T08:04:06.807Z</time></trkpt><trkpt lat="45.3172808" lon="10.9111154"><ele>36.0</ele><time>2026-04-26T08:04:07.807Z</time></trkpt><trkpt lat="45.3175614" lon="10.9112866"><ele>36.0</ele><time>2026-04-26T08:04:08.807Z</time></trkpt><trkpt lat="45.3178479" lon="10.9114572"><ele>36.0</ele><time>2026-04-26T08:04:09.807Z</time></trkpt><trkpt lat="45.3181451" lon="10.9116323"><ele>36.0</ele><time>2026-04-26T08:04:10.807Z</time></trkpt><trkpt lat="45.3184499" lon="10.9118109"><ele>36.0</ele><time>2026-04-26T08:04:11.808Z</time></trkpt><trkpt lat="45.3187561" lon="10.9119934"><ele>36.0</ele><time>2026-04-26T08:04:12.806Z</time></trkpt><trkpt lat="45.3190642" lon="10.9121819"><ele>36.0</ele><time>2026-04-26T08:04:13.807Z</time></trkpt><trkpt lat="45.319372" lon="10.9123754"><ele>36.5</ele><time>2026-04-26T08:04:14.806Z</time></trkpt><trkpt lat="45.3196799" lon="10.9125746"><ele>37.0</ele><time>2026-04-26T08:04:15.808Z</time></trkpt><trkpt lat="45.3199876" lon="10.9127809"><ele>37.5</ele><time>2026-04-26T08:04:16.808Z</time></trkpt><trkpt lat="45.3202936" lon="10.9129888"><ele>38.0</ele><time>2026-04-26T08:04:17.807Z</time></trkpt><trkpt lat="45.3205981" lon="10.9131906"><ele>38.0</ele><time>2026-04-26T08:04:18.808Z</time></trkpt><trkpt lat="45.3209018" lon="10.9133842"><ele>38.0</ele><time>2026-04-26T08:04:19.807Z</time></trkpt><trkpt lat="45.3212034" lon="10.9135743"><ele>38.0</ele><time>2026-04-26T08:04:20.808Z</time></trkpt><trkpt lat="45.3215042" lon="10.9137603"><ele>38.0</ele><time>2026-04-26T08:04:21.808Z</time></trkpt><trkpt lat="45.3218031" lon="10.9139437"><ele>38.0</ele><time>2026-04-26T08:04:22.806Z</time></trkpt><trkpt lat="45.3220998" lon="10.9141262"><ele>38.0</ele><time>2026-04-26T08:04:23.806Z</time></trkpt><trkpt lat="45.3223942" lon="10.9143075"><ele>37.5</ele><time>2026-04-26T08:04:24.807Z</time></trkpt><trkpt lat="45.3226868" lon="10.9144891"><ele>37.0</ele><time>2026-04-26T08:04:25.807Z</time></trkpt><trkpt lat="45.3229792" lon="10.9146719"><ele>37.0</ele><time>2026-04-26T08:04:26.808Z</time></trkpt><trkpt lat="45.3232677" lon="10.9148538"><ele>37.0</ele><time>2026-04-26T08:04:27.807Z</time></trkpt><trkpt lat="45.3235556" lon="10.9150361"><ele>37.0</ele><time>2026-04-26T08:04:28.806Z</time></trkpt><trkpt lat="45.3238415" lon="10.9152187"><ele>37.0</ele><time>2026-04-26T08:04:29.807Z</time></trkpt><trkpt lat="45.3241283" lon="10.9153975"><ele>36.5</ele><time>2026-04-26T08:04:30.808Z</time></trkpt><trkpt lat="45.3244154" lon="10.9155748"><ele>36.0</ele><time>2026-04-26T08:04:31.807Z</time></trkpt><trkpt lat="45.324703" lon="10.9157481"><ele>37.0</ele><time>2026-04-26T08:04:32.808Z</time></trkpt><trkpt lat="45.3249933" lon="10.9159138"><ele>38.0</ele><time>2026-04-26T08:04:33.807Z</time></trkpt><trkpt lat="45.3252843" lon="10.9160766"><ele>38.0</ele><time>2026-04-26T08:04:34.807Z</time></trkpt><trkpt lat="45.3255763" lon="10.9162338"><ele>38.0</ele><time>2026-04-26T08:04:35.808Z</time></trkpt><trkpt lat="45.325871" lon="10.9163812"><ele>38.0</ele><time>2026-04-26T08:04:36.807Z</time></trkpt><trkpt lat="45.3261685" lon="10.9165137"><ele>38.0</ele><time>2026-04-26T08:04:37.807Z</time></trkpt><trkpt lat="45.3264688" lon="10.9166327"><ele>39.5</ele><time>2026-04-26T08:04:38.807Z</time></trkpt><trkpt lat="45.3267691" lon="10.9167455"><ele>41.0</ele><time>2026-04-26T08:04:39.807Z</time></trkpt><trkpt lat="45.3270723" lon="10.9168516"><ele>40.0</ele><time>2026-04-26T08:04:40.807Z</time></trkpt><trkpt lat="45.3273768" lon="10.9169503"><ele>39.0</ele><time>2026-04-26T08:04:41.807Z</time></trkpt><trkpt lat="45.3276836" lon="10.9170391"><ele>39.0</ele><time>2026-04-26T08:04:42.807Z</time></trkpt><trkpt lat="45.3279917" lon="10.9171204"><ele>39.0</ele><time>2026-04-26T08:04:43.808Z</time></trkpt><trkpt lat="45.3283008" lon="10.9171957"><ele>38.0</ele><time>2026-04-26T08:04:44.808Z</time></trkpt><trkpt lat="45.3286106" lon="10.9172659"><ele>37.0</ele><time>2026-04-26T08:04:45.807Z</time></trkpt><trkpt lat="45.3289201" lon="10.9173216"><ele>37.0</ele><time>2026-04-26T08:04:46.807Z</time></trkpt><trkpt lat="45.3292284" lon="10.9173643"><ele>37.0</ele><time>2026-04-26T08:04:47.807Z</time></trkpt><trkpt lat="45.3295379" lon="10.9173957"><ele>37.5</ele><time>2026-04-26T08:04:48.808Z</time></trkpt><trkpt lat="45.3298485" lon="10.9174181"><ele>38.0</ele><time>2026-04-26T08:04:49.808Z</time></trkpt><trkpt lat="45.3301617" lon="10.9174388"><ele>38.0</ele><time>2026-04-26T08:04:50.808Z</time></trkpt><trkpt lat="45.3304758" lon="10.9174604"><ele>38.0</ele><time>2026-04-26T08:04:51.807Z</time></trkpt><trkpt lat="45.3307892" lon="10.9174861"><ele>38.0</ele><time>2026-04-26T08:04:52.808Z</time></trkpt><trkpt lat="45.3311019" lon="10.9175171"><ele>38.0</ele><time>2026-04-26T08:04:53.807Z</time></trkpt><trkpt lat="45.331419" lon="10.9175492"><ele>37.5</ele><time>2026-04-26T08:04:54.807Z</time></trkpt><trkpt lat="45.3317336" lon="10.9175819"><ele>37.0</ele><time>2026-04-26T08:04:55.808Z</time></trkpt><trkpt lat="45.332052" lon="10.9176129"><ele>36.5</ele><time>2026-04-26T08:04:56.807Z</time></trkpt><trkpt lat="45.3323722" lon="10.9176453"><ele>36.0</ele><time>2026-04-26T08:04:57.808Z</time></trkpt><trkpt lat="45.3326935" lon="10.91768"><ele>36.0</ele><time>2026-04-26T08:04:58.808Z</time></trkpt><trkpt lat="45.3330161" lon="10.9177173"><ele>36.0</ele><time>2026-04-26T08:04:59.807Z</time></trkpt><trkpt lat="45.3333378" lon="10.917753"><ele>36.0</ele><time>2026-04-26T08:05:00.808Z</time></trkpt><trkpt lat="45.3336601" lon="10.9177869"><ele>36.0</ele><time>2026-04-26T08:05:01.807Z</time></trkpt><trkpt lat="45.3339847" lon="10.9178177"><ele>36.0</ele><time>2026-04-26T08:05:02.808Z</time></trkpt><trkpt lat="45.3343077" lon="10.9178479"><ele>36.0</ele><time>2026-04-26T08:05:03.807Z</time></trkpt><trkpt lat="45.334629" lon="10.9178768"><ele>37.0</ele><time>2026-04-26T08:05:04.808Z</time></trkpt><trkpt lat="45.3349485" lon="10.9179057"><ele>38.0</ele><time>2026-04-26T08:05:05.808Z</time></trkpt><trkpt lat="45.3352651" lon="10.9179354"><ele>39.5</ele><time>2026-04-26T08:05:06.807Z</time></trkpt><trkpt lat="45.3355806" lon="10.917963"><ele>41.0</ele><time>2026-04-26T08:05:07.807Z</time></trkpt><trkpt lat="45.3358958" lon="10.917989"><ele>41.0</ele><time>2026-04-26T08:05:08.808Z</time></trkpt><trkpt lat="45.3362089" lon="10.9180158"><ele>41.0</ele><time>2026-04-26T08:05:09.806Z</time></trkpt><trkpt lat="45.3365215" lon="10.9180429"><ele>41.0</ele><time>2026-04-26T08:05:10.808Z</time></trkpt><trkpt lat="45.336832" lon="10.9180671"><ele>41.0</ele><time>2026-04-26T08:05:11.806Z</time></trkpt><trkpt lat="45.3371371" lon="10.9180899"><ele>39.5</ele><time>2026-04-26T08:05:12.807Z</time></trkpt><trkpt lat="45.3374414" lon="10.9181154"><ele>38.0</ele><time>2026-04-26T08:05:13.807Z</time></trkpt><trkpt lat="45.3377448" lon="10.9181426"><ele>38.0</ele><time>2026-04-26T08:05:14.806Z</time></trkpt><trkpt lat="45.3380444" lon="10.9181721"><ele>38.0</ele><time>2026-04-26T08:05:15.807Z</time></trkpt><trkpt lat="45.3383436" lon="10.9181983"><ele>38.0</ele><time>2026-04-26T08:05:16.808Z</time></trkpt><trkpt lat="45.3386428" lon="10.9182204"><ele>38.0</ele><time>2026-04-26T08:05:17.807Z</time></trkpt><trkpt lat="45.3389415" lon="10.9182449"><ele>38.0</ele><time>2026-04-26T08:05:18.808Z</time></trkpt><trkpt lat="45.3392402" lon="10.9182709"><ele>38.0</ele><time>2026-04-26T08:05:19.806Z</time></trkpt><trkpt lat="45.3395393" lon="10.9182988"><ele>38.0</ele><time>2026-04-26T08:05:20.807Z</time></trkpt><trkpt lat="45.3398321" lon="10.918326"><ele>38.0</ele><time>2026-04-26T08:05:21.808Z</time></trkpt><trkpt lat="45.3401259" lon="10.9183544"><ele>38.0</ele><time>2026-04-26T08:05:22.806Z</time></trkpt><trkpt lat="45.3404182" lon="10.9183828"><ele>38.0</ele><time>2026-04-26T08:05:23.806Z</time></trkpt><trkpt lat="45.3407099" lon="10.9184089"><ele>38.5</ele><time>2026-04-26T08:05:24.806Z</time></trkpt><trkpt lat="45.341001" lon="10.9184339"><ele>39.0</ele><time>2026-04-26T08:05:25.807Z</time></trkpt><trkpt lat="45.3412923" lon="10.9184593"><ele>39.5</ele><time>2026-04-26T08:05:26.807Z</time></trkpt><trkpt lat="45.3415834" lon="10.918484"><ele>40.0</ele><time>2026-04-26T08:05:27.808Z</time></trkpt><trkpt lat="45.3418743" lon="10.918511"><ele>40.0</ele><time>2026-04-26T08:05:28.807Z</time></trkpt><trkpt lat="45.3421669" lon="10.91854"><ele>40.0</ele><time>2026-04-26T08:05:29.808Z</time></trkpt><trkpt lat="45.3424608" lon="10.9185688"><ele>40.5</ele><time>2026-04-26T08:05:30.808Z</time></trkpt><trkpt lat="45.3427576" lon="10.9185936"><ele>41.0</ele><time>2026-04-26T08:05:31.808Z</time></trkpt><trkpt lat="45.343055" lon="10.9186183"><ele>41.5</ele><time>2026-04-26T08:05:32.807Z</time></trkpt><trkpt lat="45.3433555" lon="10.9186422"><ele>42.0</ele><time>2026-04-26T08:05:33.807Z</time></trkpt><trkpt lat="45.3436578" lon="10.9186678"><ele>41.5</ele><time>2026-04-26T08:05:34.807Z</time></trkpt><trkpt lat="45.3439614" lon="10.918694"><ele>41.0</ele><time>2026-04-26T08:05:35.808Z</time></trkpt><trkpt lat="45.3442643" lon="10.9187212"><ele>41.0</ele><time>2026-04-26T08:05:36.807Z</time></trkpt><trkpt lat="45.3445669" lon="10.9187479"><ele>41.0</ele><time>2026-04-26T08:05:37.808Z</time></trkpt><trkpt lat="45.3448706" lon="10.9187741"><ele>41.0</ele><time>2026-04-26T08:05:38.807Z</time></trkpt><trkpt lat="45.345174" lon="10.9187973"><ele>41.0</ele><time>2026-04-26T08:05:39.806Z</time></trkpt><trkpt lat="45.3454777" lon="10.918819"><ele>40.5</ele><time>2026-04-26T08:05:40.808Z</time></trkpt><trkpt lat="45.3457819" lon="10.9188399"><ele>40.0</ele><time>2026-04-26T08:05:41.807Z</time></trkpt><trkpt lat="45.3460863" lon="10.9188584"><ele>41.0</ele><time>2026-04-26T08:05:42.808Z</time></trkpt><trkpt lat="45.3463915" lon="10.9188767"><ele>42.0</ele><time>2026-04-26T08:05:43.807Z</time></trkpt><trkpt lat="45.3466973" lon="10.9188985"><ele>42.0</ele><time>2026-04-26T08:05:44.807Z</time></trkpt><trkpt lat="45.3470026" lon="10.9189248"><ele>42.0</ele><time>2026-04-26T08:05:45.808Z</time></trkpt><trkpt lat="45.347306" lon="10.9189562"><ele>41.5</ele><time>2026-04-26T08:05:46.807Z</time></trkpt><trkpt lat="45.3476092" lon="10.9189907"><ele>41.0</ele><time>2026-04-26T08:05:47.807Z</time></trkpt><trkpt lat="45.3479118" lon="10.9190296"><ele>41.0</ele><time>2026-04-26T08:05:48.807Z</time></trkpt><trkpt lat="45.3482136" lon="10.9190701"><ele>41.0</ele><time>2026-04-26T08:05:49.807Z</time></trkpt><trkpt lat="45.3485141" lon="10.9191132"><ele>41.0</ele><time>2026-04-26T08:05:50.806Z</time></trkpt><trkpt lat="45.3488133" lon="10.9191581"><ele>41.0</ele><time>2026-04-26T08:05:51.806Z</time></trkpt><trkpt lat="45.3491119" lon="10.9192031"><ele>41.0</ele><time>2026-04-26T08:05:52.808Z</time></trkpt><trkpt lat="45.3494107" lon="10.9192459"><ele>41.0</ele><time>2026-04-26T08:05:53.807Z</time></trkpt><trkpt lat="45.3497101" lon="10.9192869"><ele>41.0</ele><time>2026-04-26T08:05:54.807Z</time></trkpt><trkpt lat="45.3500099" lon="10.9193269"><ele>41.0</ele><time>2026-04-26T08:05:55.808Z</time></trkpt><trkpt lat="45.3503099" lon="10.9193677"><ele>42.5</ele><time>2026-04-26T08:05:56.806Z</time></trkpt><trkpt lat="45.3506102" lon="10.9194103"><ele>44.0</ele><time>2026-04-26T08:05:57.806Z</time></trkpt><trkpt lat="45.3509101" lon="10.9194551"><ele>44.0</ele><time>2026-04-26T08:05:58.807Z</time></trkpt><trkpt lat="45.3512101" lon="10.9195045"><ele>44.0</ele><time>2026-04-26T08:05:59.807Z</time></trkpt><trkpt lat="45.3515099" lon="10.9195556"><ele>44.5</ele><time>2026-04-26T08:06:00.807Z</time></trkpt><trkpt lat="45.3518099" lon="10.9196074"><ele>45.0</ele><time>2026-04-26T08:06:01.807Z</time></trkpt><trkpt lat="45.3521105" lon="10.9196588"><ele>45.0</ele><time>2026-04-26T08:06:02.808Z</time></trkpt><trkpt lat="45.3524116" lon="10.9197099"><ele>45.0</ele><time>2026-04-26T08:06:03.808Z</time></trkpt><trkpt lat="45.3527132" lon="10.9197594"><ele>45.0</ele><time>2026-04-26T08:06:04.807Z</time></trkpt><trkpt lat="45.3530158" lon="10.9198081"><ele>45.0</ele><time>2026-04-26T08:06:05.806Z</time></trkpt><trkpt lat="45.3533198" lon="10.9198573"><ele>45.0</ele><time>2026-04-26T08:06:06.806Z</time></trkpt><trkpt lat="45.3536257" lon="10.9199078"><ele>45.0</ele><time>2026-04-26T08:06:07.807Z</time></trkpt><trkpt lat="45.3539345" lon="10.9199597"><ele>45.0</ele><time>2026-04-26T08:06:08.807Z</time></trkpt><trkpt lat="45.354245" lon="10.9200114"><ele>45.0</ele><time>2026-04-26T08:06:09.808Z</time></trkpt><trkpt lat="45.3545575" lon="10.9200621"><ele>45.5</ele><time>2026-04-26T08:06:10.808Z</time></trkpt><trkpt lat="45.3548692" lon="10.9201128"><ele>46.0</ele><time>2026-04-26T08:06:11.806Z</time></trkpt><trkpt lat="45.355179" lon="10.9201638"><ele>46.0</ele><time>2026-04-26T08:06:12.806Z</time></trkpt><trkpt lat="45.3554899" lon="10.9202178"><ele>46.0</ele><time>2026-04-26T08:06:13.807Z</time></trkpt><trkpt lat="45.3558011" lon="10.9202727"><ele>45.5</ele><time>2026-04-26T08:06:14.807Z</time></trkpt><trkpt lat="45.3561113" lon="10.9203265"><ele>45.0</ele><time>2026-04-26T08:06:15.808Z</time></trkpt><trkpt lat="45.356423" lon="10.9203792"><ele>45.0</ele><time>2026-04-26T08:06:16.808Z</time></trkpt><trkpt lat="45.3567359" lon="10.9204313"><ele>45.0</ele><time>2026-04-26T08:06:17.807Z</time></trkpt><trkpt lat="45.3570494" lon="10.920481"><ele>45.5</ele><time>2026-04-26T08:06:18.808Z</time></trkpt><trkpt lat="45.357361" lon="10.9205254"><ele>46.0</ele><time>2026-04-26T08:06:19.806Z</time></trkpt><trkpt lat="45.357673" lon="10.9205668"><ele>46.0</ele><time>2026-04-26T08:06:20.808Z</time></trkpt><trkpt lat="45.3579866" lon="10.9205993"><ele>46.0</ele><time>2026-04-26T08:06:21.806Z</time></trkpt><trkpt lat="45.3583043" lon="10.9206207"><ele>46.5</ele><time>2026-04-26T08:06:22.807Z</time></trkpt><trkpt lat="45.3586249" lon="10.9206365"><ele>47.0</ele><time>2026-04-26T08:06:23.808Z</time></trkpt><trkpt lat="45.3589482" lon="10.9206488"><ele>46.0</ele><time>2026-04-26T08:06:24.807Z</time></trkpt><trkpt lat="45.3592725" lon="10.9206557"><ele>45.0</ele><time>2026-04-26T08:06:25.806Z</time></trkpt><trkpt lat="45.3595954" lon="10.9206619"><ele>46.0</ele><time>2026-04-26T08:06:26.808Z</time></trkpt><trkpt lat="45.3599192" lon="10.9206628"><ele>47.0</ele><time>2026-04-26T08:06:27.807Z</time></trkpt><trkpt lat="45.3602426" lon="10.9206582"><ele>45.5</ele><time>2026-04-26T08:06:28.807Z</time></trkpt><trkpt lat="45.3605658" lon="10.9206538"><ele>44.0</ele><time>2026-04-26T08:06:29.806Z</time></trkpt><trkpt lat="45.3608878" lon="10.9206448"><ele>44.0</ele><time>2026-04-26T08:06:30.807Z</time></trkpt><trkpt lat="45.3612096" lon="10.9206276"><ele>44.0</ele><time>2026-04-26T08:06:31.807Z</time></trkpt><trkpt lat="45.3615291" lon="10.9206014"><ele>44.5</ele><time>2026-04-26T08:06:32.807Z</time></trkpt><trkpt lat="45.3618476" lon="10.9205687"><ele>45.0</ele><time>2026-04-26T08:06:33.806Z</time></trkpt><trkpt lat="45.3621658" lon="10.9205291"><ele>46.0</ele><time>2026-04-26T08:06:34.807Z</time></trkpt><trkpt lat="45.3624832" lon="10.9204784"><ele>47.0</ele><time>2026-04-26T08:06:35.806Z</time></trkpt><trkpt lat="45.3628013" lon="10.9204206"><ele>48.0</ele><time>2026-04-26T08:06:36.808Z</time></trkpt><trkpt lat="45.3631174" lon="10.9203559"><ele>49.0</ele><time>2026-04-26T08:06:37.807Z</time></trkpt><trkpt lat="45.363434" lon="10.9202843"><ele>49.0</ele><time>2026-04-26T08:06:38.807Z</time></trkpt><trkpt lat="45.3637475" lon="10.9202025"><ele>49.0</ele><time>2026-04-26T08:06:39.806Z</time></trkpt><trkpt lat="45.3640605" lon="10.9201162"><ele>48.5</ele><time>2026-04-26T08:06:40.806Z</time></trkpt><trkpt lat="45.3643715" lon="10.9200259"><ele>48.0</ele><time>2026-04-26T08:06:41.807Z</time></trkpt><trkpt lat="45.3646817" lon="10.919933"><ele>48.5</ele><time>2026-04-26T08:06:42.808Z</time></trkpt><trkpt lat="45.3649894" lon="10.9198367"><ele>49.0</ele><time>2026-04-26T08:06:43.808Z</time></trkpt><trkpt lat="45.3652966" lon="10.9197311"><ele>48.0</ele><time>2026-04-26T08:06:44.808Z</time></trkpt><trkpt lat="45.3655993" lon="10.9196215"><ele>47.0</ele><time>2026-04-26T08:06:45.806Z</time></trkpt><trkpt lat="45.3659" lon="10.9195021"><ele>47.0</ele><time>2026-04-26T08:06:46.807Z</time></trkpt><trkpt lat="45.3661971" lon="10.9193769"><ele>47.0</ele><time>2026-04-26T08:06:47.806Z</time></trkpt><trkpt lat="45.3664917" lon="10.9192501"><ele>47.5</ele><time>2026-04-26T08:06:48.807Z</time></trkpt><trkpt lat="45.366784" lon="10.9191181"><ele>48.0</ele><time>2026-04-26T08:06:49.806Z</time></trkpt><trkpt lat="45.3670741" lon="10.9189781"><ele>48.0</ele><time>2026-04-26T08:06:50.806Z</time></trkpt><trkpt lat="45.3673618" lon="10.9188332"><ele>48.0</ele><time>2026-04-26T08:06:51.806Z</time></trkpt><trkpt lat="45.3676535" lon="10.9186831"><ele>48.0</ele><time>2026-04-26T08:06:52.808Z</time></trkpt><trkpt lat="45.3679434" lon="10.918527"><ele>48.0</ele><time>2026-04-26T08:06:53.807Z</time></trkpt><trkpt lat="45.3682352" lon="10.9183659"><ele>49.0</ele><time>2026-04-26T08:06:54.808Z</time></trkpt><trkpt lat="45.3685296" lon="10.9182045"><ele>50.0</ele><time>2026-04-26T08:06:55.808Z</time></trkpt><trkpt lat="45.3688254" lon="10.9180444"><ele>49.0</ele><time>2026-04-26T08:06:56.808Z</time></trkpt><trkpt lat="45.3691242" lon="10.9178889"><ele>48.0</ele><time>2026-04-26T08:06:57.808Z</time></trkpt><trkpt lat="45.3694252" lon="10.9177405"><ele>48.0</ele><time>2026-04-26T08:06:58.807Z</time></trkpt><trkpt lat="45.3697273" lon="10.9175973"><ele>48.0</ele><time>2026-04-26T08:06:59.807Z</time></trkpt><trkpt lat="45.3700302" lon="10.9174563"><ele>48.5</ele><time>2026-04-26T08:07:00.807Z</time></trkpt><trkpt lat="45.3703319" lon="10.9173106"><ele>49.0</ele><time>2026-04-26T08:07:01.807Z</time></trkpt><trkpt lat="45.3706322" lon="10.9171578"><ele>49.0</ele><time>2026-04-26T08:07:02.808Z</time></trkpt><trkpt lat="45.3709297" lon="10.9170018"><ele>49.0</ele><time>2026-04-26T08:07:03.808Z</time></trkpt><trkpt lat="45.3712243" lon="10.9168461"><ele>50.0</ele><time>2026-04-26T08:07:04.808Z</time></trkpt><trkpt lat="45.3715196" lon="10.9166902"><ele>51.0</ele><time>2026-04-26T08:07:05.807Z</time></trkpt><trkpt lat="45.3718147" lon="10.916535"><ele>51.0</ele><time>2026-04-26T08:07:06.808Z</time></trkpt><trkpt lat="45.3721117" lon="10.9163802"><ele>51.0</ele><time>2026-04-26T08:07:07.806Z</time></trkpt><trkpt lat="45.3724084" lon="10.9162254"><ele>51.0</ele><time>2026-04-26T08:07:08.807Z</time></trkpt><trkpt lat="45.3727068" lon="10.9160715"><ele>51.0</ele><time>2026-04-26T08:07:09.807Z</time></trkpt><trkpt lat="45.3730073" lon="10.9159189"><ele>51.5</ele><time>2026-04-26T08:07:10.807Z</time></trkpt><trkpt lat="45.3733081" lon="10.9157649"><ele>52.0</ele><time>2026-04-26T08:07:11.807Z</time></trkpt><trkpt lat="45.3736094" lon="10.9156096"><ele>51.5</ele><time>2026-04-26T08:07:12.808Z</time></trkpt><trkpt lat="45.3739107" lon="10.9154518"><ele>51.0</ele><time>2026-04-26T08:07:13.808Z</time></trkpt><trkpt lat="45.3742125" lon="10.9152915"><ele>51.0</ele><time>2026-04-26T08:07:14.807Z</time></trkpt><trkpt lat="45.3745158" lon="10.9151305"><ele>51.0</ele><time>2026-04-26T08:07:15.808Z</time></trkpt><trkpt lat="45.3748202" lon="10.9149697"><ele>52.0</ele><time>2026-04-26T08:07:16.806Z</time></trkpt><trkpt lat="45.3751249" lon="10.9148109"><ele>53.0</ele><time>2026-04-26T08:07:17.808Z</time></trkpt><trkpt lat="45.37543" lon="10.9146519"><ele>53.0</ele><time>2026-04-26T08:07:18.807Z</time></trkpt><trkpt lat="45.3757357" lon="10.914495"><ele>53.0</ele><time>2026-04-26T08:07:19.807Z</time></trkpt><trkpt lat="45.3760427" lon="10.91434"><ele>53.5</ele><time>2026-04-26T08:07:20.807Z</time></trkpt><trkpt lat="45.3763495" lon="10.9141837"><ele>54.0</ele><time>2026-04-26T08:07:21.807Z</time></trkpt><trkpt lat="45.3766566" lon="10.9140263"><ele>54.0</ele><time>2026-04-26T08:07:22.808Z</time></trkpt><trkpt lat="45.3769636" lon="10.9138672"><ele>54.0</ele><time>2026-04-26T08:07:23.807Z</time></trkpt><trkpt lat="45.3772698" lon="10.9137071"><ele>54.0</ele><time>2026-04-26T08:07:24.807Z</time></trkpt><trkpt lat="45.3775756" lon="10.9135459"><ele>54.0</ele><time>2026-04-26T08:07:25.807Z</time></trkpt><trkpt lat="45.3778818" lon="10.913385"><ele>52.5</ele><time>2026-04-26T08:07:26.806Z</time></trkpt><trkpt lat="45.378188" lon="10.9132258"><ele>51.0</ele><time>2026-04-26T08:07:27.808Z</time></trkpt><trkpt lat="45.378495" lon="10.9130672"><ele>51.0</ele><time>2026-04-26T08:07:28.807Z</time></trkpt><trkpt lat="45.3788027" lon="10.9129092"><ele>51.0</ele><time>2026-04-26T08:07:29.808Z</time></trkpt><trkpt lat="45.3791103" lon="10.9127508"><ele>52.0</ele><time>2026-04-26T08:07:30.808Z</time></trkpt><trkpt lat="45.3794193" lon="10.912592"><ele>53.0</ele><time>2026-04-26T08:07:31.807Z</time></trkpt><trkpt lat="45.3797286" lon="10.9124319"><ele>53.0</ele><time>2026-04-26T08:07:32.808Z</time></trkpt><trkpt lat="45.3800379" lon="10.9122706"><ele>53.0</ele><time>2026-04-26T08:07:33.808Z</time></trkpt><trkpt lat="45.3803469" lon="10.9121103"><ele>53.5</ele><time>2026-04-26T08:07:34.807Z</time></trkpt><trkpt lat="45.380656" lon="10.9119501"><ele>54.0</ele><time>2026-04-26T08:07:35.807Z</time></trkpt><trkpt lat="45.3809639" lon="10.911791"><ele>54.5</ele><time>2026-04-26T08:07:36.807Z</time></trkpt><trkpt lat="45.3812682" lon="10.9116325"><ele>55.0</ele><time>2026-04-26T08:07:37.808Z</time></trkpt><trkpt lat="45.3815715" lon="10.9114725"><ele>55.5</ele><time>2026-04-26T08:07:38.807Z</time></trkpt><trkpt lat="45.3818742" lon="10.9113095"><ele>56.0</ele><time>2026-04-26T08:07:39.806Z</time></trkpt><trkpt lat="45.3821779" lon="10.9111443"><ele>57.5</ele><time>2026-04-26T08:07:40.807Z</time></trkpt><trkpt lat="45.3824819" lon="10.9109781"><ele>59.0</ele><time>2026-04-26T08:07:41.807Z</time></trkpt><trkpt lat="45.3827861" lon="10.9108128"><ele>58.0</ele><time>2026-04-26T08:07:42.807Z</time></trkpt><trkpt lat="45.383091" lon="10.9106464"><ele>57.0</ele><time>2026-04-26T08:07:43.808Z</time></trkpt><trkpt lat="45.3833963" lon="10.9104845"><ele>57.0</ele><time>2026-04-26T08:07:44.807Z</time></trkpt><trkpt lat="45.3837031" lon="10.9103231"><ele>57.0</ele><time>2026-04-26T08:07:45.806Z</time></trkpt><trkpt lat="45.3840093" lon="10.9101636"><ele>58.0</ele><time>2026-04-26T08:07:46.807Z</time></trkpt><trkpt lat="45.3843173" lon="10.910005"><ele>59.0</ele><time>2026-04-26T08:07:47.806Z</time></trkpt><trkpt lat="45.3846226" lon="10.9098462"><ele>59.0</ele><time>2026-04-26T08:07:48.808Z</time></trkpt><trkpt lat="45.384927" lon="10.9096911"><ele>59.0</ele><time>2026-04-26T08:07:49.807Z</time></trkpt><trkpt lat="45.3852323" lon="10.9095403"><ele>59.0</ele><time>2026-04-26T08:07:50.808Z</time></trkpt><trkpt lat="45.3855388" lon="10.909393"><ele>59.0</ele><time>2026-04-26T08:07:51.808Z</time></trkpt><trkpt lat="45.385845" lon="10.9092559"><ele>59.5</ele><time>2026-04-26T08:07:52.807Z</time></trkpt><trkpt lat="45.3861529" lon="10.9091288"><ele>60.0</ele><time>2026-04-26T08:07:53.807Z</time></trkpt><trkpt lat="45.3864601" lon="10.9090104"><ele>60.0</ele><time>2026-04-26T08:07:54.806Z</time></trkpt><trkpt lat="45.3867699" lon="10.9089053"><ele>60.0</ele><time>2026-04-26T08:07:55.808Z</time></trkpt><trkpt lat="45.3870804" lon="10.9088106"><ele>59.5</ele><time>2026-04-26T08:07:56.807Z</time></trkpt><trkpt lat="45.3873938" lon="10.9087225"><ele>59.0</ele><time>2026-04-26T08:07:57.808Z</time></trkpt><trkpt lat="45.3877094" lon="10.9086424"><ele>59.5</ele><time>2026-04-26T08:07:58.807Z</time></trkpt><trkpt lat="45.3880265" lon="10.9085693"><ele>60.0</ele><time>2026-04-26T08:07:59.807Z</time></trkpt><trkpt lat="45.3883427" lon="10.9085068"><ele>60.0</ele><time>2026-04-26T08:08:00.808Z</time></trkpt><trkpt lat="45.3886586" lon="10.9084547"><ele>60.0</ele><time>2026-04-26T08:08:01.807Z</time></trkpt><trkpt lat="45.3889729" lon="10.9084129"><ele>61.0</ele><time>2026-04-26T08:08:02.807Z</time></trkpt><trkpt lat="45.3892864" lon="10.9083807"><ele>62.0</ele><time>2026-04-26T08:08:03.807Z</time></trkpt><trkpt lat="45.3896" lon="10.908359"><ele>62.0</ele><time>2026-04-26T08:08:04.807Z</time></trkpt><trkpt lat="45.3899147" lon="10.9083475"><ele>62.0</ele><time>2026-04-26T08:08:05.808Z</time></trkpt><trkpt lat="45.3902322" lon="10.9083449"><ele>61.0</ele><time>2026-04-26T08:08:06.807Z</time></trkpt><trkpt lat="45.3905514" lon="10.9083498"><ele>60.0</ele><time>2026-04-26T08:08:07.808Z</time></trkpt><trkpt lat="45.3908719" lon="10.9083625"><ele>60.0</ele><time>2026-04-26T08:08:08.808Z</time></trkpt><trkpt lat="45.3911924" lon="10.9083875"><ele>60.0</ele><time>2026-04-26T08:08:09.806Z</time></trkpt><trkpt lat="45.3915127" lon="10.9084224"><ele>61.5</ele><time>2026-04-26T08:08:10.807Z</time></trkpt><trkpt lat="45.3918307" lon="10.9084657"><ele>63.0</ele><time>2026-04-26T08:08:11.807Z</time></trkpt><trkpt lat="45.3921476" lon="10.90852"><ele>63.0</ele><time>2026-04-26T08:08:12.806Z</time></trkpt><trkpt lat="45.3924643" lon="10.9085815"><ele>63.0</ele><time>2026-04-26T08:08:13.807Z</time></trkpt><trkpt lat="45.3927795" lon="10.9086495"><ele>63.0</ele><time>2026-04-26T08:08:14.806Z</time></trkpt><trkpt lat="45.3930931" lon="10.9087321"><ele>63.0</ele><time>2026-04-26T08:08:15.806Z</time></trkpt><trkpt lat="45.3934096" lon="10.9088186"><ele>63.0</ele><time>2026-04-26T08:08:16.807Z</time></trkpt><trkpt lat="45.3937191" lon="10.9089066"><ele>63.0</ele><time>2026-04-26T08:08:17.807Z</time></trkpt><trkpt lat="45.3940335" lon="10.9089949"><ele>63.5</ele><time>2026-04-26T08:08:18.806Z</time></trkpt><trkpt lat="45.3943471" lon="10.9090848"><ele>64.0</ele><time>2026-04-26T08:08:19.807Z</time></trkpt><trkpt lat="45.3946605" lon="10.9091754"><ele>64.5</ele><time>2026-04-26T08:08:20.807Z</time></trkpt><trkpt lat="45.3949741" lon="10.9092651"><ele>65.0</ele><time>2026-04-26T08:08:21.807Z</time></trkpt><trkpt lat="45.3952857" lon="10.9093558"><ele>65.0</ele><time>2026-04-26T08:08:22.807Z</time></trkpt><trkpt lat="45.3955966" lon="10.9094483"><ele>65.0</ele><time>2026-04-26T08:08:23.807Z</time></trkpt><trkpt lat="45.3959065" lon="10.9095394"><ele>65.0</ele><time>2026-04-26T08:08:24.807Z</time></trkpt><trkpt lat="45.3962165" lon="10.909632"><ele>65.0</ele><time>2026-04-26T08:08:25.806Z</time></trkpt><trkpt lat="45.396523" lon="10.9097252"><ele>66.0</ele><time>2026-04-26T08:08:26.807Z</time></trkpt><trkpt lat="45.3968286" lon="10.9098164"><ele>67.0</ele><time>2026-04-26T08:08:27.808Z</time></trkpt><trkpt lat="45.3971343" lon="10.9099041"><ele>66.5</ele><time>2026-04-26T08:08:28.808Z</time></trkpt><trkpt lat="45.3974413" lon="10.9099917"><ele>66.0</ele><time>2026-04-26T08:08:29.807Z</time></trkpt><trkpt lat="45.3977502" lon="10.9100794"><ele>65.5</ele><time>2026-04-26T08:08:30.808Z</time></trkpt><trkpt lat="45.3980584" lon="10.9101667"><ele>65.0</ele><time>2026-04-26T08:08:31.806Z</time></trkpt><trkpt lat="45.398368" lon="10.9102527"><ele>65.0</ele><time>2026-04-26T08:08:32.808Z</time></trkpt><trkpt lat="45.3986774" lon="10.9103405"><ele>65.0</ele><time>2026-04-26T08:08:33.808Z</time></trkpt><trkpt lat="45.3989881" lon="10.9104302"><ele>66.0</ele><time>2026-04-26T08:08:34.808Z</time></trkpt><trkpt lat="45.3992991" lon="10.9105199"><ele>67.0</ele><time>2026-04-26T08:08:35.807Z</time></trkpt><trkpt lat="45.3996124" lon="10.910609"><ele>66.0</ele><time>2026-04-26T08:08:36.806Z</time></trkpt><trkpt lat="45.3999244" lon="10.9106982"><ele>65.0</ele><time>2026-04-26T08:08:37.808Z</time></trkpt><trkpt lat="45.4002373" lon="10.9107873"><ele>64.5</ele><time>2026-04-26T08:08:38.807Z</time></trkpt><trkpt lat="45.4005512" lon="10.9108774"><ele>64.0</ele><time>2026-04-26T08:08:39.807Z</time></trkpt><trkpt lat="45.4008655" lon="10.9109664"><ele>64.0</ele><time>2026-04-26T08:08:40.807Z</time></trkpt><trkpt lat="45.4011822" lon="10.9110557"><ele>64.0</ele><time>2026-04-26T08:08:41.807Z</time></trkpt><trkpt lat="45.4014984" lon="10.9111442"><ele>63.5</ele><time>2026-04-26T08:08:42.808Z</time></trkpt><trkpt lat="45.4018137" lon="10.9112309"><ele>63.0</ele><time>2026-04-26T08:08:43.807Z</time></trkpt><trkpt lat="45.4021283" lon="10.9113199"><ele>64.0</ele><time>2026-04-26T08:08:44.808Z</time></trkpt><trkpt lat="45.4024422" lon="10.9114083"><ele>65.0</ele><time>2026-04-26T08:08:45.808Z</time></trkpt><trkpt lat="45.402756" lon="10.9114971"><ele>66.0</ele><time>2026-04-26T08:08:46.807Z</time></trkpt><trkpt lat="45.4030704" lon="10.9115869"><ele>67.0</ele><time>2026-04-26T08:08:47.806Z</time></trkpt><trkpt lat="45.4033834" lon="10.9116751"><ele>67.0</ele><time>2026-04-26T08:08:48.809Z</time></trkpt><trkpt lat="45.4036965" lon="10.9117641"><ele>67.0</ele><time>2026-04-26T08:08:49.807Z</time></trkpt><trkpt lat="45.4040095" lon="10.9118518"><ele>67.0</ele><time>2026-04-26T08:08:50.808Z</time></trkpt><trkpt lat="45.4043221" lon="10.911939"><ele>67.0</ele><time>2026-04-26T08:08:51.806Z</time></trkpt><trkpt lat="45.4046348" lon="10.9120262"><ele>69.0</ele><time>2026-04-26T08:08:52.806Z</time></trkpt><trkpt lat="45.4049471" lon="10.9121136"><ele>71.0</ele><time>2026-04-26T08:08:53.808Z</time></trkpt><trkpt lat="45.4052598" lon="10.9122022"><ele>71.5</ele><time>2026-04-26T08:08:54.808Z</time></trkpt><trkpt lat="45.4055716" lon="10.9122917"><ele>72.0</ele><time>2026-04-26T08:08:55.807Z</time></trkpt><trkpt lat="45.4058835" lon="10.9123794"><ele>72.0</ele><time>2026-04-26T08:08:56.808Z</time></trkpt><trkpt lat="45.4061947" lon="10.9124665"><ele>72.0</ele><time>2026-04-26T08:08:57.808Z</time></trkpt><trkpt lat="45.4065064" lon="10.9125536"><ele>71.0</ele><time>2026-04-26T08:08:58.807Z</time></trkpt><trkpt lat="45.4068179" lon="10.91264"><ele>70.0</ele><time>2026-04-26T08:08:59.808Z</time></trkpt><trkpt lat="45.407127" lon="10.9127275"><ele>72.5</ele><time>2026-04-26T08:09:00.807Z</time></trkpt><trkpt lat="45.4074325" lon="10.9128141"><ele>75.0</ele><time>2026-04-26T08:09:01.807Z</time></trkpt><trkpt lat="45.4077339" lon="10.9128983"><ele>72.5</ele><time>2026-04-26T08:09:02.807Z</time></trkpt><trkpt lat="45.4080303" lon="10.9129796"><ele>70.0</ele><time>2026-04-26T08:09:03.807Z</time></trkpt><trkpt lat="45.4083253" lon="10.9130633"><ele>70.0</ele><time>2026-04-26T08:09:04.807Z</time></trkpt><trkpt lat="45.4086175" lon="10.9131469"><ele>70.0</ele><time>2026-04-26T08:09:05.808Z</time></trkpt><trkpt lat="45.4089108" lon="10.9132328"><ele>69.5</ele><time>2026-04-26T08:09:06.808Z</time></trkpt><trkpt lat="45.4092069" lon="10.9133191"><ele>69.0</ele><time>2026-04-26T08:09:07.808Z</time></trkpt><trkpt lat="45.4095053" lon="10.9134022"><ele>69.5</ele><time>2026-04-26T08:09:08.808Z</time></trkpt><trkpt lat="45.4098048" lon="10.9134871"><ele>70.0</ele><time>2026-04-26T08:09:09.808Z</time></trkpt><trkpt lat="45.4101089" lon="10.9135712"><ele>70.0</ele><time>2026-04-26T08:09:10.808Z</time></trkpt><trkpt lat="45.4104132" lon="10.9136529"><ele>70.0</ele><time>2026-04-26T08:09:11.807Z</time></trkpt><trkpt lat="45.4107158" lon="10.9137297"><ele>71.0</ele><time>2026-04-26T08:09:12.807Z</time></trkpt><trkpt lat="45.4110185" lon="10.9138054"><ele>72.0</ele><time>2026-04-26T08:09:13.808Z</time></trkpt><trkpt lat="45.4113191" lon="10.9138807"><ele>73.0</ele><time>2026-04-26T08:09:14.808Z</time></trkpt><trkpt lat="45.4116184" lon="10.9139587"><ele>74.0</ele><time>2026-04-26T08:09:15.808Z</time></trkpt><trkpt lat="45.4119101" lon="10.9140358"><ele>74.0</ele><time>2026-04-26T08:09:16.806Z</time></trkpt><trkpt lat="45.4121919" lon="10.91411"><ele>74.0</ele><time>2026-04-26T08:09:17.808Z</time></trkpt><trkpt lat="45.4124665" lon="10.9141822"><ele>73.0</ele><time>2026-04-26T08:09:18.807Z</time></trkpt><trkpt lat="45.4127434" lon="10.9142507"><ele>72.0</ele><time>2026-04-26T08:09:19.807Z</time></trkpt><trkpt lat="45.4130219" lon="10.9143125"><ele>70.5</ele><time>2026-04-26T08:09:20.807Z</time></trkpt><trkpt lat="45.4133016" lon="10.9143693"><ele>69.0</ele><time>2026-04-26T08:09:21.808Z</time></trkpt><trkpt lat="45.4135836" lon="10.9144128"><ele>69.5</ele><time>2026-04-26T08:09:22.808Z</time></trkpt><trkpt lat="45.4138653" lon="10.9144492"><ele>70.0</ele><time>2026-04-26T08:09:23.806Z</time></trkpt><trkpt lat="45.414152" lon="10.9144788"><ele>70.0</ele><time>2026-04-26T08:09:24.808Z</time></trkpt><trkpt lat="45.4144407" lon="10.9145025"><ele>70.0</ele><time>2026-04-26T08:09:25.808Z</time></trkpt><trkpt lat="45.4147284" lon="10.9145161"><ele>72.0</ele><time>2026-04-26T08:09:26.808Z</time></trkpt><trkpt lat="45.41502" lon="10.9145131"><ele>74.0</ele><time>2026-04-26T08:09:27.807Z</time></trkpt><trkpt lat="45.4153143" lon="10.9145042"><ele>74.5</ele><time>2026-04-26T08:09:28.809Z</time></trkpt><trkpt lat="45.4156123" lon="10.9144867"><ele>75.0</ele><time>2026-04-26T08:09:29.808Z</time></trkpt><trkpt lat="45.4159118" lon="10.9144602"><ele>75.0</ele><time>2026-04-26T08:09:30.807Z</time></trkpt><trkpt lat="45.416222" lon="10.9144093"><ele>75.0</ele><time>2026-04-26T08:09:31.808Z</time></trkpt><trkpt lat="45.4165253" lon="10.9143638"><ele>75.0</ele><time>2026-04-26T08:09:32.808Z</time></trkpt><trkpt lat="45.4168308" lon="10.9143062"><ele>75.0</ele><time>2026-04-26T08:09:33.808Z</time></trkpt><trkpt lat="45.4171375" lon="10.9142355"><ele>74.5</ele><time>2026-04-26T08:09:34.806Z</time></trkpt><trkpt lat="45.4174444" lon="10.9141537"><ele>74.0</ele><time>2026-04-26T08:09:35.807Z</time></trkpt><trkpt lat="45.4177519" lon="10.9140543"><ele>74.0</ele><time>2026-04-26T08:09:36.806Z</time></trkpt><trkpt lat="45.4180614" lon="10.9139453"><ele>74.0</ele><time>2026-04-26T08:09:37.807Z</time></trkpt><trkpt lat="45.4183702" lon="10.9138272"><ele>74.0</ele><time>2026-04-26T08:09:38.806Z</time></trkpt><trkpt lat="45.4186772" lon="10.9137003"><ele>74.0</ele><time>2026-04-26T08:09:39.806Z</time></trkpt><trkpt lat="45.4189809" lon="10.9135708"><ele>73.5</ele><time>2026-04-26T08:09:40.808Z</time></trkpt><trkpt lat="45.4192821" lon="10.9134384"><ele>73.0</ele><time>2026-04-26T08:09:41.807Z</time></trkpt><trkpt lat="45.4195844" lon="10.9133045"><ele>73.0</ele><time>2026-04-26T08:09:42.807Z</time></trkpt><trkpt lat="45.4198865" lon="10.913169"><ele>73.0</ele><time>2026-04-26T08:09:43.808Z</time></trkpt><trkpt lat="45.4201888" lon="10.9130303"><ele>74.0</ele><time>2026-04-26T08:09:44.807Z</time></trkpt><trkpt lat="45.4204934" lon="10.9128887"><ele>75.0</ele><time>2026-04-26T08:09:45.807Z</time></trkpt><trkpt lat="45.4207989" lon="10.9127446"><ele>75.0</ele><time>2026-04-26T08:09:46.808Z</time></trkpt><trkpt lat="45.4211052" lon="10.912596"><ele>75.0</ele><time>2026-04-26T08:09:47.807Z</time></trkpt><trkpt lat="45.4214124" lon="10.9124478"><ele>74.5</ele><time>2026-04-26T08:09:48.807Z</time></trkpt><trkpt lat="45.4217203" lon="10.9122964"><ele>74.0</ele><time>2026-04-26T08:09:49.807Z</time></trkpt><trkpt lat="45.4220264" lon="10.9121424"><ele>73.0</ele><time>2026-04-26T08:09:50.808Z</time></trkpt><trkpt lat="45.4223354" lon="10.9119916"><ele>72.0</ele><time>2026-04-26T08:09:51.808Z</time></trkpt><trkpt lat="45.4226416" lon="10.9118389"><ele>74.0</ele><time>2026-04-26T08:09:52.808Z</time></trkpt><trkpt lat="45.4229493" lon="10.9116864"><ele>76.0</ele><time>2026-04-26T08:09:53.808Z</time></trkpt><trkpt lat="45.4232595" lon="10.9115363"><ele>76.5</ele><time>2026-04-26T08:09:54.807Z</time></trkpt><trkpt lat="45.4235696" lon="10.9113865"><ele>77.0</ele><time>2026-04-26T08:09:55.807Z</time></trkpt><trkpt lat="45.4238785" lon="10.9112367"><ele>77.0</ele><time>2026-04-26T08:09:56.808Z</time></trkpt><trkpt lat="45.4241857" lon="10.9110894"><ele>77.0</ele><time>2026-04-26T08:09:57.807Z</time></trkpt><trkpt lat="45.4244912" lon="10.9109424"><ele>81.5</ele><time>2026-04-26T08:09:58.806Z</time></trkpt><trkpt lat="45.4247982" lon="10.9107953"><ele>86.0</ele><time>2026-04-26T08:09:59.808Z</time></trkpt><trkpt lat="45.4251038" lon="10.9106471"><ele>86.0</ele><time>2026-04-26T08:10:00.808Z</time></trkpt><trkpt lat="45.4254107" lon="10.9104978"><ele>86.0</ele><time>2026-04-26T08:10:01.808Z</time></trkpt><trkpt lat="45.4257184" lon="10.910347"><ele>85.5</ele><time>2026-04-26T08:10:02.808Z</time></trkpt><trkpt lat="45.4260257" lon="10.9101959"><ele>85.0</ele><time>2026-04-26T08:10:03.808Z</time></trkpt><trkpt lat="45.4263346" lon="10.9100424"><ele>85.0</ele><time>2026-04-26T08:10:04.808Z</time></trkpt><trkpt lat="45.426644" lon="10.9098876"><ele>85.0</ele><time>2026-04-26T08:10:05.807Z</time></trkpt><trkpt lat="45.4269524" lon="10.9097318"><ele>84.0</ele><time>2026-04-26T08:10:06.806Z</time></trkpt><trkpt lat="45.427258" lon="10.9095743"><ele>83.0</ele><time>2026-04-26T08:10:07.808Z</time></trkpt><trkpt lat="45.4275635" lon="10.9094168"><ele>83.0</ele><time>2026-04-26T08:10:08.807Z</time></trkpt><trkpt lat="45.4278671" lon="10.909262"><ele>83.0</ele><time>2026-04-26T08:10:09.808Z</time></trkpt><trkpt lat="45.4281705" lon="10.9091114"><ele>82.5</ele><time>2026-04-26T08:10:10.808Z</time></trkpt><trkpt lat="45.4284743" lon="10.9089652"><ele>82.0</ele><time>2026-04-26T08:10:11.808Z</time></trkpt><trkpt lat="45.4287783" lon="10.9088218"><ele>82.0</ele><time>2026-04-26T08:10:12.806Z</time></trkpt><trkpt lat="45.4290829" lon="10.9086812"><ele>82.0</ele><time>2026-04-26T08:10:13.807Z</time></trkpt><trkpt lat="45.429388" lon="10.9085423"><ele>82.5</ele><time>2026-04-26T08:10:14.806Z</time></trkpt><trkpt lat="45.4296931" lon="10.9084024"><ele>83.0</ele><time>2026-04-26T08:10:15.807Z</time></trkpt><trkpt lat="45.429997" lon="10.9082582"><ele>83.0</ele><time>2026-04-26T08:10:16.807Z</time></trkpt><trkpt lat="45.430299" lon="10.9081091"><ele>83.0</ele><time>2026-04-26T08:10:17.807Z</time></trkpt><trkpt lat="45.4305993" lon="10.9079562"><ele>84.0</ele><time>2026-04-26T08:10:18.808Z</time></trkpt><trkpt lat="45.4308977" lon="10.9077941"><ele>85.0</ele><time>2026-04-26T08:10:19.807Z</time></trkpt><trkpt lat="45.4311923" lon="10.9076245"><ele>83.5</ele><time>2026-04-26T08:10:20.807Z</time></trkpt><trkpt lat="45.4314822" lon="10.907446"><ele>82.0</ele><time>2026-04-26T08:10:21.807Z</time></trkpt><trkpt lat="45.4317674" lon="10.9072574"><ele>82.0</ele><time>2026-04-26T08:10:22.807Z</time></trkpt><trkpt lat="45.4320503" lon="10.9070614"><ele>82.0</ele><time>2026-04-26T08:10:23.807Z</time></trkpt><trkpt lat="45.4323336" lon="10.9068612"><ele>84.0</ele><time>2026-04-26T08:10:24.806Z</time></trkpt><trkpt lat="45.4326171" lon="10.9066561"><ele>86.0</ele><time>2026-04-26T08:10:25.808Z</time></trkpt><trkpt lat="45.4328996" lon="10.9064454"><ele>87.0</ele><time>2026-04-26T08:10:26.808Z</time></trkpt><trkpt lat="45.4331803" lon="10.906228"><ele>88.0</ele><time>2026-04-26T08:10:27.808Z</time></trkpt><trkpt lat="45.4334586" lon="10.906004"><ele>88.5</ele><time>2026-04-26T08:10:28.807Z</time></trkpt><trkpt lat="45.433734" lon="10.9057736"><ele>89.0</ele><time>2026-04-26T08:10:29.807Z</time></trkpt><trkpt lat="45.4340073" lon="10.9055355"><ele>89.0</ele><time>2026-04-26T08:10:30.807Z</time></trkpt><trkpt lat="45.4342777" lon="10.90529"><ele>89.0</ele><time>2026-04-26T08:10:31.807Z</time></trkpt><trkpt lat="45.4345427" lon="10.9050329"><ele>89.5</ele><time>2026-04-26T08:10:32.807Z</time></trkpt><trkpt lat="45.4348065" lon="10.9047722"><ele>90.0</ele><time>2026-04-26T08:10:33.807Z</time></trkpt><trkpt lat="45.4350676" lon="10.9045072"><ele>89.5</ele><time>2026-04-26T08:10:34.807Z</time></trkpt><trkpt lat="45.4353278" lon="10.904234"><ele>89.0</ele><time>2026-04-26T08:10:35.808Z</time></trkpt><trkpt lat="45.4355867" lon="10.9039545"><ele>89.0</ele><time>2026-04-26T08:10:36.807Z</time></trkpt><trkpt lat="45.4358418" lon="10.9036664"><ele>89.0</ele><time>2026-04-26T08:10:37.807Z</time></trkpt><trkpt lat="45.4360929" lon="10.9033702"><ele>89.0</ele><time>2026-04-26T08:10:38.807Z</time></trkpt><trkpt lat="45.4363415" lon="10.903067"><ele>89.0</ele><time>2026-04-26T08:10:39.806Z</time></trkpt><trkpt lat="45.4365885" lon="10.9027558"><ele>90.0</ele><time>2026-04-26T08:10:40.808Z</time></trkpt><trkpt lat="45.4368333" lon="10.9024389"><ele>91.0</ele><time>2026-04-26T08:10:41.807Z</time></trkpt><trkpt lat="45.4370779" lon="10.9021178"><ele>91.0</ele><time>2026-04-26T08:10:42.807Z</time></trkpt><trkpt lat="45.4373191" lon="10.9017913"><ele>91.0</ele><time>2026-04-26T08:10:43.807Z</time></trkpt><trkpt lat="45.4375551" lon="10.9014607"><ele>91.0</ele><time>2026-04-26T08:10:44.808Z</time></trkpt><trkpt lat="45.437788" lon="10.9011255"><ele>91.0</ele><time>2026-04-26T08:10:45.807Z</time></trkpt><trkpt lat="45.4380157" lon="10.9007888"><ele>90.5</ele><time>2026-04-26T08:10:46.808Z</time></trkpt><trkpt lat="45.4382419" lon="10.9004544"><ele>90.0</ele><time>2026-04-26T08:10:47.808Z</time></trkpt><trkpt lat="45.4384663" lon="10.9001236"><ele>90.5</ele><time>2026-04-26T08:10:48.807Z</time></trkpt><trkpt lat="45.4386879" lon="10.8997963"><ele>91.0</ele><time>2026-04-26T08:10:49.807Z</time></trkpt><trkpt lat="45.4389086" lon="10.89947"><ele>91.5</ele><time>2026-04-26T08:10:50.808Z</time></trkpt><trkpt lat="45.4391274" lon="10.8991433"><ele>92.0</ele><time>2026-04-26T08:10:51.808Z</time></trkpt><trkpt lat="45.4393429" lon="10.8988207"><ele>92.0</ele><time>2026-04-26T08:10:52.807Z</time></trkpt><trkpt lat="45.4395576" lon="10.8984976"><ele>92.0</ele><time>2026-04-26T08:10:53.807Z</time></trkpt><trkpt lat="45.4397719" lon="10.8981759"><ele>91.5</ele><time>2026-04-26T08:10:54.807Z</time></trkpt><trkpt lat="45.4399857" lon="10.8978546"><ele>91.0</ele><time>2026-04-26T08:10:55.807Z</time></trkpt><trkpt lat="45.4401999" lon="10.8975356"><ele>91.0</ele><time>2026-04-26T08:10:56.808Z</time></trkpt><trkpt lat="45.440414" lon="10.8972182"><ele>91.0</ele><time>2026-04-26T08:10:57.808Z</time></trkpt><trkpt lat="45.4406285" lon="10.896902"><ele>91.0</ele><time>2026-04-26T08:10:58.806Z</time></trkpt><trkpt lat="45.4408438" lon="10.8965891"><ele>91.0</ele><time>2026-04-26T08:10:59.808Z</time></trkpt><trkpt lat="45.4410581" lon="10.896274"><ele>91.0</ele><time>2026-04-26T08:11:00.808Z</time></trkpt><trkpt lat="45.4412719" lon="10.895956"><ele>91.0</ele><time>2026-04-26T08:11:01.807Z</time></trkpt><trkpt lat="45.4414868" lon="10.8956382"><ele>91.0</ele><time>2026-04-26T08:11:02.806Z</time></trkpt><trkpt lat="45.4417013" lon="10.8953193"><ele>91.0</ele><time>2026-04-26T08:11:03.806Z</time></trkpt><trkpt lat="45.4419156" lon="10.8949998"><ele>90.5</ele><time>2026-04-26T08:11:04.807Z</time></trkpt><trkpt lat="45.4421291" lon="10.8946809"><ele>90.0</ele><time>2026-04-26T08:11:05.808Z</time></trkpt><trkpt lat="45.4423433" lon="10.8943608"><ele>90.0</ele><time>2026-04-26T08:11:06.808Z</time></trkpt><trkpt lat="45.4425574" lon="10.8940398"><ele>90.0</ele><time>2026-04-26T08:11:07.807Z</time></trkpt><trkpt lat="45.4427725" lon="10.8937195"><ele>90.0</ele><time>2026-04-26T08:11:08.806Z</time></trkpt><trkpt lat="45.4429883" lon="10.8933984"><ele>90.0</ele><time>2026-04-26T08:11:09.806Z</time></trkpt><trkpt lat="45.4432043" lon="10.8930778"><ele>90.0</ele><time>2026-04-26T08:11:10.807Z</time></trkpt><trkpt lat="45.4434209" lon="10.8927575"><ele>90.0</ele><time>2026-04-26T08:11:11.808Z</time></trkpt><trkpt lat="45.4436374" lon="10.8924375"><ele>91.0</ele><time>2026-04-26T08:11:12.807Z</time></trkpt><trkpt lat="45.4438546" lon="10.8921168"><ele>92.0</ele><time>2026-04-26T08:11:13.808Z</time></trkpt><trkpt lat="45.4440709" lon="10.8917957"><ele>92.0</ele><time>2026-04-26T08:11:14.806Z</time></trkpt><trkpt lat="45.4442902" lon="10.8914722"><ele>92.0</ele><time>2026-04-26T08:11:15.807Z</time></trkpt><trkpt lat="45.4445093" lon="10.8911466"><ele>92.5</ele><time>2026-04-26T08:11:16.807Z</time></trkpt><trkpt lat="45.4447292" lon="10.8908197"><ele>93.0</ele><time>2026-04-26T08:11:17.807Z</time></trkpt><trkpt lat="45.4449483" lon="10.8904908"><ele>93.0</ele><time>2026-04-26T08:11:18.807Z</time></trkpt><trkpt lat="45.4451688" lon="10.8901612"><ele>93.0</ele><time>2026-04-26T08:11:19.808Z</time></trkpt><trkpt lat="45.4453877" lon="10.889832"><ele>93.0</ele><time>2026-04-26T08:11:20.808Z</time></trkpt><trkpt lat="45.4456008" lon="10.8895102"><ele>93.0</ele><time>2026-04-26T08:11:21.807Z</time></trkpt><trkpt lat="45.4458098" lon="10.8891957"><ele>93.0</ele><time>2026-04-26T08:11:22.807Z</time></trkpt><trkpt lat="45.4460159" lon="10.8888848"><ele>93.0</ele><time>2026-04-26T08:11:23.807Z</time></trkpt><trkpt lat="45.4462178" lon="10.8885751"><ele>94.0</ele><time>2026-04-26T08:11:24.808Z</time></trkpt><trkpt lat="45.4464115" lon="10.8882747"><ele>95.0</ele><time>2026-04-26T08:11:25.808Z</time></trkpt><trkpt lat="45.4466027" lon="10.8879772"><ele>95.0</ele><time>2026-04-26T08:11:26.807Z</time></trkpt><trkpt lat="45.4467908" lon="10.8876789"><ele>95.0</ele><time>2026-04-26T08:11:27.808Z</time></trkpt><trkpt lat="45.4469788" lon="10.8873753"><ele>94.5</ele><time>2026-04-26T08:11:28.807Z</time></trkpt><trkpt lat="45.4471609" lon="10.8870722"><ele>94.0</ele><time>2026-04-26T08:11:29.808Z</time></trkpt><trkpt lat="45.4473419" lon="10.8867623"><ele>94.5</ele><time>2026-04-26T08:11:30.806Z</time></trkpt><trkpt lat="45.4475226" lon="10.886449"><ele>95.0</ele><time>2026-04-26T08:11:31.807Z</time></trkpt><trkpt lat="45.4477017" lon="10.8861313"><ele>95.0</ele><time>2026-04-26T08:11:32.808Z</time></trkpt><trkpt lat="45.4478799" lon="10.8858097"><ele>95.0</ele><time>2026-04-26T08:11:33.808Z</time></trkpt><trkpt lat="45.4480544" lon="10.8854802"><ele>96.0</ele><time>2026-04-26T08:11:34.808Z</time></trkpt><trkpt lat="45.4482243" lon="10.8851412"><ele>97.0</ele><time>2026-04-26T08:11:35.807Z</time></trkpt><trkpt lat="45.4483887" lon="10.8847921"><ele>97.0</ele><time>2026-04-26T08:11:36.807Z</time></trkpt><trkpt lat="45.4485471" lon="10.8844355"><ele>97.0</ele><time>2026-04-26T08:11:37.808Z</time></trkpt><trkpt lat="45.4487005" lon="10.8840727"><ele>95.5</ele><time>2026-04-26T08:11:38.808Z</time></trkpt><trkpt lat="45.4488497" lon="10.8837044"><ele>94.0</ele><time>2026-04-26T08:11:39.807Z</time></trkpt><trkpt lat="45.4489938" lon="10.8833303"><ele>94.0</ele><time>2026-04-26T08:11:40.808Z</time></trkpt><trkpt lat="45.4491333" lon="10.8829505"><ele>94.0</ele><time>2026-04-26T08:11:41.808Z</time></trkpt><trkpt lat="45.449267" lon="10.8825653"><ele>94.0</ele><time>2026-04-26T08:11:42.808Z</time></trkpt><trkpt lat="45.4493939" lon="10.8821799"><ele>94.0</ele><time>2026-04-26T08:11:43.808Z</time></trkpt><trkpt lat="45.4495129" lon="10.8817975"><ele>96.5</ele><time>2026-04-26T08:11:44.807Z</time></trkpt><trkpt lat="45.4496254" lon="10.8814141"><ele>99.0</ele><time>2026-04-26T08:11:45.806Z</time></trkpt><trkpt lat="45.4497303" lon="10.8810393"><ele>100.0</ele><time>2026-04-26T08:11:46.806Z</time></trkpt><trkpt lat="45.4498289" lon="10.8806695"><ele>101.0</ele><time>2026-04-26T08:11:47.808Z</time></trkpt><trkpt lat="45.4499214" lon="10.8803051"><ele>100.5</ele><time>2026-04-26T08:11:48.806Z</time></trkpt><trkpt lat="45.450009" lon="10.8799511"><ele>100.0</ele><time>2026-04-26T08:11:49.806Z</time></trkpt><trkpt lat="45.450094" lon="10.8796121"><ele>100.0</ele><time>2026-04-26T08:11:50.807Z</time></trkpt><trkpt lat="45.4501774" lon="10.8792729"><ele>100.0</ele><time>2026-04-26T08:11:51.807Z</time></trkpt><trkpt lat="45.4502587" lon="10.8789308"><ele>99.5</ele><time>2026-04-26T08:11:52.807Z</time></trkpt><trkpt lat="45.4503387" lon="10.8785862"><ele>99.0</ele><time>2026-04-26T08:11:53.807Z</time></trkpt><trkpt lat="45.4504202" lon="10.8782431"><ele>99.5</ele><time>2026-04-26T08:11:54.807Z</time></trkpt><trkpt lat="45.4505043" lon="10.8778958"><ele>100.0</ele><time>2026-04-26T08:11:55.807Z</time></trkpt><trkpt lat="45.4505885" lon="10.8775426"><ele>101.5</ele><time>2026-04-26T08:11:56.808Z</time></trkpt><trkpt lat="45.4506717" lon="10.877174"><ele>103.0</ele><time>2026-04-26T08:11:57.806Z</time></trkpt><trkpt lat="45.4507545" lon="10.8767944"><ele>103.0</ele><time>2026-04-26T08:11:58.806Z</time></trkpt><trkpt lat="45.4508376" lon="10.8764104"><ele>103.0</ele><time>2026-04-26T08:11:59.807Z</time></trkpt><trkpt lat="45.450923" lon="10.8760218"><ele>102.0</ele><time>2026-04-26T08:12:00.808Z</time></trkpt><trkpt lat="45.4510106" lon="10.8756327"><ele>101.0</ele><time>2026-04-26T08:12:01.807Z</time></trkpt><trkpt lat="45.4511005" lon="10.8752398"><ele>101.5</ele><time>2026-04-26T08:12:02.807Z</time></trkpt><trkpt lat="45.4511935" lon="10.8748458"><ele>102.0</ele><time>2026-04-26T08:12:03.806Z</time></trkpt><trkpt lat="45.4512877" lon="10.8744511"><ele>102.5</ele><time>2026-04-26T08:12:04.807Z</time></trkpt><trkpt lat="45.451382" lon="10.874055"><ele>103.0</ele><time>2026-04-26T08:12:05.807Z</time></trkpt><trkpt lat="45.4514772" lon="10.8736562"><ele>103.5</ele><time>2026-04-26T08:12:06.808Z</time></trkpt><trkpt lat="45.451572" lon="10.8732529"><ele>104.0</ele><time>2026-04-26T08:12:07.808Z</time></trkpt><trkpt lat="45.4516668" lon="10.8728426"><ele>104.0</ele><time>2026-04-26T08:12:08.807Z</time></trkpt><trkpt lat="45.4517632" lon="10.872427"><ele>104.0</ele><time>2026-04-26T08:12:09.807Z</time></trkpt><trkpt lat="45.4518627" lon="10.8720066"><ele>104.0</ele><time>2026-04-26T08:12:10.807Z</time></trkpt><trkpt lat="45.4519636" lon="10.8715814"><ele>104.0</ele><time>2026-04-26T08:12:11.808Z</time></trkpt><trkpt lat="45.4520672" lon="10.8711513"><ele>104.0</ele><time>2026-04-26T08:12:12.806Z</time></trkpt><trkpt lat="45.4521727" lon="10.8707162"><ele>104.0</ele><time>2026-04-26T08:12:13.807Z</time></trkpt><trkpt lat="45.4522774" lon="10.8702782"><ele>103.5</ele><time>2026-04-26T08:12:14.806Z</time></trkpt><trkpt lat="45.4523803" lon="10.8698401"><ele>103.0</ele><time>2026-04-26T08:12:15.808Z</time></trkpt><trkpt lat="45.4524821" lon="10.8694069"><ele>103.0</ele><time>2026-04-26T08:12:16.807Z</time></trkpt><trkpt lat="45.4525816" lon="10.8689758"><ele>103.0</ele><time>2026-04-26T08:12:17.806Z</time></trkpt><trkpt lat="45.4526794" lon="10.8685486"><ele>103.0</ele><time>2026-04-26T08:12:18.807Z</time></trkpt><trkpt lat="45.4527779" lon="10.8681243"><ele>103.0</ele><time>2026-04-26T08:12:19.808Z</time></trkpt><trkpt lat="45.4528743" lon="10.867704"><ele>104.0</ele><time>2026-04-26T08:12:20.808Z</time></trkpt><trkpt lat="45.4529682" lon="10.8672849"><ele>105.0</ele><time>2026-04-26T08:12:21.807Z</time></trkpt><trkpt lat="45.4530573" lon="10.8668626"><ele>104.5</ele><time>2026-04-26T08:12:22.807Z</time></trkpt><trkpt lat="45.4531417" lon="10.8664386"><ele>104.0</ele><time>2026-04-26T08:12:23.807Z</time></trkpt><trkpt lat="45.4532255" lon="10.8660124"><ele>103.0</ele><time>2026-04-26T08:12:24.807Z</time></trkpt><trkpt lat="45.4533054" lon="10.8655835"><ele>102.0</ele><time>2026-04-26T08:12:25.808Z</time></trkpt><trkpt lat="45.4533836" lon="10.8651506"><ele>102.5</ele><time>2026-04-26T08:12:26.807Z</time></trkpt><trkpt lat="45.4534634" lon="10.8647176"><ele>103.0</ele><time>2026-04-26T08:12:27.807Z</time></trkpt><trkpt lat="45.4535447" lon="10.8642847"><ele>103.5</ele><time>2026-04-26T08:12:28.808Z</time></trkpt><trkpt lat="45.4536283" lon="10.8638525"><ele>104.0</ele><time>2026-04-26T08:12:29.807Z</time></trkpt><trkpt lat="45.4537128" lon="10.8634204"><ele>105.0</ele><time>2026-04-26T08:12:30.807Z</time></trkpt><trkpt lat="45.4537958" lon="10.8629892"><ele>106.0</ele><time>2026-04-26T08:12:31.808Z</time></trkpt><trkpt lat="45.4538807" lon="10.8625572"><ele>107.0</ele><time>2026-04-26T08:12:32.808Z</time></trkpt><trkpt lat="45.4539667" lon="10.8621256"><ele>108.0</ele><time>2026-04-26T08:12:33.808Z</time></trkpt><trkpt lat="45.4540537" lon="10.8616977"><ele>108.0</ele><time>2026-04-26T08:12:34.808Z</time></trkpt><trkpt lat="45.4541397" lon="10.8612655"><ele>108.0</ele><time>2026-04-26T08:12:35.807Z</time></trkpt><trkpt lat="45.4542256" lon="10.8608401"><ele>108.0</ele><time>2026-04-26T08:12:36.807Z</time></trkpt><trkpt lat="45.4543094" lon="10.8604126"><ele>108.0</ele><time>2026-04-26T08:12:37.808Z</time></trkpt><trkpt lat="45.4543913" lon="10.859989"><ele>107.5</ele><time>2026-04-26T08:12:38.807Z</time></trkpt><trkpt lat="45.4544707" lon="10.8595702"><ele>107.0</ele><time>2026-04-26T08:12:39.808Z</time></trkpt><trkpt lat="45.4545477" lon="10.8591558"><ele>107.0</ele><time>2026-04-26T08:12:40.807Z</time></trkpt><trkpt lat="45.4546237" lon="10.8587489"><ele>107.0</ele><time>2026-04-26T08:12:41.808Z</time></trkpt><trkpt lat="45.4546994" lon="10.8583443"><ele>107.0</ele><time>2026-04-26T08:12:42.807Z</time></trkpt><trkpt lat="45.4547769" lon="10.8579431"><ele>107.0</ele><time>2026-04-26T08:12:43.806Z</time></trkpt><trkpt lat="45.4548545" lon="10.8575428"><ele>107.5</ele><time>2026-04-26T08:12:44.808Z</time></trkpt><trkpt lat="45.4549318" lon="10.8571444"><ele>108.0</ele><time>2026-04-26T08:12:45.806Z</time></trkpt><trkpt lat="45.4550072" lon="10.856746"><ele>108.5</ele><time>2026-04-26T08:12:46.807Z</time></trkpt><trkpt lat="45.4550826" lon="10.856345"><ele>109.0</ele><time>2026-04-26T08:12:47.808Z</time></trkpt><trkpt lat="45.4551588" lon="10.8559431"><ele>110.0</ele><time>2026-04-26T08:12:48.807Z</time></trkpt><trkpt lat="45.4552354" lon="10.8555423"><ele>111.0</ele><time>2026-04-26T08:12:49.806Z</time></trkpt><trkpt lat="45.4553114" lon="10.8551407"><ele>110.0</ele><time>2026-04-26T08:12:50.808Z</time></trkpt><trkpt lat="45.4553895" lon="10.8547393"><ele>109.0</ele><time>2026-04-26T08:12:51.808Z</time></trkpt><trkpt lat="45.4554665" lon="10.8543371"><ele>108.5</ele><time>2026-04-26T08:12:52.807Z</time></trkpt><trkpt lat="45.4555427" lon="10.8539345"><ele>108.0</ele><time>2026-04-26T08:12:53.807Z</time></trkpt><trkpt lat="45.4556186" lon="10.853531"><ele>108.5</ele><time>2026-04-26T08:12:54.807Z</time></trkpt><trkpt lat="45.4556934" lon="10.853128"><ele>109.0</ele><time>2026-04-26T08:12:55.808Z</time></trkpt><trkpt lat="45.4557666" lon="10.8527244"><ele>109.0</ele><time>2026-04-26T08:12:56.808Z</time></trkpt><trkpt lat="45.4558399" lon="10.8523194"><ele>109.0</ele><time>2026-04-26T08:12:57.808Z</time></trkpt><trkpt lat="45.4559144" lon="10.8519122"><ele>110.0</ele><time>2026-04-26T08:12:58.807Z</time></trkpt><trkpt lat="45.4559937" lon="10.8515018"><ele>111.0</ele><time>2026-04-26T08:12:59.807Z</time></trkpt><trkpt lat="45.4560733" lon="10.8510874"><ele>111.5</ele><time>2026-04-26T08:13:00.807Z</time></trkpt><trkpt lat="45.4561533" lon="10.850675"><ele>112.0</ele><time>2026-04-26T08:13:01.808Z</time></trkpt><trkpt lat="45.4562369" lon="10.8502596"><ele>111.0</ele><time>2026-04-26T08:13:02.807Z</time></trkpt><trkpt lat="45.4563199" lon="10.8498397"><ele>110.0</ele><time>2026-04-26T08:13:03.808Z</time></trkpt><trkpt lat="45.4564013" lon="10.8494036"><ele>111.0</ele><time>2026-04-26T08:13:04.807Z</time></trkpt><trkpt lat="45.4564843" lon="10.8489662"><ele>112.0</ele><time>2026-04-26T08:13:05.807Z</time></trkpt><trkpt lat="45.4565658" lon="10.8485233"><ele>110.5</ele><time>2026-04-26T08:13:06.807Z</time></trkpt><trkpt lat="45.4566498" lon="10.84808"><ele>109.0</ele><time>2026-04-26T08:13:07.807Z</time></trkpt><trkpt lat="45.456733" lon="10.8476363"><ele>109.0</ele><time>2026-04-26T08:13:08.808Z</time></trkpt><trkpt lat="45.4568173" lon="10.8471937"><ele>109.0</ele><time>2026-04-26T08:13:09.807Z</time></trkpt><trkpt lat="45.4569022" lon="10.8467525"><ele>110.0</ele><time>2026-04-26T08:13:10.808Z</time></trkpt><trkpt lat="45.4569915" lon="10.8463136"><ele>111.0</ele><time>2026-04-26T08:13:11.807Z</time></trkpt><trkpt lat="45.4570854" lon="10.8458799"><ele>112.0</ele><time>2026-04-26T08:13:12.807Z</time></trkpt><trkpt lat="45.45718" lon="10.8454444"><ele>113.0</ele><time>2026-04-26T08:13:13.808Z</time></trkpt><trkpt lat="45.4572835" lon="10.8450197"><ele>113.0</ele><time>2026-04-26T08:13:14.808Z</time></trkpt><trkpt lat="45.457388" lon="10.8445999"><ele>113.0</ele><time>2026-04-26T08:13:15.808Z</time></trkpt><trkpt lat="45.4574946" lon="10.8441855"><ele>113.0</ele><time>2026-04-26T08:13:16.807Z</time></trkpt><trkpt lat="45.4576043" lon="10.8437762"><ele>113.0</ele><time>2026-04-26T08:13:17.806Z</time></trkpt><trkpt lat="45.4577186" lon="10.8433673"><ele>113.0</ele><time>2026-04-26T08:13:18.808Z</time></trkpt><trkpt lat="45.4578345" lon="10.8429599"><ele>113.0</ele><time>2026-04-26T08:13:19.808Z</time></trkpt><trkpt lat="45.4579504" lon="10.84256"><ele>113.0</ele><time>2026-04-26T08:13:20.807Z</time></trkpt><trkpt lat="45.4580678" lon="10.8421631"><ele>113.0</ele><time>2026-04-26T08:13:21.807Z</time></trkpt><trkpt lat="45.4581864" lon="10.8417723"><ele>112.5</ele><time>2026-04-26T08:13:22.806Z</time></trkpt><trkpt lat="45.4583077" lon="10.8413872"><ele>112.0</ele><time>2026-04-26T08:13:23.808Z</time></trkpt><trkpt lat="45.4584318" lon="10.8410079"><ele>112.5</ele><time>2026-04-26T08:13:24.808Z</time></trkpt><trkpt lat="45.4585595" lon="10.8406323"><ele>113.0</ele><time>2026-04-26T08:13:25.807Z</time></trkpt><trkpt lat="45.4586913" lon="10.8402609"><ele>114.5</ele><time>2026-04-26T08:13:26.807Z</time></trkpt><trkpt lat="45.4588255" lon="10.8398914"><ele>116.0</ele><time>2026-04-26T08:13:27.807Z</time></trkpt><trkpt lat="45.4589588" lon="10.839523"><ele>117.0</ele><time>2026-04-26T08:13:28.807Z</time></trkpt><trkpt lat="45.4590938" lon="10.839155"><ele>118.0</ele><time>2026-04-26T08:13:29.807Z</time></trkpt><trkpt lat="45.4592324" lon="10.838786"><ele>119.5</ele><time>2026-04-26T08:13:30.808Z</time></trkpt><trkpt lat="45.4593764" lon="10.8384174"><ele>121.0</ele><time>2026-04-26T08:13:31.808Z</time></trkpt><trkpt lat="45.4595259" lon="10.8380506"><ele>119.5</ele><time>2026-04-26T08:13:32.807Z</time></trkpt><trkpt lat="45.4596804" lon="10.8376831"><ele>118.0</ele><time>2026-04-26T08:13:33.807Z</time></trkpt><trkpt lat="45.4598398" lon="10.8373156"><ele>121.0</ele><time>2026-04-26T08:13:34.808Z</time></trkpt><trkpt lat="45.4600025" lon="10.8369472"><ele>124.0</ele><time>2026-04-26T08:13:35.806Z</time></trkpt><trkpt lat="45.4601669" lon="10.8365769"><ele>124.0</ele><time>2026-04-26T08:13:36.808Z</time></trkpt><trkpt lat="45.4603339" lon="10.8362059"><ele>124.0</ele><time>2026-04-26T08:13:37.807Z</time></trkpt><trkpt lat="45.4605006" lon="10.8358332"><ele>123.5</ele><time>2026-04-26T08:13:38.807Z</time></trkpt><trkpt lat="45.4606672" lon="10.835457"><ele>123.0</ele><time>2026-04-26T08:13:39.808Z</time></trkpt><trkpt lat="45.4608315" lon="10.8350794"><ele>124.5</ele><time>2026-04-26T08:13:40.808Z</time></trkpt><trkpt lat="45.4609953" lon="10.8347026"><ele>126.0</ele><time>2026-04-26T08:13:41.807Z</time></trkpt><trkpt lat="45.461158" lon="10.8343251"><ele>127.5</ele><time>2026-04-26T08:13:42.807Z</time></trkpt><trkpt lat="45.4613182" lon="10.8339514"><ele>129.0</ele><time>2026-04-26T08:13:43.806Z</time></trkpt><trkpt lat="45.4614807" lon="10.8335785"><ele>130.0</ele><time>2026-04-26T08:13:44.808Z</time></trkpt><trkpt lat="45.4616417" lon="10.8332061"><ele>131.0</ele><time>2026-04-26T08:13:45.807Z</time></trkpt><trkpt lat="45.4618056" lon="10.8328352"><ele>131.5</ele><time>2026-04-26T08:13:46.806Z</time></trkpt><trkpt lat="45.461971" lon="10.8324648"><ele>132.0</ele><time>2026-04-26T08:13:47.806Z</time></trkpt><trkpt lat="45.4621394" lon="10.8320998"><ele>131.5</ele><time>2026-04-26T08:13:48.806Z</time></trkpt><trkpt lat="45.4623051" lon="10.8317351"><ele>131.0</ele><time>2026-04-26T08:13:49.807Z</time></trkpt><trkpt lat="45.4624681" lon="10.8313737"><ele>131.0</ele><time>2026-04-26T08:13:50.806Z</time></trkpt><trkpt lat="45.4626319" lon="10.8310099"><ele>131.0</ele><time>2026-04-26T08:13:51.805Z</time></trkpt><trkpt lat="45.4627968" lon="10.8306481"><ele>132.5</ele><time>2026-04-26T08:13:52.806Z</time></trkpt><trkpt lat="45.4629619" lon="10.830288"><ele>134.0</ele><time>2026-04-26T08:13:53.806Z</time></trkpt><trkpt lat="45.4631275" lon="10.829928"><ele>135.0</ele><time>2026-04-26T08:13:54.807Z</time></trkpt><trkpt lat="45.4632956" lon="10.82957"><ele>136.0</ele><time>2026-04-26T08:13:55.806Z</time></trkpt><trkpt lat="45.46346" lon="10.829213"><ele>136.0</ele><time>2026-04-26T08:13:56.806Z</time></trkpt><trkpt lat="45.4636244" lon="10.8288552"><ele>136.0</ele><time>2026-04-26T08:13:57.807Z</time></trkpt><trkpt lat="45.4637864" lon="10.8284979"><ele>137.0</ele><time>2026-04-26T08:13:58.806Z</time></trkpt><trkpt lat="45.4639469" lon="10.828139"><ele>138.0</ele><time>2026-04-26T08:13:59.805Z</time></trkpt><trkpt lat="45.4641062" lon="10.8277809"><ele>139.0</ele><time>2026-04-26T08:14:00.806Z</time></trkpt><trkpt lat="45.4642668" lon="10.8274225"><ele>140.0</ele><time>2026-04-26T08:14:01.807Z</time></trkpt><trkpt lat="45.4644276" lon="10.8270639"><ele>140.5</ele><time>2026-04-26T08:14:02.807Z</time></trkpt><trkpt lat="45.4645873" lon="10.8267047"><ele>141.0</ele><time>2026-04-26T08:14:03.805Z</time></trkpt><trkpt lat="45.4647492" lon="10.8263389"><ele>142.5</ele><time>2026-04-26T08:14:04.807Z</time></trkpt><trkpt lat="45.4649095" lon="10.8259729"><ele>144.0</ele><time>2026-04-26T08:14:05.807Z</time></trkpt><trkpt lat="45.4650675" lon="10.8256029"><ele>144.0</ele><time>2026-04-26T08:14:06.807Z</time></trkpt><trkpt lat="45.4652255" lon="10.8252326"><ele>144.0</ele><time>2026-04-26T08:14:07.807Z</time></trkpt><trkpt lat="45.4653848" lon="10.82486"><ele>144.0</ele><time>2026-04-26T08:14:08.806Z</time></trkpt><trkpt lat="45.4655458" lon="10.8244861"><ele>144.0</ele><time>2026-04-26T08:14:09.806Z</time></trkpt><trkpt lat="45.4657095" lon="10.824114"><ele>145.0</ele><time>2026-04-26T08:14:10.805Z</time></trkpt><trkpt lat="45.4658771" lon="10.8237449"><ele>146.0</ele><time>2026-04-26T08:14:11.806Z</time></trkpt><trkpt lat="45.4660441" lon="10.823376"><ele>147.0</ele><time>2026-04-26T08:14:12.806Z</time></trkpt><trkpt lat="45.4662109" lon="10.823008"><ele>148.0</ele><time>2026-04-26T08:14:13.806Z</time></trkpt><trkpt lat="45.466379" lon="10.8226359"><ele>149.5</ele><time>2026-04-26T08:14:14.806Z</time></trkpt><trkpt lat="45.4665448" lon="10.8222629"><ele>151.0</ele><time>2026-04-26T08:14:15.805Z</time></trkpt><trkpt lat="45.4667096" lon="10.8218877"><ele>152.5</ele><time>2026-04-26T08:14:16.806Z</time></trkpt><trkpt lat="45.4668752" lon="10.8215137"><ele>154.0</ele><time>2026-04-26T08:14:17.807Z</time></trkpt><trkpt lat="45.4670411" lon="10.8211383"><ele>153.5</ele><time>2026-04-26T08:14:18.806Z</time></trkpt><trkpt lat="45.4672101" lon="10.8207646"><ele>153.0</ele><time>2026-04-26T08:14:19.807Z</time></trkpt><trkpt lat="45.4673818" lon="10.8203909"><ele>156.0</ele><time>2026-04-26T08:14:20.807Z</time></trkpt><trkpt lat="45.4675522" lon="10.8200166"><ele>159.0</ele><time>2026-04-26T08:14:21.806Z</time></trkpt><trkpt lat="45.4677234" lon="10.819642"><ele>158.5</ele><time>2026-04-26T08:14:22.806Z</time></trkpt><trkpt lat="45.4678927" lon="10.8192647"><ele>158.0</ele><time>2026-04-26T08:14:23.807Z</time></trkpt><trkpt lat="45.4680613" lon="10.8188867"><ele>158.0</ele><time>2026-04-26T08:14:24.806Z</time></trkpt><trkpt lat="45.4682313" lon="10.8185111"><ele>158.0</ele><time>2026-04-26T08:14:25.806Z</time></trkpt><trkpt lat="45.4684062" lon="10.8181356"><ele>158.5</ele><time>2026-04-26T08:14:26.806Z</time></trkpt><trkpt lat="45.4685842" lon="10.8177679"><ele>159.0</ele><time>2026-04-26T08:14:27.807Z</time></trkpt><trkpt lat="45.4687703" lon="10.8174028"><ele>162.5</ele><time>2026-04-26T08:14:28.806Z</time></trkpt><trkpt lat="45.468962" lon="10.8170454"><ele>166.0</ele><time>2026-04-26T08:14:29.807Z</time></trkpt><trkpt lat="45.4691612" lon="10.8166939"><ele>168.0</ele><time>2026-04-26T08:14:30.805Z</time></trkpt><trkpt lat="45.4693727" lon="10.8163548"><ele>170.0</ele><time>2026-04-26T08:14:31.806Z</time></trkpt><trkpt lat="45.4695917" lon="10.8160255"><ele>173.5</ele><time>2026-04-26T08:14:32.807Z</time></trkpt><trkpt lat="45.4698214" lon="10.8156921"><ele>177.0</ele><time>2026-04-26T08:14:33.805Z</time></trkpt><trkpt lat="45.4700559" lon="10.8153708"><ele>176.5</ele><time>2026-04-26T08:14:34.806Z</time></trkpt><trkpt lat="45.470294" lon="10.8150633"><ele>176.0</ele><time>2026-04-26T08:14:35.807Z</time></trkpt><trkpt lat="45.4705371" lon="10.814772"><ele>177.5</ele><time>2026-04-26T08:14:36.807Z</time></trkpt><trkpt lat="45.4707843" lon="10.8144909"><ele>179.0</ele><time>2026-04-26T08:14:37.807Z</time></trkpt><trkpt lat="45.4710366" lon="10.81422"><ele>182.0</ele><time>2026-04-26T08:14:38.806Z</time></trkpt><trkpt lat="45.4712957" lon="10.8139579"><ele>185.0</ele><time>2026-04-26T08:14:39.807Z</time></trkpt><trkpt lat="45.4715611" lon="10.8137029"><ele>184.5</ele><time>2026-04-26T08:14:40.807Z</time></trkpt><trkpt lat="45.4718332" lon="10.8134557"><ele>184.0</ele><time>2026-04-26T08:14:41.807Z</time></trkpt><trkpt lat="45.4721087" lon="10.8132124"><ele>186.5</ele><time>2026-04-26T08:14:42.807Z</time></trkpt><trkpt lat="45.4723871" lon="10.8129706"><ele>189.0</ele><time>2026-04-26T08:14:43.805Z</time></trkpt><trkpt lat="45.4726665" lon="10.8127277"><ele>190.5</ele><time>2026-04-26T08:14:44.806Z</time></trkpt><trkpt lat="45.4729454" lon="10.8124832"><ele>192.0</ele><time>2026-04-26T08:14:45.806Z</time></trkpt><trkpt lat="45.4732225" lon="10.8122403"><ele>192.0</ele><time>2026-04-26T08:14:46.807Z</time></trkpt><trkpt lat="45.4735007" lon="10.8119997"><ele>192.0</ele><time>2026-04-26T08:14:47.807Z</time></trkpt><trkpt lat="45.4737781" lon="10.8117629"><ele>193.5</ele><time>2026-04-26T08:14:48.807Z</time></trkpt><trkpt lat="45.4740555" lon="10.8115264"><ele>195.0</ele><time>2026-04-26T08:14:49.806Z</time></trkpt><trkpt lat="45.4743321" lon="10.8112889"><ele>196.0</ele><time>2026-04-26T08:14:50.806Z</time></trkpt><trkpt lat="45.4746064" lon="10.8110542"><ele>197.0</ele><time>2026-04-26T08:14:51.807Z</time></trkpt><trkpt lat="45.4748791" lon="10.810821"><ele>197.0</ele><time>2026-04-26T08:14:52.807Z</time></trkpt><trkpt lat="45.4751511" lon="10.8105854"><ele>197.0</ele><time>2026-04-26T08:14:53.806Z</time></trkpt><trkpt lat="45.4754228" lon="10.8103474"><ele>197.5</ele><time>2026-04-26T08:14:54.807Z</time></trkpt><trkpt lat="45.4756935" lon="10.8101087"><ele>198.0</ele><time>2026-04-26T08:14:55.806Z</time></trkpt><trkpt lat="45.4759599" lon="10.8098719"><ele>198.0</ele><time>2026-04-26T08:14:56.807Z</time></trkpt><trkpt lat="45.4762225" lon="10.8096351"><ele>198.0</ele><time>2026-04-26T08:14:57.806Z</time></trkpt><trkpt lat="45.4764824" lon="10.8093981"><ele>199.5</ele><time>2026-04-26T08:14:58.806Z</time></trkpt><trkpt lat="45.476736" lon="10.8091555"><ele>201.0</ele><time>2026-04-26T08:14:59.806Z</time></trkpt><trkpt lat="45.4769854" lon="10.8089124"><ele>201.0</ele><time>2026-04-26T08:15:00.806Z</time></trkpt><trkpt lat="45.4772307" lon="10.808667"><ele>201.0</ele><time>2026-04-26T08:15:01.807Z</time></trkpt><trkpt lat="45.4774759" lon="10.8084205"><ele>201.0</ele><time>2026-04-26T08:15:02.806Z</time></trkpt><trkpt lat="45.4777196" lon="10.808172"><ele>201.0</ele><time>2026-04-26T08:15:03.806Z</time></trkpt><trkpt lat="45.4779613" lon="10.807921"><ele>201.0</ele><time>2026-04-26T08:15:04.806Z</time></trkpt><trkpt lat="45.478202" lon="10.8076665"><ele>201.0</ele><time>2026-04-26T08:15:05.805Z</time></trkpt><trkpt lat="45.478441" lon="10.8074032"><ele>200.5</ele><time>2026-04-26T08:15:06.806Z</time></trkpt><trkpt lat="45.478675" lon="10.8071329"><ele>200.0</ele><time>2026-04-26T08:15:07.806Z</time></trkpt><trkpt lat="45.478908" lon="10.8068554"><ele>198.0</ele><time>2026-04-26T08:15:08.806Z</time></trkpt><trkpt lat="45.4791349" lon="10.8065664"><ele>196.0</ele><time>2026-04-26T08:15:09.807Z</time></trkpt><trkpt lat="45.4793593" lon="10.8062699"><ele>194.5</ele><time>2026-04-26T08:15:10.805Z</time></trkpt><trkpt lat="45.4795803" lon="10.805967"><ele>193.0</ele><time>2026-04-26T08:15:11.807Z</time></trkpt><trkpt lat="45.4798003" lon="10.8056605"><ele>191.0</ele><time>2026-04-26T08:15:12.805Z</time></trkpt><trkpt lat="45.4800202" lon="10.8053463"><ele>189.0</ele><time>2026-04-26T08:15:13.806Z</time></trkpt><trkpt lat="45.4802398" lon="10.8050242"><ele>186.0</ele><time>2026-04-26T08:15:14.807Z</time></trkpt><trkpt lat="45.480459" lon="10.8046953"><ele>183.0</ele><time>2026-04-26T08:15:15.806Z</time></trkpt><trkpt lat="45.4806769" lon="10.8043614"><ele>183.0</ele><time>2026-04-26T08:15:16.806Z</time></trkpt><trkpt lat="45.4808923" lon="10.8040232"><ele>183.0</ele><time>2026-04-26T08:15:17.806Z</time></trkpt><trkpt lat="45.4811051" lon="10.8036801"><ele>182.5</ele><time>2026-04-26T08:15:18.805Z</time></trkpt><trkpt lat="45.4813146" lon="10.8033321"><ele>182.0</ele><time>2026-04-26T08:15:19.806Z</time></trkpt><trkpt lat="45.481521" lon="10.8029784"><ele>181.0</ele><time>2026-04-26T08:15:20.806Z</time></trkpt><trkpt lat="45.4817255" lon="10.8026212"><ele>180.0</ele><time>2026-04-26T08:15:21.807Z</time></trkpt><trkpt lat="45.4819279" lon="10.8022621"><ele>176.5</ele><time>2026-04-26T08:15:22.805Z</time></trkpt><trkpt lat="45.4821277" lon="10.8019004"><ele>173.0</ele><time>2026-04-26T08:15:23.807Z</time></trkpt><trkpt lat="45.482329" lon="10.8015408"><ele>171.5</ele><time>2026-04-26T08:15:24.807Z</time></trkpt><trkpt lat="45.4825277" lon="10.8011797"><ele>170.0</ele><time>2026-04-26T08:15:25.805Z</time></trkpt><trkpt lat="45.4827251" lon="10.8008205"><ele>169.0</ele><time>2026-04-26T08:15:26.806Z</time></trkpt><trkpt lat="45.4829234" lon="10.8004614"><ele>168.0</ele><time>2026-04-26T08:15:27.806Z</time></trkpt><trkpt lat="45.4831203" lon="10.800102"><ele>167.5</ele><time>2026-04-26T08:15:28.807Z</time></trkpt><trkpt lat="45.4833155" lon="10.7997437"><ele>167.0</ele><time>2026-04-26T08:15:29.807Z</time></trkpt><trkpt lat="45.4835119" lon="10.799387"><ele>167.0</ele><time>2026-04-26T08:15:30.805Z</time></trkpt><trkpt lat="45.4837069" lon="10.7990331"><ele>167.0</ele><time>2026-04-26T08:15:31.806Z</time></trkpt><trkpt lat="45.4839013" lon="10.7986791"><ele>165.0</ele><time>2026-04-26T08:15:32.806Z</time></trkpt><trkpt lat="45.4840955" lon="10.7983269"><ele>163.0</ele><time>2026-04-26T08:15:33.807Z</time></trkpt><trkpt lat="45.4842887" lon="10.7979763"><ele>164.0</ele><time>2026-04-26T08:15:34.806Z</time></trkpt><trkpt lat="45.4844818" lon="10.7976282"><ele>165.0</ele><time>2026-04-26T08:15:35.805Z</time></trkpt><trkpt lat="45.4846747" lon="10.7972832"><ele>165.0</ele><time>2026-04-26T08:15:36.805Z</time></trkpt><trkpt lat="45.4848685" lon="10.7969416"><ele>165.0</ele><time>2026-04-26T08:15:37.807Z</time></trkpt><trkpt lat="45.4850639" lon="10.7966062"><ele>165.0</ele><time>2026-04-26T08:15:38.807Z</time></trkpt><trkpt lat="45.4852647" lon="10.7962783"><ele>165.0</ele><time>2026-04-26T08:15:39.805Z</time></trkpt><trkpt lat="45.4854728" lon="10.7959598"><ele>165.0</ele><time>2026-04-26T08:15:40.807Z</time></trkpt><trkpt lat="45.4856924" lon="10.7956486"><ele>165.0</ele><time>2026-04-26T08:15:41.807Z</time></trkpt><trkpt lat="45.4859214" lon="10.7953467"><ele>159.5</ele><time>2026-04-26T08:15:42.806Z</time></trkpt><trkpt lat="45.4861593" lon="10.7950528"><ele>154.0</ele><time>2026-04-26T08:15:43.807Z</time></trkpt><trkpt lat="45.486404" lon="10.7947698"><ele>154.0</ele><time>2026-04-26T08:15:44.806Z</time></trkpt><trkpt lat="45.4866548" lon="10.7945011"><ele>154.0</ele><time>2026-04-26T08:15:45.807Z</time></trkpt><trkpt lat="45.4869098" lon="10.7942452"><ele>151.5</ele><time>2026-04-26T08:15:46.807Z</time></trkpt><trkpt lat="45.4871694" lon="10.7940019"><ele>149.0</ele><time>2026-04-26T08:15:47.806Z</time></trkpt><trkpt lat="45.4874324" lon="10.7937689"><ele>149.0</ele><time>2026-04-26T08:15:48.806Z</time></trkpt><trkpt lat="45.4877001" lon="10.793551"><ele>149.0</ele><time>2026-04-26T08:15:49.807Z</time></trkpt><trkpt lat="45.4879719" lon="10.7933402"><ele>148.0</ele><time>2026-04-26T08:15:50.805Z</time></trkpt><trkpt lat="45.4882448" lon="10.7931399"><ele>147.0</ele><time>2026-04-26T08:15:51.806Z</time></trkpt><trkpt lat="45.4885192" lon="10.7929462"><ele>145.5</ele><time>2026-04-26T08:15:52.805Z</time></trkpt><trkpt lat="45.4887934" lon="10.7927535"><ele>144.0</ele><time>2026-04-26T08:15:53.806Z</time></trkpt><trkpt lat="45.489066" lon="10.7925591"><ele>144.0</ele><time>2026-04-26T08:15:54.806Z</time></trkpt><trkpt lat="45.489338" lon="10.7923637"><ele>144.0</ele><time>2026-04-26T08:15:55.807Z</time></trkpt><trkpt lat="45.48961" lon="10.7921698"><ele>143.5</ele><time>2026-04-26T08:15:56.805Z</time></trkpt><trkpt lat="45.4898809" lon="10.7919763"><ele>143.0</ele><time>2026-04-26T08:15:57.806Z</time></trkpt><trkpt lat="45.4901523" lon="10.7917814"><ele>143.0</ele><time>2026-04-26T08:15:58.805Z</time></trkpt><trkpt lat="45.4904242" lon="10.7915867"><ele>143.0</ele><time>2026-04-26T08:15:59.807Z</time></trkpt><trkpt lat="45.4906951" lon="10.7913918"><ele>143.0</ele><time>2026-04-26T08:16:00.805Z</time></trkpt><trkpt lat="45.4909655" lon="10.7911978"><ele>143.0</ele><time>2026-04-26T08:16:01.806Z</time></trkpt><trkpt lat="45.4912354" lon="10.7910038"><ele>142.0</ele><time>2026-04-26T08:16:02.806Z</time></trkpt><trkpt lat="45.4915063" lon="10.7908105"><ele>141.0</ele><time>2026-04-26T08:16:03.807Z</time></trkpt><trkpt lat="45.4917755" lon="10.7906175"><ele>141.0</ele><time>2026-04-26T08:16:04.807Z</time></trkpt><trkpt lat="45.4920447" lon="10.7904245"><ele>141.0</ele><time>2026-04-26T08:16:05.806Z</time></trkpt><trkpt lat="45.4923163" lon="10.7902304"><ele>143.0</ele><time>2026-04-26T08:16:06.806Z</time></trkpt><trkpt lat="45.4925891" lon="10.7900362"><ele>145.0</ele><time>2026-04-26T08:16:07.807Z</time></trkpt><trkpt lat="45.4928623" lon="10.7898424"><ele>146.5</ele><time>2026-04-26T08:16:08.806Z</time></trkpt><trkpt lat="45.4931349" lon="10.7896499"><ele>148.0</ele><time>2026-04-26T08:16:09.807Z</time></trkpt><trkpt lat="45.4934083" lon="10.7894565"><ele>147.5</ele><time>2026-04-26T08:16:10.806Z</time></trkpt><trkpt lat="45.4936826" lon="10.7892619"><ele>147.0</ele><time>2026-04-26T08:16:11.807Z</time></trkpt><trkpt lat="45.4939563" lon="10.7890662"><ele>147.0</ele><time>2026-04-26T08:16:12.806Z</time></trkpt><trkpt lat="45.4942307" lon="10.7888693"><ele>147.0</ele><time>2026-04-26T08:16:13.806Z</time></trkpt><trkpt lat="45.4945055" lon="10.7886718"><ele>148.5</ele><time>2026-04-26T08:16:14.806Z</time></trkpt><trkpt lat="45.4947796" lon="10.7884748"><ele>150.0</ele><time>2026-04-26T08:16:15.807Z</time></trkpt><trkpt lat="45.4950529" lon="10.7882804"><ele>150.0</ele><time>2026-04-26T08:16:16.807Z</time></trkpt><trkpt lat="45.4953233" lon="10.7880871"><ele>150.0</ele><time>2026-04-26T08:16:17.807Z</time></trkpt><trkpt lat="45.4955938" lon="10.7878939"><ele>149.5</ele><time>2026-04-26T08:16:18.807Z</time></trkpt><trkpt lat="45.4958641" lon="10.7877004"><ele>149.0</ele><time>2026-04-26T08:16:19.807Z</time></trkpt><trkpt lat="45.4961348" lon="10.7875077"><ele>150.5</ele><time>2026-04-26T08:16:20.806Z</time></trkpt><trkpt lat="45.4964051" lon="10.7873146"><ele>152.0</ele><time>2026-04-26T08:16:21.805Z</time></trkpt><trkpt lat="45.4966753" lon="10.7871208"><ele>152.0</ele><time>2026-04-26T08:16:22.807Z</time></trkpt><trkpt lat="45.4969458" lon="10.7869285"><ele>152.0</ele><time>2026-04-26T08:16:23.806Z</time></trkpt><trkpt lat="45.4972173" lon="10.786736"><ele>152.0</ele><time>2026-04-26T08:16:24.806Z</time></trkpt><trkpt lat="45.49749" lon="10.7865449"><ele>152.0</ele><time>2026-04-26T08:16:25.806Z</time></trkpt><trkpt lat="45.4977642" lon="10.786356"><ele>153.5</ele><time>2026-04-26T08:16:26.806Z</time></trkpt><trkpt lat="45.4980396" lon="10.7861713"><ele>155.0</ele><time>2026-04-26T08:16:27.806Z</time></trkpt><trkpt lat="45.4983181" lon="10.7859904"><ele>155.0</ele><time>2026-04-26T08:16:28.805Z</time></trkpt><trkpt lat="45.498599" lon="10.7858164"><ele>155.0</ele><time>2026-04-26T08:16:29.806Z</time></trkpt><trkpt lat="45.4988828" lon="10.7856503"><ele>156.5</ele><time>2026-04-26T08:16:30.807Z</time></trkpt><trkpt lat="45.4991706" lon="10.7854946"><ele>158.0</ele><time>2026-04-26T08:16:31.807Z</time></trkpt><trkpt lat="45.4994618" lon="10.7853501"><ele>158.0</ele><time>2026-04-26T08:16:32.807Z</time></trkpt><trkpt lat="45.4997558" lon="10.7852147"><ele>158.0</ele><time>2026-04-26T08:16:33.807Z</time></trkpt><trkpt lat="45.5000506" lon="10.7850833"><ele>158.0</ele><time>2026-04-26T08:16:34.806Z</time></trkpt><trkpt lat="45.5003476" lon="10.7849596"><ele>158.0</ele><time>2026-04-26T08:16:35.807Z</time></trkpt><trkpt lat="45.5006463" lon="10.7848427"><ele>159.0</ele><time>2026-04-26T08:16:36.806Z</time></trkpt><trkpt lat="45.5009481" lon="10.784736"><ele>160.0</ele><time>2026-04-26T08:16:37.806Z</time></trkpt><trkpt lat="45.501251" lon="10.7846392"><ele>160.5</ele><time>2026-04-26T08:16:38.806Z</time></trkpt><trkpt lat="45.5015538" lon="10.7845481"><ele>161.0</ele><time>2026-04-26T08:16:39.806Z</time></trkpt><trkpt lat="45.5018574" lon="10.7844593"><ele>158.5</ele><time>2026-04-26T08:16:40.806Z</time></trkpt><trkpt lat="45.5021577" lon="10.7843781"><ele>156.0</ele><time>2026-04-26T08:16:41.807Z</time></trkpt><trkpt lat="45.5024545" lon="10.7843049"><ele>156.0</ele><time>2026-04-26T08:16:42.806Z</time></trkpt><trkpt lat="45.5027535" lon="10.784243"><ele>156.0</ele><time>2026-04-26T08:16:43.805Z</time></trkpt><trkpt lat="45.5030538" lon="10.7841946"><ele>154.0</ele><time>2026-04-26T08:16:44.806Z</time></trkpt><trkpt lat="45.5033555" lon="10.7841576"><ele>152.0</ele><time>2026-04-26T08:16:45.807Z</time></trkpt><trkpt lat="45.503658" lon="10.7841335"><ele>152.0</ele><time>2026-04-26T08:16:46.807Z</time></trkpt><trkpt lat="45.5039638" lon="10.7841189"><ele>152.0</ele><time>2026-04-26T08:16:47.806Z</time></trkpt><trkpt lat="45.5042721" lon="10.7841166"><ele>151.5</ele><time>2026-04-26T08:16:48.807Z</time></trkpt><trkpt lat="45.5045835" lon="10.784125"><ele>151.0</ele><time>2026-04-26T08:16:49.805Z</time></trkpt><trkpt lat="45.5048971" lon="10.7841423"><ele>151.0</ele><time>2026-04-26T08:16:50.805Z</time></trkpt><trkpt lat="45.5052123" lon="10.7841651"><ele>151.0</ele><time>2026-04-26T08:16:51.806Z</time></trkpt><trkpt lat="45.505529" lon="10.7841943"><ele>150.5</ele><time>2026-04-26T08:16:52.806Z</time></trkpt><trkpt lat="45.5058471" lon="10.7842239"><ele>150.0</ele><time>2026-04-26T08:16:53.806Z</time></trkpt><trkpt lat="45.5061668" lon="10.7842556"><ele>151.5</ele><time>2026-04-26T08:16:54.806Z</time></trkpt><trkpt lat="45.5064901" lon="10.7842889"><ele>153.0</ele><time>2026-04-26T08:16:55.806Z</time></trkpt><trkpt lat="45.5068137" lon="10.7843232"><ele>152.0</ele><time>2026-04-26T08:16:56.807Z</time></trkpt><trkpt lat="45.5071388" lon="10.7843555"><ele>151.0</ele><time>2026-04-26T08:16:57.807Z</time></trkpt><trkpt lat="45.507466" lon="10.7843867"><ele>151.0</ele><time>2026-04-26T08:16:58.807Z</time></trkpt><trkpt lat="45.5077941" lon="10.7844171"><ele>151.0</ele><time>2026-04-26T08:16:59.807Z</time></trkpt><trkpt lat="45.5081226" lon="10.7844482"><ele>150.5</ele><time>2026-04-26T08:17:00.805Z</time></trkpt><trkpt lat="45.5084509" lon="10.7844809"><ele>150.0</ele><time>2026-04-26T08:17:01.807Z</time></trkpt><trkpt lat="45.5087788" lon="10.7845137"><ele>152.0</ele><time>2026-04-26T08:17:02.806Z</time></trkpt><trkpt lat="45.5091059" lon="10.784546"><ele>154.0</ele><time>2026-04-26T08:17:03.806Z</time></trkpt><trkpt lat="45.5094315" lon="10.7845762"><ele>153.5</ele><time>2026-04-26T08:17:04.807Z</time></trkpt><trkpt lat="45.509759" lon="10.7846085"><ele>153.0</ele><time>2026-04-26T08:17:05.806Z</time></trkpt><trkpt lat="45.5100859" lon="10.7846396"><ele>154.0</ele><time>2026-04-26T08:17:06.805Z</time></trkpt><trkpt lat="45.5104104" lon="10.7846696"><ele>155.0</ele><time>2026-04-26T08:17:07.805Z</time></trkpt><trkpt lat="45.5107356" lon="10.7846986"><ele>155.0</ele><time>2026-04-26T08:17:08.807Z</time></trkpt><trkpt lat="45.5110574" lon="10.784724"><ele>155.0</ele><time>2026-04-26T08:17:09.806Z</time></trkpt><trkpt lat="45.5113784" lon="10.7847417"><ele>156.0</ele><time>2026-04-26T08:17:10.806Z</time></trkpt><trkpt lat="45.5116983" lon="10.7847506"><ele>157.0</ele><time>2026-04-26T08:17:11.805Z</time></trkpt><trkpt lat="45.5120162" lon="10.7847514"><ele>156.0</ele><time>2026-04-26T08:17:12.807Z</time></trkpt><trkpt lat="45.5123334" lon="10.7847454"><ele>155.0</ele><time>2026-04-26T08:17:13.806Z</time></trkpt><trkpt lat="45.5126483" lon="10.7847301"><ele>156.5</ele><time>2026-04-26T08:17:14.805Z</time></trkpt><trkpt lat="45.5129604" lon="10.7847093"><ele>158.0</ele><time>2026-04-26T08:17:15.805Z</time></trkpt><trkpt lat="45.5132713" lon="10.7846802"><ele>158.0</ele><time>2026-04-26T08:17:16.805Z</time></trkpt><trkpt lat="45.5135816" lon="10.7846417"><ele>158.0</ele><time>2026-04-26T08:17:17.805Z</time></trkpt><trkpt lat="45.5138897" lon="10.7845947"><ele>159.5</ele><time>2026-04-26T08:17:18.806Z</time></trkpt><trkpt lat="45.5141954" lon="10.7845377"><ele>161.0</ele><time>2026-04-26T08:17:19.807Z</time></trkpt><trkpt lat="45.5144998" lon="10.7844724"><ele>162.0</ele><time>2026-04-26T08:17:20.807Z</time></trkpt><trkpt lat="45.5148051" lon="10.7844028"><ele>163.0</ele><time>2026-04-26T08:17:21.806Z</time></trkpt><trkpt lat="45.5151108" lon="10.784331"><ele>164.5</ele><time>2026-04-26T08:17:22.805Z</time></trkpt><trkpt lat="45.5154158" lon="10.7842563"><ele>166.0</ele><time>2026-04-26T08:17:23.805Z</time></trkpt><trkpt lat="45.5157202" lon="10.7841795"><ele>166.0</ele><time>2026-04-26T08:17:24.807Z</time></trkpt><trkpt lat="45.5160245" lon="10.7841006"><ele>166.0</ele><time>2026-04-26T08:17:25.805Z</time></trkpt><trkpt lat="45.5163294" lon="10.7840208"><ele>167.0</ele><time>2026-04-26T08:17:26.806Z</time></trkpt><trkpt lat="45.5166349" lon="10.7839431"><ele>168.0</ele><time>2026-04-26T08:17:27.807Z</time></trkpt><trkpt lat="45.5169407" lon="10.7838668"><ele>167.5</ele><time>2026-04-26T08:17:28.805Z</time></trkpt><trkpt lat="45.5172481" lon="10.783792"><ele>167.0</ele><time>2026-04-26T08:17:29.806Z</time></trkpt><trkpt lat="45.5175588" lon="10.7837167"><ele>167.0</ele><time>2026-04-26T08:17:30.805Z</time></trkpt><trkpt lat="45.5178728" lon="10.7836399"><ele>167.0</ele><time>2026-04-26T08:17:31.806Z</time></trkpt><trkpt lat="45.5181899" lon="10.7835623"><ele>167.5</ele><time>2026-04-26T08:17:32.807Z</time></trkpt><trkpt lat="45.5185099" lon="10.7834845"><ele>168.0</ele><time>2026-04-26T08:17:33.807Z</time></trkpt><trkpt lat="45.5188322" lon="10.7834069"><ele>168.0</ele><time>2026-04-26T08:17:34.806Z</time></trkpt><trkpt lat="45.5191542" lon="10.78333"><ele>168.0</ele><time>2026-04-26T08:17:35.807Z</time></trkpt><trkpt lat="45.5194752" lon="10.7832547"><ele>167.5</ele><time>2026-04-26T08:17:36.806Z</time></trkpt><trkpt lat="45.5197962" lon="10.7831768"><ele>167.0</ele><time>2026-04-26T08:17:37.807Z</time></trkpt><trkpt lat="45.5201141" lon="10.7830943"><ele>166.5</ele><time>2026-04-26T08:17:38.807Z</time></trkpt><trkpt lat="45.520431" lon="10.7830135"><ele>166.0</ele><time>2026-04-26T08:17:39.807Z</time></trkpt><trkpt lat="45.5207483" lon="10.7829327"><ele>166.0</ele><time>2026-04-26T08:17:40.807Z</time></trkpt><trkpt lat="45.5210626" lon="10.782851"><ele>166.0</ele><time>2026-04-26T08:17:41.806Z</time></trkpt><trkpt lat="45.5213775" lon="10.7827692"><ele>166.5</ele><time>2026-04-26T08:17:42.807Z</time></trkpt><trkpt lat="45.5216906" lon="10.7826903"><ele>167.0</ele><time>2026-04-26T08:17:43.807Z</time></trkpt><trkpt lat="45.5220022" lon="10.7826119"><ele>167.5</ele><time>2026-04-26T08:17:44.806Z</time></trkpt><trkpt lat="45.5223122" lon="10.7825329"><ele>168.0</ele><time>2026-04-26T08:17:45.807Z</time></trkpt><trkpt lat="45.5226188" lon="10.7824575"><ele>166.0</ele><time>2026-04-26T08:17:46.806Z</time></trkpt><trkpt lat="45.5229259" lon="10.7823835"><ele>164.0</ele><time>2026-04-26T08:17:47.806Z</time></trkpt><trkpt lat="45.5232333" lon="10.782309"><ele>164.0</ele><time>2026-04-26T08:17:48.805Z</time></trkpt><trkpt lat="45.5235374" lon="10.7822315"><ele>164.0</ele><time>2026-04-26T08:17:49.807Z</time></trkpt><trkpt lat="45.5238405" lon="10.7821566"><ele>164.0</ele><time>2026-04-26T08:17:50.806Z</time></trkpt><trkpt lat="45.5241442" lon="10.782082"><ele>164.0</ele><time>2026-04-26T08:17:51.807Z</time></trkpt><trkpt lat="45.5244463" lon="10.782006"><ele>162.0</ele><time>2026-04-26T08:17:52.805Z</time></trkpt><trkpt lat="45.5247476" lon="10.7819301"><ele>160.0</ele><time>2026-04-26T08:17:53.806Z</time></trkpt><trkpt lat="45.5250484" lon="10.7818529"><ele>160.0</ele><time>2026-04-26T08:17:54.806Z</time></trkpt><trkpt lat="45.525349" lon="10.7817793"><ele>160.0</ele><time>2026-04-26T08:17:55.805Z</time></trkpt><trkpt lat="45.5256512" lon="10.7817112"><ele>160.0</ele><time>2026-04-26T08:17:56.806Z</time></trkpt><trkpt lat="45.5259514" lon="10.7816466"><ele>160.0</ele><time>2026-04-26T08:17:57.806Z</time></trkpt><trkpt lat="45.5262532" lon="10.7815898"><ele>159.0</ele><time>2026-04-26T08:17:58.807Z</time></trkpt><trkpt lat="45.5265575" lon="10.7815414"><ele>158.0</ele><time>2026-04-26T08:17:59.806Z</time></trkpt><trkpt lat="45.5268668" lon="10.7814944"><ele>160.0</ele><time>2026-04-26T08:18:00.806Z</time></trkpt><trkpt lat="45.5271783" lon="10.7814475"><ele>162.0</ele><time>2026-04-26T08:18:01.805Z</time></trkpt><trkpt lat="45.527492" lon="10.7814018"><ele>162.0</ele><time>2026-04-26T08:18:02.807Z</time></trkpt><trkpt lat="45.5278038" lon="10.7813552"><ele>162.0</ele><time>2026-04-26T08:18:03.806Z</time></trkpt><trkpt lat="45.5281143" lon="10.7813105"><ele>161.0</ele><time>2026-04-26T08:18:04.807Z</time></trkpt><trkpt lat="45.5284258" lon="10.7812615"><ele>160.0</ele><time>2026-04-26T08:18:05.807Z</time></trkpt><trkpt lat="45.5287334" lon="10.7812149"><ele>159.0</ele><time>2026-04-26T08:18:06.805Z</time></trkpt><trkpt lat="45.5290376" lon="10.781168"><ele>158.0</ele><time>2026-04-26T08:18:07.807Z</time></trkpt><trkpt lat="45.5293362" lon="10.7811254"><ele>159.5</ele><time>2026-04-26T08:18:08.805Z</time></trkpt><trkpt lat="45.5296323" lon="10.781083"><ele>161.0</ele><time>2026-04-26T08:18:09.807Z</time></trkpt><trkpt lat="45.5299262" lon="10.78104"><ele>160.5</ele><time>2026-04-26T08:18:10.806Z</time></trkpt><trkpt lat="45.5302176" lon="10.7809982"><ele>160.0</ele><time>2026-04-26T08:18:11.805Z</time></trkpt><trkpt lat="45.5305083" lon="10.7809579"><ele>160.0</ele><time>2026-04-26T08:18:12.806Z</time></trkpt><trkpt lat="45.5307982" lon="10.7809172"><ele>160.0</ele><time>2026-04-26T08:18:13.806Z</time></trkpt><trkpt lat="45.5310902" lon="10.7808765"><ele>160.5</ele><time>2026-04-26T08:18:14.806Z</time></trkpt><trkpt lat="45.5313843" lon="10.7808331"><ele>161.0</ele><time>2026-04-26T08:18:15.806Z</time></trkpt><trkpt lat="45.5316801" lon="10.7807882"><ele>161.0</ele><time>2026-04-26T08:18:16.807Z</time></trkpt><trkpt lat="45.5319775" lon="10.7807425"><ele>161.0</ele><time>2026-04-26T08:18:17.806Z</time></trkpt><trkpt lat="45.5322773" lon="10.7806964"><ele>162.5</ele><time>2026-04-26T08:18:18.806Z</time></trkpt><trkpt lat="45.5325804" lon="10.7806511"><ele>164.0</ele><time>2026-04-26T08:18:19.807Z</time></trkpt><trkpt lat="45.5328935" lon="10.7806051"><ele>164.0</ele><time>2026-04-26T08:18:20.806Z</time></trkpt><trkpt lat="45.5332089" lon="10.7805593"><ele>164.0</ele><time>2026-04-26T08:18:21.806Z</time></trkpt><trkpt lat="45.5335221" lon="10.7805138"><ele>163.0</ele><time>2026-04-26T08:18:22.807Z</time></trkpt><trkpt lat="45.5338356" lon="10.7804712"><ele>162.0</ele><time>2026-04-26T08:18:23.807Z</time></trkpt><trkpt lat="45.5341471" lon="10.7804265"><ele>162.0</ele><time>2026-04-26T08:18:24.806Z</time></trkpt><trkpt lat="45.5344573" lon="10.7803825"><ele>162.0</ele><time>2026-04-26T08:18:25.807Z</time></trkpt><trkpt lat="45.534767" lon="10.7803368"><ele>163.0</ele><time>2026-04-26T08:18:26.805Z</time></trkpt><trkpt lat="45.5350753" lon="10.7802914"><ele>164.0</ele><time>2026-04-26T08:18:27.805Z</time></trkpt><trkpt lat="45.5353866" lon="10.7802461"><ele>164.0</ele><time>2026-04-26T08:18:28.807Z</time></trkpt><trkpt lat="45.5356981" lon="10.7801991"><ele>164.0</ele><time>2026-04-26T08:18:29.807Z</time></trkpt><trkpt lat="45.5360104" lon="10.7801514"><ele>167.0</ele><time>2026-04-26T08:18:30.805Z</time></trkpt><trkpt lat="45.5363234" lon="10.7801031"><ele>170.0</ele><time>2026-04-26T08:18:31.806Z</time></trkpt><trkpt lat="45.5366362" lon="10.7800529"><ele>170.0</ele><time>2026-04-26T08:18:32.807Z</time></trkpt><trkpt lat="45.536948" lon="10.7800059"><ele>170.0</ele><time>2026-04-26T08:18:33.807Z</time></trkpt><trkpt lat="45.537257" lon="10.7799615"><ele>171.5</ele><time>2026-04-26T08:18:34.807Z</time></trkpt><trkpt lat="45.5375635" lon="10.7799204"><ele>173.0</ele><time>2026-04-26T08:18:35.807Z</time></trkpt><trkpt lat="45.537866" lon="10.779885"><ele>175.5</ele><time>2026-04-26T08:18:36.806Z</time></trkpt><trkpt lat="45.5381659" lon="10.7798552"><ele>178.0</ele><time>2026-04-26T08:18:37.806Z</time></trkpt><trkpt lat="45.5384637" lon="10.7798354"><ele>179.0</ele><time>2026-04-26T08:18:38.806Z</time></trkpt><trkpt lat="45.5387574" lon="10.7798272"><ele>180.0</ele><time>2026-04-26T08:18:39.806Z</time></trkpt><trkpt lat="45.5390488" lon="10.7798314"><ele>180.0</ele><time>2026-04-26T08:18:40.806Z</time></trkpt><trkpt lat="45.5393344" lon="10.7798511"><ele>180.0</ele><time>2026-04-26T08:18:41.806Z</time></trkpt><trkpt lat="45.5396148" lon="10.779887"><ele>182.0</ele><time>2026-04-26T08:18:42.807Z</time></trkpt><trkpt lat="45.539896" lon="10.7799336"><ele>184.0</ele><time>2026-04-26T08:18:43.807Z</time></trkpt><trkpt lat="45.5401758" lon="10.7799913"><ele>184.5</ele><time>2026-04-26T08:18:44.806Z</time></trkpt><trkpt lat="45.5404538" lon="10.7800625"><ele>185.0</ele><time>2026-04-26T08:18:45.805Z</time></trkpt><trkpt lat="45.5407292" lon="10.7801446"><ele>186.0</ele><time>2026-04-26T08:18:46.805Z</time></trkpt><trkpt lat="45.5410034" lon="10.7802374"><ele>187.0</ele><time>2026-04-26T08:18:47.806Z</time></trkpt><trkpt lat="45.5412769" lon="10.7803399"><ele>190.0</ele><time>2026-04-26T08:18:48.806Z</time></trkpt><trkpt lat="45.5415486" lon="10.7804529"><ele>193.0</ele><time>2026-04-26T08:18:49.806Z</time></trkpt><trkpt lat="45.5418169" lon="10.7805801"><ele>191.5</ele><time>2026-04-26T08:18:50.807Z</time></trkpt><trkpt lat="45.5420829" lon="10.7807233"><ele>190.0</ele><time>2026-04-26T08:18:51.806Z</time></trkpt><trkpt lat="45.5423428" lon="10.7808827"><ele>196.5</ele><time>2026-04-26T08:18:52.805Z</time></trkpt><trkpt lat="45.5425936" lon="10.7810481"><ele>203.0</ele><time>2026-04-26T08:18:53.806Z</time></trkpt><trkpt lat="45.5428402" lon="10.7812281"><ele>197.0</ele><time>2026-04-26T08:18:54.807Z</time></trkpt><trkpt lat="45.5430937" lon="10.7814209"><ele>191.0</ele><time>2026-04-26T08:18:55.807Z</time></trkpt><trkpt lat="45.5433452" lon="10.7816303"><ele>191.0</ele><time>2026-04-26T08:18:56.807Z</time></trkpt><trkpt lat="45.5435921" lon="10.7818499"><ele>191.0</ele><time>2026-04-26T08:18:57.807Z</time></trkpt><trkpt lat="45.5438333" lon="10.7820761"><ele>189.0</ele><time>2026-04-26T08:18:58.806Z</time></trkpt><trkpt lat="45.5440676" lon="10.782314"><ele>187.0</ele><time>2026-04-26T08:18:59.806Z</time></trkpt><trkpt lat="45.5442934" lon="10.7825618"><ele>186.0</ele><time>2026-04-26T08:19:00.807Z</time></trkpt><trkpt lat="45.5445078" lon="10.7828246"><ele>185.0</ele><time>2026-04-26T08:19:01.807Z</time></trkpt><trkpt lat="45.5447153" lon="10.7830993"><ele>185.0</ele><time>2026-04-26T08:19:02.806Z</time></trkpt><trkpt lat="45.544919" lon="10.7833839"><ele>185.0</ele><time>2026-04-26T08:19:03.807Z</time></trkpt><trkpt lat="45.5451192" lon="10.7836764"><ele>184.5</ele><time>2026-04-26T08:19:04.806Z</time></trkpt><trkpt lat="45.5453145" lon="10.7839755"><ele>184.0</ele><time>2026-04-26T08:19:05.806Z</time></trkpt><trkpt lat="45.545506" lon="10.7842826"><ele>183.0</ele><time>2026-04-26T08:19:06.805Z</time></trkpt><trkpt lat="45.5456896" lon="10.7846016"><ele>182.0</ele><time>2026-04-26T08:19:07.805Z</time></trkpt><trkpt lat="45.5458728" lon="10.7849256"><ele>182.0</ele><time>2026-04-26T08:19:08.806Z</time></trkpt><trkpt lat="45.5460556" lon="10.7852592"><ele>182.0</ele><time>2026-04-26T08:19:09.805Z</time></trkpt><trkpt lat="45.5462416" lon="10.7856023"><ele>182.0</ele><time>2026-04-26T08:19:10.807Z</time></trkpt><trkpt lat="45.5464318" lon="10.7859579"><ele>182.0</ele><time>2026-04-26T08:19:11.806Z</time></trkpt><trkpt lat="45.5466278" lon="10.7863236"><ele>179.0</ele><time>2026-04-26T08:19:12.806Z</time></trkpt><trkpt lat="45.5468136" lon="10.7866765"><ele>176.0</ele><time>2026-04-26T08:19:13.806Z</time></trkpt><trkpt lat="45.546995" lon="10.7870234"><ele>174.5</ele><time>2026-04-26T08:19:14.805Z</time></trkpt><trkpt lat="45.5471725" lon="10.7873644"><ele>173.0</ele><time>2026-04-26T08:19:15.806Z</time></trkpt><trkpt lat="45.5473431" lon="10.7876938"><ele>173.0</ele><time>2026-04-26T08:19:16.806Z</time></trkpt><trkpt lat="45.5475082" lon="10.7880148"><ele>173.0</ele><time>2026-04-26T08:19:17.807Z</time></trkpt><trkpt lat="45.5476695" lon="10.7883304"><ele>175.0</ele><time>2026-04-26T08:19:18.806Z</time></trkpt><trkpt lat="45.5478271" lon="10.7886387"><ele>177.0</ele><time>2026-04-26T08:19:19.807Z</time></trkpt><trkpt lat="45.5479778" lon="10.7889323"><ele>179.0</ele><time>2026-04-26T08:19:20.805Z</time></trkpt><trkpt lat="45.5481204" lon="10.7892107"><ele>181.0</ele><time>2026-04-26T08:19:21.806Z</time></trkpt><trkpt lat="45.5482564" lon="10.7894752"><ele>182.0</ele><time>2026-04-26T08:19:22.807Z</time></trkpt><trkpt lat="45.548387" lon="10.7897282"><ele>183.0</ele><time>2026-04-26T08:19:23.806Z</time></trkpt><trkpt lat="45.5485081" lon="10.7899612"><ele>184.0</ele><time>2026-04-26T08:19:24.805Z</time></trkpt><trkpt lat="45.5486228" lon="10.7901822"><ele>184.33333333333334</ele><time>2026-04-26T08:19:25.807Z</time></trkpt><trkpt lat="45.5487356" lon="10.7903941"><ele>184.66666666666666</ele><time>2026-04-26T08:19:26.807Z</time></trkpt><trkpt lat="45.5488411" lon="10.7905963"><ele>185.0</ele><time>2026-04-26T08:19:27.806Z</time></trkpt><trkpt lat="45.5489357" lon="10.7907919"><ele>185.0</ele><time>2026-04-26T08:19:28.807Z</time></trkpt><trkpt lat="45.5490185" lon="10.7909802"><ele>185.0</ele><time>2026-04-26T08:19:29.806Z</time></trkpt><trkpt lat="45.5490848" lon="10.791169"><ele>185.0</ele><time>2026-04-26T08:19:30.806Z</time></trkpt><trkpt lat="45.5491362" lon="10.791353"><ele>185.0</ele><time>2026-04-26T08:19:31.806Z</time></trkpt><trkpt lat="45.5491573" lon="10.7915233"><ele>185.0</ele><time>2026-04-26T08:19:32.806Z</time></trkpt><trkpt lat="45.5491568" lon="10.791685"><ele>185.0</ele><time>2026-04-26T08:19:33.807Z</time></trkpt><trkpt lat="45.5491347" lon="10.7918523"><ele>185.0</ele><time>2026-04-26T08:19:34.806Z</time></trkpt><trkpt lat="45.5490853" lon="10.7920203"><ele>185.0</ele><time>2026-04-26T08:19:35.807Z</time></trkpt><trkpt lat="45.5490094" lon="10.7921757"><ele>185.0</ele><time>2026-04-26T08:19:36.806Z</time></trkpt><trkpt lat="45.5489122" lon="10.7923192"><ele>185.0</ele><time>2026-04-26T08:19:37.806Z</time></trkpt><trkpt lat="45.5487885" lon="10.7924233"><ele>185.0</ele><time>2026-04-26T08:19:38.807Z</time></trkpt><trkpt lat="45.548658" lon="10.7924899"><ele>185.0</ele><time>2026-04-26T08:19:39.806Z</time></trkpt><trkpt lat="45.5485206" lon="10.7925139"><ele>184.5</ele><time>2026-04-26T08:19:40.805Z</time></trkpt><trkpt lat="45.5483808" lon="10.7924954"><ele>184.0</ele><time>2026-04-26T08:19:41.806Z</time></trkpt><trkpt lat="45.5482443" lon="10.7924342"><ele>183.5</ele><time>2026-04-26T08:19:42.806Z</time></trkpt><trkpt lat="45.5481234" lon="10.7923313"><ele>183.0</ele><time>2026-04-26T08:19:43.807Z</time></trkpt><trkpt lat="45.5480144" lon="10.7921945"><ele>183.0</ele><time>2026-04-26T08:19:44.807Z</time></trkpt><trkpt lat="45.5479336" lon="10.7920099"><ele>183.0</ele><time>2026-04-26T08:19:45.806Z</time></trkpt><trkpt lat="45.5478792" lon="10.7918107"><ele>183.0</ele><time>2026-04-26T08:19:46.806Z</time></trkpt><trkpt lat="45.5478565" lon="10.7916045"><ele>183.0</ele><time>2026-04-26T08:19:47.807Z</time></trkpt><trkpt lat="45.5478642" lon="10.7913942"><ele>183.66666666666666</ele><time>2026-04-26T08:19:48.806Z</time></trkpt><trkpt lat="45.5479037" lon="10.7911899"><ele>184.33333333333331</ele><time>2026-04-26T08:19:49.806Z</time></trkpt><trkpt lat="45.5479751" lon="10.7909944"><ele>185.0</ele><time>2026-04-26T08:19:50.806Z</time></trkpt><trkpt lat="45.5480747" lon="10.7908107"><ele>185.0</ele><time>2026-04-26T08:19:51.806Z</time></trkpt><trkpt lat="45.5481956" lon="10.7906418"><ele>185.0</ele><time>2026-04-26T08:19:52.806Z</time></trkpt><trkpt lat="45.5483304" lon="10.7904899"><ele>185.0</ele><time>2026-04-26T08:19:53.805Z</time></trkpt><trkpt lat="45.5484806" lon="10.7903315"><ele>184.66666666666666</ele><time>2026-04-26T08:19:54.805Z</time></trkpt><trkpt lat="45.5486325" lon="10.7901715"><ele>184.33333333333334</ele><time>2026-04-26T08:19:55.805Z</time></trkpt><trkpt lat="45.5487697" lon="10.7900252"><ele>184.0</ele><time>2026-04-26T08:19:56.807Z</time></trkpt><trkpt lat="45.5488987" lon="10.7898909"><ele>184.5</ele><time>2026-04-26T08:19:57.806Z</time></trkpt><trkpt lat="45.5490199" lon="10.7897641"><ele>185.0</ele><time>2026-04-26T08:19:58.806Z</time></trkpt><trkpt lat="45.5491375" lon="10.7896399"><ele>185.5</ele><time>2026-04-26T08:19:59.807Z</time></trkpt><trkpt lat="45.5492497" lon="10.7895205"><ele>186.0</ele><time>2026-04-26T08:20:00.807Z</time></trkpt><trkpt lat="45.5493576" lon="10.7894063"><ele>185.5</ele><time>2026-04-26T08:20:01.807Z</time></trkpt><trkpt lat="45.5494608" lon="10.7892985"><ele>185.0</ele><time>2026-04-26T08:20:02.806Z</time></trkpt><trkpt lat="45.5495595" lon="10.7891927"><ele>184.5</ele><time>2026-04-26T08:20:03.807Z</time></trkpt><trkpt lat="45.5496512" lon="10.7890925"><ele>184.0</ele><time>2026-04-26T08:20:04.806Z</time></trkpt><trkpt lat="45.5497298" lon="10.7890026"><ele>184.66666666666669</ele><time>2026-04-26T08:20:05.807Z</time></trkpt><trkpt lat="45.549797" lon="10.7889223"><ele>185.33333333333334</ele><time>2026-04-26T08:20:06.807Z</time></trkpt><trkpt lat="45.5498572" lon="10.7888494"><ele>186.0</ele><time>2026-04-26T08:20:07.807Z</time></trkpt><trkpt lat="45.5499122" lon="10.7887824"><ele>186.66666666666666</ele><time>2026-04-26T08:20:08.805Z</time></trkpt><trkpt lat="45.5499635" lon="10.7887199"><ele>187.33333333333331</ele><time>2026-04-26T08:20:09.806Z</time></trkpt><trkpt lat="45.5500106" lon="10.7886595"><ele>188.0</ele><time>2026-04-26T08:20:10.807Z</time></trkpt><trkpt lat="45.5500945" lon="10.7885583"><ele>187.8</ele><time>2026-04-26T08:20:12.806Z</time></trkpt><trkpt lat="45.5501733" lon="10.7884673"><ele>187.60000000000002</ele><time>2026-04-26T08:20:14.805Z</time></trkpt><trkpt lat="45.5502661" lon="10.7883603"><ele>187.39999999999998</ele><time>2026-04-26T08:20:16.806Z</time></trkpt><trkpt lat="45.5503179" lon="10.7883031"><ele>187.2</ele><time>2026-04-26T08:20:17.806Z</time></trkpt><trkpt lat="45.5503677" lon="10.7882477"><ele>187.0</ele><time>2026-04-26T08:20:18.806Z</time></trkpt><trkpt lat="45.5504675" lon="10.7881362"><ele>187.33333333333334</ele><time>2026-04-26T08:20:20.806Z</time></trkpt><trkpt lat="45.5505294" lon="10.7880627"><ele>187.66666666666669</ele><time>2026-04-26T08:20:21.806Z</time></trkpt><trkpt lat="45.550606" lon="10.7880011"><ele>188.0</ele><time>2026-04-26T08:20:22.806Z</time></trkpt><trkpt lat="45.5506759" lon="10.7879218"><ele>188.33333333333334</ele><time>2026-04-26T08:20:23.807Z</time></trkpt><trkpt lat="45.5507408" lon="10.787834"><ele>188.66666666666666</ele><time>2026-04-26T08:20:24.805Z</time></trkpt><trkpt lat="45.5508011" lon="10.7877454"><ele>189.0</ele><time>2026-04-26T08:20:25.807Z</time></trkpt><trkpt lat="45.5508551" lon="10.7876526"><ele>189.0</ele><time>2026-04-26T08:20:26.805Z</time></trkpt><trkpt lat="45.5509029" lon="10.7875552"><ele>189.0</ele><time>2026-04-26T08:20:27.807Z</time></trkpt><trkpt lat="45.5509448" lon="10.7874573"><ele>189.0</ele><time>2026-04-26T08:20:28.807Z</time></trkpt><trkpt lat="45.5509802" lon="10.7873634"><ele>189.0</ele><time>2026-04-26T08:20:29.806Z</time></trkpt><trkpt lat="45.5510092" lon="10.7872765"><ele>189.0</ele><time>2026-04-26T08:20:30.806Z</time></trkpt><trkpt lat="45.5510361" lon="10.7871931"><ele>189.0</ele><time>2026-04-26T08:20:31.807Z</time></trkpt><trkpt lat="45.5510789" lon="10.7870704"><ele>189.0</ele><time>2026-04-26T08:20:33.806Z</time></trkpt><trkpt lat="45.551127" lon="10.7869829"><ele>189.0</ele><time>2026-04-26T08:20:35.807Z</time></trkpt><trkpt lat="45.5511795" lon="10.7869202"><ele>189.0</ele><time>2026-04-26T08:20:41.805Z</time></trkpt><trkpt lat="45.5512797" lon="10.7868496"><ele>189.0</ele><time>2026-04-26T08:20:45.806Z</time></trkpt><trkpt lat="45.5513845" lon="10.7868506"><ele>189.0</ele><time>2026-04-26T08:20:47.806Z</time></trkpt><trkpt lat="45.5514769" lon="10.786946"><ele>189.0</ele><time>2026-04-26T08:20:49.806Z</time></trkpt><trkpt lat="45.5515052" lon="10.7870275"><ele>189.0</ele><time>2026-04-26T08:20:50.805Z</time></trkpt><trkpt lat="45.5515259" lon="10.7871272"><ele>189.0</ele><time>2026-04-26T08:20:51.805Z</time></trkpt><trkpt lat="45.5515424" lon="10.7872222"><ele>189.0</ele><time>2026-04-26T08:20:52.805Z</time></trkpt><trkpt lat="45.5515716" lon="10.7873918"><ele>189.0</ele><time>2026-04-26T08:20:54.806Z</time></trkpt><trkpt lat="45.5515864" lon="10.7874817"><ele>189.0</ele><time>2026-04-26T08:20:55.806Z</time></trkpt><trkpt lat="45.5516004" lon="10.7875741"><ele>189.0</ele><time>2026-04-26T08:20:56.805Z</time></trkpt><trkpt lat="45.5516155" lon="10.7876743"><ele>189.0</ele><time>2026-04-26T08:20:57.805Z</time></trkpt><trkpt lat="45.55163" lon="10.7877667"><ele>189.0</ele><time>2026-04-26T08:20:58.806Z</time></trkpt><trkpt lat="45.5516548" lon="10.7879365"><ele>189.0</ele><time>2026-04-26T08:21:00.805Z</time></trkpt><trkpt lat="45.5516671" lon="10.7880256"><ele>189.0</ele><time>2026-04-26T08:21:01.807Z</time></trkpt><trkpt lat="45.5516816" lon="10.7881183"><ele>189.0</ele><time>2026-04-26T08:21:02.806Z</time></trkpt><trkpt lat="45.5516979" lon="10.7882192"><ele>189.79999999999998</ele><time>2026-04-26T08:21:03.807Z</time></trkpt><trkpt lat="45.5517094" lon="10.7883175"><ele>190.6</ele><time>2026-04-26T08:21:04.807Z</time></trkpt><trkpt lat="45.5517239" lon="10.7884392"><ele>191.4</ele><time>2026-04-26T08:21:05.806Z</time></trkpt><trkpt lat="45.5517336" lon="10.7885945"><ele>192.2</ele><time>2026-04-26T08:21:06.807Z</time></trkpt><trkpt lat="45.5517251" lon="10.7887879"><ele>193.0</ele><time>2026-04-26T08:21:07.806Z</time></trkpt><trkpt lat="45.5517037" lon="10.7889792"><ele>193.25</ele><time>2026-04-26T08:21:08.807Z</time></trkpt><trkpt lat="45.551672" lon="10.7891756"><ele>193.5</ele><time>2026-04-26T08:21:09.806Z</time></trkpt><trkpt lat="45.551631" lon="10.7893818"><ele>193.75</ele><time>2026-04-26T08:21:10.806Z</time></trkpt><trkpt lat="45.5515837" lon="10.7895843"><ele>194.0</ele><time>2026-04-26T08:21:11.806Z</time></trkpt><trkpt lat="45.5515316" lon="10.7897775"><ele>194.5</ele><time>2026-04-26T08:21:12.806Z</time></trkpt><trkpt lat="45.5514786" lon="10.7899631"><ele>195.0</ele><time>2026-04-26T08:21:13.806Z</time></trkpt><trkpt lat="45.5514287" lon="10.7901329"><ele>195.5</ele><time>2026-04-26T08:21:14.806Z</time></trkpt><trkpt lat="45.5513851" lon="10.790284"><ele>196.0</ele><time>2026-04-26T08:21:15.806Z</time></trkpt><trkpt lat="45.5513421" lon="10.7904245"><ele>196.0</ele><time>2026-04-26T08:21:16.806Z</time></trkpt><trkpt lat="45.5513017" lon="10.790559"><ele>196.0</ele><time>2026-04-26T08:21:17.807Z</time></trkpt><trkpt lat="45.5512636" lon="10.7907013"><ele>196.0</ele><time>2026-04-26T08:21:18.806Z</time></trkpt><trkpt lat="45.5512327" lon="10.7908325"><ele>196.0</ele><time>2026-04-26T08:21:19.806Z</time></trkpt><trkpt lat="45.5512066" lon="10.7909566"><ele>196.0</ele><time>2026-04-26T08:21:20.806Z</time></trkpt><trkpt lat="45.5511863" lon="10.7910544"><ele>195.28571428571428</ele><time>2026-04-26T08:21:21.806Z</time></trkpt><trkpt lat="45.5511614" lon="10.7911519"><ele>194.57142857142856</ele><time>2026-04-26T08:21:22.806Z</time></trkpt><trkpt lat="45.5511237" lon="10.791246"><ele>193.85714285714286</ele><time>2026-04-26T08:21:23.807Z</time></trkpt><trkpt lat="45.5510819" lon="10.7913234"><ele>193.14285714285714</ele><time>2026-04-26T08:21:24.807Z</time></trkpt><trkpt lat="45.5510529" lon="10.7914041"><ele>192.42857142857142</ele><time>2026-04-26T08:21:25.806Z</time></trkpt><trkpt lat="45.551032" lon="10.7914911"><ele>191.71428571428572</ele><time>2026-04-26T08:21:26.805Z</time></trkpt><trkpt lat="45.5510278" lon="10.7915913"><ele>191.0</ele><time>2026-04-26T08:21:27.806Z</time></trkpt><trkpt lat="45.5510375" lon="10.791706"><ele>191.0</ele><time>2026-04-26T08:21:28.807Z</time></trkpt><trkpt lat="45.5510465" lon="10.7918295"><ele>191.0</ele><time>2026-04-26T08:21:29.807Z</time></trkpt><trkpt lat="45.5510406" lon="10.7919644"><ele>191.0</ele><time>2026-04-26T08:21:30.807Z</time></trkpt><trkpt lat="45.5510334" lon="10.7920959"><ele>191.0</ele><time>2026-04-26T08:21:31.807Z</time></trkpt><trkpt lat="45.5510292" lon="10.7922376"><ele>191.0</ele><time>2026-04-26T08:21:32.806Z</time></trkpt><trkpt lat="45.5510245" lon="10.7923949"><ele>190.75</ele><time>2026-04-26T08:21:33.805Z</time></trkpt><trkpt lat="45.5510213" lon="10.7925571"><ele>190.5</ele><time>2026-04-26T08:21:34.807Z</time></trkpt><trkpt lat="45.5510189" lon="10.7927403"><ele>190.25</ele><time>2026-04-26T08:21:35.806Z</time></trkpt><trkpt lat="45.5510155" lon="10.7929312"><ele>190.0</ele><time>2026-04-26T08:21:36.806Z</time></trkpt><trkpt lat="45.5510118" lon="10.7931501"><ele>189.66666666666669</ele><time>2026-04-26T08:21:37.807Z</time></trkpt><trkpt lat="45.551006" lon="10.7933942"><ele>189.33333333333334</ele><time>2026-04-26T08:21:38.807Z</time></trkpt><trkpt lat="45.550993" lon="10.7936396"><ele>189.0</ele><time>2026-04-26T08:21:39.807Z</time></trkpt><trkpt lat="45.5509778" lon="10.7938575"><ele>188.5</ele><time>2026-04-26T08:21:40.806Z</time></trkpt><trkpt lat="45.5509652" lon="10.7940674"><ele>188.0</ele><time>2026-04-26T08:21:41.806Z</time></trkpt><trkpt lat="45.5509528" lon="10.7942636"><ele>187.5</ele><time>2026-04-26T08:21:42.806Z</time></trkpt><trkpt lat="45.5509416" lon="10.7944587"><ele>187.0</ele><time>2026-04-26T08:21:43.805Z</time></trkpt><trkpt lat="45.5509313" lon="10.7946632"><ele>186.75</ele><time>2026-04-26T08:21:44.806Z</time></trkpt><trkpt lat="45.5509186" lon="10.7948708"><ele>186.5</ele><time>2026-04-26T08:21:45.805Z</time></trkpt><trkpt lat="45.5509086" lon="10.795084"><ele>186.25</ele><time>2026-04-26T08:21:46.807Z</time></trkpt><trkpt lat="45.5509025" lon="10.7952965"><ele>186.0</ele><time>2026-04-26T08:21:47.807Z</time></trkpt><trkpt lat="45.550898" lon="10.7955092"><ele>186.0</ele><time>2026-04-26T08:21:48.807Z</time></trkpt><trkpt lat="45.5508945" lon="10.7957296"><ele>186.0</ele><time>2026-04-26T08:21:49.806Z</time></trkpt><trkpt lat="45.5508914" lon="10.7959607"><ele>186.0</ele><time>2026-04-26T08:21:50.806Z</time></trkpt><trkpt lat="45.5508874" lon="10.796197"><ele>186.0</ele><time>2026-04-26T08:21:51.807Z</time></trkpt><trkpt lat="45.5508826" lon="10.7964391"><ele>186.0</ele><time>2026-04-26T08:21:52.807Z</time></trkpt><trkpt lat="45.5508763" lon="10.7966833"><ele>186.0</ele><time>2026-04-26T08:21:53.806Z</time></trkpt><trkpt lat="45.5508694" lon="10.7969317"><ele>185.66666666666666</ele><time>2026-04-26T08:21:54.806Z</time></trkpt><trkpt lat="45.5508598" lon="10.7971816"><ele>185.33333333333331</ele><time>2026-04-26T08:21:55.806Z</time></trkpt><trkpt lat="45.55085" lon="10.797425"><ele>185.0</ele><time>2026-04-26T08:21:56.806Z</time></trkpt><trkpt lat="45.5508384" lon="10.7976621"><ele>185.33333333333331</ele><time>2026-04-26T08:21:57.807Z</time></trkpt><trkpt lat="45.550828" lon="10.7978872"><ele>185.66666666666666</ele><time>2026-04-26T08:21:58.806Z</time></trkpt><trkpt lat="45.5508184" lon="10.7981001"><ele>186.0</ele><time>2026-04-26T08:21:59.806Z</time></trkpt><trkpt lat="45.5508053" lon="10.7983219"><ele>185.66666666666666</ele><time>2026-04-26T08:22:00.807Z</time></trkpt><trkpt lat="45.5507913" lon="10.798545"><ele>185.33333333333331</ele><time>2026-04-26T08:22:01.806Z</time></trkpt><trkpt lat="45.550782" lon="10.7987717"><ele>185.0</ele><time>2026-04-26T08:22:02.806Z</time></trkpt><trkpt lat="45.5507754" lon="10.7989953"><ele>185.0</ele><time>2026-04-26T08:22:03.807Z</time></trkpt><trkpt lat="45.5507742" lon="10.7992169"><ele>185.0</ele><time>2026-04-26T08:22:04.807Z</time></trkpt><trkpt lat="45.5507768" lon="10.7994428"><ele>185.0</ele><time>2026-04-26T08:22:05.806Z</time></trkpt><trkpt lat="45.5507816" lon="10.7996632"><ele>184.66666666666666</ele><time>2026-04-26T08:22:06.805Z</time></trkpt><trkpt lat="45.5507899" lon="10.7998754"><ele>184.33333333333334</ele><time>2026-04-26T08:22:07.806Z</time></trkpt><trkpt lat="45.5508016" lon="10.8000962"><ele>184.0</ele><time>2026-04-26T08:22:08.807Z</time></trkpt><trkpt lat="45.5508147" lon="10.8003093"><ele>183.0</ele><time>2026-04-26T08:22:09.806Z</time></trkpt><trkpt lat="45.5508302" lon="10.8005171"><ele>182.0</ele><time>2026-04-26T08:22:10.806Z</time></trkpt><trkpt lat="45.5508474" lon="10.8007198"><ele>181.0</ele><time>2026-04-26T08:22:11.806Z</time></trkpt><trkpt lat="45.5508634" lon="10.8009221"><ele>180.0</ele><time>2026-04-26T08:22:12.805Z</time></trkpt><trkpt lat="45.5508761" lon="10.8011267"><ele>179.25</ele><time>2026-04-26T08:22:13.807Z</time></trkpt><trkpt lat="45.5508832" lon="10.8013273"><ele>178.5</ele><time>2026-04-26T08:22:14.806Z</time></trkpt><trkpt lat="45.5508837" lon="10.8015346"><ele>177.75</ele><time>2026-04-26T08:22:15.806Z</time></trkpt><trkpt lat="45.5508733" lon="10.8017396"><ele>177.0</ele><time>2026-04-26T08:22:16.807Z</time></trkpt><trkpt lat="45.5508548" lon="10.8019428"><ele>177.0</ele><time>2026-04-26T08:22:17.806Z</time></trkpt><trkpt lat="45.5508388" lon="10.8021397"><ele>177.0</ele><time>2026-04-26T08:22:18.807Z</time></trkpt><trkpt lat="45.5508214" lon="10.8023331"><ele>177.0</ele><time>2026-04-26T08:22:19.807Z</time></trkpt><trkpt lat="45.5507997" lon="10.8025186"><ele>177.0</ele><time>2026-04-26T08:22:20.806Z</time></trkpt><trkpt lat="45.5507692" lon="10.8026921"><ele>176.2</ele><time>2026-04-26T08:22:21.806Z</time></trkpt><trkpt lat="45.5507242" lon="10.8028514"><ele>175.39999999999998</ele><time>2026-04-26T08:22:22.807Z</time></trkpt><trkpt lat="45.5506717" lon="10.8029968"><ele>174.60000000000002</ele><time>2026-04-26T08:22:23.807Z</time></trkpt><trkpt lat="45.5506154" lon="10.803129"><ele>173.8</ele><time>2026-04-26T08:22:24.805Z</time></trkpt><trkpt lat="45.5505557" lon="10.8032483"><ele>173.0</ele><time>2026-04-26T08:22:25.807Z</time></trkpt><trkpt lat="45.5504943" lon="10.8033569"><ele>173.0</ele><time>2026-04-26T08:22:26.806Z</time></trkpt><trkpt lat="45.5504386" lon="10.8034547"><ele>173.0</ele><time>2026-04-26T08:22:27.806Z</time></trkpt><trkpt lat="45.5504011" lon="10.8035383"><ele>173.0</ele><time>2026-04-26T08:22:28.805Z</time></trkpt><trkpt lat="45.550373" lon="10.8036779"><ele>173.0</ele><time>2026-04-26T08:22:30.806Z</time></trkpt><trkpt lat="45.5503976" lon="10.8038024"><ele>173.0</ele><time>2026-04-26T08:22:32.806Z</time></trkpt><trkpt lat="45.5504456" lon="10.8038638"><ele>173.0</ele><time>2026-04-26T08:22:34.807Z</time></trkpt><trkpt lat="45.5505315" lon="10.8039422"><ele>172.60000000000002</ele><time>2026-04-26T08:22:41.806Z</time></trkpt><trkpt lat="45.5506025" lon="10.8039799"><ele>172.20000000000002</ele><time>2026-04-26T08:22:42.805Z</time></trkpt><trkpt lat="45.5506808" lon="10.8039977"><ele>171.8</ele><time>2026-04-26T08:22:43.805Z</time></trkpt><trkpt lat="45.5507757" lon="10.8040078"><ele>171.4</ele><time>2026-04-26T08:22:44.807Z</time></trkpt><trkpt lat="45.5508813" lon="10.8040076"><ele>171.0</ele><time>2026-04-26T08:22:45.807Z</time></trkpt><trkpt lat="45.5509977" lon="10.8039999"><ele>171.0</ele><time>2026-04-26T08:22:46.806Z</time></trkpt><trkpt lat="45.5511263" lon="10.80399"><ele>171.0</ele><time>2026-04-26T08:22:47.807Z</time></trkpt><trkpt lat="45.5512659" lon="10.8039795"><ele>171.0</ele><time>2026-04-26T08:22:48.806Z</time></trkpt><trkpt lat="45.5514101" lon="10.8039703"><ele>171.0</ele><time>2026-04-26T08:22:49.807Z</time></trkpt><trkpt lat="45.5515588" lon="10.8039621"><ele>171.33333333333334</ele><time>2026-04-26T08:22:50.806Z</time></trkpt><trkpt lat="45.5517173" lon="10.8039531"><ele>171.66666666666669</ele><time>2026-04-26T08:22:51.805Z</time></trkpt><trkpt lat="45.5518836" lon="10.803942"><ele>172.0</ele><time>2026-04-26T08:22:52.805Z</time></trkpt><trkpt lat="45.5520579" lon="10.8039276"><ele>172.0</ele><time>2026-04-26T08:22:53.807Z</time></trkpt><trkpt lat="45.55223" lon="10.8039093"><ele>172.0</ele><time>2026-04-26T08:22:54.807Z</time></trkpt><trkpt lat="45.552407" lon="10.8038869"><ele>172.0</ele><time>2026-04-26T08:22:55.806Z</time></trkpt><trkpt lat="45.552588" lon="10.8038566"><ele>172.0</ele><time>2026-04-26T08:22:56.805Z</time></trkpt><trkpt lat="45.5527732" lon="10.8038193"><ele>172.0</ele><time>2026-04-26T08:22:57.806Z</time></trkpt><trkpt lat="45.5529506" lon="10.8037861"><ele>172.0</ele><time>2026-04-26T08:22:58.806Z</time></trkpt><trkpt lat="45.5531166" lon="10.8037562"><ele>173.0</ele><time>2026-04-26T08:22:59.806Z</time></trkpt><trkpt lat="45.5532732" lon="10.8037286"><ele>174.0</ele><time>2026-04-26T08:23:00.806Z</time></trkpt><trkpt lat="45.5534241" lon="10.803699"><ele>175.0</ele><time>2026-04-26T08:23:01.806Z</time></trkpt><trkpt lat="45.5535697" lon="10.8036694"><ele>175.0</ele><time>2026-04-26T08:23:02.806Z</time></trkpt><trkpt lat="45.5537128" lon="10.8036455"><ele>175.0</ele><time>2026-04-26T08:23:03.807Z</time></trkpt><trkpt lat="45.5538584" lon="10.8036285"><ele>175.0</ele><time>2026-04-26T08:23:04.807Z</time></trkpt><trkpt lat="45.5540118" lon="10.8036199"><ele>175.0</ele><time>2026-04-26T08:23:05.807Z</time></trkpt><trkpt lat="45.5541686" lon="10.8036192"><ele>175.0</ele><time>2026-04-26T08:23:06.805Z</time></trkpt><trkpt lat="45.5543326" lon="10.8036267"><ele>175.0</ele><time>2026-04-26T08:23:07.807Z</time></trkpt><trkpt lat="45.5544968" lon="10.8036404"><ele>175.0</ele><time>2026-04-26T08:23:08.806Z</time></trkpt><trkpt lat="45.5546649" lon="10.8036543"><ele>176.0</ele><time>2026-04-26T08:23:09.807Z</time></trkpt><trkpt lat="45.5548333" lon="10.8036539"><ele>177.0</ele><time>2026-04-26T08:23:10.805Z</time></trkpt><trkpt lat="45.5549977" lon="10.8036301"><ele>178.0</ele><time>2026-04-26T08:23:11.805Z</time></trkpt><trkpt lat="45.5551612" lon="10.8035796"><ele>178.0</ele><time>2026-04-26T08:23:12.805Z</time></trkpt><trkpt lat="45.5553171" lon="10.8035043"><ele>178.0</ele><time>2026-04-26T08:23:13.806Z</time></trkpt><trkpt lat="45.5554541" lon="10.8034162"><ele>178.0</ele><time>2026-04-26T08:23:14.806Z</time></trkpt><trkpt lat="45.5555784" lon="10.803323"><ele>178.0</ele><time>2026-04-26T08:23:15.805Z</time></trkpt><trkpt lat="45.5556948" lon="10.8032257"><ele>178.0</ele><time>2026-04-26T08:23:16.805Z</time></trkpt><trkpt lat="45.5558085" lon="10.8031264"><ele>178.0</ele><time>2026-04-26T08:23:17.805Z</time></trkpt><trkpt lat="45.5559208" lon="10.8030268"><ele>178.0</ele><time>2026-04-26T08:23:18.806Z</time></trkpt><trkpt lat="45.5560303" lon="10.8029257"><ele>178.0</ele><time>2026-04-26T08:23:19.807Z</time></trkpt><trkpt lat="45.5561371" lon="10.802825"><ele>178.0</ele><time>2026-04-26T08:23:20.807Z</time></trkpt><trkpt lat="45.556238" lon="10.8027287"><ele>178.0</ele><time>2026-04-26T08:23:21.806Z</time></trkpt><trkpt lat="45.556338" lon="10.8026347"><ele>178.0</ele><time>2026-04-26T08:23:22.806Z</time></trkpt><trkpt lat="45.556447" lon="10.8025366"><ele>178.5</ele><time>2026-04-26T08:23:23.807Z</time></trkpt><trkpt lat="45.5565647" lon="10.802433"><ele>179.0</ele><time>2026-04-26T08:23:24.806Z</time></trkpt><trkpt lat="45.5566919" lon="10.8023215"><ele>179.5</ele><time>2026-04-26T08:23:25.805Z</time></trkpt><trkpt lat="45.5568222" lon="10.8022082"><ele>180.0</ele><time>2026-04-26T08:23:26.806Z</time></trkpt><trkpt lat="45.55695" lon="10.8020924"><ele>180.75</ele><time>2026-04-26T08:23:27.806Z</time></trkpt><trkpt lat="45.5570723" lon="10.8019772"><ele>181.5</ele><time>2026-04-26T08:23:28.806Z</time></trkpt><trkpt lat="45.5571957" lon="10.8018572"><ele>182.25</ele><time>2026-04-26T08:23:29.807Z</time></trkpt><trkpt lat="45.5573153" lon="10.8017375"><ele>183.0</ele><time>2026-04-26T08:23:30.806Z</time></trkpt><trkpt lat="45.5574364" lon="10.801622"><ele>183.0</ele><time>2026-04-26T08:23:31.806Z</time></trkpt><trkpt lat="45.5575606" lon="10.8015173"><ele>183.0</ele><time>2026-04-26T08:23:32.806Z</time></trkpt><trkpt lat="45.5576816" lon="10.8014299"><ele>183.0</ele><time>2026-04-26T08:23:33.807Z</time></trkpt><trkpt lat="45.5577863" lon="10.8013519"><ele>183.0</ele><time>2026-04-26T08:23:34.807Z</time></trkpt><trkpt lat="45.5578745" lon="10.8012892"><ele>183.33333333333334</ele><time>2026-04-26T08:23:35.806Z</time></trkpt><trkpt lat="45.5579602" lon="10.8012255"><ele>183.66666666666666</ele><time>2026-04-26T08:23:36.805Z</time></trkpt><trkpt lat="45.5580398" lon="10.8011634"><ele>184.0</ele><time>2026-04-26T08:23:37.806Z</time></trkpt><trkpt lat="45.5581215" lon="10.8010983"><ele>184.33333333333331</ele><time>2026-04-26T08:23:38.806Z</time></trkpt><trkpt lat="45.5581935" lon="10.8010396"><ele>184.66666666666666</ele><time>2026-04-26T08:23:39.806Z</time></trkpt><trkpt lat="45.558259" lon="10.8009837"><ele>185.0</ele><time>2026-04-26T08:23:40.806Z</time></trkpt><trkpt lat="45.5583185" lon="10.8009292"><ele>185.0</ele><time>2026-04-26T08:23:41.807Z</time></trkpt><trkpt lat="45.5583802" lon="10.8008732"><ele>185.0</ele><time>2026-04-26T08:23:42.806Z</time></trkpt><trkpt lat="45.5584448" lon="10.80081"><ele>185.0</ele><time>2026-04-26T08:23:43.807Z</time></trkpt><trkpt lat="45.5585117" lon="10.8007361"><ele>185.0</ele><time>2026-04-26T08:23:44.806Z</time></trkpt><trkpt lat="45.5585777" lon="10.8006573"><ele>185.0</ele><time>2026-04-26T08:23:45.807Z</time></trkpt><trkpt lat="45.5586476" lon="10.8005706"><ele>185.0</ele><time>2026-04-26T08:23:46.807Z</time></trkpt><trkpt lat="45.558721" lon="10.8004831"><ele>185.0</ele><time>2026-04-26T08:23:47.806Z</time></trkpt><trkpt lat="45.5587905" lon="10.8003951"><ele>185.0</ele><time>2026-04-26T08:23:48.805Z</time></trkpt><trkpt lat="45.5588983" lon="10.8002813"><ele>185.0</ele><time>2026-04-26T08:23:49.807Z</time></trkpt><trkpt lat="45.5589925" lon="10.800179"><ele>185.0</ele><time>2026-04-26T08:23:50.806Z</time></trkpt><trkpt lat="45.5590901" lon="10.800098"><ele>185.0</ele><time>2026-04-26T08:23:51.805Z</time></trkpt><trkpt lat="45.5591999" lon="10.8000218"><ele>185.0</ele><time>2026-04-26T08:23:52.806Z</time></trkpt><trkpt lat="45.5593208" lon="10.7999638"><ele>185.0</ele><time>2026-04-26T08:23:53.807Z</time></trkpt><trkpt lat="45.5594551" lon="10.7999179"><ele>185.0</ele><time>2026-04-26T08:23:54.806Z</time></trkpt><trkpt lat="45.5595966" lon="10.7998951"><ele>185.25</ele><time>2026-04-26T08:23:55.806Z</time></trkpt><trkpt lat="45.5597417" lon="10.7998962"><ele>185.5</ele><time>2026-04-26T08:23:56.805Z</time></trkpt><trkpt lat="45.5598885" lon="10.799913"><ele>185.75</ele><time>2026-04-26T08:23:57.806Z</time></trkpt><trkpt lat="45.5600387" lon="10.7999308"><ele>186.0</ele><time>2026-04-26T08:23:58.806Z</time></trkpt><trkpt lat="45.5601907" lon="10.7999454"><ele>186.0</ele><time>2026-04-26T08:23:59.807Z</time></trkpt><trkpt lat="45.5603435" lon="10.7999605"><ele>186.0</ele><time>2026-04-26T08:24:00.807Z</time></trkpt><trkpt lat="45.5604942" lon="10.7999771"><ele>186.0</ele><time>2026-04-26T08:24:01.805Z</time></trkpt><trkpt lat="45.5606484" lon="10.7999948"><ele>185.66666666666666</ele><time>2026-04-26T08:24:02.806Z</time></trkpt><trkpt lat="45.5608031" lon="10.8000141"><ele>185.33333333333331</ele><time>2026-04-26T08:24:03.806Z</time></trkpt><trkpt lat="45.560959" lon="10.8000304"><ele>185.0</ele><time>2026-04-26T08:24:04.806Z</time></trkpt><trkpt lat="45.5611131" lon="10.8000459"><ele>185.33333333333331</ele><time>2026-04-26T08:24:05.807Z</time></trkpt><trkpt lat="45.5612764" lon="10.8000628"><ele>185.66666666666666</ele><time>2026-04-26T08:24:06.807Z</time></trkpt><trkpt lat="45.561442" lon="10.8000793"><ele>186.0</ele><time>2026-04-26T08:24:07.805Z</time></trkpt><trkpt lat="45.5615984" lon="10.8000969"><ele>186.0</ele><time>2026-04-26T08:24:08.806Z</time></trkpt><trkpt lat="45.5617563" lon="10.8001184"><ele>186.0</ele><time>2026-04-26T08:24:09.806Z</time></trkpt><trkpt lat="45.5619151" lon="10.8001448"><ele>186.0</ele><time>2026-04-26T08:24:10.806Z</time></trkpt><trkpt lat="45.5620752" lon="10.8001703"><ele>186.66666666666666</ele><time>2026-04-26T08:24:11.805Z</time></trkpt><trkpt lat="45.5622375" lon="10.8001981"><ele>187.33333333333331</ele><time>2026-04-26T08:24:12.806Z</time></trkpt><trkpt lat="45.5624031" lon="10.8002335"><ele>188.0</ele><time>2026-04-26T08:24:13.807Z</time></trkpt><trkpt lat="45.562571" lon="10.8002757"><ele>188.0</ele><time>2026-04-26T08:24:14.807Z</time></trkpt><trkpt lat="45.5627409" lon="10.8003249"><ele>188.0</ele><time>2026-04-26T08:24:15.806Z</time></trkpt><trkpt lat="45.56291" lon="10.8003825"><ele>188.0</ele><time>2026-04-26T08:24:16.806Z</time></trkpt><trkpt lat="45.5630775" lon="10.8004538"><ele>189.0</ele><time>2026-04-26T08:24:17.806Z</time></trkpt><trkpt lat="45.5632428" lon="10.8005409"><ele>190.0</ele><time>2026-04-26T08:24:18.806Z</time></trkpt><trkpt lat="45.5634031" lon="10.800642"><ele>191.0</ele><time>2026-04-26T08:24:19.805Z</time></trkpt><trkpt lat="45.5635594" lon="10.800755"><ele>191.0</ele><time>2026-04-26T08:24:20.806Z</time></trkpt><trkpt lat="45.5637122" lon="10.8008784"><ele>191.0</ele><time>2026-04-26T08:24:21.807Z</time></trkpt><trkpt lat="45.5638638" lon="10.8010029"><ele>191.0</ele><time>2026-04-26T08:24:22.807Z</time></trkpt><trkpt lat="45.5640163" lon="10.8011262"><ele>190.33333333333331</ele><time>2026-04-26T08:24:23.807Z</time></trkpt><trkpt lat="45.5641661" lon="10.8012525"><ele>189.66666666666666</ele><time>2026-04-26T08:24:24.805Z</time></trkpt><trkpt lat="45.5643159" lon="10.8013792"><ele>189.0</ele><time>2026-04-26T08:24:25.806Z</time></trkpt><trkpt lat="45.5644739" lon="10.8014964"><ele>189.66666666666666</ele><time>2026-04-26T08:24:26.807Z</time></trkpt><trkpt lat="45.5646375" lon="10.8016048"><ele>190.33333333333331</ele><time>2026-04-26T08:24:27.807Z</time></trkpt><trkpt lat="45.5648067" lon="10.8017001"><ele>191.0</ele><time>2026-04-26T08:24:28.807Z</time></trkpt><trkpt lat="45.5649833" lon="10.8017778"><ele>191.0</ele><time>2026-04-26T08:24:29.807Z</time></trkpt><trkpt lat="45.5651653" lon="10.8018377"><ele>191.0</ele><time>2026-04-26T08:24:30.805Z</time></trkpt><trkpt lat="45.5653527" lon="10.8018829"><ele>191.0</ele><time>2026-04-26T08:24:31.806Z</time></trkpt><trkpt lat="45.5655473" lon="10.8019283"><ele>191.0</ele><time>2026-04-26T08:24:32.805Z</time></trkpt><trkpt lat="45.5657495" lon="10.8019778"><ele>191.0</ele><time>2026-04-26T08:24:33.806Z</time></trkpt><trkpt lat="45.5659475" lon="10.8020302"><ele>191.0</ele><time>2026-04-26T08:24:34.806Z</time></trkpt><trkpt lat="45.5661516" lon="10.8020833"><ele>190.66666666666666</ele><time>2026-04-26T08:24:35.807Z</time></trkpt><trkpt lat="45.5663558" lon="10.8021369"><ele>190.33333333333334</ele><time>2026-04-26T08:24:36.806Z</time></trkpt><trkpt lat="45.5665537" lon="10.8021846"><ele>190.0</ele><time>2026-04-26T08:24:37.807Z</time></trkpt><trkpt lat="45.5667509" lon="10.8022204"><ele>190.0</ele><time>2026-04-26T08:24:38.807Z</time></trkpt><trkpt lat="45.5669484" lon="10.8022455"><ele>190.0</ele><time>2026-04-26T08:24:39.807Z</time></trkpt><trkpt lat="45.5671414" lon="10.8022606"><ele>190.0</ele><time>2026-04-26T08:24:40.806Z</time></trkpt><trkpt lat="45.567328" lon="10.8022636"><ele>190.33333333333334</ele><time>2026-04-26T08:24:41.806Z</time></trkpt><trkpt lat="45.5675108" lon="10.8022562"><ele>190.66666666666666</ele><time>2026-04-26T08:24:42.806Z</time></trkpt><trkpt lat="45.5676958" lon="10.8022368"><ele>191.0</ele><time>2026-04-26T08:24:43.806Z</time></trkpt><trkpt lat="45.5678746" lon="10.8022113"><ele>191.0</ele><time>2026-04-26T08:24:44.806Z</time></trkpt><trkpt lat="45.5680512" lon="10.8021852"><ele>191.0</ele><time>2026-04-26T08:24:45.806Z</time></trkpt><trkpt lat="45.5682167" lon="10.8021648"><ele>191.0</ele><time>2026-04-26T08:24:46.805Z</time></trkpt><trkpt lat="45.5683811" lon="10.802151"><ele>191.0</ele><time>2026-04-26T08:24:47.807Z</time></trkpt><trkpt lat="45.5685402" lon="10.8021432"><ele>191.0</ele><time>2026-04-26T08:24:48.806Z</time></trkpt><trkpt lat="45.5686898" lon="10.80214"><ele>191.0</ele><time>2026-04-26T08:24:49.807Z</time></trkpt><trkpt lat="45.5688358" lon="10.8021432"><ele>192.0</ele><time>2026-04-26T08:24:50.807Z</time></trkpt><trkpt lat="45.5689842" lon="10.8021539"><ele>193.0</ele><time>2026-04-26T08:24:51.806Z</time></trkpt><trkpt lat="45.56913" lon="10.8021766"><ele>194.0</ele><time>2026-04-26T08:24:52.807Z</time></trkpt><trkpt lat="45.5692911" lon="10.8022129"><ele>194.0</ele><time>2026-04-26T08:24:53.806Z</time></trkpt><trkpt lat="45.5694539" lon="10.8022637"><ele>194.0</ele><time>2026-04-26T08:24:54.807Z</time></trkpt><trkpt lat="45.5696084" lon="10.8023253"><ele>194.0</ele><time>2026-04-26T08:24:55.807Z</time></trkpt><trkpt lat="45.5697637" lon="10.8023904"><ele>193.33333333333334</ele><time>2026-04-26T08:24:56.807Z</time></trkpt><trkpt lat="45.5699199" lon="10.8024552"><ele>192.66666666666669</ele><time>2026-04-26T08:24:57.807Z</time></trkpt><trkpt lat="45.5700775" lon="10.8025158"><ele>192.0</ele><time>2026-04-26T08:24:58.807Z</time></trkpt><trkpt lat="45.5702363" lon="10.8025749"><ele>192.0</ele><time>2026-04-26T08:24:59.806Z</time></trkpt><trkpt lat="45.5703999" lon="10.8026281"><ele>192.0</ele><time>2026-04-26T08:25:00.806Z</time></trkpt><trkpt lat="45.5705817" lon="10.8026895"><ele>192.0</ele><time>2026-04-26T08:25:01.807Z</time></trkpt><trkpt lat="45.570788" lon="10.8027649"><ele>192.0</ele><time>2026-04-26T08:25:02.806Z</time></trkpt><trkpt lat="45.5709953" lon="10.8028492"><ele>192.0</ele><time>2026-04-26T08:25:03.806Z</time></trkpt><trkpt lat="45.5712156" lon="10.8029455"><ele>192.0</ele><time>2026-04-26T08:25:04.806Z</time></trkpt><trkpt lat="45.5714511" lon="10.8030533"><ele>193.0</ele><time>2026-04-26T08:25:05.807Z</time></trkpt><trkpt lat="45.5716819" lon="10.803163"><ele>194.0</ele><time>2026-04-26T08:25:06.806Z</time></trkpt><trkpt lat="45.5718992" lon="10.8032668"><ele>194.66666666666669</ele><time>2026-04-26T08:25:07.806Z</time></trkpt><trkpt lat="45.5721071" lon="10.8033661"><ele>195.33333333333331</ele><time>2026-04-26T08:25:08.806Z</time></trkpt><trkpt lat="45.5722958" lon="10.8034536"><ele>196.0</ele><time>2026-04-26T08:25:09.807Z</time></trkpt><trkpt lat="45.5724745" lon="10.8035373"><ele>195.25</ele><time>2026-04-26T08:25:10.807Z</time></trkpt><trkpt lat="45.572634" lon="10.8036098"><ele>194.5</ele><time>2026-04-26T08:25:11.807Z</time></trkpt><trkpt lat="45.5727679" lon="10.8036699"><ele>193.75</ele><time>2026-04-26T08:25:12.807Z</time></trkpt><trkpt lat="45.5728869" lon="10.8037263"><ele>193.0</ele><time>2026-04-26T08:25:13.805Z</time></trkpt><trkpt lat="45.5730056" lon="10.8037812"><ele>193.0</ele><time>2026-04-26T08:25:14.807Z</time></trkpt><trkpt lat="45.5731149" lon="10.8038329"><ele>193.0</ele><time>2026-04-26T08:25:15.806Z</time></trkpt><trkpt lat="45.5732164" lon="10.8038824"><ele>193.0</ele><time>2026-04-26T08:25:16.806Z</time></trkpt><trkpt lat="45.5733043" lon="10.8039222"><ele>193.0</ele><time>2026-04-26T08:25:17.806Z</time></trkpt><trkpt lat="45.5733883" lon="10.8039589"><ele>193.0</ele><time>2026-04-26T08:25:18.804Z</time></trkpt><trkpt lat="45.5734679" lon="10.8039923"><ele>192.99999999999997</ele><time>2026-04-26T08:25:19.806Z</time></trkpt><trkpt lat="45.57354" lon="10.8040187"><ele>193.0</ele><time>2026-04-26T08:25:20.805Z</time></trkpt><trkpt lat="45.5736055" lon="10.8040374"><ele>193.0</ele><time>2026-04-26T08:25:21.807Z</time></trkpt><trkpt lat="45.5736712" lon="10.8040527"><ele>193.0</ele><time>2026-04-26T08:25:22.807Z</time></trkpt><trkpt lat="45.5737387" lon="10.8040605"><ele>192.99999999999997</ele><time>2026-04-26T08:25:23.807Z</time></trkpt><trkpt lat="45.5738025" lon="10.804064"><ele>193.0</ele><time>2026-04-26T08:25:24.805Z</time></trkpt><trkpt lat="45.5739153" lon="10.8040853"><ele>193.2</ele><time>2026-04-26T08:25:26.806Z</time></trkpt><trkpt lat="45.5740336" lon="10.8041553"><ele>193.4</ele><time>2026-04-26T08:25:28.806Z</time></trkpt><trkpt lat="45.5741056" lon="10.8041791"><ele>193.6</ele><time>2026-04-26T08:25:29.807Z</time></trkpt><trkpt lat="45.5741858" lon="10.8041836"><ele>193.79999999999998</ele><time>2026-04-26T08:25:30.807Z</time></trkpt><trkpt lat="45.5742736" lon="10.8041713"><ele>194.0</ele><time>2026-04-26T08:25:31.806Z</time></trkpt><trkpt lat="45.5743731" lon="10.8041511"><ele>194.0</ele><time>2026-04-26T08:25:32.807Z</time></trkpt><trkpt lat="45.5744732" lon="10.804136"><ele>194.0</ele><time>2026-04-26T08:25:33.806Z</time></trkpt><trkpt lat="45.5745852" lon="10.804112"><ele>194.0</ele><time>2026-04-26T08:25:34.805Z</time></trkpt><trkpt lat="45.5747062" lon="10.8040739"><ele>194.0</ele><time>2026-04-26T08:25:35.807Z</time></trkpt><trkpt lat="45.5748325" lon="10.8040268"><ele>193.25</ele><time>2026-04-26T08:25:36.806Z</time></trkpt><trkpt lat="45.5749614" lon="10.8039829"><ele>192.5</ele><time>2026-04-26T08:25:37.805Z</time></trkpt><trkpt lat="45.5750901" lon="10.8039491"><ele>191.75</ele><time>2026-04-26T08:25:38.806Z</time></trkpt><trkpt lat="45.5752238" lon="10.803931"><ele>191.0</ele><time>2026-04-26T08:25:39.805Z</time></trkpt><trkpt lat="45.5753602" lon="10.8039333"><ele>190.25</ele><time>2026-04-26T08:25:40.806Z</time></trkpt><trkpt lat="45.5754995" lon="10.803955"><ele>189.5</ele><time>2026-04-26T08:25:41.807Z</time></trkpt><trkpt lat="45.5756412" lon="10.8039942"><ele>188.75</ele><time>2026-04-26T08:25:42.807Z</time></trkpt><trkpt lat="45.5757816" lon="10.8040577"><ele>188.0</ele><time>2026-04-26T08:25:43.807Z</time></trkpt><trkpt lat="45.5759219" lon="10.8041474"><ele>188.0</ele><time>2026-04-26T08:25:44.805Z</time></trkpt><trkpt lat="45.5760622" lon="10.8042567"><ele>188.0</ele><time>2026-04-26T08:25:45.806Z</time></trkpt><trkpt lat="45.5761934" lon="10.8043771"><ele>188.0</ele><time>2026-04-26T08:25:46.807Z</time></trkpt><trkpt lat="45.5763284" lon="10.8045133"><ele>188.0</ele><time>2026-04-26T08:25:47.805Z</time></trkpt><trkpt lat="45.576472" lon="10.8046606"><ele>188.0</ele><time>2026-04-26T08:25:48.807Z</time></trkpt><trkpt lat="45.5766355" lon="10.8048217"><ele>188.0</ele><time>2026-04-26T08:25:49.806Z</time></trkpt><trkpt lat="45.5768137" lon="10.805001"><ele>186.5</ele><time>2026-04-26T08:25:50.805Z</time></trkpt><trkpt lat="45.5770052" lon="10.8052027"><ele>185.0</ele><time>2026-04-26T08:25:51.807Z</time></trkpt><trkpt lat="45.5771862" lon="10.8054011"><ele>185.0</ele><time>2026-04-26T08:25:52.806Z</time></trkpt><trkpt lat="45.5773589" lon="10.8055908"><ele>185.0</ele><time>2026-04-26T08:25:53.806Z</time></trkpt><trkpt lat="45.5775301" lon="10.8057799"><ele>185.0</ele><time>2026-04-26T08:25:54.807Z</time></trkpt><trkpt lat="45.5777003" lon="10.8059679"><ele>184.33333333333331</ele><time>2026-04-26T08:25:55.806Z</time></trkpt><trkpt lat="45.5778646" lon="10.8061456"><ele>183.66666666666666</ele><time>2026-04-26T08:25:56.806Z</time></trkpt><trkpt lat="45.578019" lon="10.806309"><ele>183.0</ele><time>2026-04-26T08:25:57.805Z</time></trkpt><trkpt lat="45.5781644" lon="10.8064616"><ele>183.0</ele><time>2026-04-26T08:25:58.807Z</time></trkpt><trkpt lat="45.5782993" lon="10.8065991"><ele>183.0</ele><time>2026-04-26T08:25:59.807Z</time></trkpt><trkpt lat="45.5784339" lon="10.8067319"><ele>183.0</ele><time>2026-04-26T08:26:00.807Z</time></trkpt><trkpt lat="45.5785764" lon="10.8068641"><ele>183.33333333333334</ele><time>2026-04-26T08:26:01.807Z</time></trkpt><trkpt lat="45.5787314" lon="10.8069921"><ele>183.66666666666669</ele><time>2026-04-26T08:26:02.806Z</time></trkpt><trkpt lat="45.5788995" lon="10.8071152"><ele>184.0</ele><time>2026-04-26T08:26:03.807Z</time></trkpt><trkpt lat="45.579067" lon="10.8072256"><ele>184.0</ele><time>2026-04-26T08:26:04.806Z</time></trkpt><trkpt lat="45.5792307" lon="10.807327"><ele>184.0</ele><time>2026-04-26T08:26:05.805Z</time></trkpt><trkpt lat="45.5793934" lon="10.8074197"><ele>184.0</ele><time>2026-04-26T08:26:06.806Z</time></trkpt><trkpt lat="45.5795575" lon="10.8075076"><ele>184.0</ele><time>2026-04-26T08:26:07.806Z</time></trkpt><trkpt lat="45.5797215" lon="10.807593"><ele>184.0</ele><time>2026-04-26T08:26:08.806Z</time></trkpt><trkpt lat="45.5798864" lon="10.8076759"><ele>184.0</ele><time>2026-04-26T08:26:09.806Z</time></trkpt><trkpt lat="45.5800511" lon="10.8077533"><ele>184.0</ele><time>2026-04-26T08:26:10.807Z</time></trkpt><trkpt lat="45.5802134" lon="10.8078192"><ele>184.0</ele><time>2026-04-26T08:26:11.806Z</time></trkpt><trkpt lat="45.5803779" lon="10.8078769"><ele>184.0</ele><time>2026-04-26T08:26:12.806Z</time></trkpt><trkpt lat="45.5805454" lon="10.8079291"><ele>184.66666666666669</ele><time>2026-04-26T08:26:13.806Z</time></trkpt><trkpt lat="45.5807157" lon="10.807975"><ele>185.33333333333334</ele><time>2026-04-26T08:26:14.807Z</time></trkpt><trkpt lat="45.5808913" lon="10.8080197"><ele>186.0</ele><time>2026-04-26T08:26:15.806Z</time></trkpt><trkpt lat="45.5810788" lon="10.8080621"><ele>185.66666666666666</ele><time>2026-04-26T08:26:16.807Z</time></trkpt><trkpt lat="45.5812954" lon="10.808112"><ele>185.33333333333331</ele><time>2026-04-26T08:26:17.807Z</time></trkpt><trkpt lat="45.5815033" lon="10.8081758"><ele>185.0</ele><time>2026-04-26T08:26:18.807Z</time></trkpt><trkpt lat="45.5816988" lon="10.8082404"><ele>185.0</ele><time>2026-04-26T08:26:19.806Z</time></trkpt><trkpt lat="45.5818835" lon="10.8082951"><ele>185.0</ele><time>2026-04-26T08:26:20.805Z</time></trkpt><trkpt lat="45.5820595" lon="10.8083454"><ele>185.0</ele><time>2026-04-26T08:26:21.807Z</time></trkpt><trkpt lat="45.5822256" lon="10.8083915"><ele>185.33333333333331</ele><time>2026-04-26T08:26:22.805Z</time></trkpt><trkpt lat="45.5823856" lon="10.808438"><ele>185.66666666666666</ele><time>2026-04-26T08:26:23.807Z</time></trkpt><trkpt lat="45.5825447" lon="10.8085003"><ele>186.0</ele><time>2026-04-26T08:26:24.807Z</time></trkpt><trkpt lat="45.5826942" lon="10.8085806"><ele>186.0</ele><time>2026-04-26T08:26:25.807Z</time></trkpt><trkpt lat="45.5828303" lon="10.8086667"><ele>186.0</ele><time>2026-04-26T08:26:26.807Z</time></trkpt><trkpt lat="45.5829605" lon="10.8087559"><ele>186.0</ele><time>2026-04-26T08:26:27.806Z</time></trkpt><trkpt lat="45.5830891" lon="10.8088469"><ele>186.0</ele><time>2026-04-26T08:26:28.806Z</time></trkpt><trkpt lat="45.5832135" lon="10.808939"><ele>185.75</ele><time>2026-04-26T08:26:29.807Z</time></trkpt><trkpt lat="45.5833319" lon="10.8090228"><ele>185.5</ele><time>2026-04-26T08:26:30.806Z</time></trkpt><trkpt lat="45.5834464" lon="10.809102"><ele>185.25</ele><time>2026-04-26T08:26:31.807Z</time></trkpt><trkpt lat="45.5835522" lon="10.8091734"><ele>185.0</ele><time>2026-04-26T08:26:32.806Z</time></trkpt><trkpt lat="45.583653" lon="10.8092405"><ele>185.0</ele><time>2026-04-26T08:26:33.805Z</time></trkpt><trkpt lat="45.5837469" lon="10.8093059"><ele>185.0</ele><time>2026-04-26T08:26:34.805Z</time></trkpt><trkpt lat="45.5838302" lon="10.8093664"><ele>185.0</ele><time>2026-04-26T08:26:35.806Z</time></trkpt><trkpt lat="45.5838958" lon="10.8094174"><ele>185.0</ele><time>2026-04-26T08:26:36.806Z</time></trkpt><trkpt lat="45.5839834" lon="10.8094839"><ele>185.0</ele><time>2026-04-26T08:26:38.807Z</time></trkpt><trkpt lat="45.584079" lon="10.8095375"><ele>185.0</ele><time>2026-04-26T08:26:41.805Z</time></trkpt><trkpt lat="45.5841445" lon="10.8095874"><ele>185.0</ele><time>2026-04-26T08:26:43.806Z</time></trkpt><trkpt lat="45.5842207" lon="10.8096409"><ele>185.0</ele><time>2026-04-26T08:27:07.807Z</time></trkpt><trkpt lat="45.5842819" lon="10.809673"><ele>185.0</ele><time>2026-04-26T08:27:08.807Z</time></trkpt><trkpt lat="45.5843739" lon="10.8097446"><ele>185.0</ele><time>2026-04-26T08:27:09.806Z</time></trkpt><trkpt lat="45.5844604" lon="10.80984"><ele>185.0</ele><time>2026-04-26T08:27:10.806Z</time></trkpt><trkpt lat="45.5845477" lon="10.8099796"><ele>185.75</ele><time>2026-04-26T08:27:11.807Z</time></trkpt><trkpt lat="45.5846315" lon="10.8101378"><ele>186.5</ele><time>2026-04-26T08:27:12.806Z</time></trkpt><trkpt lat="45.5847135" lon="10.8102891"><ele>187.25</ele><time>2026-04-26T08:27:13.805Z</time></trkpt><trkpt lat="45.5847962" lon="10.8104227"><ele>188.0</ele><time>2026-04-26T08:27:14.806Z</time></trkpt><trkpt lat="45.5848814" lon="10.8105595"><ele>188.0</ele><time>2026-04-26T08:27:15.807Z</time></trkpt><trkpt lat="45.5849719" lon="10.8107017"><ele>188.0</ele><time>2026-04-26T08:27:16.806Z</time></trkpt><trkpt lat="45.5850656" lon="10.8108533"><ele>188.0</ele><time>2026-04-26T08:27:17.805Z</time></trkpt><trkpt lat="45.5851558" lon="10.8110009"><ele>188.0</ele><time>2026-04-26T08:27:18.806Z</time></trkpt><trkpt lat="45.5852502" lon="10.8111341"><ele>188.75</ele><time>2026-04-26T08:27:19.807Z</time></trkpt><trkpt lat="45.5853612" lon="10.8112585"><ele>189.5</ele><time>2026-04-26T08:27:20.806Z</time></trkpt><trkpt lat="45.5854829" lon="10.8113776"><ele>190.25</ele><time>2026-04-26T08:27:21.806Z</time></trkpt><trkpt lat="45.5855976" lon="10.8114933"><ele>191.0</ele><time>2026-04-26T08:27:22.807Z</time></trkpt><trkpt lat="45.5857072" lon="10.8116087"><ele>191.0</ele><time>2026-04-26T08:27:23.807Z</time></trkpt><trkpt lat="45.5858154" lon="10.811715"><ele>191.0</ele><time>2026-04-26T08:27:24.806Z</time></trkpt><trkpt lat="45.5859184" lon="10.8118152"><ele>191.0</ele><time>2026-04-26T08:27:25.807Z</time></trkpt><trkpt lat="45.5860239" lon="10.8119109"><ele>191.0</ele><time>2026-04-26T08:27:26.807Z</time></trkpt><trkpt lat="45.5861371" lon="10.8119946"><ele>193.0</ele><time>2026-04-26T08:27:27.793Z</time></trkpt><trkpt lat="45.5862634" lon="10.8120701"><ele>195.0</ele><time>2026-04-26T08:27:28.792Z</time></trkpt><trkpt lat="45.5863921" lon="10.8121345"><ele>197.0</ele><time>2026-04-26T08:27:29.792Z</time></trkpt><trkpt lat="45.5865301" lon="10.8121916"><ele>199.0</ele><time>2026-04-26T08:27:30.791Z</time></trkpt><trkpt lat="45.5866788" lon="10.8122498"><ele>199.0</ele><time>2026-04-26T08:27:31.789Z</time></trkpt><trkpt lat="45.586838" lon="10.8123108"><ele>199.0</ele><time>2026-04-26T08:27:32.795Z</time></trkpt><trkpt lat="45.5870083" lon="10.812374"><ele>199.0</ele><time>2026-04-26T08:27:33.794Z</time></trkpt><trkpt lat="45.5871903" lon="10.812439"><ele>200.66666666666666</ele><time>2026-04-26T08:27:34.795Z</time></trkpt><trkpt lat="45.5873748" lon="10.8125036"><ele>202.33333333333331</ele><time>2026-04-26T08:27:35.794Z</time></trkpt><trkpt lat="45.5875566" lon="10.812573"><ele>204.0</ele><time>2026-04-26T08:27:36.795Z</time></trkpt><trkpt lat="45.5877436" lon="10.8126507"><ele>205.66666666666669</ele><time>2026-04-26T08:27:37.794Z</time></trkpt><trkpt lat="45.5879306" lon="10.8127358"><ele>207.33333333333334</ele><time>2026-04-26T08:27:38.794Z</time></trkpt><trkpt lat="45.588111" lon="10.8128242"><ele>209.0</ele><time>2026-04-26T08:27:39.794Z</time></trkpt><trkpt lat="45.5882874" lon="10.8129201"><ele>209.0</ele><time>2026-04-26T08:27:40.794Z</time></trkpt><trkpt lat="45.5884658" lon="10.8130144"><ele>209.0</ele><time>2026-04-26T08:27:41.794Z</time></trkpt><trkpt lat="45.5886488" lon="10.8131088"><ele>209.0</ele><time>2026-04-26T08:27:42.795Z</time></trkpt><trkpt lat="45.5888367" lon="10.8132063"><ele>209.33333333333334</ele><time>2026-04-26T08:27:43.794Z</time></trkpt><trkpt lat="45.5890254" lon="10.8133071"><ele>209.66666666666669</ele><time>2026-04-26T08:27:44.795Z</time></trkpt><trkpt lat="45.5892144" lon="10.813409"><ele>210.0</ele><time>2026-04-26T08:27:45.794Z</time></trkpt><trkpt lat="45.589401" lon="10.8135079"><ele>210.33333333333331</ele><time>2026-04-26T08:27:46.794Z</time></trkpt><trkpt lat="45.5895859" lon="10.8136032"><ele>210.66666666666666</ele><time>2026-04-26T08:27:47.795Z</time></trkpt><trkpt lat="45.5897669" lon="10.8136965"><ele>211.0</ele><time>2026-04-26T08:27:48.795Z</time></trkpt><trkpt lat="45.5899462" lon="10.8137858"><ele>211.0</ele><time>2026-04-26T08:27:49.795Z</time></trkpt><trkpt lat="45.5901292" lon="10.8138629"><ele>211.0</ele><time>2026-04-26T08:27:50.795Z</time></trkpt><trkpt lat="45.5903202" lon="10.8139178"><ele>211.0</ele><time>2026-04-26T08:27:51.795Z</time></trkpt><trkpt lat="45.5905162" lon="10.8139517"><ele>213.0</ele><time>2026-04-26T08:27:52.794Z</time></trkpt><trkpt lat="45.5907041" lon="10.813978"><ele>215.0</ele><time>2026-04-26T08:27:53.794Z</time></trkpt><trkpt lat="45.5908817" lon="10.8140061"><ele>217.0</ele><time>2026-04-26T08:27:54.794Z</time></trkpt><trkpt lat="45.5910496" lon="10.8140341"><ele>218.33333333333331</ele><time>2026-04-26T08:27:55.794Z</time></trkpt><trkpt lat="45.5912054" lon="10.8140514"><ele>219.66666666666669</ele><time>2026-04-26T08:27:56.795Z</time></trkpt><trkpt lat="45.591357" lon="10.8140462"><ele>221.0</ele><time>2026-04-26T08:27:57.795Z</time></trkpt><trkpt lat="45.5915074" lon="10.8140061"><ele>221.0</ele><time>2026-04-26T08:27:58.795Z</time></trkpt><trkpt lat="45.5916544" lon="10.8139297"><ele>221.0</ele><time>2026-04-26T08:27:59.795Z</time></trkpt><trkpt lat="45.5917993" lon="10.8138282"><ele>221.0</ele><time>2026-04-26T08:28:00.794Z</time></trkpt><trkpt lat="45.5919523" lon="10.813716"><ele>222.66666666666669</ele><time>2026-04-26T08:28:01.794Z</time></trkpt><trkpt lat="45.5921124" lon="10.8135974"><ele>224.33333333333331</ele><time>2026-04-26T08:28:02.794Z</time></trkpt><trkpt lat="45.592275" lon="10.8134785"><ele>226.0</ele><time>2026-04-26T08:28:03.795Z</time></trkpt><trkpt lat="45.5924362" lon="10.8133623"><ele>226.0</ele><time>2026-04-26T08:28:04.794Z</time></trkpt><trkpt lat="45.5925871" lon="10.8132572"><ele>226.0</ele><time>2026-04-26T08:28:05.794Z</time></trkpt><trkpt lat="45.5927304" lon="10.8131694"><ele>226.0</ele><time>2026-04-26T08:28:06.794Z</time></trkpt><trkpt lat="45.5928675" lon="10.8131065"><ele>228.5</ele><time>2026-04-26T08:28:07.795Z</time></trkpt><trkpt lat="45.5930029" lon="10.8130739"><ele>231.0</ele><time>2026-04-26T08:28:08.794Z</time></trkpt><trkpt lat="45.5931431" lon="10.8130758"><ele>233.5</ele><time>2026-04-26T08:28:09.794Z</time></trkpt><trkpt lat="45.5932939" lon="10.8131058"><ele>236.0</ele><time>2026-04-26T08:28:10.795Z</time></trkpt><trkpt lat="45.5934583" lon="10.8131466"><ele>236.0</ele><time>2026-04-26T08:28:11.795Z</time></trkpt><trkpt lat="45.5936404" lon="10.8131914"><ele>236.0</ele><time>2026-04-26T08:28:12.795Z</time></trkpt><trkpt lat="45.5938359" lon="10.81324"><ele>236.0</ele><time>2026-04-26T08:28:13.795Z</time></trkpt><trkpt lat="45.5940229" lon="10.813288"><ele>238.33333333333334</ele><time>2026-04-26T08:28:14.795Z</time></trkpt><trkpt lat="45.5941948" lon="10.8133346"><ele>240.66666666666669</ele><time>2026-04-26T08:28:15.794Z</time></trkpt><trkpt lat="45.5943522" lon="10.8133762"><ele>243.0</ele><time>2026-04-26T08:28:16.794Z</time></trkpt><trkpt lat="45.5944973" lon="10.8134175"><ele>245.75</ele><time>2026-04-26T08:28:17.795Z</time></trkpt><trkpt lat="45.5946341" lon="10.8134686"><ele>248.5</ele><time>2026-04-26T08:28:18.794Z</time></trkpt><trkpt lat="45.5947645" lon="10.8135454"><ele>251.25</ele><time>2026-04-26T08:28:19.795Z</time></trkpt><trkpt lat="45.5948881" lon="10.8136582"><ele>254.0</ele><time>2026-04-26T08:28:20.795Z</time></trkpt><trkpt lat="45.5950072" lon="10.8138032"><ele>254.0</ele><time>2026-04-26T08:28:21.795Z</time></trkpt><trkpt lat="45.5951264" lon="10.8139714"><ele>254.0</ele><time>2026-04-26T08:28:22.795Z</time></trkpt><trkpt lat="45.5952403" lon="10.8141498"><ele>254.0</ele><time>2026-04-26T08:28:23.795Z</time></trkpt><trkpt lat="45.595351" lon="10.814329"><ele>258.6666666666667</ele><time>2026-04-26T08:28:24.795Z</time></trkpt><trkpt lat="45.595461" lon="10.8145081"><ele>263.3333333333333</ele><time>2026-04-26T08:28:25.795Z</time></trkpt><trkpt lat="45.5955674" lon="10.8146805"><ele>268.0</ele><time>2026-04-26T08:28:26.795Z</time></trkpt><trkpt lat="45.5956649" lon="10.8148379"><ele>268.0</ele><time>2026-04-26T08:28:27.795Z</time></trkpt><trkpt lat="45.5957566" lon="10.814974"><ele>268.0</ele><time>2026-04-26T08:28:28.795Z</time></trkpt><trkpt lat="45.5958501" lon="10.815081"><ele>268.0</ele><time>2026-04-26T08:28:29.794Z</time></trkpt><trkpt lat="45.5959529" lon="10.8151515"><ele>268.0</ele><time>2026-04-26T08:28:30.795Z</time></trkpt><trkpt lat="45.5960697" lon="10.8151843"><ele>269.5</ele><time>2026-04-26T08:28:31.795Z</time></trkpt><trkpt lat="45.5961957" lon="10.8151834"><ele>271.0</ele><time>2026-04-26T08:28:32.794Z</time></trkpt><trkpt lat="45.596335" lon="10.8151595"><ele>272.5</ele><time>2026-04-26T08:28:33.794Z</time></trkpt><trkpt lat="45.596491" lon="10.8151256"><ele>274.0</ele><time>2026-04-26T08:28:34.794Z</time></trkpt><trkpt lat="45.596665" lon="10.8150895"><ele>274.0</ele><time>2026-04-26T08:28:35.795Z</time></trkpt><trkpt lat="45.5968597" lon="10.8150509"><ele>274.0</ele><time>2026-04-26T08:28:36.795Z</time></trkpt><trkpt lat="45.5970524" lon="10.8149964"><ele>274.0</ele><time>2026-04-26T08:28:37.794Z</time></trkpt><trkpt lat="45.5972447" lon="10.8149541"><ele>273.66666666666663</ele><time>2026-04-26T08:28:38.794Z</time></trkpt><trkpt lat="45.5974285" lon="10.8149081"><ele>273.3333333333333</ele><time>2026-04-26T08:28:39.794Z</time></trkpt><trkpt lat="45.5976013" lon="10.8148521"><ele>273.0</ele><time>2026-04-26T08:28:40.795Z</time></trkpt><trkpt lat="45.5977671" lon="10.8147695"><ele>271.6666666666667</ele><time>2026-04-26T08:28:41.795Z</time></trkpt><trkpt lat="45.5979244" lon="10.8146549"><ele>270.33333333333337</ele><time>2026-04-26T08:28:42.795Z</time></trkpt><trkpt lat="45.598077" lon="10.814512"><ele>269.0</ele><time>2026-04-26T08:28:43.794Z</time></trkpt><trkpt lat="45.5982293" lon="10.8143585"><ele>268.33333333333337</ele><time>2026-04-26T08:28:44.795Z</time></trkpt><trkpt lat="45.5983833" lon="10.8142067"><ele>267.6666666666667</ele><time>2026-04-26T08:28:45.795Z</time></trkpt><trkpt lat="45.5985329" lon="10.8140618"><ele>267.0</ele><time>2026-04-26T08:28:46.795Z</time></trkpt><trkpt lat="45.5986713" lon="10.8139353"><ele>267.0</ele><time>2026-04-26T08:28:47.795Z</time></trkpt><trkpt lat="45.5988036" lon="10.8138359"><ele>267.0</ele><time>2026-04-26T08:28:48.795Z</time></trkpt><trkpt lat="45.59894" lon="10.8137745"><ele>267.0</ele><time>2026-04-26T08:28:49.795Z</time></trkpt><trkpt lat="45.5990906" lon="10.8137598"><ele>267.0</ele><time>2026-04-26T08:28:50.794Z</time></trkpt><trkpt lat="45.599255" lon="10.8137979"><ele>267.0</ele><time>2026-04-26T08:28:51.794Z</time></trkpt><trkpt lat="45.5994355" lon="10.8138688"><ele>267.0</ele><time>2026-04-26T08:28:52.794Z</time></trkpt><trkpt lat="45.5996352" lon="10.8139516"><ele>267.0</ele><time>2026-04-26T08:28:53.795Z</time></trkpt><trkpt lat="45.5998524" lon="10.8140421"><ele>267.0</ele><time>2026-04-26T08:28:54.794Z</time></trkpt><trkpt lat="45.6000645" lon="10.8141305"><ele>267.0</ele><time>2026-04-26T08:28:55.795Z</time></trkpt><trkpt lat="45.6002695" lon="10.8142164"><ele>267.0</ele><time>2026-04-26T08:28:56.795Z</time></trkpt><trkpt lat="45.6004706" lon="10.8143007"><ele>267.3333333333333</ele><time>2026-04-26T08:28:57.795Z</time></trkpt><trkpt lat="45.60067" lon="10.814384"><ele>267.66666666666663</ele><time>2026-04-26T08:28:58.795Z</time></trkpt><trkpt lat="45.6008687" lon="10.8144671"><ele>268.0</ele><time>2026-04-26T08:28:59.795Z</time></trkpt><trkpt lat="45.6010678" lon="10.8145505"><ele>267.66666666666663</ele><time>2026-04-26T08:29:00.795Z</time></trkpt><trkpt lat="45.6012689" lon="10.8146356"><ele>267.3333333333333</ele><time>2026-04-26T08:29:01.794Z</time></trkpt><trkpt lat="45.6014731" lon="10.8147211"><ele>267.0</ele><time>2026-04-26T08:29:02.795Z</time></trkpt><trkpt lat="45.6016798" lon="10.8148063"><ele>267.0</ele><time>2026-04-26T08:29:03.794Z</time></trkpt><trkpt lat="45.6018847" lon="10.814892"><ele>267.0</ele><time>2026-04-26T08:29:04.795Z</time></trkpt><trkpt lat="45.6020887" lon="10.8149776"><ele>267.0</ele><time>2026-04-26T08:29:05.794Z</time></trkpt><trkpt lat="45.6022929" lon="10.8150622"><ele>267.0</ele><time>2026-04-26T08:29:06.795Z</time></trkpt><trkpt lat="45.6024976" lon="10.8151465"><ele>267.0</ele><time>2026-04-26T08:29:07.795Z</time></trkpt><trkpt lat="45.6027013" lon="10.8152292"><ele>267.0</ele><time>2026-04-26T08:29:08.795Z</time></trkpt><trkpt lat="45.6029023" lon="10.8153092"><ele>267.0</ele><time>2026-04-26T08:29:09.794Z</time></trkpt><trkpt lat="45.6031021" lon="10.8153876"><ele>267.0</ele><time>2026-04-26T08:29:10.794Z</time></trkpt><trkpt lat="45.6033017" lon="10.815465"><ele>267.0</ele><time>2026-04-26T08:29:11.795Z</time></trkpt><trkpt lat="45.6035025" lon="10.8155414"><ele>267.0</ele><time>2026-04-26T08:29:12.794Z</time></trkpt><trkpt lat="45.6037071" lon="10.8156209"><ele>267.0</ele><time>2026-04-26T08:29:13.794Z</time></trkpt><trkpt lat="45.6039175" lon="10.8157021"><ele>267.0</ele><time>2026-04-26T08:29:14.795Z</time></trkpt><trkpt lat="45.6041335" lon="10.8157846"><ele>267.0</ele><time>2026-04-26T08:29:15.794Z</time></trkpt><trkpt lat="45.6043512" lon="10.8158673"><ele>267.0</ele><time>2026-04-26T08:29:16.795Z</time></trkpt><trkpt lat="45.6045669" lon="10.8159503"><ele>267.0</ele><time>2026-04-26T08:29:17.794Z</time></trkpt><trkpt lat="45.6047799" lon="10.8160229"><ele>267.6666666666667</ele><time>2026-04-26T08:29:18.794Z</time></trkpt><trkpt lat="45.6049943" lon="10.8160758"><ele>268.33333333333337</ele><time>2026-04-26T08:29:19.794Z</time></trkpt><trkpt lat="45.605209" lon="10.8161123"><ele>269.0</ele><time>2026-04-26T08:29:20.795Z</time></trkpt><trkpt lat="45.6054188" lon="10.8161392"><ele>269.6666666666667</ele><time>2026-04-26T08:29:21.795Z</time></trkpt><trkpt lat="45.6056193" lon="10.8161623"><ele>270.3333333333333</ele><time>2026-04-26T08:29:22.794Z</time></trkpt><trkpt lat="45.6058049" lon="10.8161819"><ele>271.0</ele><time>2026-04-26T08:29:23.794Z</time></trkpt><trkpt lat="45.60598" lon="10.816186"><ele>271.0</ele><time>2026-04-26T08:29:24.794Z</time></trkpt><trkpt lat="45.6061532" lon="10.8161576"><ele>271.0</ele><time>2026-04-26T08:29:25.795Z</time></trkpt><trkpt lat="45.6063177" lon="10.8160991"><ele>271.0</ele><time>2026-04-26T08:29:26.794Z</time></trkpt><trkpt lat="45.6064716" lon="10.8160302"><ele>272.0</ele><time>2026-04-26T08:29:27.794Z</time></trkpt><trkpt lat="45.6066172" lon="10.8159685"><ele>273.0</ele><time>2026-04-26T08:29:28.795Z</time></trkpt><trkpt lat="45.6067561" lon="10.8159226"><ele>274.0</ele><time>2026-04-26T08:29:29.794Z</time></trkpt><trkpt lat="45.6068945" lon="10.8158933"><ele>275.0</ele><time>2026-04-26T08:29:30.795Z</time></trkpt><trkpt lat="45.6070339" lon="10.8158823"><ele>276.75</ele><time>2026-04-26T08:29:31.795Z</time></trkpt><trkpt lat="45.6071705" lon="10.8158837"><ele>278.5</ele><time>2026-04-26T08:29:32.795Z</time></trkpt><trkpt lat="45.6072946" lon="10.8158915"><ele>280.25</ele><time>2026-04-26T08:29:33.795Z</time></trkpt><trkpt lat="45.6074079" lon="10.8159053"><ele>282.0</ele><time>2026-04-26T08:29:34.794Z</time></trkpt><trkpt lat="45.6075105" lon="10.8159279"><ele>282.0</ele><time>2026-04-26T08:29:35.795Z</time></trkpt><trkpt lat="45.6076033" lon="10.815966"><ele>282.0</ele><time>2026-04-26T08:29:36.795Z</time></trkpt><trkpt lat="45.607689" lon="10.8160235"><ele>282.0</ele><time>2026-04-26T08:29:37.794Z</time></trkpt><trkpt lat="45.6077664" lon="10.8160945"><ele>282.0</ele><time>2026-04-26T08:29:38.795Z</time></trkpt><trkpt lat="45.6078259" lon="10.8161593"><ele>282.0</ele><time>2026-04-26T08:29:39.795Z</time></trkpt><trkpt lat="45.6078995" lon="10.8162533"><ele>282.0</ele><time>2026-04-26T08:29:41.794Z</time></trkpt><trkpt lat="45.6079678" lon="10.816348"><ele>282.0</ele><time>2026-04-26T08:30:16.795Z</time></trkpt><trkpt lat="45.6080598" lon="10.8164702"><ele>282.0</ele><time>2026-04-26T08:30:18.795Z</time></trkpt><trkpt lat="45.6081264" lon="10.8165524"><ele>282.0</ele><time>2026-04-26T08:30:19.794Z</time></trkpt><trkpt lat="45.6082106" lon="10.8166483"><ele>282.0</ele><time>2026-04-26T08:30:20.794Z</time></trkpt><trkpt lat="45.6083127" lon="10.8167537"><ele>282.75</ele><time>2026-04-26T08:30:21.795Z</time></trkpt><trkpt lat="45.6084291" lon="10.8168586"><ele>283.5</ele><time>2026-04-26T08:30:22.795Z</time></trkpt><trkpt lat="45.6085621" lon="10.8169538"><ele>284.25</ele><time>2026-04-26T08:30:23.794Z</time></trkpt><trkpt lat="45.6087119" lon="10.8170394"><ele>285.0</ele><time>2026-04-26T08:30:24.795Z</time></trkpt><trkpt lat="45.6088579" lon="10.8171124"><ele>285.25</ele><time>2026-04-26T08:30:25.794Z</time></trkpt><trkpt lat="45.6089925" lon="10.8171796"><ele>285.5</ele><time>2026-04-26T08:30:26.795Z</time></trkpt><trkpt lat="45.609116" lon="10.8172322"><ele>285.75</ele><time>2026-04-26T08:30:27.795Z</time></trkpt><trkpt lat="45.6092363" lon="10.817262"><ele>286.0</ele><time>2026-04-26T08:30:28.794Z</time></trkpt><trkpt lat="45.609367" lon="10.8172673"><ele>286.5</ele><time>2026-04-26T08:30:29.795Z</time></trkpt><trkpt lat="45.6095105" lon="10.8172522"><ele>287.0</ele><time>2026-04-26T08:30:30.794Z</time></trkpt><trkpt lat="45.6096609" lon="10.8172261"><ele>287.5</ele><time>2026-04-26T08:30:31.795Z</time></trkpt><trkpt lat="45.6098043" lon="10.8172006"><ele>288.0</ele><time>2026-04-26T08:30:32.794Z</time></trkpt><trkpt lat="45.6099398" lon="10.8171751"><ele>288.0</ele><time>2026-04-26T08:30:33.795Z</time></trkpt><trkpt lat="45.6100787" lon="10.8171591"><ele>288.0</ele><time>2026-04-26T08:30:34.795Z</time></trkpt><trkpt lat="45.6102228" lon="10.8171657"><ele>288.0</ele><time>2026-04-26T08:30:35.794Z</time></trkpt><trkpt lat="45.6103751" lon="10.8171823"><ele>288.0</ele><time>2026-04-26T08:30:36.795Z</time></trkpt><trkpt lat="45.6105267" lon="10.8171883"><ele>291.6666666666667</ele><time>2026-04-26T08:30:37.794Z</time></trkpt><trkpt lat="45.6106838" lon="10.817167"><ele>295.33333333333337</ele><time>2026-04-26T08:30:38.795Z</time></trkpt><trkpt lat="45.6108493" lon="10.8171155"><ele>299.0</ele><time>2026-04-26T08:30:39.795Z</time></trkpt><trkpt lat="45.6110142" lon="10.8170458"><ele>299.33333333333337</ele><time>2026-04-26T08:30:40.795Z</time></trkpt><trkpt lat="45.6111807" lon="10.8169706"><ele>299.6666666666667</ele><time>2026-04-26T08:30:41.794Z</time></trkpt><trkpt lat="45.611348" lon="10.8168947"><ele>300.0</ele><time>2026-04-26T08:30:42.794Z</time></trkpt><trkpt lat="45.6115167" lon="10.8168201"><ele>299.0</ele><time>2026-04-26T08:30:43.795Z</time></trkpt><trkpt lat="45.6116828" lon="10.8167435"><ele>298.0</ele><time>2026-04-26T08:30:44.794Z</time></trkpt><trkpt lat="45.6118437" lon="10.8166716"><ele>297.0</ele><time>2026-04-26T08:30:45.795Z</time></trkpt><trkpt lat="45.6120027" lon="10.8166109"><ele>299.0</ele><time>2026-04-26T08:30:46.795Z</time></trkpt><trkpt lat="45.6121664" lon="10.8165699"><ele>301.0</ele><time>2026-04-26T08:30:47.795Z</time></trkpt><trkpt lat="45.6123401" lon="10.8165555"><ele>303.0</ele><time>2026-04-26T08:30:48.795Z</time></trkpt><trkpt lat="45.6125244" lon="10.8165582"><ele>303.0</ele><time>2026-04-26T08:30:49.795Z</time></trkpt><trkpt lat="45.6127171" lon="10.8165734"><ele>303.0</ele><time>2026-04-26T08:30:50.795Z</time></trkpt><trkpt lat="45.6129189" lon="10.8165924"><ele>303.0</ele><time>2026-04-26T08:30:51.795Z</time></trkpt><trkpt lat="45.6131176" lon="10.8166105"><ele>305.6666666666667</ele><time>2026-04-26T08:30:52.794Z</time></trkpt><trkpt lat="45.6133214" lon="10.8166296"><ele>308.33333333333337</ele><time>2026-04-26T08:30:53.795Z</time></trkpt><trkpt lat="45.6135361" lon="10.8166482"><ele>311.0</ele><time>2026-04-26T08:30:54.794Z</time></trkpt><trkpt lat="45.6137481" lon="10.8166667"><ele>313.33333333333337</ele><time>2026-04-26T08:30:55.795Z</time></trkpt><trkpt lat="45.6139488" lon="10.8166847"><ele>315.6666666666667</ele><time>2026-04-26T08:30:56.794Z</time></trkpt><trkpt lat="45.6141433" lon="10.8167001"><ele>318.0</ele><time>2026-04-26T08:30:57.794Z</time></trkpt><trkpt lat="45.6143366" lon="10.8167138"><ele>321.0</ele><time>2026-04-26T08:30:58.795Z</time></trkpt><trkpt lat="45.6145206" lon="10.8167337"><ele>324.0</ele><time>2026-04-26T08:30:59.795Z</time></trkpt><trkpt lat="45.6146988" lon="10.8167739"><ele>327.0</ele><time>2026-04-26T08:31:00.794Z</time></trkpt><trkpt lat="45.6148755" lon="10.8168439"><ele>327.0</ele><time>2026-04-26T08:31:01.795Z</time></trkpt><trkpt lat="45.6150521" lon="10.8169443"><ele>327.0</ele><time>2026-04-26T08:31:02.794Z</time></trkpt><trkpt lat="45.6152368" lon="10.8170598"><ele>327.0</ele><time>2026-04-26T08:31:03.795Z</time></trkpt><trkpt lat="45.6154111" lon="10.8171674"><ele>329.5</ele><time>2026-04-26T08:31:04.795Z</time></trkpt><trkpt lat="45.6155716" lon="10.8172697"><ele>332.0</ele><time>2026-04-26T08:31:05.795Z</time></trkpt><trkpt lat="45.6157071" lon="10.8173617"><ele>334.5</ele><time>2026-04-26T08:31:06.795Z</time></trkpt><trkpt lat="45.6158143" lon="10.8174421"><ele>337.0</ele><time>2026-04-26T08:31:07.794Z</time></trkpt><trkpt lat="45.6158966" lon="10.8175119"><ele>337.0</ele><time>2026-04-26T08:31:08.795Z</time></trkpt><trkpt lat="45.6159578" lon="10.8175673"><ele>337.0</ele><time>2026-04-26T08:31:09.794Z</time></trkpt><trkpt lat="45.6160127" lon="10.8176209"><ele>337.0</ele><time>2026-04-26T08:31:10.795Z</time></trkpt><trkpt lat="45.6160683" lon="10.8176956"><ele>337.0</ele><time>2026-04-26T08:31:11.795Z</time></trkpt><trkpt lat="45.6161216" lon="10.8178042"><ele>337.0</ele><time>2026-04-26T08:31:12.794Z</time></trkpt><trkpt lat="45.6161871" lon="10.8179472"><ele>337.0</ele><time>2026-04-26T08:31:13.795Z</time></trkpt><trkpt lat="45.6162564" lon="10.8181033"><ele>341.0</ele><time>2026-04-26T08:31:14.794Z</time></trkpt><trkpt lat="45.6163378" lon="10.8182839"><ele>345.0</ele><time>2026-04-26T08:31:15.795Z</time></trkpt><trkpt lat="45.616431" lon="10.8184944"><ele>349.0</ele><time>2026-04-26T08:31:16.795Z</time></trkpt><trkpt lat="45.6165263" lon="10.81871"><ele>349.0</ele><time>2026-04-26T08:31:17.794Z</time></trkpt><trkpt lat="45.6166243" lon="10.8189282"><ele>349.0</ele><time>2026-04-26T08:31:18.794Z</time></trkpt><trkpt lat="45.616721" lon="10.8191382"><ele>349.0</ele><time>2026-04-26T08:31:19.795Z</time></trkpt><trkpt lat="45.616813" lon="10.8193419"><ele>348.0</ele><time>2026-04-26T08:31:20.794Z</time></trkpt><trkpt lat="45.6169044" lon="10.8195469"><ele>347.0</ele><time>2026-04-26T08:31:21.795Z</time></trkpt><trkpt lat="45.6169927" lon="10.819765"><ele>346.0</ele><time>2026-04-26T08:31:22.794Z</time></trkpt><trkpt lat="45.6170751" lon="10.8200048"><ele>351.66666666666663</ele><time>2026-04-26T08:31:23.795Z</time></trkpt><trkpt lat="45.617145" lon="10.8202386"><ele>357.3333333333333</ele><time>2026-04-26T08:31:24.795Z</time></trkpt><trkpt lat="45.6172034" lon="10.8204557"><ele>363.0</ele><time>2026-04-26T08:31:25.794Z</time></trkpt><trkpt lat="45.6172527" lon="10.8206537"><ele>363.0</ele><time>2026-04-26T08:31:26.795Z</time></trkpt><trkpt lat="45.6172938" lon="10.8208345"><ele>363.0</ele><time>2026-04-26T08:31:27.794Z</time></trkpt><trkpt lat="45.6173254" lon="10.8209995"><ele>363.0</ele><time>2026-04-26T08:31:28.794Z</time></trkpt><trkpt lat="45.6173501" lon="10.8211502"><ele>363.0</ele><time>2026-04-26T08:31:29.795Z</time></trkpt><trkpt lat="45.6173709" lon="10.8212946"><ele>362.75</ele><time>2026-04-26T08:31:30.795Z</time></trkpt><trkpt lat="45.6173928" lon="10.8214431"><ele>362.5</ele><time>2026-04-26T08:31:31.794Z</time></trkpt><trkpt lat="45.6174206" lon="10.8215979"><ele>362.25</ele><time>2026-04-26T08:31:32.795Z</time></trkpt><trkpt lat="45.6174573" lon="10.8217559"><ele>362.0</ele><time>2026-04-26T08:31:33.795Z</time></trkpt><trkpt lat="45.6175045" lon="10.8219157"><ele>362.0</ele><time>2026-04-26T08:31:34.794Z</time></trkpt><trkpt lat="45.6175629" lon="10.8220735"><ele>362.0</ele><time>2026-04-26T08:31:35.795Z</time></trkpt><trkpt lat="45.6176229" lon="10.8222167"><ele>362.0</ele><time>2026-04-26T08:31:36.795Z</time></trkpt><trkpt lat="45.6176809" lon="10.8223458"><ele>362.0</ele><time>2026-04-26T08:31:37.795Z</time></trkpt><trkpt lat="45.6177373" lon="10.8224703"><ele>362.0</ele><time>2026-04-26T08:31:38.794Z</time></trkpt><trkpt lat="45.6177872" lon="10.8225968"><ele>362.0</ele><time>2026-04-26T08:31:39.794Z</time></trkpt><trkpt lat="45.6178271" lon="10.8227303"><ele>362.0</ele><time>2026-04-26T08:31:40.795Z</time></trkpt><trkpt lat="45.6178581" lon="10.8228694"><ele>362.0</ele><time>2026-04-26T08:31:41.794Z</time></trkpt><trkpt lat="45.6178835" lon="10.8230042"><ele>362.0</ele><time>2026-04-26T08:31:42.794Z</time></trkpt><trkpt lat="45.6179058" lon="10.8231348"><ele>365.6</ele><time>2026-04-26T08:31:43.794Z</time></trkpt><trkpt lat="45.6179267" lon="10.823266"><ele>369.20000000000005</ele><time>2026-04-26T08:31:44.795Z</time></trkpt><trkpt lat="45.6179469" lon="10.8233938"><ele>372.8</ele><time>2026-04-26T08:31:45.795Z</time></trkpt><trkpt lat="45.6179686" lon="10.8235211"><ele>376.4</ele><time>2026-04-26T08:31:46.794Z</time></trkpt><trkpt lat="45.6179912" lon="10.8236483"><ele>380.0</ele><time>2026-04-26T08:31:47.794Z</time></trkpt><trkpt lat="45.6180139" lon="10.8237708"><ele>380.5</ele><time>2026-04-26T08:31:48.795Z</time></trkpt><trkpt lat="45.6180401" lon="10.8238862"><ele>381.0</ele><time>2026-04-26T08:31:49.794Z</time></trkpt><trkpt lat="45.618074" lon="10.8239903"><ele>381.5</ele><time>2026-04-26T08:31:50.794Z</time></trkpt><trkpt lat="45.6181189" lon="10.8240771"><ele>382.0</ele><time>2026-04-26T08:31:51.795Z</time></trkpt><trkpt lat="45.6181775" lon="10.8241432"><ele>382.5</ele><time>2026-04-26T08:31:52.794Z</time></trkpt><trkpt lat="45.6182486" lon="10.8241845"><ele>383.0</ele><time>2026-04-26T08:31:53.794Z</time></trkpt><trkpt lat="45.6183255" lon="10.8241943"><ele>383.0</ele><time>2026-04-26T08:31:54.794Z</time></trkpt><trkpt lat="45.6183997" lon="10.8241691"><ele>383.0</ele><time>2026-04-26T08:31:55.794Z</time></trkpt><trkpt lat="45.6184673" lon="10.824113"><ele>383.0</ele><time>2026-04-26T08:31:56.794Z</time></trkpt><trkpt lat="45.6185224" lon="10.824025"><ele>383.0</ele><time>2026-04-26T08:31:57.795Z</time></trkpt><trkpt lat="45.61856" lon="10.8239107"><ele>383.0</ele><time>2026-04-26T08:31:58.795Z</time></trkpt><trkpt lat="45.6185786" lon="10.8237746"><ele>383.0</ele><time>2026-04-26T08:31:59.795Z</time></trkpt><trkpt lat="45.6185813" lon="10.8236185"><ele>382.25</ele><time>2026-04-26T08:32:00.794Z</time></trkpt><trkpt lat="45.6185752" lon="10.8234399"><ele>381.5</ele><time>2026-04-26T08:32:01.795Z</time></trkpt><trkpt lat="45.6185654" lon="10.8232562"><ele>380.75</ele><time>2026-04-26T08:32:02.795Z</time></trkpt><trkpt lat="45.618557" lon="10.8230636"><ele>380.0</ele><time>2026-04-26T08:32:03.795Z</time></trkpt><trkpt lat="45.6185485" lon="10.8228606"><ele>380.0</ele><time>2026-04-26T08:32:04.795Z</time></trkpt><trkpt lat="45.6185379" lon="10.8226502"><ele>380.0</ele><time>2026-04-26T08:32:05.795Z</time></trkpt><trkpt lat="45.6185283" lon="10.8224546"><ele>380.0</ele><time>2026-04-26T08:32:06.794Z</time></trkpt><trkpt lat="45.6185208" lon="10.8222613"><ele>380.0</ele><time>2026-04-26T08:32:07.795Z</time></trkpt><trkpt lat="45.6185148" lon="10.8220543"><ele>381.33333333333337</ele><time>2026-04-26T08:32:08.795Z</time></trkpt><trkpt lat="45.6185116" lon="10.8218344"><ele>382.6666666666667</ele><time>2026-04-26T08:32:09.795Z</time></trkpt><trkpt lat="45.61851" lon="10.82161"><ele>384.0</ele><time>2026-04-26T08:32:10.794Z</time></trkpt><trkpt lat="45.6185072" lon="10.8213917"><ele>385.25</ele><time>2026-04-26T08:32:11.794Z</time></trkpt><trkpt lat="45.6185041" lon="10.8211747"><ele>386.5</ele><time>2026-04-26T08:32:12.795Z</time></trkpt><trkpt lat="45.6185016" lon="10.8209705"><ele>387.75</ele><time>2026-04-26T08:32:13.795Z</time></trkpt><trkpt lat="45.618501" lon="10.8207772"><ele>389.0</ele><time>2026-04-26T08:32:14.795Z</time></trkpt><trkpt lat="45.6185014" lon="10.8206017"><ele>389.79999999999995</ele><time>2026-04-26T08:32:15.795Z</time></trkpt><trkpt lat="45.6185018" lon="10.8204459"><ele>390.59999999999997</ele><time>2026-04-26T08:32:16.795Z</time></trkpt><trkpt lat="45.6185032" lon="10.8203093"><ele>391.4</ele><time>2026-04-26T08:32:17.795Z</time></trkpt><trkpt lat="45.6185043" lon="10.8201806"><ele>392.2</ele><time>2026-04-26T08:32:18.795Z</time></trkpt><trkpt lat="45.6185059" lon="10.8200551"><ele>393.0</ele><time>2026-04-26T08:32:19.794Z</time></trkpt><trkpt lat="45.6185179" lon="10.8199332"><ele>393.0</ele><time>2026-04-26T08:32:20.795Z</time></trkpt><trkpt lat="45.6185479" lon="10.8198235"><ele>393.0</ele><time>2026-04-26T08:32:21.794Z</time></trkpt><trkpt lat="45.6186024" lon="10.8197317"><ele>393.0</ele><time>2026-04-26T08:32:22.794Z</time></trkpt><trkpt lat="45.6186781" lon="10.819662"><ele>393.0</ele><time>2026-04-26T08:32:23.795Z</time></trkpt><trkpt lat="45.6187637" lon="10.8196311"><ele>393.0</ele><time>2026-04-26T08:32:24.795Z</time></trkpt><trkpt lat="45.6188487" lon="10.8196419"><ele>393.0</ele><time>2026-04-26T08:32:25.794Z</time></trkpt><trkpt lat="45.6189251" lon="10.8197015"><ele>397.2</ele><time>2026-04-26T08:32:26.795Z</time></trkpt><trkpt lat="45.6189826" lon="10.8198016"><ele>401.4</ele><time>2026-04-26T08:32:27.795Z</time></trkpt><trkpt lat="45.6190233" lon="10.8199383"><ele>405.59999999999997</ele><time>2026-04-26T08:32:28.794Z</time></trkpt><trkpt lat="45.6190479" lon="10.8200891"><ele>409.79999999999995</ele><time>2026-04-26T08:32:29.794Z</time></trkpt><trkpt lat="45.6190624" lon="10.8202505"><ele>414.0</ele><time>2026-04-26T08:32:30.795Z</time></trkpt><trkpt lat="45.6190759" lon="10.8204223"><ele>414.25</ele><time>2026-04-26T08:32:31.795Z</time></trkpt><trkpt lat="45.6190903" lon="10.820601"><ele>414.5</ele><time>2026-04-26T08:32:32.795Z</time></trkpt><trkpt lat="45.6191051" lon="10.8207789"><ele>414.75</ele><time>2026-04-26T08:32:33.794Z</time></trkpt><trkpt lat="45.6191206" lon="10.8209552"><ele>415.0</ele><time>2026-04-26T08:32:34.795Z</time></trkpt><trkpt lat="45.6191383" lon="10.821132"><ele>415.0</ele><time>2026-04-26T08:32:35.794Z</time></trkpt><trkpt lat="45.6191566" lon="10.8213029"><ele>415.0</ele><time>2026-04-26T08:32:36.794Z</time></trkpt><trkpt lat="45.6191836" lon="10.8214722"><ele>415.0</ele><time>2026-04-26T08:32:37.795Z</time></trkpt><trkpt lat="45.6192284" lon="10.821628"><ele>415.0</ele><time>2026-04-26T08:32:38.794Z</time></trkpt><trkpt lat="45.6192951" lon="10.8217678"><ele>412.0</ele><time>2026-04-26T08:32:39.794Z</time></trkpt><trkpt lat="45.6193859" lon="10.8219022"><ele>409.0</ele><time>2026-04-26T08:32:40.794Z</time></trkpt><trkpt lat="45.6195009" lon="10.8220456"><ele>406.0</ele><time>2026-04-26T08:32:41.795Z</time></trkpt><trkpt lat="45.6196306" lon="10.8222178"><ele>410.6666666666667</ele><time>2026-04-26T08:32:42.794Z</time></trkpt><trkpt lat="45.6197658" lon="10.8224089"><ele>415.33333333333337</ele><time>2026-04-26T08:32:43.795Z</time></trkpt><trkpt lat="45.6198976" lon="10.8225954"><ele>420.0</ele><time>2026-04-26T08:32:44.795Z</time></trkpt><trkpt lat="45.6200235" lon="10.8227697"><ele>420.0</ele><time>2026-04-26T08:32:45.795Z</time></trkpt><trkpt lat="45.6201403" lon="10.8229305"><ele>420.0</ele><time>2026-04-26T08:32:46.794Z</time></trkpt><trkpt lat="45.6202472" lon="10.8230787"><ele>420.0</ele><time>2026-04-26T08:32:47.795Z</time></trkpt><trkpt lat="45.6203474" lon="10.8232143"><ele>420.0</ele><time>2026-04-26T08:32:48.794Z</time></trkpt><trkpt lat="45.6204473" lon="10.8233447"><ele>421.66666666666663</ele><time>2026-04-26T08:32:49.795Z</time></trkpt><trkpt lat="45.6205601" lon="10.8234714"><ele>423.3333333333333</ele><time>2026-04-26T08:32:50.794Z</time></trkpt><trkpt lat="45.6206963" lon="10.8235972"><ele>425.0</ele><time>2026-04-26T08:32:51.794Z</time></trkpt><trkpt lat="45.6208507" lon="10.8237327"><ele>425.0</ele><time>2026-04-26T08:32:52.794Z</time></trkpt><trkpt lat="45.6210248" lon="10.8238843"><ele>425.0</ele><time>2026-04-26T08:32:53.795Z</time></trkpt><trkpt lat="45.6212077" lon="10.824042"><ele>425.0</ele><time>2026-04-26T08:32:54.795Z</time></trkpt><trkpt lat="45.6213975" lon="10.8242032"><ele>425.66666666666663</ele><time>2026-04-26T08:32:55.795Z</time></trkpt><trkpt lat="45.6215829" lon="10.8243586"><ele>426.33333333333337</ele><time>2026-04-26T08:32:56.794Z</time></trkpt><trkpt lat="45.621754" lon="10.8244983"><ele>427.0</ele><time>2026-04-26T08:32:57.794Z</time></trkpt><trkpt lat="45.6219072" lon="10.8246263"><ele>431.25</ele><time>2026-04-26T08:32:58.795Z</time></trkpt><trkpt lat="45.6220395" lon="10.8247435"><ele>435.5</ele><time>2026-04-26T08:32:59.794Z</time></trkpt><trkpt lat="45.6221528" lon="10.8248682"><ele>439.75</ele><time>2026-04-26T08:33:00.795Z</time></trkpt><trkpt lat="45.6222446" lon="10.8250217"><ele>444.0</ele><time>2026-04-26T08:33:01.795Z</time></trkpt><trkpt lat="45.6223129" lon="10.8252181"><ele>444.0</ele><time>2026-04-26T08:33:02.794Z</time></trkpt><trkpt lat="45.6223627" lon="10.8254527"><ele>444.0</ele><time>2026-04-26T08:33:03.794Z</time></trkpt><trkpt lat="45.6224051" lon="10.8257196"><ele>444.0</ele><time>2026-04-26T08:33:04.794Z</time></trkpt><trkpt lat="45.6224437" lon="10.8259981"><ele>444.66666666666663</ele><time>2026-04-26T08:33:05.794Z</time></trkpt><trkpt lat="45.6224772" lon="10.8262601"><ele>445.3333333333333</ele><time>2026-04-26T08:33:06.794Z</time></trkpt><trkpt lat="45.6225082" lon="10.8265015"><ele>446.0</ele><time>2026-04-26T08:33:07.795Z</time></trkpt><trkpt lat="45.6225387" lon="10.8267214"><ele>445.5</ele><time>2026-04-26T08:33:08.794Z</time></trkpt><trkpt lat="45.6225716" lon="10.8269146"><ele>445.0</ele><time>2026-04-26T08:33:09.795Z</time></trkpt><trkpt lat="45.622611" lon="10.8270876"><ele>444.5</ele><time>2026-04-26T08:33:10.795Z</time></trkpt><trkpt lat="45.6226594" lon="10.8272338"><ele>444.0</ele><time>2026-04-26T08:33:11.795Z</time></trkpt><trkpt lat="45.6227257" lon="10.8273625"><ele>444.0</ele><time>2026-04-26T08:33:12.795Z</time></trkpt><trkpt lat="45.6228097" lon="10.827473"><ele>444.0</ele><time>2026-04-26T08:33:13.795Z</time></trkpt><trkpt lat="45.6229109" lon="10.8275633"><ele>444.0</ele><time>2026-04-26T08:33:14.795Z</time></trkpt><trkpt lat="45.62303" lon="10.827628"><ele>444.0</ele><time>2026-04-26T08:33:15.795Z</time></trkpt><trkpt lat="45.6231627" lon="10.8276743"><ele>443.75</ele><time>2026-04-26T08:33:16.795Z</time></trkpt><trkpt lat="45.6232997" lon="10.8277028"><ele>443.5</ele><time>2026-04-26T08:33:17.795Z</time></trkpt><trkpt lat="45.6234458" lon="10.8277209"><ele>443.25</ele><time>2026-04-26T08:33:18.794Z</time></trkpt><trkpt lat="45.623599" lon="10.8277345"><ele>443.0</ele><time>2026-04-26T08:33:19.795Z</time></trkpt><trkpt lat="45.6237671" lon="10.8277421"><ele>445.0</ele><time>2026-04-26T08:33:20.794Z</time></trkpt><trkpt lat="45.6239468" lon="10.8277478"><ele>447.0</ele><time>2026-04-26T08:33:21.794Z</time></trkpt><trkpt lat="45.6241452" lon="10.8277615"><ele>449.0</ele><time>2026-04-26T08:33:22.795Z</time></trkpt><trkpt lat="45.6243436" lon="10.8277868"><ele>453.0</ele><time>2026-04-26T08:33:23.794Z</time></trkpt><trkpt lat="45.624519" lon="10.8278133"><ele>457.0</ele><time>2026-04-26T08:33:24.795Z</time></trkpt><trkpt lat="45.6246692" lon="10.8278339"><ele>461.0</ele><time>2026-04-26T08:33:25.794Z</time></trkpt><trkpt lat="45.6247983" lon="10.8278486"><ele>461.0</ele><time>2026-04-26T08:33:26.795Z</time></trkpt><trkpt lat="45.6249208" lon="10.8278612"><ele>461.0</ele><time>2026-04-26T08:33:27.794Z</time></trkpt><trkpt lat="45.625045" lon="10.8278747"><ele>461.0</ele><time>2026-04-26T08:33:28.794Z</time></trkpt><trkpt lat="45.6251711" lon="10.8278862"><ele>461.0</ele><time>2026-04-26T08:33:29.794Z</time></trkpt><trkpt lat="45.6253023" lon="10.8278943"><ele>464.25</ele><time>2026-04-26T08:33:30.795Z</time></trkpt><trkpt lat="45.6254332" lon="10.8279066"><ele>467.5</ele><time>2026-04-26T08:33:31.794Z</time></trkpt><trkpt lat="45.6255618" lon="10.8279248"><ele>470.75</ele><time>2026-04-26T08:33:32.795Z</time></trkpt><trkpt lat="45.6256891" lon="10.8279543"><ele>474.0</ele><time>2026-04-26T08:33:33.794Z</time></trkpt><trkpt lat="45.625814" lon="10.8279991"><ele>474.0</ele><time>2026-04-26T08:33:34.794Z</time></trkpt><trkpt lat="45.6259378" lon="10.8280519"><ele>474.0</ele><time>2026-04-26T08:33:35.794Z</time></trkpt><trkpt lat="45.6260621" lon="10.8281072"><ele>474.0</ele><time>2026-04-26T08:33:36.795Z</time></trkpt><trkpt lat="45.6261901" lon="10.8281661"><ele>474.0</ele><time>2026-04-26T08:33:37.795Z</time></trkpt><trkpt lat="45.6263204" lon="10.8282293"><ele>477.25</ele><time>2026-04-26T08:33:38.794Z</time></trkpt><trkpt lat="45.6264422" lon="10.8282897"><ele>480.5</ele><time>2026-04-26T08:33:39.794Z</time></trkpt><trkpt lat="45.6265602" lon="10.8283454"><ele>483.75</ele><time>2026-04-26T08:33:40.795Z</time></trkpt><trkpt lat="45.6266776" lon="10.8283908"><ele>487.0</ele><time>2026-04-26T08:33:41.794Z</time></trkpt><trkpt lat="45.6268041" lon="10.8284202"><ele>487.0</ele><time>2026-04-26T08:33:42.795Z</time></trkpt><trkpt lat="45.6269485" lon="10.8284383"><ele>487.0</ele><time>2026-04-26T08:33:43.794Z</time></trkpt><trkpt lat="45.6271191" lon="10.8284497"><ele>487.0</ele><time>2026-04-26T08:33:44.795Z</time></trkpt><trkpt lat="45.62731" lon="10.828458"><ele>487.33333333333337</ele><time>2026-04-26T08:33:45.794Z</time></trkpt><trkpt lat="45.6275218" lon="10.828469"><ele>487.66666666666663</ele><time>2026-04-26T08:33:46.794Z</time></trkpt><trkpt lat="45.6277426" lon="10.8284824"><ele>488.0</ele><time>2026-04-26T08:33:47.794Z</time></trkpt><trkpt lat="45.6279759" lon="10.8284962"><ele>488.0</ele><time>2026-04-26T08:33:48.795Z</time></trkpt><trkpt lat="45.6282022" lon="10.8285044"><ele>488.0</ele><time>2026-04-26T08:33:49.795Z</time></trkpt><trkpt lat="45.6284146" lon="10.8285083"><ele>488.0</ele><time>2026-04-26T08:33:50.794Z</time></trkpt><trkpt lat="45.6286101" lon="10.8285169"><ele>491.3333333333333</ele><time>2026-04-26T08:33:51.794Z</time></trkpt><trkpt lat="45.6287911" lon="10.8285381"><ele>494.66666666666663</ele><time>2026-04-26T08:33:52.795Z</time></trkpt><trkpt lat="45.6289608" lon="10.8285844"><ele>498.0</ele><time>2026-04-26T08:33:53.795Z</time></trkpt><trkpt lat="45.6291218" lon="10.8286646"><ele>498.0</ele><time>2026-04-26T08:33:54.795Z</time></trkpt><trkpt lat="45.6292819" lon="10.8287751"><ele>498.0</ele><time>2026-04-26T08:33:55.795Z</time></trkpt><trkpt lat="45.6294473" lon="10.8289062"><ele>498.0</ele><time>2026-04-26T08:33:56.795Z</time></trkpt><trkpt lat="45.6296185" lon="10.8290483"><ele>501.66666666666663</ele><time>2026-04-26T08:33:57.794Z</time></trkpt><trkpt lat="45.6297983" lon="10.8291969"><ele>505.3333333333333</ele><time>2026-04-26T08:33:58.794Z</time></trkpt><trkpt lat="45.6299821" lon="10.829348"><ele>509.0</ele><time>2026-04-26T08:33:59.795Z</time></trkpt><trkpt lat="45.6301619" lon="10.8294954"><ele>512.3333333333333</ele><time>2026-04-26T08:34:00.795Z</time></trkpt><trkpt lat="45.6303377" lon="10.8296431"><ele>515.6666666666666</ele><time>2026-04-26T08:34:01.794Z</time></trkpt><trkpt lat="45.6305184" lon="10.8297991"><ele>519.0</ele><time>2026-04-26T08:34:02.795Z</time></trkpt><trkpt lat="45.6306999" lon="10.8299596"><ele>519.0</ele><time>2026-04-26T08:34:03.795Z</time></trkpt><trkpt lat="45.6308697" lon="10.8301115"><ele>519.0</ele><time>2026-04-26T08:34:04.794Z</time></trkpt><trkpt lat="45.6310262" lon="10.8302519"><ele>519.0</ele><time>2026-04-26T08:34:05.795Z</time></trkpt><trkpt lat="45.6311716" lon="10.8303814"><ele>520.0</ele><time>2026-04-26T08:34:06.795Z</time></trkpt><trkpt lat="45.6313063" lon="10.8304998"><ele>521.0</ele><time>2026-04-26T08:34:07.795Z</time></trkpt><trkpt lat="45.6314326" lon="10.8306101"><ele>522.0</ele><time>2026-04-26T08:34:08.794Z</time></trkpt><trkpt lat="45.6315442" lon="10.8307135"><ele>523.0</ele><time>2026-04-26T08:34:09.795Z</time></trkpt><trkpt lat="45.6316404" lon="10.8308229"><ele>523.0</ele><time>2026-04-26T08:34:10.794Z</time></trkpt><trkpt lat="45.6317187" lon="10.8309563"><ele>523.0</ele><time>2026-04-26T08:34:11.794Z</time></trkpt><trkpt lat="45.6317764" lon="10.8311112"><ele>523.0</ele><time>2026-04-26T08:34:12.794Z</time></trkpt><trkpt lat="45.6318104" lon="10.8312891"><ele>523.0</ele><time>2026-04-26T08:34:13.795Z</time></trkpt><trkpt lat="45.6318257" lon="10.8314878"><ele>522.6666666666667</ele><time>2026-04-26T08:34:14.794Z</time></trkpt><trkpt lat="45.6318272" lon="10.83171"><ele>522.3333333333334</ele><time>2026-04-26T08:34:15.795Z</time></trkpt><trkpt lat="45.6318235" lon="10.8319552"><ele>522.0</ele><time>2026-04-26T08:34:16.794Z</time></trkpt><trkpt lat="45.6318217" lon="10.8322025"><ele>522.0</ele><time>2026-04-26T08:34:17.794Z</time></trkpt><trkpt lat="45.6318224" lon="10.8324575"><ele>522.0</ele><time>2026-04-26T08:34:18.795Z</time></trkpt><trkpt lat="45.6318193" lon="10.8327209"><ele>522.0</ele><time>2026-04-26T08:34:19.795Z</time></trkpt><trkpt lat="45.6318104" lon="10.832992"><ele>524.0</ele><time>2026-04-26T08:34:20.795Z</time></trkpt><trkpt lat="45.6318004" lon="10.8332714"><ele>526.0</ele><time>2026-04-26T08:34:21.795Z</time></trkpt><trkpt lat="45.6317913" lon="10.8335464"><ele>528.0</ele><time>2026-04-26T08:34:22.795Z</time></trkpt><trkpt lat="45.6317851" lon="10.8338083"><ele>529.0</ele><time>2026-04-26T08:34:23.794Z</time></trkpt><trkpt lat="45.6317805" lon="10.8340515"><ele>530.0</ele><time>2026-04-26T08:34:24.795Z</time></trkpt><trkpt lat="45.6317765" lon="10.8342777"><ele>531.0</ele><time>2026-04-26T08:34:25.795Z</time></trkpt><trkpt lat="45.6317726" lon="10.834481"><ele>531.5</ele><time>2026-04-26T08:34:26.794Z</time></trkpt><trkpt lat="45.6317744" lon="10.8346569"><ele>532.0</ele><time>2026-04-26T08:34:27.794Z</time></trkpt><trkpt lat="45.6317876" lon="10.8348115"><ele>532.5</ele><time>2026-04-26T08:34:28.795Z</time></trkpt><trkpt lat="45.6318181" lon="10.8349554"><ele>533.0</ele><time>2026-04-26T08:34:29.795Z</time></trkpt><trkpt lat="45.6318747" lon="10.8350951"><ele>533.5</ele><time>2026-04-26T08:34:30.795Z</time></trkpt><trkpt lat="45.6319598" lon="10.8352178"><ele>534.0</ele><time>2026-04-26T08:34:31.795Z</time></trkpt><trkpt lat="45.6320731" lon="10.83533"><ele>534.5</ele><time>2026-04-26T08:34:32.794Z</time></trkpt><trkpt lat="45.6322116" lon="10.8354452"><ele>535.0</ele><time>2026-04-26T08:34:33.794Z</time></trkpt><trkpt lat="45.6323588" lon="10.8355677"><ele>535.0</ele><time>2026-04-26T08:34:34.794Z</time></trkpt><trkpt lat="45.6325088" lon="10.8356925"><ele>535.0</ele><time>2026-04-26T08:34:35.794Z</time></trkpt><trkpt lat="45.6326603" lon="10.8358219"><ele>535.0</ele><time>2026-04-26T08:34:36.795Z</time></trkpt><trkpt lat="45.632813" lon="10.835953"><ele>537.0</ele><time>2026-04-26T08:34:37.794Z</time></trkpt><trkpt lat="45.6329645" lon="10.8360743"><ele>539.0</ele><time>2026-04-26T08:34:38.794Z</time></trkpt><trkpt lat="45.6331225" lon="10.8361768"><ele>541.0</ele><time>2026-04-26T08:34:39.795Z</time></trkpt><trkpt lat="45.6332906" lon="10.8362511"><ele>541.0</ele><time>2026-04-26T08:34:40.795Z</time></trkpt><trkpt lat="45.6334633" lon="10.8363059"><ele>541.0</ele><time>2026-04-26T08:34:41.794Z</time></trkpt><trkpt lat="45.6336309" lon="10.8363589"><ele>541.0</ele><time>2026-04-26T08:34:42.794Z</time></trkpt><trkpt lat="45.633795" lon="10.8364357"><ele>541.6666666666667</ele><time>2026-04-26T08:34:43.794Z</time></trkpt><trkpt lat="45.6339565" lon="10.8365439"><ele>542.3333333333334</ele><time>2026-04-26T08:34:44.795Z</time></trkpt><trkpt lat="45.6341164" lon="10.8366802"><ele>543.0</ele><time>2026-04-26T08:34:45.794Z</time></trkpt><trkpt lat="45.634276" lon="10.8368303"><ele>543.0</ele><time>2026-04-26T08:34:46.795Z</time></trkpt><trkpt lat="45.6344402" lon="10.8369847"><ele>543.0</ele><time>2026-04-26T08:34:47.795Z</time></trkpt><trkpt lat="45.6345994" lon="10.8371366"><ele>543.0</ele><time>2026-04-26T08:34:48.794Z</time></trkpt><trkpt lat="45.6347486" lon="10.8372814"><ele>547.5</ele><time>2026-04-26T08:34:49.794Z</time></trkpt><trkpt lat="45.6348808" lon="10.8374077"><ele>552.0</ele><time>2026-04-26T08:34:50.794Z</time></trkpt><trkpt lat="45.6350048" lon="10.8375176"><ele>556.5</ele><time>2026-04-26T08:34:51.795Z</time></trkpt><trkpt lat="45.6351332" lon="10.8376017"><ele>561.0</ele><time>2026-04-26T08:34:52.795Z</time></trkpt><trkpt lat="45.6352749" lon="10.837656"><ele>562.0</ele><time>2026-04-26T08:34:53.795Z</time></trkpt><trkpt lat="45.6354283" lon="10.8376872"><ele>563.0</ele><time>2026-04-26T08:34:54.794Z</time></trkpt><trkpt lat="45.6355798" lon="10.8376964"><ele>564.0</ele><time>2026-04-26T08:34:55.795Z</time></trkpt><trkpt lat="45.6357256" lon="10.8376804"><ele>564.0</ele><time>2026-04-26T08:34:56.795Z</time></trkpt><trkpt lat="45.6358622" lon="10.8376419"><ele>564.0</ele><time>2026-04-26T08:34:57.795Z</time></trkpt><trkpt lat="45.6359884" lon="10.837598"><ele>564.0</ele><time>2026-04-26T08:34:58.795Z</time></trkpt><trkpt lat="45.6361086" lon="10.8375761"><ele>564.0</ele><time>2026-04-26T08:34:59.795Z</time></trkpt><trkpt lat="45.6362277" lon="10.8375946"><ele>566.75</ele><time>2026-04-26T08:35:00.794Z</time></trkpt><trkpt lat="45.6363441" lon="10.8376488"><ele>569.5</ele><time>2026-04-26T08:35:01.795Z</time></trkpt><trkpt lat="45.6364544" lon="10.8377223"><ele>572.25</ele><time>2026-04-26T08:35:02.794Z</time></trkpt><trkpt lat="45.6365547" lon="10.8377955"><ele>575.0</ele><time>2026-04-26T08:35:03.795Z</time></trkpt><trkpt lat="45.6366323" lon="10.8378721"><ele>575.0</ele><time>2026-04-26T08:35:04.795Z</time></trkpt><trkpt lat="45.6366935" lon="10.8379737"><ele>575.0</ele><time>2026-04-26T08:35:05.795Z</time></trkpt><trkpt lat="45.6367413" lon="10.838106"><ele>575.0</ele><time>2026-04-26T08:35:06.794Z</time></trkpt><trkpt lat="45.6367702" lon="10.8382541"><ele>575.0</ele><time>2026-04-26T08:35:07.794Z</time></trkpt><trkpt lat="45.6367681" lon="10.8383974"><ele>575.0</ele><time>2026-04-26T08:35:08.794Z</time></trkpt><trkpt lat="45.6367272" lon="10.8385234"><ele>581.0</ele><time>2026-04-26T08:35:09.794Z</time></trkpt><trkpt lat="45.6366489" lon="10.8386271"><ele>587.0</ele><time>2026-04-26T08:35:10.795Z</time></trkpt><trkpt lat="45.6365374" lon="10.8387016"><ele>593.0</ele><time>2026-04-26T08:35:11.794Z</time></trkpt><trkpt lat="45.6364021" lon="10.8387487"><ele>599.0</ele><time>2026-04-26T08:35:12.794Z</time></trkpt><trkpt lat="45.6362602" lon="10.8387731"><ele>596.3333333333333</ele><time>2026-04-26T08:35:13.794Z</time></trkpt><trkpt lat="45.6361019" lon="10.838791"><ele>593.6666666666666</ele><time>2026-04-26T08:35:14.795Z</time></trkpt><trkpt lat="45.6359329" lon="10.8388183"><ele>591.0</ele><time>2026-04-26T08:35:15.794Z</time></trkpt><trkpt lat="45.6357676" lon="10.8388619"><ele>591.0</ele><time>2026-04-26T08:35:16.794Z</time></trkpt><trkpt lat="45.6356024" lon="10.8389283"><ele>591.0</ele><time>2026-04-26T08:35:17.795Z</time></trkpt><trkpt lat="45.6354371" lon="10.8390034"><ele>591.0</ele><time>2026-04-26T08:35:18.794Z</time></trkpt><trkpt lat="45.6352674" lon="10.8390668"><ele>589.6666666666666</ele><time>2026-04-26T08:35:19.795Z</time></trkpt><trkpt lat="45.6350938" lon="10.8391038"><ele>588.3333333333333</ele><time>2026-04-26T08:35:20.795Z</time></trkpt><trkpt lat="45.6349172" lon="10.8391144"><ele>587.0</ele><time>2026-04-26T08:35:21.795Z</time></trkpt><trkpt lat="45.6347394" lon="10.8391119"><ele>587.0</ele><time>2026-04-26T08:35:22.794Z</time></trkpt><trkpt lat="45.6345619" lon="10.8391099"><ele>587.0</ele><time>2026-04-26T08:35:23.795Z</time></trkpt><trkpt lat="45.634385" lon="10.8391187"><ele>587.0</ele><time>2026-04-26T08:35:24.795Z</time></trkpt><trkpt lat="45.6342058" lon="10.8391398"><ele>587.6666666666666</ele><time>2026-04-26T08:35:25.795Z</time></trkpt><trkpt lat="45.6340302" lon="10.8391717"><ele>588.3333333333334</ele><time>2026-04-26T08:35:26.795Z</time></trkpt><trkpt lat="45.6338648" lon="10.8392103"><ele>589.0</ele><time>2026-04-26T08:35:27.795Z</time></trkpt><trkpt lat="45.633705" lon="10.8392612"><ele>593.0</ele><time>2026-04-26T08:35:28.794Z</time></trkpt><trkpt lat="45.6335493" lon="10.8393416"><ele>597.0</ele><time>2026-04-26T08:35:29.795Z</time></trkpt><trkpt lat="45.6333966" lon="10.8394601"><ele>601.0</ele><time>2026-04-26T08:35:30.795Z</time></trkpt><trkpt lat="45.6332398" lon="10.8396175"><ele>601.0</ele><time>2026-04-26T08:35:31.795Z</time></trkpt><trkpt lat="45.6330931" lon="10.8397846"><ele>601.0</ele><time>2026-04-26T08:35:32.795Z</time></trkpt><trkpt lat="45.632971" lon="10.839927"><ele>601.0</ele><time>2026-04-26T08:35:33.794Z</time></trkpt><trkpt lat="45.6328661" lon="10.8400571"><ele>598.75</ele><time>2026-04-26T08:35:34.795Z</time></trkpt><trkpt lat="45.6327798" lon="10.8401942"><ele>596.5</ele><time>2026-04-26T08:35:35.795Z</time></trkpt><trkpt lat="45.6327191" lon="10.8403506"><ele>594.25</ele><time>2026-04-26T08:35:36.795Z</time></trkpt><trkpt lat="45.6326953" lon="10.8405201"><ele>592.0</ele><time>2026-04-26T08:35:37.795Z</time></trkpt><trkpt lat="45.6327126" lon="10.8407015"><ele>592.0</ele><time>2026-04-26T08:35:38.795Z</time></trkpt><trkpt lat="45.6327719" lon="10.8408961"><ele>592.0</ele><time>2026-04-26T08:35:39.795Z</time></trkpt><trkpt lat="45.6328675" lon="10.8411083"><ele>592.0</ele><time>2026-04-26T08:35:40.794Z</time></trkpt><trkpt lat="45.6329837" lon="10.8413276"><ele>595.0</ele><time>2026-04-26T08:35:41.795Z</time></trkpt><trkpt lat="45.6331173" lon="10.8415559"><ele>598.0</ele><time>2026-04-26T08:35:42.794Z</time></trkpt><trkpt lat="45.6332668" lon="10.8417947"><ele>601.0</ele><time>2026-04-26T08:35:43.794Z</time></trkpt><trkpt lat="45.633418" lon="10.8420298"><ele>601.0</ele><time>2026-04-26T08:35:44.794Z</time></trkpt><trkpt lat="45.6335623" lon="10.8422528"><ele>601.0</ele><time>2026-04-26T08:35:45.794Z</time></trkpt><trkpt lat="45.6336984" lon="10.8424648"><ele>601.0</ele><time>2026-04-26T08:35:46.794Z</time></trkpt><trkpt lat="45.6338235" lon="10.8426613"><ele>605.25</ele><time>2026-04-26T08:35:47.794Z</time></trkpt><trkpt lat="45.6339341" lon="10.842837"><ele>609.5</ele><time>2026-04-26T08:35:48.794Z</time></trkpt><trkpt lat="45.63403" lon="10.8429899"><ele>613.75</ele><time>2026-04-26T08:35:49.795Z</time></trkpt><trkpt lat="45.634103" lon="10.8431199"><ele>618.0</ele><time>2026-04-26T08:35:50.795Z</time></trkpt><trkpt lat="45.6341495" lon="10.8432515"><ele>618.0</ele><time>2026-04-26T08:35:51.795Z</time></trkpt><trkpt lat="45.6341672" lon="10.8433749"><ele>618.0</ele><time>2026-04-26T08:35:52.794Z</time></trkpt><trkpt lat="45.6341556" lon="10.8434984"><ele>618.0</ele><time>2026-04-26T08:35:53.794Z</time></trkpt><trkpt lat="45.6341121" lon="10.843613"><ele>618.0</ele><time>2026-04-26T08:35:54.794Z</time></trkpt><trkpt lat="45.634037" lon="10.8437028"><ele>618.0</ele><time>2026-04-26T08:35:55.794Z</time></trkpt><trkpt lat="45.6339236" lon="10.8437612"><ele>619.6666666666666</ele><time>2026-04-26T08:35:56.794Z</time></trkpt><trkpt lat="45.6337904" lon="10.8437929"><ele>621.3333333333333</ele><time>2026-04-26T08:35:57.795Z</time></trkpt><trkpt lat="45.6336336" lon="10.8438203"><ele>623.0</ele><time>2026-04-26T08:35:58.794Z</time></trkpt><trkpt lat="45.6334533" lon="10.8438572"><ele>624.6666666666666</ele><time>2026-04-26T08:35:59.795Z</time></trkpt><trkpt lat="45.6332637" lon="10.8438934"><ele>626.3333333333334</ele><time>2026-04-26T08:36:00.795Z</time></trkpt><trkpt lat="45.6330659" lon="10.8439179"><ele>628.0</ele><time>2026-04-26T08:36:01.794Z</time></trkpt><trkpt lat="45.6328599" lon="10.8439162"><ele>629.3333333333334</ele><time>2026-04-26T08:36:02.794Z</time></trkpt><trkpt lat="45.6326567" lon="10.8438809"><ele>630.6666666666666</ele><time>2026-04-26T08:36:03.794Z</time></trkpt><trkpt lat="45.6324649" lon="10.8438258"><ele>632.0</ele><time>2026-04-26T08:36:04.794Z</time></trkpt><trkpt lat="45.6322825" lon="10.8437686"><ele>632.0</ele><time>2026-04-26T08:36:05.794Z</time></trkpt><trkpt lat="45.6321076" lon="10.8437204"><ele>632.0</ele><time>2026-04-26T08:36:06.794Z</time></trkpt><trkpt lat="45.6319351" lon="10.8436877"><ele>632.0</ele><time>2026-04-26T08:36:07.795Z</time></trkpt><trkpt lat="45.6317579" lon="10.8436662"><ele>636.0</ele><time>2026-04-26T08:36:08.795Z</time></trkpt><trkpt lat="45.6315754" lon="10.8436508"><ele>640.0</ele><time>2026-04-26T08:36:09.795Z</time></trkpt><trkpt lat="45.6314037" lon="10.8436399"><ele>644.0</ele><time>2026-04-26T08:36:10.795Z</time></trkpt><trkpt lat="45.631252" lon="10.8436332"><ele>642.8000000000001</ele><time>2026-04-26T08:36:11.795Z</time></trkpt><trkpt lat="45.6311231" lon="10.8436351"><ele>641.6</ele><time>2026-04-26T08:36:12.795Z</time></trkpt><trkpt lat="45.6310123" lon="10.8436536"><ele>640.4</ele><time>2026-04-26T08:36:13.794Z</time></trkpt><trkpt lat="45.6309126" lon="10.8437021"><ele>639.2</ele><time>2026-04-26T08:36:14.794Z</time></trkpt><trkpt lat="45.6308363" lon="10.8437898"><ele>638.0</ele><time>2026-04-26T08:36:15.793Z</time></trkpt><trkpt lat="45.6307871" lon="10.8439162"><ele>638.0</ele><time>2026-04-26T08:36:16.795Z</time></trkpt><trkpt lat="45.6307718" lon="10.8440717"><ele>638.0</ele><time>2026-04-26T08:36:17.794Z</time></trkpt><trkpt lat="45.6307868" lon="10.8442475"><ele>638.0</ele><time>2026-04-26T08:36:18.794Z</time></trkpt><trkpt lat="45.6308221" lon="10.8444523"><ele>638.0</ele><time>2026-04-26T08:36:19.794Z</time></trkpt><trkpt lat="45.6308583" lon="10.8446857"><ele>640.0</ele><time>2026-04-26T08:36:20.794Z</time></trkpt><trkpt lat="45.6308802" lon="10.8449238"><ele>642.0</ele><time>2026-04-26T08:36:21.795Z</time></trkpt><trkpt lat="45.6308868" lon="10.8451466"><ele>644.0</ele><time>2026-04-26T08:36:22.794Z</time></trkpt><trkpt lat="45.6308815" lon="10.8453403"><ele>645.8000000000001</ele><time>2026-04-26T08:36:23.794Z</time></trkpt><trkpt lat="45.6308622" lon="10.8454981"><ele>647.6</ele><time>2026-04-26T08:36:24.795Z</time></trkpt><trkpt lat="45.6308138" lon="10.8456323"><ele>649.4</ele><time>2026-04-26T08:36:25.794Z</time></trkpt><trkpt lat="45.6307374" lon="10.8457392"><ele>651.2</ele><time>2026-04-26T08:36:26.794Z</time></trkpt><trkpt lat="45.6306406" lon="10.8457958"><ele>653.0</ele><time>2026-04-26T08:36:27.794Z</time></trkpt><trkpt lat="45.6305186" lon="10.8457982"><ele>653.0</ele><time>2026-04-26T08:36:28.795Z</time></trkpt><trkpt lat="45.6303779" lon="10.845749"><ele>653.0</ele><time>2026-04-26T08:36:29.794Z</time></trkpt><trkpt lat="45.6302154" lon="10.8456751"><ele>653.0</ele><time>2026-04-26T08:36:30.795Z</time></trkpt><trkpt lat="45.6300397" lon="10.845597"><ele>655.3333333333333</ele><time>2026-04-26T08:36:31.795Z</time></trkpt><trkpt lat="45.6298485" lon="10.8455177"><ele>657.6666666666666</ele><time>2026-04-26T08:36:32.794Z</time></trkpt><trkpt lat="45.629642" lon="10.8454321"><ele>660.0</ele><time>2026-04-26T08:36:33.795Z</time></trkpt><trkpt lat="45.6294316" lon="10.8453412"><ele>658.6666666666666</ele><time>2026-04-26T08:36:34.794Z</time></trkpt><trkpt lat="45.6292259" lon="10.845251"><ele>657.3333333333333</ele><time>2026-04-26T08:36:35.794Z</time></trkpt><trkpt lat="45.6290335" lon="10.8451678"><ele>656.0</ele><time>2026-04-26T08:36:36.795Z</time></trkpt><trkpt lat="45.6288588" lon="10.8450993"><ele>656.0</ele><time>2026-04-26T08:36:37.794Z</time></trkpt><trkpt lat="45.6286962" lon="10.8450549"><ele>656.0</ele><time>2026-04-26T08:36:38.795Z</time></trkpt><trkpt lat="45.6285353" lon="10.8450425"><ele>656.0</ele><time>2026-04-26T08:36:39.794Z</time></trkpt><trkpt lat="45.6283705" lon="10.8450658"><ele>666.0</ele><time>2026-04-26T08:36:40.794Z</time></trkpt><trkpt lat="45.6282074" lon="10.8451319"><ele>676.0</ele><time>2026-04-26T08:36:41.795Z</time></trkpt><trkpt lat="45.6280464" lon="10.8452499"><ele>686.0</ele><time>2026-04-26T08:36:42.794Z</time></trkpt><trkpt lat="45.6278916" lon="10.8454204"><ele>682.0</ele><time>2026-04-26T08:36:43.794Z</time></trkpt><trkpt lat="45.6277565" lon="10.8455992"><ele>678.0</ele><time>2026-04-26T08:36:44.795Z</time></trkpt><trkpt lat="45.6276302" lon="10.8457605"><ele>674.0</ele><time>2026-04-26T08:36:45.795Z</time></trkpt><trkpt lat="45.6274868" lon="10.845898"><ele>679.6666666666666</ele><time>2026-04-26T08:36:46.794Z</time></trkpt><trkpt lat="45.627319" lon="10.846017"><ele>685.3333333333334</ele><time>2026-04-26T08:36:47.794Z</time></trkpt><trkpt lat="45.6271512" lon="10.8461231"><ele>691.0</ele><time>2026-04-26T08:36:48.795Z</time></trkpt><trkpt lat="45.6269902" lon="10.8462333"><ele>687.0</ele><time>2026-04-26T08:36:49.794Z</time></trkpt><trkpt lat="45.6268447" lon="10.8463633"><ele>683.0</ele><time>2026-04-26T08:36:50.795Z</time></trkpt><trkpt lat="45.6267141" lon="10.8465324"><ele>679.0</ele><time>2026-04-26T08:36:51.794Z</time></trkpt><trkpt lat="45.6266028" lon="10.8467389"><ele>681.6666666666667</ele><time>2026-04-26T08:36:52.795Z</time></trkpt><trkpt lat="45.6265239" lon="10.8469571"><ele>684.3333333333334</ele><time>2026-04-26T08:36:53.794Z</time></trkpt><trkpt lat="45.626478" lon="10.8471769"><ele>687.0</ele><time>2026-04-26T08:36:54.795Z</time></trkpt><trkpt lat="45.6264613" lon="10.8474037"><ele>689.6666666666666</ele><time>2026-04-26T08:36:55.794Z</time></trkpt><trkpt lat="45.6264672" lon="10.8476458"><ele>692.3333333333333</ele><time>2026-04-26T08:36:56.794Z</time></trkpt><trkpt lat="45.6264806" lon="10.8478977"><ele>695.0</ele><time>2026-04-26T08:36:57.794Z</time></trkpt><trkpt lat="45.6264937" lon="10.8481323"><ele>695.0</ele><time>2026-04-26T08:36:58.795Z</time></trkpt><trkpt lat="45.6265068" lon="10.8483353"><ele>695.0</ele><time>2026-04-26T08:36:59.795Z</time></trkpt><trkpt lat="45.6265237" lon="10.8485138"><ele>695.0</ele><time>2026-04-26T08:37:00.795Z</time></trkpt><trkpt lat="45.6265564" lon="10.8486664"><ele>695.0</ele><time>2026-04-26T08:37:01.794Z</time></trkpt><trkpt lat="45.6266146" lon="10.8487842"><ele>698.0</ele><time>2026-04-26T08:37:02.794Z</time></trkpt><trkpt lat="45.6266963" lon="10.8488581"><ele>701.0</ele><time>2026-04-26T08:37:03.794Z</time></trkpt><trkpt lat="45.6267923" lon="10.8488765"><ele>704.0</ele><time>2026-04-26T08:37:04.795Z</time></trkpt><trkpt lat="45.6268993" lon="10.8488337"><ele>707.0</ele><time>2026-04-26T08:37:05.795Z</time></trkpt><trkpt lat="45.626997" lon="10.8487322"><ele>710.0</ele><time>2026-04-26T08:37:06.795Z</time></trkpt><trkpt lat="45.62709" lon="10.848577"><ele>711.3333333333333</ele><time>2026-04-26T08:37:07.794Z</time></trkpt><trkpt lat="45.6271878" lon="10.8483822"><ele>712.6666666666666</ele><time>2026-04-26T08:37:08.795Z</time></trkpt><trkpt lat="45.6272993" lon="10.8481648"><ele>714.0</ele><time>2026-04-26T08:37:09.795Z</time></trkpt><trkpt lat="45.6274122" lon="10.8479439"><ele>714.0</ele><time>2026-04-26T08:37:10.794Z</time></trkpt><trkpt lat="45.6275178" lon="10.8477403"><ele>714.0</ele><time>2026-04-26T08:37:11.794Z</time></trkpt><trkpt lat="45.6276202" lon="10.8475643"><ele>714.0</ele><time>2026-04-26T08:37:12.795Z</time></trkpt><trkpt lat="45.6277327" lon="10.8474168"><ele>714.3333333333334</ele><time>2026-04-26T08:37:13.795Z</time></trkpt><trkpt lat="45.6278616" lon="10.8473033"><ele>714.6666666666667</ele><time>2026-04-26T08:37:14.794Z</time></trkpt><trkpt lat="45.6280079" lon="10.8472249"><ele>715.0</ele><time>2026-04-26T08:37:15.794Z</time></trkpt><trkpt lat="45.6281635" lon="10.8471909"><ele>715.0</ele><time>2026-04-26T08:37:16.795Z</time></trkpt><trkpt lat="45.6283191" lon="10.8472014"><ele>715.0</ele><time>2026-04-26T08:37:17.794Z</time></trkpt><trkpt lat="45.6284772" lon="10.8472571"><ele>715.0</ele><time>2026-04-26T08:37:18.795Z</time></trkpt><trkpt lat="45.6286279" lon="10.8473631"><ele>713.3333333333334</ele><time>2026-04-26T08:37:19.795Z</time></trkpt><trkpt lat="45.628778" lon="10.8475112"><ele>711.6666666666666</ele><time>2026-04-26T08:37:20.794Z</time></trkpt><trkpt lat="45.6289437" lon="10.8476818"><ele>710.0</ele><time>2026-04-26T08:37:21.794Z</time></trkpt><trkpt lat="45.6291223" lon="10.8478657"><ele>714.0</ele><time>2026-04-26T08:37:22.794Z</time></trkpt><trkpt lat="45.6293026" lon="10.8480473"><ele>718.0</ele><time>2026-04-26T08:37:23.794Z</time></trkpt><trkpt lat="45.629488" lon="10.8482222"><ele>722.0</ele><time>2026-04-26T08:37:24.794Z</time></trkpt><trkpt lat="45.6296858" lon="10.8483833"><ele>732.0</ele><time>2026-04-26T08:37:25.795Z</time></trkpt><trkpt lat="45.6299019" lon="10.8485296"><ele>742.0</ele><time>2026-04-26T08:37:26.794Z</time></trkpt><trkpt lat="45.6301337" lon="10.8486709"><ele>742.5</ele><time>2026-04-26T08:37:27.795Z</time></trkpt><trkpt lat="45.630361" lon="10.8488034"><ele>743.0</ele><time>2026-04-26T08:37:28.795Z</time></trkpt><trkpt lat="45.6305708" lon="10.8489223"><ele>743.0</ele><time>2026-04-26T08:37:29.794Z</time></trkpt><trkpt lat="45.630774" lon="10.8490337"><ele>743.0</ele><time>2026-04-26T08:37:30.795Z</time></trkpt><trkpt lat="45.630973" lon="10.8491444"><ele>743.0</ele><time>2026-04-26T08:37:31.795Z</time></trkpt><trkpt lat="45.6311664" lon="10.8492526"><ele>749.0</ele><time>2026-04-26T08:37:32.795Z</time></trkpt><trkpt lat="45.6313538" lon="10.8493563"><ele>755.0</ele><time>2026-04-26T08:37:33.795Z</time></trkpt><trkpt lat="45.6315363" lon="10.8494546"><ele>761.0</ele><time>2026-04-26T08:37:34.794Z</time></trkpt><trkpt lat="45.6317117" lon="10.8495511"><ele>761.0</ele><time>2026-04-26T08:37:35.795Z</time></trkpt><trkpt lat="45.6318814" lon="10.8496463"><ele>761.0</ele><time>2026-04-26T08:37:36.794Z</time></trkpt><trkpt lat="45.6320474" lon="10.8497412"><ele>761.0</ele><time>2026-04-26T08:37:37.794Z</time></trkpt><trkpt lat="45.6322164" lon="10.8498387"><ele>759.0</ele><time>2026-04-26T08:37:38.794Z</time></trkpt><trkpt lat="45.632392" lon="10.8499384"><ele>757.0</ele><time>2026-04-26T08:37:39.795Z</time></trkpt><trkpt lat="45.6325762" lon="10.8500412"><ele>755.0</ele><time>2026-04-26T08:37:40.794Z</time></trkpt><trkpt lat="45.6327591" lon="10.8501457"><ele>760.0</ele><time>2026-04-26T08:37:41.794Z</time></trkpt><trkpt lat="45.6329373" lon="10.8502495"><ele>765.0</ele><time>2026-04-26T08:37:42.795Z</time></trkpt><trkpt lat="45.6331068" lon="10.8503551"><ele>770.0</ele><time>2026-04-26T08:37:43.795Z</time></trkpt><trkpt lat="45.6332679" lon="10.8504762"><ele>770.0</ele><time>2026-04-26T08:37:44.795Z</time></trkpt><trkpt lat="45.633422" lon="10.850623"><ele>770.0</ele><time>2026-04-26T08:37:45.795Z</time></trkpt><trkpt lat="45.6335702" lon="10.8507971"><ele>770.0</ele><time>2026-04-26T08:37:46.794Z</time></trkpt><trkpt lat="45.6337129" lon="10.8509955"><ele>771.0</ele><time>2026-04-26T08:37:47.794Z</time></trkpt><trkpt lat="45.633852" lon="10.8512161"><ele>772.0</ele><time>2026-04-26T08:37:48.795Z</time></trkpt><trkpt lat="45.6339887" lon="10.8514536"><ele>773.0</ele><time>2026-04-26T08:37:49.795Z</time></trkpt><trkpt lat="45.6341214" lon="10.8516996"><ele>773.6666666666667</ele><time>2026-04-26T08:37:50.795Z</time></trkpt><trkpt lat="45.6342536" lon="10.8519484"><ele>774.3333333333333</ele><time>2026-04-26T08:37:51.795Z</time></trkpt><trkpt lat="45.6343838" lon="10.852193"><ele>775.0</ele><time>2026-04-26T08:37:52.795Z</time></trkpt><trkpt lat="45.634509" lon="10.8524275"><ele>782.0</ele><time>2026-04-26T08:37:53.794Z</time></trkpt><trkpt lat="45.634628" lon="10.8526417"><ele>789.0</ele><time>2026-04-26T08:37:54.795Z</time></trkpt><trkpt lat="45.6347438" lon="10.8528269"><ele>796.0</ele><time>2026-04-26T08:37:55.795Z</time></trkpt><trkpt lat="45.6348616" lon="10.8529807"><ele>796.0</ele><time>2026-04-26T08:37:56.795Z</time></trkpt><trkpt lat="45.634985" lon="10.8530964"><ele>796.0</ele><time>2026-04-26T08:37:57.794Z</time></trkpt><trkpt lat="45.6351245" lon="10.8531812"><ele>796.0</ele><time>2026-04-26T08:37:58.795Z</time></trkpt><trkpt lat="45.6352811" lon="10.8532449"><ele>794.6666666666666</ele><time>2026-04-26T08:37:59.794Z</time></trkpt><trkpt lat="45.6354565" lon="10.8532939"><ele>793.3333333333333</ele><time>2026-04-26T08:38:00.795Z</time></trkpt><trkpt lat="45.6356461" lon="10.8533394"><ele>792.0</ele><time>2026-04-26T08:38:01.794Z</time></trkpt><trkpt lat="45.6358356" lon="10.8533841"><ele>792.0</ele><time>2026-04-26T08:38:02.794Z</time></trkpt><trkpt lat="45.6360255" lon="10.8534263"><ele>792.0</ele><time>2026-04-26T08:38:03.795Z</time></trkpt><trkpt lat="45.6362212" lon="10.8534668"><ele>792.0</ele><time>2026-04-26T08:38:04.795Z</time></trkpt><trkpt lat="45.6364219" lon="10.8534982"><ele>800.0</ele><time>2026-04-26T08:38:05.794Z</time></trkpt><trkpt lat="45.6366312" lon="10.8535067"><ele>808.0</ele><time>2026-04-26T08:38:06.794Z</time></trkpt><trkpt lat="45.6368465" lon="10.8534948"><ele>816.0</ele><time>2026-04-26T08:38:07.795Z</time></trkpt><trkpt lat="45.6370626" lon="10.8534688"><ele>810.6666666666667</ele><time>2026-04-26T08:38:08.795Z</time></trkpt><trkpt lat="45.6372758" lon="10.8534352"><ele>805.3333333333334</ele><time>2026-04-26T08:38:09.795Z</time></trkpt><trkpt lat="45.6374922" lon="10.8533986"><ele>800.0</ele><time>2026-04-26T08:38:10.794Z</time></trkpt><trkpt lat="45.6377155" lon="10.853361"><ele>802.0</ele><time>2026-04-26T08:38:11.794Z</time></trkpt><trkpt lat="45.6379292" lon="10.8533287"><ele>804.0</ele><time>2026-04-26T08:38:12.795Z</time></trkpt><trkpt lat="45.6381292" lon="10.8533073"><ele>806.0</ele><time>2026-04-26T08:38:13.794Z</time></trkpt><trkpt lat="45.6383212" lon="10.8533024"><ele>806.0</ele><time>2026-04-26T08:38:14.794Z</time></trkpt><trkpt lat="45.6385069" lon="10.8533255"><ele>806.0</ele><time>2026-04-26T08:38:15.794Z</time></trkpt><trkpt lat="45.638689" lon="10.8533794"><ele>806.0</ele><time>2026-04-26T08:38:16.794Z</time></trkpt><trkpt lat="45.6388715" lon="10.8534645"><ele>811.3333333333334</ele><time>2026-04-26T08:38:17.794Z</time></trkpt><trkpt lat="45.6390528" lon="10.8535796"><ele>816.6666666666667</ele><time>2026-04-26T08:38:18.795Z</time></trkpt><trkpt lat="45.6392337" lon="10.853729"><ele>822.0</ele><time>2026-04-26T08:38:19.795Z</time></trkpt><trkpt lat="45.639414" lon="10.8539009"><ele>820.3333333333333</ele><time>2026-04-26T08:38:20.794Z</time></trkpt><trkpt lat="45.639585" lon="10.854063"><ele>818.6666666666666</ele><time>2026-04-26T08:38:21.795Z</time></trkpt><trkpt lat="45.6397533" lon="10.8542031"><ele>817.0</ele><time>2026-04-26T08:38:22.795Z</time></trkpt><trkpt lat="45.6399294" lon="10.8543085"><ele>825.6666666666666</ele><time>2026-04-26T08:38:23.795Z</time></trkpt><trkpt lat="45.640118" lon="10.854377"><ele>834.3333333333333</ele><time>2026-04-26T08:38:24.794Z</time></trkpt><trkpt lat="45.6403205" lon="10.8544239"><ele>843.0</ele><time>2026-04-26T08:38:25.795Z</time></trkpt><trkpt lat="45.6405357" lon="10.8544655"><ele>844.3333333333333</ele><time>2026-04-26T08:38:26.795Z</time></trkpt><trkpt lat="45.6407574" lon="10.8545061"><ele>845.6666666666666</ele><time>2026-04-26T08:38:27.794Z</time></trkpt><trkpt lat="45.6409718" lon="10.8545463"><ele>847.0</ele><time>2026-04-26T08:38:28.794Z</time></trkpt><trkpt lat="45.6411775" lon="10.8545851"><ele>847.0</ele><time>2026-04-26T08:38:29.795Z</time></trkpt><trkpt lat="45.6413703" lon="10.854625"><ele>847.0</ele><time>2026-04-26T08:38:30.794Z</time></trkpt><trkpt lat="45.6415367" lon="10.85466"><ele>847.0</ele><time>2026-04-26T08:38:31.795Z</time></trkpt><trkpt lat="45.6416884" lon="10.8546911"><ele>847.0</ele><time>2026-04-26T08:38:32.795Z</time></trkpt><trkpt lat="45.6418246" lon="10.8547175"><ele>847.0</ele><time>2026-04-26T08:38:33.794Z</time></trkpt><trkpt lat="45.6419504" lon="10.8547402"><ele>847.0</ele><time>2026-04-26T08:38:34.794Z</time></trkpt><trkpt lat="45.6420745" lon="10.8547616"><ele>847.0</ele><time>2026-04-26T08:38:35.794Z</time></trkpt><trkpt lat="45.6422044" lon="10.8547858"><ele>847.0</ele><time>2026-04-26T08:38:36.795Z</time></trkpt><trkpt lat="45.642339" lon="10.8548125"><ele>847.0</ele><time>2026-04-26T08:38:37.795Z</time></trkpt><trkpt lat="45.6424731" lon="10.8548386"><ele>847.0</ele><time>2026-04-26T08:38:38.794Z</time></trkpt><trkpt lat="45.6426055" lon="10.8548575"><ele>847.0</ele><time>2026-04-26T08:38:39.795Z</time></trkpt><trkpt lat="45.6427426" lon="10.854854"><ele>851.3333333333333</ele><time>2026-04-26T08:38:40.795Z</time></trkpt><trkpt lat="45.6428923" lon="10.8548199"><ele>855.6666666666667</ele><time>2026-04-26T08:38:41.794Z</time></trkpt><trkpt lat="45.6430511" lon="10.8547588"><ele>860.0</ele><time>2026-04-26T08:38:42.795Z</time></trkpt><trkpt lat="45.6432013" lon="10.8546872"><ele>860.0</ele><time>2026-04-26T08:38:43.794Z</time></trkpt><trkpt lat="45.6433404" lon="10.8546088"><ele>860.0</ele><time>2026-04-26T08:38:44.794Z</time></trkpt><trkpt lat="45.6434705" lon="10.8545109"><ele>860.0</ele><time>2026-04-26T08:38:45.794Z</time></trkpt><trkpt lat="45.6435893" lon="10.854382"><ele>860.0</ele><time>2026-04-26T08:38:46.795Z</time></trkpt><trkpt lat="45.6436932" lon="10.8542161"><ele>861.0</ele><time>2026-04-26T08:38:47.795Z</time></trkpt><trkpt lat="45.6437769" lon="10.8540191"><ele>862.0</ele><time>2026-04-26T08:38:48.795Z</time></trkpt><trkpt lat="45.6438379" lon="10.8538213"><ele>863.0</ele><time>2026-04-26T08:38:49.795Z</time></trkpt><trkpt lat="45.6438942" lon="10.8536493"><ele>864.0</ele><time>2026-04-26T08:38:50.794Z</time></trkpt><trkpt lat="45.6439626" lon="10.8535106"><ele>860.75</ele><time>2026-04-26T08:38:51.795Z</time></trkpt><trkpt lat="45.6440529" lon="10.8533935"><ele>857.5</ele><time>2026-04-26T08:38:52.794Z</time></trkpt><trkpt lat="45.644169" lon="10.8532979"><ele>854.25</ele><time>2026-04-26T08:38:53.794Z</time></trkpt><trkpt lat="45.6443016" lon="10.8532165"><ele>851.0</ele><time>2026-04-26T08:38:54.795Z</time></trkpt><trkpt lat="45.6444305" lon="10.8531215"><ele>855.3333333333334</ele><time>2026-04-26T08:38:55.794Z</time></trkpt><trkpt lat="45.6445585" lon="10.8530046"><ele>859.6666666666667</ele><time>2026-04-26T08:38:56.794Z</time></trkpt><trkpt lat="45.6446902" lon="10.8528782"><ele>864.0</ele><time>2026-04-26T08:38:57.794Z</time></trkpt><trkpt lat="45.6448238" lon="10.8527608"><ele>864.0</ele><time>2026-04-26T08:38:58.795Z</time></trkpt><trkpt lat="45.6449605" lon="10.852657"><ele>864.0</ele><time>2026-04-26T08:38:59.795Z</time></trkpt><trkpt lat="45.6451093" lon="10.852568"><ele>864.0</ele><time>2026-04-26T08:39:00.795Z</time></trkpt><trkpt lat="45.6452643" lon="10.8525017"><ele>861.0</ele><time>2026-04-26T08:39:01.795Z</time></trkpt><trkpt lat="45.645418" lon="10.852456"><ele>858.0</ele><time>2026-04-26T08:39:02.795Z</time></trkpt><trkpt lat="45.6455682" lon="10.8524219"><ele>855.0</ele><time>2026-04-26T08:39:03.795Z</time></trkpt><trkpt lat="45.6457166" lon="10.8523925"><ele>855.0</ele><time>2026-04-26T08:39:04.795Z</time></trkpt><trkpt lat="45.6458657" lon="10.8523686"><ele>855.0</ele><time>2026-04-26T08:39:05.795Z</time></trkpt><trkpt lat="45.6460176" lon="10.8523494"><ele>855.0</ele><time>2026-04-26T08:39:06.795Z</time></trkpt><trkpt lat="45.6461725" lon="10.8523342"><ele>856.75</ele><time>2026-04-26T08:39:07.795Z</time></trkpt><trkpt lat="45.6463284" lon="10.8523233"><ele>858.5</ele><time>2026-04-26T08:39:08.795Z</time></trkpt><trkpt lat="45.646474" lon="10.8523184"><ele>860.25</ele><time>2026-04-26T08:39:09.795Z</time></trkpt><trkpt lat="45.6466135" lon="10.8523162"><ele>862.0</ele><time>2026-04-26T08:39:10.794Z</time></trkpt><trkpt lat="45.6467405" lon="10.8523107"><ele>862.0</ele><time>2026-04-26T08:39:11.794Z</time></trkpt><trkpt lat="45.6468354" lon="10.8523054"><ele>862.0</ele><time>2026-04-26T08:39:12.795Z</time></trkpt><trkpt lat="45.6469266" lon="10.8522999"><ele>862.0</ele><time>2026-04-26T08:39:14.795Z</time></trkpt><trkpt lat="45.6470229" lon="10.852281"><ele>862.0</ele><time>2026-04-26T08:39:24.794Z</time></trkpt><trkpt lat="45.6471512" lon="10.8522373"><ele>862.0</ele><time>2026-04-26T08:39:26.795Z</time></trkpt><trkpt lat="45.6472261" lon="10.8522272"><ele>862.3333333333333</ele><time>2026-04-26T08:39:27.795Z</time></trkpt><trkpt lat="45.6473047" lon="10.8522321"><ele>862.6666666666666</ele><time>2026-04-26T08:39:28.794Z</time></trkpt><trkpt lat="45.6473835" lon="10.8522531"><ele>863.0</ele><time>2026-04-26T08:39:29.795Z</time></trkpt><trkpt lat="45.6474588" lon="10.852287"><ele>863.3333333333333</ele><time>2026-04-26T08:39:30.794Z</time></trkpt><trkpt lat="45.647525" lon="10.8523195"><ele>863.6666666666666</ele><time>2026-04-26T08:39:31.795Z</time></trkpt><trkpt lat="45.6476432" lon="10.8523461"><ele>864.0</ele><time>2026-04-26T08:39:33.794Z</time></trkpt><trkpt lat="45.6477568" lon="10.852318"><ele>864.0</ele><time>2026-04-26T08:39:35.794Z</time></trkpt><trkpt lat="45.6478786" lon="10.8522586"><ele>864.0000000000001</ele><time>2026-04-26T08:39:37.794Z</time></trkpt><trkpt lat="45.6479569" lon="10.8522185"><ele>864.0000000000001</ele><time>2026-04-26T08:39:38.795Z</time></trkpt><trkpt lat="45.6480273" lon="10.8521885"><ele>864.0</ele><time>2026-04-26T08:39:39.794Z</time></trkpt><trkpt lat="45.6481102" lon="10.8521555"><ele>864.0</ele><time>2026-04-26T08:39:40.794Z</time></trkpt><trkpt lat="45.648195" lon="10.8521261"><ele>864.0</ele><time>2026-04-26T08:39:41.795Z</time></trkpt><trkpt lat="45.6482844" lon="10.8521073"><ele>864.0000000000001</ele><time>2026-04-26T08:39:42.795Z</time></trkpt><trkpt lat="45.6483781" lon="10.8521075"><ele>864.0000000000001</ele><time>2026-04-26T08:39:43.795Z</time></trkpt><trkpt lat="45.6484704" lon="10.8521262"><ele>864.0</ele><time>2026-04-26T08:39:44.795Z</time></trkpt><trkpt lat="45.6485582" lon="10.8521538"><ele>864.0</ele><time>2026-04-26T08:39:45.795Z</time></trkpt><trkpt lat="45.6486407" lon="10.8521885"><ele>866.4000000000001</ele><time>2026-04-26T08:39:46.794Z</time></trkpt><trkpt lat="45.6487211" lon="10.8522293"><ele>868.8000000000001</ele><time>2026-04-26T08:39:47.795Z</time></trkpt><trkpt lat="45.6488072" lon="10.8522761"><ele>871.1999999999999</ele><time>2026-04-26T08:39:48.795Z</time></trkpt><trkpt lat="45.6489022" lon="10.8523327"><ele>873.5999999999999</ele><time>2026-04-26T08:39:49.794Z</time></trkpt><trkpt lat="45.6490102" lon="10.8524075"><ele>876.0</ele><time>2026-04-26T08:39:50.794Z</time></trkpt><trkpt lat="45.6491215" lon="10.8525025"><ele>876.0</ele><time>2026-04-26T08:39:51.794Z</time></trkpt><trkpt lat="45.6492308" lon="10.8526074"><ele>876.0</ele><time>2026-04-26T08:39:52.795Z</time></trkpt><trkpt lat="45.6493302" lon="10.8527074"><ele>876.0</ele><time>2026-04-26T08:39:53.795Z</time></trkpt><trkpt lat="45.6494242" lon="10.8528043"><ele>876.0</ele><time>2026-04-26T08:39:54.794Z</time></trkpt><trkpt lat="45.6495183" lon="10.8529019"><ele>878.25</ele><time>2026-04-26T08:39:55.794Z</time></trkpt><trkpt lat="45.6496163" lon="10.8530073"><ele>880.5</ele><time>2026-04-26T08:39:56.795Z</time></trkpt><trkpt lat="45.6497216" lon="10.8531138"><ele>882.75</ele><time>2026-04-26T08:39:57.795Z</time></trkpt><trkpt lat="45.6498335" lon="10.8532117"><ele>885.0</ele><time>2026-04-26T08:39:58.794Z</time></trkpt><trkpt lat="45.6499463" lon="10.853295"><ele>885.0</ele><time>2026-04-26T08:39:59.795Z</time></trkpt><trkpt lat="45.6500617" lon="10.85337"><ele>885.0</ele><time>2026-04-26T08:40:00.794Z</time></trkpt><trkpt lat="45.6501788" lon="10.8534465"><ele>885.0</ele><time>2026-04-26T08:40:01.794Z</time></trkpt><trkpt lat="45.6502985" lon="10.8535243"><ele>885.0</ele><time>2026-04-26T08:40:02.795Z</time></trkpt><trkpt lat="45.6504195" lon="10.8536047"><ele>886.0</ele><time>2026-04-26T08:40:03.795Z</time></trkpt><trkpt lat="45.6505406" lon="10.8536894"><ele>887.0</ele><time>2026-04-26T08:40:04.795Z</time></trkpt><trkpt lat="45.6506603" lon="10.853777"><ele>888.0</ele><time>2026-04-26T08:40:05.795Z</time></trkpt><trkpt lat="45.6507731" lon="10.8538693"><ele>889.0</ele><time>2026-04-26T08:40:06.795Z</time></trkpt><trkpt lat="45.6508821" lon="10.853963"><ele>889.0</ele><time>2026-04-26T08:40:07.806Z</time></trkpt><trkpt lat="45.6509698" lon="10.8540758"><ele>889.0000000000001</ele><time>2026-04-26T08:40:08.804Z</time></trkpt><trkpt lat="45.6510399" lon="10.8541855"><ele>889.0000000000001</ele><time>2026-04-26T08:40:09.805Z</time></trkpt><trkpt lat="45.6511064" lon="10.8542945"><ele>889.0</ele><time>2026-04-26T08:40:10.806Z</time></trkpt><trkpt lat="45.6511771" lon="10.8543932"><ele>889.0</ele><time>2026-04-26T08:40:11.805Z</time></trkpt><trkpt lat="45.6512578" lon="10.8544895"><ele>887.75</ele><time>2026-04-26T08:40:12.805Z</time></trkpt><trkpt lat="45.6513496" lon="10.854579"><ele>886.5</ele><time>2026-04-26T08:40:13.804Z</time></trkpt><trkpt lat="45.6514521" lon="10.8546579"><ele>885.25</ele><time>2026-04-26T08:40:14.805Z</time></trkpt><trkpt lat="45.6515653" lon="10.8547142"><ele>884.0</ele><time>2026-04-26T08:40:15.805Z</time></trkpt><trkpt lat="45.6516873" lon="10.8547356"><ele>884.0</ele><time>2026-04-26T08:40:16.805Z</time></trkpt><trkpt lat="45.6518037" lon="10.8547271"><ele>884.0</ele><time>2026-04-26T08:40:17.804Z</time></trkpt><trkpt lat="45.651918" lon="10.8546916"><ele>884.0</ele><time>2026-04-26T08:40:18.805Z</time></trkpt><trkpt lat="45.6520333" lon="10.854611"><ele>884.0</ele><time>2026-04-26T08:40:19.805Z</time></trkpt><trkpt lat="45.6521472" lon="10.8544863"><ele>884.3333333333334</ele><time>2026-04-26T08:40:20.805Z</time></trkpt><trkpt lat="45.652266" lon="10.8543294"><ele>884.6666666666667</ele><time>2026-04-26T08:40:21.805Z</time></trkpt><trkpt lat="45.6523912" lon="10.8541601"><ele>885.0</ele><time>2026-04-26T08:40:22.806Z</time></trkpt><trkpt lat="45.6525095" lon="10.8540037"><ele>885.0</ele><time>2026-04-26T08:40:23.805Z</time></trkpt><trkpt lat="45.6526234" lon="10.8538561"><ele>885.0</ele><time>2026-04-26T08:40:24.805Z</time></trkpt><trkpt lat="45.6527343" lon="10.8537218"><ele>885.0</ele><time>2026-04-26T08:40:25.806Z</time></trkpt><trkpt lat="45.6528496" lon="10.8536011"><ele>885.0</ele><time>2026-04-26T08:40:26.806Z</time></trkpt><trkpt lat="45.6529766" lon="10.8534927"><ele>886.5</ele><time>2026-04-26T08:40:27.805Z</time></trkpt><trkpt lat="45.653119" lon="10.8534044"><ele>888.0</ele><time>2026-04-26T08:40:28.804Z</time></trkpt><trkpt lat="45.6532605" lon="10.8533413"><ele>889.5</ele><time>2026-04-26T08:40:29.805Z</time></trkpt><trkpt lat="45.6533969" lon="10.8532986"><ele>891.0</ele><time>2026-04-26T08:40:30.805Z</time></trkpt><trkpt lat="45.6535294" lon="10.8532879"><ele>892.0</ele><time>2026-04-26T08:40:31.806Z</time></trkpt><trkpt lat="45.653658" lon="10.8533208"><ele>893.0</ele><time>2026-04-26T08:40:32.805Z</time></trkpt><trkpt lat="45.6537897" lon="10.8534017"><ele>894.0</ele><time>2026-04-26T08:40:33.806Z</time></trkpt><trkpt lat="45.6539108" lon="10.8535178"><ele>895.0</ele><time>2026-04-26T08:40:34.805Z</time></trkpt><trkpt lat="45.6540037" lon="10.8536962"><ele>895.0</ele><time>2026-04-26T08:40:35.804Z</time></trkpt><trkpt lat="45.6540807" lon="10.8538964"><ele>895.0</ele><time>2026-04-26T08:40:36.806Z</time></trkpt><trkpt lat="45.6541625" lon="10.8540851"><ele>895.0</ele><time>2026-04-26T08:40:37.806Z</time></trkpt><trkpt lat="45.6542603" lon="10.8542569"><ele>896.3333333333333</ele><time>2026-04-26T08:40:38.804Z</time></trkpt><trkpt lat="45.6543701" lon="10.8543911"><ele>897.6666666666667</ele><time>2026-04-26T08:40:39.806Z</time></trkpt><trkpt lat="45.6545067" lon="10.854503"><ele>899.0</ele><time>2026-04-26T08:40:40.806Z</time></trkpt><trkpt lat="45.6546688" lon="10.8545931"><ele>899.0</ele><time>2026-04-26T08:40:41.805Z</time></trkpt><trkpt lat="45.6548397" lon="10.8546701"><ele>899.0</ele><time>2026-04-26T08:40:42.806Z</time></trkpt><trkpt lat="45.6550141" lon="10.8547472"><ele>899.0</ele><time>2026-04-26T08:40:43.805Z</time></trkpt><trkpt lat="45.655196" lon="10.8548357"><ele>898.6666666666667</ele><time>2026-04-26T08:40:44.805Z</time></trkpt><trkpt lat="45.655359" lon="10.854937"><ele>898.3333333333333</ele><time>2026-04-26T08:40:45.805Z</time></trkpt><trkpt lat="45.6554962" lon="10.8550612"><ele>898.0</ele><time>2026-04-26T08:40:46.805Z</time></trkpt><trkpt lat="45.6556101" lon="10.8552002"><ele>898.0</ele><time>2026-04-26T08:40:47.805Z</time></trkpt><trkpt lat="45.6557139" lon="10.855334"><ele>898.0</ele><time>2026-04-26T08:40:48.805Z</time></trkpt><trkpt lat="45.6558341" lon="10.8554502"><ele>898.0</ele><time>2026-04-26T08:40:49.806Z</time></trkpt><trkpt lat="45.6559741" lon="10.8555441"><ele>898.0</ele><time>2026-04-26T08:40:50.805Z</time></trkpt><trkpt lat="45.6561328" lon="10.8556229"><ele>897.0</ele><time>2026-04-26T08:40:51.806Z</time></trkpt><trkpt lat="45.6562983" lon="10.8556854"><ele>896.0</ele><time>2026-04-26T08:40:52.805Z</time></trkpt><trkpt lat="45.6564574" lon="10.8557301"><ele>895.0</ele><time>2026-04-26T08:40:53.805Z</time></trkpt><trkpt lat="45.6566082" lon="10.85575"><ele>895.0</ele><time>2026-04-26T08:40:54.806Z</time></trkpt><trkpt lat="45.6567486" lon="10.8557454"><ele>895.0</ele><time>2026-04-26T08:40:55.806Z</time></trkpt><trkpt lat="45.6568826" lon="10.8557203"><ele>895.0</ele><time>2026-04-26T08:40:56.805Z</time></trkpt><trkpt lat="45.6570233" lon="10.8556765"><ele>895.0</ele><time>2026-04-26T08:40:57.806Z</time></trkpt><trkpt lat="45.6571626" lon="10.8556089"><ele>893.6666666666666</ele><time>2026-04-26T08:40:58.805Z</time></trkpt><trkpt lat="45.6572995" lon="10.8555223"><ele>892.3333333333333</ele><time>2026-04-26T08:40:59.804Z</time></trkpt><trkpt lat="45.657436" lon="10.8554262"><ele>891.0</ele><time>2026-04-26T08:41:00.805Z</time></trkpt><trkpt lat="45.6575743" lon="10.8553293"><ele>891.0</ele><time>2026-04-26T08:41:01.806Z</time></trkpt><trkpt lat="45.6577069" lon="10.855235"><ele>891.0</ele><time>2026-04-26T08:41:02.806Z</time></trkpt><trkpt lat="45.657833" lon="10.8551502"><ele>891.0</ele><time>2026-04-26T08:41:03.805Z</time></trkpt><trkpt lat="45.6579483" lon="10.855077"><ele>891.0</ele><time>2026-04-26T08:41:04.805Z</time></trkpt><trkpt lat="45.6580485" lon="10.8550244"><ele>892.8</ele><time>2026-04-26T08:41:05.805Z</time></trkpt><trkpt lat="45.6581447" lon="10.8549817"><ele>894.5999999999999</ele><time>2026-04-26T08:41:06.804Z</time></trkpt><trkpt lat="45.6582362" lon="10.8549691"><ele>896.4</ele><time>2026-04-26T08:41:07.806Z</time></trkpt><trkpt lat="45.6583334" lon="10.8549805"><ele>898.2</ele><time>2026-04-26T08:41:08.806Z</time></trkpt><trkpt lat="45.6584331" lon="10.8550159"><ele>900.0</ele><time>2026-04-26T08:41:09.806Z</time></trkpt><trkpt lat="45.6585365" lon="10.8550718"><ele>896.8</ele><time>2026-04-26T08:41:10.805Z</time></trkpt><trkpt lat="45.6586435" lon="10.8551284"><ele>893.6</ele><time>2026-04-26T08:41:11.805Z</time></trkpt><trkpt lat="45.6587477" lon="10.8551762"><ele>890.4000000000001</ele><time>2026-04-26T08:41:12.805Z</time></trkpt><trkpt lat="45.6588493" lon="10.8552055"><ele>887.2</ele><time>2026-04-26T08:41:13.806Z</time></trkpt><trkpt lat="45.6589547" lon="10.8552096"><ele>884.0</ele><time>2026-04-26T08:41:14.806Z</time></trkpt><trkpt lat="45.659057" lon="10.8551806"><ele>884.0</ele><time>2026-04-26T08:41:15.805Z</time></trkpt><trkpt lat="45.6591621" lon="10.8551233"><ele>884.0</ele><time>2026-04-26T08:41:16.806Z</time></trkpt><trkpt lat="45.6592729" lon="10.8550461"><ele>884.0</ele><time>2026-04-26T08:41:17.805Z</time></trkpt><trkpt lat="45.6593836" lon="10.8549581"><ele>884.0</ele><time>2026-04-26T08:41:18.806Z</time></trkpt><trkpt lat="45.6594902" lon="10.8548626"><ele>887.0</ele><time>2026-04-26T08:41:19.806Z</time></trkpt><trkpt lat="45.659599" lon="10.85478"><ele>890.0</ele><time>2026-04-26T08:41:20.806Z</time></trkpt><trkpt lat="45.6597101" lon="10.8547232"><ele>893.0</ele><time>2026-04-26T08:41:21.805Z</time></trkpt><trkpt lat="45.6598234" lon="10.8547102"><ele>896.0</ele><time>2026-04-26T08:41:22.806Z</time></trkpt><trkpt lat="45.6599311" lon="10.854745"><ele>896.0</ele><time>2026-04-26T08:41:23.805Z</time></trkpt><trkpt lat="45.6600319" lon="10.8548281"><ele>896.0</ele><time>2026-04-26T08:41:24.806Z</time></trkpt><trkpt lat="45.6601266" lon="10.8549474"><ele>896.0</ele><time>2026-04-26T08:41:25.805Z</time></trkpt><trkpt lat="45.6602265" lon="10.8550936"><ele>896.0</ele><time>2026-04-26T08:41:26.805Z</time></trkpt><trkpt lat="45.6603282" lon="10.8552522"><ele>897.75</ele><time>2026-04-26T08:41:27.806Z</time></trkpt><trkpt lat="45.6604138" lon="10.8554011"><ele>899.5</ele><time>2026-04-26T08:41:28.806Z</time></trkpt><trkpt lat="45.660494" lon="10.8555343"><ele>901.25</ele><time>2026-04-26T08:41:29.805Z</time></trkpt><trkpt lat="45.6605715" lon="10.8556629"><ele>903.0</ele><time>2026-04-26T08:41:30.805Z</time></trkpt><trkpt lat="45.6606491" lon="10.8557896"><ele>903.0</ele><time>2026-04-26T08:41:31.805Z</time></trkpt><trkpt lat="45.6607238" lon="10.8559001"><ele>903.0</ele><time>2026-04-26T08:41:32.805Z</time></trkpt><trkpt lat="45.6608076" lon="10.855985"><ele>903.0</ele><time>2026-04-26T08:41:33.804Z</time></trkpt><trkpt lat="45.6609002" lon="10.8560334"><ele>903.0</ele><time>2026-04-26T08:41:34.805Z</time></trkpt><trkpt lat="45.6610027" lon="10.856042"><ele>903.0</ele><time>2026-04-26T08:41:35.805Z</time></trkpt><trkpt lat="45.6611079" lon="10.8560108"><ele>901.75</ele><time>2026-04-26T08:41:36.805Z</time></trkpt><trkpt lat="45.6612135" lon="10.8559556"><ele>900.5</ele><time>2026-04-26T08:41:37.805Z</time></trkpt><trkpt lat="45.6613173" lon="10.8558796"><ele>899.25</ele><time>2026-04-26T08:41:38.805Z</time></trkpt><trkpt lat="45.6614218" lon="10.8557906"><ele>898.0</ele><time>2026-04-26T08:41:39.806Z</time></trkpt><trkpt lat="45.6615235" lon="10.8557146"><ele>898.0</ele><time>2026-04-26T08:41:40.805Z</time></trkpt><trkpt lat="45.6616234" lon="10.8556485"><ele>898.0</ele><time>2026-04-26T08:41:41.806Z</time></trkpt><trkpt lat="45.6617231" lon="10.8556071"><ele>898.0</ele><time>2026-04-26T08:41:42.806Z</time></trkpt><trkpt lat="45.6618233" lon="10.8556039"><ele>898.0</ele><time>2026-04-26T08:41:43.804Z</time></trkpt><trkpt lat="45.661927" lon="10.8556428"><ele>898.0</ele><time>2026-04-26T08:41:44.804Z</time></trkpt><trkpt lat="45.6620292" lon="10.8557237"><ele>896.3333333333333</ele><time>2026-04-26T08:41:45.805Z</time></trkpt><trkpt lat="45.6621399" lon="10.8558368"><ele>894.6666666666667</ele><time>2026-04-26T08:41:46.805Z</time></trkpt><trkpt lat="45.6622679" lon="10.8559661"><ele>893.0</ele><time>2026-04-26T08:41:47.806Z</time></trkpt><trkpt lat="45.6624176" lon="10.8561165"><ele>893.0</ele><time>2026-04-26T08:41:48.805Z</time></trkpt><trkpt lat="45.6625693" lon="10.8562858"><ele>893.0</ele><time>2026-04-26T08:41:49.805Z</time></trkpt><trkpt lat="45.6627115" lon="10.8564396"><ele>893.0</ele><time>2026-04-26T08:41:50.805Z</time></trkpt><trkpt lat="45.6628498" lon="10.8565615"><ele>894.75</ele><time>2026-04-26T08:41:51.805Z</time></trkpt><trkpt lat="45.6629725" lon="10.8566437"><ele>896.5</ele><time>2026-04-26T08:41:52.805Z</time></trkpt><trkpt lat="45.6630824" lon="10.8566848"><ele>898.25</ele><time>2026-04-26T08:41:53.805Z</time></trkpt><trkpt lat="45.663186" lon="10.8566902"><ele>900.0</ele><time>2026-04-26T08:41:54.805Z</time></trkpt><trkpt lat="45.6632907" lon="10.8566535"><ele>900.0</ele><time>2026-04-26T08:41:55.806Z</time></trkpt><trkpt lat="45.6633968" lon="10.8565625"><ele>900.0</ele><time>2026-04-26T08:41:56.805Z</time></trkpt><trkpt lat="45.6635024" lon="10.8564187"><ele>900.0</ele><time>2026-04-26T08:41:57.806Z</time></trkpt><trkpt lat="45.6636173" lon="10.8562447"><ele>900.0</ele><time>2026-04-26T08:41:58.805Z</time></trkpt><trkpt lat="45.6637532" lon="10.8560379"><ele>894.6666666666667</ele><time>2026-04-26T08:41:59.805Z</time></trkpt><trkpt lat="45.6638767" lon="10.8558457"><ele>889.3333333333334</ele><time>2026-04-26T08:42:00.805Z</time></trkpt><trkpt lat="45.6639809" lon="10.8556632"><ele>884.0</ele><time>2026-04-26T08:42:01.805Z</time></trkpt><trkpt lat="45.6640576" lon="10.8554834"><ele>884.0</ele><time>2026-04-26T08:42:02.805Z</time></trkpt><trkpt lat="45.6641098" lon="10.8552894"><ele>884.0</ele><time>2026-04-26T08:42:03.805Z</time></trkpt><trkpt lat="45.6641452" lon="10.8550907"><ele>884.0</ele><time>2026-04-26T08:42:04.805Z</time></trkpt><trkpt lat="45.6641786" lon="10.8549133"><ele>884.0</ele><time>2026-04-26T08:42:05.805Z</time></trkpt><trkpt lat="45.6642156" lon="10.8547589"><ele>886.2</ele><time>2026-04-26T08:42:06.805Z</time></trkpt><trkpt lat="45.6642447" lon="10.8546257"><ele>888.4000000000001</ele><time>2026-04-26T08:42:07.806Z</time></trkpt><trkpt lat="45.6642914" lon="10.8545067"><ele>890.6</ele><time>2026-04-26T08:42:08.804Z</time></trkpt><trkpt lat="45.664367" lon="10.8544276"><ele>892.8</ele><time>2026-04-26T08:42:09.806Z</time></trkpt><trkpt lat="45.6644591" lon="10.8543653"><ele>895.0</ele><time>2026-04-26T08:42:10.806Z</time></trkpt><trkpt lat="45.6645562" lon="10.8543116"><ele>896.5</ele><time>2026-04-26T08:42:11.806Z</time></trkpt><trkpt lat="45.6646954" lon="10.8542403"><ele>898.0</ele><time>2026-04-26T08:42:12.805Z</time></trkpt><trkpt lat="45.6648135" lon="10.8541465"><ele>899.5</ele><time>2026-04-26T08:42:13.805Z</time></trkpt><trkpt lat="45.664925" lon="10.8540552"><ele>901.0</ele><time>2026-04-26T08:42:14.806Z</time></trkpt><trkpt lat="45.6650231" lon="10.8539772"><ele>901.0</ele><time>2026-04-26T08:42:15.804Z</time></trkpt><trkpt lat="45.6651143" lon="10.8539154"><ele>900.9999999999999</ele><time>2026-04-26T08:42:16.804Z</time></trkpt><trkpt lat="45.6651998" lon="10.8538979"><ele>900.9999999999999</ele><time>2026-04-26T08:42:17.804Z</time></trkpt><trkpt lat="45.6652836" lon="10.8539296"><ele>901.0</ele><time>2026-04-26T08:42:18.805Z</time></trkpt><trkpt lat="45.6653589" lon="10.8540136"><ele>901.0</ele><time>2026-04-26T08:42:19.805Z</time></trkpt><trkpt lat="45.6654312" lon="10.8541375"><ele>893.75</ele><time>2026-04-26T08:42:20.806Z</time></trkpt><trkpt lat="45.6655097" lon="10.8542976"><ele>886.5</ele><time>2026-04-26T08:42:21.805Z</time></trkpt><trkpt lat="45.6655798" lon="10.8544427"><ele>879.25</ele><time>2026-04-26T08:42:22.806Z</time></trkpt><trkpt lat="45.665643" lon="10.8545603"><ele>872.0</ele><time>2026-04-26T08:42:23.806Z</time></trkpt><trkpt lat="45.6657146" lon="10.8546656"><ele>872.0</ele><time>2026-04-26T08:42:24.806Z</time></trkpt><trkpt lat="45.6658017" lon="10.8547282"><ele>872.0</ele><time>2026-04-26T08:42:25.805Z</time></trkpt><trkpt lat="45.6659092" lon="10.8547522"><ele>872.0</ele><time>2026-04-26T08:42:26.806Z</time></trkpt><trkpt lat="45.6660364" lon="10.8547491"><ele>872.0</ele><time>2026-04-26T08:42:27.804Z</time></trkpt><trkpt lat="45.666159" lon="10.8547418"><ele>875.5</ele><time>2026-04-26T08:42:28.805Z</time></trkpt><trkpt lat="45.6662791" lon="10.8547732"><ele>879.0</ele><time>2026-04-26T08:42:29.805Z</time></trkpt><trkpt lat="45.6664035" lon="10.854844"><ele>882.5</ele><time>2026-04-26T08:42:30.806Z</time></trkpt><trkpt lat="45.6665343" lon="10.8549609"><ele>886.0</ele><time>2026-04-26T08:42:31.805Z</time></trkpt><trkpt lat="45.6666756" lon="10.8551125"><ele>880.75</ele><time>2026-04-26T08:42:32.805Z</time></trkpt><trkpt lat="45.6668047" lon="10.8552569"><ele>875.5</ele><time>2026-04-26T08:42:33.805Z</time></trkpt><trkpt lat="45.6669226" lon="10.8553878"><ele>870.25</ele><time>2026-04-26T08:42:34.806Z</time></trkpt><trkpt lat="45.6670205" lon="10.8554813"><ele>865.0</ele><time>2026-04-26T08:42:35.806Z</time></trkpt><trkpt lat="45.6671264" lon="10.8555388"><ele>865.0</ele><time>2026-04-26T08:42:36.806Z</time></trkpt><trkpt lat="45.6672331" lon="10.8555542"><ele>865.0</ele><time>2026-04-26T08:42:37.805Z</time></trkpt><trkpt lat="45.66734" lon="10.8555294"><ele>865.0</ele><time>2026-04-26T08:42:38.804Z</time></trkpt><trkpt lat="45.6674533" lon="10.8554599"><ele>865.0</ele><time>2026-04-26T08:42:39.806Z</time></trkpt><trkpt lat="45.6675715" lon="10.8553411"><ele>865.0</ele><time>2026-04-26T08:42:40.806Z</time></trkpt><trkpt lat="45.6676868" lon="10.8551822"><ele>865.0</ele><time>2026-04-26T08:42:41.804Z</time></trkpt><trkpt lat="45.66779" lon="10.8550305"><ele>865.0</ele><time>2026-04-26T08:42:42.806Z</time></trkpt><trkpt lat="45.6678912" lon="10.8549111"><ele>865.0</ele><time>2026-04-26T08:42:43.806Z</time></trkpt><trkpt lat="45.6679972" lon="10.854837"><ele>863.0</ele><time>2026-04-26T08:42:44.805Z</time></trkpt><trkpt lat="45.668108" lon="10.8547941"><ele>861.0</ele><time>2026-04-26T08:42:45.806Z</time></trkpt><trkpt lat="45.6682308" lon="10.8547851"><ele>859.0</ele><time>2026-04-26T08:42:46.806Z</time></trkpt><trkpt lat="45.6683659" lon="10.8548106"><ele>857.0</ele><time>2026-04-26T08:42:47.805Z</time></trkpt><trkpt lat="45.6685093" lon="10.8548572"><ele>855.25</ele><time>2026-04-26T08:42:48.806Z</time></trkpt><trkpt lat="45.6686373" lon="10.8549159"><ele>853.5</ele><time>2026-04-26T08:42:49.806Z</time></trkpt><trkpt lat="45.6687492" lon="10.8550001"><ele>851.75</ele><time>2026-04-26T08:42:50.804Z</time></trkpt><trkpt lat="45.6688546" lon="10.85512"><ele>850.0</ele><time>2026-04-26T08:42:51.804Z</time></trkpt><trkpt lat="45.668959" lon="10.8552761"><ele>847.75</ele><time>2026-04-26T08:42:52.804Z</time></trkpt><trkpt lat="45.6690549" lon="10.8554343"><ele>845.5</ele><time>2026-04-26T08:42:53.805Z</time></trkpt><trkpt lat="45.6691398" lon="10.8555707"><ele>843.25</ele><time>2026-04-26T08:42:54.806Z</time></trkpt><trkpt lat="45.6692243" lon="10.8556919"><ele>841.0</ele><time>2026-04-26T08:42:55.805Z</time></trkpt><trkpt lat="45.6693066" lon="10.8557744"><ele>840.9999999999999</ele><time>2026-04-26T08:42:56.806Z</time></trkpt><trkpt lat="45.6693935" lon="10.8558069"><ele>841.0</ele><time>2026-04-26T08:42:57.805Z</time></trkpt><trkpt lat="45.6694706" lon="10.8557866"><ele>841.0</ele><time>2026-04-26T08:42:58.805Z</time></trkpt><trkpt lat="45.6695431" lon="10.855721"><ele>841.0</ele><time>2026-04-26T08:42:59.804Z</time></trkpt><trkpt lat="45.6695954" lon="10.8556172"><ele>840.9999999999999</ele><time>2026-04-26T08:43:00.806Z</time></trkpt><trkpt lat="45.6696107" lon="10.8554988"><ele>841.0</ele><time>2026-04-26T08:43:01.806Z</time></trkpt><trkpt lat="45.6695972" lon="10.8553484"><ele>837.5</ele><time>2026-04-26T08:43:02.804Z</time></trkpt><trkpt lat="45.6695521" lon="10.8551804"><ele>834.0</ele><time>2026-04-26T08:43:03.805Z</time></trkpt><trkpt lat="45.6695128" lon="10.8550128"><ele>830.5</ele><time>2026-04-26T08:43:04.806Z</time></trkpt><trkpt lat="45.6695042" lon="10.8548336"><ele>827.0</ele><time>2026-04-26T08:43:05.806Z</time></trkpt><trkpt lat="45.6695167" lon="10.8546184"><ele>827.0</ele><time>2026-04-26T08:43:06.805Z</time></trkpt><trkpt lat="45.6695509" lon="10.8543947"><ele>827.0</ele><time>2026-04-26T08:43:07.806Z</time></trkpt><trkpt lat="45.6695925" lon="10.8541793"><ele>827.0</ele><time>2026-04-26T08:43:08.806Z</time></trkpt><trkpt lat="45.6696242" lon="10.8539678"><ele>828.0</ele><time>2026-04-26T08:43:09.805Z</time></trkpt><trkpt lat="45.6696546" lon="10.8537616"><ele>829.0</ele><time>2026-04-26T08:43:10.806Z</time></trkpt><trkpt lat="45.6696997" lon="10.8535619"><ele>830.0</ele><time>2026-04-26T08:43:11.806Z</time></trkpt><trkpt lat="45.6697487" lon="10.8533706"><ele>831.0</ele><time>2026-04-26T08:43:12.804Z</time></trkpt><trkpt lat="45.6697972" lon="10.8532038"><ele>832.75</ele><time>2026-04-26T08:43:13.806Z</time></trkpt><trkpt lat="45.6699004" lon="10.8531157"><ele>834.5</ele><time>2026-04-26T08:43:14.806Z</time></trkpt><trkpt lat="45.6699953" lon="10.8530508"><ele>836.25</ele><time>2026-04-26T08:43:15.806Z</time></trkpt><trkpt lat="45.6701197" lon="10.8530341"><ele>838.0</ele><time>2026-04-26T08:43:16.805Z</time></trkpt><trkpt lat="45.670272" lon="10.8530578"><ele>835.6666666666666</ele><time>2026-04-26T08:43:17.806Z</time></trkpt><trkpt lat="45.6704447" lon="10.8531208"><ele>833.3333333333333</ele><time>2026-04-26T08:43:18.805Z</time></trkpt><trkpt lat="45.6706163" lon="10.8531915"><ele>831.0</ele><time>2026-04-26T08:43:19.806Z</time></trkpt><trkpt lat="45.6707984" lon="10.8532776"><ele>831.0</ele><time>2026-04-26T08:43:20.806Z</time></trkpt><trkpt lat="45.6709607" lon="10.8533726"><ele>831.0</ele><time>2026-04-26T08:43:21.805Z</time></trkpt><trkpt lat="45.6711125" lon="10.8534631"><ele>831.0</ele><time>2026-04-26T08:43:22.805Z</time></trkpt><trkpt lat="45.6712489" lon="10.8535648"><ele>829.0</ele><time>2026-04-26T08:43:23.805Z</time></trkpt><trkpt lat="45.6713709" lon="10.8536976"><ele>827.0</ele><time>2026-04-26T08:43:24.805Z</time></trkpt><trkpt lat="45.6714781" lon="10.8538701"><ele>825.0</ele><time>2026-04-26T08:43:25.804Z</time></trkpt><trkpt lat="45.6715709" lon="10.8540773"><ele>825.0</ele><time>2026-04-26T08:43:26.806Z</time></trkpt><trkpt lat="45.6716601" lon="10.8542791"><ele>825.0</ele><time>2026-04-26T08:43:27.806Z</time></trkpt><trkpt lat="45.6717469" lon="10.8544554"><ele>825.0</ele><time>2026-04-26T08:43:28.806Z</time></trkpt><trkpt lat="45.6718368" lon="10.8545994"><ele>822.5</ele><time>2026-04-26T08:43:29.806Z</time></trkpt><trkpt lat="45.6719366" lon="10.8547029"><ele>820.0</ele><time>2026-04-26T08:43:30.805Z</time></trkpt><trkpt lat="45.6720466" lon="10.8547535"><ele>817.5</ele><time>2026-04-26T08:43:31.804Z</time></trkpt><trkpt lat="45.6721708" lon="10.8547666"><ele>815.0</ele><time>2026-04-26T08:43:32.804Z</time></trkpt><trkpt lat="45.6723061" lon="10.8547312"><ele>815.0</ele><time>2026-04-26T08:43:33.806Z</time></trkpt><trkpt lat="45.6724545" lon="10.8546671"><ele>815.0</ele><time>2026-04-26T08:43:34.805Z</time></trkpt><trkpt lat="45.6726223" lon="10.8546089"><ele>815.0</ele><time>2026-04-26T08:43:35.806Z</time></trkpt><trkpt lat="45.6728104" lon="10.854578"><ele>814.6666666666667</ele><time>2026-04-26T08:43:36.805Z</time></trkpt><trkpt lat="45.6729917" lon="10.8545176"><ele>814.3333333333333</ele><time>2026-04-26T08:43:37.805Z</time></trkpt><trkpt lat="45.6731618" lon="10.8544621"><ele>814.0</ele><time>2026-04-26T08:43:38.805Z</time></trkpt><trkpt lat="45.6733283" lon="10.8544022"><ele>814.0</ele><time>2026-04-26T08:43:39.805Z</time></trkpt><trkpt lat="45.6734926" lon="10.8543384"><ele>814.0</ele><time>2026-04-26T08:43:40.805Z</time></trkpt><trkpt lat="45.6736492" lon="10.8542813"><ele>814.0</ele><time>2026-04-26T08:43:41.806Z</time></trkpt><trkpt lat="45.6738004" lon="10.854237"><ele>815.5</ele><time>2026-04-26T08:43:42.805Z</time></trkpt><trkpt lat="45.6739461" lon="10.8542037"><ele>817.0</ele><time>2026-04-26T08:43:43.806Z</time></trkpt><trkpt lat="45.6740879" lon="10.8541724"><ele>818.5</ele><time>2026-04-26T08:43:44.805Z</time></trkpt><trkpt lat="45.6742333" lon="10.8541288"><ele>820.0</ele><time>2026-04-26T08:43:45.805Z</time></trkpt><trkpt lat="45.6743797" lon="10.8540796"><ele>817.25</ele><time>2026-04-26T08:43:46.806Z</time></trkpt><trkpt lat="45.6745224" lon="10.8540228"><ele>814.5</ele><time>2026-04-26T08:43:47.805Z</time></trkpt><trkpt lat="45.6746607" lon="10.8539592"><ele>811.75</ele><time>2026-04-26T08:43:48.805Z</time></trkpt><trkpt lat="45.6747972" lon="10.8539017"><ele>809.0</ele><time>2026-04-26T08:43:49.806Z</time></trkpt><trkpt lat="45.6749324" lon="10.8538476"><ele>809.0</ele><time>2026-04-26T08:43:50.806Z</time></trkpt><trkpt lat="45.6750653" lon="10.8538001"><ele>809.0</ele><time>2026-04-26T08:43:51.805Z</time></trkpt><trkpt lat="45.6751965" lon="10.8537663"><ele>809.0</ele><time>2026-04-26T08:43:52.806Z</time></trkpt><trkpt lat="45.675326" lon="10.8537521"><ele>809.0</ele><time>2026-04-26T08:43:53.804Z</time></trkpt><trkpt lat="45.6754248" lon="10.8537521"><ele>810.3333333333334</ele><time>2026-04-26T08:43:54.805Z</time></trkpt><trkpt lat="45.6755079" lon="10.8537724"><ele>811.6666666666667</ele><time>2026-04-26T08:43:55.806Z</time></trkpt><trkpt lat="45.6755769" lon="10.8538129"><ele>813.0</ele><time>2026-04-26T08:43:56.805Z</time></trkpt><trkpt lat="45.6756309" lon="10.8538609"><ele>814.3333333333333</ele><time>2026-04-26T08:43:57.806Z</time></trkpt><trkpt lat="45.6757445" lon="10.8539621"><ele>815.6666666666666</ele><time>2026-04-26T08:43:59.805Z</time></trkpt><trkpt lat="45.6758156" lon="10.8540014"><ele>817.0</ele><time>2026-04-26T08:44:00.805Z</time></trkpt><trkpt lat="45.6758918" lon="10.8540424"><ele>816.9999999999999</ele><time>2026-04-26T08:44:01.805Z</time></trkpt><trkpt lat="45.6759688" lon="10.8540933"><ele>817.0</ele><time>2026-04-26T08:44:02.804Z</time></trkpt><trkpt lat="45.6760406" lon="10.8541592"><ele>817.0</ele><time>2026-04-26T08:44:03.805Z</time></trkpt><trkpt lat="45.6760984" lon="10.8542407"><ele>817.0</ele><time>2026-04-26T08:44:04.804Z</time></trkpt><trkpt lat="45.6761515" lon="10.8543371"><ele>816.9999999999999</ele><time>2026-04-26T08:44:05.804Z</time></trkpt><trkpt lat="45.6762014" lon="10.8544502"><ele>817.0</ele><time>2026-04-26T08:44:06.805Z</time></trkpt><trkpt lat="45.6762437" lon="10.8545512"><ele>820.2</ele><time>2026-04-26T08:44:07.805Z</time></trkpt><trkpt lat="45.676288" lon="10.8546328"><ele>823.4000000000001</ele><time>2026-04-26T08:44:08.805Z</time></trkpt><trkpt lat="45.6763972" lon="10.854704"><ele>826.5999999999999</ele><time>2026-04-26T08:44:10.806Z</time></trkpt><trkpt lat="45.676502" lon="10.8546335"><ele>829.8</ele><time>2026-04-26T08:44:12.805Z</time></trkpt><trkpt lat="45.6765648" lon="10.8545412"><ele>833.0</ele><time>2026-04-26T08:44:14.806Z</time></trkpt><trkpt lat="45.6766484" lon="10.8544913"><ele>833.0000000000001</ele><time>2026-04-26T08:44:16.805Z</time></trkpt><trkpt lat="45.6767585" lon="10.8545291"><ele>833.0</ele><time>2026-04-26T08:44:18.805Z</time></trkpt><trkpt lat="45.6768203" lon="10.8545666"><ele>833.0</ele><time>2026-04-26T08:44:19.804Z</time></trkpt><trkpt lat="45.6768804" lon="10.8546078"><ele>833.0</ele><time>2026-04-26T08:44:20.804Z</time></trkpt><trkpt lat="45.6769405" lon="10.8546508"><ele>833.0000000000001</ele><time>2026-04-26T08:44:21.806Z</time></trkpt><trkpt lat="45.6770037" lon="10.8546919"><ele>833.0</ele><time>2026-04-26T08:44:22.806Z</time></trkpt><trkpt lat="45.677061" lon="10.8547441"><ele>834.2857142857143</ele><time>2026-04-26T08:44:23.805Z</time></trkpt><trkpt lat="45.6771131" lon="10.8548105"><ele>835.5714285714286</ele><time>2026-04-26T08:44:24.806Z</time></trkpt><trkpt lat="45.6771615" lon="10.8548891"><ele>836.8571428571429</ele><time>2026-04-26T08:44:25.805Z</time></trkpt><trkpt lat="45.6772136" lon="10.854974"><ele>838.1428571428571</ele><time>2026-04-26T08:44:26.804Z</time></trkpt><trkpt lat="45.6772612" lon="10.8550507"><ele>839.4285714285714</ele><time>2026-04-26T08:44:27.806Z</time></trkpt><trkpt lat="45.677306" lon="10.855133"><ele>840.7142857142858</ele><time>2026-04-26T08:44:28.805Z</time></trkpt><trkpt lat="45.6773494" lon="10.8552124"><ele>842.0</ele><time>2026-04-26T08:44:29.805Z</time></trkpt><trkpt lat="45.6774059" lon="10.8553181"><ele>842.0</ele><time>2026-04-26T08:44:31.805Z</time></trkpt><trkpt lat="45.6774653" lon="10.8554285"><ele>842.0</ele><time>2026-04-26T08:44:33.805Z</time></trkpt><trkpt lat="45.6775454" lon="10.8555617"><ele>842.0</ele><time>2026-04-26T08:44:35.805Z</time></trkpt><trkpt lat="45.6776034" lon="10.8556293"><ele>842.0</ele><time>2026-04-26T08:44:36.806Z</time></trkpt><trkpt lat="45.6776834" lon="10.8557057"><ele>842.0</ele><time>2026-04-26T08:44:37.806Z</time></trkpt><trkpt lat="45.6777764" lon="10.8557871"><ele>844.4000000000001</ele><time>2026-04-26T08:44:38.805Z</time></trkpt><trkpt lat="45.677869" lon="10.8558717"><ele>846.8000000000001</ele><time>2026-04-26T08:44:39.806Z</time></trkpt><trkpt lat="45.6779584" lon="10.8559544"><ele>849.2</ele><time>2026-04-26T08:44:40.805Z</time></trkpt><trkpt lat="45.6780543" lon="10.8560407"><ele>851.6</ele><time>2026-04-26T08:44:41.806Z</time></trkpt><trkpt lat="45.6781536" lon="10.8561256"><ele>854.0</ele><time>2026-04-26T08:44:42.806Z</time></trkpt><trkpt lat="45.678258" lon="10.8562123"><ele>856.0</ele><time>2026-04-26T08:44:43.806Z</time></trkpt><trkpt lat="45.6783678" lon="10.8563067"><ele>858.0</ele><time>2026-04-26T08:44:44.805Z</time></trkpt><trkpt lat="45.6784847" lon="10.8564095"><ele>860.0</ele><time>2026-04-26T08:44:45.806Z</time></trkpt><trkpt lat="45.6786081" lon="10.8565184"><ele>862.0</ele><time>2026-04-26T08:44:46.806Z</time></trkpt><trkpt lat="45.6787296" lon="10.8566272"><ele>862.0</ele><time>2026-04-26T08:44:47.806Z</time></trkpt><trkpt lat="45.6788494" lon="10.8567349"><ele>862.0</ele><time>2026-04-26T08:44:48.806Z</time></trkpt><trkpt lat="45.6789647" lon="10.8568407"><ele>862.0</ele><time>2026-04-26T08:44:49.805Z</time></trkpt><trkpt lat="45.6790765" lon="10.8569416"><ele>862.0</ele><time>2026-04-26T08:44:50.805Z</time></trkpt><trkpt lat="45.679189" lon="10.8570283"><ele>870.0</ele><time>2026-04-26T08:44:51.804Z</time></trkpt><trkpt lat="45.6793099" lon="10.8571017"><ele>878.0</ele><time>2026-04-26T08:44:52.805Z</time></trkpt><trkpt lat="45.6794315" lon="10.8571533"><ele>886.0</ele><time>2026-04-26T08:44:53.806Z</time></trkpt><trkpt lat="45.6795535" lon="10.8571828"><ele>894.0</ele><time>2026-04-26T08:44:54.804Z</time></trkpt><trkpt lat="45.6796823" lon="10.8572116"><ele>894.0</ele><time>2026-04-26T08:44:55.806Z</time></trkpt><trkpt lat="45.6798164" lon="10.8572413"><ele>894.0</ele><time>2026-04-26T08:44:56.806Z</time></trkpt><trkpt lat="45.6799542" lon="10.8572752"><ele>894.0</ele><time>2026-04-26T08:44:57.804Z</time></trkpt><trkpt lat="45.6800868" lon="10.8573162"><ele>894.0</ele><time>2026-04-26T08:44:58.805Z</time></trkpt><trkpt lat="45.6802198" lon="10.8573632"><ele>894.25</ele><time>2026-04-26T08:44:59.806Z</time></trkpt><trkpt lat="45.6803544" lon="10.8574128"><ele>894.5</ele><time>2026-04-26T08:45:00.806Z</time></trkpt><trkpt lat="45.6804894" lon="10.8574641"><ele>894.75</ele><time>2026-04-26T08:45:01.806Z</time></trkpt><trkpt lat="45.6806287" lon="10.8575151"><ele>895.0</ele><time>2026-04-26T08:45:02.805Z</time></trkpt><trkpt lat="45.6807704" lon="10.8575654"><ele>895.0</ele><time>2026-04-26T08:45:03.804Z</time></trkpt><trkpt lat="45.6809025" lon="10.8576137"><ele>895.0</ele><time>2026-04-26T08:45:04.805Z</time></trkpt><trkpt lat="45.6810332" lon="10.8576572"><ele>895.0</ele><time>2026-04-26T08:45:05.806Z</time></trkpt><trkpt lat="45.6811674" lon="10.8576983"><ele>895.0</ele><time>2026-04-26T08:45:06.806Z</time></trkpt><trkpt lat="45.6813025" lon="10.8577387"><ele>903.25</ele><time>2026-04-26T08:45:07.805Z</time></trkpt><trkpt lat="45.6814395" lon="10.8577823"><ele>911.5</ele><time>2026-04-26T08:45:08.805Z</time></trkpt><trkpt lat="45.6815801" lon="10.8578203"><ele>919.75</ele><time>2026-04-26T08:45:09.806Z</time></trkpt><trkpt lat="45.681725" lon="10.8578525"><ele>928.0</ele><time>2026-04-26T08:45:10.805Z</time></trkpt><trkpt lat="45.6818652" lon="10.8578847"><ele>926.5</ele><time>2026-04-26T08:45:11.805Z</time></trkpt><trkpt lat="45.6819912" lon="10.8579103"><ele>925.0</ele><time>2026-04-26T08:45:12.805Z</time></trkpt><trkpt lat="45.6821147" lon="10.8579338"><ele>923.5</ele><time>2026-04-26T08:45:13.805Z</time></trkpt><trkpt lat="45.6822318" lon="10.8579516"><ele>922.0</ele><time>2026-04-26T08:45:14.806Z</time></trkpt><trkpt lat="45.6823286" lon="10.8579741"><ele>922.0</ele><time>2026-04-26T08:45:15.806Z</time></trkpt><trkpt lat="45.682413" lon="10.8580034"><ele>922.0</ele><time>2026-04-26T08:45:16.805Z</time></trkpt><trkpt lat="45.6824834" lon="10.8580466"><ele>922.0</ele><time>2026-04-26T08:45:17.805Z</time></trkpt><trkpt lat="45.6825477" lon="10.858179"><ele>922.0</ele><time>2026-04-26T08:45:19.805Z</time></trkpt><trkpt lat="45.6824963" lon="10.8583307"><ele>922.0</ele><time>2026-04-26T08:45:21.804Z</time></trkpt><trkpt lat="45.6823853" lon="10.8583858"><ele>922.0</ele><time>2026-04-26T08:45:23.805Z</time></trkpt><trkpt lat="45.6822845" lon="10.8583369"><ele>922.0</ele><time>2026-04-26T08:45:24.805Z</time></trkpt><trkpt lat="45.6821791" lon="10.858316"><ele>922.0</ele><time>2026-04-26T08:45:25.804Z</time></trkpt><trkpt lat="45.6820367" lon="10.8583192"><ele>922.0</ele><time>2026-04-26T08:45:26.805Z</time></trkpt><trkpt lat="45.6818879" lon="10.8583297"><ele>924.0</ele><time>2026-04-26T08:45:27.805Z</time></trkpt><trkpt lat="45.6817217" lon="10.8583504"><ele>926.0</ele><time>2026-04-26T08:45:28.806Z</time></trkpt><trkpt lat="45.6815377" lon="10.8583751"><ele>928.0</ele><time>2026-04-26T08:45:29.806Z</time></trkpt><trkpt lat="45.6813584" lon="10.8583913"><ele>928.0</ele><time>2026-04-26T08:45:30.805Z</time></trkpt><trkpt lat="45.6811799" lon="10.8583943"><ele>928.0</ele><time>2026-04-26T08:45:31.805Z</time></trkpt><trkpt lat="45.6809912" lon="10.8583802"><ele>928.0</ele><time>2026-04-26T08:45:32.806Z</time></trkpt><trkpt lat="45.6807926" lon="10.8583496"><ele>930.0</ele><time>2026-04-26T08:45:33.805Z</time></trkpt><trkpt lat="45.6806039" lon="10.8583121"><ele>932.0</ele><time>2026-04-26T08:45:34.806Z</time></trkpt><trkpt lat="45.6804121" lon="10.8582956"><ele>934.0</ele><time>2026-04-26T08:45:35.804Z</time></trkpt><trkpt lat="45.6802166" lon="10.8582858"><ele>935.3333333333333</ele><time>2026-04-26T08:45:36.805Z</time></trkpt><trkpt lat="45.6800293" lon="10.8582791"><ele>936.6666666666667</ele><time>2026-04-26T08:45:37.804Z</time></trkpt><trkpt lat="45.6798423" lon="10.8582675"><ele>938.0</ele><time>2026-04-26T08:45:38.805Z</time></trkpt><trkpt lat="45.6796692" lon="10.8582609"><ele>938.0</ele><time>2026-04-26T08:45:39.806Z</time></trkpt><trkpt lat="45.6794899" lon="10.8582506"><ele>938.0</ele><time>2026-04-26T08:45:40.805Z</time></trkpt><trkpt lat="45.6793107" lon="10.8582365"><ele>938.0</ele><time>2026-04-26T08:45:41.805Z</time></trkpt><trkpt lat="45.6791473" lon="10.8582192"><ele>940.0</ele><time>2026-04-26T08:45:42.805Z</time></trkpt><trkpt lat="45.6790022" lon="10.858213"><ele>942.0</ele><time>2026-04-26T08:45:43.805Z</time></trkpt><trkpt lat="45.6788683" lon="10.85823"><ele>944.0</ele><time>2026-04-26T08:45:44.805Z</time></trkpt><trkpt lat="45.6787428" lon="10.8582678"><ele>946.0</ele><time>2026-04-26T08:45:45.804Z</time></trkpt><trkpt lat="45.6786175" lon="10.8582822"><ele>948.5</ele><time>2026-04-26T08:45:46.806Z</time></trkpt><trkpt lat="45.6784854" lon="10.8582618"><ele>951.0</ele><time>2026-04-26T08:45:47.806Z</time></trkpt><trkpt lat="45.6783561" lon="10.8582318"><ele>953.5</ele><time>2026-04-26T08:45:48.805Z</time></trkpt><trkpt lat="45.6782272" lon="10.8581769"><ele>956.0</ele><time>2026-04-26T08:45:49.805Z</time></trkpt><trkpt lat="45.6781172" lon="10.8580929"><ele>956.0</ele><time>2026-04-26T08:45:50.804Z</time></trkpt><trkpt lat="45.6780023" lon="10.8580324"><ele>956.0</ele><time>2026-04-26T08:45:51.806Z</time></trkpt><trkpt lat="45.6778763" lon="10.8579989"><ele>956.0</ele><time>2026-04-26T08:45:52.806Z</time></trkpt><trkpt lat="45.677727" lon="10.8579938"><ele>956.0</ele><time>2026-04-26T08:45:53.805Z</time></trkpt><trkpt lat="45.6775537" lon="10.8580059"><ele>959.6666666666667</ele><time>2026-04-26T08:45:54.805Z</time></trkpt><trkpt lat="45.6773662" lon="10.8580309"><ele>963.3333333333333</ele><time>2026-04-26T08:45:55.806Z</time></trkpt><trkpt lat="45.6771967" lon="10.8580512"><ele>967.0</ele><time>2026-04-26T08:45:56.805Z</time></trkpt><trkpt lat="45.6770384" lon="10.8580682"><ele>967.0</ele><time>2026-04-26T08:45:57.805Z</time></trkpt><trkpt lat="45.6768815" lon="10.8580954"><ele>967.0</ele><time>2026-04-26T08:45:58.806Z</time></trkpt><trkpt lat="45.6767244" lon="10.8581468"><ele>967.0</ele><time>2026-04-26T08:45:59.805Z</time></trkpt><trkpt lat="45.6765825" lon="10.8581964"><ele>967.0</ele><time>2026-04-26T08:46:00.805Z</time></trkpt><trkpt lat="45.6764427" lon="10.8582618"><ele>967.0</ele><time>2026-04-26T08:46:01.805Z</time></trkpt><trkpt lat="45.6763254" lon="10.8583499"><ele>967.0</ele><time>2026-04-26T08:46:02.805Z</time></trkpt><trkpt lat="45.6762066" lon="10.858447"><ele>967.0</ele><time>2026-04-26T08:46:03.805Z</time></trkpt><trkpt lat="45.6760798" lon="10.8585953"><ele>969.3333333333333</ele><time>2026-04-26T08:46:04.804Z</time></trkpt><trkpt lat="45.6759496" lon="10.8587867"><ele>971.6666666666667</ele><time>2026-04-26T08:46:05.805Z</time></trkpt><trkpt lat="45.6758338" lon="10.8589638"><ele>974.0</ele><time>2026-04-26T08:46:06.806Z</time></trkpt><trkpt lat="45.6757397" lon="10.8591072"><ele>974.0</ele><time>2026-04-26T08:46:07.806Z</time></trkpt><trkpt lat="45.6756564" lon="10.8592111"><ele>974.0000000000001</ele><time>2026-04-26T08:46:08.806Z</time></trkpt><trkpt lat="45.6755796" lon="10.8592679"><ele>974.0000000000001</ele><time>2026-04-26T08:46:09.806Z</time></trkpt><trkpt lat="45.6755001" lon="10.8592721"><ele>974.0</ele><time>2026-04-26T08:46:10.805Z</time></trkpt><trkpt lat="45.6754026" lon="10.8592258"><ele>974.0</ele><time>2026-04-26T08:46:11.805Z</time></trkpt><trkpt lat="45.6752897" lon="10.8591131"><ele>971.75</ele><time>2026-04-26T08:46:12.805Z</time></trkpt><trkpt lat="45.675192" lon="10.858999"><ele>969.5</ele><time>2026-04-26T08:46:13.805Z</time></trkpt><trkpt lat="45.6750964" lon="10.8589198"><ele>967.25</ele><time>2026-04-26T08:46:14.804Z</time></trkpt><trkpt lat="45.6749858" lon="10.8588917"><ele>965.0</ele><time>2026-04-26T08:46:15.805Z</time></trkpt><trkpt lat="45.6748777" lon="10.8589254"><ele>965.0</ele><time>2026-04-26T08:46:16.805Z</time></trkpt><trkpt lat="45.6747716" lon="10.8590133"><ele>965.0</ele><time>2026-04-26T08:46:17.806Z</time></trkpt><trkpt lat="45.674677" lon="10.8591459"><ele>965.0</ele><time>2026-04-26T08:46:18.806Z</time></trkpt><trkpt lat="45.6746229" lon="10.8592789"><ele>965.0</ele><time>2026-04-26T08:46:19.806Z</time></trkpt><trkpt lat="45.6746096" lon="10.8594222"><ele>966.0</ele><time>2026-04-26T08:46:20.805Z</time></trkpt><trkpt lat="45.6746399" lon="10.8595741"><ele>967.0</ele><time>2026-04-26T08:46:21.804Z</time></trkpt><trkpt lat="45.6747099" lon="10.8597169"><ele>968.0</ele><time>2026-04-26T08:46:22.805Z</time></trkpt><trkpt lat="45.6748177" lon="10.8598511"><ele>969.0</ele><time>2026-04-26T08:46:23.806Z</time></trkpt><trkpt lat="45.6749411" lon="10.8599837"><ele>969.0</ele><time>2026-04-26T08:46:24.806Z</time></trkpt><trkpt lat="45.6750458" lon="10.86009"><ele>969.0000000000001</ele><time>2026-04-26T08:46:25.806Z</time></trkpt><trkpt lat="45.6751337" lon="10.8601817"><ele>969.0000000000001</ele><time>2026-04-26T08:46:26.805Z</time></trkpt><trkpt lat="45.6751998" lon="10.860265"><ele>969.0</ele><time>2026-04-26T08:46:27.805Z</time></trkpt><trkpt lat="45.6752313" lon="10.8603535"><ele>969.0</ele><time>2026-04-26T08:46:28.804Z</time></trkpt><trkpt lat="45.6752205" lon="10.8604525"><ele>969.75</ele><time>2026-04-26T08:46:29.805Z</time></trkpt><trkpt lat="45.6751669" lon="10.8605324"><ele>970.5</ele><time>2026-04-26T08:46:30.806Z</time></trkpt><trkpt lat="45.6750804" lon="10.8606212"><ele>971.25</ele><time>2026-04-26T08:46:31.805Z</time></trkpt><trkpt lat="45.674968" lon="10.8607493"><ele>972.0</ele><time>2026-04-26T08:46:32.805Z</time></trkpt><trkpt lat="45.6748484" lon="10.8609009"><ele>977.3333333333333</ele><time>2026-04-26T08:46:33.806Z</time></trkpt><trkpt lat="45.6747226" lon="10.8610891"><ele>982.6666666666666</ele><time>2026-04-26T08:46:34.806Z</time></trkpt><trkpt lat="45.6746128" lon="10.8612696"><ele>988.0</ele><time>2026-04-26T08:46:35.806Z</time></trkpt><trkpt lat="45.6745036" lon="10.8614243"><ele>985.0</ele><time>2026-04-26T08:46:36.804Z</time></trkpt><trkpt lat="45.6743895" lon="10.8615371"><ele>982.0</ele><time>2026-04-26T08:46:37.805Z</time></trkpt><trkpt lat="45.6742668" lon="10.8615967"><ele>979.0</ele><time>2026-04-26T08:46:38.804Z</time></trkpt><trkpt lat="45.6741239" lon="10.8616381"><ele>976.0</ele><time>2026-04-26T08:46:39.804Z</time></trkpt><trkpt lat="45.6739936" lon="10.8616914"><ele>976.0</ele><time>2026-04-26T08:46:40.805Z</time></trkpt><trkpt lat="45.6738949" lon="10.8617657"><ele>976.0</ele><time>2026-04-26T08:46:41.806Z</time></trkpt><trkpt lat="45.6738071" lon="10.8618903"><ele>976.0</ele><time>2026-04-26T08:46:42.806Z</time></trkpt><trkpt lat="45.6737093" lon="10.8620501"><ele>976.0</ele><time>2026-04-26T08:46:43.805Z</time></trkpt><trkpt lat="45.6735994" lon="10.8622329"><ele>976.6666666666666</ele><time>2026-04-26T08:46:44.805Z</time></trkpt><trkpt lat="45.6734998" lon="10.8624124"><ele>977.3333333333333</ele><time>2026-04-26T08:46:45.805Z</time></trkpt><trkpt lat="45.6734118" lon="10.8625948"><ele>978.0</ele><time>2026-04-26T08:46:46.806Z</time></trkpt><trkpt lat="45.6733328" lon="10.8627751"><ele>980.4</ele><time>2026-04-26T08:46:47.806Z</time></trkpt><trkpt lat="45.6732627" lon="10.8629286"><ele>982.8</ele><time>2026-04-26T08:46:48.806Z</time></trkpt><trkpt lat="45.673203" lon="10.8630607"><ele>985.2</ele><time>2026-04-26T08:46:49.806Z</time></trkpt><trkpt lat="45.6731525" lon="10.8631808"><ele>987.6</ele><time>2026-04-26T08:46:50.805Z</time></trkpt><trkpt lat="45.6731088" lon="10.863286"><ele>990.0</ele><time>2026-04-26T08:46:51.805Z</time></trkpt><trkpt lat="45.6730708" lon="10.8633703"><ele>990.0</ele><time>2026-04-26T08:46:52.806Z</time></trkpt><trkpt lat="45.6729899" lon="10.8634659"><ele>990.0</ele><time>2026-04-26T08:46:54.805Z</time></trkpt><trkpt lat="45.6729354" lon="10.8635226"><ele>990.0</ele><time>2026-04-26T08:46:56.806Z</time></trkpt><trkpt lat="45.6729897" lon="10.8635731"><ele>990.0</ele><time>2026-04-26T08:47:02.806Z</time></trkpt><trkpt lat="45.6730705" lon="10.863495"><ele>990.0</ele><time>2026-04-26T08:47:04.806Z</time></trkpt><trkpt lat="45.6731399" lon="10.8634686"><ele>990.0</ele><time>2026-04-26T08:47:05.806Z</time></trkpt><trkpt lat="45.6732129" lon="10.8634428"><ele>990.0</ele><time>2026-04-26T08:47:06.806Z</time></trkpt><trkpt lat="45.673304" lon="10.8633989"><ele>990.0</ele><time>2026-04-26T08:47:07.804Z</time></trkpt><trkpt lat="45.6734104" lon="10.863346"><ele>990.0</ele><time>2026-04-26T08:47:08.805Z</time></trkpt><trkpt lat="45.6735191" lon="10.8632812"><ele>990.0</ele><time>2026-04-26T08:47:09.805Z</time></trkpt><trkpt lat="45.6736233" lon="10.8632239"><ele>990.0</ele><time>2026-04-26T08:47:10.805Z</time></trkpt><trkpt lat="45.6737342" lon="10.8631718"><ele>992.25</ele><time>2026-04-26T08:47:11.806Z</time></trkpt><trkpt lat="45.6738467" lon="10.8631226"><ele>994.5</ele><time>2026-04-26T08:47:12.805Z</time></trkpt><trkpt lat="45.6739614" lon="10.8630775"><ele>996.75</ele><time>2026-04-26T08:47:13.804Z</time></trkpt><trkpt lat="45.674077" lon="10.8630404"><ele>999.0</ele><time>2026-04-26T08:47:14.805Z</time></trkpt><trkpt lat="45.6741951" lon="10.8630138"><ele>999.0</ele><time>2026-04-26T08:47:15.805Z</time></trkpt><trkpt lat="45.6743145" lon="10.8629971"><ele>999.0</ele><time>2026-04-26T08:47:16.806Z</time></trkpt><trkpt lat="45.6744331" lon="10.8629924"><ele>999.0</ele><time>2026-04-26T08:47:17.805Z</time></trkpt><trkpt lat="45.6745461" lon="10.8629933"><ele>999.0</ele><time>2026-04-26T08:47:18.805Z</time></trkpt><trkpt lat="45.6746584" lon="10.8629969"><ele>1001.0</ele><time>2026-04-26T08:47:19.804Z</time></trkpt><trkpt lat="45.6747631" lon="10.8629975"><ele>1003.0000000000001</ele><time>2026-04-26T08:47:20.805Z</time></trkpt><trkpt lat="45.674867" lon="10.8629918"><ele>1005.0000000000001</ele><time>2026-04-26T08:47:21.805Z</time></trkpt><trkpt lat="45.6749716" lon="10.8629829"><ele>1007.0</ele><time>2026-04-26T08:47:22.805Z</time></trkpt><trkpt lat="45.6750804" lon="10.8629783"><ele>1009.0</ele><time>2026-04-26T08:47:23.805Z</time></trkpt><trkpt lat="45.6751912" lon="10.8629534"><ele>1012.25</ele><time>2026-04-26T08:47:24.804Z</time></trkpt><trkpt lat="45.675303" lon="10.862904"><ele>1015.5</ele><time>2026-04-26T08:47:25.805Z</time></trkpt><trkpt lat="45.6754115" lon="10.8628419"><ele>1018.75</ele><time>2026-04-26T08:47:26.805Z</time></trkpt><trkpt lat="45.6755188" lon="10.8627853"><ele>1022.0</ele><time>2026-04-26T08:47:27.804Z</time></trkpt><trkpt lat="45.6756322" lon="10.8627368"><ele>1022.0</ele><time>2026-04-26T08:47:28.805Z</time></trkpt><trkpt lat="45.6757533" lon="10.8626963"><ele>1022.0</ele><time>2026-04-26T08:47:29.804Z</time></trkpt><trkpt lat="45.675888" lon="10.8626589"><ele>1022.0</ele><time>2026-04-26T08:47:30.804Z</time></trkpt><trkpt lat="45.6760251" lon="10.8626207"><ele>1022.0</ele><time>2026-04-26T08:47:31.805Z</time></trkpt><trkpt lat="45.6761664" lon="10.8625786"><ele>1019.6666666666667</ele><time>2026-04-26T08:47:32.805Z</time></trkpt><trkpt lat="45.6763124" lon="10.8625359"><ele>1017.3333333333333</ele><time>2026-04-26T08:47:33.805Z</time></trkpt><trkpt lat="45.6764603" lon="10.8624884"><ele>1015.0</ele><time>2026-04-26T08:47:34.805Z</time></trkpt><trkpt lat="45.6766036" lon="10.8624223"><ele>1015.0</ele><time>2026-04-26T08:47:35.804Z</time></trkpt><trkpt lat="45.6767388" lon="10.8623412"><ele>1015.0</ele><time>2026-04-26T08:47:36.805Z</time></trkpt><trkpt lat="45.6768702" lon="10.8622438"><ele>1015.0</ele><time>2026-04-26T08:47:37.806Z</time></trkpt><trkpt lat="45.6770041" lon="10.8621473"><ele>1015.0</ele><time>2026-04-26T08:47:38.806Z</time></trkpt><trkpt lat="45.6771464" lon="10.8620706"><ele>1018.6666666666666</ele><time>2026-04-26T08:47:39.805Z</time></trkpt><trkpt lat="45.6772961" lon="10.8620134"><ele>1022.3333333333333</ele><time>2026-04-26T08:47:40.806Z</time></trkpt><trkpt lat="45.6774507" lon="10.861982"><ele>1026.0</ele><time>2026-04-26T08:47:41.804Z</time></trkpt><trkpt lat="45.6776047" lon="10.8619783"><ele>1026.0</ele><time>2026-04-26T08:47:42.806Z</time></trkpt><trkpt lat="45.6777572" lon="10.8619976"><ele>1026.0</ele><time>2026-04-26T08:47:43.805Z</time></trkpt><trkpt lat="45.6778972" lon="10.8620288"><ele>1026.0</ele><time>2026-04-26T08:47:44.804Z</time></trkpt><trkpt lat="45.6780065" lon="10.8620525"><ele>1026.0</ele><time>2026-04-26T08:47:45.806Z</time></trkpt><trkpt lat="45.6780961" lon="10.8620643"><ele>1026.0</ele><time>2026-04-26T08:47:46.806Z</time></trkpt><trkpt lat="45.6781669" lon="10.8620554"><ele>1026.0</ele><time>2026-04-26T08:47:47.805Z</time></trkpt><trkpt lat="45.6782309" lon="10.86202"><ele>1026.0</ele><time>2026-04-26T08:47:48.805Z</time></trkpt><trkpt lat="45.678269" lon="10.861935"><ele>1026.0</ele><time>2026-04-26T08:47:49.804Z</time></trkpt><trkpt lat="45.6782843" lon="10.861827"><ele>1026.0</ele><time>2026-04-26T08:47:50.804Z</time></trkpt><trkpt lat="45.6782645" lon="10.8617155"><ele>1026.0</ele><time>2026-04-26T08:47:51.804Z</time></trkpt><trkpt lat="45.6782059" lon="10.8616234"><ele>1024.75</ele><time>2026-04-26T08:47:52.804Z</time></trkpt><trkpt lat="45.6781212" lon="10.8615385"><ele>1023.5</ele><time>2026-04-26T08:47:53.804Z</time></trkpt><trkpt lat="45.6779949" lon="10.8614538"><ele>1022.25</ele><time>2026-04-26T08:47:54.806Z</time></trkpt><trkpt lat="45.6778719" lon="10.8613557"><ele>1021.0</ele><time>2026-04-26T08:47:55.806Z</time></trkpt><trkpt lat="45.6777454" lon="10.8612429"><ele>1020.4</ele><time>2026-04-26T08:47:56.806Z</time></trkpt><trkpt lat="45.6776391" lon="10.8611212"><ele>1019.8</ele><time>2026-04-26T08:47:57.806Z</time></trkpt><trkpt lat="45.6775596" lon="10.860978"><ele>1019.1999999999999</ele><time>2026-04-26T08:47:58.806Z</time></trkpt><trkpt lat="45.6775232" lon="10.8608421"><ele>1018.5999999999999</ele><time>2026-04-26T08:47:59.805Z</time></trkpt><trkpt lat="45.6775147" lon="10.8607285"><ele>1018.0</ele><time>2026-04-26T08:48:00.805Z</time></trkpt><trkpt lat="45.6775364" lon="10.8606297"><ele>1018.0</ele><time>2026-04-26T08:48:01.805Z</time></trkpt><trkpt lat="45.6775873" lon="10.8605435"><ele>1018.0</ele><time>2026-04-26T08:48:02.805Z</time></trkpt><trkpt lat="45.6776774" lon="10.8604641"><ele>1018.0</ele><time>2026-04-26T08:48:03.806Z</time></trkpt><trkpt lat="45.6777902" lon="10.8604144"><ele>1018.0</ele><time>2026-04-26T08:48:04.806Z</time></trkpt><trkpt lat="45.6779107" lon="10.8604018"><ele>1018.0</ele><time>2026-04-26T08:48:05.804Z</time></trkpt><trkpt lat="45.6780537" lon="10.8604129"><ele>1020.3333333333333</ele><time>2026-04-26T08:48:06.805Z</time></trkpt><trkpt lat="45.6782161" lon="10.8604465"><ele>1022.6666666666667</ele><time>2026-04-26T08:48:07.806Z</time></trkpt><trkpt lat="45.6783815" lon="10.8604989"><ele>1025.0</ele><time>2026-04-26T08:48:08.806Z</time></trkpt><trkpt lat="45.67855" lon="10.860594"><ele>1026.0</ele><time>2026-04-26T08:48:09.804Z</time></trkpt><trkpt lat="45.6787196" lon="10.8607104"><ele>1027.0</ele><time>2026-04-26T08:48:10.805Z</time></trkpt><trkpt lat="45.678903" lon="10.8608112"><ele>1028.0</ele><time>2026-04-26T08:48:11.806Z</time></trkpt><trkpt lat="45.6791068" lon="10.8608873"><ele>1028.0</ele><time>2026-04-26T08:48:12.805Z</time></trkpt><trkpt lat="45.6793153" lon="10.8609592"><ele>1028.0</ele><time>2026-04-26T08:48:13.806Z</time></trkpt><trkpt lat="45.6795154" lon="10.8610247"><ele>1028.0</ele><time>2026-04-26T08:48:14.805Z</time></trkpt><trkpt lat="45.6797018" lon="10.8610956"><ele>1030.6666666666667</ele><time>2026-04-26T08:48:15.806Z</time></trkpt><trkpt lat="45.6798739" lon="10.8611817"><ele>1033.3333333333333</ele><time>2026-04-26T08:48:16.805Z</time></trkpt><trkpt lat="45.6800379" lon="10.8612794"><ele>1036.0</ele><time>2026-04-26T08:48:17.806Z</time></trkpt><trkpt lat="45.6801959" lon="10.8613869"><ele>1038.3333333333333</ele><time>2026-04-26T08:48:18.804Z</time></trkpt><trkpt lat="45.6803504" lon="10.8615071"><ele>1040.6666666666667</ele><time>2026-04-26T08:48:19.806Z</time></trkpt><trkpt lat="45.680504" lon="10.8616325"><ele>1043.0</ele><time>2026-04-26T08:48:20.805Z</time></trkpt><trkpt lat="45.6806542" lon="10.8617585"><ele>1045.6666666666667</ele><time>2026-04-26T08:48:21.806Z</time></trkpt><trkpt lat="45.6808033" lon="10.8618892"><ele>1048.3333333333333</ele><time>2026-04-26T08:48:22.804Z</time></trkpt><trkpt lat="45.6809527" lon="10.8620122"><ele>1051.0</ele><time>2026-04-26T08:48:23.805Z</time></trkpt><trkpt lat="45.6811055" lon="10.8621187"><ele>1053.6666666666665</ele><time>2026-04-26T08:48:24.805Z</time></trkpt><trkpt lat="45.681258" lon="10.862224"><ele>1056.3333333333333</ele><time>2026-04-26T08:48:25.805Z</time></trkpt><trkpt lat="45.6814113" lon="10.8623272"><ele>1059.0</ele><time>2026-04-26T08:48:26.806Z</time></trkpt><trkpt lat="45.6815494" lon="10.862415"><ele>1059.0</ele><time>2026-04-26T08:48:27.806Z</time></trkpt><trkpt lat="45.6816875" lon="10.8624848"><ele>1059.0</ele><time>2026-04-26T08:48:28.805Z</time></trkpt><trkpt lat="45.6818287" lon="10.8625385"><ele>1059.0</ele><time>2026-04-26T08:48:29.804Z</time></trkpt><trkpt lat="45.6819759" lon="10.8625835"><ele>1059.0</ele><time>2026-04-26T08:48:30.805Z</time></trkpt><trkpt lat="45.6821322" lon="10.8626155"><ele>1059.0</ele><time>2026-04-26T08:48:31.805Z</time></trkpt><trkpt lat="45.6822961" lon="10.8626293"><ele>1059.0</ele><time>2026-04-26T08:48:32.804Z</time></trkpt><trkpt lat="45.6824639" lon="10.8626339"><ele>1059.0</ele><time>2026-04-26T08:48:33.806Z</time></trkpt><trkpt lat="45.6826192" lon="10.8626441"><ele>1058.6666666666667</ele><time>2026-04-26T08:48:34.806Z</time></trkpt><trkpt lat="45.6827752" lon="10.862664"><ele>1058.3333333333335</ele><time>2026-04-26T08:48:35.805Z</time></trkpt><trkpt lat="45.6829304" lon="10.8626962"><ele>1058.0</ele><time>2026-04-26T08:48:36.804Z</time></trkpt><trkpt lat="45.6830809" lon="10.8627311"><ele>1058.0</ele><time>2026-04-26T08:48:37.806Z</time></trkpt><trkpt lat="45.6832186" lon="10.8627493"><ele>1058.0</ele><time>2026-04-26T08:48:38.806Z</time></trkpt><trkpt lat="45.6833541" lon="10.8627479"><ele>1058.0</ele><time>2026-04-26T08:48:39.805Z</time></trkpt><trkpt lat="45.6834934" lon="10.8627208"><ele>1058.0</ele><time>2026-04-26T08:48:40.806Z</time></trkpt><trkpt lat="45.6836402" lon="10.8626798"><ele>1060.0</ele><time>2026-04-26T08:48:41.805Z</time></trkpt><trkpt lat="45.6837925" lon="10.862639"><ele>1062.0</ele><time>2026-04-26T08:48:42.805Z</time></trkpt><trkpt lat="45.6839555" lon="10.8626132"><ele>1064.0</ele><time>2026-04-26T08:48:43.805Z</time></trkpt><trkpt lat="45.6841264" lon="10.8626058"><ele>1064.0</ele><time>2026-04-26T08:48:44.805Z</time></trkpt><trkpt lat="45.6842983" lon="10.8626154"><ele>1064.0</ele><time>2026-04-26T08:48:45.805Z</time></trkpt><trkpt lat="45.6844622" lon="10.8626248"><ele>1064.0</ele><time>2026-04-26T08:48:46.806Z</time></trkpt><trkpt lat="45.6846079" lon="10.8626308"><ele>1063.5</ele><time>2026-04-26T08:48:47.805Z</time></trkpt><trkpt lat="45.6847444" lon="10.8626302"><ele>1063.0</ele><time>2026-04-26T08:48:48.805Z</time></trkpt><trkpt lat="45.6848698" lon="10.8626209"><ele>1062.5</ele><time>2026-04-26T08:48:49.804Z</time></trkpt><trkpt lat="45.6849877" lon="10.8625799"><ele>1062.0</ele><time>2026-04-26T08:48:50.805Z</time></trkpt><trkpt lat="45.6851072" lon="10.8625066"><ele>1059.6666666666667</ele><time>2026-04-26T08:48:51.805Z</time></trkpt><trkpt lat="45.6852365" lon="10.8624057"><ele>1057.3333333333335</ele><time>2026-04-26T08:48:52.805Z</time></trkpt><trkpt lat="45.6853771" lon="10.86229"><ele>1055.0</ele><time>2026-04-26T08:48:53.805Z</time></trkpt><trkpt lat="45.6855185" lon="10.8621828"><ele>1055.0</ele><time>2026-04-26T08:48:54.804Z</time></trkpt><trkpt lat="45.6856548" lon="10.8620918"><ele>1055.0</ele><time>2026-04-26T08:48:55.806Z</time></trkpt><trkpt lat="45.6858001" lon="10.8620273"><ele>1055.0</ele><time>2026-04-26T08:48:56.804Z</time></trkpt><trkpt lat="45.6859534" lon="10.8619883"><ele>1061.5</ele><time>2026-04-26T08:48:57.804Z</time></trkpt><trkpt lat="45.6861028" lon="10.861962"><ele>1068.0</ele><time>2026-04-26T08:48:58.804Z</time></trkpt><trkpt lat="45.686237" lon="10.861939"><ele>1074.5</ele><time>2026-04-26T08:48:59.806Z</time></trkpt><trkpt lat="45.6863499" lon="10.8619183"><ele>1081.0</ele><time>2026-04-26T08:49:00.805Z</time></trkpt><trkpt lat="45.6864432" lon="10.8618863"><ele>1081.0</ele><time>2026-04-26T08:49:01.806Z</time></trkpt><trkpt lat="45.6865191" lon="10.8618239"><ele>1081.0</ele><time>2026-04-26T08:49:02.805Z</time></trkpt><trkpt lat="45.6865834" lon="10.8617117"><ele>1081.0</ele><time>2026-04-26T08:49:03.806Z</time></trkpt><trkpt lat="45.6866332" lon="10.8615584"><ele>1081.0</ele><time>2026-04-26T08:49:04.804Z</time></trkpt><trkpt lat="45.6866817" lon="10.8613742"><ele>1081.0</ele><time>2026-04-26T08:49:05.805Z</time></trkpt><trkpt lat="45.686734" lon="10.861208"><ele>1084.0</ele><time>2026-04-26T08:49:06.805Z</time></trkpt><trkpt lat="45.6868135" lon="10.8610324"><ele>1087.0</ele><time>2026-04-26T08:49:07.805Z</time></trkpt><trkpt lat="45.6869136" lon="10.8608411"><ele>1090.0</ele><time>2026-04-26T08:49:08.806Z</time></trkpt><trkpt lat="45.6870142" lon="10.8606483"><ele>1090.0</ele><time>2026-04-26T08:49:09.805Z</time></trkpt><trkpt lat="45.6871096" lon="10.8604495"><ele>1090.0</ele><time>2026-04-26T08:49:10.806Z</time></trkpt><trkpt lat="45.6872022" lon="10.8602574"><ele>1090.0</ele><time>2026-04-26T08:49:11.805Z</time></trkpt><trkpt lat="45.6872855" lon="10.8600849"><ele>1086.25</ele><time>2026-04-26T08:49:12.804Z</time></trkpt><trkpt lat="45.6873595" lon="10.8599266"><ele>1082.5</ele><time>2026-04-26T08:49:13.804Z</time></trkpt><trkpt lat="45.6874323" lon="10.8597773"><ele>1078.75</ele><time>2026-04-26T08:49:14.805Z</time></trkpt><trkpt lat="45.6875187" lon="10.8596408"><ele>1075.0</ele><time>2026-04-26T08:49:15.804Z</time></trkpt><trkpt lat="45.6876211" lon="10.8595216"><ele>1075.0</ele><time>2026-04-26T08:49:16.805Z</time></trkpt><trkpt lat="45.6877374" lon="10.859413"><ele>1075.0</ele><time>2026-04-26T08:49:17.805Z</time></trkpt><trkpt lat="45.6878673" lon="10.8593173"><ele>1075.0</ele><time>2026-04-26T08:49:18.805Z</time></trkpt><trkpt lat="45.6880121" lon="10.8592344"><ele>1075.0</ele><time>2026-04-26T08:49:19.805Z</time></trkpt><trkpt lat="45.6881662" lon="10.8591513"><ele>1076.3333333333333</ele><time>2026-04-26T08:49:20.804Z</time></trkpt><trkpt lat="45.6883192" lon="10.8590648"><ele>1077.6666666666667</ele><time>2026-04-26T08:49:21.804Z</time></trkpt><trkpt lat="45.6884695" lon="10.8589618"><ele>1079.0</ele><time>2026-04-26T08:49:22.804Z</time></trkpt><trkpt lat="45.6886225" lon="10.8588472"><ele>1082.3333333333335</ele><time>2026-04-26T08:49:23.806Z</time></trkpt><trkpt lat="45.688775" lon="10.8587289"><ele>1085.6666666666667</ele><time>2026-04-26T08:49:24.804Z</time></trkpt><trkpt lat="45.6889194" lon="10.8586069"><ele>1089.0</ele><time>2026-04-26T08:49:25.804Z</time></trkpt><trkpt lat="45.6890522" lon="10.858476"><ele>1081.6666666666667</ele><time>2026-04-26T08:49:26.805Z</time></trkpt><trkpt lat="45.6891749" lon="10.8583513"><ele>1074.3333333333335</ele><time>2026-04-26T08:49:27.806Z</time></trkpt><trkpt lat="45.6893036" lon="10.8582399"><ele>1067.0</ele><time>2026-04-26T08:49:28.805Z</time></trkpt><trkpt lat="45.6894442" lon="10.8581451"><ele>1067.0</ele><time>2026-04-26T08:49:29.806Z</time></trkpt><trkpt lat="45.6895978" lon="10.8580585"><ele>1067.0</ele><time>2026-04-26T08:49:30.805Z</time></trkpt><trkpt lat="45.6897455" lon="10.8579768"><ele>1067.0</ele><time>2026-04-26T08:49:31.805Z</time></trkpt><trkpt lat="45.6898724" lon="10.8578988"><ele>1067.0</ele><time>2026-04-26T08:49:32.806Z</time></trkpt><trkpt lat="45.6899785" lon="10.8578209"><ele>1067.0</ele><time>2026-04-26T08:49:33.806Z</time></trkpt><trkpt lat="45.6900673" lon="10.8577394"><ele>1067.0</ele><time>2026-04-26T08:49:34.806Z</time></trkpt><trkpt lat="45.6901332" lon="10.8576436"><ele>1067.0</ele><time>2026-04-26T08:49:35.805Z</time></trkpt><trkpt lat="45.6901641" lon="10.8575339"><ele>1067.0</ele><time>2026-04-26T08:49:36.805Z</time></trkpt><trkpt lat="45.6901632" lon="10.8574318"><ele>1064.6</ele><time>2026-04-26T08:49:37.804Z</time></trkpt><trkpt lat="45.69012" lon="10.8573318"><ele>1062.2</ele><time>2026-04-26T08:49:38.806Z</time></trkpt><trkpt lat="45.6900439" lon="10.8572462"><ele>1059.8</ele><time>2026-04-26T08:49:39.806Z</time></trkpt><trkpt lat="45.6899623" lon="10.8571576"><ele>1057.4</ele><time>2026-04-26T08:49:40.806Z</time></trkpt><trkpt lat="45.6899104" lon="10.8570577"><ele>1055.0</ele><time>2026-04-26T08:49:41.806Z</time></trkpt><trkpt lat="45.6898815" lon="10.8569357"><ele>1055.0</ele><time>2026-04-26T08:49:42.804Z</time></trkpt><trkpt lat="45.6898729" lon="10.8567667"><ele>1055.0</ele><time>2026-04-26T08:49:43.805Z</time></trkpt><trkpt lat="45.6898847" lon="10.8565951"><ele>1055.0</ele><time>2026-04-26T08:49:44.805Z</time></trkpt><trkpt lat="45.6899157" lon="10.8564568"><ele>1055.0</ele><time>2026-04-26T08:49:45.806Z</time></trkpt><trkpt lat="45.6899762" lon="10.856332"><ele>1055.0</ele><time>2026-04-26T08:49:46.805Z</time></trkpt><trkpt lat="45.690056" lon="10.8562196"><ele>1055.0</ele><time>2026-04-26T08:49:47.805Z</time></trkpt><trkpt lat="45.6901736" lon="10.8561565"><ele>1055.0</ele><time>2026-04-26T08:49:48.805Z</time></trkpt><trkpt lat="45.6903149" lon="10.8561129"><ele>1055.0</ele><time>2026-04-26T08:49:49.804Z</time></trkpt><trkpt lat="45.6904331" lon="10.8560651"><ele>1055.0</ele><time>2026-04-26T08:49:50.804Z</time></trkpt><trkpt lat="45.6905349" lon="10.8560198"><ele>1057.5</ele><time>2026-04-26T08:49:51.804Z</time></trkpt><trkpt lat="45.6906112" lon="10.8559625"><ele>1060.0</ele><time>2026-04-26T08:49:52.805Z</time></trkpt><trkpt lat="45.6906589" lon="10.8558861"><ele>1062.5</ele><time>2026-04-26T08:49:53.805Z</time></trkpt><trkpt lat="45.6906774" lon="10.8557872"><ele>1065.0</ele><time>2026-04-26T08:49:54.806Z</time></trkpt><trkpt lat="45.6906564" lon="10.8556817"><ele>1067.5</ele><time>2026-04-26T08:49:55.805Z</time></trkpt><trkpt lat="45.6905842" lon="10.8555887"><ele>1070.0</ele><time>2026-04-26T08:49:56.805Z</time></trkpt><trkpt lat="45.690481" lon="10.8555329"><ele>1070.0</ele><time>2026-04-26T08:49:57.804Z</time></trkpt><trkpt lat="45.6903522" lon="10.8555047"><ele>1070.0</ele><time>2026-04-26T08:49:58.805Z</time></trkpt><trkpt lat="45.6902124" lon="10.8554753"><ele>1070.0</ele><time>2026-04-26T08:49:59.806Z</time></trkpt><trkpt lat="45.6900494" lon="10.8554181"><ele>1070.0</ele><time>2026-04-26T08:50:00.805Z</time></trkpt><trkpt lat="45.6898831" lon="10.8553482"><ele>1063.6666666666667</ele><time>2026-04-26T08:50:01.806Z</time></trkpt><trkpt lat="45.6897182" lon="10.8552705"><ele>1057.3333333333333</ele><time>2026-04-26T08:50:02.805Z</time></trkpt><trkpt lat="45.689542" lon="10.8552007"><ele>1051.0</ele><time>2026-04-26T08:50:03.805Z</time></trkpt><trkpt lat="45.6893699" lon="10.8551297"><ele>1053.5</ele><time>2026-04-26T08:50:04.805Z</time></trkpt><trkpt lat="45.6892184" lon="10.8550753"><ele>1056.0</ele><time>2026-04-26T08:50:05.804Z</time></trkpt><trkpt lat="45.6890808" lon="10.855022"><ele>1058.5</ele><time>2026-04-26T08:50:06.806Z</time></trkpt><trkpt lat="45.6889718" lon="10.8549711"><ele>1061.0</ele><time>2026-04-26T08:50:07.806Z</time></trkpt><trkpt lat="45.688898" lon="10.8549361"><ele>1061.0</ele><time>2026-04-26T08:50:08.804Z</time></trkpt><trkpt lat="45.6888373" lon="10.8548545"><ele>1061.0</ele><time>2026-04-26T08:50:10.804Z</time></trkpt><trkpt lat="45.6888752" lon="10.8547782"><ele>1061.0</ele><time>2026-04-26T08:50:12.805Z</time></trkpt><trkpt lat="45.6889993" lon="10.8547868"><ele>1061.0</ele><time>2026-04-26T08:50:14.806Z</time></trkpt><trkpt lat="45.6890955" lon="10.8547945"><ele>1061.0</ele><time>2026-04-26T08:50:15.806Z</time></trkpt><trkpt lat="45.6891947" lon="10.8547904"><ele>1061.0</ele><time>2026-04-26T08:50:16.805Z</time></trkpt><trkpt lat="45.6893113" lon="10.8547814"><ele>1061.0</ele><time>2026-04-26T08:50:17.805Z</time></trkpt><trkpt lat="45.6894456" lon="10.8547598"><ele>1061.0</ele><time>2026-04-26T08:50:18.806Z</time></trkpt><trkpt lat="45.6895753" lon="10.8547425"><ele>1061.0</ele><time>2026-04-26T08:50:19.806Z</time></trkpt><trkpt lat="45.6897063" lon="10.8547255"><ele>1061.5</ele><time>2026-04-26T08:50:20.806Z</time></trkpt><trkpt lat="45.6898464" lon="10.8547027"><ele>1062.0</ele><time>2026-04-26T08:50:21.806Z</time></trkpt><trkpt lat="45.6899934" lon="10.8546718"><ele>1062.5</ele><time>2026-04-26T08:50:22.806Z</time></trkpt><trkpt lat="45.6901382" lon="10.8546176"><ele>1063.0</ele><time>2026-04-26T08:50:23.805Z</time></trkpt><trkpt lat="45.6902835" lon="10.8545318"><ele>1065.4</ele><time>2026-04-26T08:50:24.805Z</time></trkpt><trkpt lat="45.6904059" lon="10.8544426"><ele>1067.8</ele><time>2026-04-26T08:50:25.805Z</time></trkpt><trkpt lat="45.6905057" lon="10.8543754"><ele>1070.2</ele><time>2026-04-26T08:50:26.805Z</time></trkpt><trkpt lat="45.6905891" lon="10.8543192"><ele>1072.6</ele><time>2026-04-26T08:50:27.805Z</time></trkpt><trkpt lat="45.690651" lon="10.854266"><ele>1075.0</ele><time>2026-04-26T08:50:28.804Z</time></trkpt><trkpt lat="45.6906974" lon="10.8541923"><ele>1077.5</ele><time>2026-04-26T08:50:29.805Z</time></trkpt><trkpt lat="45.6907164" lon="10.8540994"><ele>1080.0</ele><time>2026-04-26T08:50:30.806Z</time></trkpt><trkpt lat="45.6906993" lon="10.854003"><ele>1082.5</ele><time>2026-04-26T08:50:31.805Z</time></trkpt><trkpt lat="45.690643" lon="10.8539373"><ele>1085.0</ele><time>2026-04-26T08:50:32.806Z</time></trkpt><trkpt lat="45.6905491" lon="10.8538949"><ele>1087.5</ele><time>2026-04-26T08:50:33.805Z</time></trkpt><trkpt lat="45.690422" lon="10.85388"><ele>1090.0</ele><time>2026-04-26T08:50:34.804Z</time></trkpt><trkpt lat="45.6902802" lon="10.853867"><ele>1089.5</ele><time>2026-04-26T08:50:35.805Z</time></trkpt><trkpt lat="45.6901531" lon="10.8538293"><ele>1089.0</ele><time>2026-04-26T08:50:36.805Z</time></trkpt><trkpt lat="45.6900242" lon="10.8537674"><ele>1088.5</ele><time>2026-04-26T08:50:37.804Z</time></trkpt><trkpt lat="45.6899135" lon="10.8536805"><ele>1088.0</ele><time>2026-04-26T08:50:38.805Z</time></trkpt><trkpt lat="45.6897988" lon="10.8535586"><ele>1092.75</ele><time>2026-04-26T08:50:39.806Z</time></trkpt><trkpt lat="45.6896826" lon="10.8534104"><ele>1097.5</ele><time>2026-04-26T08:50:40.805Z</time></trkpt><trkpt lat="45.6895895" lon="10.853275"><ele>1102.25</ele><time>2026-04-26T08:50:41.806Z</time></trkpt><trkpt lat="45.6895105" lon="10.8531318"><ele>1107.0</ele><time>2026-04-26T08:50:42.806Z</time></trkpt><trkpt lat="45.6894376" lon="10.8529563"><ele>1108.6666666666667</ele><time>2026-04-26T08:50:43.805Z</time></trkpt><trkpt lat="45.6893705" lon="10.8527524"><ele>1110.3333333333335</ele><time>2026-04-26T08:50:44.806Z</time></trkpt><trkpt lat="45.6893026" lon="10.8525343"><ele>1112.0</ele><time>2026-04-26T08:50:45.804Z</time></trkpt><trkpt lat="45.6892367" lon="10.8523529"><ele>1112.0</ele><time>2026-04-26T08:50:46.806Z</time></trkpt><trkpt lat="45.6891804" lon="10.852198"><ele>1112.0</ele><time>2026-04-26T08:50:47.805Z</time></trkpt><trkpt lat="45.6891398" lon="10.8520694"><ele>1112.0</ele><time>2026-04-26T08:50:48.805Z</time></trkpt><trkpt lat="45.6891136" lon="10.8519585"><ele>1112.0</ele><time>2026-04-26T08:50:49.806Z</time></trkpt><trkpt lat="45.6891223" lon="10.8518111"><ele>1112.0</ele><time>2026-04-26T08:50:51.805Z</time></trkpt><trkpt lat="45.6892092" lon="10.8517523"><ele>1112.0</ele><time>2026-04-26T08:50:53.806Z</time></trkpt><trkpt lat="45.6892759" lon="10.8517698"><ele>1112.0</ele><time>2026-04-26T08:50:54.804Z</time></trkpt><trkpt lat="45.689358" lon="10.8518196"><ele>1112.0</ele><time>2026-04-26T08:50:55.805Z</time></trkpt><trkpt lat="45.6894545" lon="10.8518933"><ele>1112.0</ele><time>2026-04-26T08:50:56.806Z</time></trkpt><trkpt lat="45.6895715" lon="10.851981"><ele>1112.0</ele><time>2026-04-26T08:50:57.806Z</time></trkpt><trkpt lat="45.6896886" lon="10.8520672"><ele>1115.0</ele><time>2026-04-26T08:50:58.805Z</time></trkpt><trkpt lat="45.689804" lon="10.8521502"><ele>1118.0</ele><time>2026-04-26T08:50:59.805Z</time></trkpt><trkpt lat="45.6899279" lon="10.8522172"><ele>1121.0</ele><time>2026-04-26T08:51:00.806Z</time></trkpt><trkpt lat="45.6900673" lon="10.8522652"><ele>1124.0</ele><time>2026-04-26T08:51:01.805Z</time></trkpt><trkpt lat="45.6902196" lon="10.852299"><ele>1126.3333333333335</ele><time>2026-04-26T08:51:02.805Z</time></trkpt><trkpt lat="45.6903885" lon="10.8523185"><ele>1128.6666666666667</ele><time>2026-04-26T08:51:03.804Z</time></trkpt><trkpt lat="45.6905492" lon="10.8523371"><ele>1131.0</ele><time>2026-04-26T08:51:04.805Z</time></trkpt><trkpt lat="45.6906919" lon="10.8523371"><ele>1131.0</ele><time>2026-04-26T08:51:05.805Z</time></trkpt><trkpt lat="45.6908408" lon="10.8523104"><ele>1131.0</ele><time>2026-04-26T08:51:06.805Z</time></trkpt><trkpt lat="45.6909951" lon="10.8522605"><ele>1131.0</ele><time>2026-04-26T08:51:07.805Z</time></trkpt><trkpt lat="45.6911518" lon="10.8522008"><ele>1133.0</ele><time>2026-04-26T08:51:08.805Z</time></trkpt><trkpt lat="45.6913057" lon="10.8521357"><ele>1135.0</ele><time>2026-04-26T08:51:09.805Z</time></trkpt><trkpt lat="45.6914403" lon="10.8520774"><ele>1137.0</ele><time>2026-04-26T08:51:10.806Z</time></trkpt><trkpt lat="45.6915727" lon="10.852024"><ele>1139.0</ele><time>2026-04-26T08:51:11.805Z</time></trkpt><trkpt lat="45.6916888" lon="10.8519675"><ele>1139.0</ele><time>2026-04-26T08:51:12.806Z</time></trkpt><trkpt lat="45.6918013" lon="10.8518916"><ele>1139.0</ele><time>2026-04-26T08:51:13.804Z</time></trkpt><trkpt lat="45.6919027" lon="10.8517988"><ele>1139.0</ele><time>2026-04-26T08:51:14.804Z</time></trkpt><trkpt lat="45.6920046" lon="10.8517113"><ele>1139.0</ele><time>2026-04-26T08:51:15.806Z</time></trkpt><trkpt lat="45.6921081" lon="10.8516432"><ele>1144.25</ele><time>2026-04-26T08:51:16.806Z</time></trkpt><trkpt lat="45.6922131" lon="10.8515956"><ele>1149.5</ele><time>2026-04-26T08:51:17.805Z</time></trkpt><trkpt lat="45.6923331" lon="10.8515915"><ele>1154.75</ele><time>2026-04-26T08:51:18.806Z</time></trkpt><trkpt lat="45.6924596" lon="10.8515743"><ele>1160.0</ele><time>2026-04-26T08:51:19.805Z</time></trkpt><trkpt lat="45.6926059" lon="10.8515149"><ele>1160.0</ele><time>2026-04-26T08:51:20.805Z</time></trkpt><trkpt lat="45.6927472" lon="10.8514737"><ele>1160.0</ele><time>2026-04-26T08:51:21.805Z</time></trkpt><trkpt lat="45.6928744" lon="10.851475"><ele>1160.0</ele><time>2026-04-26T08:51:22.806Z</time></trkpt><trkpt lat="45.6929874" lon="10.8514727"><ele>1160.0</ele><time>2026-04-26T08:51:23.805Z</time></trkpt><trkpt lat="45.6931069" lon="10.8514808"><ele>1161.0</ele><time>2026-04-26T08:51:24.806Z</time></trkpt><trkpt lat="45.6932365" lon="10.8514198"><ele>1162.0</ele><time>2026-04-26T08:51:25.805Z</time></trkpt><trkpt lat="45.693359" lon="10.8513677"><ele>1163.0</ele><time>2026-04-26T08:51:26.806Z</time></trkpt><trkpt lat="45.6934669" lon="10.8513331"><ele>1164.0</ele><time>2026-04-26T08:51:27.806Z</time></trkpt><trkpt lat="45.6935608" lon="10.8513151"><ele>1168.4</ele><time>2026-04-26T08:51:28.805Z</time></trkpt><trkpt lat="45.6936508" lon="10.8513243"><ele>1172.8000000000002</ele><time>2026-04-26T08:51:29.805Z</time></trkpt><trkpt lat="45.6937446" lon="10.8513906"><ele>1177.1999999999998</ele><time>2026-04-26T08:51:30.804Z</time></trkpt><trkpt lat="45.6938301" lon="10.8514943"><ele>1181.6</ele><time>2026-04-26T08:51:31.805Z</time></trkpt><trkpt lat="45.6938918" lon="10.8516216"><ele>1186.0</ele><time>2026-04-26T08:51:32.806Z</time></trkpt><trkpt lat="45.6939297" lon="10.8517771"><ele>1184.75</ele><time>2026-04-26T08:51:33.806Z</time></trkpt><trkpt lat="45.693935" lon="10.8519612"><ele>1183.5</ele><time>2026-04-26T08:51:34.805Z</time></trkpt><trkpt lat="45.6939487" lon="10.8521124"><ele>1182.25</ele><time>2026-04-26T08:51:35.805Z</time></trkpt><trkpt lat="45.6939893" lon="10.8522673"><ele>1181.0</ele><time>2026-04-26T08:51:36.805Z</time></trkpt><trkpt lat="45.694042" lon="10.8524479"><ele>1181.0</ele><time>2026-04-26T08:51:37.805Z</time></trkpt><trkpt lat="45.694115" lon="10.8525857"><ele>1181.0</ele><time>2026-04-26T08:51:38.806Z</time></trkpt><trkpt lat="45.6941962" lon="10.8527051"><ele>1181.0</ele><time>2026-04-26T08:51:39.805Z</time></trkpt><trkpt lat="45.694305" lon="10.8528039"><ele>1181.0</ele><time>2026-04-26T08:51:40.806Z</time></trkpt><trkpt lat="45.6944218" lon="10.8529018"><ele>1182.0</ele><time>2026-04-26T08:51:41.806Z</time></trkpt><trkpt lat="45.694514" lon="10.8530203"><ele>1183.0</ele><time>2026-04-26T08:51:42.805Z</time></trkpt><trkpt lat="45.6945722" lon="10.8531653"><ele>1184.0</ele><time>2026-04-26T08:51:43.805Z</time></trkpt><trkpt lat="45.6945976" lon="10.8533353"><ele>1185.0</ele><time>2026-04-26T08:51:44.805Z</time></trkpt><trkpt lat="45.6945932" lon="10.8535286"><ele>1185.0</ele><time>2026-04-26T08:51:45.806Z</time></trkpt><trkpt lat="45.6945902" lon="10.8537132"><ele>1185.0</ele><time>2026-04-26T08:51:46.805Z</time></trkpt><trkpt lat="45.6946071" lon="10.8538713"><ele>1185.0</ele><time>2026-04-26T08:51:47.806Z</time></trkpt><trkpt lat="45.6946507" lon="10.8539997"><ele>1185.0</ele><time>2026-04-26T08:51:48.805Z</time></trkpt><trkpt lat="45.6947247" lon="10.8540922"><ele>1185.0</ele><time>2026-04-26T08:51:49.804Z</time></trkpt><trkpt lat="45.6948325" lon="10.8541526"><ele>1185.0</ele><time>2026-04-26T08:51:50.804Z</time></trkpt><trkpt lat="45.6949606" lon="10.8541902"><ele>1185.0</ele><time>2026-04-26T08:51:51.805Z</time></trkpt><trkpt lat="45.6950672" lon="10.8542369"><ele>1185.0</ele><time>2026-04-26T08:51:52.805Z</time></trkpt><trkpt lat="45.695148" lon="10.8542914"><ele>1185.0</ele><time>2026-04-26T08:51:53.805Z</time></trkpt><trkpt lat="45.6951976" lon="10.854354"><ele>1185.0</ele><time>2026-04-26T08:51:54.806Z</time></trkpt><trkpt lat="45.6951855" lon="10.8545236"><ele>1184.2</ele><time>2026-04-26T08:51:56.806Z</time></trkpt><trkpt lat="45.6951485" lon="10.8546219"><ele>1183.4</ele><time>2026-04-26T08:51:57.806Z</time></trkpt><trkpt lat="45.6951309" lon="10.8547347"><ele>1182.6</ele><time>2026-04-26T08:51:58.805Z</time></trkpt><trkpt lat="45.6951394" lon="10.8548546"><ele>1181.8</ele><time>2026-04-26T08:51:59.805Z</time></trkpt><trkpt lat="45.6951921" lon="10.8549912"><ele>1181.0</ele><time>2026-04-26T08:52:00.806Z</time></trkpt><trkpt lat="45.6952698" lon="10.8551459"><ele>1184.75</ele><time>2026-04-26T08:52:01.806Z</time></trkpt><trkpt lat="45.6953481" lon="10.8552986"><ele>1188.5</ele><time>2026-04-26T08:52:02.806Z</time></trkpt><trkpt lat="45.6954325" lon="10.8554473"><ele>1192.25</ele><time>2026-04-26T08:52:03.806Z</time></trkpt><trkpt lat="45.6955189" lon="10.8555875"><ele>1196.0</ele><time>2026-04-26T08:52:04.806Z</time></trkpt><trkpt lat="45.6956253" lon="10.8557103"><ele>1196.0</ele><time>2026-04-26T08:52:05.805Z</time></trkpt><trkpt lat="45.6957571" lon="10.8558338"><ele>1196.0</ele><time>2026-04-26T08:52:06.806Z</time></trkpt><trkpt lat="45.6959021" lon="10.8559632"><ele>1196.0</ele><time>2026-04-26T08:52:07.806Z</time></trkpt><trkpt lat="45.6960278" lon="10.8560662"><ele>1198.5</ele><time>2026-04-26T08:52:08.806Z</time></trkpt><trkpt lat="45.6961622" lon="10.8561515"><ele>1201.0</ele><time>2026-04-26T08:52:09.806Z</time></trkpt><trkpt lat="45.696301" lon="10.8562275"><ele>1203.5</ele><time>2026-04-26T08:52:10.805Z</time></trkpt><trkpt lat="45.6964381" lon="10.8563082"><ele>1206.0</ele><time>2026-04-26T08:52:11.805Z</time></trkpt><trkpt lat="45.6965686" lon="10.8563931"><ele>1206.0</ele><time>2026-04-26T08:52:12.805Z</time></trkpt><trkpt lat="45.6967032" lon="10.8564846"><ele>1206.0</ele><time>2026-04-26T08:52:13.806Z</time></trkpt><trkpt lat="45.6968411" lon="10.8565854"><ele>1206.0</ele><time>2026-04-26T08:52:14.805Z</time></trkpt><trkpt lat="45.6969718" lon="10.8566849"><ele>1207.25</ele><time>2026-04-26T08:52:15.805Z</time></trkpt><trkpt lat="45.6970971" lon="10.8567771"><ele>1208.5</ele><time>2026-04-26T08:52:16.805Z</time></trkpt><trkpt lat="45.6972272" lon="10.856885"><ele>1209.75</ele><time>2026-04-26T08:52:17.804Z</time></trkpt><trkpt lat="45.6973476" lon="10.8570023"><ele>1211.0</ele><time>2026-04-26T08:52:18.806Z</time></trkpt><trkpt lat="45.697458" lon="10.8571225"><ele>1211.0</ele><time>2026-04-26T08:52:19.805Z</time></trkpt><trkpt lat="45.6975586" lon="10.8572285"><ele>1211.0</ele><time>2026-04-26T08:52:20.806Z</time></trkpt><trkpt lat="45.6976538" lon="10.8573196"><ele>1211.0</ele><time>2026-04-26T08:52:21.805Z</time></trkpt><trkpt lat="45.6977391" lon="10.8573972"><ele>1211.0</ele><time>2026-04-26T08:52:22.806Z</time></trkpt><trkpt lat="45.6978074" lon="10.8574526"><ele>1211.0</ele><time>2026-04-26T08:52:23.805Z</time></trkpt><trkpt lat="45.6979166" lon="10.8574841"><ele>1214.1666666666667</ele><time>2026-04-26T08:52:25.805Z</time></trkpt><trkpt lat="45.6979654" lon="10.8573771"><ele>1217.3333333333335</ele><time>2026-04-26T08:52:27.805Z</time></trkpt><trkpt lat="45.6979434" lon="10.8572812"><ele>1220.5</ele><time>2026-04-26T08:52:28.805Z</time></trkpt><trkpt lat="45.697889" lon="10.8571595"><ele>1223.6666666666667</ele><time>2026-04-26T08:52:29.805Z</time></trkpt><trkpt lat="45.6978359" lon="10.8570478"><ele>1226.8333333333333</ele><time>2026-04-26T08:52:30.804Z</time></trkpt><trkpt lat="45.6977983" lon="10.8569513"><ele>1230.0</ele><time>2026-04-26T08:52:31.805Z</time></trkpt><trkpt lat="45.6977742" lon="10.856856"><ele>1230.0</ele><time>2026-04-26T08:52:32.806Z</time></trkpt><trkpt lat="45.6977815" lon="10.8567191"><ele>1230.0</ele><time>2026-04-26T08:52:34.805Z</time></trkpt><trkpt lat="45.6978494" lon="10.8567013"><ele>1230.0</ele><time>2026-04-26T08:52:36.805Z</time></trkpt><trkpt lat="45.6979673" lon="10.8568317"><ele>1230.0</ele><time>2026-04-26T08:52:38.806Z</time></trkpt><trkpt lat="45.6980576" lon="10.8569065"><ele>1230.0</ele><time>2026-04-26T08:52:39.806Z</time></trkpt><trkpt lat="45.6981557" lon="10.8569775"><ele>1230.0</ele><time>2026-04-26T08:52:40.806Z</time></trkpt><trkpt lat="45.6982741" lon="10.8570435"><ele>1230.0</ele><time>2026-04-26T08:52:41.806Z</time></trkpt><trkpt lat="45.6983809" lon="10.857093"><ele>1230.0</ele><time>2026-04-26T08:52:42.806Z</time></trkpt><trkpt lat="45.6984691" lon="10.8571493"><ele>1230.0</ele><time>2026-04-26T08:52:43.806Z</time></trkpt><trkpt lat="45.6985304" lon="10.8572254"><ele>1230.0</ele><time>2026-04-26T08:52:44.806Z</time></trkpt><trkpt lat="45.6985691" lon="10.8573383"><ele>1232.25</ele><time>2026-04-26T08:52:45.805Z</time></trkpt><trkpt lat="45.6985909" lon="10.857483"><ele>1234.5</ele><time>2026-04-26T08:52:46.805Z</time></trkpt><trkpt lat="45.6986262" lon="10.8576331"><ele>1236.75</ele><time>2026-04-26T08:52:47.806Z</time></trkpt><trkpt lat="45.6986891" lon="10.857769"><ele>1239.0</ele><time>2026-04-26T08:52:48.806Z</time></trkpt><trkpt lat="45.6987791" lon="10.857893"><ele>1239.0</ele><time>2026-04-26T08:52:49.805Z</time></trkpt><trkpt lat="45.6988843" lon="10.8580181"><ele>1239.0</ele><time>2026-04-26T08:52:50.806Z</time></trkpt><trkpt lat="45.6989803" lon="10.8581295"><ele>1239.0</ele><time>2026-04-26T08:52:51.806Z</time></trkpt><trkpt lat="45.6990633" lon="10.8582296"><ele>1239.0</ele><time>2026-04-26T08:52:52.806Z</time></trkpt><trkpt lat="45.6991351" lon="10.8583277"><ele>1239.0</ele><time>2026-04-26T08:52:53.806Z</time></trkpt><trkpt lat="45.6991915" lon="10.8584119"><ele>1239.0</ele><time>2026-04-26T08:52:54.806Z</time></trkpt><trkpt lat="45.6992376" lon="10.8584774"><ele>1239.0</ele><time>2026-04-26T08:52:55.806Z</time></trkpt><trkpt lat="45.6993397" lon="10.8585178"><ele>1239.0</ele><time>2026-04-26T08:52:57.805Z</time></trkpt><trkpt lat="45.6994009" lon="10.8583983"><ele>1239.0</ele><time>2026-04-26T08:52:59.806Z</time></trkpt><trkpt lat="45.6993931" lon="10.8582834"><ele>1239.0</ele><time>2026-04-26T08:53:00.806Z</time></trkpt><trkpt lat="45.6993677" lon="10.8581399"><ele>1239.0</ele><time>2026-04-26T08:53:01.805Z</time></trkpt><trkpt lat="45.6993212" lon="10.857966"><ele>1239.0</ele><time>2026-04-26T08:53:02.806Z</time></trkpt><trkpt lat="45.6992478" lon="10.8577814"><ele>1239.0</ele><time>2026-04-26T08:53:03.805Z</time></trkpt><trkpt lat="45.6991567" lon="10.85759"><ele>1239.0</ele><time>2026-04-26T08:53:04.806Z</time></trkpt><trkpt lat="45.6990711" lon="10.8573844"><ele>1241.0</ele><time>2026-04-26T08:53:05.805Z</time></trkpt><trkpt lat="45.6990022" lon="10.8571712"><ele>1243.0</ele><time>2026-04-26T08:53:06.806Z</time></trkpt><trkpt lat="45.6989478" lon="10.8569848"><ele>1245.0</ele><time>2026-04-26T08:53:07.805Z</time></trkpt><trkpt lat="45.6988729" lon="10.8568086"><ele>1247.0</ele><time>2026-04-26T08:53:08.805Z</time></trkpt><trkpt lat="45.6987754" lon="10.856625"><ele>1248.3333333333335</ele><time>2026-04-26T08:53:09.806Z</time></trkpt><trkpt lat="45.6986717" lon="10.8564094"><ele>1249.6666666666667</ele><time>2026-04-26T08:53:10.805Z</time></trkpt><trkpt lat="45.6985729" lon="10.856196"><ele>1251.0</ele><time>2026-04-26T08:53:11.805Z</time></trkpt><trkpt lat="45.6984758" lon="10.8559823"><ele>1249.6666666666667</ele><time>2026-04-26T08:53:12.805Z</time></trkpt><trkpt lat="45.6983738" lon="10.8557601"><ele>1248.3333333333335</ele><time>2026-04-26T08:53:13.805Z</time></trkpt><trkpt lat="45.6982794" lon="10.8555605"><ele>1247.0</ele><time>2026-04-26T08:53:14.806Z</time></trkpt><trkpt lat="45.6981877" lon="10.8553936"><ele>1247.0</ele><time>2026-04-26T08:53:15.805Z</time></trkpt><trkpt lat="45.6980995" lon="10.8552607"><ele>1247.0</ele><time>2026-04-26T08:53:16.804Z</time></trkpt><trkpt lat="45.6980213" lon="10.8551569"><ele>1247.0</ele><time>2026-04-26T08:53:17.804Z</time></trkpt><trkpt lat="45.6979589" lon="10.8550729"><ele>1247.0</ele><time>2026-04-26T08:53:18.804Z</time></trkpt><trkpt lat="45.6979082" lon="10.8549467"><ele>1247.0</ele><time>2026-04-26T08:53:20.804Z</time></trkpt><trkpt lat="45.6979594" lon="10.8548516"><ele>1250.25</ele><time>2026-04-26T08:53:22.804Z</time></trkpt><trkpt lat="45.6980876" lon="10.8548994"><ele>1253.5</ele><time>2026-04-26T08:53:24.806Z</time></trkpt><trkpt lat="45.6981775" lon="10.8549644"><ele>1256.75</ele><time>2026-04-26T08:53:25.805Z</time></trkpt><trkpt lat="45.6982672" lon="10.855033"><ele>1260.0</ele><time>2026-04-26T08:53:26.804Z</time></trkpt><trkpt lat="45.6983782" lon="10.8551089"><ele>1260.5</ele><time>2026-04-26T08:53:27.805Z</time></trkpt><trkpt lat="45.6985016" lon="10.8551815"><ele>1261.0</ele><time>2026-04-26T08:53:28.805Z</time></trkpt><trkpt lat="45.6986285" lon="10.8552458"><ele>1261.5</ele><time>2026-04-26T08:53:29.805Z</time></trkpt><trkpt lat="45.6987728" lon="10.8553053"><ele>1262.0</ele><time>2026-04-26T08:53:30.805Z</time></trkpt><trkpt lat="45.6989278" lon="10.8553668"><ele>1262.0</ele><time>2026-04-26T08:53:31.805Z</time></trkpt><trkpt lat="45.6990874" lon="10.8554318"><ele>1262.0</ele><time>2026-04-26T08:53:32.806Z</time></trkpt><trkpt lat="45.6992432" lon="10.8554945"><ele>1262.0</ele><time>2026-04-26T08:53:33.806Z</time></trkpt><trkpt lat="45.699401" lon="10.8555571"><ele>1268.3333333333335</ele><time>2026-04-26T08:53:34.805Z</time></trkpt><trkpt lat="45.6995582" lon="10.8556203"><ele>1274.6666666666667</ele><time>2026-04-26T08:53:35.805Z</time></trkpt><trkpt lat="45.6997087" lon="10.8556828"><ele>1281.0</ele><time>2026-04-26T08:53:36.806Z</time></trkpt><trkpt lat="45.6998603" lon="10.8557449"><ele>1281.0</ele><time>2026-04-26T08:53:37.805Z</time></trkpt><trkpt lat="45.7000046" lon="10.8558031"><ele>1281.0</ele><time>2026-04-26T08:53:38.806Z</time></trkpt><trkpt lat="45.700138" lon="10.8558713"><ele>1281.0</ele><time>2026-04-26T08:53:39.805Z</time></trkpt><trkpt lat="45.7002692" lon="10.8559593"><ele>1281.0</ele><time>2026-04-26T08:53:40.805Z</time></trkpt><trkpt lat="45.700393" lon="10.8560726"><ele>1283.75</ele><time>2026-04-26T08:53:41.805Z</time></trkpt><trkpt lat="45.7005082" lon="10.8562061"><ele>1286.5</ele><time>2026-04-26T08:53:42.804Z</time></trkpt><trkpt lat="45.7006162" lon="10.8563436"><ele>1289.25</ele><time>2026-04-26T08:53:43.805Z</time></trkpt><trkpt lat="45.7007157" lon="10.8564743"><ele>1292.0</ele><time>2026-04-26T08:53:44.805Z</time></trkpt><trkpt lat="45.700811" lon="10.8565974"><ele>1292.0</ele><time>2026-04-26T08:53:45.804Z</time></trkpt><trkpt lat="45.7009028" lon="10.8567128"><ele>1292.0</ele><time>2026-04-26T08:53:46.804Z</time></trkpt><trkpt lat="45.7009939" lon="10.8568276"><ele>1292.0</ele><time>2026-04-26T08:53:47.805Z</time></trkpt><trkpt lat="45.7010885" lon="10.8569361"><ele>1292.0</ele><time>2026-04-26T08:53:48.805Z</time></trkpt><trkpt lat="45.7011896" lon="10.8570403"><ele>1294.75</ele><time>2026-04-26T08:53:49.804Z</time></trkpt><trkpt lat="45.7012985" lon="10.8571369"><ele>1297.5</ele><time>2026-04-26T08:53:50.805Z</time></trkpt><trkpt lat="45.7014134" lon="10.8572289"><ele>1300.25</ele><time>2026-04-26T08:53:51.805Z</time></trkpt><trkpt lat="45.7015325" lon="10.8573218"><ele>1303.0</ele><time>2026-04-26T08:53:52.804Z</time></trkpt><trkpt lat="45.701656" lon="10.8574182"><ele>1303.0</ele><time>2026-04-26T08:53:53.806Z</time></trkpt><trkpt lat="45.7017805" lon="10.857517"><ele>1303.0</ele><time>2026-04-26T08:53:54.805Z</time></trkpt><trkpt lat="45.7019075" lon="10.8576156"><ele>1303.0</ele><time>2026-04-26T08:53:55.805Z</time></trkpt><trkpt lat="45.702043" lon="10.8577204"><ele>1303.0</ele><time>2026-04-26T08:53:56.804Z</time></trkpt><trkpt lat="45.7021861" lon="10.8578308"><ele>1308.0</ele><time>2026-04-26T08:53:57.805Z</time></trkpt><trkpt lat="45.7023369" lon="10.8579479"><ele>1313.0</ele><time>2026-04-26T08:53:58.806Z</time></trkpt><trkpt lat="45.7024879" lon="10.8580627"><ele>1318.0</ele><time>2026-04-26T08:53:59.806Z</time></trkpt><trkpt lat="45.7026473" lon="10.8581829"><ele>1321.6666666666665</ele><time>2026-04-26T08:54:00.806Z</time></trkpt><trkpt lat="45.702817" lon="10.8583117"><ele>1325.3333333333333</ele><time>2026-04-26T08:54:01.806Z</time></trkpt><trkpt lat="45.7029991" lon="10.8584481"><ele>1329.0</ele><time>2026-04-26T08:54:02.806Z</time></trkpt><trkpt lat="45.7031773" lon="10.8585847"><ele>1331.0</ele><time>2026-04-26T08:54:03.806Z</time></trkpt><trkpt lat="45.703339" lon="10.8587076"><ele>1333.0</ele><time>2026-04-26T08:54:04.805Z</time></trkpt><trkpt lat="45.7034912" lon="10.8588201"><ele>1335.0</ele><time>2026-04-26T08:54:05.805Z</time></trkpt><trkpt lat="45.7036425" lon="10.8589076"><ele>1335.0</ele><time>2026-04-26T08:54:06.804Z</time></trkpt><trkpt lat="45.7037965" lon="10.8589729"><ele>1335.0</ele><time>2026-04-26T08:54:07.804Z</time></trkpt><trkpt lat="45.7039635" lon="10.8590239"><ele>1335.0</ele><time>2026-04-26T08:54:08.804Z</time></trkpt><trkpt lat="45.7041421" lon="10.8590624"><ele>1335.0</ele><time>2026-04-26T08:54:09.805Z</time></trkpt><trkpt lat="45.7043263" lon="10.8591035"><ele>1335.0</ele><time>2026-04-26T08:54:10.806Z</time></trkpt><trkpt lat="45.7045112" lon="10.8591548"><ele>1335.0</ele><time>2026-04-26T08:54:11.806Z</time></trkpt><trkpt lat="45.7046986" lon="10.8592117"><ele>1338.0</ele><time>2026-04-26T08:54:12.805Z</time></trkpt><trkpt lat="45.7048702" lon="10.8592741"><ele>1341.0</ele><time>2026-04-26T08:54:13.806Z</time></trkpt><trkpt lat="45.705029" lon="10.8593359"><ele>1344.0</ele><time>2026-04-26T08:54:14.806Z</time></trkpt><trkpt lat="45.7051809" lon="10.859402"><ele>1347.3333333333333</ele><time>2026-04-26T08:54:15.804Z</time></trkpt><trkpt lat="45.7053347" lon="10.8594732"><ele>1350.6666666666665</ele><time>2026-04-26T08:54:16.806Z</time></trkpt><trkpt lat="45.7054882" lon="10.8595462"><ele>1354.0</ele><time>2026-04-26T08:54:17.805Z</time></trkpt><trkpt lat="45.7056462" lon="10.8596226"><ele>1354.0</ele><time>2026-04-26T08:54:18.804Z</time></trkpt><trkpt lat="45.705809" lon="10.8597011"><ele>1354.0</ele><time>2026-04-26T08:54:19.804Z</time></trkpt><trkpt lat="45.705975" lon="10.8597791"><ele>1354.0</ele><time>2026-04-26T08:54:20.806Z</time></trkpt><trkpt lat="45.7061289" lon="10.8598512"><ele>1356.3333333333333</ele><time>2026-04-26T08:54:21.806Z</time></trkpt><trkpt lat="45.7062831" lon="10.8599218"><ele>1358.6666666666667</ele><time>2026-04-26T08:54:22.804Z</time></trkpt><trkpt lat="45.7064389" lon="10.8599904"><ele>1361.0</ele><time>2026-04-26T08:54:23.804Z</time></trkpt><trkpt lat="45.7065958" lon="10.8600583"><ele>1361.6666666666667</ele><time>2026-04-26T08:54:24.804Z</time></trkpt><trkpt lat="45.7067484" lon="10.860132"><ele>1362.3333333333333</ele><time>2026-04-26T08:54:25.805Z</time></trkpt><trkpt lat="45.7068924" lon="10.8601996"><ele>1363.0</ele><time>2026-04-26T08:54:26.805Z</time></trkpt><trkpt lat="45.7070241" lon="10.8602566"><ele>1365.75</ele><time>2026-04-26T08:54:27.805Z</time></trkpt><trkpt lat="45.7071508" lon="10.8603105"><ele>1368.5</ele><time>2026-04-26T08:54:28.806Z</time></trkpt><trkpt lat="45.7072766" lon="10.860364"><ele>1371.25</ele><time>2026-04-26T08:54:29.806Z</time></trkpt><trkpt lat="45.7074074" lon="10.8604132"><ele>1374.0</ele><time>2026-04-26T08:54:30.805Z</time></trkpt><trkpt lat="45.7075429" lon="10.8604519"><ele>1374.0</ele><time>2026-04-26T08:54:31.804Z</time></trkpt><trkpt lat="45.7076828" lon="10.8604855"><ele>1374.0</ele><time>2026-04-26T08:54:32.805Z</time></trkpt><trkpt lat="45.7078244" lon="10.8605154"><ele>1374.0</ele><time>2026-04-26T08:54:33.805Z</time></trkpt><trkpt lat="45.7079651" lon="10.8605444"><ele>1374.0</ele><time>2026-04-26T08:54:34.806Z</time></trkpt><trkpt lat="45.708099" lon="10.8605722"><ele>1376.75</ele><time>2026-04-26T08:54:35.806Z</time></trkpt><trkpt lat="45.7082275" lon="10.8605991"><ele>1379.5</ele><time>2026-04-26T08:54:36.805Z</time></trkpt><trkpt lat="45.7083505" lon="10.8606211"><ele>1382.25</ele><time>2026-04-26T08:54:37.804Z</time></trkpt><trkpt lat="45.7084788" lon="10.86064"><ele>1385.0</ele><time>2026-04-26T08:54:38.805Z</time></trkpt><trkpt lat="45.7086099" lon="10.8606555"><ele>1386.75</ele><time>2026-04-26T08:54:39.806Z</time></trkpt><trkpt lat="45.7087396" lon="10.8606682"><ele>1388.5</ele><time>2026-04-26T08:54:40.804Z</time></trkpt><trkpt lat="45.7088648" lon="10.8606778"><ele>1390.25</ele><time>2026-04-26T08:54:41.805Z</time></trkpt><trkpt lat="45.7089876" lon="10.8606868"><ele>1392.0</ele><time>2026-04-26T08:54:42.805Z</time></trkpt><trkpt lat="45.7091101" lon="10.8607004"><ele>1392.0</ele><time>2026-04-26T08:54:43.806Z</time></trkpt><trkpt lat="45.7092323" lon="10.8607159"><ele>1392.0</ele><time>2026-04-26T08:54:44.804Z</time></trkpt><trkpt lat="45.7093566" lon="10.8607291"><ele>1392.0</ele><time>2026-04-26T08:54:45.805Z</time></trkpt><trkpt lat="45.7094859" lon="10.8607372"><ele>1392.0</ele><time>2026-04-26T08:54:46.805Z</time></trkpt><trkpt lat="45.7096206" lon="10.8607407"><ele>1395.0</ele><time>2026-04-26T08:54:47.805Z</time></trkpt><trkpt lat="45.7097521" lon="10.8607388"><ele>1398.0</ele><time>2026-04-26T08:54:48.804Z</time></trkpt><trkpt lat="45.7098734" lon="10.8607371"><ele>1401.0</ele><time>2026-04-26T08:54:49.806Z</time></trkpt><trkpt lat="45.7099857" lon="10.8607374"><ele>1404.0</ele><time>2026-04-26T08:54:50.805Z</time></trkpt><trkpt lat="45.710102" lon="10.8607424"><ele>1404.0</ele><time>2026-04-26T08:54:51.805Z</time></trkpt><trkpt lat="45.7102202" lon="10.8607521"><ele>1404.0</ele><time>2026-04-26T08:54:52.806Z</time></trkpt><trkpt lat="45.710341" lon="10.8607601"><ele>1404.0</ele><time>2026-04-26T08:54:53.806Z</time></trkpt><trkpt lat="45.710465" lon="10.8607593"><ele>1404.0</ele><time>2026-04-26T08:54:54.804Z</time></trkpt><trkpt lat="45.7105923" lon="10.860761"><ele>1406.5</ele><time>2026-04-26T08:54:55.805Z</time></trkpt><trkpt lat="45.7107256" lon="10.8607688"><ele>1409.0</ele><time>2026-04-26T08:54:56.806Z</time></trkpt><trkpt lat="45.7108664" lon="10.8607793"><ele>1411.5</ele><time>2026-04-26T08:54:57.806Z</time></trkpt><trkpt lat="45.7110059" lon="10.8607891"><ele>1414.0</ele><time>2026-04-26T08:54:58.806Z</time></trkpt><trkpt lat="45.7111363" lon="10.8607971"><ele>1416.5</ele><time>2026-04-26T08:54:59.804Z</time></trkpt><trkpt lat="45.7112656" lon="10.8608015"><ele>1419.0</ele><time>2026-04-26T08:55:00.805Z</time></trkpt><trkpt lat="45.7113931" lon="10.860802"><ele>1421.5</ele><time>2026-04-26T08:55:01.806Z</time></trkpt><trkpt lat="45.7115219" lon="10.8608033"><ele>1424.0</ele><time>2026-04-26T08:55:02.805Z</time></trkpt><trkpt lat="45.7116458" lon="10.8608155"><ele>1424.0</ele><time>2026-04-26T08:55:03.804Z</time></trkpt><trkpt lat="45.7117652" lon="10.8608395"><ele>1424.0</ele><time>2026-04-26T08:55:04.804Z</time></trkpt><trkpt lat="45.7118858" lon="10.8608781"><ele>1424.0</ele><time>2026-04-26T08:55:05.806Z</time></trkpt><trkpt lat="45.7120044" lon="10.8609309"><ele>1424.0</ele><time>2026-04-26T08:55:06.806Z</time></trkpt><trkpt lat="45.7121217" lon="10.8609907"><ele>1424.6</ele><time>2026-04-26T08:55:07.806Z</time></trkpt><trkpt lat="45.7122339" lon="10.8610517"><ele>1425.2</ele><time>2026-04-26T08:55:08.806Z</time></trkpt><trkpt lat="45.7123316" lon="10.8611012"><ele>1425.8</ele><time>2026-04-26T08:55:09.806Z</time></trkpt><trkpt lat="45.7124169" lon="10.8611363"><ele>1426.3999999999999</ele><time>2026-04-26T08:55:10.804Z</time></trkpt><trkpt lat="45.7125055" lon="10.861163"><ele>1427.0</ele><time>2026-04-26T08:55:11.805Z</time></trkpt><trkpt lat="45.7125876" lon="10.8611771"><ele>1427.0</ele><time>2026-04-26T08:55:12.805Z</time></trkpt><trkpt lat="45.7126802" lon="10.8611846"><ele>1427.0</ele><time>2026-04-26T08:55:13.806Z</time></trkpt><trkpt lat="45.7127686" lon="10.8611727"><ele>1427.0</ele><time>2026-04-26T08:55:14.805Z</time></trkpt><trkpt lat="45.7128593" lon="10.8611289"><ele>1427.0</ele><time>2026-04-26T08:55:15.805Z</time></trkpt><trkpt lat="45.712951" lon="10.8610443"><ele>1427.0</ele><time>2026-04-26T08:55:16.804Z</time></trkpt><trkpt lat="45.7130386" lon="10.8609264"><ele>1428.25</ele><time>2026-04-26T08:55:17.805Z</time></trkpt><trkpt lat="45.7131275" lon="10.860788"><ele>1429.5</ele><time>2026-04-26T08:55:18.806Z</time></trkpt><trkpt lat="45.7132238" lon="10.8606409"><ele>1430.75</ele><time>2026-04-26T08:55:19.805Z</time></trkpt><trkpt lat="45.7133262" lon="10.860498"><ele>1432.0</ele><time>2026-04-26T08:55:20.804Z</time></trkpt><trkpt lat="45.7134343" lon="10.8603609"><ele>1432.0</ele><time>2026-04-26T08:55:21.805Z</time></trkpt><trkpt lat="45.7135458" lon="10.86023"><ele>1432.0</ele><time>2026-04-26T08:55:22.806Z</time></trkpt><trkpt lat="45.7136561" lon="10.8601211"><ele>1432.0</ele><time>2026-04-26T08:55:23.805Z</time></trkpt><trkpt lat="45.7137758" lon="10.8600273"><ele>1432.0</ele><time>2026-04-26T08:55:24.805Z</time></trkpt><trkpt lat="45.7139" lon="10.8599376"><ele>1433.5</ele><time>2026-04-26T08:55:25.805Z</time></trkpt><trkpt lat="45.7140244" lon="10.8598451"><ele>1435.0</ele><time>2026-04-26T08:55:26.805Z</time></trkpt><trkpt lat="45.7141521" lon="10.8597458"><ele>1436.5</ele><time>2026-04-26T08:55:27.805Z</time></trkpt><trkpt lat="45.7142821" lon="10.8596325"><ele>1438.0</ele><time>2026-04-26T08:55:28.805Z</time></trkpt><trkpt lat="45.7144222" lon="10.859509"><ele>1438.3333333333333</ele><time>2026-04-26T08:55:29.805Z</time></trkpt><trkpt lat="45.7145547" lon="10.8594016"><ele>1438.6666666666667</ele><time>2026-04-26T08:55:30.806Z</time></trkpt><trkpt lat="45.7146889" lon="10.8592982"><ele>1439.0</ele><time>2026-04-26T08:55:31.805Z</time></trkpt><trkpt lat="45.7148147" lon="10.8591932"><ele>1443.0</ele><time>2026-04-26T08:55:32.805Z</time></trkpt><trkpt lat="45.7149364" lon="10.8590826"><ele>1447.0</ele><time>2026-04-26T08:55:33.805Z</time></trkpt><trkpt lat="45.7150436" lon="10.8589763"><ele>1451.0</ele><time>2026-04-26T08:55:34.806Z</time></trkpt><trkpt lat="45.7151401" lon="10.8588733"><ele>1455.0</ele><time>2026-04-26T08:55:35.805Z</time></trkpt><trkpt lat="45.7152238" lon="10.8587665"><ele>1456.8</ele><time>2026-04-26T08:55:36.805Z</time></trkpt><trkpt lat="45.7152868" lon="10.8586488"><ele>1458.6</ele><time>2026-04-26T08:55:37.805Z</time></trkpt><trkpt lat="45.7153385" lon="10.8585107"><ele>1460.4</ele><time>2026-04-26T08:55:38.805Z</time></trkpt><trkpt lat="45.7153737" lon="10.8583599"><ele>1462.2</ele><time>2026-04-26T08:55:39.806Z</time></trkpt><trkpt lat="45.7153916" lon="10.8582027"><ele>1464.0</ele><time>2026-04-26T08:55:40.805Z</time></trkpt><trkpt lat="45.7153998" lon="10.8580672"><ele>1464.0</ele><time>2026-04-26T08:55:41.805Z</time></trkpt><trkpt lat="45.7154123" lon="10.8579408"><ele>1464.0</ele><time>2026-04-26T08:55:42.805Z</time></trkpt><trkpt lat="45.7154432" lon="10.8578325"><ele>1464.0</ele><time>2026-04-26T08:55:43.805Z</time></trkpt><trkpt lat="45.7154932" lon="10.8577444"><ele>1464.0</ele><time>2026-04-26T08:55:44.805Z</time></trkpt><trkpt lat="45.7155662" lon="10.857686"><ele>1464.0</ele><time>2026-04-26T08:55:45.806Z</time></trkpt><trkpt lat="45.7156584" lon="10.8576666"><ele>1464.0</ele><time>2026-04-26T08:55:46.806Z</time></trkpt><trkpt lat="45.715753" lon="10.8576523"><ele>1468.4</ele><time>2026-04-26T08:55:47.805Z</time></trkpt><trkpt lat="45.7158358" lon="10.857608"><ele>1472.8000000000002</ele><time>2026-04-26T08:55:48.804Z</time></trkpt><trkpt lat="45.7159179" lon="10.8575264"><ele>1477.1999999999998</ele><time>2026-04-26T08:55:49.805Z</time></trkpt><trkpt lat="45.7159968" lon="10.8574633"><ele>1481.6</ele><time>2026-04-26T08:55:50.805Z</time></trkpt><trkpt lat="45.7160806" lon="10.8574457"><ele>1486.0</ele><time>2026-04-26T08:55:51.805Z</time></trkpt><trkpt lat="45.7161691" lon="10.8574757"><ele>1484.0</ele><time>2026-04-26T08:55:52.805Z</time></trkpt><trkpt lat="45.7162687" lon="10.857532"><ele>1482.0</ele><time>2026-04-26T08:55:53.805Z</time></trkpt><trkpt lat="45.7163855" lon="10.8575896"><ele>1480.0</ele><time>2026-04-26T08:55:54.805Z</time></trkpt><trkpt lat="45.7165245" lon="10.8576499"><ele>1478.0</ele><time>2026-04-26T08:55:55.806Z</time></trkpt><trkpt lat="45.716656" lon="10.8577056"><ele>1478.0</ele><time>2026-04-26T08:55:56.805Z</time></trkpt><trkpt lat="45.7168008" lon="10.8577586"><ele>1478.0</ele><time>2026-04-26T08:55:57.804Z</time></trkpt><trkpt lat="45.7169638" lon="10.8578091"><ele>1478.0</ele><time>2026-04-26T08:55:58.804Z</time></trkpt><trkpt lat="45.7171369" lon="10.8578587"><ele>1483.0</ele><time>2026-04-26T08:55:59.804Z</time></trkpt><trkpt lat="45.7172859" lon="10.8579012"><ele>1488.0</ele><time>2026-04-26T08:56:00.805Z</time></trkpt><trkpt lat="45.7174328" lon="10.85794"><ele>1493.0</ele><time>2026-04-26T08:56:01.805Z</time></trkpt><trkpt lat="45.717575" lon="10.8579871"><ele>1498.0</ele><time>2026-04-26T08:56:02.806Z</time></trkpt><trkpt lat="45.717709" lon="10.8580404"><ele>1499.6000000000001</ele><time>2026-04-26T08:56:03.805Z</time></trkpt><trkpt lat="45.7178231" lon="10.8580943"><ele>1501.2</ele><time>2026-04-26T08:56:04.806Z</time></trkpt><trkpt lat="45.7179214" lon="10.858145"><ele>1502.8</ele><time>2026-04-26T08:56:05.806Z</time></trkpt><trkpt lat="45.7180099" lon="10.8581864"><ele>1504.4</ele><time>2026-04-26T08:56:06.806Z</time></trkpt><trkpt lat="45.7180975" lon="10.858216"><ele>1506.0</ele><time>2026-04-26T08:56:07.806Z</time></trkpt><trkpt lat="45.7181802" lon="10.8582215"><ele>1506.0</ele><time>2026-04-26T08:56:08.806Z</time></trkpt><trkpt lat="45.718262" lon="10.8582089"><ele>1506.0</ele><time>2026-04-26T08:56:09.804Z</time></trkpt><trkpt lat="45.7183417" lon="10.8581685"><ele>1506.0</ele><time>2026-04-26T08:56:10.805Z</time></trkpt><trkpt lat="45.7184238" lon="10.8581159"><ele>1506.0</ele><time>2026-04-26T08:56:11.805Z</time></trkpt><trkpt lat="45.718502" lon="10.8580523"><ele>1506.0</ele><time>2026-04-26T08:56:12.805Z</time></trkpt><trkpt lat="45.7185613" lon="10.8579811"><ele>1506.0</ele><time>2026-04-26T08:56:13.806Z</time></trkpt><trkpt lat="45.7186048" lon="10.8578816"><ele>1503.8</ele><time>2026-04-26T08:56:14.804Z</time></trkpt><trkpt lat="45.7186318" lon="10.8577584"><ele>1501.6</ele><time>2026-04-26T08:56:15.806Z</time></trkpt><trkpt lat="45.7186501" lon="10.8576091"><ele>1499.4</ele><time>2026-04-26T08:56:16.805Z</time></trkpt><trkpt lat="45.7186682" lon="10.8574348"><ele>1497.2</ele><time>2026-04-26T08:56:17.805Z</time></trkpt><trkpt lat="45.7186758" lon="10.8572501"><ele>1495.0</ele><time>2026-04-26T08:56:18.806Z</time></trkpt><trkpt lat="45.7186844" lon="10.857062"><ele>1495.0</ele><time>2026-04-26T08:56:19.805Z</time></trkpt><trkpt lat="45.7186973" lon="10.8568664"><ele>1495.0</ele><time>2026-04-26T08:56:20.806Z</time></trkpt><trkpt lat="45.7187061" lon="10.8566835"><ele>1495.0</ele><time>2026-04-26T08:56:21.806Z</time></trkpt><trkpt lat="45.7187061" lon="10.8565163"><ele>1495.0</ele><time>2026-04-26T08:56:22.806Z</time></trkpt><trkpt lat="45.7187078" lon="10.8563758"><ele>1499.3333333333333</ele><time>2026-04-26T08:56:23.806Z</time></trkpt><trkpt lat="45.7187091" lon="10.8562552"><ele>1503.6666666666665</ele><time>2026-04-26T08:56:24.805Z</time></trkpt><trkpt lat="45.7187184" lon="10.8561303"><ele>1508.0</ele><time>2026-04-26T08:56:25.805Z</time></trkpt><trkpt lat="45.7187444" lon="10.8560198"><ele>1512.3333333333333</ele><time>2026-04-26T08:56:26.804Z</time></trkpt><trkpt lat="45.7187897" lon="10.8559231"><ele>1516.6666666666667</ele><time>2026-04-26T08:56:27.806Z</time></trkpt><trkpt lat="45.7188504" lon="10.8558493"><ele>1521.0</ele><time>2026-04-26T08:56:28.805Z</time></trkpt><trkpt lat="45.718926" lon="10.8557966"><ele>1526.1999999999998</ele><time>2026-04-26T08:56:29.805Z</time></trkpt><trkpt lat="45.7190097" lon="10.8557625"><ele>1531.3999999999999</ele><time>2026-04-26T08:56:30.805Z</time></trkpt><trkpt lat="45.7190925" lon="10.8557151"><ele>1536.6</ele><time>2026-04-26T08:56:31.805Z</time></trkpt><trkpt lat="45.7191851" lon="10.8556257"><ele>1541.8</ele><time>2026-04-26T08:56:32.805Z</time></trkpt><trkpt lat="45.719271" lon="10.855533"><ele>1547.0</ele><time>2026-04-26T08:56:33.806Z</time></trkpt><trkpt lat="45.7193595" lon="10.8554578"><ele>1544.6</ele><time>2026-04-26T08:56:34.805Z</time></trkpt><trkpt lat="45.7194538" lon="10.8553891"><ele>1542.1999999999998</ele><time>2026-04-26T08:56:35.805Z</time></trkpt><trkpt lat="45.7195491" lon="10.8553264"><ele>1539.8</ele><time>2026-04-26T08:56:36.804Z</time></trkpt><trkpt lat="45.7196405" lon="10.8552616"><ele>1537.4</ele><time>2026-04-26T08:56:37.805Z</time></trkpt><trkpt lat="45.7197204" lon="10.8552107"><ele>1535.0</ele><time>2026-04-26T08:56:38.806Z</time></trkpt><trkpt lat="45.7198098" lon="10.8551766"><ele>1535.0</ele><time>2026-04-26T08:56:39.805Z</time></trkpt><trkpt lat="45.7199075" lon="10.8551716"><ele>1535.0</ele><time>2026-04-26T08:56:40.804Z</time></trkpt><trkpt lat="45.7200155" lon="10.8551913"><ele>1535.0</ele><time>2026-04-26T08:56:41.806Z</time></trkpt><trkpt lat="45.7201316" lon="10.8552272"><ele>1535.0</ele><time>2026-04-26T08:56:42.806Z</time></trkpt><trkpt lat="45.7202538" lon="10.8552665"><ele>1535.25</ele><time>2026-04-26T08:56:43.805Z</time></trkpt><trkpt lat="45.7203805" lon="10.8553003"><ele>1535.5</ele><time>2026-04-26T08:56:44.805Z</time></trkpt><trkpt lat="45.7205064" lon="10.8553242"><ele>1535.75</ele><time>2026-04-26T08:56:45.805Z</time></trkpt><trkpt lat="45.7206207" lon="10.8553347"><ele>1536.0</ele><time>2026-04-26T08:56:46.806Z</time></trkpt><trkpt lat="45.7207367" lon="10.8553274"><ele>1536.0</ele><time>2026-04-26T08:56:47.805Z</time></trkpt><trkpt lat="45.7208507" lon="10.8553017"><ele>1536.0</ele><time>2026-04-26T08:56:48.806Z</time></trkpt><trkpt lat="45.72096" lon="10.8552672"><ele>1536.0</ele><time>2026-04-26T08:56:49.805Z</time></trkpt><trkpt lat="45.7210526" lon="10.8552408"><ele>1536.0</ele><time>2026-04-26T08:56:50.806Z</time></trkpt><trkpt lat="45.7211337" lon="10.8552229"><ele>1536.0</ele><time>2026-04-26T08:56:51.806Z</time></trkpt><trkpt lat="45.7212051" lon="10.8551921"><ele>1535.0</ele><time>2026-04-26T08:56:52.806Z</time></trkpt><trkpt lat="45.7212673" lon="10.8551309"><ele>1534.0</ele><time>2026-04-26T08:56:53.805Z</time></trkpt><trkpt lat="45.7213168" lon="10.855047"><ele>1533.0</ele><time>2026-04-26T08:56:54.805Z</time></trkpt><trkpt lat="45.721366" lon="10.8549573"><ele>1532.0</ele><time>2026-04-26T08:56:55.806Z</time></trkpt><trkpt lat="45.7214274" lon="10.8548745"><ele>1531.0</ele><time>2026-04-26T08:56:56.806Z</time></trkpt><trkpt lat="45.7214994" lon="10.8547935"><ele>1530.0</ele><time>2026-04-26T08:56:57.805Z</time></trkpt><trkpt lat="45.7215585" lon="10.8547105"><ele>1538.4</ele><time>2026-04-26T08:56:58.806Z</time></trkpt><trkpt lat="45.7216069" lon="10.854646"><ele>1546.8</ele><time>2026-04-26T08:56:59.805Z</time></trkpt><trkpt lat="45.7217255" lon="10.8546156"><ele>1555.1999999999998</ele><time>2026-04-26T08:57:01.805Z</time></trkpt><trkpt lat="45.7217973" lon="10.8546558"><ele>1563.6</ele><time>2026-04-26T08:57:02.806Z</time></trkpt><trkpt lat="45.7218754" lon="10.8547387"><ele>1572.0</ele><time>2026-04-26T08:57:03.805Z</time></trkpt><trkpt lat="45.7219631" lon="10.8548569"><ele>1575.0</ele><time>2026-04-26T08:57:04.806Z</time></trkpt><trkpt lat="45.7220536" lon="10.8549867"><ele>1578.0</ele><time>2026-04-26T08:57:05.805Z</time></trkpt><trkpt lat="45.7221442" lon="10.8551008"><ele>1581.0</ele><time>2026-04-26T08:57:06.806Z</time></trkpt><trkpt lat="45.7222361" lon="10.8551989"><ele>1584.0</ele><time>2026-04-26T08:57:07.805Z</time></trkpt><trkpt lat="45.7223157" lon="10.8552724"><ele>1584.0</ele><time>2026-04-26T08:57:08.804Z</time></trkpt><trkpt lat="45.722395" lon="10.8553135"><ele>1584.0</ele><time>2026-04-26T08:57:09.805Z</time></trkpt><trkpt lat="45.7224785" lon="10.8553131"><ele>1584.0</ele><time>2026-04-26T08:57:10.804Z</time></trkpt><trkpt lat="45.7225597" lon="10.8552699"><ele>1584.0</ele><time>2026-04-26T08:57:11.806Z</time></trkpt><trkpt lat="45.7226354" lon="10.8551998"><ele>1584.0</ele><time>2026-04-26T08:57:12.806Z</time></trkpt><trkpt lat="45.7226959" lon="10.8550751"><ele>1584.0</ele><time>2026-04-26T08:57:13.804Z</time></trkpt><trkpt lat="45.7227276" lon="10.8549631"><ele>1584.0</ele><time>2026-04-26T08:57:14.806Z</time></trkpt><trkpt lat="45.7227641" lon="10.8548685"><ele>1584.0</ele><time>2026-04-26T08:57:15.805Z</time></trkpt><trkpt lat="45.7228172" lon="10.854802"><ele>1584.0</ele><time>2026-04-26T08:57:16.806Z</time></trkpt><trkpt lat="45.7228862" lon="10.854766"><ele>1584.0</ele><time>2026-04-26T08:57:17.805Z</time></trkpt><trkpt lat="45.7229606" lon="10.8547753"><ele>1584.0</ele><time>2026-04-26T08:57:18.804Z</time></trkpt><trkpt lat="45.7230356" lon="10.8548309"><ele>1586.4</ele><time>2026-04-26T08:57:19.804Z</time></trkpt><trkpt lat="45.7231093" lon="10.8549124"><ele>1588.8000000000002</ele><time>2026-04-26T08:57:20.804Z</time></trkpt><trkpt lat="45.723182" lon="10.8550203"><ele>1591.1999999999998</ele><time>2026-04-26T08:57:21.805Z</time></trkpt><trkpt lat="45.723248" lon="10.855144"><ele>1593.6</ele><time>2026-04-26T08:57:22.806Z</time></trkpt><trkpt lat="45.7232995" lon="10.8552615"><ele>1596.0</ele><time>2026-04-26T08:57:23.805Z</time></trkpt><trkpt lat="45.7233567" lon="10.8553539"><ele>1593.0</ele><time>2026-04-26T08:57:24.806Z</time></trkpt><trkpt lat="45.723419" lon="10.8554308"><ele>1590.0</ele><time>2026-04-26T08:57:25.806Z</time></trkpt><trkpt lat="45.7234923" lon="10.8554965"><ele>1587.0</ele><time>2026-04-26T08:57:26.805Z</time></trkpt><trkpt lat="45.7235824" lon="10.8555331"><ele>1584.0</ele><time>2026-04-26T08:57:27.805Z</time></trkpt><trkpt lat="45.7236793" lon="10.855554"><ele>1581.0</ele><time>2026-04-26T08:57:28.805Z</time></trkpt><trkpt lat="45.7237865" lon="10.8555529"><ele>1581.0</ele><time>2026-04-26T08:57:29.805Z</time></trkpt><trkpt lat="45.7238935" lon="10.8555318"><ele>1581.0</ele><time>2026-04-26T08:57:30.805Z</time></trkpt><trkpt lat="45.7239807" lon="10.8554785"><ele>1581.0</ele><time>2026-04-26T08:57:31.804Z</time></trkpt><trkpt lat="45.7240624" lon="10.8554172"><ele>1581.0</ele><time>2026-04-26T08:57:32.805Z</time></trkpt><trkpt lat="45.724136" lon="10.8553636"><ele>1581.0</ele><time>2026-04-26T08:57:33.805Z</time></trkpt><trkpt lat="45.7242185" lon="10.8553266"><ele>1581.0</ele><time>2026-04-26T08:57:34.806Z</time></trkpt><trkpt lat="45.724307" lon="10.8553266"><ele>1581.0</ele><time>2026-04-26T08:57:35.805Z</time></trkpt><trkpt lat="45.7243994" lon="10.8553655"><ele>1581.0</ele><time>2026-04-26T08:57:36.805Z</time></trkpt><trkpt lat="45.7245008" lon="10.8554262"><ele>1581.0</ele><time>2026-04-26T08:57:37.804Z</time></trkpt><trkpt lat="45.7246148" lon="10.855494"><ele>1581.0</ele><time>2026-04-26T08:57:38.806Z</time></trkpt><trkpt lat="45.7247174" lon="10.8555647"><ele>1582.1666666666667</ele><time>2026-04-26T08:57:39.805Z</time></trkpt><trkpt lat="45.7248132" lon="10.8556167"><ele>1583.3333333333335</ele><time>2026-04-26T08:57:40.806Z</time></trkpt><trkpt lat="45.7249031" lon="10.8556407"><ele>1584.5</ele><time>2026-04-26T08:57:41.805Z</time></trkpt><trkpt lat="45.7249857" lon="10.8556241"><ele>1585.6666666666667</ele><time>2026-04-26T08:57:42.805Z</time></trkpt><trkpt lat="45.725063" lon="10.85557"><ele>1586.8333333333335</ele><time>2026-04-26T08:57:43.806Z</time></trkpt><trkpt lat="45.7251261" lon="10.855513"><ele>1588.0</ele><time>2026-04-26T08:57:44.805Z</time></trkpt><trkpt lat="45.7251875" lon="10.8554876"><ele>1589.0000000000002</ele><time>2026-04-26T08:57:45.805Z</time></trkpt><trkpt lat="45.7252608" lon="10.8554804"><ele>1590.0</ele><time>2026-04-26T08:57:46.805Z</time></trkpt><trkpt lat="45.7253344" lon="10.8555253"><ele>1591.0</ele><time>2026-04-26T08:57:47.806Z</time></trkpt><trkpt lat="45.7254056" lon="10.8555795"><ele>1592.0</ele><time>2026-04-26T08:57:48.805Z</time></trkpt><trkpt lat="45.7254795" lon="10.8556161"><ele>1593.0000000000002</ele><time>2026-04-26T08:57:49.806Z</time></trkpt><trkpt lat="45.7255539" lon="10.8555952"><ele>1594.0</ele><time>2026-04-26T08:57:50.805Z</time></trkpt><trkpt lat="45.7256158" lon="10.8555325"><ele>1594.0000000000002</ele><time>2026-04-26T08:57:51.806Z</time></trkpt><trkpt lat="45.7256652" lon="10.8554543"><ele>1594.0</ele><time>2026-04-26T08:57:52.804Z</time></trkpt><trkpt lat="45.7257217" lon="10.8554018"><ele>1594.0</ele><time>2026-04-26T08:57:53.806Z</time></trkpt><trkpt lat="45.7257926" lon="10.8553749"><ele>1594.0</ele><time>2026-04-26T08:57:54.805Z</time></trkpt><trkpt lat="45.7258719" lon="10.8553845"><ele>1594.0000000000002</ele><time>2026-04-26T08:57:55.804Z</time></trkpt><trkpt lat="45.7259673" lon="10.8554267"><ele>1594.0</ele><time>2026-04-26T08:57:56.804Z</time></trkpt><trkpt lat="45.72607" lon="10.8554933"><ele>1595.3333333333335</ele><time>2026-04-26T08:57:57.805Z</time></trkpt><trkpt lat="45.7261591" lon="10.8555469"><ele>1596.6666666666667</ele><time>2026-04-26T08:57:58.805Z</time></trkpt><trkpt lat="45.7262396" lon="10.855577"><ele>1598.0</ele><time>2026-04-26T08:57:59.805Z</time></trkpt><trkpt lat="45.7263141" lon="10.8555827"><ele>1599.3333333333335</ele><time>2026-04-26T08:58:00.805Z</time></trkpt><trkpt lat="45.7263851" lon="10.8555697"><ele>1600.6666666666667</ele><time>2026-04-26T08:58:01.806Z</time></trkpt><trkpt lat="45.7264763" lon="10.8555007"><ele>1602.0</ele><time>2026-04-26T08:58:03.806Z</time></trkpt><trkpt lat="45.7265762" lon="10.8554282"><ele>1602.0</ele><time>2026-04-26T08:58:05.805Z</time></trkpt><trkpt lat="45.7267045" lon="10.8554013"><ele>1602.0</ele><time>2026-04-26T08:58:07.805Z</time></trkpt><trkpt lat="45.7267916" lon="10.8554268"><ele>1602.0</ele><time>2026-04-26T08:58:08.805Z</time></trkpt><trkpt lat="45.7268895" lon="10.8554657"><ele>1602.0</ele><time>2026-04-26T08:58:09.804Z</time></trkpt><trkpt lat="45.7269998" lon="10.8555225"><ele>1602.0</ele><time>2026-04-26T08:58:10.805Z</time></trkpt><trkpt lat="45.7271071" lon="10.855588"><ele>1604.1999999999998</ele><time>2026-04-26T08:58:11.805Z</time></trkpt><trkpt lat="45.7272003" lon="10.8556359"><ele>1606.4</ele><time>2026-04-26T08:58:12.806Z</time></trkpt><trkpt lat="45.7272974" lon="10.8556594"><ele>1608.6</ele><time>2026-04-26T08:58:13.806Z</time></trkpt><trkpt lat="45.7273939" lon="10.8556441"><ele>1610.8000000000002</ele><time>2026-04-26T08:58:14.805Z</time></trkpt><trkpt lat="45.7274861" lon="10.8556099"><ele>1613.0</ele><time>2026-04-26T08:58:15.805Z</time></trkpt><trkpt lat="45.7275664" lon="10.8555952"><ele>1612.9999999999998</ele><time>2026-04-26T08:58:16.805Z</time></trkpt><trkpt lat="45.7276418" lon="10.8555966"><ele>1613.0</ele><time>2026-04-26T08:58:17.805Z</time></trkpt><trkpt lat="45.7277095" lon="10.8556322"><ele>1613.0</ele><time>2026-04-26T08:58:18.806Z</time></trkpt><trkpt lat="45.7277661" lon="10.8557103"><ele>1613.0</ele><time>2026-04-26T08:58:19.805Z</time></trkpt><trkpt lat="45.7278202" lon="10.8558188"><ele>1612.9999999999998</ele><time>2026-04-26T08:58:20.805Z</time></trkpt><trkpt lat="45.7278729" lon="10.8559733"><ele>1613.0</ele><time>2026-04-26T08:58:21.806Z</time></trkpt><trkpt lat="45.7279345" lon="10.8561127"><ele>1612.4</ele><time>2026-04-26T08:58:22.804Z</time></trkpt><trkpt lat="45.727997" lon="10.8562299"><ele>1611.8000000000002</ele><time>2026-04-26T08:58:23.806Z</time></trkpt><trkpt lat="45.7280632" lon="10.8563162"><ele>1611.2</ele><time>2026-04-26T08:58:24.805Z</time></trkpt><trkpt lat="45.728139" lon="10.8563667"><ele>1610.6</ele><time>2026-04-26T08:58:25.805Z</time></trkpt><trkpt lat="45.7282333" lon="10.8564081"><ele>1610.0</ele><time>2026-04-26T08:58:26.804Z</time></trkpt><trkpt lat="45.7283323" lon="10.8564615"><ele>1610.0</ele><time>2026-04-26T08:58:27.805Z</time></trkpt><trkpt lat="45.7284034" lon="10.8565493"><ele>1610.0</ele><time>2026-04-26T08:58:28.806Z</time></trkpt><trkpt lat="45.7284623" lon="10.8566497"><ele>1610.0</ele><time>2026-04-26T08:58:29.806Z</time></trkpt><trkpt lat="45.7285167" lon="10.8567683"><ele>1610.0</ele><time>2026-04-26T08:58:30.805Z</time></trkpt><trkpt lat="45.7285687" lon="10.856874"><ele>1610.0</ele><time>2026-04-26T08:58:31.804Z</time></trkpt><trkpt lat="45.728631" lon="10.8569445"><ele>1607.6</ele><time>2026-04-26T08:58:32.804Z</time></trkpt><trkpt lat="45.7287044" lon="10.8569799"><ele>1605.2</ele><time>2026-04-26T08:58:33.806Z</time></trkpt><trkpt lat="45.7287907" lon="10.8569862"><ele>1602.8000000000002</ele><time>2026-04-26T08:58:34.806Z</time></trkpt><trkpt lat="45.7288856" lon="10.85697"><ele>1600.4</ele><time>2026-04-26T08:58:35.805Z</time></trkpt><trkpt lat="45.7289922" lon="10.8569293"><ele>1598.0</ele><time>2026-04-26T08:58:36.806Z</time></trkpt><trkpt lat="45.7290807" lon="10.856899"><ele>1597.9999999999998</ele><time>2026-04-26T08:58:37.805Z</time></trkpt><trkpt lat="45.729161" lon="10.8568874"><ele>1598.0</ele><time>2026-04-26T08:58:38.804Z</time></trkpt><trkpt lat="45.7292398" lon="10.8569046"><ele>1598.0</ele><time>2026-04-26T08:58:39.805Z</time></trkpt><trkpt lat="45.7292974" lon="10.8569595"><ele>1598.0</ele><time>2026-04-26T08:58:40.805Z</time></trkpt><trkpt lat="45.7293482" lon="10.8570247"><ele>1597.9999999999998</ele><time>2026-04-26T08:58:41.805Z</time></trkpt><trkpt lat="45.7294068" lon="10.8571277"><ele>1598.0</ele><time>2026-04-26T08:58:42.805Z</time></trkpt><trkpt lat="45.729477" lon="10.857255"><ele>1597.8000000000002</ele><time>2026-04-26T08:58:43.805Z</time></trkpt><trkpt lat="45.7295487" lon="10.8573954"><ele>1597.6</ele><time>2026-04-26T08:58:44.805Z</time></trkpt><trkpt lat="45.7295987" lon="10.8575557"><ele>1597.4</ele><time>2026-04-26T08:58:45.805Z</time></trkpt><trkpt lat="45.7296353" lon="10.8577129"><ele>1597.1999999999998</ele><time>2026-04-26T08:58:46.805Z</time></trkpt><trkpt lat="45.7296643" lon="10.8578343"><ele>1597.0</ele><time>2026-04-26T08:58:47.805Z</time></trkpt><trkpt lat="45.7297004" lon="10.8579278"><ele>1597.0</ele><time>2026-04-26T08:58:48.805Z</time></trkpt><trkpt lat="45.729758" lon="10.8579939"><ele>1597.0</ele><time>2026-04-26T08:58:49.805Z</time></trkpt><trkpt lat="45.7298365" lon="10.8580498"><ele>1597.0</ele><time>2026-04-26T08:58:50.804Z</time></trkpt><trkpt lat="45.7299359" lon="10.8580878"><ele>1597.0</ele><time>2026-04-26T08:58:51.806Z</time></trkpt><trkpt lat="45.7300535" lon="10.8581146"><ele>1597.0</ele><time>2026-04-26T08:58:52.806Z</time></trkpt><trkpt lat="45.7301664" lon="10.8581462"><ele>1598.3999999999999</ele><time>2026-04-26T08:58:53.805Z</time></trkpt><trkpt lat="45.7302652" lon="10.8581918"><ele>1599.8</ele><time>2026-04-26T08:58:54.806Z</time></trkpt><trkpt lat="45.7303374" lon="10.8582542"><ele>1601.2</ele><time>2026-04-26T08:58:55.805Z</time></trkpt><trkpt lat="45.730386" lon="10.8583474"><ele>1602.6</ele><time>2026-04-26T08:58:56.805Z</time></trkpt><trkpt lat="45.7304169" lon="10.8584782"><ele>1604.0</ele><time>2026-04-26T08:58:57.805Z</time></trkpt><trkpt lat="45.7304291" lon="10.858632"><ele>1604.0</ele><time>2026-04-26T08:58:58.806Z</time></trkpt><trkpt lat="45.7304432" lon="10.858778"><ele>1604.0</ele><time>2026-04-26T08:58:59.804Z</time></trkpt><trkpt lat="45.7304677" lon="10.8589051"><ele>1604.0</ele><time>2026-04-26T08:59:00.805Z</time></trkpt><trkpt lat="45.7305112" lon="10.8590097"><ele>1604.0</ele><time>2026-04-26T08:59:01.806Z</time></trkpt><trkpt lat="45.7305864" lon="10.8591053"><ele>1604.0</ele><time>2026-04-26T08:59:02.804Z</time></trkpt><trkpt lat="45.7306864" lon="10.8591983"><ele>1603.25</ele><time>2026-04-26T08:59:03.806Z</time></trkpt><trkpt lat="45.7307894" lon="10.859299"><ele>1602.5</ele><time>2026-04-26T08:59:04.805Z</time></trkpt><trkpt lat="45.7308877" lon="10.8594211"><ele>1601.75</ele><time>2026-04-26T08:59:05.805Z</time></trkpt><trkpt lat="45.7309901" lon="10.8595616"><ele>1601.0</ele><time>2026-04-26T08:59:06.806Z</time></trkpt><trkpt lat="45.731095" lon="10.8597"><ele>1601.0</ele><time>2026-04-26T08:59:07.804Z</time></trkpt><trkpt lat="45.7312016" lon="10.8598361"><ele>1601.0</ele><time>2026-04-26T08:59:08.805Z</time></trkpt><trkpt lat="45.7313005" lon="10.8599797"><ele>1601.0</ele><time>2026-04-26T08:59:09.805Z</time></trkpt><trkpt lat="45.7313828" lon="10.8601265"><ele>1601.0</ele><time>2026-04-26T08:59:10.806Z</time></trkpt><trkpt lat="45.731455" lon="10.8602866"><ele>1595.0</ele><time>2026-04-26T08:59:11.804Z</time></trkpt><trkpt lat="45.7315205" lon="10.8604602"><ele>1589.0</ele><time>2026-04-26T08:59:12.805Z</time></trkpt><trkpt lat="45.7315849" lon="10.8606416"><ele>1583.0</ele><time>2026-04-26T08:59:13.804Z</time></trkpt><trkpt lat="45.7316555" lon="10.8608325"><ele>1577.0</ele><time>2026-04-26T08:59:14.806Z</time></trkpt><trkpt lat="45.7317359" lon="10.861021"><ele>1580.3333333333333</ele><time>2026-04-26T08:59:15.805Z</time></trkpt><trkpt lat="45.7318223" lon="10.8612039"><ele>1583.6666666666665</ele><time>2026-04-26T08:59:16.806Z</time></trkpt><trkpt lat="45.7319141" lon="10.8613836"><ele>1587.0</ele><time>2026-04-26T08:59:17.805Z</time></trkpt><trkpt lat="45.7320081" lon="10.8615591"><ele>1587.0</ele><time>2026-04-26T08:59:18.805Z</time></trkpt><trkpt lat="45.7320962" lon="10.8617263"><ele>1587.0</ele><time>2026-04-26T08:59:19.806Z</time></trkpt><trkpt lat="45.7321711" lon="10.861872"><ele>1587.0</ele><time>2026-04-26T08:59:20.805Z</time></trkpt><trkpt lat="45.7322305" lon="10.8620105"><ele>1587.0</ele><time>2026-04-26T08:59:21.805Z</time></trkpt><trkpt lat="45.7322653" lon="10.8621504"><ele>1582.25</ele><time>2026-04-26T08:59:22.805Z</time></trkpt><trkpt lat="45.7322825" lon="10.8622978"><ele>1577.5</ele><time>2026-04-26T08:59:23.805Z</time></trkpt><trkpt lat="45.732301" lon="10.8624547"><ele>1572.75</ele><time>2026-04-26T08:59:24.805Z</time></trkpt><trkpt lat="45.7323407" lon="10.8626147"><ele>1568.0</ele><time>2026-04-26T08:59:25.804Z</time></trkpt><trkpt lat="45.7323964" lon="10.8627816"><ele>1563.75</ele><time>2026-04-26T08:59:26.806Z</time></trkpt><trkpt lat="45.7324647" lon="10.8629515"><ele>1559.5</ele><time>2026-04-26T08:59:27.805Z</time></trkpt><trkpt lat="45.7325365" lon="10.8631268"><ele>1555.25</ele><time>2026-04-26T08:59:28.805Z</time></trkpt><trkpt lat="45.7326074" lon="10.8632944"><ele>1551.0</ele><time>2026-04-26T08:59:29.804Z</time></trkpt><trkpt lat="45.7326813" lon="10.8634481"><ele>1550.25</ele><time>2026-04-26T08:59:30.805Z</time></trkpt><trkpt lat="45.7327616" lon="10.8635895"><ele>1549.5</ele><time>2026-04-26T08:59:31.805Z</time></trkpt><trkpt lat="45.7328497" lon="10.8637268"><ele>1548.75</ele><time>2026-04-26T08:59:32.806Z</time></trkpt><trkpt lat="45.7329398" lon="10.863859"><ele>1548.0</ele><time>2026-04-26T08:59:33.806Z</time></trkpt><trkpt lat="45.7330358" lon="10.8639809"><ele>1548.0</ele><time>2026-04-26T08:59:34.804Z</time></trkpt><trkpt lat="45.7331389" lon="10.8640797"><ele>1548.0</ele><time>2026-04-26T08:59:35.805Z</time></trkpt><trkpt lat="45.7332472" lon="10.8641646"><ele>1548.0</ele><time>2026-04-26T08:59:36.806Z</time></trkpt><trkpt lat="45.7333543" lon="10.864248"><ele>1548.0</ele><time>2026-04-26T08:59:37.804Z</time></trkpt><trkpt lat="45.7334533" lon="10.8643464"><ele>1548.0</ele><time>2026-04-26T08:59:38.805Z</time></trkpt><trkpt lat="45.733542" lon="10.8644658"><ele>1548.0</ele><time>2026-04-26T08:59:39.806Z</time></trkpt><trkpt lat="45.7336238" lon="10.8646174"><ele>1548.0</ele><time>2026-04-26T08:59:40.806Z</time></trkpt><trkpt lat="45.7336937" lon="10.8647933"><ele>1548.0</ele><time>2026-04-26T08:59:41.806Z</time></trkpt><trkpt lat="45.7337581" lon="10.864983"><ele>1544.75</ele><time>2026-04-26T08:59:42.805Z</time></trkpt><trkpt lat="45.7338222" lon="10.8651808"><ele>1541.5</ele><time>2026-04-26T08:59:43.806Z</time></trkpt><trkpt lat="45.7338868" lon="10.8653735"><ele>1538.25</ele><time>2026-04-26T08:59:44.806Z</time></trkpt><trkpt lat="45.7339479" lon="10.8655573"><ele>1535.0</ele><time>2026-04-26T08:59:45.804Z</time></trkpt><trkpt lat="45.7340024" lon="10.8657221"><ele>1535.0</ele><time>2026-04-26T08:59:46.806Z</time></trkpt><trkpt lat="45.7340507" lon="10.8658648"><ele>1535.0</ele><time>2026-04-26T08:59:47.805Z</time></trkpt><trkpt lat="45.7340975" lon="10.8659925"><ele>1535.0</ele><time>2026-04-26T08:59:48.805Z</time></trkpt><trkpt lat="45.7341487" lon="10.8661032"><ele>1535.0</ele><time>2026-04-26T08:59:49.804Z</time></trkpt><trkpt lat="45.7342154" lon="10.8661818"><ele>1535.0</ele><time>2026-04-26T08:59:50.805Z</time></trkpt><trkpt lat="45.7343041" lon="10.866236"><ele>1532.25</ele><time>2026-04-26T08:59:51.804Z</time></trkpt><trkpt lat="45.7344146" lon="10.8662719"><ele>1529.5</ele><time>2026-04-26T08:59:52.805Z</time></trkpt><trkpt lat="45.7345397" lon="10.8662934"><ele>1526.75</ele><time>2026-04-26T08:59:53.806Z</time></trkpt><trkpt lat="45.7346782" lon="10.8663106"><ele>1524.0</ele><time>2026-04-26T08:59:54.806Z</time></trkpt><trkpt lat="45.7348264" lon="10.8663332"><ele>1524.0</ele><time>2026-04-26T08:59:55.805Z</time></trkpt><trkpt lat="45.7349738" lon="10.8663615"><ele>1524.0</ele><time>2026-04-26T08:59:56.805Z</time></trkpt><trkpt lat="45.7351212" lon="10.866394"><ele>1524.0</ele><time>2026-04-26T08:59:57.806Z</time></trkpt><trkpt lat="45.7352753" lon="10.866435"><ele>1524.6666666666667</ele><time>2026-04-26T08:59:58.805Z</time></trkpt><trkpt lat="45.7354371" lon="10.8664821"><ele>1525.3333333333335</ele><time>2026-04-26T08:59:59.805Z</time></trkpt><trkpt lat="45.7356044" lon="10.8665336"><ele>1526.0</ele><time>2026-04-26T09:00:00.805Z</time></trkpt><trkpt lat="45.7357706" lon="10.8665859"><ele>1526.0</ele><time>2026-04-26T09:00:01.805Z</time></trkpt><trkpt lat="45.7359249" lon="10.8666399"><ele>1526.0</ele><time>2026-04-26T09:00:02.804Z</time></trkpt><trkpt lat="45.736074" lon="10.8667032"><ele>1526.0</ele><time>2026-04-26T09:00:03.804Z</time></trkpt><trkpt lat="45.7362135" lon="10.8667787"><ele>1524.25</ele><time>2026-04-26T09:00:04.805Z</time></trkpt><trkpt lat="45.7363417" lon="10.8668689"><ele>1522.5</ele><time>2026-04-26T09:00:05.806Z</time></trkpt><trkpt lat="45.7364652" lon="10.8669809"><ele>1520.75</ele><time>2026-04-26T09:00:06.804Z</time></trkpt><trkpt lat="45.7365818" lon="10.8671185"><ele>1519.0</ele><time>2026-04-26T09:00:07.804Z</time></trkpt><trkpt lat="45.7366941" lon="10.867266"><ele>1519.0</ele><time>2026-04-26T09:00:08.805Z</time></trkpt><trkpt lat="45.7367947" lon="10.8673913"><ele>1519.0</ele><time>2026-04-26T09:00:09.806Z</time></trkpt><trkpt lat="45.7368926" lon="10.8674883"><ele>1519.0</ele><time>2026-04-26T09:00:10.805Z</time></trkpt><trkpt lat="45.7369943" lon="10.8675552"><ele>1519.0</ele><time>2026-04-26T09:00:11.805Z</time></trkpt><trkpt lat="45.7370975" lon="10.8676008"><ele>1517.5</ele><time>2026-04-26T09:00:12.804Z</time></trkpt><trkpt lat="45.7371942" lon="10.8676375"><ele>1516.0</ele><time>2026-04-26T09:00:13.805Z</time></trkpt><trkpt lat="45.7372882" lon="10.86767"><ele>1514.5</ele><time>2026-04-26T09:00:14.805Z</time></trkpt><trkpt lat="45.7373746" lon="10.867708"><ele>1513.0</ele><time>2026-04-26T09:00:15.805Z</time></trkpt><trkpt lat="45.7374516" lon="10.8677562"><ele>1511.5</ele><time>2026-04-26T09:00:16.805Z</time></trkpt><trkpt lat="45.7375111" lon="10.8678214"><ele>1510.0</ele><time>2026-04-26T09:00:17.804Z</time></trkpt><trkpt lat="45.7375654" lon="10.8678822"><ele>1510.0</ele><time>2026-04-26T09:00:18.804Z</time></trkpt><trkpt lat="45.7376243" lon="10.8679156"><ele>1510.0</ele><time>2026-04-26T09:00:19.805Z</time></trkpt><trkpt lat="45.737699" lon="10.8679139"><ele>1510.0</ele><time>2026-04-26T09:00:20.805Z</time></trkpt><trkpt lat="45.7377903" lon="10.8678805"><ele>1510.0</ele><time>2026-04-26T09:00:21.805Z</time></trkpt><trkpt lat="45.7378893" lon="10.8678119"><ele>1510.0</ele><time>2026-04-26T09:00:22.806Z</time></trkpt><trkpt lat="45.7379948" lon="10.8677177"><ele>1511.5</ele><time>2026-04-26T09:00:23.806Z</time></trkpt><trkpt lat="45.7381079" lon="10.8676025"><ele>1513.0</ele><time>2026-04-26T09:00:24.805Z</time></trkpt><trkpt lat="45.738222" lon="10.8675055"><ele>1514.5</ele><time>2026-04-26T09:00:25.806Z</time></trkpt><trkpt lat="45.7383387" lon="10.8674251"><ele>1516.0</ele><time>2026-04-26T09:00:26.806Z</time></trkpt><trkpt lat="45.7384667" lon="10.8673574"><ele>1514.8</ele><time>2026-04-26T09:00:27.805Z</time></trkpt><trkpt lat="45.7385914" lon="10.8673062"><ele>1513.6</ele><time>2026-04-26T09:00:28.806Z</time></trkpt><trkpt lat="45.7386954" lon="10.8672516"><ele>1512.4</ele><time>2026-04-26T09:00:29.804Z</time></trkpt><trkpt lat="45.7387849" lon="10.8671995"><ele>1511.2</ele><time>2026-04-26T09:00:30.805Z</time></trkpt><trkpt lat="45.738867" lon="10.8671586"><ele>1510.0</ele><time>2026-04-26T09:00:31.806Z</time></trkpt><trkpt lat="45.7389474" lon="10.8671486"><ele>1510.0</ele><time>2026-04-26T09:00:32.804Z</time></trkpt><trkpt lat="45.7390224" lon="10.8671796"><ele>1510.0</ele><time>2026-04-26T09:00:33.806Z</time></trkpt><trkpt lat="45.7390905" lon="10.8672561"><ele>1510.0</ele><time>2026-04-26T09:00:34.805Z</time></trkpt><trkpt lat="45.7391439" lon="10.8673698"><ele>1510.0</ele><time>2026-04-26T09:00:35.805Z</time></trkpt><trkpt lat="45.7392044" lon="10.8675042"><ele>1510.0</ele><time>2026-04-26T09:00:36.805Z</time></trkpt><trkpt lat="45.7392788" lon="10.8676334"><ele>1512.4</ele><time>2026-04-26T09:00:37.805Z</time></trkpt><trkpt lat="45.7393516" lon="10.8677412"><ele>1514.8</ele><time>2026-04-26T09:00:38.805Z</time></trkpt><trkpt lat="45.7394333" lon="10.867818"><ele>1517.1999999999998</ele><time>2026-04-26T09:00:39.805Z</time></trkpt><trkpt lat="45.7395246" lon="10.8678668"><ele>1519.6</ele><time>2026-04-26T09:00:40.805Z</time></trkpt><trkpt lat="45.7396066" lon="10.867917"><ele>1522.0</ele><time>2026-04-26T09:00:41.804Z</time></trkpt><trkpt lat="45.7396798" lon="10.8679797"><ele>1522.0</ele><time>2026-04-26T09:00:42.805Z</time></trkpt><trkpt lat="45.7397275" lon="10.8680773"><ele>1522.0</ele><time>2026-04-26T09:00:43.805Z</time></trkpt><trkpt lat="45.7397645" lon="10.8681994"><ele>1522.0</ele><time>2026-04-26T09:00:44.804Z</time></trkpt><trkpt lat="45.739798" lon="10.8683184"><ele>1522.0</ele><time>2026-04-26T09:00:45.806Z</time></trkpt><trkpt lat="45.7398429" lon="10.8684207"><ele>1522.0</ele><time>2026-04-26T09:00:46.804Z</time></trkpt><trkpt lat="45.7399073" lon="10.8684974"><ele>1522.0</ele><time>2026-04-26T09:00:47.806Z</time></trkpt><trkpt lat="45.7399765" lon="10.8685667"><ele>1517.1999999999998</ele><time>2026-04-26T09:00:48.804Z</time></trkpt><trkpt lat="45.7400403" lon="10.8686461"><ele>1512.4</ele><time>2026-04-26T09:00:49.805Z</time></trkpt><trkpt lat="45.7400527" lon="10.8688048"><ele>1507.6</ele><time>2026-04-26T09:00:50.806Z</time></trkpt><trkpt lat="45.7400675" lon="10.8689555"><ele>1502.8000000000002</ele><time>2026-04-26T09:00:51.806Z</time></trkpt><trkpt lat="45.7400858" lon="10.8690964"><ele>1498.0</ele><time>2026-04-26T09:00:52.806Z</time></trkpt><trkpt lat="45.7401218" lon="10.8692179"><ele>1502.25</ele><time>2026-04-26T09:00:53.805Z</time></trkpt><trkpt lat="45.7401661" lon="10.8693521"><ele>1506.5</ele><time>2026-04-26T09:00:54.806Z</time></trkpt><trkpt lat="45.7402347" lon="10.8694803"><ele>1510.75</ele><time>2026-04-26T09:00:55.805Z</time></trkpt><trkpt lat="45.7403197" lon="10.869616"><ele>1515.0</ele><time>2026-04-26T09:00:56.806Z</time></trkpt><trkpt lat="45.7404099" lon="10.8697587"><ele>1515.0</ele><time>2026-04-26T09:00:57.805Z</time></trkpt><trkpt lat="45.7404748" lon="10.8699127"><ele>1515.0</ele><time>2026-04-26T09:00:58.806Z</time></trkpt><trkpt lat="45.7405429" lon="10.8700547"><ele>1515.0</ele><time>2026-04-26T09:00:59.805Z</time></trkpt><trkpt lat="45.7407125" lon="10.870265"><ele>1511.3333333333333</ele><time>2026-04-26T09:01:01.806Z</time></trkpt><trkpt lat="45.740835" lon="10.8703597"><ele>1507.6666666666665</ele><time>2026-04-26T09:01:02.806Z</time></trkpt><trkpt lat="45.7409755" lon="10.8704662"><ele>1504.0</ele><time>2026-04-26T09:01:03.805Z</time></trkpt><trkpt lat="45.7411295" lon="10.8706011"><ele>1504.0</ele><time>2026-04-26T09:01:04.806Z</time></trkpt><trkpt lat="45.7412681" lon="10.8707214"><ele>1504.0</ele><time>2026-04-26T09:01:05.806Z</time></trkpt><trkpt lat="45.7413992" lon="10.8708274"><ele>1504.0</ele><time>2026-04-26T09:01:06.805Z</time></trkpt><trkpt lat="45.7415166" lon="10.8709073"><ele>1504.0</ele><time>2026-04-26T09:01:07.804Z</time></trkpt><trkpt lat="45.7416362" lon="10.8709659"><ele>1496.0</ele><time>2026-04-26T09:01:08.806Z</time></trkpt><trkpt lat="45.7417678" lon="10.8710214"><ele>1488.0</ele><time>2026-04-26T09:01:09.805Z</time></trkpt><trkpt lat="45.7419146" lon="10.8710726"><ele>1480.0</ele><time>2026-04-26T09:01:10.805Z</time></trkpt><trkpt lat="45.7420733" lon="10.871138"><ele>1480.0</ele><time>2026-04-26T09:01:11.806Z</time></trkpt><trkpt lat="45.7422347" lon="10.8712192"><ele>1480.0</ele><time>2026-04-26T09:01:12.806Z</time></trkpt><trkpt lat="45.7423963" lon="10.8712892"><ele>1480.0</ele><time>2026-04-26T09:01:13.805Z</time></trkpt><trkpt lat="45.7425513" lon="10.8713654"><ele>1480.0</ele><time>2026-04-26T09:01:14.804Z</time></trkpt><trkpt lat="45.7427059" lon="10.8714408"><ele>1480.0</ele><time>2026-04-26T09:01:15.806Z</time></trkpt><trkpt lat="45.7428453" lon="10.8714937"><ele>1480.0</ele><time>2026-04-26T09:01:16.806Z</time></trkpt><trkpt lat="45.7429849" lon="10.8715415"><ele>1481.75</ele><time>2026-04-26T09:01:17.805Z</time></trkpt><trkpt lat="45.7431225" lon="10.8715714"><ele>1483.5</ele><time>2026-04-26T09:01:18.805Z</time></trkpt><trkpt lat="45.7432617" lon="10.8715783"><ele>1485.25</ele><time>2026-04-26T09:01:19.804Z</time></trkpt><trkpt lat="45.7433972" lon="10.8715685"><ele>1487.0</ele><time>2026-04-26T09:01:20.805Z</time></trkpt><trkpt lat="45.7435287" lon="10.8715514"><ele>1482.75</ele><time>2026-04-26T09:01:21.805Z</time></trkpt><trkpt lat="45.7436579" lon="10.8714967"><ele>1478.5</ele><time>2026-04-26T09:01:22.804Z</time></trkpt><trkpt lat="45.7437732" lon="10.8714628"><ele>1474.25</ele><time>2026-04-26T09:01:23.805Z</time></trkpt><trkpt lat="45.7438856" lon="10.8714249"><ele>1470.0</ele><time>2026-04-26T09:01:24.806Z</time></trkpt><trkpt lat="45.7439836" lon="10.8713801"><ele>1470.0</ele><time>2026-04-26T09:01:25.805Z</time></trkpt><trkpt lat="45.7440752" lon="10.8713263"><ele>1470.0</ele><time>2026-04-26T09:01:26.806Z</time></trkpt><trkpt lat="45.7441619" lon="10.8712621"><ele>1470.0</ele><time>2026-04-26T09:01:27.805Z</time></trkpt><trkpt lat="45.7442375" lon="10.871196"><ele>1470.0</ele><time>2026-04-26T09:01:28.805Z</time></trkpt><trkpt lat="45.7443019" lon="10.8711068"><ele>1470.0</ele><time>2026-04-26T09:01:29.805Z</time></trkpt><trkpt lat="45.7443625" lon="10.8710192"><ele>1470.8333333333333</ele><time>2026-04-26T09:01:30.806Z</time></trkpt><trkpt lat="45.7444244" lon="10.8709426"><ele>1471.6666666666667</ele><time>2026-04-26T09:01:31.805Z</time></trkpt><trkpt lat="45.7444728" lon="10.8708485"><ele>1472.5</ele><time>2026-04-26T09:01:32.806Z</time></trkpt><trkpt lat="45.7445144" lon="10.870748"><ele>1473.3333333333335</ele><time>2026-04-26T09:01:33.805Z</time></trkpt><trkpt lat="45.7445491" lon="10.8706525"><ele>1474.1666666666667</ele><time>2026-04-26T09:01:34.806Z</time></trkpt><trkpt lat="45.7445918" lon="10.8705768"><ele>1475.0</ele><time>2026-04-26T09:01:35.805Z</time></trkpt><trkpt lat="45.7446424" lon="10.8705151"><ele>1475.0</ele><time>2026-04-26T09:01:36.805Z</time></trkpt><trkpt lat="45.7447081" lon="10.8704942"><ele>1475.0</ele><time>2026-04-26T09:01:37.806Z</time></trkpt><trkpt lat="45.7447867" lon="10.8705142"><ele>1475.0</ele><time>2026-04-26T09:01:38.805Z</time></trkpt><trkpt lat="45.7448808" lon="10.8705594"><ele>1475.0</ele><time>2026-04-26T09:01:39.806Z</time></trkpt><trkpt lat="45.7449883" lon="10.8706137"><ele>1475.0</ele><time>2026-04-26T09:01:40.806Z</time></trkpt><trkpt lat="45.745089" lon="10.8706613"><ele>1475.0</ele><time>2026-04-26T09:01:41.805Z</time></trkpt><trkpt lat="45.7451791" lon="10.8706878"><ele>1475.0</ele><time>2026-04-26T09:01:42.805Z</time></trkpt><trkpt lat="45.7452629" lon="10.8706964"><ele>1475.0</ele><time>2026-04-26T09:01:43.805Z</time></trkpt><trkpt lat="45.7453392" lon="10.8706806"><ele>1475.0</ele><time>2026-04-26T09:01:44.805Z</time></trkpt><trkpt lat="45.7454161" lon="10.8706352"><ele>1475.0</ele><time>2026-04-26T09:01:45.806Z</time></trkpt><trkpt lat="45.7454911" lon="10.8705664"><ele>1475.0</ele><time>2026-04-26T09:01:46.805Z</time></trkpt><trkpt lat="45.7455681" lon="10.870505"><ele>1475.0</ele><time>2026-04-26T09:01:47.804Z</time></trkpt><trkpt lat="45.7456508" lon="10.870473"><ele>1475.0</ele><time>2026-04-26T09:01:48.805Z</time></trkpt><trkpt lat="45.745744" lon="10.8704446"><ele>1475.0</ele><time>2026-04-26T09:01:49.805Z</time></trkpt><trkpt lat="45.7458362" lon="10.8704272"><ele>1475.0</ele><time>2026-04-26T09:01:50.806Z</time></trkpt><trkpt lat="45.7459424" lon="10.8703879"><ele>1475.0</ele><time>2026-04-26T09:01:51.805Z</time></trkpt><trkpt lat="45.7460484" lon="10.8703646"><ele>1477.8</ele><time>2026-04-26T09:01:52.806Z</time></trkpt><trkpt lat="45.7461489" lon="10.8703613"><ele>1480.6</ele><time>2026-04-26T09:01:53.804Z</time></trkpt><trkpt lat="45.7462528" lon="10.8703938"><ele>1483.4</ele><time>2026-04-26T09:01:54.805Z</time></trkpt><trkpt lat="45.7463445" lon="10.8704518"><ele>1486.2</ele><time>2026-04-26T09:01:55.804Z</time></trkpt><trkpt lat="45.7464323" lon="10.8705328"><ele>1489.0</ele><time>2026-04-26T09:01:56.806Z</time></trkpt><trkpt lat="45.7465209" lon="10.8706331"><ele>1489.0</ele><time>2026-04-26T09:01:57.804Z</time></trkpt><trkpt lat="45.7466097" lon="10.8707482"><ele>1489.0</ele><time>2026-04-26T09:01:58.804Z</time></trkpt><trkpt lat="45.7466791" lon="10.8708614"><ele>1489.0</ele><time>2026-04-26T09:01:59.805Z</time></trkpt><trkpt lat="45.746721" lon="10.8709798"><ele>1489.0</ele><time>2026-04-26T09:02:00.806Z</time></trkpt><trkpt lat="45.7467493" lon="10.8711"><ele>1489.0</ele><time>2026-04-26T09:02:01.804Z</time></trkpt><trkpt lat="45.7467678" lon="10.8712052"><ele>1485.0</ele><time>2026-04-26T09:02:02.805Z</time></trkpt><trkpt lat="45.746845" lon="10.8713236"><ele>1481.0</ele><time>2026-04-26T09:02:04.805Z</time></trkpt><trkpt lat="45.7469816" lon="10.871304"><ele>1477.0</ele><time>2026-04-26T09:02:06.805Z</time></trkpt><trkpt lat="45.7470586" lon="10.8712864"><ele>1473.0</ele><time>2026-04-26T09:02:07.806Z</time></trkpt><trkpt lat="45.7471762" lon="10.8712238"><ele>1473.0</ele><time>2026-04-26T09:02:08.805Z</time></trkpt><trkpt lat="45.7472718" lon="10.8711997"><ele>1473.0</ele><time>2026-04-26T09:02:09.805Z</time></trkpt><trkpt lat="45.7473701" lon="10.8711884"><ele>1473.0</ele><time>2026-04-26T09:02:10.806Z</time></trkpt><trkpt lat="45.747477" lon="10.8712065"><ele>1473.0</ele><time>2026-04-26T09:02:11.804Z</time></trkpt><trkpt lat="45.7475859" lon="10.8712352"><ele>1473.0</ele><time>2026-04-26T09:02:12.805Z</time></trkpt><trkpt lat="45.7476934" lon="10.8712856"><ele>1475.6000000000001</ele><time>2026-04-26T09:02:13.805Z</time></trkpt><trkpt lat="45.7478051" lon="10.8713326"><ele>1478.2</ele><time>2026-04-26T09:02:14.805Z</time></trkpt><trkpt lat="45.7478865" lon="10.871384"><ele>1480.8</ele><time>2026-04-26T09:02:15.806Z</time></trkpt><trkpt lat="45.7479728" lon="10.8714222"><ele>1483.4</ele><time>2026-04-26T09:02:16.805Z</time></trkpt><trkpt lat="45.7480604" lon="10.8714503"><ele>1486.0</ele><time>2026-04-26T09:02:17.805Z</time></trkpt><trkpt lat="45.7481491" lon="10.8714809"><ele>1486.0</ele><time>2026-04-26T09:02:18.805Z</time></trkpt><trkpt lat="45.7482314" lon="10.8715219"><ele>1486.0</ele><time>2026-04-26T09:02:19.805Z</time></trkpt><trkpt lat="45.7483092" lon="10.8715807"><ele>1486.0</ele><time>2026-04-26T09:02:20.806Z</time></trkpt><trkpt lat="45.7483782" lon="10.8716655"><ele>1486.0</ele><time>2026-04-26T09:02:21.806Z</time></trkpt><trkpt lat="45.7484347" lon="10.8717621"><ele>1486.0</ele><time>2026-04-26T09:02:22.804Z</time></trkpt><trkpt lat="45.7484638" lon="10.8718734"><ele>1486.0</ele><time>2026-04-26T09:02:23.804Z</time></trkpt><trkpt lat="45.7484797" lon="10.8719727"><ele>1483.5</ele><time>2026-04-26T09:02:24.804Z</time></trkpt><trkpt lat="45.7485519" lon="10.8721011"><ele>1481.0</ele><time>2026-04-26T09:02:26.805Z</time></trkpt><trkpt lat="45.7486931" lon="10.8721433"><ele>1478.5</ele><time>2026-04-26T09:02:28.806Z</time></trkpt><trkpt lat="45.748803" lon="10.8721395"><ele>1476.0</ele><time>2026-04-26T09:02:29.806Z</time></trkpt><trkpt lat="45.7489152" lon="10.8721353"><ele>1476.0</ele><time>2026-04-26T09:02:30.805Z</time></trkpt><trkpt lat="45.7490297" lon="10.8721513"><ele>1476.0</ele><time>2026-04-26T09:02:31.805Z</time></trkpt><trkpt lat="45.7491516" lon="10.8721687"><ele>1476.0</ele><time>2026-04-26T09:02:32.806Z</time></trkpt><trkpt lat="45.7492708" lon="10.8722008"><ele>1476.0</ele><time>2026-04-26T09:02:33.805Z</time></trkpt><trkpt lat="45.7493831" lon="10.8722462"><ele>1478.0</ele><time>2026-04-26T09:02:34.806Z</time></trkpt><trkpt lat="45.7495033" lon="10.8722744"><ele>1480.0</ele><time>2026-04-26T09:02:35.805Z</time></trkpt><trkpt lat="45.7496118" lon="10.8723047"><ele>1482.0</ele><time>2026-04-26T09:02:36.804Z</time></trkpt><trkpt lat="45.7497074" lon="10.8722764"><ele>1484.0</ele><time>2026-04-26T09:02:37.805Z</time></trkpt><trkpt lat="45.7498065" lon="10.872269"><ele>1486.0</ele><time>2026-04-26T09:02:38.805Z</time></trkpt><trkpt lat="45.7499124" lon="10.8722527"><ele>1486.0</ele><time>2026-04-26T09:02:39.805Z</time></trkpt><trkpt lat="45.7500219" lon="10.8722907"><ele>1486.0</ele><time>2026-04-26T09:02:40.804Z</time></trkpt><trkpt lat="45.7501343" lon="10.872349"><ele>1486.0</ele><time>2026-04-26T09:02:41.806Z</time></trkpt><trkpt lat="45.7502439" lon="10.8724366"><ele>1486.0</ele><time>2026-04-26T09:02:42.804Z</time></trkpt><trkpt lat="45.750362" lon="10.8725249"><ele>1482.3333333333333</ele><time>2026-04-26T09:02:43.805Z</time></trkpt><trkpt lat="45.7504909" lon="10.8726353"><ele>1478.6666666666667</ele><time>2026-04-26T09:02:44.806Z</time></trkpt><trkpt lat="45.7506196" lon="10.8727983"><ele>1475.0</ele><time>2026-04-26T09:02:45.805Z</time></trkpt><trkpt lat="45.7507314" lon="10.8729644"><ele>1475.0</ele><time>2026-04-26T09:02:46.805Z</time></trkpt><trkpt lat="45.7508375" lon="10.8730727"><ele>1475.0</ele><time>2026-04-26T09:02:47.806Z</time></trkpt><trkpt lat="45.7509223" lon="10.8731698"><ele>1475.0</ele><time>2026-04-26T09:02:48.805Z</time></trkpt><trkpt lat="45.751006" lon="10.8732447"><ele>1475.0</ele><time>2026-04-26T09:02:49.804Z</time></trkpt><trkpt lat="45.7510655" lon="10.873301"><ele>1475.0</ele><time>2026-04-26T09:02:50.805Z</time></trkpt><trkpt lat="45.7512002" lon="10.873274"><ele>1476.25</ele><time>2026-04-26T09:02:52.806Z</time></trkpt><trkpt lat="45.7512867" lon="10.8732348"><ele>1477.5</ele><time>2026-04-26T09:02:53.805Z</time></trkpt><trkpt lat="45.7513956" lon="10.8731851"><ele>1478.75</ele><time>2026-04-26T09:02:54.805Z</time></trkpt><trkpt lat="45.7515285" lon="10.8731639"><ele>1480.0</ele><time>2026-04-26T09:02:55.805Z</time></trkpt><trkpt lat="45.7516875" lon="10.8731688"><ele>1480.0</ele><time>2026-04-26T09:02:56.806Z</time></trkpt><trkpt lat="45.7518554" lon="10.87319"><ele>1480.0</ele><time>2026-04-26T09:02:57.806Z</time></trkpt><trkpt lat="45.7520181" lon="10.8732246"><ele>1480.0</ele><time>2026-04-26T09:02:58.804Z</time></trkpt><trkpt lat="45.752177" lon="10.8732692"><ele>1477.75</ele><time>2026-04-26T09:02:59.804Z</time></trkpt><trkpt lat="45.7523262" lon="10.873325"><ele>1475.5</ele><time>2026-04-26T09:03:00.805Z</time></trkpt><trkpt lat="45.7524656" lon="10.8733975"><ele>1473.25</ele><time>2026-04-26T09:03:01.804Z</time></trkpt><trkpt lat="45.752597" lon="10.8734626"><ele>1471.0</ele><time>2026-04-26T09:03:02.805Z</time></trkpt><trkpt lat="45.7527179" lon="10.8735235"><ele>1471.0</ele><time>2026-04-26T09:03:03.804Z</time></trkpt><trkpt lat="45.7528366" lon="10.8735741"><ele>1471.0</ele><time>2026-04-26T09:03:04.805Z</time></trkpt><trkpt lat="45.752978" lon="10.8736343"><ele>1471.0</ele><time>2026-04-26T09:03:05.806Z</time></trkpt><trkpt lat="45.753145" lon="10.8736549"><ele>1471.0</ele><time>2026-04-26T09:03:06.806Z</time></trkpt><trkpt lat="45.7532864" lon="10.8737059"><ele>1471.0</ele><time>2026-04-26T09:03:07.804Z</time></trkpt><trkpt lat="45.7534402" lon="10.8737833"><ele>1471.0</ele><time>2026-04-26T09:03:08.806Z</time></trkpt><trkpt lat="45.753595" lon="10.8738566"><ele>1471.0</ele><time>2026-04-26T09:03:09.805Z</time></trkpt><trkpt lat="45.7537419" lon="10.8739472"><ele>1475.0</ele><time>2026-04-26T09:03:10.805Z</time></trkpt><trkpt lat="45.7539015" lon="10.8740439"><ele>1479.0</ele><time>2026-04-26T09:03:11.806Z</time></trkpt><trkpt lat="45.7540436" lon="10.8741532"><ele>1483.0</ele><time>2026-04-26T09:03:12.805Z</time></trkpt><trkpt lat="45.7541679" lon="10.8742325"><ele>1478.75</ele><time>2026-04-26T09:03:13.804Z</time></trkpt><trkpt lat="45.7542728" lon="10.8743012"><ele>1474.5</ele><time>2026-04-26T09:03:14.806Z</time></trkpt><trkpt lat="45.7543747" lon="10.8743465"><ele>1470.25</ele><time>2026-04-26T09:03:15.805Z</time></trkpt><trkpt lat="45.7544841" lon="10.8743612"><ele>1466.0</ele><time>2026-04-26T09:03:16.806Z</time></trkpt><trkpt lat="45.7546084" lon="10.8743709"><ele>1466.0</ele><time>2026-04-26T09:03:17.805Z</time></trkpt><trkpt lat="45.7547362" lon="10.8743748"><ele>1466.0</ele><time>2026-04-26T09:03:18.804Z</time></trkpt><trkpt lat="45.754854" lon="10.8743722"><ele>1466.0</ele><time>2026-04-26T09:03:19.806Z</time></trkpt><trkpt lat="45.7549692" lon="10.8744031"><ele>1466.0</ele><time>2026-04-26T09:03:20.805Z</time></trkpt><trkpt lat="45.7550726" lon="10.8744432"><ele>1466.0</ele><time>2026-04-26T09:03:21.804Z</time></trkpt><trkpt lat="45.7551652" lon="10.8745233"><ele>1466.0</ele><time>2026-04-26T09:03:22.805Z</time></trkpt><trkpt lat="45.7552516" lon="10.8746339"><ele>1466.0</ele><time>2026-04-26T09:03:23.806Z</time></trkpt><trkpt lat="45.755353" lon="10.8747556"><ele>1466.0</ele><time>2026-04-26T09:03:24.806Z</time></trkpt><trkpt lat="45.7554765" lon="10.8748984"><ele>1465.6666666666667</ele><time>2026-04-26T09:03:25.804Z</time></trkpt><trkpt lat="45.755613" lon="10.8750561"><ele>1465.3333333333333</ele><time>2026-04-26T09:03:26.806Z</time></trkpt><trkpt lat="45.7557518" lon="10.8752333"><ele>1465.0</ele><time>2026-04-26T09:03:27.806Z</time></trkpt><trkpt lat="45.755906" lon="10.8754369"><ele>1483.0</ele><time>2026-04-26T09:03:28.806Z</time></trkpt><trkpt lat="45.756064" lon="10.8756578"><ele>1501.0</ele><time>2026-04-26T09:03:29.805Z</time></trkpt><trkpt lat="45.7562301" lon="10.8758882"><ele>1491.6666666666665</ele><time>2026-04-26T09:03:30.804Z</time></trkpt><trkpt lat="45.7563806" lon="10.8761082"><ele>1482.3333333333333</ele><time>2026-04-26T09:03:31.804Z</time></trkpt><trkpt lat="45.7565253" lon="10.8763164"><ele>1473.0</ele><time>2026-04-26T09:03:32.805Z</time></trkpt><trkpt lat="45.7566426" lon="10.8764951"><ele>1473.0</ele><time>2026-04-26T09:03:33.804Z</time></trkpt><trkpt lat="45.7567469" lon="10.8766518"><ele>1473.0</ele><time>2026-04-26T09:03:34.805Z</time></trkpt><trkpt lat="45.7568457" lon="10.8767936"><ele>1473.0</ele><time>2026-04-26T09:03:35.805Z</time></trkpt><trkpt lat="45.7569509" lon="10.8768946"><ele>1473.0</ele><time>2026-04-26T09:03:36.805Z</time></trkpt><trkpt lat="45.7570707" lon="10.8769702"><ele>1472.75</ele><time>2026-04-26T09:03:37.805Z</time></trkpt><trkpt lat="45.7571842" lon="10.8770484"><ele>1472.5</ele><time>2026-04-26T09:03:38.804Z</time></trkpt><trkpt lat="45.7572791" lon="10.8771444"><ele>1472.25</ele><time>2026-04-26T09:03:39.805Z</time></trkpt><trkpt lat="45.7573539" lon="10.8772687"><ele>1472.0</ele><time>2026-04-26T09:03:40.806Z</time></trkpt><trkpt lat="45.7574131" lon="10.8773873"><ele>1472.0</ele><time>2026-04-26T09:03:41.805Z</time></trkpt><trkpt lat="45.7574861" lon="10.877459"><ele>1472.0</ele><time>2026-04-26T09:03:42.805Z</time></trkpt><trkpt lat="45.7575834" lon="10.8775135"><ele>1472.0</ele><time>2026-04-26T09:03:43.805Z</time></trkpt><trkpt lat="45.7577001" lon="10.8775615"><ele>1472.0</ele><time>2026-04-26T09:03:44.805Z</time></trkpt><trkpt lat="45.7578325" lon="10.8775799"><ele>1472.0</ele><time>2026-04-26T09:03:45.805Z</time></trkpt><trkpt lat="45.7579622" lon="10.8775871"><ele>1471.5</ele><time>2026-04-26T09:03:46.805Z</time></trkpt><trkpt lat="45.7581052" lon="10.8775533"><ele>1471.0</ele><time>2026-04-26T09:03:47.805Z</time></trkpt><trkpt lat="45.7582421" lon="10.8775177"><ele>1470.5</ele><time>2026-04-26T09:03:48.806Z</time></trkpt><trkpt lat="45.7583703" lon="10.877456"><ele>1470.0</ele><time>2026-04-26T09:03:49.805Z</time></trkpt><trkpt lat="45.7584962" lon="10.8773846"><ele>1467.25</ele><time>2026-04-26T09:03:50.805Z</time></trkpt><trkpt lat="45.7586195" lon="10.8773112"><ele>1464.5</ele><time>2026-04-26T09:03:51.805Z</time></trkpt><trkpt lat="45.758739" lon="10.8772392"><ele>1461.75</ele><time>2026-04-26T09:03:52.805Z</time></trkpt><trkpt lat="45.7588523" lon="10.8771678"><ele>1459.0</ele><time>2026-04-26T09:03:53.804Z</time></trkpt><trkpt lat="45.7589611" lon="10.8770924"><ele>1459.0</ele><time>2026-04-26T09:03:54.805Z</time></trkpt><trkpt lat="45.7590658" lon="10.8770076"><ele>1459.0</ele><time>2026-04-26T09:03:55.805Z</time></trkpt><trkpt lat="45.7591675" lon="10.8769214"><ele>1459.0</ele><time>2026-04-26T09:03:56.806Z</time></trkpt><trkpt lat="45.7592677" lon="10.8768408"><ele>1459.0</ele><time>2026-04-26T09:03:57.805Z</time></trkpt><trkpt lat="45.7593695" lon="10.8767606"><ele>1460.25</ele><time>2026-04-26T09:03:58.806Z</time></trkpt><trkpt lat="45.7594775" lon="10.8766847"><ele>1461.5</ele><time>2026-04-26T09:03:59.804Z</time></trkpt><trkpt lat="45.7595934" lon="10.8766183"><ele>1462.75</ele><time>2026-04-26T09:04:00.806Z</time></trkpt><trkpt lat="45.7597207" lon="10.8765741"><ele>1464.0</ele><time>2026-04-26T09:04:01.806Z</time></trkpt><trkpt lat="45.7598606" lon="10.8765456"><ele>1464.0</ele><time>2026-04-26T09:04:02.804Z</time></trkpt><trkpt lat="45.7600125" lon="10.8765314"><ele>1464.0</ele><time>2026-04-26T09:04:03.804Z</time></trkpt><trkpt lat="45.7601686" lon="10.8765163"><ele>1464.0</ele><time>2026-04-26T09:04:04.805Z</time></trkpt><trkpt lat="45.7603258" lon="10.8764974"><ele>1464.0</ele><time>2026-04-26T09:04:05.806Z</time></trkpt><trkpt lat="45.7604849" lon="10.8764841"><ele>1464.0</ele><time>2026-04-26T09:04:06.806Z</time></trkpt><trkpt lat="45.7606363" lon="10.8764772"><ele>1464.0</ele><time>2026-04-26T09:04:07.806Z</time></trkpt><trkpt lat="45.760784" lon="10.8764664"><ele>1464.0</ele><time>2026-04-26T09:04:08.805Z</time></trkpt><trkpt lat="45.7609333" lon="10.8764511"><ele>1464.0</ele><time>2026-04-26T09:04:09.806Z</time></trkpt><trkpt lat="45.7610872" lon="10.8764219"><ele>1464.0</ele><time>2026-04-26T09:04:10.804Z</time></trkpt><trkpt lat="45.7612368" lon="10.8763811"><ele>1463.25</ele><time>2026-04-26T09:04:11.806Z</time></trkpt><trkpt lat="45.7613777" lon="10.8763372"><ele>1462.5</ele><time>2026-04-26T09:04:12.806Z</time></trkpt><trkpt lat="45.7615125" lon="10.8762936"><ele>1461.75</ele><time>2026-04-26T09:04:13.805Z</time></trkpt><trkpt lat="45.7616425" lon="10.8762678"><ele>1461.0</ele><time>2026-04-26T09:04:14.806Z</time></trkpt><trkpt lat="45.7617857" lon="10.8762667"><ele>1462.6666666666667</ele><time>2026-04-26T09:04:15.805Z</time></trkpt><trkpt lat="45.7619498" lon="10.8762919"><ele>1464.3333333333335</ele><time>2026-04-26T09:04:16.805Z</time></trkpt><trkpt lat="45.7621244" lon="10.8763378"><ele>1466.0</ele><time>2026-04-26T09:04:17.805Z</time></trkpt><trkpt lat="45.762283" lon="10.8763793"><ele>1466.0</ele><time>2026-04-26T09:04:18.805Z</time></trkpt><trkpt lat="45.7624234" lon="10.8764121"><ele>1466.0</ele><time>2026-04-26T09:04:19.805Z</time></trkpt><trkpt lat="45.7625539" lon="10.8764448"><ele>1466.0</ele><time>2026-04-26T09:04:20.805Z</time></trkpt><trkpt lat="45.7626718" lon="10.8764826"><ele>1466.0</ele><time>2026-04-26T09:04:21.805Z</time></trkpt><trkpt lat="45.7627717" lon="10.8765287"><ele>1465.3333333333335</ele><time>2026-04-26T09:04:22.805Z</time></trkpt><trkpt lat="45.7628618" lon="10.876587"><ele>1464.6666666666667</ele><time>2026-04-26T09:04:23.805Z</time></trkpt><trkpt lat="45.7629364" lon="10.8766494"><ele>1464.0</ele><time>2026-04-26T09:04:24.805Z</time></trkpt><trkpt lat="45.7629981" lon="10.8767181"><ele>1463.3333333333333</ele><time>2026-04-26T09:04:25.805Z</time></trkpt><trkpt lat="45.7630379" lon="10.8767992"><ele>1462.6666666666665</ele><time>2026-04-26T09:04:26.806Z</time></trkpt><trkpt lat="45.7630657" lon="10.8768889"><ele>1462.0</ele><time>2026-04-26T09:04:27.805Z</time></trkpt><trkpt lat="45.7630712" lon="10.8769841"><ele>1462.0</ele><time>2026-04-26T09:04:28.804Z</time></trkpt><trkpt lat="45.7630288" lon="10.8771318"><ele>1462.0</ele><time>2026-04-26T09:04:30.806Z</time></trkpt><trkpt lat="45.7629315" lon="10.8772484"><ele>1462.0</ele><time>2026-04-26T09:04:32.805Z</time></trkpt><trkpt lat="45.762867" lon="10.8772984"><ele>1462.0</ele><time>2026-04-26T09:04:33.804Z</time></trkpt><trkpt lat="45.7627996" lon="10.8773131"><ele>1462.0</ele><time>2026-04-26T09:04:34.806Z</time></trkpt><trkpt lat="45.7627268" lon="10.8773007"><ele>1462.0</ele><time>2026-04-26T09:04:35.805Z</time></trkpt><trkpt lat="45.7626473" lon="10.8772527"><ele>1462.0</ele><time>2026-04-26T09:04:36.806Z</time></trkpt><trkpt lat="45.7625632" lon="10.877188"><ele>1462.0</ele><time>2026-04-26T09:04:37.805Z</time></trkpt><trkpt lat="45.7624771" lon="10.8771328"><ele>1462.0</ele><time>2026-04-26T09:04:38.805Z</time></trkpt><trkpt lat="45.7623861" lon="10.8770969"><ele>1462.0</ele><time>2026-04-26T09:04:39.805Z</time></trkpt><trkpt lat="45.762286" lon="10.8770885"><ele>1462.0</ele><time>2026-04-26T09:04:40.805Z</time></trkpt><trkpt lat="45.7621734" lon="10.8771191"><ele>1462.0</ele><time>2026-04-26T09:04:41.806Z</time></trkpt><trkpt lat="45.7620375" lon="10.8771837"><ele>1462.0</ele><time>2026-04-26T09:04:42.806Z</time></trkpt><trkpt lat="45.7618845" lon="10.8772703"><ele>1462.0</ele><time>2026-04-26T09:04:43.806Z</time></trkpt><trkpt lat="45.7617258" lon="10.8773571"><ele>1460.6666666666665</ele><time>2026-04-26T09:04:44.806Z</time></trkpt><trkpt lat="45.7615501" lon="10.8774526"><ele>1459.3333333333333</ele><time>2026-04-26T09:04:45.806Z</time></trkpt><trkpt lat="45.7613618" lon="10.8775553"><ele>1458.0</ele><time>2026-04-26T09:04:46.805Z</time></trkpt><trkpt lat="45.7611706" lon="10.8776611"><ele>1454.3333333333333</ele><time>2026-04-26T09:04:47.804Z</time></trkpt><trkpt lat="45.760988" lon="10.8777631"><ele>1450.6666666666665</ele><time>2026-04-26T09:04:48.806Z</time></trkpt><trkpt lat="45.760814" lon="10.8778613"><ele>1447.0</ele><time>2026-04-26T09:04:49.805Z</time></trkpt><trkpt lat="45.760655" lon="10.8779533"><ele>1447.0</ele><time>2026-04-26T09:04:50.805Z</time></trkpt><trkpt lat="45.7605146" lon="10.8780459"><ele>1447.0</ele><time>2026-04-26T09:04:51.806Z</time></trkpt><trkpt lat="45.7603974" lon="10.8781435"><ele>1447.0</ele><time>2026-04-26T09:04:52.805Z</time></trkpt><trkpt lat="45.760294" lon="10.8782509"><ele>1447.0</ele><time>2026-04-26T09:04:53.805Z</time></trkpt><trkpt lat="45.7602062" lon="10.8783593"><ele>1446.1666666666665</ele><time>2026-04-26T09:04:54.806Z</time></trkpt><trkpt lat="45.7601369" lon="10.8784574"><ele>1445.3333333333333</ele><time>2026-04-26T09:04:55.805Z</time></trkpt><trkpt lat="45.7600783" lon="10.8785488"><ele>1444.5</ele><time>2026-04-26T09:04:56.806Z</time></trkpt><trkpt lat="45.7600322" lon="10.8786305"><ele>1443.6666666666667</ele><time>2026-04-26T09:04:57.804Z</time></trkpt><trkpt lat="45.7599867" lon="10.878715"><ele>1442.8333333333335</ele><time>2026-04-26T09:04:58.805Z</time></trkpt><trkpt lat="45.7599454" lon="10.8787975"><ele>1442.0</ele><time>2026-04-26T09:04:59.805Z</time></trkpt><trkpt lat="45.759893" lon="10.8788924"><ele>1442.0</ele><time>2026-04-26T09:05:00.806Z</time></trkpt><trkpt lat="45.7598304" lon="10.8790022"><ele>1442.0</ele><time>2026-04-26T09:05:01.804Z</time></trkpt><trkpt lat="45.7597642" lon="10.8791246"><ele>1442.0</ele><time>2026-04-26T09:05:02.806Z</time></trkpt><trkpt lat="45.7596965" lon="10.8792516"><ele>1442.0</ele><time>2026-04-26T09:05:03.805Z</time></trkpt><trkpt lat="45.7596208" lon="10.8793896"><ele>1442.0</ele><time>2026-04-26T09:05:04.806Z</time></trkpt><trkpt lat="45.7595391" lon="10.8795415"><ele>1441.75</ele><time>2026-04-26T09:05:05.805Z</time></trkpt><trkpt lat="45.7594545" lon="10.8797002"><ele>1441.5</ele><time>2026-04-26T09:05:06.805Z</time></trkpt><trkpt lat="45.7593708" lon="10.8798486"><ele>1441.25</ele><time>2026-04-26T09:05:07.805Z</time></trkpt><trkpt lat="45.7592863" lon="10.8799965"><ele>1441.0</ele><time>2026-04-26T09:05:08.805Z</time></trkpt><trkpt lat="45.7592038" lon="10.8801477"><ele>1440.0</ele><time>2026-04-26T09:05:09.806Z</time></trkpt><trkpt lat="45.7591216" lon="10.8802986"><ele>1439.0</ele><time>2026-04-26T09:05:10.805Z</time></trkpt><trkpt lat="45.75904" lon="10.8804475"><ele>1438.0</ele><time>2026-04-26T09:05:11.806Z</time></trkpt><trkpt lat="45.7589598" lon="10.8805914"><ele>1437.0</ele><time>2026-04-26T09:05:12.806Z</time></trkpt><trkpt lat="45.7589006" lon="10.8806993"><ele>1437.0</ele><time>2026-04-26T09:05:13.805Z</time></trkpt><trkpt lat="45.7588548" lon="10.8807826"><ele>1437.0</ele><time>2026-04-26T09:05:14.805Z</time></trkpt><trkpt lat="45.7587997" lon="10.8809064"><ele>1437.0</ele><time>2026-04-26T09:05:16.805Z</time></trkpt><trkpt lat="45.7587997" lon="10.8810296"><ele>1437.0</ele><time>2026-04-26T09:05:19.805Z</time></trkpt><trkpt lat="45.7588395" lon="10.8811166"><ele>1437.0</ele><time>2026-04-26T09:05:22.805Z</time></trkpt><trkpt lat="45.758871" lon="10.8810353"><ele>1437.0</ele><time>2026-04-26T09:11:18.804Z</time></trkpt><trkpt lat="45.7587936" lon="10.881005"><ele>1437.6666666666667</ele><time>2026-04-26T09:11:21.804Z</time></trkpt><trkpt lat="45.7587267" lon="10.8810352"><ele>1438.3333333333333</ele><time>2026-04-26T09:11:23.804Z</time></trkpt><trkpt lat="45.7586426" lon="10.881153"><ele>1439.0</ele><time>2026-04-26T09:11:25.806Z</time></trkpt><trkpt lat="45.7586011" lon="10.8812291"><ele>1439.6666666666665</ele><time>2026-04-26T09:11:26.805Z</time></trkpt><trkpt lat="45.7585561" lon="10.8813229"><ele>1440.3333333333333</ele><time>2026-04-26T09:11:27.805Z</time></trkpt><trkpt lat="45.7585088" lon="10.8814238"><ele>1441.0</ele><time>2026-04-26T09:11:28.804Z</time></trkpt><trkpt lat="45.7584522" lon="10.8815253"><ele>1439.6</ele><time>2026-04-26T09:11:29.806Z</time></trkpt><trkpt lat="45.7583925" lon="10.8816251"><ele>1438.1999999999998</ele><time>2026-04-26T09:11:30.805Z</time></trkpt><trkpt lat="45.7583175" lon="10.8817232"><ele>1436.8000000000002</ele><time>2026-04-26T09:11:31.805Z</time></trkpt><trkpt lat="45.7582292" lon="10.8818191"><ele>1435.4</ele><time>2026-04-26T09:11:32.805Z</time></trkpt><trkpt lat="45.7581261" lon="10.8819169"><ele>1434.0</ele><time>2026-04-26T09:11:33.806Z</time></trkpt><trkpt lat="45.758009" lon="10.8820178"><ele>1434.0</ele><time>2026-04-26T09:11:34.806Z</time></trkpt><trkpt lat="45.7578757" lon="10.8821329"><ele>1434.0</ele><time>2026-04-26T09:11:35.806Z</time></trkpt><trkpt lat="45.7577474" lon="10.8822526"><ele>1434.0</ele><time>2026-04-26T09:11:36.805Z</time></trkpt><trkpt lat="45.7576142" lon="10.8823719"><ele>1432.0</ele><time>2026-04-26T09:11:37.805Z</time></trkpt><trkpt lat="45.7574685" lon="10.8825061"><ele>1430.0</ele><time>2026-04-26T09:11:38.805Z</time></trkpt><trkpt lat="45.7573166" lon="10.8826497"><ele>1428.0</ele><time>2026-04-26T09:11:39.805Z</time></trkpt><trkpt lat="45.7571756" lon="10.8828035"><ele>1428.0</ele><time>2026-04-26T09:11:40.806Z</time></trkpt><trkpt lat="45.7570369" lon="10.8829605"><ele>1428.0</ele><time>2026-04-26T09:11:41.805Z</time></trkpt><trkpt lat="45.7569039" lon="10.8831198"><ele>1428.0</ele><time>2026-04-26T09:11:42.806Z</time></trkpt><trkpt lat="45.7567817" lon="10.8832688"><ele>1426.5</ele><time>2026-04-26T09:11:43.804Z</time></trkpt><trkpt lat="45.7566647" lon="10.8834101"><ele>1425.0</ele><time>2026-04-26T09:11:44.805Z</time></trkpt><trkpt lat="45.7565484" lon="10.883544"><ele>1423.5</ele><time>2026-04-26T09:11:45.805Z</time></trkpt><trkpt lat="45.7564418" lon="10.8836675"><ele>1422.0</ele><time>2026-04-26T09:11:46.804Z</time></trkpt><trkpt lat="45.7563346" lon="10.8837946"><ele>1422.0</ele><time>2026-04-26T09:11:47.805Z</time></trkpt><trkpt lat="45.7562219" lon="10.8839224"><ele>1422.0</ele><time>2026-04-26T09:11:48.805Z</time></trkpt><trkpt lat="45.7561038" lon="10.8840595"><ele>1422.0</ele><time>2026-04-26T09:11:49.804Z</time></trkpt><trkpt lat="45.7559838" lon="10.8842002"><ele>1423.3333333333333</ele><time>2026-04-26T09:11:50.806Z</time></trkpt><trkpt lat="45.7558579" lon="10.8843513"><ele>1424.6666666666665</ele><time>2026-04-26T09:11:51.804Z</time></trkpt><trkpt lat="45.755727" lon="10.8845044"><ele>1426.0</ele><time>2026-04-26T09:11:52.806Z</time></trkpt><trkpt lat="45.7556065" lon="10.8846531"><ele>1426.0</ele><time>2026-04-26T09:11:53.804Z</time></trkpt><trkpt lat="45.7554809" lon="10.8848024"><ele>1426.0</ele><time>2026-04-26T09:11:54.805Z</time></trkpt><trkpt lat="45.7553624" lon="10.8849473"><ele>1426.0</ele><time>2026-04-26T09:11:55.805Z</time></trkpt><trkpt lat="45.7552347" lon="10.8851102"><ele>1426.0</ele><time>2026-04-26T09:11:56.804Z</time></trkpt><trkpt lat="45.7551115" lon="10.8852748"><ele>1426.0</ele><time>2026-04-26T09:11:57.803Z</time></trkpt><trkpt lat="45.7549826" lon="10.8854406"><ele>1426.0</ele><time>2026-04-26T09:11:58.805Z</time></trkpt><trkpt lat="45.7548478" lon="10.8856163"><ele>1426.0</ele><time>2026-04-26T09:11:59.804Z</time></trkpt><trkpt lat="45.7547191" lon="10.885784"><ele>1426.0</ele><time>2026-04-26T09:12:00.805Z</time></trkpt><trkpt lat="45.7545944" lon="10.8859435"><ele>1426.0</ele><time>2026-04-26T09:12:01.806Z</time></trkpt><trkpt lat="45.7544708" lon="10.8860938"><ele>1422.25</ele><time>2026-04-26T09:12:02.805Z</time></trkpt><trkpt lat="45.7543521" lon="10.8862276"><ele>1418.5</ele><time>2026-04-26T09:12:03.806Z</time></trkpt><trkpt lat="45.7542527" lon="10.8863536"><ele>1414.75</ele><time>2026-04-26T09:12:04.804Z</time></trkpt><trkpt lat="45.7541645" lon="10.8864785"><ele>1411.0</ele><time>2026-04-26T09:12:05.805Z</time></trkpt><trkpt lat="45.7540872" lon="10.8866036"><ele>1411.0</ele><time>2026-04-26T09:12:06.806Z</time></trkpt><trkpt lat="45.7540261" lon="10.8867479"><ele>1411.0</ele><time>2026-04-26T09:12:07.805Z</time></trkpt><trkpt lat="45.7539752" lon="10.8869031"><ele>1411.0</ele><time>2026-04-26T09:12:08.804Z</time></trkpt><trkpt lat="45.753934" lon="10.8870681"><ele>1411.0</ele><time>2026-04-26T09:12:09.804Z</time></trkpt><trkpt lat="45.7538902" lon="10.8872186"><ele>1414.5</ele><time>2026-04-26T09:12:10.805Z</time></trkpt><trkpt lat="45.7538455" lon="10.8873546"><ele>1418.0</ele><time>2026-04-26T09:12:11.806Z</time></trkpt><trkpt lat="45.7537729" lon="10.8874774"><ele>1421.5</ele><time>2026-04-26T09:12:12.806Z</time></trkpt><trkpt lat="45.7536667" lon="10.8875852"><ele>1425.0</ele><time>2026-04-26T09:12:13.804Z</time></trkpt><trkpt lat="45.753556" lon="10.8876941"><ele>1416.8</ele><time>2026-04-26T09:12:14.805Z</time></trkpt><trkpt lat="45.7534644" lon="10.8878023"><ele>1408.6</ele><time>2026-04-26T09:12:15.804Z</time></trkpt><trkpt lat="45.7534051" lon="10.8879035"><ele>1400.4</ele><time>2026-04-26T09:12:16.805Z</time></trkpt><trkpt lat="45.7533617" lon="10.8880068"><ele>1392.2</ele><time>2026-04-26T09:12:17.806Z</time></trkpt><trkpt lat="45.7533407" lon="10.8880952"><ele>1384.0</ele><time>2026-04-26T09:12:18.805Z</time></trkpt><trkpt lat="45.7533832" lon="10.888265"><ele>1384.0</ele><time>2026-04-26T09:12:20.805Z</time></trkpt><trkpt lat="45.7534411" lon="10.8883617"><ele>1384.0</ele><time>2026-04-26T09:12:21.805Z</time></trkpt><trkpt lat="45.7535512" lon="10.8884803"><ele>1384.0</ele><time>2026-04-26T09:12:22.803Z</time></trkpt><trkpt lat="45.7536643" lon="10.8886094"><ele>1384.0</ele><time>2026-04-26T09:12:23.805Z</time></trkpt><trkpt lat="45.7537621" lon="10.8887204"><ele>1386.6</ele><time>2026-04-26T09:12:24.805Z</time></trkpt><trkpt lat="45.7538424" lon="10.888819"><ele>1389.2</ele><time>2026-04-26T09:12:25.806Z</time></trkpt><trkpt lat="45.7538988" lon="10.8889257"><ele>1391.8</ele><time>2026-04-26T09:12:26.804Z</time></trkpt><trkpt lat="45.7539385" lon="10.889068"><ele>1394.3999999999999</ele><time>2026-04-26T09:12:27.805Z</time></trkpt><trkpt lat="45.7539493" lon="10.8892359"><ele>1397.0</ele><time>2026-04-26T09:12:28.805Z</time></trkpt><trkpt lat="45.7539199" lon="10.8894438"><ele>1397.0</ele><time>2026-04-26T09:12:29.804Z</time></trkpt><trkpt lat="45.7538782" lon="10.8896721"><ele>1397.0</ele><time>2026-04-26T09:12:30.806Z</time></trkpt><trkpt lat="45.7538455" lon="10.8898844"><ele>1397.0</ele><time>2026-04-26T09:12:31.806Z</time></trkpt><trkpt lat="45.7538548" lon="10.8901011"><ele>1391.6666666666667</ele><time>2026-04-26T09:12:32.805Z</time></trkpt><trkpt lat="45.7538776" lon="10.8903028"><ele>1386.3333333333333</ele><time>2026-04-26T09:12:33.806Z</time></trkpt><trkpt lat="45.7539127" lon="10.8905331"><ele>1381.0</ele><time>2026-04-26T09:12:34.805Z</time></trkpt><trkpt lat="45.7539544" lon="10.890735"><ele>1381.0</ele><time>2026-04-26T09:12:35.806Z</time></trkpt><trkpt lat="45.754008" lon="10.890881"><ele>1381.0</ele><time>2026-04-26T09:12:36.806Z</time></trkpt><trkpt lat="45.7540605" lon="10.8910325"><ele>1381.0</ele><time>2026-04-26T09:12:37.803Z</time></trkpt><trkpt lat="45.7541183" lon="10.8911311"><ele>1381.0</ele><time>2026-04-26T09:12:38.806Z</time></trkpt><trkpt lat="45.7541922" lon="10.8912162"><ele>1381.0</ele><time>2026-04-26T09:12:39.805Z</time></trkpt><trkpt lat="45.7543226" lon="10.8912386"><ele>1372.0</ele><time>2026-04-26T09:12:40.806Z</time></trkpt><trkpt lat="45.7544517" lon="10.8912476"><ele>1363.0</ele><time>2026-04-26T09:12:41.805Z</time></trkpt><trkpt lat="45.7545813" lon="10.8912331"><ele>1354.0</ele><time>2026-04-26T09:12:42.805Z</time></trkpt><trkpt lat="45.7547089" lon="10.8911891"><ele>1345.0</ele><time>2026-04-26T09:12:43.805Z</time></trkpt><trkpt lat="45.754815" lon="10.8911472"><ele>1345.0</ele><time>2026-04-26T09:12:44.805Z</time></trkpt><trkpt lat="45.754903" lon="10.8910912"><ele>1345.0</ele><time>2026-04-26T09:12:45.806Z</time></trkpt><trkpt lat="45.7550162" lon="10.8909942"><ele>1345.0</ele><time>2026-04-26T09:12:47.805Z</time></trkpt><trkpt lat="45.7550926" lon="10.8910344"><ele>1345.0</ele><time>2026-04-26T09:12:49.805Z</time></trkpt><trkpt lat="45.7551098" lon="10.8911374"><ele>1345.0</ele><time>2026-04-26T09:12:51.804Z</time></trkpt><trkpt lat="45.7550089" lon="10.8912272"><ele>1345.0</ele><time>2026-04-26T09:12:53.805Z</time></trkpt><trkpt lat="45.7548991" lon="10.8912778"><ele>1345.0</ele><time>2026-04-26T09:12:54.804Z</time></trkpt><trkpt lat="45.7547876" lon="10.8913279"><ele>1345.0</ele><time>2026-04-26T09:12:55.804Z</time></trkpt><trkpt lat="45.754635" lon="10.8914258"><ele>1345.0</ele><time>2026-04-26T09:12:56.806Z</time></trkpt><trkpt lat="45.7545027" lon="10.8915311"><ele>1345.0</ele><time>2026-04-26T09:12:57.806Z</time></trkpt><trkpt lat="45.7543867" lon="10.8916557"><ele>1345.0</ele><time>2026-04-26T09:12:58.805Z</time></trkpt><trkpt lat="45.7542742" lon="10.8917756"><ele>1345.0</ele><time>2026-04-26T09:12:59.805Z</time></trkpt><trkpt lat="45.7541737" lon="10.8918757"><ele>1345.0</ele><time>2026-04-26T09:13:00.805Z</time></trkpt><trkpt lat="45.7540869" lon="10.8919659"><ele>1346.4</ele><time>2026-04-26T09:13:01.806Z</time></trkpt><trkpt lat="45.7540168" lon="10.8919763"><ele>1347.8</ele><time>2026-04-26T09:13:02.804Z</time></trkpt><trkpt lat="45.7539399" lon="10.8919617"><ele>1349.1999999999998</ele><time>2026-04-26T09:13:03.804Z</time></trkpt><trkpt lat="45.7538485" lon="10.8918853"><ele>1350.6</ele><time>2026-04-26T09:13:04.806Z</time></trkpt><trkpt lat="45.7537437" lon="10.8917605"><ele>1352.0</ele><time>2026-04-26T09:13:05.804Z</time></trkpt><trkpt lat="45.753651" lon="10.8916522"><ele>1352.0</ele><time>2026-04-26T09:13:06.804Z</time></trkpt><trkpt lat="45.7535803" lon="10.8915627"><ele>1352.0</ele><time>2026-04-26T09:13:07.804Z</time></trkpt><trkpt lat="45.7535119" lon="10.891498"><ele>1352.0</ele><time>2026-04-26T09:13:08.806Z</time></trkpt><trkpt lat="45.7534058" lon="10.8914802"><ele>1352.0</ele><time>2026-04-26T09:13:10.804Z</time></trkpt><trkpt lat="45.7533561" lon="10.8916028"><ele>1352.0</ele><time>2026-04-26T09:13:12.805Z</time></trkpt><trkpt lat="45.7533841" lon="10.8917315"><ele>1346.8</ele><time>2026-04-26T09:13:14.804Z</time></trkpt><trkpt lat="45.7534806" lon="10.8918236"><ele>1341.6</ele><time>2026-04-26T09:13:16.804Z</time></trkpt><trkpt lat="45.7535383" lon="10.8918831"><ele>1336.3999999999999</ele><time>2026-04-26T09:13:17.806Z</time></trkpt><trkpt lat="45.7536053" lon="10.8919669"><ele>1331.1999999999998</ele><time>2026-04-26T09:13:18.803Z</time></trkpt><trkpt lat="45.7536741" lon="10.8920866"><ele>1326.0</ele><time>2026-04-26T09:13:19.805Z</time></trkpt><trkpt lat="45.7537397" lon="10.8922381"><ele>1326.0</ele><time>2026-04-26T09:13:20.806Z</time></trkpt><trkpt lat="45.7537975" lon="10.8923997"><ele>1326.0</ele><time>2026-04-26T09:13:21.804Z</time></trkpt><trkpt lat="45.7538508" lon="10.8925484"><ele>1326.0</ele><time>2026-04-26T09:13:22.805Z</time></trkpt><trkpt lat="45.7538986" lon="10.8926641"><ele>1326.0</ele><time>2026-04-26T09:13:23.805Z</time></trkpt><trkpt lat="45.7539543" lon="10.892752"><ele>1326.0</ele><time>2026-04-26T09:13:24.804Z</time></trkpt><trkpt lat="45.7540153" lon="10.8927992"><ele>1326.0</ele><time>2026-04-26T09:13:25.805Z</time></trkpt><trkpt lat="45.7540849" lon="10.892807"><ele>1326.0</ele><time>2026-04-26T09:13:26.805Z</time></trkpt><trkpt lat="45.7541692" lon="10.8927673"><ele>1326.0</ele><time>2026-04-26T09:13:27.805Z</time></trkpt><trkpt lat="45.7542525" lon="10.8926911"><ele>1326.0</ele><time>2026-04-26T09:13:28.805Z</time></trkpt><trkpt lat="45.7543514" lon="10.8925674"><ele>1326.0</ele><time>2026-04-26T09:13:29.805Z</time></trkpt><trkpt lat="45.7544571" lon="10.8924485"><ele>1323.0</ele><time>2026-04-26T09:13:30.805Z</time></trkpt><trkpt lat="45.7545774" lon="10.8923491"><ele>1320.0</ele><time>2026-04-26T09:13:31.805Z</time></trkpt><trkpt lat="45.7547276" lon="10.8922259"><ele>1317.0</ele><time>2026-04-26T09:13:32.806Z</time></trkpt><trkpt lat="45.7548647" lon="10.8921229"><ele>1317.0</ele><time>2026-04-26T09:13:33.804Z</time></trkpt><trkpt lat="45.754969" lon="10.8920493"><ele>1317.0</ele><time>2026-04-26T09:13:34.806Z</time></trkpt><trkpt lat="45.7550573" lon="10.8920003"><ele>1317.0</ele><time>2026-04-26T09:13:35.804Z</time></trkpt><trkpt lat="45.7551346" lon="10.8919705"><ele>1317.0</ele><time>2026-04-26T09:13:36.806Z</time></trkpt><trkpt lat="45.7552105" lon="10.8919392"><ele>1317.0</ele><time>2026-04-26T09:13:37.805Z</time></trkpt><trkpt lat="45.755271" lon="10.8919649"><ele>1317.0</ele><time>2026-04-26T09:13:38.805Z</time></trkpt><trkpt lat="45.7553435" lon="10.891991"><ele>1318.8333333333333</ele><time>2026-04-26T09:13:39.805Z</time></trkpt><trkpt lat="45.7553429" lon="10.8921389"><ele>1320.6666666666667</ele><time>2026-04-26T09:13:40.806Z</time></trkpt><trkpt lat="45.7553583" lon="10.8922781"><ele>1322.5</ele><time>2026-04-26T09:13:41.805Z</time></trkpt><trkpt lat="45.7553899" lon="10.8923906"><ele>1324.3333333333335</ele><time>2026-04-26T09:13:42.806Z</time></trkpt><trkpt lat="45.7554302" lon="10.8924893"><ele>1326.1666666666667</ele><time>2026-04-26T09:13:43.805Z</time></trkpt><trkpt lat="45.7555004" lon="10.8925166"><ele>1328.0</ele><time>2026-04-26T09:13:44.805Z</time></trkpt><trkpt lat="45.7555693" lon="10.8925286"><ele>1328.0</ele><time>2026-04-26T09:13:45.805Z</time></trkpt><trkpt lat="45.7556539" lon="10.8925396"><ele>1328.0</ele><time>2026-04-26T09:13:46.805Z</time></trkpt><trkpt lat="45.7557309" lon="10.8925706"><ele>1328.0</ele><time>2026-04-26T09:13:47.806Z</time></trkpt><trkpt lat="45.7558466" lon="10.8925979"><ele>1328.0</ele><time>2026-04-26T09:13:48.805Z</time></trkpt><trkpt lat="45.7559701" lon="10.8926396"><ele>1328.0</ele><time>2026-04-26T09:13:49.805Z</time></trkpt><trkpt lat="45.7560656" lon="10.8926974"><ele>1327.75</ele><time>2026-04-26T09:13:50.804Z</time></trkpt><trkpt lat="45.7561657" lon="10.8927913"><ele>1327.5</ele><time>2026-04-26T09:13:51.804Z</time></trkpt><trkpt lat="45.7562688" lon="10.8929011"><ele>1327.25</ele><time>2026-04-26T09:13:52.805Z</time></trkpt><trkpt lat="45.7563711" lon="10.8930403"><ele>1327.0</ele><time>2026-04-26T09:13:53.805Z</time></trkpt><trkpt lat="45.7564703" lon="10.893197"><ele>1327.0</ele><time>2026-04-26T09:13:54.805Z</time></trkpt><trkpt lat="45.7565562" lon="10.8933698"><ele>1327.0</ele><time>2026-04-26T09:13:55.805Z</time></trkpt><trkpt lat="45.756629" lon="10.8935329"><ele>1327.0</ele><time>2026-04-26T09:13:56.806Z</time></trkpt><trkpt lat="45.756694" lon="10.8936907"><ele>1327.0</ele><time>2026-04-26T09:13:57.804Z</time></trkpt><trkpt lat="45.7567603" lon="10.8938275"><ele>1323.5</ele><time>2026-04-26T09:13:58.806Z</time></trkpt><trkpt lat="45.7568297" lon="10.8939361"><ele>1320.0</ele><time>2026-04-26T09:13:59.806Z</time></trkpt><trkpt lat="45.7569138" lon="10.894054"><ele>1316.5</ele><time>2026-04-26T09:14:00.804Z</time></trkpt><trkpt lat="45.7570086" lon="10.8941771"><ele>1313.0</ele><time>2026-04-26T09:14:01.804Z</time></trkpt><trkpt lat="45.7571039" lon="10.8942982"><ele>1307.0</ele><time>2026-04-26T09:14:02.804Z</time></trkpt><trkpt lat="45.7572065" lon="10.8944167"><ele>1301.0</ele><time>2026-04-26T09:14:03.806Z</time></trkpt><trkpt lat="45.7573086" lon="10.894537"><ele>1295.0</ele><time>2026-04-26T09:14:04.806Z</time></trkpt><trkpt lat="45.7574163" lon="10.8946394"><ele>1289.0</ele><time>2026-04-26T09:14:05.804Z</time></trkpt><trkpt lat="45.7575258" lon="10.8947361"><ele>1289.0</ele><time>2026-04-26T09:14:06.805Z</time></trkpt><trkpt lat="45.7576317" lon="10.8948346"><ele>1289.0</ele><time>2026-04-26T09:14:07.805Z</time></trkpt><trkpt lat="45.7577305" lon="10.8949301"><ele>1289.0</ele><time>2026-04-26T09:14:08.804Z</time></trkpt><trkpt lat="45.7578254" lon="10.8950197"><ele>1289.0</ele><time>2026-04-26T09:14:09.805Z</time></trkpt><trkpt lat="45.7579161" lon="10.895101"><ele>1288.4</ele><time>2026-04-26T09:14:10.805Z</time></trkpt><trkpt lat="45.7580083" lon="10.8951804"><ele>1287.8000000000002</ele><time>2026-04-26T09:14:11.806Z</time></trkpt><trkpt lat="45.7580945" lon="10.8952502"><ele>1287.1999999999998</ele><time>2026-04-26T09:14:12.806Z</time></trkpt><trkpt lat="45.7581711" lon="10.8953335"><ele>1286.6</ele><time>2026-04-26T09:14:13.805Z</time></trkpt><trkpt lat="45.7582425" lon="10.8954202"><ele>1286.0</ele><time>2026-04-26T09:14:14.806Z</time></trkpt><trkpt lat="45.7583171" lon="10.8955108"><ele>1286.0</ele><time>2026-04-26T09:14:15.805Z</time></trkpt><trkpt lat="45.7583843" lon="10.8956066"><ele>1286.0</ele><time>2026-04-26T09:14:16.804Z</time></trkpt><trkpt lat="45.7584533" lon="10.8957039"><ele>1286.0</ele><time>2026-04-26T09:14:17.806Z</time></trkpt><trkpt lat="45.7584965" lon="10.8958179"><ele>1286.0</ele><time>2026-04-26T09:14:18.806Z</time></trkpt><trkpt lat="45.7585091" lon="10.8959282"><ele>1286.0</ele><time>2026-04-26T09:14:19.806Z</time></trkpt><trkpt lat="45.7584949" lon="10.8960352"><ele>1286.0</ele><time>2026-04-26T09:14:20.806Z</time></trkpt><trkpt lat="45.7584616" lon="10.8961434"><ele>1285.4</ele><time>2026-04-26T09:14:21.806Z</time></trkpt><trkpt lat="45.7584168" lon="10.8962626"><ele>1284.8</ele><time>2026-04-26T09:14:22.804Z</time></trkpt><trkpt lat="45.7583674" lon="10.8963981"><ele>1284.2</ele><time>2026-04-26T09:14:23.806Z</time></trkpt><trkpt lat="45.7583252" lon="10.8965181"><ele>1283.6000000000001</ele><time>2026-04-26T09:14:24.805Z</time></trkpt><trkpt lat="45.7582926" lon="10.8966301"><ele>1283.0</ele><time>2026-04-26T09:14:25.805Z</time></trkpt><trkpt lat="45.7582793" lon="10.8967402"><ele>1283.8000000000002</ele><time>2026-04-26T09:14:26.805Z</time></trkpt><trkpt lat="45.7582868" lon="10.8968558"><ele>1284.6</ele><time>2026-04-26T09:14:27.804Z</time></trkpt><trkpt lat="45.7583119" lon="10.8969723"><ele>1285.4</ele><time>2026-04-26T09:14:28.806Z</time></trkpt><trkpt lat="45.7583457" lon="10.8971052"><ele>1286.1999999999998</ele><time>2026-04-26T09:14:29.804Z</time></trkpt><trkpt lat="45.7583775" lon="10.8972431"><ele>1287.0</ele><time>2026-04-26T09:14:30.805Z</time></trkpt><trkpt lat="45.7584146" lon="10.8973885"><ele>1287.0</ele><time>2026-04-26T09:14:31.805Z</time></trkpt><trkpt lat="45.758455" lon="10.8975411"><ele>1287.0</ele><time>2026-04-26T09:14:32.804Z</time></trkpt><trkpt lat="45.7585087" lon="10.8976909"><ele>1287.0</ele><time>2026-04-26T09:14:33.805Z</time></trkpt><trkpt lat="45.7585891" lon="10.8978411"><ele>1287.0</ele><time>2026-04-26T09:14:34.805Z</time></trkpt><trkpt lat="45.7586842" lon="10.8979781"><ele>1287.3333333333333</ele><time>2026-04-26T09:14:35.805Z</time></trkpt><trkpt lat="45.7587974" lon="10.8981154"><ele>1287.6666666666665</ele><time>2026-04-26T09:14:36.805Z</time></trkpt><trkpt lat="45.7589365" lon="10.8982712"><ele>1288.0</ele><time>2026-04-26T09:14:37.805Z</time></trkpt><trkpt lat="45.7590729" lon="10.8984331"><ele>1287.5</ele><time>2026-04-26T09:14:38.804Z</time></trkpt><trkpt lat="45.7591998" lon="10.8985812"><ele>1287.0</ele><time>2026-04-26T09:14:39.805Z</time></trkpt><trkpt lat="45.7593159" lon="10.8987142"><ele>1286.5</ele><time>2026-04-26T09:14:40.805Z</time></trkpt><trkpt lat="45.7594135" lon="10.8988334"><ele>1286.0</ele><time>2026-04-26T09:14:41.805Z</time></trkpt><trkpt lat="45.7594872" lon="10.8989397"><ele>1286.0</ele><time>2026-04-26T09:14:42.805Z</time></trkpt><trkpt lat="45.7595352" lon="10.8990483"><ele>1286.0</ele><time>2026-04-26T09:14:43.805Z</time></trkpt><trkpt lat="45.7595678" lon="10.8991668"><ele>1286.0</ele><time>2026-04-26T09:14:44.803Z</time></trkpt><trkpt lat="45.7595658" lon="10.8993176"><ele>1286.0</ele><time>2026-04-26T09:14:45.806Z</time></trkpt><trkpt lat="45.7595579" lon="10.8994915"><ele>1286.0</ele><time>2026-04-26T09:14:46.806Z</time></trkpt><trkpt lat="45.7595619" lon="10.8996569"><ele>1287.25</ele><time>2026-04-26T09:14:47.804Z</time></trkpt><trkpt lat="45.7596158" lon="10.8998172"><ele>1288.5</ele><time>2026-04-26T09:14:48.805Z</time></trkpt><trkpt lat="45.7596916" lon="10.8999742"><ele>1289.75</ele><time>2026-04-26T09:14:49.806Z</time></trkpt><trkpt lat="45.75979" lon="10.9001057"><ele>1291.0</ele><time>2026-04-26T09:14:50.806Z</time></trkpt><trkpt lat="45.7599122" lon="10.9002084"><ele>1294.0</ele><time>2026-04-26T09:14:51.804Z</time></trkpt><trkpt lat="45.7600681" lon="10.9002817"><ele>1297.0</ele><time>2026-04-26T09:14:52.806Z</time></trkpt><trkpt lat="45.7602338" lon="10.9003401"><ele>1300.0</ele><time>2026-04-26T09:14:53.805Z</time></trkpt><trkpt lat="45.7603949" lon="10.9003658"><ele>1300.0</ele><time>2026-04-26T09:14:54.804Z</time></trkpt><trkpt lat="45.7605402" lon="10.9004131"><ele>1300.0</ele><time>2026-04-26T09:14:55.805Z</time></trkpt><trkpt lat="45.7606777" lon="10.9004756"><ele>1300.0</ele><time>2026-04-26T09:14:56.805Z</time></trkpt><trkpt lat="45.7608215" lon="10.9005674"><ele>1300.0</ele><time>2026-04-26T09:14:57.806Z</time></trkpt><trkpt lat="45.7609715" lon="10.9006719"><ele>1300.0</ele><time>2026-04-26T09:14:58.805Z</time></trkpt><trkpt lat="45.7611226" lon="10.9007748"><ele>1300.0</ele><time>2026-04-26T09:14:59.806Z</time></trkpt><trkpt lat="45.7612664" lon="10.9008568"><ele>1300.25</ele><time>2026-04-26T09:15:00.806Z</time></trkpt><trkpt lat="45.7613983" lon="10.9009096"><ele>1300.5</ele><time>2026-04-26T09:15:01.806Z</time></trkpt><trkpt lat="45.7615213" lon="10.9009313"><ele>1300.75</ele><time>2026-04-26T09:15:02.805Z</time></trkpt><trkpt lat="45.7616208" lon="10.9009386"><ele>1301.0</ele><time>2026-04-26T09:15:03.805Z</time></trkpt><trkpt lat="45.7617166" lon="10.9009467"><ele>1301.0</ele><time>2026-04-26T09:15:04.805Z</time></trkpt><trkpt lat="45.7617966" lon="10.9009929"><ele>1301.0</ele><time>2026-04-26T09:15:05.805Z</time></trkpt><trkpt lat="45.7618776" lon="10.9010786"><ele>1301.0</ele><time>2026-04-26T09:15:06.804Z</time></trkpt><trkpt lat="45.7619759" lon="10.9011731"><ele>1301.0</ele><time>2026-04-26T09:15:07.805Z</time></trkpt><trkpt lat="45.7620849" lon="10.9012558"><ele>1301.0</ele><time>2026-04-26T09:15:08.805Z</time></trkpt><trkpt lat="45.7621946" lon="10.901327"><ele>1297.1666666666667</ele><time>2026-04-26T09:15:09.804Z</time></trkpt><trkpt lat="45.7622838" lon="10.9013973"><ele>1293.3333333333335</ele><time>2026-04-26T09:15:10.805Z</time></trkpt><trkpt lat="45.7623565" lon="10.9014532"><ele>1289.5</ele><time>2026-04-26T09:15:11.806Z</time></trkpt><trkpt lat="45.7624172" lon="10.9015285"><ele>1285.6666666666667</ele><time>2026-04-26T09:15:12.805Z</time></trkpt><trkpt lat="45.7624625" lon="10.9016346"><ele>1281.8333333333333</ele><time>2026-04-26T09:15:13.805Z</time></trkpt><trkpt lat="45.7624878" lon="10.9017537"><ele>1278.0</ele><time>2026-04-26T09:15:14.805Z</time></trkpt><trkpt lat="45.7625063" lon="10.9018623"><ele>1277.4</ele><time>2026-04-26T09:15:15.805Z</time></trkpt><trkpt lat="45.7624974" lon="10.9019753"><ele>1276.8</ele><time>2026-04-26T09:15:16.806Z</time></trkpt><trkpt lat="45.7624774" lon="10.9020974"><ele>1276.2</ele><time>2026-04-26T09:15:17.805Z</time></trkpt><trkpt lat="45.7624326" lon="10.90224"><ele>1275.6</ele><time>2026-04-26T09:15:18.805Z</time></trkpt><trkpt lat="45.7623912" lon="10.9023757"><ele>1275.0</ele><time>2026-04-26T09:15:19.804Z</time></trkpt><trkpt lat="45.7623671" lon="10.9025197"><ele>1277.6</ele><time>2026-04-26T09:15:20.805Z</time></trkpt><trkpt lat="45.7623836" lon="10.9026562"><ele>1280.2</ele><time>2026-04-26T09:15:21.804Z</time></trkpt><trkpt lat="45.7624176" lon="10.9027886"><ele>1282.8000000000002</ele><time>2026-04-26T09:15:22.805Z</time></trkpt><trkpt lat="45.762479" lon="10.9029065"><ele>1285.4</ele><time>2026-04-26T09:15:23.804Z</time></trkpt><trkpt lat="45.7625695" lon="10.9029943"><ele>1288.0</ele><time>2026-04-26T09:15:24.805Z</time></trkpt><trkpt lat="45.7626843" lon="10.9030451"><ele>1284.75</ele><time>2026-04-26T09:15:25.804Z</time></trkpt><trkpt lat="45.7628085" lon="10.90305"><ele>1281.5</ele><time>2026-04-26T09:15:26.805Z</time></trkpt><trkpt lat="45.7629412" lon="10.9030167"><ele>1278.25</ele><time>2026-04-26T09:15:27.805Z</time></trkpt><trkpt lat="45.7630801" lon="10.9029522"><ele>1275.0</ele><time>2026-04-26T09:15:28.804Z</time></trkpt><trkpt lat="45.763209" lon="10.9028608"><ele>1275.0</ele><time>2026-04-26T09:15:29.806Z</time></trkpt><trkpt lat="45.7633319" lon="10.9027507"><ele>1275.0</ele><time>2026-04-26T09:15:30.805Z</time></trkpt><trkpt lat="45.7634318" lon="10.9026541"><ele>1275.0</ele><time>2026-04-26T09:15:31.804Z</time></trkpt><trkpt lat="45.7635262" lon="10.9025789"><ele>1275.0</ele><time>2026-04-26T09:15:32.806Z</time></trkpt><trkpt lat="45.7636164" lon="10.902527"><ele>1272.75</ele><time>2026-04-26T09:15:33.804Z</time></trkpt><trkpt lat="45.7637104" lon="10.9025175"><ele>1270.5</ele><time>2026-04-26T09:15:34.805Z</time></trkpt><trkpt lat="45.7638154" lon="10.9025462"><ele>1268.25</ele><time>2026-04-26T09:15:35.806Z</time></trkpt><trkpt lat="45.7639327" lon="10.9026188"><ele>1266.0</ele><time>2026-04-26T09:15:36.806Z</time></trkpt><trkpt lat="45.7640587" lon="10.9027248"><ele>1266.0</ele><time>2026-04-26T09:15:37.806Z</time></trkpt><trkpt lat="45.7641824" lon="10.9028383"><ele>1266.0</ele><time>2026-04-26T09:15:38.805Z</time></trkpt><trkpt lat="45.7642772" lon="10.902958"><ele>1266.0</ele><time>2026-04-26T09:15:39.804Z</time></trkpt><trkpt lat="45.7643586" lon="10.903071"><ele>1266.0</ele><time>2026-04-26T09:15:40.806Z</time></trkpt><trkpt lat="45.7644222" lon="10.9031865"><ele>1263.2</ele><time>2026-04-26T09:15:41.805Z</time></trkpt><trkpt lat="45.7644746" lon="10.9032837"><ele>1260.3999999999999</ele><time>2026-04-26T09:15:42.806Z</time></trkpt><trkpt lat="45.7645224" lon="10.9033763"><ele>1257.6</ele><time>2026-04-26T09:15:43.804Z</time></trkpt><trkpt lat="45.7646041" lon="10.9034227"><ele>1254.8</ele><time>2026-04-26T09:15:45.805Z</time></trkpt><trkpt lat="45.7646557" lon="10.9033356"><ele>1252.0</ele><time>2026-04-26T09:15:47.806Z</time></trkpt><trkpt lat="45.7646108" lon="10.9031178"><ele>1251.25</ele><time>2026-04-26T09:15:49.805Z</time></trkpt><trkpt lat="45.7645682" lon="10.9029771"><ele>1250.5</ele><time>2026-04-26T09:15:50.804Z</time></trkpt><trkpt lat="45.7645046" lon="10.9028064"><ele>1249.75</ele><time>2026-04-26T09:15:51.805Z</time></trkpt><trkpt lat="45.7644481" lon="10.9026442"><ele>1249.0</ele><time>2026-04-26T09:15:52.805Z</time></trkpt><trkpt lat="45.7643845" lon="10.9024888"><ele>1249.75</ele><time>2026-04-26T09:15:53.805Z</time></trkpt><trkpt lat="45.7643103" lon="10.902352"><ele>1250.5</ele><time>2026-04-26T09:15:54.806Z</time></trkpt><trkpt lat="45.7642294" lon="10.9022041"><ele>1251.25</ele><time>2026-04-26T09:15:55.806Z</time></trkpt><trkpt lat="45.7641161" lon="10.9021006"><ele>1252.0</ele><time>2026-04-26T09:15:56.805Z</time></trkpt><trkpt lat="45.7640253" lon="10.9019996"><ele>1252.0</ele><time>2026-04-26T09:15:57.804Z</time></trkpt><trkpt lat="45.7639511" lon="10.9019034"><ele>1252.0</ele><time>2026-04-26T09:15:58.806Z</time></trkpt><trkpt lat="45.7639051" lon="10.9018001"><ele>1252.0</ele><time>2026-04-26T09:15:59.805Z</time></trkpt><trkpt lat="45.7638839" lon="10.9016799"><ele>1252.0</ele><time>2026-04-26T09:16:00.804Z</time></trkpt><trkpt lat="45.7638997" lon="10.90153"><ele>1252.0</ele><time>2026-04-26T09:16:01.805Z</time></trkpt><trkpt lat="45.763928" lon="10.9013576"><ele>1247.5</ele><time>2026-04-26T09:16:02.806Z</time></trkpt><trkpt lat="45.763951" lon="10.9011583"><ele>1243.0</ele><time>2026-04-26T09:16:03.804Z</time></trkpt><trkpt lat="45.7639604" lon="10.9009428"><ele>1238.5</ele><time>2026-04-26T09:16:04.805Z</time></trkpt><trkpt lat="45.7639542" lon="10.9007336"><ele>1234.0</ele><time>2026-04-26T09:16:05.804Z</time></trkpt><trkpt lat="45.7639471" lon="10.9005208"><ele>1232.0</ele><time>2026-04-26T09:16:06.805Z</time></trkpt><trkpt lat="45.7639536" lon="10.9002921"><ele>1230.0</ele><time>2026-04-26T09:16:07.804Z</time></trkpt><trkpt lat="45.7639734" lon="10.9000663"><ele>1228.0</ele><time>2026-04-26T09:16:08.805Z</time></trkpt><trkpt lat="45.7640108" lon="10.8998407"><ele>1226.25</ele><time>2026-04-26T09:16:09.804Z</time></trkpt><trkpt lat="45.7640458" lon="10.8996174"><ele>1224.5</ele><time>2026-04-26T09:16:10.803Z</time></trkpt><trkpt lat="45.7640793" lon="10.899417"><ele>1222.75</ele><time>2026-04-26T09:16:11.804Z</time></trkpt><trkpt lat="45.7641136" lon="10.8992403"><ele>1221.0</ele><time>2026-04-26T09:16:12.806Z</time></trkpt><trkpt lat="45.7641436" lon="10.8990821"><ele>1219.6666666666667</ele><time>2026-04-26T09:16:13.805Z</time></trkpt><trkpt lat="45.7641663" lon="10.8989664"><ele>1218.3333333333333</ele><time>2026-04-26T09:16:14.804Z</time></trkpt><trkpt lat="45.7641864" lon="10.8988575"><ele>1217.0</ele><time>2026-04-26T09:16:15.806Z</time></trkpt><trkpt lat="45.7641908" lon="10.8987655"><ele>1215.6666666666665</ele><time>2026-04-26T09:16:16.805Z</time></trkpt><trkpt lat="45.7641365" lon="10.8986199"><ele>1214.3333333333333</ele><time>2026-04-26T09:16:18.806Z</time></trkpt><trkpt lat="45.7640468" lon="10.8985874"><ele>1213.0</ele><time>2026-04-26T09:16:19.804Z</time></trkpt><trkpt lat="45.7639385" lon="10.8985429"><ele>1213.0</ele><time>2026-04-26T09:16:20.805Z</time></trkpt><trkpt lat="45.7638006" lon="10.8984768"><ele>1213.0</ele><time>2026-04-26T09:16:21.803Z</time></trkpt><trkpt lat="45.7636574" lon="10.8984057"><ele>1213.0</ele><time>2026-04-26T09:16:22.804Z</time></trkpt><trkpt lat="45.7635087" lon="10.8983467"><ele>1210.0</ele><time>2026-04-26T09:16:23.804Z</time></trkpt><trkpt lat="45.7633713" lon="10.8982943"><ele>1207.0</ele><time>2026-04-26T09:16:24.804Z</time></trkpt><trkpt lat="45.7632429" lon="10.898234"><ele>1204.0</ele><time>2026-04-26T09:16:25.804Z</time></trkpt><trkpt lat="45.7631483" lon="10.8982039"><ele>1201.0</ele><time>2026-04-26T09:16:26.805Z</time></trkpt><trkpt lat="45.7630592" lon="10.898174"><ele>1201.0</ele><time>2026-04-26T09:16:27.806Z</time></trkpt><trkpt lat="45.7629659" lon="10.8981967"><ele>1201.0</ele><time>2026-04-26T09:16:28.804Z</time></trkpt><trkpt lat="45.7628775" lon="10.8982179"><ele>1201.0</ele><time>2026-04-26T09:16:29.806Z</time></trkpt><trkpt lat="45.7627819" lon="10.8982063"><ele>1201.0</ele><time>2026-04-26T09:16:30.806Z</time></trkpt><trkpt lat="45.7626895" lon="10.8981537"><ele>1201.0</ele><time>2026-04-26T09:16:31.805Z</time></trkpt><trkpt lat="45.7626117" lon="10.8980727"><ele>1201.5</ele><time>2026-04-26T09:16:32.806Z</time></trkpt><trkpt lat="45.7625553" lon="10.8979891"><ele>1202.0</ele><time>2026-04-26T09:16:33.805Z</time></trkpt><trkpt lat="45.7625196" lon="10.8978976"><ele>1202.5</ele><time>2026-04-26T09:16:34.804Z</time></trkpt><trkpt lat="45.7625081" lon="10.8977885"><ele>1203.0</ele><time>2026-04-26T09:16:35.805Z</time></trkpt><trkpt lat="45.7625293" lon="10.8976653"><ele>1203.5</ele><time>2026-04-26T09:16:36.804Z</time></trkpt><trkpt lat="45.7625771" lon="10.8975311"><ele>1204.0</ele><time>2026-04-26T09:16:37.804Z</time></trkpt><trkpt lat="45.7626295" lon="10.8974176"><ele>1202.8</ele><time>2026-04-26T09:16:38.805Z</time></trkpt><trkpt lat="45.762683" lon="10.8973164"><ele>1201.6000000000001</ele><time>2026-04-26T09:16:39.805Z</time></trkpt><trkpt lat="45.7626892" lon="10.8971449"><ele>1200.4</ele><time>2026-04-26T09:16:41.804Z</time></trkpt><trkpt lat="45.7626665" lon="10.8970583"><ele>1199.2</ele><time>2026-04-26T09:16:42.805Z</time></trkpt><trkpt lat="45.7626521" lon="10.8968957"><ele>1198.0</ele><time>2026-04-26T09:16:44.804Z</time></trkpt><trkpt lat="45.7627246" lon="10.8968021"><ele>1195.7142857142858</ele><time>2026-04-26T09:16:46.805Z</time></trkpt><trkpt lat="45.762797" lon="10.8968019"><ele>1193.4285714285713</ele><time>2026-04-26T09:16:47.805Z</time></trkpt><trkpt lat="45.7628707" lon="10.8968153"><ele>1191.142857142857</ele><time>2026-04-26T09:16:48.806Z</time></trkpt><trkpt lat="45.7629457" lon="10.8968854"><ele>1188.857142857143</ele><time>2026-04-26T09:16:49.805Z</time></trkpt><trkpt lat="45.7629852" lon="10.8969683"><ele>1186.5714285714287</ele><time>2026-04-26T09:16:50.805Z</time></trkpt><trkpt lat="45.7630063" lon="10.8970536"><ele>1184.2857142857142</ele><time>2026-04-26T09:16:51.805Z</time></trkpt><trkpt lat="45.7630184" lon="10.8971545"><ele>1182.0</ele><time>2026-04-26T09:16:52.805Z</time></trkpt><trkpt lat="45.7630282" lon="10.897255"><ele>1182.0</ele><time>2026-04-26T09:16:53.804Z</time></trkpt><trkpt lat="45.763061" lon="10.8973365"><ele>1182.0</ele><time>2026-04-26T09:16:54.805Z</time></trkpt><trkpt lat="45.76311" lon="10.8973961"><ele>1182.0</ele><time>2026-04-26T09:16:55.804Z</time></trkpt><trkpt lat="45.7631781" lon="10.8974314"><ele>1182.0</ele><time>2026-04-26T09:16:56.804Z</time></trkpt><trkpt lat="45.7632693" lon="10.8974358"><ele>1182.0</ele><time>2026-04-26T09:16:57.804Z</time></trkpt><trkpt lat="45.7633809" lon="10.8974128"><ele>1182.0</ele><time>2026-04-26T09:16:58.804Z</time></trkpt><trkpt lat="45.763492" lon="10.8973942"><ele>1178.25</ele><time>2026-04-26T09:16:59.804Z</time></trkpt><trkpt lat="45.7635938" lon="10.8973914"><ele>1174.5</ele><time>2026-04-26T09:17:00.805Z</time></trkpt><trkpt lat="45.7636996" lon="10.8974096"><ele>1170.75</ele><time>2026-04-26T09:17:01.805Z</time></trkpt><trkpt lat="45.7638121" lon="10.8974427"><ele>1167.0</ele><time>2026-04-26T09:17:02.804Z</time></trkpt><trkpt lat="45.7639411" lon="10.8975007"><ele>1167.0</ele><time>2026-04-26T09:17:03.806Z</time></trkpt><trkpt lat="45.764099" lon="10.8975707"><ele>1167.0</ele><time>2026-04-26T09:17:04.804Z</time></trkpt><trkpt lat="45.7642502" lon="10.8976222"><ele>1167.0</ele><time>2026-04-26T09:17:05.804Z</time></trkpt><trkpt lat="45.7644036" lon="10.897679"><ele>1166.0</ele><time>2026-04-26T09:17:06.804Z</time></trkpt><trkpt lat="45.7645584" lon="10.8977336"><ele>1165.0</ele><time>2026-04-26T09:17:07.806Z</time></trkpt><trkpt lat="45.764708" lon="10.897803"><ele>1164.0</ele><time>2026-04-26T09:17:08.805Z</time></trkpt><trkpt lat="45.7648468" lon="10.8978817"><ele>1164.0</ele><time>2026-04-26T09:17:09.805Z</time></trkpt><trkpt lat="45.7649731" lon="10.8979566"><ele>1164.0</ele><time>2026-04-26T09:17:10.804Z</time></trkpt><trkpt lat="45.7650904" lon="10.898048"><ele>1164.0</ele><time>2026-04-26T09:17:11.805Z</time></trkpt><trkpt lat="45.765202" lon="10.8981533"><ele>1164.0</ele><time>2026-04-26T09:17:12.804Z</time></trkpt><trkpt lat="45.765308" lon="10.898272"><ele>1159.0</ele><time>2026-04-26T09:17:13.806Z</time></trkpt><trkpt lat="45.7653964" lon="10.898385"><ele>1154.0</ele><time>2026-04-26T09:17:14.805Z</time></trkpt><trkpt lat="45.765473" lon="10.8984924"><ele>1149.0</ele><time>2026-04-26T09:17:15.806Z</time></trkpt><trkpt lat="45.7655389" lon="10.8986107"><ele>1144.0</ele><time>2026-04-26T09:17:16.805Z</time></trkpt><trkpt lat="45.7655868" lon="10.8987157"><ele>1139.0</ele><time>2026-04-26T09:17:17.805Z</time></trkpt><trkpt lat="45.7656223" lon="10.8988297"><ele>1139.0</ele><time>2026-04-26T09:17:18.804Z</time></trkpt><trkpt lat="45.7656496" lon="10.8989355"><ele>1139.0</ele><time>2026-04-26T09:17:19.805Z</time></trkpt><trkpt lat="45.7656718" lon="10.8990229"><ele>1139.0</ele><time>2026-04-26T09:17:20.806Z</time></trkpt><trkpt lat="45.7657378" lon="10.8991313"><ele>1139.0</ele><time>2026-04-26T09:17:22.806Z</time></trkpt><trkpt lat="45.7658147" lon="10.8990848"><ele>1139.0</ele><time>2026-04-26T09:17:24.805Z</time></trkpt><trkpt lat="45.7657888" lon="10.8988953"><ele>1139.0</ele><time>2026-04-26T09:17:26.804Z</time></trkpt><trkpt lat="45.7657641" lon="10.8987589"><ele>1139.0</ele><time>2026-04-26T09:17:27.805Z</time></trkpt><trkpt lat="45.7657302" lon="10.8985955"><ele>1139.0</ele><time>2026-04-26T09:17:28.805Z</time></trkpt><trkpt lat="45.7657032" lon="10.8984467"><ele>1139.0</ele><time>2026-04-26T09:17:29.804Z</time></trkpt><trkpt lat="45.7656798" lon="10.8983074"><ele>1139.0</ele><time>2026-04-26T09:17:30.805Z</time></trkpt><trkpt lat="45.765643" lon="10.8981963"><ele>1136.8333333333335</ele><time>2026-04-26T09:17:31.803Z</time></trkpt><trkpt lat="45.7656053" lon="10.8981196"><ele>1134.6666666666667</ele><time>2026-04-26T09:17:32.806Z</time></trkpt><trkpt lat="45.7655635" lon="10.8979931"><ele>1132.5</ele><time>2026-04-26T09:17:34.805Z</time></trkpt><trkpt lat="45.7655868" lon="10.8978997"><ele>1130.3333333333333</ele><time>2026-04-26T09:17:36.806Z</time></trkpt><trkpt lat="45.7656582" lon="10.8979551"><ele>1128.1666666666665</ele><time>2026-04-26T09:17:38.805Z</time></trkpt><trkpt lat="45.7657094" lon="10.8980338"><ele>1126.0</ele><time>2026-04-26T09:17:39.805Z</time></trkpt><trkpt lat="45.7657794" lon="10.8981456"><ele>1126.0</ele><time>2026-04-26T09:17:40.805Z</time></trkpt><trkpt lat="45.7658775" lon="10.8982892"><ele>1126.0</ele><time>2026-04-26T09:17:41.803Z</time></trkpt><trkpt lat="45.7659774" lon="10.8984351"><ele>1126.0</ele><time>2026-04-26T09:17:42.805Z</time></trkpt><trkpt lat="45.7660801" lon="10.8985896"><ele>1126.0</ele><time>2026-04-26T09:17:43.805Z</time></trkpt><trkpt lat="45.7661833" lon="10.8987487"><ele>1119.3333333333333</ele><time>2026-04-26T09:17:44.806Z</time></trkpt><trkpt lat="45.7662848" lon="10.8989059"><ele>1112.6666666666667</ele><time>2026-04-26T09:17:45.806Z</time></trkpt><trkpt lat="45.7663967" lon="10.8990728"><ele>1106.0</ele><time>2026-04-26T09:17:46.805Z</time></trkpt><trkpt lat="45.7665227" lon="10.8992433"><ele>1103.6666666666667</ele><time>2026-04-26T09:17:47.806Z</time></trkpt><trkpt lat="45.7666553" lon="10.8994089"><ele>1101.3333333333333</ele><time>2026-04-26T09:17:48.805Z</time></trkpt><trkpt lat="45.766791" lon="10.8995789"><ele>1099.0</ele><time>2026-04-26T09:17:49.805Z</time></trkpt><trkpt lat="45.7669145" lon="10.8997297"><ele>1099.0</ele><time>2026-04-26T09:17:50.805Z</time></trkpt><trkpt lat="45.7670264" lon="10.8998758"><ele>1099.0</ele><time>2026-04-26T09:17:51.805Z</time></trkpt><trkpt lat="45.7671319" lon="10.900028"><ele>1099.0</ele><time>2026-04-26T09:17:52.804Z</time></trkpt><trkpt lat="45.7672291" lon="10.9001847"><ele>1099.0</ele><time>2026-04-26T09:17:53.806Z</time></trkpt><trkpt lat="45.7673215" lon="10.9003522"><ele>1096.6666666666665</ele><time>2026-04-26T09:17:54.806Z</time></trkpt><trkpt lat="45.7674236" lon="10.9005197"><ele>1094.3333333333333</ele><time>2026-04-26T09:17:55.805Z</time></trkpt><trkpt lat="45.7675261" lon="10.9006932"><ele>1092.0</ele><time>2026-04-26T09:17:56.806Z</time></trkpt><trkpt lat="45.7676202" lon="10.9008583"><ele>1094.25</ele><time>2026-04-26T09:17:57.805Z</time></trkpt><trkpt lat="45.7676907" lon="10.9010293"><ele>1096.5</ele><time>2026-04-26T09:17:58.805Z</time></trkpt><trkpt lat="45.7677397" lon="10.901196"><ele>1098.75</ele><time>2026-04-26T09:17:59.805Z</time></trkpt><trkpt lat="45.7677825" lon="10.9013547"><ele>1101.0</ele><time>2026-04-26T09:18:00.804Z</time></trkpt><trkpt lat="45.7678351" lon="10.9014996"><ele>1096.25</ele><time>2026-04-26T09:18:01.804Z</time></trkpt><trkpt lat="45.7679069" lon="10.9016356"><ele>1091.5</ele><time>2026-04-26T09:18:02.805Z</time></trkpt><trkpt lat="45.7680036" lon="10.9017868"><ele>1086.75</ele><time>2026-04-26T09:18:03.806Z</time></trkpt><trkpt lat="45.768111" lon="10.9019487"><ele>1082.0</ele><time>2026-04-26T09:18:04.804Z</time></trkpt><trkpt lat="45.768218" lon="10.9021008"><ele>1082.0</ele><time>2026-04-26T09:18:05.805Z</time></trkpt><trkpt lat="45.7683233" lon="10.9022268"><ele>1082.0</ele><time>2026-04-26T09:18:06.806Z</time></trkpt><trkpt lat="45.7684457" lon="10.9023175"><ele>1082.0</ele><time>2026-04-26T09:18:07.806Z</time></trkpt><trkpt lat="45.7685658" lon="10.9023847"><ele>1082.0</ele><time>2026-04-26T09:18:08.805Z</time></trkpt><trkpt lat="45.7686756" lon="10.9024423"><ele>1079.5</ele><time>2026-04-26T09:18:09.805Z</time></trkpt><trkpt lat="45.7687771" lon="10.9025103"><ele>1077.0</ele><time>2026-04-26T09:18:10.805Z</time></trkpt><trkpt lat="45.7688737" lon="10.9026048"><ele>1074.5</ele><time>2026-04-26T09:18:11.804Z</time></trkpt><trkpt lat="45.76897" lon="10.9027412"><ele>1072.0</ele><time>2026-04-26T09:18:12.806Z</time></trkpt><trkpt lat="45.7690559" lon="10.9029096"><ele>1070.6</ele><time>2026-04-26T09:18:13.805Z</time></trkpt><trkpt lat="45.7691187" lon="10.9030454"><ele>1069.2</ele><time>2026-04-26T09:18:14.806Z</time></trkpt><trkpt lat="45.7691686" lon="10.9031846"><ele>1067.8</ele><time>2026-04-26T09:18:15.805Z</time></trkpt><trkpt lat="45.7692026" lon="10.9033229"><ele>1066.4</ele><time>2026-04-26T09:18:16.804Z</time></trkpt><trkpt lat="45.7692062" lon="10.9034732"><ele>1065.0</ele><time>2026-04-26T09:18:17.806Z</time></trkpt><trkpt lat="45.7691789" lon="10.9036446"><ele>1064.75</ele><time>2026-04-26T09:18:18.805Z</time></trkpt><trkpt lat="45.7691342" lon="10.9038249"><ele>1064.5</ele><time>2026-04-26T09:18:19.805Z</time></trkpt><trkpt lat="45.7690992" lon="10.904"><ele>1064.25</ele><time>2026-04-26T09:18:20.805Z</time></trkpt><trkpt lat="45.7690745" lon="10.9041567"><ele>1064.0</ele><time>2026-04-26T09:18:21.805Z</time></trkpt><trkpt lat="45.7690776" lon="10.9043019"><ele>1064.4</ele><time>2026-04-26T09:18:22.804Z</time></trkpt><trkpt lat="45.7691048" lon="10.9044506"><ele>1064.8000000000002</ele><time>2026-04-26T09:18:23.806Z</time></trkpt><trkpt lat="45.7691439" lon="10.9046153"><ele>1065.1999999999998</ele><time>2026-04-26T09:18:24.804Z</time></trkpt><trkpt lat="45.7691807" lon="10.9047713"><ele>1065.6</ele><time>2026-04-26T09:18:25.806Z</time></trkpt><trkpt lat="45.7692209" lon="10.9049097"><ele>1066.0</ele><time>2026-04-26T09:18:26.804Z</time></trkpt><trkpt lat="45.7692627" lon="10.9050312"><ele>1068.25</ele><time>2026-04-26T09:18:27.806Z</time></trkpt><trkpt lat="45.7693299" lon="10.9051305"><ele>1070.5</ele><time>2026-04-26T09:18:28.806Z</time></trkpt><trkpt lat="45.769398" lon="10.9052319"><ele>1072.75</ele><time>2026-04-26T09:18:29.804Z</time></trkpt><trkpt lat="45.7695179" lon="10.9053119"><ele>1075.0</ele><time>2026-04-26T09:18:30.805Z</time></trkpt><trkpt lat="45.7696387" lon="10.9053633"><ele>1065.0</ele><time>2026-04-26T09:18:31.805Z</time></trkpt><trkpt lat="45.7697675" lon="10.9054127"><ele>1055.0</ele><time>2026-04-26T09:18:32.804Z</time></trkpt><trkpt lat="45.7699357" lon="10.9054279"><ele>1045.0</ele><time>2026-04-26T09:18:33.806Z</time></trkpt><trkpt lat="45.7700847" lon="10.9054535"><ele>1040.0</ele><time>2026-04-26T09:18:34.804Z</time></trkpt><trkpt lat="45.7702347" lon="10.9054609"><ele>1035.0</ele><time>2026-04-26T09:18:35.804Z</time></trkpt><trkpt lat="45.7703901" lon="10.905462"><ele>1030.0</ele><time>2026-04-26T09:18:36.804Z</time></trkpt><trkpt lat="45.7705224" lon="10.9054256"><ele>1025.0</ele><time>2026-04-26T09:18:37.806Z</time></trkpt><trkpt lat="45.7706321" lon="10.9053873"><ele>1025.0</ele><time>2026-04-26T09:18:38.806Z</time></trkpt><trkpt lat="45.7707115" lon="10.9053366"><ele>1025.0</ele><time>2026-04-26T09:18:39.806Z</time></trkpt><trkpt lat="45.770785" lon="10.9052661"><ele>1025.0</ele><time>2026-04-26T09:18:40.806Z</time></trkpt><trkpt lat="45.7708468" lon="10.9051878"><ele>1025.0</ele><time>2026-04-26T09:18:41.806Z</time></trkpt><trkpt lat="45.7708928" lon="10.9051013"><ele>1025.0</ele><time>2026-04-26T09:18:42.805Z</time></trkpt><trkpt lat="45.7709309" lon="10.9050245"><ele>1025.0</ele><time>2026-04-26T09:18:43.804Z</time></trkpt><trkpt lat="45.7709841" lon="10.9049089"><ele>1025.0</ele><time>2026-04-26T09:18:45.804Z</time></trkpt><trkpt lat="45.7710534" lon="10.9049764"><ele>1025.0</ele><time>2026-04-26T09:18:48.804Z</time></trkpt><trkpt lat="45.7710002" lon="10.9051104"><ele>1025.0</ele><time>2026-04-26T09:18:50.805Z</time></trkpt><trkpt lat="45.7709392" lon="10.9052206"><ele>1025.0</ele><time>2026-04-26T09:18:51.805Z</time></trkpt><trkpt lat="45.7708785" lon="10.9053325"><ele>1025.0</ele><time>2026-04-26T09:18:52.805Z</time></trkpt><trkpt lat="45.7708169" lon="10.9054185"><ele>1025.0</ele><time>2026-04-26T09:18:53.804Z</time></trkpt><trkpt lat="45.770712" lon="10.905474"><ele>1025.0</ele><time>2026-04-26T09:18:54.806Z</time></trkpt><trkpt lat="45.7706112" lon="10.9055373"><ele>1025.0</ele><time>2026-04-26T09:18:55.805Z</time></trkpt><trkpt lat="45.7705173" lon="10.9055864"><ele>1025.0</ele><time>2026-04-26T09:18:56.804Z</time></trkpt><trkpt lat="45.7704386" lon="10.9056127"><ele>1025.0</ele><time>2026-04-26T09:18:57.806Z</time></trkpt><trkpt lat="45.7703716" lon="10.9056251"><ele>1025.0</ele><time>2026-04-26T09:18:58.806Z</time></trkpt><trkpt lat="45.7702616" lon="10.9056691"><ele>1025.0</ele><time>2026-04-26T09:19:00.807Z</time></trkpt><trkpt lat="45.7702658" lon="10.9057819"><ele>1025.0</ele><time>2026-04-26T09:19:02.804Z</time></trkpt><trkpt lat="45.7703462" lon="10.9058129"><ele>1025.0</ele><time>2026-04-26T09:19:04.805Z</time></trkpt><trkpt lat="45.7704178" lon="10.9057643"><ele>1025.0</ele><time>2026-04-26T09:19:05.805Z</time></trkpt><trkpt lat="45.7705039" lon="10.9057617"><ele>1025.0</ele><time>2026-04-26T09:19:06.804Z</time></trkpt><trkpt lat="45.7705861" lon="10.9057824"><ele>1025.0</ele><time>2026-04-26T09:19:07.804Z</time></trkpt><trkpt lat="45.7706734" lon="10.9058424"><ele>1025.0</ele><time>2026-04-26T09:19:08.805Z</time></trkpt><trkpt lat="45.7707413" lon="10.9059133"><ele>1025.0</ele><time>2026-04-26T09:19:09.804Z</time></trkpt><trkpt lat="45.7708005" lon="10.9059737"><ele>1025.0</ele><time>2026-04-26T09:19:10.804Z</time></trkpt><trkpt lat="45.7708625" lon="10.9060899"><ele>1025.0</ele><time>2026-04-26T09:19:12.804Z</time></trkpt><trkpt lat="45.770827" lon="10.9062098"><ele>1025.0</ele><time>2026-04-26T09:19:14.803Z</time></trkpt><trkpt lat="45.7707698" lon="10.9062913"><ele>1026.5</ele><time>2026-04-26T09:19:15.805Z</time></trkpt><trkpt lat="45.7706902" lon="10.906404"><ele>1028.0</ele><time>2026-04-26T09:19:16.805Z</time></trkpt><trkpt lat="45.7706081" lon="10.9065379"><ele>1029.5</ele><time>2026-04-26T09:19:17.805Z</time></trkpt><trkpt lat="45.7705179" lon="10.9066713"><ele>1031.0</ele><time>2026-04-26T09:19:18.804Z</time></trkpt><trkpt lat="45.7704187" lon="10.906778"><ele>1030.25</ele><time>2026-04-26T09:19:19.805Z</time></trkpt><trkpt lat="45.7703154" lon="10.9068635"><ele>1029.5</ele><time>2026-04-26T09:19:20.804Z</time></trkpt><trkpt lat="45.770195" lon="10.9069061"><ele>1028.75</ele><time>2026-04-26T09:19:21.805Z</time></trkpt><trkpt lat="45.7700756" lon="10.9069356"><ele>1028.0</ele><time>2026-04-26T09:19:22.805Z</time></trkpt><trkpt lat="45.7699661" lon="10.9069727"><ele>1028.0</ele><time>2026-04-26T09:19:23.806Z</time></trkpt><trkpt lat="45.7698854" lon="10.9070293"><ele>1028.0</ele><time>2026-04-26T09:19:24.804Z</time></trkpt><trkpt lat="45.769828" lon="10.90711"><ele>1028.0</ele><time>2026-04-26T09:19:25.805Z</time></trkpt><trkpt lat="45.769788" lon="10.9072214"><ele>1028.0</ele><time>2026-04-26T09:19:26.805Z</time></trkpt><trkpt lat="45.7697571" lon="10.9073723"><ele>1028.0</ele><time>2026-04-26T09:19:27.805Z</time></trkpt><trkpt lat="45.769711" lon="10.9075538"><ele>1031.0</ele><time>2026-04-26T09:19:28.806Z</time></trkpt><trkpt lat="45.7696586" lon="10.9077555"><ele>1034.0</ele><time>2026-04-26T09:19:29.805Z</time></trkpt><trkpt lat="45.769605" lon="10.907962"><ele>1037.0</ele><time>2026-04-26T09:19:30.806Z</time></trkpt><trkpt lat="45.7695471" lon="10.9081616"><ele>1037.0</ele><time>2026-04-26T09:19:31.806Z</time></trkpt><trkpt lat="45.7695003" lon="10.9083643"><ele>1037.0</ele><time>2026-04-26T09:19:32.806Z</time></trkpt><trkpt lat="45.7694597" lon="10.9085623"><ele>1037.0</ele><time>2026-04-26T09:19:33.806Z</time></trkpt><trkpt lat="45.7694198" lon="10.9087444"><ele>1037.0</ele><time>2026-04-26T09:19:34.804Z</time></trkpt><trkpt lat="45.7693688" lon="10.9089091"><ele>1036.0</ele><time>2026-04-26T09:19:35.805Z</time></trkpt><trkpt lat="45.7693035" lon="10.9090624"><ele>1035.0</ele><time>2026-04-26T09:19:36.804Z</time></trkpt><trkpt lat="45.7692281" lon="10.9092045"><ele>1034.0</ele><time>2026-04-26T09:19:37.805Z</time></trkpt><trkpt lat="45.7691254" lon="10.9093357"><ele>1033.0</ele><time>2026-04-26T09:19:38.805Z</time></trkpt><trkpt lat="45.7690059" lon="10.9094644"><ele>1033.0</ele><time>2026-04-26T09:19:39.805Z</time></trkpt><trkpt lat="45.7688818" lon="10.9095699"><ele>1033.0</ele><time>2026-04-26T09:19:40.806Z</time></trkpt><trkpt lat="45.7687576" lon="10.9096655"><ele>1033.0</ele><time>2026-04-26T09:19:41.805Z</time></trkpt><trkpt lat="45.7686459" lon="10.909756"><ele>1033.0</ele><time>2026-04-26T09:19:42.805Z</time></trkpt><trkpt lat="45.7685565" lon="10.9098591"><ele>1033.0</ele><time>2026-04-26T09:19:43.805Z</time></trkpt><trkpt lat="45.768476" lon="10.9099782"><ele>1033.0</ele><time>2026-04-26T09:19:44.806Z</time></trkpt><trkpt lat="45.7684101" lon="10.9101165"><ele>1033.0</ele><time>2026-04-26T09:19:45.806Z</time></trkpt><trkpt lat="45.7683574" lon="10.9102466"><ele>1033.0</ele><time>2026-04-26T09:19:46.805Z</time></trkpt><trkpt lat="45.7683014" lon="10.910367"><ele>1033.0</ele><time>2026-04-26T09:19:47.804Z</time></trkpt><trkpt lat="45.7682276" lon="10.9104651"><ele>1033.0</ele><time>2026-04-26T09:19:48.806Z</time></trkpt><trkpt lat="45.7681371" lon="10.9105648"><ele>1033.0</ele><time>2026-04-26T09:19:49.804Z</time></trkpt><trkpt lat="45.7680538" lon="10.9106965"><ele>1033.0</ele><time>2026-04-26T09:19:50.805Z</time></trkpt><trkpt lat="45.7679679" lon="10.9108032"><ele>1033.0</ele><time>2026-04-26T09:19:51.806Z</time></trkpt><trkpt lat="45.7678728" lon="10.910882"><ele>1033.25</ele><time>2026-04-26T09:19:52.805Z</time></trkpt><trkpt lat="45.7677756" lon="10.9109491"><ele>1033.5</ele><time>2026-04-26T09:19:53.806Z</time></trkpt><trkpt lat="45.7676477" lon="10.9110064"><ele>1033.75</ele><time>2026-04-26T09:19:54.805Z</time></trkpt><trkpt lat="45.7675147" lon="10.9110881"><ele>1034.0</ele><time>2026-04-26T09:19:55.806Z</time></trkpt><trkpt lat="45.7673738" lon="10.911158"><ele>1034.0</ele><time>2026-04-26T09:19:56.804Z</time></trkpt><trkpt lat="45.7672315" lon="10.9112128"><ele>1034.0</ele><time>2026-04-26T09:19:57.805Z</time></trkpt><trkpt lat="45.7670965" lon="10.9112532"><ele>1034.0</ele><time>2026-04-26T09:19:58.804Z</time></trkpt><trkpt lat="45.7669684" lon="10.9112906"><ele>1034.0</ele><time>2026-04-26T09:19:59.805Z</time></trkpt><trkpt lat="45.7668414" lon="10.9113446"><ele>1025.0</ele><time>2026-04-26T09:20:00.806Z</time></trkpt><trkpt lat="45.7667102" lon="10.9114209"><ele>1016.0</ele><time>2026-04-26T09:20:01.806Z</time></trkpt><trkpt lat="45.7665778" lon="10.9115064"><ele>1007.0</ele><time>2026-04-26T09:20:02.805Z</time></trkpt><trkpt lat="45.7664313" lon="10.9115974"><ele>998.0</ele><time>2026-04-26T09:20:03.806Z</time></trkpt><trkpt lat="45.7662912" lon="10.9116694"><ele>998.0</ele><time>2026-04-26T09:20:04.805Z</time></trkpt><trkpt lat="45.7661612" lon="10.9117249"><ele>998.0</ele><time>2026-04-26T09:20:05.804Z</time></trkpt><trkpt lat="45.7660432" lon="10.9117826"><ele>998.0</ele><time>2026-04-26T09:20:06.805Z</time></trkpt><trkpt lat="45.7659381" lon="10.911842"><ele>998.0</ele><time>2026-04-26T09:20:07.805Z</time></trkpt><trkpt lat="45.7658621" lon="10.9119167"><ele>994.2</ele><time>2026-04-26T09:20:08.805Z</time></trkpt><trkpt lat="45.7657924" lon="10.9120261"><ele>990.4</ele><time>2026-04-26T09:20:09.805Z</time></trkpt><trkpt lat="45.7657279" lon="10.9121631"><ele>986.6000000000001</ele><time>2026-04-26T09:20:10.804Z</time></trkpt><trkpt lat="45.7656547" lon="10.9122838"><ele>982.8000000000001</ele><time>2026-04-26T09:20:11.805Z</time></trkpt><trkpt lat="45.7655802" lon="10.9124118"><ele>979.0</ele><time>2026-04-26T09:20:12.805Z</time></trkpt><trkpt lat="45.7654654" lon="10.9124951"><ele>974.0</ele><time>2026-04-26T09:20:13.805Z</time></trkpt><trkpt lat="45.7653645" lon="10.9125887"><ele>969.0000000000001</ele><time>2026-04-26T09:20:14.805Z</time></trkpt><trkpt lat="45.7652722" lon="10.9126996"><ele>964.0000000000001</ele><time>2026-04-26T09:20:15.804Z</time></trkpt><trkpt lat="45.7652026" lon="10.9128096"><ele>959.0</ele><time>2026-04-26T09:20:16.805Z</time></trkpt><trkpt lat="45.7651552" lon="10.9129313"><ele>954.0</ele><time>2026-04-26T09:20:17.804Z</time></trkpt><trkpt lat="45.7651196" lon="10.9130659"><ele>954.0</ele><time>2026-04-26T09:20:18.803Z</time></trkpt><trkpt lat="45.7650691" lon="10.9132133"><ele>954.0</ele><time>2026-04-26T09:20:19.806Z</time></trkpt><trkpt lat="45.7649941" lon="10.9133611"><ele>954.0</ele><time>2026-04-26T09:20:20.805Z</time></trkpt><trkpt lat="45.7649066" lon="10.9135015"><ele>954.0</ele><time>2026-04-26T09:20:21.804Z</time></trkpt><trkpt lat="45.7647954" lon="10.91365"><ele>947.6666666666667</ele><time>2026-04-26T09:20:22.804Z</time></trkpt><trkpt lat="45.7646526" lon="10.9137996"><ele>941.3333333333334</ele><time>2026-04-26T09:20:23.805Z</time></trkpt><trkpt lat="45.7645005" lon="10.9139635"><ele>935.0</ele><time>2026-04-26T09:20:24.805Z</time></trkpt><trkpt lat="45.7643381" lon="10.9141475"><ele>952.6666666666667</ele><time>2026-04-26T09:20:25.806Z</time></trkpt><trkpt lat="45.7641822" lon="10.91433"><ele>970.3333333333333</ele><time>2026-04-26T09:20:26.804Z</time></trkpt><trkpt lat="45.7640323" lon="10.9145019"><ele>988.0</ele><time>2026-04-26T09:20:27.806Z</time></trkpt><trkpt lat="45.7638945" lon="10.9146609"><ele>988.0</ele><time>2026-04-26T09:20:28.806Z</time></trkpt><trkpt lat="45.7637754" lon="10.914808"><ele>988.0</ele><time>2026-04-26T09:20:29.806Z</time></trkpt><trkpt lat="45.7636574" lon="10.9149324"><ele>988.0</ele><time>2026-04-26T09:20:30.805Z</time></trkpt><trkpt lat="45.763544" lon="10.9150401"><ele>988.0</ele><time>2026-04-26T09:20:31.805Z</time></trkpt><trkpt lat="45.7634394" lon="10.9150973"><ele>978.5999999999999</ele><time>2026-04-26T09:20:32.806Z</time></trkpt><trkpt lat="45.763341" lon="10.9151531"><ele>969.1999999999999</ele><time>2026-04-26T09:20:33.806Z</time></trkpt><trkpt lat="45.7632592" lon="10.9152206"><ele>959.8</ele><time>2026-04-26T09:20:34.805Z</time></trkpt><trkpt lat="45.7631978" lon="10.915316"><ele>950.4</ele><time>2026-04-26T09:20:35.804Z</time></trkpt><trkpt lat="45.7631588" lon="10.9154482"><ele>941.0</ele><time>2026-04-26T09:20:36.805Z</time></trkpt><trkpt lat="45.7631296" lon="10.9156231"><ele>941.0</ele><time>2026-04-26T09:20:37.805Z</time></trkpt><trkpt lat="45.7631099" lon="10.9158304"><ele>941.0</ele><time>2026-04-26T09:20:38.805Z</time></trkpt><trkpt lat="45.7630666" lon="10.9160562"><ele>941.0</ele><time>2026-04-26T09:20:39.805Z</time></trkpt><trkpt lat="45.7629988" lon="10.9163092"><ele>946.0</ele><time>2026-04-26T09:20:40.806Z</time></trkpt><trkpt lat="45.7629174" lon="10.9165706"><ele>951.0</ele><time>2026-04-26T09:20:41.805Z</time></trkpt><trkpt lat="45.7628287" lon="10.9168281"><ele>956.0</ele><time>2026-04-26T09:20:42.805Z</time></trkpt><trkpt lat="45.7627389" lon="10.9170823"><ele>928.3333333333334</ele><time>2026-04-26T09:20:43.806Z</time></trkpt><trkpt lat="45.7626582" lon="10.9173045"><ele>900.6666666666667</ele><time>2026-04-26T09:20:44.804Z</time></trkpt><trkpt lat="45.7625884" lon="10.9175132"><ele>873.0</ele><time>2026-04-26T09:20:45.806Z</time></trkpt><trkpt lat="45.7625383" lon="10.9177233"><ele>873.0</ele><time>2026-04-26T09:20:46.805Z</time></trkpt><trkpt lat="45.7625021" lon="10.9179638"><ele>873.0</ele><time>2026-04-26T09:20:47.805Z</time></trkpt><trkpt lat="45.7624631" lon="10.9182466"><ele>873.0</ele><time>2026-04-26T09:20:48.804Z</time></trkpt><trkpt lat="45.7624185" lon="10.9185528"><ele>885.6666666666667</ele><time>2026-04-26T09:20:49.804Z</time></trkpt><trkpt lat="45.7623757" lon="10.9188486"><ele>898.3333333333334</ele><time>2026-04-26T09:20:50.805Z</time></trkpt><trkpt lat="45.7623337" lon="10.9191074"><ele>911.0</ele><time>2026-04-26T09:20:51.803Z</time></trkpt><trkpt lat="45.7622814" lon="10.9193577"><ele>911.0</ele><time>2026-04-26T09:20:52.806Z</time></trkpt><trkpt lat="45.7622116" lon="10.9195955"><ele>911.0</ele><time>2026-04-26T09:20:53.804Z</time></trkpt><trkpt lat="45.7621177" lon="10.9198636"><ele>911.0</ele><time>2026-04-26T09:20:54.805Z</time></trkpt><trkpt lat="45.762018" lon="10.9201234"><ele>914.6666666666667</ele><time>2026-04-26T09:20:55.805Z</time></trkpt><trkpt lat="45.7619171" lon="10.9203651"><ele>918.3333333333333</ele><time>2026-04-26T09:20:56.804Z</time></trkpt><trkpt lat="45.7618275" lon="10.92057"><ele>922.0</ele><time>2026-04-26T09:20:57.806Z</time></trkpt><trkpt lat="45.7617361" lon="10.9207517"><ele>918.75</ele><time>2026-04-26T09:20:58.805Z</time></trkpt><trkpt lat="45.7616323" lon="10.9209034"><ele>915.5</ele><time>2026-04-26T09:20:59.806Z</time></trkpt><trkpt lat="45.7615281" lon="10.9210257"><ele>912.25</ele><time>2026-04-26T09:21:00.806Z</time></trkpt><trkpt lat="45.7614302" lon="10.9211455"><ele>909.0</ele><time>2026-04-26T09:21:01.804Z</time></trkpt><trkpt lat="45.7613675" lon="10.9212639"><ele>909.0</ele><time>2026-04-26T09:21:02.806Z</time></trkpt><trkpt lat="45.7613268" lon="10.921389"><ele>909.0000000000001</ele><time>2026-04-26T09:21:03.806Z</time></trkpt><trkpt lat="45.7613181" lon="10.921545"><ele>909.0000000000001</ele><time>2026-04-26T09:21:04.804Z</time></trkpt><trkpt lat="45.7613122" lon="10.9217189"><ele>909.0</ele><time>2026-04-26T09:21:05.805Z</time></trkpt><trkpt lat="45.7613015" lon="10.9218778"><ele>909.0</ele><time>2026-04-26T09:21:06.805Z</time></trkpt><trkpt lat="45.7612883" lon="10.9220203"><ele>913.2</ele><time>2026-04-26T09:21:07.805Z</time></trkpt><trkpt lat="45.7612629" lon="10.9221467"><ele>917.4000000000001</ele><time>2026-04-26T09:21:08.805Z</time></trkpt><trkpt lat="45.7612158" lon="10.9222481"><ele>921.6</ele><time>2026-04-26T09:21:09.804Z</time></trkpt><trkpt lat="45.7611258" lon="10.9223133"><ele>925.8</ele><time>2026-04-26T09:21:10.804Z</time></trkpt><trkpt lat="45.7610163" lon="10.9223706"><ele>930.0</ele><time>2026-04-26T09:21:11.805Z</time></trkpt><trkpt lat="45.7609018" lon="10.9224612"><ele>923.5</ele><time>2026-04-26T09:21:12.805Z</time></trkpt><trkpt lat="45.7607855" lon="10.9225798"><ele>917.0</ele><time>2026-04-26T09:21:13.804Z</time></trkpt><trkpt lat="45.76066" lon="10.9226952"><ele>910.5</ele><time>2026-04-26T09:21:14.804Z</time></trkpt><trkpt lat="45.7605418" lon="10.9227812"><ele>904.0</ele><time>2026-04-26T09:21:15.805Z</time></trkpt><trkpt lat="45.7604295" lon="10.9228331"><ele>904.0</ele><time>2026-04-26T09:21:16.805Z</time></trkpt><trkpt lat="45.760321" lon="10.9228727"><ele>904.0000000000001</ele><time>2026-04-26T09:21:17.803Z</time></trkpt><trkpt lat="45.7602256" lon="10.9229178"><ele>904.0000000000001</ele><time>2026-04-26T09:21:18.806Z</time></trkpt><trkpt lat="45.7601339" lon="10.9229734"><ele>904.0</ele><time>2026-04-26T09:21:19.805Z</time></trkpt><trkpt lat="45.7600392" lon="10.9231108"><ele>904.0</ele><time>2026-04-26T09:21:20.805Z</time></trkpt><trkpt lat="45.759932" lon="10.9232193"><ele>903.0</ele><time>2026-04-26T09:21:21.806Z</time></trkpt><trkpt lat="45.7598044" lon="10.9233189"><ele>902.0</ele><time>2026-04-26T09:21:22.806Z</time></trkpt><trkpt lat="45.7596652" lon="10.9234417"><ele>901.0</ele><time>2026-04-26T09:21:23.805Z</time></trkpt><trkpt lat="45.759517" lon="10.923596"><ele>901.0</ele><time>2026-04-26T09:21:24.806Z</time></trkpt><trkpt lat="45.7593701" lon="10.9237796"><ele>901.0</ele><time>2026-04-26T09:21:25.805Z</time></trkpt><trkpt lat="45.7592069" lon="10.9239809"><ele>901.0</ele><time>2026-04-26T09:21:26.804Z</time></trkpt><trkpt lat="45.7590226" lon="10.924191"><ele>896.0</ele><time>2026-04-26T09:21:27.803Z</time></trkpt><trkpt lat="45.7588553" lon="10.9244004"><ele>891.0</ele><time>2026-04-26T09:21:28.806Z</time></trkpt><trkpt lat="45.7586953" lon="10.9245887"><ele>886.0</ele><time>2026-04-26T09:21:29.806Z</time></trkpt><trkpt lat="45.7585506" lon="10.92476"><ele>881.6666666666666</ele><time>2026-04-26T09:21:30.805Z</time></trkpt><trkpt lat="45.7584177" lon="10.9249173"><ele>877.3333333333333</ele><time>2026-04-26T09:21:31.805Z</time></trkpt><trkpt lat="45.7582857" lon="10.9250678"><ele>873.0</ele><time>2026-04-26T09:21:32.804Z</time></trkpt><trkpt lat="45.7581494" lon="10.925196"><ele>873.0</ele><time>2026-04-26T09:21:33.805Z</time></trkpt><trkpt lat="45.7580168" lon="10.9253004"><ele>873.0</ele><time>2026-04-26T09:21:34.805Z</time></trkpt><trkpt lat="45.7578941" lon="10.9253927"><ele>873.0</ele><time>2026-04-26T09:21:35.805Z</time></trkpt><trkpt lat="45.7577905" lon="10.9254806"><ele>873.0</ele><time>2026-04-26T09:21:36.804Z</time></trkpt><trkpt lat="45.7577063" lon="10.9255654"><ele>868.1666666666666</ele><time>2026-04-26T09:21:37.806Z</time></trkpt><trkpt lat="45.7576335" lon="10.9256367"><ele>863.3333333333333</ele><time>2026-04-26T09:21:38.806Z</time></trkpt><trkpt lat="45.7575502" lon="10.925736"><ele>858.5</ele><time>2026-04-26T09:21:40.805Z</time></trkpt><trkpt lat="45.757489" lon="10.9257116"><ele>853.6666666666666</ele><time>2026-04-26T09:21:42.803Z</time></trkpt><trkpt lat="45.7575187" lon="10.9255791"><ele>848.8333333333333</ele><time>2026-04-26T09:21:44.806Z</time></trkpt><trkpt lat="45.7575842" lon="10.9255058"><ele>844.0</ele><time>2026-04-26T09:21:45.804Z</time></trkpt><trkpt lat="45.7576634" lon="10.9254321"><ele>843.5</ele><time>2026-04-26T09:21:46.805Z</time></trkpt><trkpt lat="45.7577684" lon="10.9253535"><ele>843.0</ele><time>2026-04-26T09:21:47.806Z</time></trkpt><trkpt lat="45.7578806" lon="10.9252544"><ele>842.5</ele><time>2026-04-26T09:21:48.804Z</time></trkpt><trkpt lat="45.7579851" lon="10.9251448"><ele>842.0</ele><time>2026-04-26T09:21:49.805Z</time></trkpt><trkpt lat="45.7580824" lon="10.9250092"><ele>842.0</ele><time>2026-04-26T09:21:50.805Z</time></trkpt><trkpt lat="45.7581586" lon="10.9247877"><ele>842.0</ele><time>2026-04-26T09:21:51.804Z</time></trkpt><trkpt lat="45.7582543" lon="10.9245855"><ele>842.0</ele><time>2026-04-26T09:21:52.805Z</time></trkpt><trkpt lat="45.7583621" lon="10.9243906"><ele>847.6666666666667</ele><time>2026-04-26T09:21:53.805Z</time></trkpt><trkpt lat="45.7584755" lon="10.9242033"><ele>853.3333333333333</ele><time>2026-04-26T09:21:54.805Z</time></trkpt><trkpt lat="45.7585772" lon="10.9239973"><ele>859.0</ele><time>2026-04-26T09:21:55.805Z</time></trkpt><trkpt lat="45.7586706" lon="10.9237801"><ele>859.0</ele><time>2026-04-26T09:21:56.806Z</time></trkpt><trkpt lat="45.758762" lon="10.9235631"><ele>859.0</ele><time>2026-04-26T09:21:57.806Z</time></trkpt><trkpt lat="45.7588485" lon="10.9233503"><ele>859.0</ele><time>2026-04-26T09:21:58.805Z</time></trkpt><trkpt lat="45.7589353" lon="10.9231394"><ele>849.6666666666666</ele><time>2026-04-26T09:21:59.804Z</time></trkpt><trkpt lat="45.7590236" lon="10.9229375"><ele>840.3333333333333</ele><time>2026-04-26T09:22:00.805Z</time></trkpt><trkpt lat="45.7591053" lon="10.9227383"><ele>831.0</ele><time>2026-04-26T09:22:01.804Z</time></trkpt><trkpt lat="45.7591807" lon="10.9225482"><ele>833.25</ele><time>2026-04-26T09:22:02.806Z</time></trkpt><trkpt lat="45.7592378" lon="10.9223725"><ele>835.5</ele><time>2026-04-26T09:22:03.806Z</time></trkpt><trkpt lat="45.7592973" lon="10.9221949"><ele>837.75</ele><time>2026-04-26T09:22:04.804Z</time></trkpt><trkpt lat="45.7593579" lon="10.9220186"><ele>840.0</ele><time>2026-04-26T09:22:05.806Z</time></trkpt><trkpt lat="45.7594136" lon="10.9218538"><ele>835.8333333333334</ele><time>2026-04-26T09:22:06.805Z</time></trkpt><trkpt lat="45.7594734" lon="10.9217244"><ele>831.6666666666667</ele><time>2026-04-26T09:22:07.804Z</time></trkpt><trkpt lat="45.7595304" lon="10.9216303"><ele>827.5</ele><time>2026-04-26T09:22:08.805Z</time></trkpt><trkpt lat="45.7595953" lon="10.9215649"><ele>823.3333333333334</ele><time>2026-04-26T09:22:09.805Z</time></trkpt><trkpt lat="45.7596707" lon="10.9215286"><ele>819.1666666666667</ele><time>2026-04-26T09:22:10.805Z</time></trkpt><trkpt lat="45.7597513" lon="10.9215031"><ele>815.0</ele><time>2026-04-26T09:22:11.805Z</time></trkpt><trkpt lat="45.7598329" lon="10.9214842"><ele>815.0</ele><time>2026-04-26T09:22:12.806Z</time></trkpt><trkpt lat="45.7599021" lon="10.9214311"><ele>815.0</ele><time>2026-04-26T09:22:13.805Z</time></trkpt><trkpt lat="45.7599551" lon="10.9213336"><ele>815.0</ele><time>2026-04-26T09:22:14.805Z</time></trkpt><trkpt lat="45.7599882" lon="10.9211958"><ele>815.0</ele><time>2026-04-26T09:22:15.805Z</time></trkpt><trkpt lat="45.7600004" lon="10.9210385"><ele>815.0</ele><time>2026-04-26T09:22:16.805Z</time></trkpt><trkpt lat="45.760018" lon="10.9208586"><ele>810.25</ele><time>2026-04-26T09:22:17.806Z</time></trkpt><trkpt lat="45.7600459" lon="10.9206842"><ele>805.5</ele><time>2026-04-26T09:22:18.806Z</time></trkpt><trkpt lat="45.7600885" lon="10.9204965"><ele>800.75</ele><time>2026-04-26T09:22:19.805Z</time></trkpt><trkpt lat="45.7601574" lon="10.9203009"><ele>796.0</ele><time>2026-04-26T09:22:20.804Z</time></trkpt><trkpt lat="45.7602426" lon="10.9201003"><ele>803.6666666666666</ele><time>2026-04-26T09:22:21.804Z</time></trkpt><trkpt lat="45.7603256" lon="10.9199007"><ele>811.3333333333333</ele><time>2026-04-26T09:22:22.806Z</time></trkpt><trkpt lat="45.7604068" lon="10.9197026"><ele>819.0</ele><time>2026-04-26T09:22:23.805Z</time></trkpt><trkpt lat="45.7604748" lon="10.9195095"><ele>819.0</ele><time>2026-04-26T09:22:24.804Z</time></trkpt><trkpt lat="45.7605287" lon="10.9193151"><ele>819.0</ele><time>2026-04-26T09:22:25.804Z</time></trkpt><trkpt lat="45.7605623" lon="10.9191174"><ele>819.0</ele><time>2026-04-26T09:22:26.804Z</time></trkpt><trkpt lat="45.7605753" lon="10.918921"><ele>819.0</ele><time>2026-04-26T09:22:27.804Z</time></trkpt><trkpt lat="45.7605906" lon="10.9187072"><ele>814.6666666666667</ele><time>2026-04-26T09:22:28.805Z</time></trkpt><trkpt lat="45.7606001" lon="10.9184815"><ele>810.3333333333334</ele><time>2026-04-26T09:22:29.805Z</time></trkpt><trkpt lat="45.7605899" lon="10.9182447"><ele>806.0</ele><time>2026-04-26T09:22:30.805Z</time></trkpt><trkpt lat="45.7605715" lon="10.9180172"><ele>804.0</ele><time>2026-04-26T09:22:31.806Z</time></trkpt><trkpt lat="45.7605476" lon="10.9178151"><ele>802.0</ele><time>2026-04-26T09:22:32.805Z</time></trkpt><trkpt lat="45.7605188" lon="10.9176268"><ele>800.0</ele><time>2026-04-26T09:22:33.803Z</time></trkpt><trkpt lat="45.7604881" lon="10.9174517"><ele>798.0</ele><time>2026-04-26T09:22:34.805Z</time></trkpt><trkpt lat="45.7604667" lon="10.9172888"><ele>797.5</ele><time>2026-04-26T09:22:35.806Z</time></trkpt><trkpt lat="45.7604505" lon="10.9171512"><ele>797.0</ele><time>2026-04-26T09:22:36.804Z</time></trkpt><trkpt lat="45.760441" lon="10.9170327"><ele>796.5</ele><time>2026-04-26T09:22:37.806Z</time></trkpt><trkpt lat="45.7604248" lon="10.916941"><ele>796.0</ele><time>2026-04-26T09:22:38.806Z</time></trkpt><trkpt lat="45.7603465" lon="10.9168558"><ele>795.5</ele><time>2026-04-26T09:22:40.805Z</time></trkpt><trkpt lat="45.7602699" lon="10.916906"><ele>795.0</ele><time>2026-04-26T09:22:42.805Z</time></trkpt><trkpt lat="45.7602784" lon="10.9170849"><ele>795.0</ele><time>2026-04-26T09:22:44.804Z</time></trkpt><trkpt lat="45.7603082" lon="10.9171956"><ele>795.0</ele><time>2026-04-26T09:22:45.806Z</time></trkpt><trkpt lat="45.7603333" lon="10.9173304"><ele>795.0</ele><time>2026-04-26T09:22:46.806Z</time></trkpt><trkpt lat="45.7603569" lon="10.9174972"><ele>795.0</ele><time>2026-04-26T09:22:47.804Z</time></trkpt><trkpt lat="45.7603698" lon="10.9176745"><ele>795.0</ele><time>2026-04-26T09:22:48.805Z</time></trkpt><trkpt lat="45.7603758" lon="10.9178653"><ele>795.75</ele><time>2026-04-26T09:22:49.806Z</time></trkpt><trkpt lat="45.7603695" lon="10.918067"><ele>796.5</ele><time>2026-04-26T09:22:50.806Z</time></trkpt><trkpt lat="45.7603446" lon="10.918261"><ele>797.25</ele><time>2026-04-26T09:22:51.805Z</time></trkpt><trkpt lat="45.7602977" lon="10.9184487"><ele>798.0</ele><time>2026-04-26T09:22:52.806Z</time></trkpt><trkpt lat="45.7602273" lon="10.918634"><ele>786.0</ele><time>2026-04-26T09:22:53.805Z</time></trkpt><trkpt lat="45.7601424" lon="10.9188188"><ele>774.0</ele><time>2026-04-26T09:22:54.804Z</time></trkpt><trkpt lat="45.7600479" lon="10.9189967"><ele>762.0</ele><time>2026-04-26T09:22:55.804Z</time></trkpt><trkpt lat="45.7599438" lon="10.919168"><ele>767.3333333333333</ele><time>2026-04-26T09:22:56.804Z</time></trkpt><trkpt lat="45.7598245" lon="10.9193455"><ele>772.6666666666666</ele><time>2026-04-26T09:22:57.805Z</time></trkpt><trkpt lat="45.7597082" lon="10.9195246"><ele>778.0</ele><time>2026-04-26T09:22:58.806Z</time></trkpt><trkpt lat="45.7595911" lon="10.9196975"><ele>778.0</ele><time>2026-04-26T09:22:59.805Z</time></trkpt><trkpt lat="45.7594958" lon="10.9198652"><ele>778.0</ele><time>2026-04-26T09:23:00.806Z</time></trkpt><trkpt lat="45.759412" lon="10.9200224"><ele>778.0</ele><time>2026-04-26T09:23:01.805Z</time></trkpt><trkpt lat="45.7593294" lon="10.9201564"><ele>778.0</ele><time>2026-04-26T09:23:02.806Z</time></trkpt><trkpt lat="45.7592369" lon="10.9202747"><ele>773.5</ele><time>2026-04-26T09:23:03.804Z</time></trkpt><trkpt lat="45.759132" lon="10.9203566"><ele>769.0</ele><time>2026-04-26T09:23:04.804Z</time></trkpt><trkpt lat="45.759024" lon="10.9204263"><ele>764.5</ele><time>2026-04-26T09:23:05.805Z</time></trkpt><trkpt lat="45.7589233" lon="10.9205091"><ele>760.0</ele><time>2026-04-26T09:23:06.805Z</time></trkpt><trkpt lat="45.7588258" lon="10.9206165"><ele>760.0</ele><time>2026-04-26T09:23:07.805Z</time></trkpt><trkpt lat="45.7587263" lon="10.9207556"><ele>760.0</ele><time>2026-04-26T09:23:08.806Z</time></trkpt><trkpt lat="45.7586181" lon="10.920912"><ele>760.0</ele><time>2026-04-26T09:23:09.806Z</time></trkpt><trkpt lat="45.7585032" lon="10.9210629"><ele>760.0</ele><time>2026-04-26T09:23:10.804Z</time></trkpt><trkpt lat="45.7583948" lon="10.9212113"><ele>755.5</ele><time>2026-04-26T09:23:11.804Z</time></trkpt><trkpt lat="45.7582933" lon="10.9213448"><ele>751.0</ele><time>2026-04-26T09:23:12.806Z</time></trkpt><trkpt lat="45.7582002" lon="10.9214688"><ele>746.5</ele><time>2026-04-26T09:23:13.805Z</time></trkpt><trkpt lat="45.758107" lon="10.9215913"><ele>742.0</ele><time>2026-04-26T09:23:14.804Z</time></trkpt><trkpt lat="45.7580156" lon="10.9217086"><ele>739.75</ele><time>2026-04-26T09:23:15.804Z</time></trkpt><trkpt lat="45.7579214" lon="10.9218135"><ele>737.5</ele><time>2026-04-26T09:23:16.805Z</time></trkpt><trkpt lat="45.7578241" lon="10.9219105"><ele>735.25</ele><time>2026-04-26T09:23:17.803Z</time></trkpt><trkpt lat="45.7577288" lon="10.9219974"><ele>733.0</ele><time>2026-04-26T09:23:18.806Z</time></trkpt><trkpt lat="45.7576296" lon="10.9220808"><ele>733.0</ele><time>2026-04-26T09:23:19.805Z</time></trkpt><trkpt lat="45.757538" lon="10.9221599"><ele>733.0</ele><time>2026-04-26T09:23:20.806Z</time></trkpt><trkpt lat="45.757455" lon="10.9222437"><ele>733.0</ele><time>2026-04-26T09:23:21.803Z</time></trkpt><trkpt lat="45.7573781" lon="10.922322"><ele>733.0</ele><time>2026-04-26T09:23:22.806Z</time></trkpt><trkpt lat="45.7573235" lon="10.9224006"><ele>733.0</ele><time>2026-04-26T09:23:23.806Z</time></trkpt><trkpt lat="45.7572724" lon="10.9224635"><ele>733.0</ele><time>2026-04-26T09:23:24.805Z</time></trkpt><trkpt lat="45.7571788" lon="10.9224988"><ele>733.0</ele><time>2026-04-26T09:23:26.804Z</time></trkpt><trkpt lat="45.7571363" lon="10.9224244"><ele>733.0</ele><time>2026-04-26T09:23:28.804Z</time></trkpt><trkpt lat="45.7572007" lon="10.9223247"><ele>733.0</ele><time>2026-04-26T09:23:30.804Z</time></trkpt><trkpt lat="45.7572749" lon="10.9222722"><ele>733.0</ele><time>2026-04-26T09:23:31.804Z</time></trkpt><trkpt lat="45.7573444" lon="10.9222113"><ele>733.0</ele><time>2026-04-26T09:23:32.806Z</time></trkpt><trkpt lat="45.7574169" lon="10.922115"><ele>733.0</ele><time>2026-04-26T09:23:33.805Z</time></trkpt><trkpt lat="45.7574949" lon="10.9220033"><ele>733.0</ele><time>2026-04-26T09:23:34.805Z</time></trkpt><trkpt lat="45.7575851" lon="10.9218711"><ele>733.0</ele><time>2026-04-26T09:23:35.804Z</time></trkpt><trkpt lat="45.7576731" lon="10.9217255"><ele>733.0</ele><time>2026-04-26T09:23:36.805Z</time></trkpt><trkpt lat="45.7577432" lon="10.9215633"><ele>733.0</ele><time>2026-04-26T09:23:37.805Z</time></trkpt><trkpt lat="45.7578175" lon="10.9213998"><ele>735.25</ele><time>2026-04-26T09:23:38.804Z</time></trkpt><trkpt lat="45.7578741" lon="10.9212207"><ele>737.5</ele><time>2026-04-26T09:23:39.805Z</time></trkpt><trkpt lat="45.7579234" lon="10.9210413"><ele>739.75</ele><time>2026-04-26T09:23:40.805Z</time></trkpt><trkpt lat="45.7579742" lon="10.9208684"><ele>742.0</ele><time>2026-04-26T09:23:41.806Z</time></trkpt><trkpt lat="45.7580246" lon="10.9207166"><ele>737.6</ele><time>2026-04-26T09:23:42.805Z</time></trkpt><trkpt lat="45.7580792" lon="10.9205792"><ele>733.2</ele><time>2026-04-26T09:23:43.805Z</time></trkpt><trkpt lat="45.758134" lon="10.9204537"><ele>728.8</ele><time>2026-04-26T09:23:44.805Z</time></trkpt><trkpt lat="45.7581893" lon="10.9203442"><ele>724.4</ele><time>2026-04-26T09:23:45.806Z</time></trkpt><trkpt lat="45.7582475" lon="10.9202459"><ele>720.0</ele><time>2026-04-26T09:23:46.804Z</time></trkpt><trkpt lat="45.7582983" lon="10.9201618"><ele>720.0</ele><time>2026-04-26T09:23:47.806Z</time></trkpt><trkpt lat="45.7583475" lon="10.920079"><ele>720.0</ele><time>2026-04-26T09:23:48.806Z</time></trkpt><trkpt lat="45.7583875" lon="10.9200027"><ele>720.0</ele><time>2026-04-26T09:23:49.804Z</time></trkpt><trkpt lat="45.7584325" lon="10.9198604"><ele>720.0</ele><time>2026-04-26T09:23:51.805Z</time></trkpt><trkpt lat="45.7583847" lon="10.9197854"><ele>720.0</ele><time>2026-04-26T09:23:52.806Z</time></trkpt><trkpt lat="45.7582791" lon="10.919774"><ele>720.0</ele><time>2026-04-26T09:23:54.804Z</time></trkpt><trkpt lat="45.7582121" lon="10.9199309"><ele>720.0</ele><time>2026-04-26T09:23:56.806Z</time></trkpt><trkpt lat="45.7581808" lon="10.9200477"><ele>720.0</ele><time>2026-04-26T09:23:57.806Z</time></trkpt><trkpt lat="45.7581381" lon="10.9201616"><ele>720.0</ele><time>2026-04-26T09:23:58.805Z</time></trkpt><trkpt lat="45.7580751" lon="10.9202731"><ele>720.0</ele><time>2026-04-26T09:23:59.805Z</time></trkpt><trkpt lat="45.7579919" lon="10.9203716"><ele>720.0</ele><time>2026-04-26T09:24:00.804Z</time></trkpt><trkpt lat="45.7578965" lon="10.9204756"><ele>720.0</ele><time>2026-04-26T09:24:01.805Z</time></trkpt><trkpt lat="45.7578023" lon="10.9206177"><ele>720.0</ele><time>2026-04-26T09:24:02.804Z</time></trkpt><trkpt lat="45.7577143" lon="10.9207673"><ele>720.0</ele><time>2026-04-26T09:24:03.805Z</time></trkpt><trkpt lat="45.7576246" lon="10.9209033"><ele>720.0</ele><time>2026-04-26T09:24:04.805Z</time></trkpt><trkpt lat="45.7575294" lon="10.921036"><ele>716.25</ele><time>2026-04-26T09:24:05.805Z</time></trkpt><trkpt lat="45.7574436" lon="10.9211692"><ele>712.5</ele><time>2026-04-26T09:24:06.804Z</time></trkpt><trkpt lat="45.7573522" lon="10.9212978"><ele>708.75</ele><time>2026-04-26T09:24:07.804Z</time></trkpt><trkpt lat="45.7572519" lon="10.9213809"><ele>705.0</ele><time>2026-04-26T09:24:08.805Z</time></trkpt><trkpt lat="45.7571576" lon="10.9214599"><ele>705.0</ele><time>2026-04-26T09:24:09.805Z</time></trkpt><trkpt lat="45.7570719" lon="10.9215463"><ele>705.0</ele><time>2026-04-26T09:24:10.806Z</time></trkpt><trkpt lat="45.7570082" lon="10.9216348"><ele>705.0</ele><time>2026-04-26T09:24:11.806Z</time></trkpt><trkpt lat="45.7569541" lon="10.92171"><ele>705.0</ele><time>2026-04-26T09:24:12.804Z</time></trkpt><trkpt lat="45.7569007" lon="10.9217614"><ele>705.0</ele><time>2026-04-26T09:24:13.805Z</time></trkpt><trkpt lat="45.7568207" lon="10.9217549"><ele>705.0</ele><time>2026-04-26T09:24:15.804Z</time></trkpt><trkpt lat="45.7568096" lon="10.9216601"><ele>705.0</ele><time>2026-04-26T09:24:17.805Z</time></trkpt><trkpt lat="45.7569145" lon="10.9215653"><ele>705.0</ele><time>2026-04-26T09:24:19.803Z</time></trkpt><trkpt lat="45.7569957" lon="10.9215"><ele>705.0</ele><time>2026-04-26T09:24:20.806Z</time></trkpt><trkpt lat="45.7570716" lon="10.9214186"><ele>705.0</ele><time>2026-04-26T09:24:21.805Z</time></trkpt><trkpt lat="45.7571447" lon="10.9213293"><ele>705.0</ele><time>2026-04-26T09:24:22.803Z</time></trkpt><trkpt lat="45.757218" lon="10.9212367"><ele>705.0</ele><time>2026-04-26T09:24:23.804Z</time></trkpt><trkpt lat="45.7572742" lon="10.9211071"><ele>705.0</ele><time>2026-04-26T09:24:24.806Z</time></trkpt><trkpt lat="45.7573036" lon="10.9209725"><ele>705.0</ele><time>2026-04-26T09:24:25.805Z</time></trkpt><trkpt lat="45.7573211" lon="10.9208048"><ele>705.0</ele><time>2026-04-26T09:24:26.805Z</time></trkpt><trkpt lat="45.757333" lon="10.9206297"><ele>705.0</ele><time>2026-04-26T09:24:27.805Z</time></trkpt><trkpt lat="45.7573582" lon="10.9204467"><ele>698.5</ele><time>2026-04-26T09:24:28.804Z</time></trkpt><trkpt lat="45.7573912" lon="10.9202682"><ele>692.0</ele><time>2026-04-26T09:24:29.804Z</time></trkpt><trkpt lat="45.7574318" lon="10.9201013"><ele>685.5</ele><time>2026-04-26T09:24:30.804Z</time></trkpt><trkpt lat="45.7574785" lon="10.9199538"><ele>679.0</ele><time>2026-04-26T09:24:31.804Z</time></trkpt><trkpt lat="45.7575295" lon="10.9198191"><ele>676.0</ele><time>2026-04-26T09:24:32.805Z</time></trkpt><trkpt lat="45.7575947" lon="10.9197085"><ele>673.0</ele><time>2026-04-26T09:24:33.806Z</time></trkpt><trkpt lat="45.757643" lon="10.9195823"><ele>670.0</ele><time>2026-04-26T09:24:34.804Z</time></trkpt><trkpt lat="45.7576811" lon="10.9194588"><ele>667.0</ele><time>2026-04-26T09:24:35.806Z</time></trkpt><trkpt lat="45.7577254" lon="10.9193425"><ele>664.0</ele><time>2026-04-26T09:24:36.806Z</time></trkpt><trkpt lat="45.7577841" lon="10.91925"><ele>666.3333333333334</ele><time>2026-04-26T09:24:37.806Z</time></trkpt><trkpt lat="45.7578335" lon="10.9191594"><ele>668.6666666666667</ele><time>2026-04-26T09:24:38.806Z</time></trkpt><trkpt lat="45.7578616" lon="10.9190763"><ele>671.0</ele><time>2026-04-26T09:24:39.804Z</time></trkpt><trkpt lat="45.7578341" lon="10.9189243"><ele>673.3333333333334</ele><time>2026-04-26T09:24:41.804Z</time></trkpt><trkpt lat="45.7577346" lon="10.9189085"><ele>675.6666666666666</ele><time>2026-04-26T09:24:43.804Z</time></trkpt><trkpt lat="45.7576862" lon="10.9189689"><ele>678.0</ele><time>2026-04-26T09:24:44.806Z</time></trkpt><trkpt lat="45.7576568" lon="10.9190791"><ele>675.2</ele><time>2026-04-26T09:24:45.804Z</time></trkpt><trkpt lat="45.7576182" lon="10.9192029"><ele>672.4</ele><time>2026-04-26T09:24:46.805Z</time></trkpt><trkpt lat="45.7575636" lon="10.9193172"><ele>669.6</ele><time>2026-04-26T09:24:47.805Z</time></trkpt><trkpt lat="45.7574884" lon="10.9193955"><ele>666.8000000000001</ele><time>2026-04-26T09:24:48.806Z</time></trkpt><trkpt lat="45.7573892" lon="10.919457"><ele>664.0</ele><time>2026-04-26T09:24:49.804Z</time></trkpt><trkpt lat="45.7572912" lon="10.9195195"><ele>664.0</ele><time>2026-04-26T09:24:50.806Z</time></trkpt><trkpt lat="45.7572068" lon="10.9196172"><ele>664.0</ele><time>2026-04-26T09:24:51.805Z</time></trkpt><trkpt lat="45.7571339" lon="10.9197553"><ele>664.0</ele><time>2026-04-26T09:24:52.804Z</time></trkpt><trkpt lat="45.7570552" lon="10.9199183"><ele>664.0</ele><time>2026-04-26T09:24:53.804Z</time></trkpt><trkpt lat="45.7569879" lon="10.9200907"><ele>667.0</ele><time>2026-04-26T09:24:54.806Z</time></trkpt><trkpt lat="45.756948" lon="10.92027"><ele>670.0</ele><time>2026-04-26T09:24:55.804Z</time></trkpt><trkpt lat="45.7569203" lon="10.9204275"><ele>673.0</ele><time>2026-04-26T09:24:56.806Z</time></trkpt><trkpt lat="45.7568966" lon="10.9205722"><ele>676.0</ele><time>2026-04-26T09:24:57.806Z</time></trkpt><trkpt lat="45.7568674" lon="10.920696"><ele>679.0</ele><time>2026-04-26T09:24:58.804Z</time></trkpt><trkpt lat="45.7568273" lon="10.9207844"><ele>670.6</ele><time>2026-04-26T09:24:59.806Z</time></trkpt><trkpt lat="45.7567328" lon="10.9208546"><ele>662.2</ele><time>2026-04-26T09:25:01.806Z</time></trkpt><trkpt lat="45.7566818" lon="10.9207671"><ele>653.8000000000001</ele><time>2026-04-26T09:25:03.804Z</time></trkpt><trkpt lat="45.7567496" lon="10.9206007"><ele>645.4000000000001</ele><time>2026-04-26T09:25:05.804Z</time></trkpt><trkpt lat="45.7567973" lon="10.9204854"><ele>637.0</ele><time>2026-04-26T09:25:06.806Z</time></trkpt><trkpt lat="45.7568316" lon="10.9203127"><ele>637.0</ele><time>2026-04-26T09:25:07.805Z</time></trkpt><trkpt lat="45.756849" lon="10.9201129"><ele>637.0</ele><time>2026-04-26T09:25:08.805Z</time></trkpt><trkpt lat="45.7568636" lon="10.9199079"><ele>637.0</ele><time>2026-04-26T09:25:09.806Z</time></trkpt><trkpt lat="45.7568819" lon="10.9196914"><ele>637.0</ele><time>2026-04-26T09:25:10.805Z</time></trkpt><trkpt lat="45.7568815" lon="10.9194853"><ele>639.2</ele><time>2026-04-26T09:25:11.804Z</time></trkpt><trkpt lat="45.7568773" lon="10.9192892"><ele>641.4000000000001</ele><time>2026-04-26T09:25:12.805Z</time></trkpt><trkpt lat="45.7568854" lon="10.9191726"><ele>643.5999999999999</ele><time>2026-04-26T09:25:13.804Z</time></trkpt><trkpt lat="45.7569127" lon="10.9190551"><ele>645.8</ele><time>2026-04-26T09:25:14.804Z</time></trkpt><trkpt lat="45.7569554" lon="10.9189699"><ele>648.0</ele><time>2026-04-26T09:25:15.805Z</time></trkpt><trkpt lat="45.7570217" lon="10.918919"><ele>648.0</ele><time>2026-04-26T09:25:16.806Z</time></trkpt><trkpt lat="45.7570975" lon="10.9188976"><ele>648.0</ele><time>2026-04-26T09:25:17.804Z</time></trkpt><trkpt lat="45.7571649" lon="10.9188883"><ele>648.0</ele><time>2026-04-26T09:25:18.805Z</time></trkpt><trkpt lat="45.7572239" lon="10.9188562"><ele>648.0</ele><time>2026-04-26T09:25:19.805Z</time></trkpt><trkpt lat="45.7572752" lon="10.9187097"><ele>648.0</ele><time>2026-04-26T09:25:21.805Z</time></trkpt><trkpt lat="45.7571931" lon="10.918595"><ele>648.0</ele><time>2026-04-26T09:25:23.806Z</time></trkpt><trkpt lat="45.7571247" lon="10.9185878"><ele>648.0</ele><time>2026-04-26T09:25:24.805Z</time></trkpt><trkpt lat="45.7570097" lon="10.9186796"><ele>648.0</ele><time>2026-04-26T09:25:25.804Z</time></trkpt><trkpt lat="45.7568982" lon="10.9187624"><ele>648.0</ele><time>2026-04-26T09:25:26.804Z</time></trkpt><trkpt lat="45.756788" lon="10.9188708"><ele>648.0</ele><time>2026-04-26T09:25:27.804Z</time></trkpt><trkpt lat="45.7567021" lon="10.9189911"><ele>641.5</ele><time>2026-04-26T09:25:28.805Z</time></trkpt><trkpt lat="45.7566439" lon="10.9191238"><ele>635.0</ele><time>2026-04-26T09:25:29.805Z</time></trkpt><trkpt lat="45.756617" lon="10.9192831"><ele>628.5</ele><time>2026-04-26T09:25:30.804Z</time></trkpt><trkpt lat="45.7565802" lon="10.9194538"><ele>622.0</ele><time>2026-04-26T09:25:31.805Z</time></trkpt><trkpt lat="45.7565161" lon="10.9196274"><ele>622.0</ele><time>2026-04-26T09:25:32.805Z</time></trkpt><trkpt lat="45.7564262" lon="10.919791"><ele>622.0</ele><time>2026-04-26T09:25:33.805Z</time></trkpt><trkpt lat="45.7563311" lon="10.9199256"><ele>622.0</ele><time>2026-04-26T09:25:34.805Z</time></trkpt><trkpt lat="45.7562528" lon="10.9200562"><ele>622.0</ele><time>2026-04-26T09:25:35.804Z</time></trkpt><trkpt lat="45.7562034" lon="10.9202165"><ele>627.0</ele><time>2026-04-26T09:25:36.804Z</time></trkpt><trkpt lat="45.7561602" lon="10.920416"><ele>632.0</ele><time>2026-04-26T09:25:37.805Z</time></trkpt><trkpt lat="45.7560912" lon="10.9206355"><ele>637.0</ele><time>2026-04-26T09:25:38.806Z</time></trkpt><trkpt lat="45.756002" lon="10.9208554"><ele>627.6666666666667</ele><time>2026-04-26T09:25:39.805Z</time></trkpt><trkpt lat="45.7559136" lon="10.9210566"><ele>618.3333333333334</ele><time>2026-04-26T09:25:40.804Z</time></trkpt><trkpt lat="45.755829" lon="10.9212469"><ele>609.0</ele><time>2026-04-26T09:25:41.805Z</time></trkpt><trkpt lat="45.7557687" lon="10.921444"><ele>609.0</ele><time>2026-04-26T09:25:42.804Z</time></trkpt><trkpt lat="45.7557228" lon="10.9216407"><ele>609.0</ele><time>2026-04-26T09:25:43.804Z</time></trkpt><trkpt lat="45.7556795" lon="10.9218346"><ele>609.0</ele><time>2026-04-26T09:25:44.804Z</time></trkpt><trkpt lat="45.7556145" lon="10.9219933"><ele>609.0</ele><time>2026-04-26T09:25:45.806Z</time></trkpt><trkpt lat="45.7555485" lon="10.9221606"><ele>613.0</ele><time>2026-04-26T09:25:46.804Z</time></trkpt><trkpt lat="45.7554722" lon="10.9222799"><ele>617.0</ele><time>2026-04-26T09:25:47.805Z</time></trkpt><trkpt lat="45.7554162" lon="10.9223725"><ele>621.0</ele><time>2026-04-26T09:25:48.804Z</time></trkpt><trkpt lat="45.7553642" lon="10.9224325"><ele>625.0</ele><time>2026-04-26T09:25:49.806Z</time></trkpt><trkpt lat="45.7552682" lon="10.9224345"><ele>629.0</ele><time>2026-04-26T09:25:51.805Z</time></trkpt><trkpt lat="45.7552303" lon="10.9222987"><ele>629.0</ele><time>2026-04-26T09:25:53.806Z</time></trkpt><trkpt lat="45.7552601" lon="10.9221738"><ele>629.0</ele><time>2026-04-26T09:25:54.806Z</time></trkpt><trkpt lat="45.7553204" lon="10.9220314"><ele>629.0</ele><time>2026-04-26T09:25:55.805Z</time></trkpt><trkpt lat="45.7553766" lon="10.9218744"><ele>629.0</ele><time>2026-04-26T09:25:56.806Z</time></trkpt><trkpt lat="45.7554061" lon="10.9217061"><ele>624.0</ele><time>2026-04-26T09:25:57.803Z</time></trkpt><trkpt lat="45.7554018" lon="10.9215306"><ele>619.0</ele><time>2026-04-26T09:25:58.805Z</time></trkpt><trkpt lat="45.7554006" lon="10.9213436"><ele>614.0</ele><time>2026-04-26T09:25:59.805Z</time></trkpt><trkpt lat="45.7554236" lon="10.9211396"><ele>609.0</ele><time>2026-04-26T09:26:00.804Z</time></trkpt><trkpt lat="45.7554454" lon="10.9209338"><ele>605.0</ele><time>2026-04-26T09:26:01.805Z</time></trkpt><trkpt lat="45.7554472" lon="10.9207392"><ele>601.0</ele><time>2026-04-26T09:26:02.804Z</time></trkpt><trkpt lat="45.755433" lon="10.9205536"><ele>597.0</ele><time>2026-04-26T09:26:03.806Z</time></trkpt><trkpt lat="45.7554216" lon="10.9203936"><ele>593.0</ele><time>2026-04-26T09:26:04.806Z</time></trkpt><trkpt lat="45.7554329" lon="10.9202533"><ele>593.0</ele><time>2026-04-26T09:26:05.806Z</time></trkpt><trkpt lat="45.7554717" lon="10.9201079"><ele>593.0</ele><time>2026-04-26T09:26:06.804Z</time></trkpt><trkpt lat="45.7555165" lon="10.9199677"><ele>593.0</ele><time>2026-04-26T09:26:07.805Z</time></trkpt><trkpt lat="45.7555539" lon="10.9198546"><ele>593.0</ele><time>2026-04-26T09:26:08.803Z</time></trkpt><trkpt lat="45.7555646" lon="10.9197497"><ele>593.0</ele><time>2026-04-26T09:26:09.804Z</time></trkpt><trkpt lat="45.7555499" lon="10.9196575"><ele>593.0</ele><time>2026-04-26T09:26:10.806Z</time></trkpt><trkpt lat="45.7554457" lon="10.9195883"><ele>590.0</ele><time>2026-04-26T09:26:12.806Z</time></trkpt><trkpt lat="45.7553786" lon="10.9196293"><ele>587.0</ele><time>2026-04-26T09:26:13.805Z</time></trkpt><trkpt lat="45.755299" lon="10.9197436"><ele>584.0</ele><time>2026-04-26T09:26:14.805Z</time></trkpt><trkpt lat="45.755213" lon="10.9198921"><ele>581.0</ele><time>2026-04-26T09:26:15.804Z</time></trkpt><trkpt lat="45.7551141" lon="10.920088"><ele>574.0</ele><time>2026-04-26T09:26:16.806Z</time></trkpt><trkpt lat="45.7550074" lon="10.9202677"><ele>567.0</ele><time>2026-04-26T09:26:17.805Z</time></trkpt><trkpt lat="45.7549043" lon="10.9204389"><ele>560.0</ele><time>2026-04-26T09:26:18.806Z</time></trkpt><trkpt lat="45.7547553" lon="10.9205484"><ele>560.0</ele><time>2026-04-26T09:26:19.805Z</time></trkpt><trkpt lat="45.7546105" lon="10.9206625"><ele>560.0</ele><time>2026-04-26T09:26:20.804Z</time></trkpt><trkpt lat="45.754479" lon="10.9207514"><ele>560.0</ele><time>2026-04-26T09:26:21.805Z</time></trkpt><trkpt lat="45.754365" lon="10.9208203"><ele>560.0</ele><time>2026-04-26T09:26:22.806Z</time></trkpt><trkpt lat="45.7542727" lon="10.92089"><ele>557.6</ele><time>2026-04-26T09:26:23.804Z</time></trkpt><trkpt lat="45.7542119" lon="10.9209855"><ele>555.2</ele><time>2026-04-26T09:26:24.805Z</time></trkpt><trkpt lat="45.7541708" lon="10.9211132"><ele>552.8</ele><time>2026-04-26T09:26:25.804Z</time></trkpt><trkpt lat="45.7541396" lon="10.9212667"><ele>550.4</ele><time>2026-04-26T09:26:26.805Z</time></trkpt><trkpt lat="45.7540966" lon="10.9213917"><ele>548.0</ele><time>2026-04-26T09:26:27.805Z</time></trkpt><trkpt lat="45.7540304" lon="10.9214945"><ele>548.0</ele><time>2026-04-26T09:26:28.805Z</time></trkpt><trkpt lat="45.7539319" lon="10.9215626"><ele>548.0</ele><time>2026-04-26T09:26:29.805Z</time></trkpt><trkpt lat="45.7537934" lon="10.921596"><ele>548.0</ele><time>2026-04-26T09:26:30.805Z</time></trkpt><trkpt lat="45.7536423" lon="10.921601"><ele>548.0</ele><time>2026-04-26T09:26:31.805Z</time></trkpt><trkpt lat="45.7534873" lon="10.921578"><ele>544.75</ele><time>2026-04-26T09:26:32.805Z</time></trkpt><trkpt lat="45.7533404" lon="10.9215335"><ele>541.5</ele><time>2026-04-26T09:26:33.805Z</time></trkpt><trkpt lat="45.7532158" lon="10.9214778"><ele>538.25</ele><time>2026-04-26T09:26:34.805Z</time></trkpt><trkpt lat="45.7531155" lon="10.9214125"><ele>535.0</ele><time>2026-04-26T09:26:35.805Z</time></trkpt><trkpt lat="45.7530402" lon="10.9213469"><ele>535.0</ele><time>2026-04-26T09:26:36.805Z</time></trkpt><trkpt lat="45.7529852" lon="10.9212629"><ele>535.0</ele><time>2026-04-26T09:26:37.803Z</time></trkpt><trkpt lat="45.7529566" lon="10.9211686"><ele>535.0</ele><time>2026-04-26T09:26:38.806Z</time></trkpt><trkpt lat="45.7529611" lon="10.9210607"><ele>535.0</ele><time>2026-04-26T09:26:39.806Z</time></trkpt><trkpt lat="45.7530126" lon="10.920959"><ele>535.0</ele><time>2026-04-26T09:26:40.804Z</time></trkpt><trkpt lat="45.753101" lon="10.920879"><ele>535.0</ele><time>2026-04-26T09:26:41.803Z</time></trkpt><trkpt lat="45.7532236" lon="10.9208044"><ele>534.75</ele><time>2026-04-26T09:26:42.805Z</time></trkpt><trkpt lat="45.7533451" lon="10.9207282"><ele>534.5</ele><time>2026-04-26T09:26:43.804Z</time></trkpt><trkpt lat="45.7534575" lon="10.9206728"><ele>534.25</ele><time>2026-04-26T09:26:44.804Z</time></trkpt><trkpt lat="45.7535676" lon="10.9206239"><ele>534.0</ele><time>2026-04-26T09:26:45.803Z</time></trkpt><trkpt lat="45.753685" lon="10.9206266"><ele>534.0</ele><time>2026-04-26T09:26:46.805Z</time></trkpt><trkpt lat="45.7537894" lon="10.9206363"><ele>534.0</ele><time>2026-04-26T09:26:47.805Z</time></trkpt><trkpt lat="45.7538843" lon="10.9206336"><ele>534.0</ele><time>2026-04-26T09:26:48.807Z</time></trkpt><trkpt lat="45.7539615" lon="10.9205875"><ele>534.0</ele><time>2026-04-26T09:26:49.805Z</time></trkpt><trkpt lat="45.7540387" lon="10.9205179"><ele>534.0</ele><time>2026-04-26T09:26:50.805Z</time></trkpt><trkpt lat="45.7540724" lon="10.920385"><ele>534.0</ele><time>2026-04-26T09:26:51.805Z</time></trkpt><trkpt lat="45.7540909" lon="10.9202791"><ele>534.0</ele><time>2026-04-26T09:26:52.805Z</time></trkpt><trkpt lat="45.7540827" lon="10.9201814"><ele>534.0</ele><time>2026-04-26T09:26:53.804Z</time></trkpt><trkpt lat="45.7540398" lon="10.9200929"><ele>534.0</ele><time>2026-04-26T09:26:54.806Z</time></trkpt><trkpt lat="45.7539547" lon="10.9199982"><ele>534.0</ele><time>2026-04-26T09:26:55.805Z</time></trkpt><trkpt lat="45.7538621" lon="10.9199178"><ele>534.0</ele><time>2026-04-26T09:26:56.803Z</time></trkpt><trkpt lat="45.7537453" lon="10.9198785"><ele>531.25</ele><time>2026-04-26T09:26:57.804Z</time></trkpt><trkpt lat="45.7536203" lon="10.9198623"><ele>528.5</ele><time>2026-04-26T09:26:58.806Z</time></trkpt><trkpt lat="45.7534882" lon="10.9198608"><ele>525.75</ele><time>2026-04-26T09:26:59.805Z</time></trkpt><trkpt lat="45.753359" lon="10.9198684"><ele>523.0</ele><time>2026-04-26T09:27:00.806Z</time></trkpt><trkpt lat="45.7532324" lon="10.9198557"><ele>521.0</ele><time>2026-04-26T09:27:01.804Z</time></trkpt><trkpt lat="45.7531128" lon="10.9198138"><ele>519.0</ele><time>2026-04-26T09:27:02.804Z</time></trkpt><trkpt lat="45.7529891" lon="10.9197666"><ele>517.0</ele><time>2026-04-26T09:27:03.805Z</time></trkpt><trkpt lat="45.7528657" lon="10.9196729"><ele>515.0</ele><time>2026-04-26T09:27:04.805Z</time></trkpt><trkpt lat="45.7527327" lon="10.9196018"><ele>511.0</ele><time>2026-04-26T09:27:05.805Z</time></trkpt><trkpt lat="45.7526023" lon="10.9195362"><ele>507.0</ele><time>2026-04-26T09:27:06.805Z</time></trkpt><trkpt lat="45.752476" lon="10.9194711"><ele>503.0</ele><time>2026-04-26T09:27:07.806Z</time></trkpt><trkpt lat="45.7523709" lon="10.919435"><ele>499.0</ele><time>2026-04-26T09:27:08.804Z</time></trkpt><trkpt lat="45.7522864" lon="10.9193983"><ele>499.0</ele><time>2026-04-26T09:27:09.806Z</time></trkpt><trkpt lat="45.7521765" lon="10.9194232"><ele>499.0</ele><time>2026-04-26T09:27:10.804Z</time></trkpt><trkpt lat="45.7520661" lon="10.9194473"><ele>499.0</ele><time>2026-04-26T09:27:11.805Z</time></trkpt><trkpt lat="45.7519487" lon="10.9194893"><ele>499.0</ele><time>2026-04-26T09:27:12.805Z</time></trkpt><trkpt lat="45.751845" lon="10.9195332"><ele>492.0</ele><time>2026-04-26T09:27:13.804Z</time></trkpt><trkpt lat="45.7517329" lon="10.9195771"><ele>485.0</ele><time>2026-04-26T09:27:14.805Z</time></trkpt><trkpt lat="45.7516086" lon="10.9196355"><ele>478.0</ele><time>2026-04-26T09:27:15.803Z</time></trkpt><trkpt lat="45.7514911" lon="10.9196873"><ele>471.0</ele><time>2026-04-26T09:27:16.804Z</time></trkpt><trkpt lat="45.7513967" lon="10.9197245"><ele>471.0</ele><time>2026-04-26T09:27:17.804Z</time></trkpt><trkpt lat="45.7513059" lon="10.9197382"><ele>471.0</ele><time>2026-04-26T09:27:18.806Z</time></trkpt><trkpt lat="45.7512228" lon="10.9197269"><ele>471.0</ele><time>2026-04-26T09:27:19.805Z</time></trkpt><trkpt lat="45.7511421" lon="10.9196865"><ele>471.0</ele><time>2026-04-26T09:27:20.806Z</time></trkpt><trkpt lat="45.7510764" lon="10.9196051"><ele>471.0</ele><time>2026-04-26T09:27:21.805Z</time></trkpt><trkpt lat="45.7510268" lon="10.9194969"><ele>471.0</ele><time>2026-04-26T09:27:22.806Z</time></trkpt><trkpt lat="45.7509689" lon="10.9193794"><ele>472.4</ele><time>2026-04-26T09:27:23.806Z</time></trkpt><trkpt lat="45.7509088" lon="10.9192596"><ele>473.8</ele><time>2026-04-26T09:27:24.805Z</time></trkpt><trkpt lat="45.7508498" lon="10.9191437"><ele>475.19999999999993</ele><time>2026-04-26T09:27:25.805Z</time></trkpt><trkpt lat="45.7507971" lon="10.9190413"><ele>476.59999999999997</ele><time>2026-04-26T09:27:26.805Z</time></trkpt><trkpt lat="45.7507537" lon="10.9189601"><ele>478.0</ele><time>2026-04-26T09:27:27.804Z</time></trkpt><trkpt lat="45.7506862" lon="10.9188333"><ele>478.0</ele><time>2026-04-26T09:27:29.804Z</time></trkpt><trkpt lat="45.7506455" lon="10.9187616"><ele>477.99999999999994</ele><time>2026-04-26T09:27:31.805Z</time></trkpt><trkpt lat="45.750727" lon="10.9189326"><ele>477.99999999999994</ele><time>2026-04-26T09:27:45.804Z</time></trkpt><trkpt lat="45.7507873" lon="10.9190414"><ele>478.0</ele><time>2026-04-26T09:27:46.804Z</time></trkpt><trkpt lat="45.7508491" lon="10.9191522"><ele>478.0</ele><time>2026-04-26T09:27:47.805Z</time></trkpt><trkpt lat="45.7509166" lon="10.9192785"><ele>476.59999999999997</ele><time>2026-04-26T09:27:48.806Z</time></trkpt><trkpt lat="45.7509866" lon="10.9194188"><ele>475.19999999999993</ele><time>2026-04-26T09:27:49.803Z</time></trkpt><trkpt lat="45.7510513" lon="10.9195351"><ele>473.8</ele><time>2026-04-26T09:27:50.805Z</time></trkpt><trkpt lat="45.751115" lon="10.9196295"><ele>472.4</ele><time>2026-04-26T09:27:51.805Z</time></trkpt><trkpt lat="45.7511812" lon="10.9197004"><ele>471.0</ele><time>2026-04-26T09:27:52.806Z</time></trkpt><trkpt lat="45.7512604" lon="10.9197369"><ele>471.0</ele><time>2026-04-26T09:27:53.804Z</time></trkpt><trkpt lat="45.751342" lon="10.9197402"><ele>471.0</ele><time>2026-04-26T09:27:54.805Z</time></trkpt><trkpt lat="45.7514276" lon="10.9197158"><ele>471.0</ele><time>2026-04-26T09:27:55.804Z</time></trkpt><trkpt lat="45.7515212" lon="10.919682"><ele>471.0</ele><time>2026-04-26T09:27:56.804Z</time></trkpt><trkpt lat="45.7516138" lon="10.9196452"><ele>471.0</ele><time>2026-04-26T09:27:57.804Z</time></trkpt><trkpt lat="45.7516871" lon="10.919614"><ele>471.0</ele><time>2026-04-26T09:27:58.805Z</time></trkpt><trkpt lat="45.7517603" lon="10.9195805"><ele>471.00000000000006</ele><time>2026-04-26T09:27:59.805Z</time></trkpt><trkpt lat="45.751834" lon="10.9195563"><ele>471.0</ele><time>2026-04-26T09:28:00.805Z</time></trkpt><trkpt lat="45.7519008" lon="10.9195306"><ele>471.00000000000006</ele><time>2026-04-26T09:28:01.805Z</time></trkpt><trkpt lat="45.7519663" lon="10.9195106"><ele>471.00000000000006</ele><time>2026-04-26T09:28:02.805Z</time></trkpt><trkpt lat="45.7520387" lon="10.9194981"><ele>471.0</ele><time>2026-04-26T09:28:05.804Z</time></trkpt><trkpt lat="45.7521025" lon="10.9194708"><ele>471.00000000000006</ele><time>2026-04-26T09:29:00.804Z</time></trkpt><trkpt lat="45.7521642" lon="10.9193979"><ele>471.00000000000006</ele><time>2026-04-26T09:29:21.804Z</time></trkpt><trkpt lat="45.7521137" lon="10.9194629"><ele>471.0</ele><time>2026-04-26T09:30:11.804Z</time></trkpt><trkpt lat="45.7519733" lon="10.9194624"><ele>471.0</ele><time>2026-04-26T09:33:40.805Z</time></trkpt><trkpt lat="45.7518903" lon="10.919512"><ele>471.0</ele><time>2026-04-26T09:33:42.804Z</time></trkpt><trkpt lat="45.7517731" lon="10.9195653"><ele>471.0</ele><time>2026-04-26T09:33:44.803Z</time></trkpt><trkpt lat="45.7517047" lon="10.919595"><ele>471.0</ele><time>2026-04-26T09:33:45.802Z</time></trkpt><trkpt lat="45.7516334" lon="10.9196225"><ele>471.00000000000006</ele><time>2026-04-26T09:33:46.804Z</time></trkpt><trkpt lat="45.7515603" lon="10.9196505"><ele>471.0</ele><time>2026-04-26T09:33:47.803Z</time></trkpt><trkpt lat="45.7514852" lon="10.9196737"><ele>471.00000000000006</ele><time>2026-04-26T09:33:48.805Z</time></trkpt><trkpt lat="45.7514086" lon="10.9196995"><ele>471.00000000000006</ele><time>2026-04-26T09:33:49.805Z</time></trkpt><trkpt lat="45.7513438" lon="10.9197161"><ele>471.0</ele><time>2026-04-26T09:33:50.804Z</time></trkpt><trkpt lat="45.7512795" lon="10.9197212"><ele>471.00000000000006</ele><time>2026-04-26T09:33:51.804Z</time></trkpt><trkpt lat="45.7512184" lon="10.9196982"><ele>471.00000000000006</ele><time>2026-04-26T09:33:52.805Z</time></trkpt><trkpt lat="45.7511598" lon="10.9196487"><ele>471.0</ele><time>2026-04-26T09:33:53.804Z</time></trkpt><trkpt lat="45.7511015" lon="10.9195613"><ele>471.0</ele><time>2026-04-26T09:33:54.805Z</time></trkpt><trkpt lat="45.7510355" lon="10.9194465"><ele>471.0</ele><time>2026-04-26T09:33:55.804Z</time></trkpt><trkpt lat="45.7509699" lon="10.9193164"><ele>471.0</ele><time>2026-04-26T09:33:56.805Z</time></trkpt><trkpt lat="45.750896" lon="10.9191822"><ele>471.0</ele><time>2026-04-26T09:33:57.805Z</time></trkpt><trkpt lat="45.7508105" lon="10.9190458"><ele>472.75</ele><time>2026-04-26T09:33:58.804Z</time></trkpt><trkpt lat="45.7507135" lon="10.9188821"><ele>474.5</ele><time>2026-04-26T09:33:59.804Z</time></trkpt><trkpt lat="45.7506206" lon="10.9187229"><ele>476.25</ele><time>2026-04-26T09:34:00.805Z</time></trkpt><trkpt lat="45.7505358" lon="10.9185699"><ele>478.0</ele><time>2026-04-26T09:34:01.804Z</time></trkpt><trkpt lat="45.7504517" lon="10.9184308"><ele>483.5</ele><time>2026-04-26T09:34:02.803Z</time></trkpt><trkpt lat="45.7503749" lon="10.9182951"><ele>489.0</ele><time>2026-04-26T09:34:03.805Z</time></trkpt><trkpt lat="45.7503" lon="10.9181725"><ele>494.5</ele><time>2026-04-26T09:34:04.803Z</time></trkpt><trkpt lat="45.7502251" lon="10.9180578"><ele>500.0</ele><time>2026-04-26T09:34:05.804Z</time></trkpt><trkpt lat="45.7501426" lon="10.917957"><ele>492.3333333333333</ele><time>2026-04-26T09:34:06.804Z</time></trkpt><trkpt lat="45.7500638" lon="10.9178781"><ele>484.66666666666663</ele><time>2026-04-26T09:34:07.803Z</time></trkpt><trkpt lat="45.749984" lon="10.9178159"><ele>477.0</ele><time>2026-04-26T09:34:08.803Z</time></trkpt><trkpt lat="45.7499046" lon="10.9177655"><ele>469.33333333333337</ele><time>2026-04-26T09:34:09.804Z</time></trkpt><trkpt lat="45.7498238" lon="10.9177172"><ele>461.6666666666667</ele><time>2026-04-26T09:34:10.804Z</time></trkpt><trkpt lat="45.7497482" lon="10.9176745"><ele>454.0</ele><time>2026-04-26T09:34:11.804Z</time></trkpt><trkpt lat="45.7496832" lon="10.91763"><ele>454.00000000000006</ele><time>2026-04-26T09:34:12.803Z</time></trkpt><trkpt lat="45.7496232" lon="10.9175862"><ele>454.0</ele><time>2026-04-26T09:34:13.805Z</time></trkpt><trkpt lat="45.7495621" lon="10.9175633"><ele>454.0</ele><time>2026-04-26T09:34:14.804Z</time></trkpt><trkpt lat="45.7494687" lon="10.9175991"><ele>454.0</ele><time>2026-04-26T09:34:16.803Z</time></trkpt><trkpt lat="45.749451" lon="10.9177187"><ele>454.00000000000006</ele><time>2026-04-26T09:34:18.805Z</time></trkpt><trkpt lat="45.7495287" lon="10.9178228"><ele>454.0</ele><time>2026-04-26T09:34:20.804Z</time></trkpt><trkpt lat="45.7496639" lon="10.9178734"><ele>454.0</ele><time>2026-04-26T09:34:22.803Z</time></trkpt><trkpt lat="45.7497365" lon="10.917909"><ele>454.0</ele><time>2026-04-26T09:34:23.803Z</time></trkpt><trkpt lat="45.749817" lon="10.9179577"><ele>454.0</ele><time>2026-04-26T09:34:24.804Z</time></trkpt><trkpt lat="45.7499003" lon="10.9180246"><ele>454.0</ele><time>2026-04-26T09:34:25.804Z</time></trkpt><trkpt lat="45.7499745" lon="10.918111"><ele>454.0</ele><time>2026-04-26T09:34:26.804Z</time></trkpt><trkpt lat="45.7500402" lon="10.9182334"><ele>454.0</ele><time>2026-04-26T09:34:27.804Z</time></trkpt><trkpt lat="45.7500948" lon="10.9183947"><ele>454.0</ele><time>2026-04-26T09:34:28.804Z</time></trkpt><trkpt lat="45.7501518" lon="10.9185858"><ele>454.0</ele><time>2026-04-26T09:34:29.802Z</time></trkpt><trkpt lat="45.7502222" lon="10.9188016"><ele>454.0</ele><time>2026-04-26T09:34:30.805Z</time></trkpt><trkpt lat="45.7503064" lon="10.9190334"><ele>452.6666666666667</ele><time>2026-04-26T09:34:31.804Z</time></trkpt><trkpt lat="45.7503867" lon="10.9192579"><ele>451.33333333333337</ele><time>2026-04-26T09:34:32.804Z</time></trkpt><trkpt lat="45.7504526" lon="10.9194581"><ele>450.0</ele><time>2026-04-26T09:34:33.804Z</time></trkpt><trkpt lat="45.7505037" lon="10.9196321"><ele>450.0</ele><time>2026-04-26T09:34:34.803Z</time></trkpt><trkpt lat="45.7505419" lon="10.9197822"><ele>450.0</ele><time>2026-04-26T09:34:35.802Z</time></trkpt><trkpt lat="45.7505811" lon="10.9199097"><ele>450.0</ele><time>2026-04-26T09:34:36.803Z</time></trkpt><trkpt lat="45.7506442" lon="10.9200084"><ele>450.0</ele><time>2026-04-26T09:34:37.804Z</time></trkpt><trkpt lat="45.7507339" lon="10.9201009"><ele>450.0</ele><time>2026-04-26T09:34:38.804Z</time></trkpt><trkpt lat="45.7508391" lon="10.9201766"><ele>450.0</ele><time>2026-04-26T09:34:39.802Z</time></trkpt><trkpt lat="45.7509324" lon="10.9202305"><ele>450.0</ele><time>2026-04-26T09:34:40.803Z</time></trkpt><trkpt lat="45.7510071" lon="10.9202737"><ele>450.0</ele><time>2026-04-26T09:34:41.804Z</time></trkpt><trkpt lat="45.751065" lon="10.9203179"><ele>450.0</ele><time>2026-04-26T09:34:42.803Z</time></trkpt><trkpt lat="45.7511276" lon="10.9204232"><ele>450.0</ele><time>2026-04-26T09:34:44.805Z</time></trkpt><trkpt lat="45.7510729" lon="10.9205192"><ele>450.0</ele><time>2026-04-26T09:34:46.804Z</time></trkpt><trkpt lat="45.7509328" lon="10.9204579"><ele>441.75</ele><time>2026-04-26T09:34:48.804Z</time></trkpt><trkpt lat="45.7508159" lon="10.9203714"><ele>433.5</ele><time>2026-04-26T09:34:49.804Z</time></trkpt><trkpt lat="45.7506904" lon="10.9202803"><ele>425.25</ele><time>2026-04-26T09:34:50.803Z</time></trkpt><trkpt lat="45.7505499" lon="10.9201818"><ele>417.0</ele><time>2026-04-26T09:34:51.804Z</time></trkpt><trkpt lat="45.7504242" lon="10.9200831"><ele>413.75</ele><time>2026-04-26T09:34:52.802Z</time></trkpt><trkpt lat="45.7503149" lon="10.919975"><ele>410.5</ele><time>2026-04-26T09:34:53.805Z</time></trkpt><trkpt lat="45.7502252" lon="10.9198405"><ele>407.25</ele><time>2026-04-26T09:34:54.804Z</time></trkpt><trkpt lat="45.7501346" lon="10.9196674"><ele>404.0</ele><time>2026-04-26T09:34:55.803Z</time></trkpt><trkpt lat="45.7500313" lon="10.9194977"><ele>404.0</ele><time>2026-04-26T09:34:56.803Z</time></trkpt><trkpt lat="45.7499183" lon="10.9193486"><ele>404.0</ele><time>2026-04-26T09:34:57.803Z</time></trkpt><trkpt lat="45.7498013" lon="10.9192325"><ele>404.0</ele><time>2026-04-26T09:34:58.804Z</time></trkpt><trkpt lat="45.7496721" lon="10.9191323"><ele>404.0</ele><time>2026-04-26T09:34:59.805Z</time></trkpt><trkpt lat="45.7495301" lon="10.9190293"><ele>399.3333333333333</ele><time>2026-04-26T09:35:00.803Z</time></trkpt><trkpt lat="45.7493889" lon="10.9189142"><ele>394.66666666666663</ele><time>2026-04-26T09:35:01.802Z</time></trkpt><trkpt lat="45.7492473" lon="10.9188074"><ele>390.0</ele><time>2026-04-26T09:35:02.805Z</time></trkpt><trkpt lat="45.749114" lon="10.9187174"><ele>390.0</ele><time>2026-04-26T09:35:03.804Z</time></trkpt><trkpt lat="45.7489785" lon="10.9186665"><ele>390.0</ele><time>2026-04-26T09:35:04.803Z</time></trkpt><trkpt lat="45.7488472" lon="10.9186232"><ele>390.0</ele><time>2026-04-26T09:35:05.804Z</time></trkpt><trkpt lat="45.7487297" lon="10.9185944"><ele>390.0</ele><time>2026-04-26T09:35:06.804Z</time></trkpt><trkpt lat="45.7486029" lon="10.9185651"><ele>390.2</ele><time>2026-04-26T09:35:07.803Z</time></trkpt><trkpt lat="45.7484895" lon="10.9185412"><ele>390.4</ele><time>2026-04-26T09:35:08.804Z</time></trkpt><trkpt lat="45.7483939" lon="10.9184919"><ele>390.6</ele><time>2026-04-26T09:35:09.804Z</time></trkpt><trkpt lat="45.7483043" lon="10.9184224"><ele>390.8</ele><time>2026-04-26T09:35:10.804Z</time></trkpt><trkpt lat="45.7482313" lon="10.9183339"><ele>391.0</ele><time>2026-04-26T09:35:11.805Z</time></trkpt><trkpt lat="45.7481633" lon="10.9182135"><ele>391.0</ele><time>2026-04-26T09:35:12.804Z</time></trkpt><trkpt lat="45.7481015" lon="10.9180695"><ele>391.0</ele><time>2026-04-26T09:35:13.804Z</time></trkpt><trkpt lat="45.7480509" lon="10.9179333"><ele>391.0</ele><time>2026-04-26T09:35:14.803Z</time></trkpt><trkpt lat="45.7480241" lon="10.9178088"><ele>391.0</ele><time>2026-04-26T09:35:15.803Z</time></trkpt><trkpt lat="45.7480251" lon="10.9176922"><ele>391.0</ele><time>2026-04-26T09:35:16.805Z</time></trkpt><trkpt lat="45.7480443" lon="10.9175685"><ele>393.5</ele><time>2026-04-26T09:35:17.804Z</time></trkpt><trkpt lat="45.7480955" lon="10.9174134"><ele>396.0</ele><time>2026-04-26T09:35:18.803Z</time></trkpt><trkpt lat="45.7481524" lon="10.9172287"><ele>398.5</ele><time>2026-04-26T09:35:19.803Z</time></trkpt><trkpt lat="45.7482285" lon="10.9170203"><ele>401.0</ele><time>2026-04-26T09:35:20.803Z</time></trkpt><trkpt lat="45.7483134" lon="10.9168036"><ele>392.3333333333333</ele><time>2026-04-26T09:35:21.804Z</time></trkpt><trkpt lat="45.7483963" lon="10.9165855"><ele>383.66666666666663</ele><time>2026-04-26T09:35:22.803Z</time></trkpt><trkpt lat="45.7484734" lon="10.9163729"><ele>375.0</ele><time>2026-04-26T09:35:23.804Z</time></trkpt><trkpt lat="45.7485437" lon="10.9161667"><ele>386.0</ele><time>2026-04-26T09:35:24.802Z</time></trkpt><trkpt lat="45.7486001" lon="10.9159644"><ele>397.0</ele><time>2026-04-26T09:35:25.805Z</time></trkpt><trkpt lat="45.7486375" lon="10.9157581"><ele>408.0</ele><time>2026-04-26T09:35:26.803Z</time></trkpt><trkpt lat="45.7486587" lon="10.9155411"><ele>408.0</ele><time>2026-04-26T09:35:27.805Z</time></trkpt><trkpt lat="45.7486791" lon="10.9153102"><ele>408.0</ele><time>2026-04-26T09:35:28.804Z</time></trkpt><trkpt lat="45.7486854" lon="10.9150571"><ele>408.0</ele><time>2026-04-26T09:35:29.802Z</time></trkpt><trkpt lat="45.748696" lon="10.9148123"><ele>403.33333333333337</ele><time>2026-04-26T09:35:30.804Z</time></trkpt><trkpt lat="45.7487114" lon="10.9145829"><ele>398.6666666666667</ele><time>2026-04-26T09:35:31.804Z</time></trkpt><trkpt lat="45.74872" lon="10.9143639"><ele>394.0</ele><time>2026-04-26T09:35:32.804Z</time></trkpt><trkpt lat="45.7487119" lon="10.9141534"><ele>394.0</ele><time>2026-04-26T09:35:33.803Z</time></trkpt><trkpt lat="45.7486908" lon="10.913952"><ele>394.0</ele><time>2026-04-26T09:35:34.804Z</time></trkpt><trkpt lat="45.7486689" lon="10.9137768"><ele>394.0</ele><time>2026-04-26T09:35:35.804Z</time></trkpt><trkpt lat="45.7486434" lon="10.9136096"><ele>394.0</ele><time>2026-04-26T09:35:36.804Z</time></trkpt><trkpt lat="45.7486511" lon="10.9134638"><ele>393.4</ele><time>2026-04-26T09:35:37.803Z</time></trkpt><trkpt lat="45.7486671" lon="10.9133261"><ele>392.79999999999995</ele><time>2026-04-26T09:35:38.803Z</time></trkpt><trkpt lat="45.7486775" lon="10.913203"><ele>392.20000000000005</ele><time>2026-04-26T09:35:39.803Z</time></trkpt><trkpt lat="45.7486535" lon="10.9130472"><ele>391.6</ele><time>2026-04-26T09:35:41.804Z</time></trkpt><trkpt lat="45.7485676" lon="10.9130286"><ele>391.0</ele><time>2026-04-26T09:35:43.804Z</time></trkpt><trkpt lat="45.7485233" lon="10.9131955"><ele>391.75</ele><time>2026-04-26T09:35:45.804Z</time></trkpt><trkpt lat="45.7485277" lon="10.9133437"><ele>392.5</ele><time>2026-04-26T09:35:46.804Z</time></trkpt><trkpt lat="45.7485294" lon="10.9135231"><ele>393.25</ele><time>2026-04-26T09:35:47.803Z</time></trkpt><trkpt lat="45.7485384" lon="10.9137285"><ele>394.0</ele><time>2026-04-26T09:35:48.804Z</time></trkpt><trkpt lat="45.7485479" lon="10.9139268"><ele>394.0</ele><time>2026-04-26T09:35:49.804Z</time></trkpt><trkpt lat="45.7485446" lon="10.9141143"><ele>394.0</ele><time>2026-04-26T09:35:50.804Z</time></trkpt><trkpt lat="45.7485101" lon="10.9143097"><ele>394.0</ele><time>2026-04-26T09:35:51.803Z</time></trkpt><trkpt lat="45.7484673" lon="10.914526"><ele>394.0</ele><time>2026-04-26T09:35:52.804Z</time></trkpt><trkpt lat="45.748418" lon="10.914735"><ele>384.75</ele><time>2026-04-26T09:35:53.804Z</time></trkpt><trkpt lat="45.7483481" lon="10.9149276"><ele>375.5</ele><time>2026-04-26T09:35:54.802Z</time></trkpt><trkpt lat="45.7482567" lon="10.9150913"><ele>366.25</ele><time>2026-04-26T09:35:55.803Z</time></trkpt><trkpt lat="45.7481679" lon="10.9152553"><ele>357.0</ele><time>2026-04-26T09:35:56.803Z</time></trkpt><trkpt lat="45.7480909" lon="10.9154266"><ele>357.0</ele><time>2026-04-26T09:35:57.802Z</time></trkpt><trkpt lat="45.7480218" lon="10.9155908"><ele>357.0</ele><time>2026-04-26T09:35:58.804Z</time></trkpt><trkpt lat="45.7479478" lon="10.9157611"><ele>357.0</ele><time>2026-04-26T09:35:59.804Z</time></trkpt><trkpt lat="45.7478675" lon="10.9159318"><ele>357.0</ele><time>2026-04-26T09:36:00.803Z</time></trkpt><trkpt lat="45.7477777" lon="10.9160873"><ele>349.20000000000005</ele><time>2026-04-26T09:36:01.804Z</time></trkpt><trkpt lat="45.7476852" lon="10.9162193"><ele>341.40000000000003</ele><time>2026-04-26T09:36:02.803Z</time></trkpt><trkpt lat="45.7476063" lon="10.916337"><ele>333.6</ele><time>2026-04-26T09:36:03.804Z</time></trkpt><trkpt lat="45.7475433" lon="10.916455"><ele>325.8</ele><time>2026-04-26T09:36:04.803Z</time></trkpt><trkpt lat="45.7475083" lon="10.9165622"><ele>318.0</ele><time>2026-04-26T09:36:05.803Z</time></trkpt><trkpt lat="45.7474939" lon="10.9166625"><ele>319.8333333333333</ele><time>2026-04-26T09:36:06.803Z</time></trkpt><trkpt lat="45.7475042" lon="10.9167549"><ele>321.6666666666667</ele><time>2026-04-26T09:36:07.802Z</time></trkpt><trkpt lat="45.747533" lon="10.9168996"><ele>323.5</ele><time>2026-04-26T09:36:09.803Z</time></trkpt><trkpt lat="45.7474914" lon="10.9169995"><ele>325.33333333333337</ele><time>2026-04-26T09:36:11.803Z</time></trkpt><trkpt lat="45.7474281" lon="10.9169815"><ele>327.1666666666667</ele><time>2026-04-26T09:36:13.805Z</time></trkpt><trkpt lat="45.7474118" lon="10.9168683"><ele>329.0</ele><time>2026-04-26T09:36:14.804Z</time></trkpt><trkpt lat="45.7474095" lon="10.9167408"><ele>326.25</ele><time>2026-04-26T09:36:15.802Z</time></trkpt><trkpt lat="45.747429" lon="10.9165808"><ele>323.5</ele><time>2026-04-26T09:36:16.804Z</time></trkpt><trkpt lat="45.7474699" lon="10.9163895"><ele>320.75</ele><time>2026-04-26T09:36:17.802Z</time></trkpt><trkpt lat="45.7475294" lon="10.9161711"><ele>318.0</ele><time>2026-04-26T09:36:18.803Z</time></trkpt><trkpt lat="45.7475894" lon="10.9159505"><ele>315.3333333333333</ele><time>2026-04-26T09:36:19.803Z</time></trkpt><trkpt lat="45.7476428" lon="10.9157255"><ele>312.66666666666663</ele><time>2026-04-26T09:36:20.803Z</time></trkpt><trkpt lat="45.747698" lon="10.9155266"><ele>310.0</ele><time>2026-04-26T09:36:21.804Z</time></trkpt><trkpt lat="45.747747" lon="10.9153452"><ele>316.4</ele><time>2026-04-26T09:36:22.804Z</time></trkpt><trkpt lat="45.7477927" lon="10.9151808"><ele>322.8</ele><time>2026-04-26T09:36:23.804Z</time></trkpt><trkpt lat="45.7478283" lon="10.9150308"><ele>329.20000000000005</ele><time>2026-04-26T09:36:24.803Z</time></trkpt><trkpt lat="45.7478596" lon="10.9149036"><ele>335.6</ele><time>2026-04-26T09:36:25.803Z</time></trkpt><trkpt lat="45.7478837" lon="10.9147865"><ele>342.0</ele><time>2026-04-26T09:36:26.804Z</time></trkpt><trkpt lat="45.7478866" lon="10.9146856"><ele>342.0</ele><time>2026-04-26T09:36:27.803Z</time></trkpt><trkpt lat="45.7478412" lon="10.9145312"><ele>342.0</ele><time>2026-04-26T09:36:29.803Z</time></trkpt><trkpt lat="45.7477904" lon="10.9144738"><ele>342.0</ele><time>2026-04-26T09:36:30.802Z</time></trkpt><trkpt lat="45.747728" lon="10.9144508"><ele>342.0</ele><time>2026-04-26T09:36:31.802Z</time></trkpt><trkpt lat="45.7476592" lon="10.9144622"><ele>342.0</ele><time>2026-04-26T09:36:32.805Z</time></trkpt><trkpt lat="45.7475828" lon="10.9145119"><ele>342.0</ele><time>2026-04-26T09:36:33.805Z</time></trkpt><trkpt lat="45.7474978" lon="10.9145931"><ele>334.0</ele><time>2026-04-26T09:36:34.802Z</time></trkpt><trkpt lat="45.7474183" lon="10.9146972"><ele>326.0</ele><time>2026-04-26T09:36:35.804Z</time></trkpt><trkpt lat="45.7473454" lon="10.9148352"><ele>318.0</ele><time>2026-04-26T09:36:36.803Z</time></trkpt><trkpt lat="45.7472902" lon="10.9150033"><ele>310.0</ele><time>2026-04-26T09:36:37.802Z</time></trkpt><trkpt lat="45.7472397" lon="10.9151669"><ele>310.0</ele><time>2026-04-26T09:36:38.803Z</time></trkpt><trkpt lat="45.7471773" lon="10.915325"><ele>310.0</ele><time>2026-04-26T09:36:39.804Z</time></trkpt><trkpt lat="45.7471015" lon="10.9154745"><ele>310.0</ele><time>2026-04-26T09:36:40.802Z</time></trkpt><trkpt lat="45.7470178" lon="10.915611"><ele>310.0</ele><time>2026-04-26T09:36:41.803Z</time></trkpt><trkpt lat="45.7469362" lon="10.9157407"><ele>308.2</ele><time>2026-04-26T09:36:42.803Z</time></trkpt><trkpt lat="45.746854" lon="10.915875"><ele>306.4</ele><time>2026-04-26T09:36:43.803Z</time></trkpt><trkpt lat="45.7467778" lon="10.9159821"><ele>304.6</ele><time>2026-04-26T09:36:44.804Z</time></trkpt><trkpt lat="45.7466909" lon="10.9160631"><ele>302.8</ele><time>2026-04-26T09:36:45.803Z</time></trkpt><trkpt lat="45.7465879" lon="10.9161246"><ele>301.0</ele><time>2026-04-26T09:36:46.804Z</time></trkpt><trkpt lat="45.7464691" lon="10.9161809"><ele>297.75</ele><time>2026-04-26T09:36:47.804Z</time></trkpt><trkpt lat="45.7463335" lon="10.9162512"><ele>294.5</ele><time>2026-04-26T09:36:48.804Z</time></trkpt><trkpt lat="45.7462085" lon="10.9163247"><ele>291.25</ele><time>2026-04-26T09:36:49.802Z</time></trkpt><trkpt lat="45.7460869" lon="10.9163962"><ele>288.0</ele><time>2026-04-26T09:36:50.804Z</time></trkpt><trkpt lat="45.7459717" lon="10.9164386"><ele>288.0</ele><time>2026-04-26T09:36:51.802Z</time></trkpt><trkpt lat="45.7458605" lon="10.9164795"><ele>288.0</ele><time>2026-04-26T09:36:52.803Z</time></trkpt><trkpt lat="45.7457461" lon="10.9165218"><ele>288.0</ele><time>2026-04-26T09:36:53.803Z</time></trkpt><trkpt lat="45.7456313" lon="10.9165727"><ele>288.0</ele><time>2026-04-26T09:36:54.804Z</time></trkpt><trkpt lat="45.7455202" lon="10.9166476"><ele>288.0</ele><time>2026-04-26T09:36:55.804Z</time></trkpt><trkpt lat="45.7454281" lon="10.9167325"><ele>288.0</ele><time>2026-04-26T09:36:56.803Z</time></trkpt><trkpt lat="45.7453504" lon="10.9168379"><ele>288.0</ele><time>2026-04-26T09:36:57.803Z</time></trkpt><trkpt lat="45.7452772" lon="10.9169331"><ele>288.0</ele><time>2026-04-26T09:36:58.804Z</time></trkpt><trkpt lat="45.7451937" lon="10.9170203"><ele>288.0</ele><time>2026-04-26T09:36:59.803Z</time></trkpt><trkpt lat="45.7450931" lon="10.9171104"><ele>285.25</ele><time>2026-04-26T09:37:00.803Z</time></trkpt><trkpt lat="45.7449764" lon="10.9172038"><ele>282.5</ele><time>2026-04-26T09:37:01.803Z</time></trkpt><trkpt lat="45.7448554" lon="10.9172959"><ele>279.75</ele><time>2026-04-26T09:37:02.803Z</time></trkpt><trkpt lat="45.7447338" lon="10.9173897"><ele>277.0</ele><time>2026-04-26T09:37:03.803Z</time></trkpt><trkpt lat="45.7446161" lon="10.917481"><ele>277.0</ele><time>2026-04-26T09:37:04.803Z</time></trkpt><trkpt lat="45.7445037" lon="10.9175647"><ele>277.0</ele><time>2026-04-26T09:37:05.804Z</time></trkpt><trkpt lat="45.7444068" lon="10.9176525"><ele>277.0</ele><time>2026-04-26T09:37:06.802Z</time></trkpt><trkpt lat="45.7443246" lon="10.9177574"><ele>277.0</ele><time>2026-04-26T09:37:07.804Z</time></trkpt><trkpt lat="45.74425" lon="10.9178727"><ele>273.2</ele><time>2026-04-26T09:37:08.802Z</time></trkpt><trkpt lat="45.7441785" lon="10.9179858"><ele>269.4</ele><time>2026-04-26T09:37:09.804Z</time></trkpt><trkpt lat="45.7441027" lon="10.9180892"><ele>265.6</ele><time>2026-04-26T09:37:10.804Z</time></trkpt><trkpt lat="45.7440222" lon="10.9181795"><ele>261.8</ele><time>2026-04-26T09:37:11.802Z</time></trkpt><trkpt lat="45.7439294" lon="10.9182574"><ele>258.0</ele><time>2026-04-26T09:37:12.804Z</time></trkpt><trkpt lat="45.7438206" lon="10.9183219"><ele>258.0</ele><time>2026-04-26T09:37:13.804Z</time></trkpt><trkpt lat="45.7437" lon="10.9183795"><ele>258.0</ele><time>2026-04-26T09:37:14.804Z</time></trkpt><trkpt lat="45.7435655" lon="10.9184211"><ele>258.0</ele><time>2026-04-26T09:37:15.804Z</time></trkpt><trkpt lat="45.7434311" lon="10.9184637"><ele>258.0</ele><time>2026-04-26T09:37:16.804Z</time></trkpt><trkpt lat="45.7432992" lon="10.9185123"><ele>257.0</ele><time>2026-04-26T09:37:17.803Z</time></trkpt><trkpt lat="45.7431786" lon="10.9185805"><ele>256.0</ele><time>2026-04-26T09:37:18.803Z</time></trkpt><trkpt lat="45.7430664" lon="10.9186696"><ele>255.0</ele><time>2026-04-26T09:37:19.803Z</time></trkpt><trkpt lat="45.7429527" lon="10.9187658"><ele>254.0</ele><time>2026-04-26T09:37:20.802Z</time></trkpt><trkpt lat="45.7428417" lon="10.9188675"><ele>254.0</ele><time>2026-04-26T09:37:21.802Z</time></trkpt><trkpt lat="45.7427281" lon="10.9189676"><ele>254.0</ele><time>2026-04-26T09:37:22.803Z</time></trkpt><trkpt lat="45.7426151" lon="10.9190667"><ele>254.0</ele><time>2026-04-26T09:37:23.802Z</time></trkpt><trkpt lat="45.742502" lon="10.9191483"><ele>254.0</ele><time>2026-04-26T09:37:24.803Z</time></trkpt><trkpt lat="45.7423917" lon="10.9192104"><ele>252.75</ele><time>2026-04-26T09:37:25.803Z</time></trkpt><trkpt lat="45.7422766" lon="10.9192485"><ele>251.5</ele><time>2026-04-26T09:37:26.803Z</time></trkpt><trkpt lat="45.7421515" lon="10.9192765"><ele>250.25</ele><time>2026-04-26T09:37:27.804Z</time></trkpt><trkpt lat="45.7420179" lon="10.9193102"><ele>249.0</ele><time>2026-04-26T09:37:28.803Z</time></trkpt><trkpt lat="45.7418865" lon="10.9193213"><ele>245.5</ele><time>2026-04-26T09:37:29.803Z</time></trkpt><trkpt lat="45.7417616" lon="10.9193417"><ele>242.0</ele><time>2026-04-26T09:37:30.804Z</time></trkpt><trkpt lat="45.7416333" lon="10.9193957"><ele>238.5</ele><time>2026-04-26T09:37:31.803Z</time></trkpt><trkpt lat="45.7414969" lon="10.9194811"><ele>235.0</ele><time>2026-04-26T09:37:32.804Z</time></trkpt><trkpt lat="45.7413613" lon="10.9195835"><ele>235.0</ele><time>2026-04-26T09:37:33.803Z</time></trkpt><trkpt lat="45.741233" lon="10.9196903"><ele>235.0</ele><time>2026-04-26T09:37:34.804Z</time></trkpt><trkpt lat="45.7411111" lon="10.9198036"><ele>235.0</ele><time>2026-04-26T09:37:35.803Z</time></trkpt><trkpt lat="45.740996" lon="10.9199309"><ele>235.0</ele><time>2026-04-26T09:37:36.803Z</time></trkpt><trkpt lat="45.740883" lon="10.9200619"><ele>232.5</ele><time>2026-04-26T09:37:37.803Z</time></trkpt><trkpt lat="45.7407876" lon="10.9201964"><ele>230.0</ele><time>2026-04-26T09:37:38.804Z</time></trkpt><trkpt lat="45.7406968" lon="10.9203336"><ele>227.5</ele><time>2026-04-26T09:37:39.802Z</time></trkpt><trkpt lat="45.7406062" lon="10.9204624"><ele>225.0</ele><time>2026-04-26T09:37:40.804Z</time></trkpt><trkpt lat="45.7405125" lon="10.9205721"><ele>225.0</ele><time>2026-04-26T09:37:41.803Z</time></trkpt><trkpt lat="45.7404214" lon="10.9206563"><ele>225.0</ele><time>2026-04-26T09:37:42.803Z</time></trkpt><trkpt lat="45.7403138" lon="10.9207237"><ele>225.0</ele><time>2026-04-26T09:37:43.802Z</time></trkpt><trkpt lat="45.7401941" lon="10.9207905"><ele>225.0</ele><time>2026-04-26T09:37:44.803Z</time></trkpt><trkpt lat="45.7400626" lon="10.9208762"><ele>223.25</ele><time>2026-04-26T09:37:45.803Z</time></trkpt><trkpt lat="45.7399326" lon="10.9209627"><ele>221.5</ele><time>2026-04-26T09:37:46.804Z</time></trkpt><trkpt lat="45.7398069" lon="10.9210385"><ele>219.75</ele><time>2026-04-26T09:37:47.803Z</time></trkpt><trkpt lat="45.7396896" lon="10.9210951"><ele>218.0</ele><time>2026-04-26T09:37:48.802Z</time></trkpt><trkpt lat="45.7395683" lon="10.9211273"><ele>218.0</ele><time>2026-04-26T09:37:49.802Z</time></trkpt><trkpt lat="45.7394416" lon="10.9211535"><ele>218.0</ele><time>2026-04-26T09:37:50.803Z</time></trkpt><trkpt lat="45.739308" lon="10.9211733"><ele>218.0</ele><time>2026-04-26T09:37:51.804Z</time></trkpt><trkpt lat="45.7391795" lon="10.9211607"><ele>218.0</ele><time>2026-04-26T09:37:52.802Z</time></trkpt><trkpt lat="45.739058" lon="10.9211737"><ele>217.25</ele><time>2026-04-26T09:37:53.803Z</time></trkpt><trkpt lat="45.7389475" lon="10.9212082"><ele>216.5</ele><time>2026-04-26T09:37:54.804Z</time></trkpt><trkpt lat="45.7388413" lon="10.9212577"><ele>215.75</ele><time>2026-04-26T09:37:55.803Z</time></trkpt><trkpt lat="45.7387317" lon="10.9213207"><ele>215.0</ele><time>2026-04-26T09:37:56.802Z</time></trkpt><trkpt lat="45.7386065" lon="10.9214156"><ele>216.25</ele><time>2026-04-26T09:37:57.803Z</time></trkpt><trkpt lat="45.7384801" lon="10.9215073"><ele>217.5</ele><time>2026-04-26T09:37:58.804Z</time></trkpt><trkpt lat="45.7383612" lon="10.921581"><ele>218.75</ele><time>2026-04-26T09:37:59.803Z</time></trkpt><trkpt lat="45.7382506" lon="10.9216525"><ele>220.0</ele><time>2026-04-26T09:38:00.802Z</time></trkpt><trkpt lat="45.7381429" lon="10.9217232"><ele>216.25</ele><time>2026-04-26T09:38:01.803Z</time></trkpt><trkpt lat="45.7380417" lon="10.9218054"><ele>212.5</ele><time>2026-04-26T09:38:02.803Z</time></trkpt><trkpt lat="45.7379397" lon="10.9219017"><ele>208.75</ele><time>2026-04-26T09:38:03.804Z</time></trkpt><trkpt lat="45.7378461" lon="10.9220081"><ele>205.0</ele><time>2026-04-26T09:38:04.803Z</time></trkpt><trkpt lat="45.7377641" lon="10.922119"><ele>203.0</ele><time>2026-04-26T09:38:05.803Z</time></trkpt><trkpt lat="45.7376848" lon="10.9222533"><ele>201.0</ele><time>2026-04-26T09:38:06.803Z</time></trkpt><trkpt lat="45.737597" lon="10.9223971"><ele>199.0</ele><time>2026-04-26T09:38:07.804Z</time></trkpt><trkpt lat="45.7375075" lon="10.9225485"><ele>197.0</ele><time>2026-04-26T09:38:08.803Z</time></trkpt><trkpt lat="45.7374209" lon="10.9227041"><ele>197.0</ele><time>2026-04-26T09:38:09.804Z</time></trkpt><trkpt lat="45.7373394" lon="10.9228544"><ele>197.0</ele><time>2026-04-26T09:38:10.803Z</time></trkpt><trkpt lat="45.7372652" lon="10.9229945"><ele>197.0</ele><time>2026-04-26T09:38:11.803Z</time></trkpt><trkpt lat="45.7371822" lon="10.9231461"><ele>197.0</ele><time>2026-04-26T09:38:12.802Z</time></trkpt><trkpt lat="45.7370893" lon="10.9233026"><ele>197.75</ele><time>2026-04-26T09:38:13.803Z</time></trkpt><trkpt lat="45.73699" lon="10.923464"><ele>198.5</ele><time>2026-04-26T09:38:14.804Z</time></trkpt><trkpt lat="45.7368912" lon="10.9236221"><ele>199.25</ele><time>2026-04-26T09:38:15.804Z</time></trkpt><trkpt lat="45.7367966" lon="10.9237682"><ele>200.0</ele><time>2026-04-26T09:38:16.802Z</time></trkpt><trkpt lat="45.7367005" lon="10.9239129"><ele>200.0</ele><time>2026-04-26T09:38:17.803Z</time></trkpt><trkpt lat="45.7366034" lon="10.924049"><ele>200.0</ele><time>2026-04-26T09:38:18.802Z</time></trkpt><trkpt lat="45.7365031" lon="10.9241779"><ele>200.0</ele><time>2026-04-26T09:38:19.803Z</time></trkpt><trkpt lat="45.736406" lon="10.9243058"><ele>200.0</ele><time>2026-04-26T09:38:20.803Z</time></trkpt><trkpt lat="45.7363178" lon="10.924448"><ele>198.25</ele><time>2026-04-26T09:38:21.804Z</time></trkpt><trkpt lat="45.7362351" lon="10.9245865"><ele>196.5</ele><time>2026-04-26T09:38:22.804Z</time></trkpt><trkpt lat="45.7361487" lon="10.924724"><ele>194.75</ele><time>2026-04-26T09:38:23.803Z</time></trkpt><trkpt lat="45.736057" lon="10.9248666"><ele>193.0</ele><time>2026-04-26T09:38:24.804Z</time></trkpt><trkpt lat="45.7359687" lon="10.925018"><ele>192.0</ele><time>2026-04-26T09:38:25.804Z</time></trkpt><trkpt lat="45.7358777" lon="10.9251774"><ele>191.0</ele><time>2026-04-26T09:38:26.804Z</time></trkpt><trkpt lat="45.7357867" lon="10.925326"><ele>190.0</ele><time>2026-04-26T09:38:27.802Z</time></trkpt><trkpt lat="45.7356974" lon="10.9254663"><ele>189.0</ele><time>2026-04-26T09:38:28.803Z</time></trkpt><trkpt lat="45.7356111" lon="10.9256052"><ele>189.0</ele><time>2026-04-26T09:38:29.803Z</time></trkpt><trkpt lat="45.7355312" lon="10.9257432"><ele>189.0</ele><time>2026-04-26T09:38:30.803Z</time></trkpt><trkpt lat="45.735452" lon="10.9258865"><ele>189.0</ele><time>2026-04-26T09:38:31.803Z</time></trkpt><trkpt lat="45.7353781" lon="10.9260254"><ele>189.0</ele><time>2026-04-26T09:38:32.803Z</time></trkpt><trkpt lat="45.7353041" lon="10.9261548"><ele>188.39999999999998</ele><time>2026-04-26T09:38:33.801Z</time></trkpt><trkpt lat="45.735225" lon="10.9262708"><ele>187.8</ele><time>2026-04-26T09:38:34.803Z</time></trkpt><trkpt lat="45.7351514" lon="10.9263755"><ele>187.2</ele><time>2026-04-26T09:38:35.802Z</time></trkpt><trkpt lat="45.7350723" lon="10.9264705"><ele>186.60000000000002</ele><time>2026-04-26T09:38:36.804Z</time></trkpt><trkpt lat="45.7349965" lon="10.9265503"><ele>186.0</ele><time>2026-04-26T09:38:37.804Z</time></trkpt><trkpt lat="45.7349163" lon="10.9266326"><ele>186.0</ele><time>2026-04-26T09:38:38.804Z</time></trkpt><trkpt lat="45.7348291" lon="10.926707"><ele>186.0</ele><time>2026-04-26T09:38:39.804Z</time></trkpt><trkpt lat="45.7347349" lon="10.926779"><ele>186.0</ele><time>2026-04-26T09:38:40.802Z</time></trkpt><trkpt lat="45.7346407" lon="10.9268346"><ele>186.0</ele><time>2026-04-26T09:38:41.803Z</time></trkpt><trkpt lat="45.7345425" lon="10.9268721"><ele>186.0</ele><time>2026-04-26T09:38:42.803Z</time></trkpt><trkpt lat="45.7344397" lon="10.9269002"><ele>184.0</ele><time>2026-04-26T09:38:43.804Z</time></trkpt><trkpt lat="45.7343416" lon="10.9269341"><ele>182.0</ele><time>2026-04-26T09:38:44.803Z</time></trkpt><trkpt lat="45.73424" lon="10.926986"><ele>180.0</ele><time>2026-04-26T09:38:45.802Z</time></trkpt><trkpt lat="45.734132" lon="10.9270507"><ele>178.0</ele><time>2026-04-26T09:38:46.802Z</time></trkpt><trkpt lat="45.7340244" lon="10.9271365"><ele>176.0</ele><time>2026-04-26T09:38:47.803Z</time></trkpt><trkpt lat="45.7339088" lon="10.9272433"><ele>176.0</ele><time>2026-04-26T09:38:48.803Z</time></trkpt><trkpt lat="45.7337951" lon="10.9273573"><ele>176.0</ele><time>2026-04-26T09:38:49.804Z</time></trkpt><trkpt lat="45.7336855" lon="10.9274628"><ele>176.0</ele><time>2026-04-26T09:38:50.804Z</time></trkpt><trkpt lat="45.7335835" lon="10.9275617"><ele>176.0</ele><time>2026-04-26T09:38:51.804Z</time></trkpt><trkpt lat="45.7334806" lon="10.9276689"><ele>174.0</ele><time>2026-04-26T09:38:52.804Z</time></trkpt><trkpt lat="45.7333813" lon="10.9277775"><ele>172.0</ele><time>2026-04-26T09:38:53.803Z</time></trkpt><trkpt lat="45.7332872" lon="10.9278919"><ele>170.0</ele><time>2026-04-26T09:38:54.804Z</time></trkpt><trkpt lat="45.7332026" lon="10.9279943"><ele>168.0</ele><time>2026-04-26T09:38:55.803Z</time></trkpt><trkpt lat="45.7331184" lon="10.9280957"><ele>168.0</ele><time>2026-04-26T09:38:56.803Z</time></trkpt><trkpt lat="45.733042" lon="10.9282018"><ele>168.0</ele><time>2026-04-26T09:38:57.802Z</time></trkpt><trkpt lat="45.7329691" lon="10.928317"><ele>168.0</ele><time>2026-04-26T09:38:58.804Z</time></trkpt><trkpt lat="45.7329064" lon="10.9284388"><ele>168.0</ele><time>2026-04-26T09:38:59.802Z</time></trkpt><trkpt lat="45.7328501" lon="10.928571"><ele>168.0</ele><time>2026-04-26T09:39:00.804Z</time></trkpt><trkpt lat="45.7328055" lon="10.9287181"><ele>167.0</ele><time>2026-04-26T09:39:01.803Z</time></trkpt><trkpt lat="45.7327732" lon="10.9288959"><ele>166.0</ele><time>2026-04-26T09:39:02.803Z</time></trkpt><trkpt lat="45.7327594" lon="10.9290872"><ele>165.0</ele><time>2026-04-26T09:39:03.803Z</time></trkpt><trkpt lat="45.7327522" lon="10.9292721"><ele>164.0</ele><time>2026-04-26T09:39:04.802Z</time></trkpt><trkpt lat="45.7327485" lon="10.9294517"><ele>163.75</ele><time>2026-04-26T09:39:05.802Z</time></trkpt><trkpt lat="45.7327434" lon="10.9296402"><ele>163.5</ele><time>2026-04-26T09:39:06.802Z</time></trkpt><trkpt lat="45.7327347" lon="10.9298222"><ele>163.25</ele><time>2026-04-26T09:39:07.803Z</time></trkpt><trkpt lat="45.7327244" lon="10.9300005"><ele>163.0</ele><time>2026-04-26T09:39:08.802Z</time></trkpt><trkpt lat="45.7327111" lon="10.9301871"><ele>162.25</ele><time>2026-04-26T09:39:09.803Z</time></trkpt><trkpt lat="45.7326932" lon="10.9303866"><ele>161.5</ele><time>2026-04-26T09:39:10.804Z</time></trkpt><trkpt lat="45.7326716" lon="10.9305902"><ele>160.75</ele><time>2026-04-26T09:39:11.804Z</time></trkpt><trkpt lat="45.7326367" lon="10.930792"><ele>160.0</ele><time>2026-04-26T09:39:12.803Z</time></trkpt><trkpt lat="45.7325944" lon="10.9309775"><ele>158.75</ele><time>2026-04-26T09:39:13.804Z</time></trkpt><trkpt lat="45.7325467" lon="10.9311437"><ele>157.5</ele><time>2026-04-26T09:39:14.803Z</time></trkpt><trkpt lat="45.7324838" lon="10.9312872"><ele>156.25</ele><time>2026-04-26T09:39:15.802Z</time></trkpt><trkpt lat="45.7324131" lon="10.9314113"><ele>155.0</ele><time>2026-04-26T09:39:16.803Z</time></trkpt><trkpt lat="45.7323355" lon="10.9315111"><ele>155.0</ele><time>2026-04-26T09:39:17.803Z</time></trkpt><trkpt lat="45.7322607" lon="10.9316076"><ele>155.0</ele><time>2026-04-26T09:39:18.803Z</time></trkpt><trkpt lat="45.7321994" lon="10.9317111"><ele>155.0</ele><time>2026-04-26T09:39:19.803Z</time></trkpt><trkpt lat="45.7321391" lon="10.9318241"><ele>155.0</ele><time>2026-04-26T09:39:20.802Z</time></trkpt><trkpt lat="45.7320943" lon="10.9319913"><ele>155.0</ele><time>2026-04-26T09:39:21.803Z</time></trkpt><trkpt lat="45.7320399" lon="10.9321527"><ele>155.0</ele><time>2026-04-26T09:39:22.804Z</time></trkpt><trkpt lat="45.7319895" lon="10.9323236"><ele>155.0</ele><time>2026-04-26T09:39:23.802Z</time></trkpt><trkpt lat="45.7319366" lon="10.9324869"><ele>155.0</ele><time>2026-04-26T09:39:24.801Z</time></trkpt><trkpt lat="45.7318987" lon="10.9326355"><ele>155.0</ele><time>2026-04-26T09:39:25.803Z</time></trkpt><trkpt lat="45.7318546" lon="10.9327993"><ele>154.0</ele><time>2026-04-26T09:39:26.802Z</time></trkpt><trkpt lat="45.7318052" lon="10.9329617"><ele>153.0</ele><time>2026-04-26T09:39:27.802Z</time></trkpt><trkpt lat="45.731757" lon="10.9331381"><ele>152.0</ele><time>2026-04-26T09:39:28.803Z</time></trkpt><trkpt lat="45.731708" lon="10.9333067"><ele>151.0</ele><time>2026-04-26T09:39:29.804Z</time></trkpt><trkpt lat="45.7316577" lon="10.9334691"><ele>150.4</ele><time>2026-04-26T09:39:30.804Z</time></trkpt><trkpt lat="45.7316168" lon="10.9336321"><ele>149.8</ele><time>2026-04-26T09:39:31.804Z</time></trkpt><trkpt lat="45.7315723" lon="10.933777"><ele>149.20000000000002</ele><time>2026-04-26T09:39:32.804Z</time></trkpt><trkpt lat="45.731531" lon="10.9339234"><ele>148.6</ele><time>2026-04-26T09:39:33.803Z</time></trkpt><trkpt lat="45.7314909" lon="10.9340557"><ele>148.0</ele><time>2026-04-26T09:39:34.803Z</time></trkpt><trkpt lat="45.731447" lon="10.9342091"><ele>147.6</ele><time>2026-04-26T09:39:35.803Z</time></trkpt><trkpt lat="45.731401" lon="10.9343743"><ele>147.20000000000002</ele><time>2026-04-26T09:39:36.802Z</time></trkpt><trkpt lat="45.7313532" lon="10.9345311"><ele>146.8</ele><time>2026-04-26T09:39:37.803Z</time></trkpt><trkpt lat="45.731312" lon="10.9346643"><ele>146.4</ele><time>2026-04-26T09:39:38.803Z</time></trkpt><trkpt lat="45.731282" lon="10.9347645"><ele>146.0</ele><time>2026-04-26T09:39:39.803Z</time></trkpt><trkpt lat="45.7312429" lon="10.9348994"><ele>146.0</ele><time>2026-04-26T09:39:41.803Z</time></trkpt><trkpt lat="45.7312168" lon="10.9350393"><ele>146.0</ele><time>2026-04-26T09:39:43.804Z</time></trkpt><trkpt lat="45.7311908" lon="10.9351327"><ele>146.0</ele><time>2026-04-26T09:39:45.802Z</time></trkpt><trkpt lat="45.7311907" lon="10.93523"><ele>146.0</ele><time>2026-04-26T09:41:20.802Z</time></trkpt><trkpt lat="45.7311776" lon="10.9353822"><ele>146.0</ele><time>2026-04-26T09:41:46.802Z</time></trkpt><trkpt lat="45.7311771" lon="10.9354835"><ele>146.0</ele><time>2026-04-26T09:41:47.803Z</time></trkpt><trkpt lat="45.7311801" lon="10.9355818"><ele>145.83333333333331</ele><time>2026-04-26T09:41:48.804Z</time></trkpt><trkpt lat="45.7311855" lon="10.9356756"><ele>145.66666666666666</ele><time>2026-04-26T09:41:49.802Z</time></trkpt><trkpt lat="45.7312064" lon="10.9358442"><ele>145.5</ele><time>2026-04-26T09:41:51.803Z</time></trkpt><trkpt lat="45.7312384" lon="10.9360142"><ele>145.33333333333334</ele><time>2026-04-26T09:41:53.802Z</time></trkpt><trkpt lat="45.7312594" lon="10.9361031"><ele>145.16666666666669</ele><time>2026-04-26T09:41:54.803Z</time></trkpt><trkpt lat="45.7312896" lon="10.9361933"><ele>145.0</ele><time>2026-04-26T09:41:55.803Z</time></trkpt><trkpt lat="45.7313158" lon="10.9362852"><ele>144.66666666666669</ele><time>2026-04-26T09:41:56.804Z</time></trkpt><trkpt lat="45.7313448" lon="10.9363757"><ele>144.33333333333334</ele><time>2026-04-26T09:41:57.804Z</time></trkpt><trkpt lat="45.7313751" lon="10.9364699"><ele>144.0</ele><time>2026-04-26T09:41:58.802Z</time></trkpt><trkpt lat="45.7314172" lon="10.9365673"><ele>143.66666666666666</ele><time>2026-04-26T09:41:59.802Z</time></trkpt><trkpt lat="45.7314602" lon="10.9366673"><ele>143.33333333333331</ele><time>2026-04-26T09:42:00.803Z</time></trkpt><trkpt lat="45.7315033" lon="10.9367729"><ele>143.0</ele><time>2026-04-26T09:42:01.804Z</time></trkpt><trkpt lat="45.7315426" lon="10.936891"><ele>142.6</ele><time>2026-04-26T09:42:02.802Z</time></trkpt><trkpt lat="45.7315906" lon="10.9370033"><ele>142.20000000000002</ele><time>2026-04-26T09:42:03.802Z</time></trkpt><trkpt lat="45.731639" lon="10.9371151"><ele>141.8</ele><time>2026-04-26T09:42:04.803Z</time></trkpt><trkpt lat="45.7316812" lon="10.9372241"><ele>141.4</ele><time>2026-04-26T09:42:05.802Z</time></trkpt><trkpt lat="45.7317255" lon="10.9373351"><ele>141.0</ele><time>2026-04-26T09:42:06.801Z</time></trkpt><trkpt lat="45.7317716" lon="10.9374488"><ele>141.0</ele><time>2026-04-26T09:42:07.802Z</time></trkpt><trkpt lat="45.7318168" lon="10.9375626"><ele>141.0</ele><time>2026-04-26T09:42:08.804Z</time></trkpt><trkpt lat="45.7318638" lon="10.9376754"><ele>141.0</ele><time>2026-04-26T09:42:09.802Z</time></trkpt><trkpt lat="45.7319119" lon="10.9377919"><ele>141.0</ele><time>2026-04-26T09:42:10.803Z</time></trkpt><trkpt lat="45.7319606" lon="10.9379164"><ele>141.0</ele><time>2026-04-26T09:42:11.803Z</time></trkpt><trkpt lat="45.7320054" lon="10.9380298"><ele>141.0</ele><time>2026-04-26T09:42:12.803Z</time></trkpt><trkpt lat="45.7320515" lon="10.9381375"><ele>141.0</ele><time>2026-04-26T09:42:13.802Z</time></trkpt><trkpt lat="45.7320967" lon="10.9382424"><ele>141.0</ele><time>2026-04-26T09:42:14.803Z</time></trkpt><trkpt lat="45.7321402" lon="10.9383456"><ele>141.0</ele><time>2026-04-26T09:42:15.803Z</time></trkpt><trkpt lat="45.732184" lon="10.9384591"><ele>141.0</ele><time>2026-04-26T09:42:16.803Z</time></trkpt><trkpt lat="45.732229" lon="10.9385834"><ele>141.0</ele><time>2026-04-26T09:42:17.803Z</time></trkpt><trkpt lat="45.7322758" lon="10.938719"><ele>140.8</ele><time>2026-04-26T09:42:18.802Z</time></trkpt><trkpt lat="45.7323309" lon="10.9388578"><ele>140.6</ele><time>2026-04-26T09:42:19.803Z</time></trkpt><trkpt lat="45.732383" lon="10.9389939"><ele>140.4</ele><time>2026-04-26T09:42:20.802Z</time></trkpt><trkpt lat="45.7324317" lon="10.9391143"><ele>140.2</ele><time>2026-04-26T09:42:21.803Z</time></trkpt><trkpt lat="45.7324744" lon="10.9392225"><ele>140.0</ele><time>2026-04-26T09:42:22.803Z</time></trkpt><trkpt lat="45.7325046" lon="10.9393123"><ele>139.5</ele><time>2026-04-26T09:42:23.802Z</time></trkpt><trkpt lat="45.7325298" lon="10.9394683"><ele>139.0</ele><time>2026-04-26T09:42:25.803Z</time></trkpt><trkpt lat="45.7324689" lon="10.9395856"><ele>138.5</ele><time>2026-04-26T09:42:27.802Z</time></trkpt><trkpt lat="45.7323703" lon="10.9396967"><ele>138.0</ele><time>2026-04-26T09:42:29.803Z</time></trkpt><trkpt lat="45.732329" lon="10.9398475"><ele>138.0</ele><time>2026-04-26T09:42:31.802Z</time></trkpt><trkpt lat="45.7323673" lon="10.9399968"><ele>138.0</ele><time>2026-04-26T09:42:33.803Z</time></trkpt><trkpt lat="45.7324765" lon="10.9400722"><ele>138.0</ele><time>2026-04-26T09:42:35.803Z</time></trkpt><trkpt lat="45.7325401" lon="10.940078"><ele>138.0</ele><time>2026-04-26T09:42:36.801Z</time></trkpt><trkpt lat="45.7326614" lon="10.9400561"><ele>138.0</ele><time>2026-04-26T09:42:38.802Z</time></trkpt><trkpt lat="45.7327268" lon="10.9400428"><ele>138.0</ele><time>2026-04-26T09:42:39.803Z</time></trkpt><trkpt lat="45.7328368" lon="10.9400929"><ele>138.0</ele><time>2026-04-26T09:42:41.803Z</time></trkpt><trkpt lat="45.7328874" lon="10.9401647"><ele>138.0</ele><time>2026-04-26T09:42:42.803Z</time></trkpt><trkpt lat="45.7329369" lon="10.9402661"><ele>138.0</ele><time>2026-04-26T09:42:43.801Z</time></trkpt><trkpt lat="45.7329759" lon="10.9403565"><ele>138.0</ele><time>2026-04-26T09:42:44.804Z</time></trkpt><trkpt lat="45.7330093" lon="10.9404379"><ele>138.0</ele><time>2026-04-26T09:42:45.802Z</time></trkpt><trkpt lat="45.7330555" lon="10.9405684"><ele>138.0</ele><time>2026-04-26T09:42:47.803Z</time></trkpt><trkpt lat="45.7331089" lon="10.9406888"><ele>138.0</ele><time>2026-04-26T09:42:49.803Z</time></trkpt><trkpt lat="45.7331778" lon="10.9408163"><ele>138.0</ele><time>2026-04-26T09:42:51.803Z</time></trkpt><trkpt lat="45.7332217" lon="10.9408882"><ele>138.0</ele><time>2026-04-26T09:42:52.803Z</time></trkpt><trkpt lat="45.7332891" lon="10.9409947"><ele>138.0</ele><time>2026-04-26T09:42:54.803Z</time></trkpt><trkpt lat="45.733337" lon="10.9410688"><ele>137.6</ele><time>2026-04-26T09:42:56.802Z</time></trkpt><trkpt lat="45.7333883" lon="10.941124"><ele>137.20000000000002</ele><time>2026-04-26T09:43:01.802Z</time></trkpt><trkpt lat="45.7334604" lon="10.9411462"><ele>136.8</ele><time>2026-04-26T09:44:52.801Z</time></trkpt><trkpt lat="45.7335824" lon="10.9412044"><ele>136.4</ele><time>2026-04-26T09:44:54.801Z</time></trkpt><trkpt lat="45.7336727" lon="10.9412353"><ele>136.0</ele><time>2026-04-26T09:44:55.803Z</time></trkpt><trkpt lat="45.7337634" lon="10.9412562"><ele>135.66666666666669</ele><time>2026-04-26T09:44:56.802Z</time></trkpt><trkpt lat="45.7338588" lon="10.9412641"><ele>135.33333333333334</ele><time>2026-04-26T09:44:57.801Z</time></trkpt><trkpt lat="45.7339508" lon="10.9412601"><ele>135.0</ele><time>2026-04-26T09:44:58.803Z</time></trkpt><trkpt lat="45.7340445" lon="10.9412504"><ele>134.66666666666666</ele><time>2026-04-26T09:44:59.801Z</time></trkpt><trkpt lat="45.7341301" lon="10.9412402"><ele>134.33333333333331</ele><time>2026-04-26T09:45:00.803Z</time></trkpt><trkpt lat="45.7342074" lon="10.9412398"><ele>134.0</ele><time>2026-04-26T09:45:01.802Z</time></trkpt><trkpt lat="45.734281" lon="10.9412458"><ele>134.0</ele><time>2026-04-26T09:45:02.802Z</time></trkpt><trkpt lat="45.7343594" lon="10.9412684"><ele>134.0</ele><time>2026-04-26T09:45:03.803Z</time></trkpt><trkpt lat="45.7344439" lon="10.9413091"><ele>134.0</ele><time>2026-04-26T09:45:04.803Z</time></trkpt><trkpt lat="45.7345326" lon="10.9413738"><ele>134.0</ele><time>2026-04-26T09:45:05.802Z</time></trkpt><trkpt lat="45.7346224" lon="10.9414742"><ele>134.0</ele><time>2026-04-26T09:45:06.802Z</time></trkpt><trkpt lat="45.734704" lon="10.9415892"><ele>134.2</ele><time>2026-04-26T09:45:07.802Z</time></trkpt><trkpt lat="45.7347754" lon="10.9417052"><ele>134.4</ele><time>2026-04-26T09:45:08.8Z</time></trkpt><trkpt lat="45.7348447" lon="10.9418246"><ele>134.6</ele><time>2026-04-26T09:45:09.803Z</time></trkpt><trkpt lat="45.7349046" lon="10.9419365"><ele>134.8</ele><time>2026-04-26T09:45:10.802Z</time></trkpt><trkpt lat="45.7349558" lon="10.9420389"><ele>135.0</ele><time>2026-04-26T09:45:11.802Z</time></trkpt><trkpt lat="45.7350095" lon="10.9421478"><ele>134.5</ele><time>2026-04-26T09:45:12.802Z</time></trkpt><trkpt lat="45.7350706" lon="10.9422578"><ele>134.0</ele><time>2026-04-26T09:45:13.801Z</time></trkpt><trkpt lat="45.7351383" lon="10.9423853"><ele>133.5</ele><time>2026-04-26T09:45:14.802Z</time></trkpt><trkpt lat="45.7352133" lon="10.9425232"><ele>133.0</ele><time>2026-04-26T09:45:15.803Z</time></trkpt><trkpt lat="45.7353036" lon="10.9426693"><ele>133.0</ele><time>2026-04-26T09:45:16.802Z</time></trkpt><trkpt lat="45.7353863" lon="10.9428356"><ele>133.0</ele><time>2026-04-26T09:45:17.801Z</time></trkpt><trkpt lat="45.7354647" lon="10.9430008"><ele>133.0</ele><time>2026-04-26T09:45:18.802Z</time></trkpt><trkpt lat="45.7355475" lon="10.9431762"><ele>133.0</ele><time>2026-04-26T09:45:19.802Z</time></trkpt><trkpt lat="45.735629" lon="10.9433377"><ele>132.8</ele><time>2026-04-26T09:45:20.801Z</time></trkpt><trkpt lat="45.7357059" lon="10.9434889"><ele>132.60000000000002</ele><time>2026-04-26T09:45:21.802Z</time></trkpt><trkpt lat="45.7357696" lon="10.9436232"><ele>132.39999999999998</ele><time>2026-04-26T09:45:22.802Z</time></trkpt><trkpt lat="45.7358177" lon="10.9437409"><ele>132.2</ele><time>2026-04-26T09:45:23.802Z</time></trkpt><trkpt lat="45.7358731" lon="10.9438404"><ele>132.0</ele><time>2026-04-26T09:45:24.803Z</time></trkpt><trkpt lat="45.7359363" lon="10.9439663"><ele>132.0</ele><time>2026-04-26T09:45:25.802Z</time></trkpt><trkpt lat="45.7360099" lon="10.9441051"><ele>132.0</ele><time>2026-04-26T09:45:26.802Z</time></trkpt><trkpt lat="45.7360805" lon="10.94426"><ele>132.0</ele><time>2026-04-26T09:45:27.803Z</time></trkpt><trkpt lat="45.7361824" lon="10.9444334"><ele>132.0</ele><time>2026-04-26T09:45:28.801Z</time></trkpt><trkpt lat="45.7362804" lon="10.9446204"><ele>132.0</ele><time>2026-04-26T09:45:29.802Z</time></trkpt><trkpt lat="45.7363808" lon="10.9447944"><ele>132.0</ele><time>2026-04-26T09:45:30.802Z</time></trkpt><trkpt lat="45.7364751" lon="10.9449604"><ele>132.0</ele><time>2026-04-26T09:45:31.801Z</time></trkpt><trkpt lat="45.7365559" lon="10.9451172"><ele>132.0</ele><time>2026-04-26T09:45:32.801Z</time></trkpt><trkpt lat="45.7366291" lon="10.9452672"><ele>132.0</ele><time>2026-04-26T09:45:33.803Z</time></trkpt><trkpt lat="45.7366931" lon="10.9454113"><ele>132.0</ele><time>2026-04-26T09:45:34.802Z</time></trkpt><trkpt lat="45.7367545" lon="10.9455509"><ele>132.0</ele><time>2026-04-26T09:45:35.803Z</time></trkpt><trkpt lat="45.7368059" lon="10.9456883"><ele>132.0</ele><time>2026-04-26T09:45:36.802Z</time></trkpt><trkpt lat="45.7368547" lon="10.9458381"><ele>131.5</ele><time>2026-04-26T09:45:37.802Z</time></trkpt><trkpt lat="45.7368936" lon="10.94599"><ele>131.0</ele><time>2026-04-26T09:45:38.803Z</time></trkpt><trkpt lat="45.736923" lon="10.9461505"><ele>130.5</ele><time>2026-04-26T09:45:39.801Z</time></trkpt><trkpt lat="45.736949" lon="10.9463187"><ele>130.0</ele><time>2026-04-26T09:45:40.803Z</time></trkpt><trkpt lat="45.7369714" lon="10.9465011"><ele>130.0</ele><time>2026-04-26T09:45:41.802Z</time></trkpt><trkpt lat="45.7369906" lon="10.9466949"><ele>130.0</ele><time>2026-04-26T09:45:42.802Z</time></trkpt><trkpt lat="45.7370103" lon="10.9469055"><ele>130.0</ele><time>2026-04-26T09:45:43.802Z</time></trkpt><trkpt lat="45.7370278" lon="10.9471415"><ele>130.33333333333334</ele><time>2026-04-26T09:45:44.803Z</time></trkpt><trkpt lat="45.7370436" lon="10.9473766"><ele>130.66666666666666</ele><time>2026-04-26T09:45:45.803Z</time></trkpt><trkpt lat="45.7370583" lon="10.9475978"><ele>131.0</ele><time>2026-04-26T09:45:46.803Z</time></trkpt><trkpt lat="45.7370706" lon="10.9478025"><ele>131.0</ele><time>2026-04-26T09:45:47.803Z</time></trkpt><trkpt lat="45.7370837" lon="10.9479922"><ele>131.0</ele><time>2026-04-26T09:45:48.802Z</time></trkpt><trkpt lat="45.7370977" lon="10.9481676"><ele>131.0</ele><time>2026-04-26T09:45:49.802Z</time></trkpt><trkpt lat="45.73711" lon="10.9483291"><ele>131.0</ele><time>2026-04-26T09:45:50.802Z</time></trkpt><trkpt lat="45.7371198" lon="10.9484784"><ele>131.0</ele><time>2026-04-26T09:45:51.801Z</time></trkpt><trkpt lat="45.7371285" lon="10.9486071"><ele>131.0</ele><time>2026-04-26T09:45:52.801Z</time></trkpt><trkpt lat="45.7371389" lon="10.948723"><ele>131.0</ele><time>2026-04-26T09:45:53.802Z</time></trkpt><trkpt lat="45.7371484" lon="10.9488783"><ele>131.0</ele><time>2026-04-26T09:45:55.803Z</time></trkpt><trkpt lat="45.7371455" lon="10.9489733"><ele>131.0</ele><time>2026-04-26T09:45:59.802Z</time></trkpt><trkpt lat="45.7372083" lon="10.9488946"><ele>131.0</ele><time>2026-04-26T09:47:43.801Z</time></trkpt><trkpt lat="45.7371915" lon="10.9487964"><ele>131.0</ele><time>2026-04-26T09:47:44.801Z</time></trkpt><trkpt lat="45.737177" lon="10.9486838"><ele>131.0</ele><time>2026-04-26T09:47:45.801Z</time></trkpt><trkpt lat="45.7371623" lon="10.9485503"><ele>131.0</ele><time>2026-04-26T09:47:46.801Z</time></trkpt><trkpt lat="45.7371514" lon="10.9483963"><ele>131.0</ele><time>2026-04-26T09:47:47.801Z</time></trkpt><trkpt lat="45.7371405" lon="10.9482351"><ele>131.0</ele><time>2026-04-26T09:47:48.8Z</time></trkpt><trkpt lat="45.7371276" lon="10.9480636"><ele>131.0</ele><time>2026-04-26T09:47:49.801Z</time></trkpt><trkpt lat="45.737116" lon="10.9479037"><ele>131.0</ele><time>2026-04-26T09:47:50.802Z</time></trkpt><trkpt lat="45.7371048" lon="10.9477575"><ele>131.0</ele><time>2026-04-26T09:47:51.787Z</time></trkpt><trkpt lat="45.7370942" lon="10.947618"><ele>131.0</ele><time>2026-04-26T09:47:52.787Z</time></trkpt><trkpt lat="45.7370838" lon="10.9474838"><ele>131.0</ele><time>2026-04-26T09:47:53.791Z</time></trkpt><trkpt lat="45.7370739" lon="10.9473483"><ele>131.0</ele><time>2026-04-26T09:47:54.788Z</time></trkpt><trkpt lat="45.7370635" lon="10.947195"><ele>131.0</ele><time>2026-04-26T09:47:55.794Z</time></trkpt><trkpt lat="45.7370489" lon="10.9470243"><ele>131.0</ele><time>2026-04-26T09:47:56.789Z</time></trkpt><trkpt lat="45.7370333" lon="10.9468527"><ele>131.0</ele><time>2026-04-26T09:47:57.788Z</time></trkpt><trkpt lat="45.7370165" lon="10.9466774"><ele>130.75</ele><time>2026-04-26T09:47:58.789Z</time></trkpt><trkpt lat="45.7369993" lon="10.946492"><ele>130.5</ele><time>2026-04-26T09:47:59.788Z</time></trkpt><trkpt lat="45.7369741" lon="10.9462976"><ele>130.25</ele><time>2026-04-26T09:48:00.788Z</time></trkpt><trkpt lat="45.7369426" lon="10.946101"><ele>130.0</ele><time>2026-04-26T09:48:01.788Z</time></trkpt><trkpt lat="45.7369021" lon="10.9459155"><ele>130.66666666666669</ele><time>2026-04-26T09:48:02.789Z</time></trkpt><trkpt lat="45.7368474" lon="10.9457274"><ele>131.33333333333334</ele><time>2026-04-26T09:48:03.789Z</time></trkpt><trkpt lat="45.7367752" lon="10.945513"><ele>132.0</ele><time>2026-04-26T09:48:04.789Z</time></trkpt><trkpt lat="45.73668" lon="10.9452752"><ele>132.33333333333334</ele><time>2026-04-26T09:48:05.789Z</time></trkpt><trkpt lat="45.7365689" lon="10.9450392"><ele>132.66666666666669</ele><time>2026-04-26T09:48:06.789Z</time></trkpt><trkpt lat="45.7364928" lon="10.9449454"><ele>133.0</ele><time>2026-04-26T09:48:07.801Z</time></trkpt><trkpt lat="45.736384" lon="10.9447446"><ele>133.0</ele><time>2026-04-26T09:48:08.801Z</time></trkpt><trkpt lat="45.7362783" lon="10.9445549"><ele>133.0</ele><time>2026-04-26T09:48:09.801Z</time></trkpt><trkpt lat="45.7361836" lon="10.944374"><ele>133.0</ele><time>2026-04-26T09:48:10.801Z</time></trkpt><trkpt lat="45.7360898" lon="10.9441961"><ele>132.75</ele><time>2026-04-26T09:48:11.803Z</time></trkpt><trkpt lat="45.7360055" lon="10.94403"><ele>132.5</ele><time>2026-04-26T09:48:12.802Z</time></trkpt><trkpt lat="45.7359285" lon="10.9438741"><ele>132.25</ele><time>2026-04-26T09:48:13.802Z</time></trkpt><trkpt lat="45.7358525" lon="10.943727"><ele>132.0</ele><time>2026-04-26T09:48:14.802Z</time></trkpt><trkpt lat="45.7357812" lon="10.9435859"><ele>132.0</ele><time>2026-04-26T09:48:15.795Z</time></trkpt><trkpt lat="45.7357054" lon="10.9434391"><ele>132.0</ele><time>2026-04-26T09:48:16.791Z</time></trkpt><trkpt lat="45.7356276" lon="10.9432873"><ele>132.0</ele><time>2026-04-26T09:48:17.8Z</time></trkpt><trkpt lat="45.7355512" lon="10.943139"><ele>132.0</ele><time>2026-04-26T09:48:18.797Z</time></trkpt><trkpt lat="45.7354816" lon="10.9430002"><ele>132.16666666666666</ele><time>2026-04-26T09:48:19.792Z</time></trkpt><trkpt lat="45.7354183" lon="10.9428705"><ele>132.33333333333334</ele><time>2026-04-26T09:48:20.79Z</time></trkpt><trkpt lat="45.7353596" lon="10.9427539"><ele>132.5</ele><time>2026-04-26T09:48:21.789Z</time></trkpt><trkpt lat="45.7353076" lon="10.9426517"><ele>132.66666666666669</ele><time>2026-04-26T09:48:22.789Z</time></trkpt><trkpt lat="45.7352646" lon="10.9425596"><ele>132.83333333333334</ele><time>2026-04-26T09:48:23.79Z</time></trkpt><trkpt lat="45.7352322" lon="10.9424769"><ele>133.0</ele><time>2026-04-26T09:48:24.79Z</time></trkpt><trkpt lat="45.7351899" lon="10.9423478"><ele>133.0</ele><time>2026-04-26T09:48:26.789Z</time></trkpt><trkpt lat="45.7351589" lon="10.9422458"><ele>133.0</ele><time>2026-04-26T09:48:29.79Z</time></trkpt><trkpt lat="45.7350966" lon="10.9421763"><ele>133.0</ele><time>2026-04-26T09:51:11.79Z</time></trkpt><trkpt lat="45.7350493" lon="10.9421075"><ele>133.0</ele><time>2026-04-26T09:51:14.801Z</time></trkpt><trkpt lat="45.7350441" lon="10.9422195"><ele>133.0</ele><time>2026-04-26T09:51:18.801Z</time></trkpt><trkpt lat="45.7351166" lon="10.9423631"><ele>133.0</ele><time>2026-04-26T09:51:20.801Z</time></trkpt><trkpt lat="45.7351594" lon="10.9424449"><ele>133.0</ele><time>2026-04-26T09:51:21.801Z</time></trkpt><trkpt lat="45.7352094" lon="10.9425379"><ele>133.0</ele><time>2026-04-26T09:51:22.801Z</time></trkpt><trkpt lat="45.7352613" lon="10.9426374"><ele>133.0</ele><time>2026-04-26T09:51:23.802Z</time></trkpt><trkpt lat="45.7353169" lon="10.9427392"><ele>133.0</ele><time>2026-04-26T09:51:24.801Z</time></trkpt><trkpt lat="45.7353747" lon="10.9428456"><ele>133.0</ele><time>2026-04-26T09:51:25.8Z</time></trkpt><trkpt lat="45.7354318" lon="10.9429416"><ele>133.0</ele><time>2026-04-26T09:51:26.802Z</time></trkpt><trkpt lat="45.7354802" lon="10.9430538"><ele>133.0</ele><time>2026-04-26T09:51:27.792Z</time></trkpt><trkpt lat="45.735537" lon="10.9431692"><ele>133.0</ele><time>2026-04-26T09:51:28.789Z</time></trkpt><trkpt lat="45.7355952" lon="10.9432895"><ele>133.0</ele><time>2026-04-26T09:51:29.79Z</time></trkpt><trkpt lat="45.7356504" lon="10.9434024"><ele>133.0</ele><time>2026-04-26T09:51:30.79Z</time></trkpt><trkpt lat="45.7357035" lon="10.9435086"><ele>133.0</ele><time>2026-04-26T09:51:31.793Z</time></trkpt><trkpt lat="45.7357621" lon="10.9436276"><ele>132.75</ele><time>2026-04-26T09:51:32.792Z</time></trkpt><trkpt lat="45.7358229" lon="10.9437515"><ele>132.5</ele><time>2026-04-26T09:51:33.792Z</time></trkpt><trkpt lat="45.735892" lon="10.9438888"><ele>132.25</ele><time>2026-04-26T09:51:34.791Z</time></trkpt><trkpt lat="45.7359662" lon="10.9440349"><ele>132.0</ele><time>2026-04-26T09:51:35.791Z</time></trkpt><trkpt lat="45.7360438" lon="10.944184"><ele>132.25</ele><time>2026-04-26T09:51:36.792Z</time></trkpt><trkpt lat="45.7361178" lon="10.9443247"><ele>132.5</ele><time>2026-04-26T09:51:37.792Z</time></trkpt><trkpt lat="45.7361918" lon="10.9444605"><ele>132.75</ele><time>2026-04-26T09:51:38.792Z</time></trkpt><trkpt lat="45.7362709" lon="10.9445991"><ele>133.0</ele><time>2026-04-26T09:51:39.792Z</time></trkpt><trkpt lat="45.736356" lon="10.9447463"><ele>133.0</ele><time>2026-04-26T09:51:40.791Z</time></trkpt><trkpt lat="45.7364444" lon="10.9449012"><ele>133.0</ele><time>2026-04-26T09:51:41.791Z</time></trkpt><trkpt lat="45.736534" lon="10.9450619"><ele>133.0</ele><time>2026-04-26T09:51:42.792Z</time></trkpt><trkpt lat="45.7366208" lon="10.9452325"><ele>133.0</ele><time>2026-04-26T09:51:43.792Z</time></trkpt><trkpt lat="45.7366987" lon="10.9454045"><ele>132.75</ele><time>2026-04-26T09:51:44.792Z</time></trkpt><trkpt lat="45.7367671" lon="10.9455737"><ele>132.5</ele><time>2026-04-26T09:51:45.791Z</time></trkpt><trkpt lat="45.736828" lon="10.9457464"><ele>132.25</ele><time>2026-04-26T09:51:46.791Z</time></trkpt><trkpt lat="45.7368793" lon="10.9459276"><ele>132.0</ele><time>2026-04-26T09:51:47.792Z</time></trkpt><trkpt lat="45.7369185" lon="10.9461224"><ele>131.66666666666666</ele><time>2026-04-26T09:51:48.791Z</time></trkpt><trkpt lat="45.7369489" lon="10.946335"><ele>131.33333333333331</ele><time>2026-04-26T09:51:49.791Z</time></trkpt><trkpt lat="45.7369736" lon="10.9465716"><ele>131.0</ele><time>2026-04-26T09:51:50.791Z</time></trkpt><trkpt lat="45.7369943" lon="10.9468244"><ele>131.0</ele><time>2026-04-26T09:51:51.792Z</time></trkpt><trkpt lat="45.7370145" lon="10.9470867"><ele>131.0</ele><time>2026-04-26T09:51:52.792Z</time></trkpt><trkpt lat="45.7370374" lon="10.9473394"><ele>131.0</ele><time>2026-04-26T09:51:53.792Z</time></trkpt><trkpt lat="45.7370622" lon="10.9476233"><ele>131.0</ele><time>2026-04-26T09:51:55.791Z</time></trkpt><trkpt lat="45.7370761" lon="10.94781"><ele>131.0</ele><time>2026-04-26T09:51:56.792Z</time></trkpt><trkpt lat="45.7370892" lon="10.9479913"><ele>131.0</ele><time>2026-04-26T09:51:57.792Z</time></trkpt><trkpt lat="45.7371013" lon="10.9481754"><ele>131.0</ele><time>2026-04-26T09:51:58.792Z</time></trkpt><trkpt lat="45.7371159" lon="10.948363"><ele>131.0</ele><time>2026-04-26T09:51:59.792Z</time></trkpt><trkpt lat="45.7371312" lon="10.9485451"><ele>131.0</ele><time>2026-04-26T09:52:00.792Z</time></trkpt><trkpt lat="45.7371467" lon="10.9487214"><ele>131.0</ele><time>2026-04-26T09:52:01.792Z</time></trkpt><trkpt lat="45.7371665" lon="10.9488857"><ele>131.0</ele><time>2026-04-26T09:52:02.792Z</time></trkpt><trkpt lat="45.7371962" lon="10.9490494"><ele>131.66666666666666</ele><time>2026-04-26T09:52:03.792Z</time></trkpt><trkpt lat="45.7372446" lon="10.9492337"><ele>132.33333333333334</ele><time>2026-04-26T09:52:04.792Z</time></trkpt><trkpt lat="45.7373105" lon="10.9494379"><ele>133.0</ele><time>2026-04-26T09:52:05.792Z</time></trkpt><trkpt lat="45.7373888" lon="10.949644"><ele>133.0</ele><time>2026-04-26T09:52:06.791Z</time></trkpt><trkpt lat="45.7374776" lon="10.9498598"><ele>133.0</ele><time>2026-04-26T09:52:07.792Z</time></trkpt><trkpt lat="45.7375779" lon="10.9500897"><ele>133.0</ele><time>2026-04-26T09:52:08.792Z</time></trkpt><trkpt lat="45.7376857" lon="10.950329"><ele>133.0</ele><time>2026-04-26T09:52:09.791Z</time></trkpt><trkpt lat="45.7377882" lon="10.9505607"><ele>133.0</ele><time>2026-04-26T09:52:10.791Z</time></trkpt><trkpt lat="45.737889" lon="10.9507824"><ele>133.0</ele><time>2026-04-26T09:52:11.791Z</time></trkpt><trkpt lat="45.7379841" lon="10.9509891"><ele>134.33333333333334</ele><time>2026-04-26T09:52:12.792Z</time></trkpt><trkpt lat="45.7380725" lon="10.9511875"><ele>135.66666666666666</ele><time>2026-04-26T09:52:13.792Z</time></trkpt><trkpt lat="45.7381538" lon="10.9513754"><ele>137.0</ele><time>2026-04-26T09:52:14.791Z</time></trkpt><trkpt lat="45.7382351" lon="10.9515637"><ele>137.0</ele><time>2026-04-26T09:52:15.791Z</time></trkpt><trkpt lat="45.7383165" lon="10.9517476"><ele>137.0</ele><time>2026-04-26T09:52:16.792Z</time></trkpt><trkpt lat="45.7383981" lon="10.9519242"><ele>137.0</ele><time>2026-04-26T09:52:17.792Z</time></trkpt><trkpt lat="45.738475" lon="10.9520879"><ele>137.0</ele><time>2026-04-26T09:52:18.791Z</time></trkpt><trkpt lat="45.7385395" lon="10.9522268"><ele>138.33333333333331</ele><time>2026-04-26T09:52:19.791Z</time></trkpt><trkpt lat="45.7385879" lon="10.9523455"><ele>139.66666666666666</ele><time>2026-04-26T09:52:20.792Z</time></trkpt><trkpt lat="45.7386209" lon="10.9524552"><ele>141.0</ele><time>2026-04-26T09:52:21.791Z</time></trkpt><trkpt lat="45.7386426" lon="10.9525619"><ele>142.33333333333334</ele><time>2026-04-26T09:52:22.791Z</time></trkpt><trkpt lat="45.738651" lon="10.9526628"><ele>143.66666666666669</ele><time>2026-04-26T09:52:23.792Z</time></trkpt><trkpt lat="45.7386277" lon="10.9528102"><ele>145.0</ele><time>2026-04-26T09:52:25.792Z</time></trkpt><trkpt lat="45.7385767" lon="10.9528743"><ele>143.8</ele><time>2026-04-26T09:52:26.791Z</time></trkpt><trkpt lat="45.7385028" lon="10.9529153"><ele>142.6</ele><time>2026-04-26T09:52:27.791Z</time></trkpt><trkpt lat="45.7384075" lon="10.9529573"><ele>141.4</ele><time>2026-04-26T09:52:28.792Z</time></trkpt><trkpt lat="45.7382956" lon="10.9530112"><ele>140.2</ele><time>2026-04-26T09:52:29.791Z</time></trkpt><trkpt lat="45.7381728" lon="10.953073"><ele>139.0</ele><time>2026-04-26T09:52:30.791Z</time></trkpt><trkpt lat="45.7380557" lon="10.9531443"><ele>139.0</ele><time>2026-04-26T09:52:31.792Z</time></trkpt><trkpt lat="45.7379392" lon="10.953238"><ele>139.0</ele><time>2026-04-26T09:52:32.791Z</time></trkpt><trkpt lat="45.7378383" lon="10.9533465"><ele>139.0</ele><time>2026-04-26T09:52:33.792Z</time></trkpt><trkpt lat="45.7377515" lon="10.953488"><ele>139.0</ele><time>2026-04-26T09:52:34.792Z</time></trkpt><trkpt lat="45.7376798" lon="10.9536683"><ele>138.33333333333334</ele><time>2026-04-26T09:52:35.792Z</time></trkpt><trkpt lat="45.7376275" lon="10.9538609"><ele>137.66666666666666</ele><time>2026-04-26T09:52:36.791Z</time></trkpt><trkpt lat="45.7375932" lon="10.954072"><ele>137.0</ele><time>2026-04-26T09:52:37.791Z</time></trkpt><trkpt lat="45.737577" lon="10.9542958"><ele>136.33333333333331</ele><time>2026-04-26T09:52:38.791Z</time></trkpt><trkpt lat="45.7375733" lon="10.954534"><ele>135.66666666666666</ele><time>2026-04-26T09:52:39.791Z</time></trkpt><trkpt lat="45.737574" lon="10.9547584"><ele>135.0</ele><time>2026-04-26T09:52:40.792Z</time></trkpt><trkpt lat="45.7375727" lon="10.9549622"><ele>134.8</ele><time>2026-04-26T09:52:41.792Z</time></trkpt><trkpt lat="45.737569" lon="10.9551485"><ele>134.6</ele><time>2026-04-26T09:52:42.791Z</time></trkpt><trkpt lat="45.7375592" lon="10.9553043"><ele>134.4</ele><time>2026-04-26T09:52:43.791Z</time></trkpt><trkpt lat="45.7375398" lon="10.9554335"><ele>134.2</ele><time>2026-04-26T09:52:44.792Z</time></trkpt><trkpt lat="45.7375018" lon="10.9555414"><ele>134.0</ele><time>2026-04-26T09:52:45.792Z</time></trkpt><trkpt lat="45.7374376" lon="10.9556409"><ele>134.0</ele><time>2026-04-26T09:52:46.791Z</time></trkpt><trkpt lat="45.7373443" lon="10.9557387"><ele>134.0</ele><time>2026-04-26T09:52:47.791Z</time></trkpt><trkpt lat="45.7372228" lon="10.955836"><ele>134.0</ele><time>2026-04-26T09:52:48.792Z</time></trkpt><trkpt lat="45.7370814" lon="10.9559404"><ele>134.0</ele><time>2026-04-26T09:52:49.792Z</time></trkpt><trkpt lat="45.7369343" lon="10.956046"><ele>135.0</ele><time>2026-04-26T09:52:50.791Z</time></trkpt><trkpt lat="45.7367785" lon="10.9561553"><ele>136.0</ele><time>2026-04-26T09:52:51.791Z</time></trkpt><trkpt lat="45.736613" lon="10.9562704"><ele>137.0</ele><time>2026-04-26T09:52:52.791Z</time></trkpt><trkpt lat="45.7364558" lon="10.9563869"><ele>137.0</ele><time>2026-04-26T09:52:53.791Z</time></trkpt><trkpt lat="45.736308" lon="10.9565103"><ele>137.0</ele><time>2026-04-26T09:52:54.791Z</time></trkpt><trkpt lat="45.7361753" lon="10.9566435"><ele>137.0</ele><time>2026-04-26T09:52:55.791Z</time></trkpt><trkpt lat="45.7360527" lon="10.9567849"><ele>136.25</ele><time>2026-04-26T09:52:56.791Z</time></trkpt><trkpt lat="45.7359369" lon="10.9569213"><ele>135.5</ele><time>2026-04-26T09:52:57.791Z</time></trkpt><trkpt lat="45.7358321" lon="10.9570374"><ele>134.75</ele><time>2026-04-26T09:52:58.792Z</time></trkpt><trkpt lat="45.7357327" lon="10.9571349"><ele>134.0</ele><time>2026-04-26T09:52:59.791Z</time></trkpt><trkpt lat="45.7356396" lon="10.9572135"><ele>134.0</ele><time>2026-04-26T09:53:00.792Z</time></trkpt><trkpt lat="45.7355346" lon="10.9572928"><ele>134.0</ele><time>2026-04-26T09:53:01.792Z</time></trkpt><trkpt lat="45.7354122" lon="10.9573851"><ele>134.0</ele><time>2026-04-26T09:53:02.791Z</time></trkpt><trkpt lat="45.7353449" lon="10.9574228"><ele>134.0</ele><time>2026-04-26T09:53:03.792Z</time></trkpt><trkpt lat="45.7352472" lon="10.9574911"><ele>134.0</ele><time>2026-04-26T09:53:04.791Z</time></trkpt><trkpt lat="45.7351563" lon="10.9575549"><ele>134.0</ele><time>2026-04-26T09:53:05.792Z</time></trkpt><trkpt lat="45.7350877" lon="10.9576044"><ele>134.0</ele><time>2026-04-26T09:53:06.791Z</time></trkpt><trkpt lat="45.7350023" lon="10.9576659"><ele>134.0</ele><time>2026-04-26T09:53:08.792Z</time></trkpt><trkpt lat="45.7349349" lon="10.9577114"><ele>134.0</ele><time>2026-04-26T09:53:15.791Z</time></trkpt><trkpt lat="45.7348636" lon="10.9577645"><ele>134.0</ele><time>2026-04-26T09:53:17.792Z</time></trkpt><trkpt lat="45.7347739" lon="10.95777"><ele>134.0</ele><time>2026-04-26T09:53:20.792Z</time></trkpt><trkpt lat="45.7347253" lon="10.957679"><ele>133.2</ele><time>2026-04-26T09:53:22.791Z</time></trkpt><trkpt lat="45.7346628" lon="10.9575182"><ele>132.4</ele><time>2026-04-26T09:53:24.791Z</time></trkpt><trkpt lat="45.734623" lon="10.9574212"><ele>131.6</ele><time>2026-04-26T09:53:25.792Z</time></trkpt><trkpt lat="45.7345779" lon="10.9573152"><ele>130.8</ele><time>2026-04-26T09:53:26.792Z</time></trkpt><trkpt lat="45.7345262" lon="10.9571954"><ele>130.0</ele><time>2026-04-26T09:53:27.792Z</time></trkpt><trkpt lat="45.7344719" lon="10.9570662"><ele>130.0</ele><time>2026-04-26T09:53:28.791Z</time></trkpt><trkpt lat="45.7344174" lon="10.9569346"><ele>130.0</ele><time>2026-04-26T09:53:29.791Z</time></trkpt><trkpt lat="45.7343656" lon="10.9568073"><ele>130.0</ele><time>2026-04-26T09:53:30.791Z</time></trkpt><trkpt lat="45.7343157" lon="10.9566852"><ele>130.0</ele><time>2026-04-26T09:53:31.791Z</time></trkpt><trkpt lat="45.7342726" lon="10.9565794"><ele>130.0</ele><time>2026-04-26T09:53:32.791Z</time></trkpt><trkpt lat="45.7342384" lon="10.956497"><ele>131.0</ele><time>2026-04-26T09:53:33.791Z</time></trkpt><trkpt lat="45.7341806" lon="10.9563837"><ele>132.0</ele><time>2026-04-26T09:53:35.791Z</time></trkpt><trkpt lat="45.7341105" lon="10.9563513"><ele>133.0</ele><time>2026-04-26T09:53:37.791Z</time></trkpt><trkpt lat="45.7340099" lon="10.9564022"><ele>134.0</ele><time>2026-04-26T09:53:39.792Z</time></trkpt><trkpt lat="45.7339505" lon="10.9564901"><ele>135.0</ele><time>2026-04-26T09:53:41.791Z</time></trkpt><trkpt lat="45.7340183" lon="10.9566213"><ele>135.8</ele><time>2026-04-26T09:53:43.791Z</time></trkpt><trkpt lat="45.7340721" lon="10.9567407"><ele>136.6</ele><time>2026-04-26T09:53:45.791Z</time></trkpt><trkpt lat="45.7341254" lon="10.9568558"><ele>137.4</ele><time>2026-04-26T09:53:47.792Z</time></trkpt><trkpt lat="45.7341814" lon="10.9569838"><ele>138.2</ele><time>2026-04-26T09:53:49.791Z</time></trkpt><trkpt lat="45.7342303" lon="10.9570974"><ele>139.0</ele><time>2026-04-26T09:53:51.792Z</time></trkpt><trkpt lat="45.7342523" lon="10.9571931"><ele>139.0</ele><time>2026-04-26T09:53:53.791Z</time></trkpt><trkpt lat="45.7342427" lon="10.9572993"><ele>139.0</ele><time>2026-04-26T09:53:55.792Z</time></trkpt><trkpt lat="45.7342845" lon="10.9574047"><ele>139.0</ele><time>2026-04-26T09:53:57.792Z</time></trkpt><trkpt lat="45.7343302" lon="10.9574687"><ele>139.0</ele><time>2026-04-26T09:53:58.792Z</time></trkpt><trkpt lat="45.7343827" lon="10.9575471"><ele>139.0</ele><time>2026-04-26T09:53:59.791Z</time></trkpt><trkpt lat="45.7344429" lon="10.9576408"><ele>139.0</ele><time>2026-04-26T09:54:00.792Z</time></trkpt><trkpt lat="45.7345104" lon="10.9577437"><ele>137.75</ele><time>2026-04-26T09:54:01.791Z</time></trkpt><trkpt lat="45.734582" lon="10.9578615"><ele>136.5</ele><time>2026-04-26T09:54:02.792Z</time></trkpt><trkpt lat="45.7346499" lon="10.9579965"><ele>135.25</ele><time>2026-04-26T09:54:03.792Z</time></trkpt><trkpt lat="45.7347152" lon="10.9581516"><ele>134.0</ele><time>2026-04-26T09:54:04.792Z</time></trkpt><trkpt lat="45.7347777" lon="10.9583181"><ele>135.0</ele><time>2026-04-26T09:54:05.791Z</time></trkpt><trkpt lat="45.734838" lon="10.9584902"><ele>136.0</ele><time>2026-04-26T09:54:06.791Z</time></trkpt><trkpt lat="45.7348965" lon="10.9586571"><ele>137.0</ele><time>2026-04-26T09:54:07.792Z</time></trkpt><trkpt lat="45.7349506" lon="10.9588093"><ele>138.0</ele><time>2026-04-26T09:54:08.792Z</time></trkpt><trkpt lat="45.7350019" lon="10.9589609"><ele>138.0</ele><time>2026-04-26T09:54:09.792Z</time></trkpt><trkpt lat="45.7350555" lon="10.9591221"><ele>138.0</ele><time>2026-04-26T09:54:10.792Z</time></trkpt><trkpt lat="45.7351138" lon="10.9592944"><ele>138.0</ele><time>2026-04-26T09:54:11.791Z</time></trkpt><trkpt lat="45.7351722" lon="10.9594673"><ele>138.0</ele><time>2026-04-26T09:54:12.792Z</time></trkpt><trkpt lat="45.7352313" lon="10.959644"><ele>137.0</ele><time>2026-04-26T09:54:13.792Z</time></trkpt><trkpt lat="45.7352935" lon="10.9598276"><ele>136.0</ele><time>2026-04-26T09:54:14.791Z</time></trkpt><trkpt lat="45.7353555" lon="10.9600269"><ele>135.0</ele><time>2026-04-26T09:54:15.792Z</time></trkpt><trkpt lat="45.7354168" lon="10.9602368"><ele>135.0</ele><time>2026-04-26T09:54:16.792Z</time></trkpt><trkpt lat="45.7354754" lon="10.9604439"><ele>135.0</ele><time>2026-04-26T09:54:17.792Z</time></trkpt><trkpt lat="45.7355279" lon="10.9606391"><ele>135.0</ele><time>2026-04-26T09:54:18.791Z</time></trkpt><trkpt lat="45.7355809" lon="10.9608264"><ele>135.0</ele><time>2026-04-26T09:54:19.791Z</time></trkpt><trkpt lat="45.7356319" lon="10.960999"><ele>135.75</ele><time>2026-04-26T09:54:20.792Z</time></trkpt><trkpt lat="45.7356887" lon="10.9611824"><ele>136.5</ele><time>2026-04-26T09:54:21.791Z</time></trkpt><trkpt lat="45.7357399" lon="10.9613644"><ele>137.25</ele><time>2026-04-26T09:54:22.792Z</time></trkpt><trkpt lat="45.7357961" lon="10.9615704"><ele>138.0</ele><time>2026-04-26T09:54:23.791Z</time></trkpt><trkpt lat="45.7358523" lon="10.9617816"><ele>140.20000000000002</ele><time>2026-04-26T09:54:24.792Z</time></trkpt><trkpt lat="45.7359016" lon="10.9619696"><ele>142.4</ele><time>2026-04-26T09:54:25.792Z</time></trkpt><trkpt lat="45.7359454" lon="10.9621341"><ele>144.60000000000002</ele><time>2026-04-26T09:54:26.792Z</time></trkpt><trkpt lat="45.7359791" lon="10.9622605"><ele>146.8</ele><time>2026-04-26T09:54:27.791Z</time></trkpt><trkpt lat="45.7360032" lon="10.9623581"><ele>149.0</ele><time>2026-04-26T09:54:28.791Z</time></trkpt><trkpt lat="45.7360249" lon="10.9624571"><ele>145.8</ele><time>2026-04-26T09:54:30.792Z</time></trkpt><trkpt lat="45.7360388" lon="10.9626055"><ele>142.60000000000002</ele><time>2026-04-26T09:54:38.792Z</time></trkpt><trkpt lat="45.7360635" lon="10.9627303"><ele>139.4</ele><time>2026-04-26T09:54:39.792Z</time></trkpt><trkpt lat="45.7361034" lon="10.9628867"><ele>136.20000000000002</ele><time>2026-04-26T09:54:40.791Z</time></trkpt><trkpt lat="45.7361566" lon="10.9630651"><ele>133.0</ele><time>2026-04-26T09:54:41.792Z</time></trkpt><trkpt lat="45.7362225" lon="10.9632723"><ele>134.66666666666669</ele><time>2026-04-26T09:54:42.792Z</time></trkpt><trkpt lat="45.7362932" lon="10.9635117"><ele>136.33333333333334</ele><time>2026-04-26T09:54:43.791Z</time></trkpt><trkpt lat="45.7363653" lon="10.9637665"><ele>138.0</ele><time>2026-04-26T09:54:44.792Z</time></trkpt><trkpt lat="45.7364356" lon="10.9640328"><ele>139.66666666666666</ele><time>2026-04-26T09:54:45.791Z</time></trkpt><trkpt lat="45.7365022" lon="10.9642937"><ele>141.33333333333331</ele><time>2026-04-26T09:54:46.791Z</time></trkpt><trkpt lat="45.7365616" lon="10.9645504"><ele>143.0</ele><time>2026-04-26T09:54:47.791Z</time></trkpt><trkpt lat="45.7366155" lon="10.9648184"><ele>146.0</ele><time>2026-04-26T09:54:48.792Z</time></trkpt><trkpt lat="45.7366642" lon="10.9650975"><ele>149.0</ele><time>2026-04-26T09:54:49.791Z</time></trkpt><trkpt lat="45.7367151" lon="10.965392"><ele>152.0</ele><time>2026-04-26T09:54:50.792Z</time></trkpt><trkpt lat="45.736766" lon="10.9656858"><ele>153.33333333333331</ele><time>2026-04-26T09:54:51.792Z</time></trkpt><trkpt lat="45.7368185" lon="10.9659845"><ele>154.66666666666666</ele><time>2026-04-26T09:54:52.792Z</time></trkpt><trkpt lat="45.7368677" lon="10.9662926"><ele>156.0</ele><time>2026-04-26T09:54:53.791Z</time></trkpt><trkpt lat="45.7369106" lon="10.9666167"><ele>145.0</ele><time>2026-04-26T09:54:54.792Z</time></trkpt><trkpt lat="45.7369482" lon="10.9669591"><ele>134.0</ele><time>2026-04-26T09:54:55.792Z</time></trkpt><trkpt lat="45.7369852" lon="10.9673134"><ele>136.5</ele><time>2026-04-26T09:54:56.792Z</time></trkpt><trkpt lat="45.7370245" lon="10.9676658"><ele>139.0</ele><time>2026-04-26T09:54:57.792Z</time></trkpt><trkpt lat="45.737064" lon="10.9679965"><ele>139.0</ele><time>2026-04-26T09:54:58.791Z</time></trkpt><trkpt lat="45.7371002" lon="10.9683084"><ele>139.0</ele><time>2026-04-26T09:54:59.791Z</time></trkpt><trkpt lat="45.7371294" lon="10.9685968"><ele>139.0</ele><time>2026-04-26T09:55:00.792Z</time></trkpt><trkpt lat="45.7371545" lon="10.9688758"><ele>139.0</ele><time>2026-04-26T09:55:01.791Z</time></trkpt><trkpt lat="45.7371834" lon="10.9691423"><ele>139.0</ele><time>2026-04-26T09:55:02.792Z</time></trkpt><trkpt lat="45.7372174" lon="10.9693995"><ele>139.0</ele><time>2026-04-26T09:55:03.792Z</time></trkpt><trkpt lat="45.73726" lon="10.969649"><ele>139.33333333333334</ele><time>2026-04-26T09:55:04.791Z</time></trkpt><trkpt lat="45.7373183" lon="10.9698931"><ele>139.66666666666666</ele><time>2026-04-26T09:55:05.792Z</time></trkpt><trkpt lat="45.737399" lon="10.970134"><ele>140.0</ele><time>2026-04-26T09:55:06.791Z</time></trkpt><trkpt lat="45.7374947" lon="10.9703572"><ele>140.66666666666666</ele><time>2026-04-26T09:55:07.792Z</time></trkpt><trkpt lat="45.7376018" lon="10.9705652"><ele>141.33333333333334</ele><time>2026-04-26T09:55:08.791Z</time></trkpt><trkpt lat="45.7377184" lon="10.9707664"><ele>142.0</ele><time>2026-04-26T09:55:09.791Z</time></trkpt><trkpt lat="45.7378424" lon="10.9709656"><ele>142.0</ele><time>2026-04-26T09:55:10.792Z</time></trkpt><trkpt lat="45.7379646" lon="10.9711673"><ele>142.0</ele><time>2026-04-26T09:55:11.792Z</time></trkpt><trkpt lat="45.7380841" lon="10.9713674"><ele>142.0</ele><time>2026-04-26T09:55:12.792Z</time></trkpt><trkpt lat="45.7382024" lon="10.9715664"><ele>141.33333333333334</ele><time>2026-04-26T09:55:13.792Z</time></trkpt><trkpt lat="45.738325" lon="10.9717696"><ele>140.66666666666666</ele><time>2026-04-26T09:55:14.792Z</time></trkpt><trkpt lat="45.7384451" lon="10.971981"><ele>140.0</ele><time>2026-04-26T09:55:15.791Z</time></trkpt><trkpt lat="45.7385656" lon="10.9722021"><ele>140.0</ele><time>2026-04-26T09:55:16.792Z</time></trkpt><trkpt lat="45.7386834" lon="10.9724304"><ele>140.0</ele><time>2026-04-26T09:55:17.791Z</time></trkpt><trkpt lat="45.7387993" lon="10.972658"><ele>140.0</ele><time>2026-04-26T09:55:18.792Z</time></trkpt><trkpt lat="45.7389114" lon="10.9728767"><ele>141.33333333333331</ele><time>2026-04-26T09:55:19.792Z</time></trkpt><trkpt lat="45.739023" lon="10.9730942"><ele>142.66666666666666</ele><time>2026-04-26T09:55:20.791Z</time></trkpt><trkpt lat="45.7391351" lon="10.9733121"><ele>144.0</ele><time>2026-04-26T09:55:21.792Z</time></trkpt><trkpt lat="45.7392392" lon="10.9735206"><ele>143.75</ele><time>2026-04-26T09:55:22.792Z</time></trkpt><trkpt lat="45.7393247" lon="10.9737058"><ele>143.5</ele><time>2026-04-26T09:55:23.792Z</time></trkpt><trkpt lat="45.7393932" lon="10.9738864"><ele>143.25</ele><time>2026-04-26T09:55:24.792Z</time></trkpt><trkpt lat="45.7394448" lon="10.9740862"><ele>143.0</ele><time>2026-04-26T09:55:25.791Z</time></trkpt><trkpt lat="45.7394973" lon="10.9743102"><ele>143.0</ele><time>2026-04-26T09:55:26.792Z</time></trkpt><trkpt lat="45.7395714" lon="10.9745512"><ele>143.0</ele><time>2026-04-26T09:55:27.792Z</time></trkpt><trkpt lat="45.7396725" lon="10.974803"><ele>143.0</ele><time>2026-04-26T09:55:28.791Z</time></trkpt><trkpt lat="45.739781" lon="10.9750366"><ele>144.66666666666666</ele><time>2026-04-26T09:55:29.792Z</time></trkpt><trkpt lat="45.73989" lon="10.9752596"><ele>146.33333333333334</ele><time>2026-04-26T09:55:30.791Z</time></trkpt><trkpt lat="45.739992" lon="10.9754754"><ele>148.0</ele><time>2026-04-26T09:55:31.792Z</time></trkpt><trkpt lat="45.7400903" lon="10.975695"><ele>149.0</ele><time>2026-04-26T09:55:32.791Z</time></trkpt><trkpt lat="45.7401884" lon="10.9759243"><ele>150.0</ele><time>2026-04-26T09:55:33.791Z</time></trkpt><trkpt lat="45.7402894" lon="10.9761625"><ele>151.0</ele><time>2026-04-26T09:55:34.792Z</time></trkpt><trkpt lat="45.7403999" lon="10.9764099"><ele>150.0</ele><time>2026-04-26T09:55:35.791Z</time></trkpt><trkpt lat="45.7405158" lon="10.9766594"><ele>149.0</ele><time>2026-04-26T09:55:36.791Z</time></trkpt><trkpt lat="45.7406322" lon="10.9769066"><ele>148.0</ele><time>2026-04-26T09:55:37.791Z</time></trkpt><trkpt lat="45.740743" lon="10.9771516"><ele>148.0</ele><time>2026-04-26T09:55:38.792Z</time></trkpt><trkpt lat="45.740847" lon="10.9773956"><ele>148.0</ele><time>2026-04-26T09:55:39.791Z</time></trkpt><trkpt lat="45.7409413" lon="10.9776204"><ele>148.0</ele><time>2026-04-26T09:55:40.792Z</time></trkpt><trkpt lat="45.7410292" lon="10.977827"><ele>147.75</ele><time>2026-04-26T09:55:41.792Z</time></trkpt><trkpt lat="45.741112" lon="10.9780203"><ele>147.5</ele><time>2026-04-26T09:55:42.791Z</time></trkpt><trkpt lat="45.7411925" lon="10.9781969"><ele>147.25</ele><time>2026-04-26T09:55:43.792Z</time></trkpt><trkpt lat="45.7412769" lon="10.9783572"><ele>147.0</ele><time>2026-04-26T09:55:44.791Z</time></trkpt><trkpt lat="45.7413694" lon="10.9785121"><ele>147.0</ele><time>2026-04-26T09:55:45.792Z</time></trkpt><trkpt lat="45.741473" lon="10.9786694"><ele>147.0</ele><time>2026-04-26T09:55:46.791Z</time></trkpt><trkpt lat="45.7415812" lon="10.9788223"><ele>147.0</ele><time>2026-04-26T09:55:47.792Z</time></trkpt><trkpt lat="45.7416894" lon="10.978967"><ele>147.0</ele><time>2026-04-26T09:55:48.792Z</time></trkpt><trkpt lat="45.7418001" lon="10.9791139"><ele>147.0</ele><time>2026-04-26T09:55:49.792Z</time></trkpt><trkpt lat="45.7419132" lon="10.9792677"><ele>147.0</ele><time>2026-04-26T09:55:50.792Z</time></trkpt><trkpt lat="45.742024" lon="10.9794249"><ele>147.0</ele><time>2026-04-26T09:55:51.792Z</time></trkpt><trkpt lat="45.7421192" lon="10.9795684"><ele>147.0</ele><time>2026-04-26T09:55:52.792Z</time></trkpt><trkpt lat="45.742199" lon="10.9796931"><ele>147.0</ele><time>2026-04-26T09:55:53.791Z</time></trkpt><trkpt lat="45.7422627" lon="10.9797978"><ele>147.0</ele><time>2026-04-26T09:55:54.792Z</time></trkpt><trkpt lat="45.7423069" lon="10.9798833"><ele>147.0</ele><time>2026-04-26T09:55:55.792Z</time></trkpt><trkpt lat="45.742327" lon="10.9800196"><ele>147.5</ele><time>2026-04-26T09:55:57.791Z</time></trkpt><trkpt lat="45.742252" lon="10.9801506"><ele>148.0</ele><time>2026-04-26T09:55:59.792Z</time></trkpt><trkpt lat="45.7421984" lon="10.9802249"><ele>148.5</ele><time>2026-04-26T09:56:00.791Z</time></trkpt><trkpt lat="45.7421386" lon="10.980285"><ele>149.0</ele><time>2026-04-26T09:56:01.792Z</time></trkpt><trkpt lat="45.7420688" lon="10.9803119"><ele>149.5</ele><time>2026-04-26T09:56:02.792Z</time></trkpt><trkpt lat="45.7419879" lon="10.9803008"><ele>150.0</ele><time>2026-04-26T09:56:03.791Z</time></trkpt><trkpt lat="45.741889" lon="10.9802603"><ele>151.2</ele><time>2026-04-26T09:56:04.791Z</time></trkpt><trkpt lat="45.7417704" lon="10.9802081"><ele>152.4</ele><time>2026-04-26T09:56:05.792Z</time></trkpt><trkpt lat="45.7416566" lon="10.9801631"><ele>153.6</ele><time>2026-04-26T09:56:06.792Z</time></trkpt><trkpt lat="45.7415536" lon="10.9801317"><ele>154.8</ele><time>2026-04-26T09:56:07.791Z</time></trkpt><trkpt lat="45.7414622" lon="10.980124"><ele>156.0</ele><time>2026-04-26T09:56:08.791Z</time></trkpt><trkpt lat="45.7413746" lon="10.9801532"><ele>156.0</ele><time>2026-04-26T09:56:09.792Z</time></trkpt><trkpt lat="45.7412899" lon="10.9802196"><ele>156.0</ele><time>2026-04-26T09:56:10.791Z</time></trkpt><trkpt lat="45.7412047" lon="10.9802823"><ele>156.0</ele><time>2026-04-26T09:56:11.791Z</time></trkpt><trkpt lat="45.7411107" lon="10.9803169"><ele>156.0</ele><time>2026-04-26T09:56:12.791Z</time></trkpt><trkpt lat="45.741005" lon="10.9803195"><ele>156.0</ele><time>2026-04-26T09:56:13.792Z</time></trkpt><trkpt lat="45.7408788" lon="10.9803064"><ele>157.5</ele><time>2026-04-26T09:56:14.792Z</time></trkpt><trkpt lat="45.7407459" lon="10.9802803"><ele>159.0</ele><time>2026-04-26T09:56:15.801Z</time></trkpt><trkpt lat="45.7406089" lon="10.9802554"><ele>160.5</ele><time>2026-04-26T09:56:16.801Z</time></trkpt><trkpt lat="45.7405071" lon="10.980222"><ele>162.0</ele><time>2026-04-26T09:56:17.801Z</time></trkpt><trkpt lat="45.7404196" lon="10.9802067"><ele>162.0</ele><time>2026-04-26T09:56:18.8Z</time></trkpt><trkpt lat="45.7403508" lon="10.9802143"><ele>162.0</ele><time>2026-04-26T09:56:19.8Z</time></trkpt><trkpt lat="45.7402939" lon="10.9802532"><ele>162.0</ele><time>2026-04-26T09:56:20.801Z</time></trkpt><trkpt lat="45.7402384" lon="10.9803314"><ele>162.0</ele><time>2026-04-26T09:56:21.8Z</time></trkpt><trkpt lat="45.7401836" lon="10.9804371"><ele>162.0</ele><time>2026-04-26T09:56:22.8Z</time></trkpt><trkpt lat="45.7401132" lon="10.9805732"><ele>162.0</ele><time>2026-04-26T09:56:23.801Z</time></trkpt><trkpt lat="45.7400289" lon="10.9807128"><ele>162.5</ele><time>2026-04-26T09:56:24.801Z</time></trkpt><trkpt lat="45.7399348" lon="10.9808368"><ele>163.0</ele><time>2026-04-26T09:56:25.799Z</time></trkpt><trkpt lat="45.7398295" lon="10.9809546"><ele>163.5</ele><time>2026-04-26T09:56:26.801Z</time></trkpt><trkpt lat="45.7397353" lon="10.981064"><ele>164.0</ele><time>2026-04-26T09:56:27.801Z</time></trkpt><trkpt lat="45.7396466" lon="10.9811521"><ele>165.6</ele><time>2026-04-26T09:56:28.8Z</time></trkpt><trkpt lat="45.7395579" lon="10.9811913"><ele>167.2</ele><time>2026-04-26T09:56:29.8Z</time></trkpt><trkpt lat="45.739462" lon="10.9811877"><ele>168.79999999999998</ele><time>2026-04-26T09:56:30.801Z</time></trkpt><trkpt lat="45.7393466" lon="10.9811457"><ele>170.39999999999998</ele><time>2026-04-26T09:56:31.801Z</time></trkpt><trkpt lat="45.7392166" lon="10.9811022"><ele>172.0</ele><time>2026-04-26T09:56:32.801Z</time></trkpt><trkpt lat="45.7390788" lon="10.9810661"><ele>171.5</ele><time>2026-04-26T09:56:33.8Z</time></trkpt><trkpt lat="45.7389423" lon="10.9810236"><ele>171.0</ele><time>2026-04-26T09:56:34.8Z</time></trkpt><trkpt lat="45.7388138" lon="10.980963"><ele>170.5</ele><time>2026-04-26T09:56:35.8Z</time></trkpt><trkpt lat="45.7386938" lon="10.9808639"><ele>170.0</ele><time>2026-04-26T09:56:36.801Z</time></trkpt><trkpt lat="45.7385727" lon="10.980762"><ele>176.75</ele><time>2026-04-26T09:56:37.8Z</time></trkpt><trkpt lat="45.7384528" lon="10.9806619"><ele>183.5</ele><time>2026-04-26T09:56:38.8Z</time></trkpt><trkpt lat="45.7383506" lon="10.9805097"><ele>190.25</ele><time>2026-04-26T09:56:39.801Z</time></trkpt><trkpt lat="45.738248" lon="10.9803368"><ele>197.0</ele><time>2026-04-26T09:56:40.799Z</time></trkpt><trkpt lat="45.7381434" lon="10.9801519"><ele>189.0</ele><time>2026-04-26T09:56:41.801Z</time></trkpt><trkpt lat="45.7380446" lon="10.9799481"><ele>181.0</ele><time>2026-04-26T09:56:42.8Z</time></trkpt><trkpt lat="45.7379505" lon="10.9797361"><ele>173.0</ele><time>2026-04-26T09:56:43.801Z</time></trkpt><trkpt lat="45.7378508" lon="10.9795352"><ele>173.0</ele><time>2026-04-26T09:56:44.8Z</time></trkpt><trkpt lat="45.7377643" lon="10.9793569"><ele>173.0</ele><time>2026-04-26T09:56:45.799Z</time></trkpt><trkpt lat="45.7377109" lon="10.9791973"><ele>173.0</ele><time>2026-04-26T09:56:46.8Z</time></trkpt><trkpt lat="45.7376429" lon="10.9790433"><ele>173.0</ele><time>2026-04-26T09:56:47.8Z</time></trkpt><trkpt lat="45.7376109" lon="10.9788753"><ele>178.75</ele><time>2026-04-26T09:56:48.798Z</time></trkpt><trkpt lat="45.7375875" lon="10.9786942"><ele>184.5</ele><time>2026-04-26T09:56:49.799Z</time></trkpt><trkpt lat="45.7375622" lon="10.9784904"><ele>190.25</ele><time>2026-04-26T09:56:50.799Z</time></trkpt><trkpt lat="45.7375301" lon="10.9782929"><ele>196.0</ele><time>2026-04-26T09:56:51.8Z</time></trkpt><trkpt lat="45.7374995" lon="10.9781256"><ele>196.0</ele><time>2026-04-26T09:56:52.801Z</time></trkpt><trkpt lat="45.7374606" lon="10.9779783"><ele>196.0</ele><time>2026-04-26T09:56:53.8Z</time></trkpt><trkpt lat="45.737419" lon="10.9778415"><ele>196.0</ele><time>2026-04-26T09:56:54.8Z</time></trkpt><trkpt lat="45.7373158" lon="10.9777501"><ele>196.0</ele><time>2026-04-26T09:56:55.801Z</time></trkpt><trkpt lat="45.7372048" lon="10.9776546"><ele>196.0</ele><time>2026-04-26T09:56:56.799Z</time></trkpt><trkpt lat="45.7370955" lon="10.9775328"><ele>196.0</ele><time>2026-04-26T09:56:57.8Z</time></trkpt><trkpt lat="45.7369963" lon="10.9773636"><ele>196.0</ele><time>2026-04-26T09:56:58.801Z</time></trkpt><trkpt lat="45.7369025" lon="10.9771693"><ele>200.0</ele><time>2026-04-26T09:56:59.799Z</time></trkpt><trkpt lat="45.7368144" lon="10.9769798"><ele>204.0</ele><time>2026-04-26T09:57:00.8Z</time></trkpt><trkpt lat="45.736736" lon="10.9768087"><ele>208.0</ele><time>2026-04-26T09:57:01.801Z</time></trkpt><trkpt lat="45.7366695" lon="10.9766519"><ele>212.0</ele><time>2026-04-26T09:57:02.801Z</time></trkpt><trkpt lat="45.7366013" lon="10.976499"><ele>212.0</ele><time>2026-04-26T09:57:03.801Z</time></trkpt><trkpt lat="45.7365286" lon="10.9763482"><ele>212.0</ele><time>2026-04-26T09:57:04.801Z</time></trkpt><trkpt lat="45.7364512" lon="10.9762186"><ele>212.0</ele><time>2026-04-26T09:57:05.8Z</time></trkpt><trkpt lat="45.7363622" lon="10.9760886"><ele>212.0</ele><time>2026-04-26T09:57:06.8Z</time></trkpt><trkpt lat="45.7362534" lon="10.9759595"><ele>207.0</ele><time>2026-04-26T09:57:07.8Z</time></trkpt><trkpt lat="45.7361308" lon="10.9758317"><ele>202.0</ele><time>2026-04-26T09:57:08.801Z</time></trkpt><trkpt lat="45.7360003" lon="10.9757053"><ele>197.0</ele><time>2026-04-26T09:57:09.801Z</time></trkpt><trkpt lat="45.7358691" lon="10.9756014"><ele>206.5</ele><time>2026-04-26T09:57:10.8Z</time></trkpt><trkpt lat="45.7357402" lon="10.9755314"><ele>216.0</ele><time>2026-04-26T09:57:11.799Z</time></trkpt><trkpt lat="45.7356056" lon="10.9754496"><ele>225.5</ele><time>2026-04-26T09:57:12.8Z</time></trkpt><trkpt lat="45.7354649" lon="10.9753713"><ele>235.0</ele><time>2026-04-26T09:57:13.799Z</time></trkpt><trkpt lat="45.7353211" lon="10.975282"><ele>237.0</ele><time>2026-04-26T09:57:14.799Z</time></trkpt><trkpt lat="45.7351839" lon="10.9751826"><ele>239.0</ele><time>2026-04-26T09:57:15.798Z</time></trkpt><trkpt lat="45.7350571" lon="10.9750747"><ele>241.0</ele><time>2026-04-26T09:57:16.8Z</time></trkpt><trkpt lat="45.7349336" lon="10.9749582"><ele>243.0</ele><time>2026-04-26T09:57:17.8Z</time></trkpt><trkpt lat="45.7348081" lon="10.9748498"><ele>243.0</ele><time>2026-04-26T09:57:18.8Z</time></trkpt><trkpt lat="45.7346809" lon="10.9747481"><ele>243.0</ele><time>2026-04-26T09:57:19.799Z</time></trkpt><trkpt lat="45.7345241" lon="10.9746807"><ele>243.0</ele><time>2026-04-26T09:57:20.8Z</time></trkpt><trkpt lat="45.73437" lon="10.9746191"><ele>255.33333333333331</ele><time>2026-04-26T09:57:21.8Z</time></trkpt><trkpt lat="45.7342084" lon="10.9745603"><ele>267.66666666666663</ele><time>2026-04-26T09:57:22.799Z</time></trkpt><trkpt lat="45.7340429" lon="10.9745049"><ele>280.0</ele><time>2026-04-26T09:57:23.8Z</time></trkpt><trkpt lat="45.7338888" lon="10.9744385"><ele>280.0</ele><time>2026-04-26T09:57:24.801Z</time></trkpt><trkpt lat="45.7337506" lon="10.97436"><ele>280.0</ele><time>2026-04-26T09:57:25.801Z</time></trkpt><trkpt lat="45.7336234" lon="10.9742674"><ele>280.0</ele><time>2026-04-26T09:57:26.799Z</time></trkpt><trkpt lat="45.7334973" lon="10.9741823"><ele>280.0</ele><time>2026-04-26T09:57:27.8Z</time></trkpt><trkpt lat="45.7333747" lon="10.9741168"><ele>280.4</ele><time>2026-04-26T09:57:28.799Z</time></trkpt><trkpt lat="45.7332741" lon="10.9740567"><ele>280.8</ele><time>2026-04-26T09:57:29.801Z</time></trkpt><trkpt lat="45.7331823" lon="10.9740137"><ele>281.2</ele><time>2026-04-26T09:57:30.8Z</time></trkpt><trkpt lat="45.7330845" lon="10.9740028"><ele>281.6</ele><time>2026-04-26T09:57:31.8Z</time></trkpt><trkpt lat="45.7329913" lon="10.9740044"><ele>282.0</ele><time>2026-04-26T09:57:32.8Z</time></trkpt><trkpt lat="45.7328755" lon="10.9740412"><ele>282.0</ele><time>2026-04-26T09:57:33.801Z</time></trkpt><trkpt lat="45.7327608" lon="10.9740721"><ele>282.0</ele><time>2026-04-26T09:57:34.801Z</time></trkpt><trkpt lat="45.7326437" lon="10.974124"><ele>282.0</ele><time>2026-04-26T09:57:35.8Z</time></trkpt><trkpt lat="45.7325217" lon="10.9741777"><ele>282.0</ele><time>2026-04-26T09:57:36.801Z</time></trkpt><trkpt lat="45.7323865" lon="10.9742481"><ele>293.25</ele><time>2026-04-26T09:57:37.8Z</time></trkpt><trkpt lat="45.7322518" lon="10.9743292"><ele>304.5</ele><time>2026-04-26T09:57:38.8Z</time></trkpt><trkpt lat="45.7321654" lon="10.9743995"><ele>315.75</ele><time>2026-04-26T09:57:39.8Z</time></trkpt><trkpt lat="45.7320611" lon="10.9744533"><ele>327.0</ele><time>2026-04-26T09:57:40.8Z</time></trkpt><trkpt lat="45.7319501" lon="10.9744757"><ele>328.20000000000005</ele><time>2026-04-26T09:57:41.801Z</time></trkpt><trkpt lat="45.7318469" lon="10.9744648"><ele>329.4</ele><time>2026-04-26T09:57:42.8Z</time></trkpt><trkpt lat="45.731753" lon="10.9744389"><ele>330.6</ele><time>2026-04-26T09:57:43.8Z</time></trkpt><trkpt lat="45.7316591" lon="10.9743931"><ele>331.79999999999995</ele><time>2026-04-26T09:57:44.8Z</time></trkpt><trkpt lat="45.7315759" lon="10.9743163"><ele>333.0</ele><time>2026-04-26T09:57:45.8Z</time></trkpt><trkpt lat="45.7315093" lon="10.9742128"><ele>325.0</ele><time>2026-04-26T09:57:46.801Z</time></trkpt><trkpt lat="45.7314571" lon="10.9740764"><ele>317.0</ele><time>2026-04-26T09:57:47.798Z</time></trkpt><trkpt lat="45.7314333" lon="10.9739189"><ele>309.0</ele><time>2026-04-26T09:57:48.799Z</time></trkpt><trkpt lat="45.7314447" lon="10.9737524"><ele>301.0</ele><time>2026-04-26T09:57:49.8Z</time></trkpt><trkpt lat="45.7314872" lon="10.9735973"><ele>301.0</ele><time>2026-04-26T09:57:50.801Z</time></trkpt><trkpt lat="45.7315537" lon="10.9734575"><ele>301.0</ele><time>2026-04-26T09:57:51.799Z</time></trkpt><trkpt lat="45.7316566" lon="10.9733495"><ele>301.0</ele><time>2026-04-26T09:57:52.798Z</time></trkpt><trkpt lat="45.7317739" lon="10.9732553"><ele>301.0</ele><time>2026-04-26T09:57:53.8Z</time></trkpt><trkpt lat="45.7319252" lon="10.9731582"><ele>298.0</ele><time>2026-04-26T09:57:54.8Z</time></trkpt><trkpt lat="45.7320732" lon="10.9730408"><ele>295.0</ele><time>2026-04-26T09:57:55.801Z</time></trkpt><trkpt lat="45.7322108" lon="10.9729042"><ele>292.0</ele><time>2026-04-26T09:57:56.8Z</time></trkpt><trkpt lat="45.7323463" lon="10.972799"><ele>292.0</ele><time>2026-04-26T09:57:57.8Z</time></trkpt><trkpt lat="45.7324952" lon="10.9727077"><ele>292.0</ele><time>2026-04-26T09:57:58.798Z</time></trkpt><trkpt lat="45.7326326" lon="10.9726254"><ele>292.0</ele><time>2026-04-26T09:57:59.799Z</time></trkpt><trkpt lat="45.7327784" lon="10.9725112"><ele>299.3333333333333</ele><time>2026-04-26T09:58:00.799Z</time></trkpt><trkpt lat="45.7329163" lon="10.9724051"><ele>306.6666666666667</ele><time>2026-04-26T09:58:01.799Z</time></trkpt><trkpt lat="45.7330581" lon="10.9722805"><ele>314.0</ele><time>2026-04-26T09:58:02.801Z</time></trkpt><trkpt lat="45.7331726" lon="10.9721481"><ele>314.0</ele><time>2026-04-26T09:58:03.799Z</time></trkpt><trkpt lat="45.7332679" lon="10.9720661"><ele>314.0</ele><time>2026-04-26T09:58:04.801Z</time></trkpt><trkpt lat="45.7333406" lon="10.9720187"><ele>314.0</ele><time>2026-04-26T09:58:05.799Z</time></trkpt><trkpt lat="45.7334354" lon="10.9719855"><ele>314.0</ele><time>2026-04-26T09:58:06.8Z</time></trkpt><trkpt lat="45.733534" lon="10.972"><ele>314.0</ele><time>2026-04-26T09:58:07.8Z</time></trkpt><trkpt lat="45.7336588" lon="10.9720513"><ele>313.25</ele><time>2026-04-26T09:58:08.8Z</time></trkpt><trkpt lat="45.7337932" lon="10.9720859"><ele>312.5</ele><time>2026-04-26T09:58:09.799Z</time></trkpt><trkpt lat="45.7339257" lon="10.9721072"><ele>311.75</ele><time>2026-04-26T09:58:10.8Z</time></trkpt><trkpt lat="45.7340679" lon="10.9720986"><ele>311.0</ele><time>2026-04-26T09:58:11.8Z</time></trkpt><trkpt lat="45.7342307" lon="10.9720394"><ele>311.0</ele><time>2026-04-26T09:58:12.8Z</time></trkpt><trkpt lat="45.7343758" lon="10.9719924"><ele>311.0</ele><time>2026-04-26T09:58:13.8Z</time></trkpt><trkpt lat="45.7345072" lon="10.9719536"><ele>311.0</ele><time>2026-04-26T09:58:14.801Z</time></trkpt><trkpt lat="45.7346264" lon="10.9719603"><ele>311.0</ele><time>2026-04-26T09:58:15.799Z</time></trkpt><trkpt lat="45.7347169" lon="10.9719682"><ele>309.6666666666667</ele><time>2026-04-26T09:58:16.801Z</time></trkpt><trkpt lat="45.7347957" lon="10.9719763"><ele>308.33333333333337</ele><time>2026-04-26T09:58:17.8Z</time></trkpt><trkpt lat="45.7349053" lon="10.9719919"><ele>307.0</ele><time>2026-04-26T09:58:19.8Z</time></trkpt><trkpt lat="45.7349994" lon="10.9720022"><ele>305.6666666666667</ele><time>2026-04-26T09:58:21.801Z</time></trkpt><trkpt lat="45.7350768" lon="10.9719909"><ele>304.3333333333333</ele><time>2026-04-26T09:58:23.8Z</time></trkpt><trkpt lat="45.7351232" lon="10.9718939"><ele>303.0</ele><time>2026-04-26T09:58:25.801Z</time></trkpt><trkpt lat="45.7350821" lon="10.9717861"><ele>303.0</ele><time>2026-04-26T09:58:27.798Z</time></trkpt><trkpt lat="45.7349323" lon="10.9718008"><ele>303.0</ele><time>2026-04-26T09:58:29.799Z</time></trkpt><trkpt lat="45.7348436" lon="10.9718073"><ele>303.0</ele><time>2026-04-26T09:58:30.8Z</time></trkpt><trkpt lat="45.7347379" lon="10.9718044"><ele>303.0</ele><time>2026-04-26T09:58:31.801Z</time></trkpt><trkpt lat="45.7346341" lon="10.9717913"><ele>303.0</ele><time>2026-04-26T09:58:32.799Z</time></trkpt><trkpt lat="45.7345391" lon="10.971785"><ele>303.0</ele><time>2026-04-26T09:58:33.8Z</time></trkpt><trkpt lat="45.7344446" lon="10.9717884"><ele>303.0</ele><time>2026-04-26T09:58:34.801Z</time></trkpt><trkpt lat="45.7343522" lon="10.9717965"><ele>303.0</ele><time>2026-04-26T09:58:35.8Z</time></trkpt><trkpt lat="45.7342679" lon="10.9718214"><ele>303.0</ele><time>2026-04-26T09:58:36.8Z</time></trkpt><trkpt lat="45.7341759" lon="10.9718336"><ele>303.0</ele><time>2026-04-26T09:58:37.801Z</time></trkpt><trkpt lat="45.7340906" lon="10.9718255"><ele>305.0</ele><time>2026-04-26T09:58:38.801Z</time></trkpt><trkpt lat="45.7340049" lon="10.9718151"><ele>307.0</ele><time>2026-04-26T09:58:39.801Z</time></trkpt><trkpt lat="45.7339043" lon="10.9717784"><ele>309.0</ele><time>2026-04-26T09:58:40.799Z</time></trkpt><trkpt lat="45.7337773" lon="10.9716949"><ele>311.0</ele><time>2026-04-26T09:58:41.8Z</time></trkpt><trkpt lat="45.733651" lon="10.9715808"><ele>326.0</ele><time>2026-04-26T09:58:42.8Z</time></trkpt><trkpt lat="45.7335175" lon="10.9715267"><ele>341.0</ele><time>2026-04-26T09:58:43.8Z</time></trkpt><trkpt lat="45.733398" lon="10.9714808"><ele>356.0</ele><time>2026-04-26T09:58:44.8Z</time></trkpt><trkpt lat="45.7333018" lon="10.9714498"><ele>371.0</ele><time>2026-04-26T09:58:45.799Z</time></trkpt><trkpt lat="45.7332093" lon="10.9714813"><ele>371.0</ele><time>2026-04-26T09:58:46.799Z</time></trkpt><trkpt lat="45.7331175" lon="10.9715774"><ele>371.0</ele><time>2026-04-26T09:58:47.8Z</time></trkpt><trkpt lat="45.7330228" lon="10.9716912"><ele>371.0</ele><time>2026-04-26T09:58:48.801Z</time></trkpt><trkpt lat="45.7329205" lon="10.9717765"><ele>371.0</ele><time>2026-04-26T09:58:49.801Z</time></trkpt><trkpt lat="45.732799" lon="10.9718529"><ele>361.6666666666667</ele><time>2026-04-26T09:58:50.799Z</time></trkpt><trkpt lat="45.7326394" lon="10.9719017"><ele>352.3333333333333</ele><time>2026-04-26T09:58:51.8Z</time></trkpt><trkpt lat="45.7324845" lon="10.9719347"><ele>343.0</ele><time>2026-04-26T09:58:52.799Z</time></trkpt><trkpt lat="45.7323293" lon="10.9719618"><ele>343.0</ele><time>2026-04-26T09:58:53.8Z</time></trkpt><trkpt lat="45.7322064" lon="10.9719385"><ele>343.0</ele><time>2026-04-26T09:58:54.801Z</time></trkpt><trkpt lat="45.7320844" lon="10.9719359"><ele>343.0</ele><time>2026-04-26T09:58:55.801Z</time></trkpt><trkpt lat="45.7320002" lon="10.9719651"><ele>343.0</ele><time>2026-04-26T09:58:56.799Z</time></trkpt><trkpt lat="45.7319191" lon="10.9720414"><ele>343.0</ele><time>2026-04-26T09:58:57.8Z</time></trkpt><trkpt lat="45.7318581" lon="10.9721436"><ele>347.79999999999995</ele><time>2026-04-26T09:58:58.801Z</time></trkpt><trkpt lat="45.7318058" lon="10.9722608"><ele>352.6</ele><time>2026-04-26T09:58:59.801Z</time></trkpt><trkpt lat="45.7317419" lon="10.9723664"><ele>357.4</ele><time>2026-04-26T09:59:00.8Z</time></trkpt><trkpt lat="45.7316618" lon="10.9724402"><ele>362.20000000000005</ele><time>2026-04-26T09:59:01.801Z</time></trkpt><trkpt lat="45.7315678" lon="10.9724928"><ele>367.0</ele><time>2026-04-26T09:59:02.8Z</time></trkpt><trkpt lat="45.7314648" lon="10.972486"><ele>367.0</ele><time>2026-04-26T09:59:03.799Z</time></trkpt><trkpt lat="45.7313535" lon="10.9724618"><ele>367.0</ele><time>2026-04-26T09:59:04.801Z</time></trkpt><trkpt lat="45.7312333" lon="10.9724407"><ele>367.0</ele><time>2026-04-26T09:59:05.8Z</time></trkpt><trkpt lat="45.7311182" lon="10.9724275"><ele>367.0</ele><time>2026-04-26T09:59:06.801Z</time></trkpt><trkpt lat="45.7309893" lon="10.9724819"><ele>363.3333333333333</ele><time>2026-04-26T09:59:07.8Z</time></trkpt><trkpt lat="45.7308579" lon="10.9725926"><ele>359.6666666666667</ele><time>2026-04-26T09:59:08.8Z</time></trkpt><trkpt lat="45.7307235" lon="10.9726774"><ele>356.0</ele><time>2026-04-26T09:59:09.799Z</time></trkpt><trkpt lat="45.7305626" lon="10.9727363"><ele>356.0</ele><time>2026-04-26T09:59:10.801Z</time></trkpt><trkpt lat="45.7303861" lon="10.972756"><ele>356.0</ele><time>2026-04-26T09:59:11.799Z</time></trkpt><trkpt lat="45.7302085" lon="10.9727806"><ele>356.0</ele><time>2026-04-26T09:59:12.8Z</time></trkpt><trkpt lat="45.7300157" lon="10.9727451"><ele>364.6666666666667</ele><time>2026-04-26T09:59:13.8Z</time></trkpt><trkpt lat="45.7298071" lon="10.9727223"><ele>373.3333333333333</ele><time>2026-04-26T09:59:14.8Z</time></trkpt><trkpt lat="45.7296195" lon="10.9727065"><ele>382.0</ele><time>2026-04-26T09:59:15.799Z</time></trkpt><trkpt lat="45.7294543" lon="10.9726866"><ele>386.40000000000003</ele><time>2026-04-26T09:59:16.8Z</time></trkpt><trkpt lat="45.7293194" lon="10.9726793"><ele>390.8</ele><time>2026-04-26T09:59:17.799Z</time></trkpt><trkpt lat="45.7292453" lon="10.9727138"><ele>395.2</ele><time>2026-04-26T09:59:18.799Z</time></trkpt><trkpt lat="45.729153" lon="10.9727625"><ele>399.6</ele><time>2026-04-26T09:59:19.8Z</time></trkpt><trkpt lat="45.729084" lon="10.9728756"><ele>404.0</ele><time>2026-04-26T09:59:20.801Z</time></trkpt><trkpt lat="45.7290244" lon="10.9730046"><ele>404.0</ele><time>2026-04-26T09:59:21.8Z</time></trkpt><trkpt lat="45.728969" lon="10.9731451"><ele>404.0</ele><time>2026-04-26T09:59:22.8Z</time></trkpt><trkpt lat="45.7289257" lon="10.9732152"><ele>404.0</ele><time>2026-04-26T09:59:23.801Z</time></trkpt><trkpt lat="45.7288247" lon="10.9732874"><ele>404.0</ele><time>2026-04-26T09:59:25.801Z</time></trkpt><trkpt lat="45.7287575" lon="10.9732167"><ele>404.0</ele><time>2026-04-26T09:59:27.8Z</time></trkpt><trkpt lat="45.7287969" lon="10.9731112"><ele>404.0</ele><time>2026-04-26T09:59:29.8Z</time></trkpt><trkpt lat="45.7288618" lon="10.973048"><ele>404.0</ele><time>2026-04-26T09:59:30.801Z</time></trkpt><trkpt lat="45.7289259" lon="10.9729482"><ele>404.0</ele><time>2026-04-26T09:59:31.799Z</time></trkpt><trkpt lat="45.7289809" lon="10.9728405"><ele>404.0</ele><time>2026-04-26T09:59:32.799Z</time></trkpt><trkpt lat="45.7290427" lon="10.9727014"><ele>404.0</ele><time>2026-04-26T09:59:33.8Z</time></trkpt><trkpt lat="45.7291165" lon="10.9725921"><ele>411.25</ele><time>2026-04-26T09:59:34.801Z</time></trkpt><trkpt lat="45.7292008" lon="10.972506"><ele>418.5</ele><time>2026-04-26T09:59:35.8Z</time></trkpt><trkpt lat="45.729314" lon="10.972463"><ele>425.75</ele><time>2026-04-26T09:59:36.801Z</time></trkpt><trkpt lat="45.7294372" lon="10.9724657"><ele>433.0</ele><time>2026-04-26T09:59:37.799Z</time></trkpt><trkpt lat="45.7295566" lon="10.9724305"><ele>433.0</ele><time>2026-04-26T09:59:38.8Z</time></trkpt><trkpt lat="45.7296628" lon="10.9723543"><ele>433.0</ele><time>2026-04-26T09:59:39.8Z</time></trkpt><trkpt lat="45.7297655" lon="10.9722697"><ele>433.0</ele><time>2026-04-26T09:59:40.799Z</time></trkpt><trkpt lat="45.7298973" lon="10.9722251"><ele>433.0</ele><time>2026-04-26T09:59:41.799Z</time></trkpt><trkpt lat="45.7300293" lon="10.9722068"><ele>433.0</ele><time>2026-04-26T09:59:42.801Z</time></trkpt><trkpt lat="45.7301711" lon="10.9722062"><ele>433.0</ele><time>2026-04-26T09:59:43.799Z</time></trkpt><trkpt lat="45.7303172" lon="10.9722045"><ele>433.0</ele><time>2026-04-26T09:59:44.799Z</time></trkpt><trkpt lat="45.7304611" lon="10.9721603"><ele>433.0</ele><time>2026-04-26T09:59:45.8Z</time></trkpt><trkpt lat="45.730615" lon="10.9720683"><ele>427.6666666666667</ele><time>2026-04-26T09:59:46.8Z</time></trkpt><trkpt lat="45.7307675" lon="10.9719828"><ele>422.33333333333337</ele><time>2026-04-26T09:59:47.8Z</time></trkpt><trkpt lat="45.730912" lon="10.9719031"><ele>417.0</ele><time>2026-04-26T09:59:48.8Z</time></trkpt><trkpt lat="45.7310533" lon="10.9718372"><ele>420.8</ele><time>2026-04-26T09:59:49.8Z</time></trkpt><trkpt lat="45.7311616" lon="10.9718092"><ele>424.6</ele><time>2026-04-26T09:59:50.799Z</time></trkpt><trkpt lat="45.7312635" lon="10.9717603"><ele>428.40000000000003</ele><time>2026-04-26T09:59:51.801Z</time></trkpt><trkpt lat="45.7313396" lon="10.9717005"><ele>432.20000000000005</ele><time>2026-04-26T09:59:52.799Z</time></trkpt><trkpt lat="45.7313896" lon="10.9715942"><ele>436.0</ele><time>2026-04-26T09:59:53.798Z</time></trkpt><trkpt lat="45.7314331" lon="10.9714641"><ele>436.0</ele><time>2026-04-26T09:59:54.8Z</time></trkpt><trkpt lat="45.7314794" lon="10.971327"><ele>436.0</ele><time>2026-04-26T09:59:55.799Z</time></trkpt><trkpt lat="45.7315392" lon="10.9712083"><ele>436.0</ele><time>2026-04-26T09:59:56.799Z</time></trkpt><trkpt lat="45.731601" lon="10.9710852"><ele>436.0</ele><time>2026-04-26T09:59:57.801Z</time></trkpt><trkpt lat="45.7316821" lon="10.9709916"><ele>436.0</ele><time>2026-04-26T09:59:58.801Z</time></trkpt><trkpt lat="45.7317561" lon="10.9708992"><ele>438.4</ele><time>2026-04-26T09:59:59.8Z</time></trkpt><trkpt lat="45.7318406" lon="10.970828"><ele>440.8</ele><time>2026-04-26T10:00:00.8Z</time></trkpt><trkpt lat="45.7319492" lon="10.9707649"><ele>443.19999999999993</ele><time>2026-04-26T10:00:01.801Z</time></trkpt><trkpt lat="45.7320612" lon="10.9707666"><ele>445.59999999999997</ele><time>2026-04-26T10:00:02.799Z</time></trkpt><trkpt lat="45.7321688" lon="10.9707538"><ele>448.0</ele><time>2026-04-26T10:00:03.799Z</time></trkpt><trkpt lat="45.7322464" lon="10.9707386"><ele>448.00000000000006</ele><time>2026-04-26T10:00:04.8Z</time></trkpt><trkpt lat="45.732316" lon="10.9707328"><ele>448.0</ele><time>2026-04-26T10:00:05.8Z</time></trkpt><trkpt lat="45.7323784" lon="10.9707063"><ele>448.0</ele><time>2026-04-26T10:00:06.8Z</time></trkpt><trkpt lat="45.7324661" lon="10.9705897"><ele>448.0</ele><time>2026-04-26T10:00:08.799Z</time></trkpt><trkpt lat="45.7324866" lon="10.9705026"><ele>448.00000000000006</ele><time>2026-04-26T10:00:09.8Z</time></trkpt><trkpt lat="45.7324956" lon="10.9703887"><ele>448.0</ele><time>2026-04-26T10:00:10.8Z</time></trkpt><trkpt lat="45.7325121" lon="10.9702821"><ele>448.00000000000006</ele><time>2026-04-26T10:00:11.799Z</time></trkpt><trkpt lat="45.7325313" lon="10.9701787"><ele>448.0</ele><time>2026-04-26T10:00:12.801Z</time></trkpt><trkpt lat="45.7325535" lon="10.9700764"><ele>448.0</ele><time>2026-04-26T10:00:13.801Z</time></trkpt><trkpt lat="45.7325837" lon="10.9699775"><ele>448.0</ele><time>2026-04-26T10:00:14.8Z</time></trkpt><trkpt lat="45.7326503" lon="10.9699124"><ele>448.00000000000006</ele><time>2026-04-26T10:00:15.799Z</time></trkpt><trkpt lat="45.732715" lon="10.9698569"><ele>448.0</ele><time>2026-04-26T10:00:16.8Z</time></trkpt><trkpt lat="45.7328068" lon="10.9698536"><ele>452.4</ele><time>2026-04-26T10:00:17.799Z</time></trkpt><trkpt lat="45.7329087" lon="10.9698489"><ele>456.79999999999995</ele><time>2026-04-26T10:00:18.8Z</time></trkpt><trkpt lat="45.7329975" lon="10.9698452"><ele>461.2</ele><time>2026-04-26T10:00:19.801Z</time></trkpt><trkpt lat="45.7330725" lon="10.9698498"><ele>465.6</ele><time>2026-04-26T10:00:20.8Z</time></trkpt><trkpt lat="45.733182" lon="10.9698845"><ele>470.0</ele><time>2026-04-26T10:00:22.798Z</time></trkpt><trkpt lat="45.7332666" lon="10.9698937"><ele>470.0</ele><time>2026-04-26T10:00:24.8Z</time></trkpt><trkpt lat="45.7333311" lon="10.9698342"><ele>470.0</ele><time>2026-04-26T10:00:26.801Z</time></trkpt><trkpt lat="45.7333347" lon="10.9697202"><ele>470.0</ele><time>2026-04-26T10:00:28.801Z</time></trkpt><trkpt lat="45.7332566" lon="10.9697089"><ele>470.0</ele><time>2026-04-26T10:00:29.799Z</time></trkpt><trkpt lat="45.7331237" lon="10.9696807"><ele>470.0</ele><time>2026-04-26T10:00:31.8Z</time></trkpt><trkpt lat="45.7330285" lon="10.9696777"><ele>470.0</ele><time>2026-04-26T10:00:32.799Z</time></trkpt><trkpt lat="45.7329135" lon="10.9696764"><ele>470.0</ele><time>2026-04-26T10:00:33.8Z</time></trkpt><trkpt lat="45.7327963" lon="10.9696817"><ele>470.0</ele><time>2026-04-26T10:00:34.8Z</time></trkpt><trkpt lat="45.7326821" lon="10.9697049"><ele>470.0</ele><time>2026-04-26T10:00:35.8Z</time></trkpt><trkpt lat="45.7326093" lon="10.969752"><ele>470.0</ele><time>2026-04-26T10:00:36.799Z</time></trkpt><trkpt lat="45.7325286" lon="10.9698198"><ele>465.6</ele><time>2026-04-26T10:00:37.799Z</time></trkpt><trkpt lat="45.7324519" lon="10.9699374"><ele>461.2</ele><time>2026-04-26T10:00:38.8Z</time></trkpt><trkpt lat="45.732388" lon="10.970059"><ele>456.79999999999995</ele><time>2026-04-26T10:00:39.8Z</time></trkpt><trkpt lat="45.732331" lon="10.9701799"><ele>452.4</ele><time>2026-04-26T10:00:40.799Z</time></trkpt><trkpt lat="45.7322703" lon="10.9702671"><ele>448.0</ele><time>2026-04-26T10:00:41.8Z</time></trkpt><trkpt lat="45.7321936" lon="10.9703418"><ele>448.0</ele><time>2026-04-26T10:00:42.798Z</time></trkpt><trkpt lat="45.7321059" lon="10.9703469"><ele>447.99999999999994</ele><time>2026-04-26T10:00:43.8Z</time></trkpt><trkpt lat="45.7320076" lon="10.9703348"><ele>447.99999999999994</ele><time>2026-04-26T10:00:44.798Z</time></trkpt><trkpt lat="45.7319033" lon="10.9703264"><ele>448.0</ele><time>2026-04-26T10:00:45.8Z</time></trkpt><trkpt lat="45.7317792" lon="10.9703338"><ele>448.0</ele><time>2026-04-26T10:00:46.801Z</time></trkpt><trkpt lat="45.7316486" lon="10.9703809"><ele>459.25</ele><time>2026-04-26T10:00:47.799Z</time></trkpt><trkpt lat="45.7315182" lon="10.9704559"><ele>470.5</ele><time>2026-04-26T10:00:48.799Z</time></trkpt><trkpt lat="45.7314007" lon="10.970532"><ele>481.75</ele><time>2026-04-26T10:00:49.799Z</time></trkpt><trkpt lat="45.7312908" lon="10.9706234"><ele>493.0</ele><time>2026-04-26T10:00:50.8Z</time></trkpt><trkpt lat="45.731192" lon="10.9707205"><ele>493.0</ele><time>2026-04-26T10:00:51.799Z</time></trkpt><trkpt lat="45.7311315" lon="10.9708434"><ele>492.99999999999994</ele><time>2026-04-26T10:00:52.8Z</time></trkpt><trkpt lat="45.731056" lon="10.9709594"><ele>492.99999999999994</ele><time>2026-04-26T10:00:53.799Z</time></trkpt><trkpt lat="45.7309802" lon="10.9710342"><ele>493.0</ele><time>2026-04-26T10:00:54.799Z</time></trkpt><trkpt lat="45.7308921" lon="10.9710762"><ele>493.0</ele><time>2026-04-26T10:00:55.801Z</time></trkpt><trkpt lat="45.7307945" lon="10.9711019"><ele>489.0</ele><time>2026-04-26T10:00:56.8Z</time></trkpt><trkpt lat="45.7306687" lon="10.9710739"><ele>485.0</ele><time>2026-04-26T10:00:57.799Z</time></trkpt><trkpt lat="45.7305499" lon="10.971032"><ele>481.0</ele><time>2026-04-26T10:00:58.807Z</time></trkpt><trkpt lat="45.7304267" lon="10.9709465"><ele>477.0</ele><time>2026-04-26T10:00:59.798Z</time></trkpt><trkpt lat="45.7302998" lon="10.9708407"><ele>492.5</ele><time>2026-04-26T10:01:00.799Z</time></trkpt><trkpt lat="45.7301765" lon="10.9707622"><ele>508.0</ele><time>2026-04-26T10:01:01.8Z</time></trkpt><trkpt lat="45.7300436" lon="10.9707129"><ele>523.5</ele><time>2026-04-26T10:01:02.8Z</time></trkpt><trkpt lat="45.7299199" lon="10.9706637"><ele>539.0</ele><time>2026-04-26T10:01:03.799Z</time></trkpt><trkpt lat="45.7298065" lon="10.9706438"><ele>539.0</ele><time>2026-04-26T10:01:04.799Z</time></trkpt><trkpt lat="45.7296968" lon="10.9706424"><ele>539.0</ele><time>2026-04-26T10:01:05.8Z</time></trkpt><trkpt lat="45.7295954" lon="10.9706567"><ele>539.0</ele><time>2026-04-26T10:01:06.8Z</time></trkpt><trkpt lat="45.7294974" lon="10.9707419"><ele>539.0</ele><time>2026-04-26T10:01:07.8Z</time></trkpt><trkpt lat="45.7293963" lon="10.9708058"><ele>539.0</ele><time>2026-04-26T10:01:08.8Z</time></trkpt><trkpt lat="45.7292994" lon="10.9708472"><ele>539.8</ele><time>2026-04-26T10:01:09.799Z</time></trkpt><trkpt lat="45.7291947" lon="10.9708401"><ele>540.5999999999999</ele><time>2026-04-26T10:01:10.799Z</time></trkpt><trkpt lat="45.7290849" lon="10.970773"><ele>541.4</ele><time>2026-04-26T10:01:11.8Z</time></trkpt><trkpt lat="45.7289778" lon="10.9707317"><ele>542.1999999999999</ele><time>2026-04-26T10:01:12.798Z</time></trkpt><trkpt lat="45.7288759" lon="10.9707037"><ele>543.0</ele><time>2026-04-26T10:01:13.8Z</time></trkpt><trkpt lat="45.728782" lon="10.970685"><ele>543.0</ele><time>2026-04-26T10:01:14.799Z</time></trkpt><trkpt lat="45.7286874" lon="10.9707482"><ele>543.0</ele><time>2026-04-26T10:01:15.799Z</time></trkpt><trkpt lat="45.7285875" lon="10.9708333"><ele>543.0</ele><time>2026-04-26T10:01:16.801Z</time></trkpt><trkpt lat="45.7284765" lon="10.9709397"><ele>543.0</ele><time>2026-04-26T10:01:17.801Z</time></trkpt><trkpt lat="45.72836" lon="10.9710394"><ele>540.3333333333334</ele><time>2026-04-26T10:01:18.799Z</time></trkpt><trkpt lat="45.7282287" lon="10.9711404"><ele>537.6666666666667</ele><time>2026-04-26T10:01:19.798Z</time></trkpt><trkpt lat="45.7280878" lon="10.9712466"><ele>535.0</ele><time>2026-04-26T10:01:20.8Z</time></trkpt><trkpt lat="45.7279638" lon="10.9713439"><ele>535.0</ele><time>2026-04-26T10:01:21.799Z</time></trkpt><trkpt lat="45.7278522" lon="10.9714551"><ele>535.0</ele><time>2026-04-26T10:01:22.8Z</time></trkpt><trkpt lat="45.7277931" lon="10.9715862"><ele>535.0</ele><time>2026-04-26T10:01:23.801Z</time></trkpt><trkpt lat="45.7277354" lon="10.9717099"><ele>535.0</ele><time>2026-04-26T10:01:24.8Z</time></trkpt><trkpt lat="45.7276783" lon="10.9717989"><ele>535.0</ele><time>2026-04-26T10:01:25.798Z</time></trkpt><trkpt lat="45.7276065" lon="10.971858"><ele>532.3333333333334</ele><time>2026-04-26T10:01:26.799Z</time></trkpt><trkpt lat="45.7275188" lon="10.9718898"><ele>529.6666666666667</ele><time>2026-04-26T10:01:27.8Z</time></trkpt><trkpt lat="45.7274121" lon="10.9719111"><ele>527.0</ele><time>2026-04-26T10:01:28.799Z</time></trkpt><trkpt lat="45.7273245" lon="10.9719136"><ele>524.3333333333334</ele><time>2026-04-26T10:01:29.798Z</time></trkpt><trkpt lat="45.7272586" lon="10.971916"><ele>521.6666666666666</ele><time>2026-04-26T10:01:30.8Z</time></trkpt><trkpt lat="45.7271832" lon="10.9718585"><ele>519.0</ele><time>2026-04-26T10:01:32.801Z</time></trkpt><trkpt lat="45.7271979" lon="10.9717589"><ele>519.0</ele><time>2026-04-26T10:01:34.799Z</time></trkpt><trkpt lat="45.7273097" lon="10.97174"><ele>519.0</ele><time>2026-04-26T10:01:36.8Z</time></trkpt><trkpt lat="45.7273945" lon="10.9717498"><ele>519.0</ele><time>2026-04-26T10:01:37.799Z</time></trkpt><trkpt lat="45.7274873" lon="10.9717507"><ele>519.0</ele><time>2026-04-26T10:01:38.799Z</time></trkpt><trkpt lat="45.7275602" lon="10.971734"><ele>519.0</ele><time>2026-04-26T10:01:39.799Z</time></trkpt><trkpt lat="45.7276199" lon="10.9716779"><ele>519.0</ele><time>2026-04-26T10:01:40.801Z</time></trkpt><trkpt lat="45.727669" lon="10.9715794"><ele>523.0</ele><time>2026-04-26T10:01:41.799Z</time></trkpt><trkpt lat="45.7277327" lon="10.9714482"><ele>527.0</ele><time>2026-04-26T10:01:42.8Z</time></trkpt><trkpt lat="45.7278182" lon="10.9713128"><ele>531.0</ele><time>2026-04-26T10:01:43.799Z</time></trkpt><trkpt lat="45.7279112" lon="10.971181"><ele>535.0</ele><time>2026-04-26T10:01:44.8Z</time></trkpt><trkpt lat="45.7280064" lon="10.9710242"><ele>548.0</ele><time>2026-04-26T10:01:45.8Z</time></trkpt><trkpt lat="45.72811" lon="10.9708504"><ele>561.0</ele><time>2026-04-26T10:01:46.8Z</time></trkpt><trkpt lat="45.7282325" lon="10.9706859"><ele>574.0</ele><time>2026-04-26T10:01:47.799Z</time></trkpt><trkpt lat="45.7283583" lon="10.9705093"><ele>574.0</ele><time>2026-04-26T10:01:48.801Z</time></trkpt><trkpt lat="45.7284692" lon="10.9703659"><ele>574.0</ele><time>2026-04-26T10:01:49.8Z</time></trkpt><trkpt lat="45.7285845" lon="10.9702596"><ele>574.0</ele><time>2026-04-26T10:01:50.798Z</time></trkpt><trkpt lat="45.7286856" lon="10.970189"><ele>574.0</ele><time>2026-04-26T10:01:51.8Z</time></trkpt><trkpt lat="45.7287996" lon="10.9701544"><ele>577.4</ele><time>2026-04-26T10:01:52.801Z</time></trkpt><trkpt lat="45.7289096" lon="10.970151"><ele>580.8</ele><time>2026-04-26T10:01:53.8Z</time></trkpt><trkpt lat="45.7290102" lon="10.9701536"><ele>584.2</ele><time>2026-04-26T10:01:54.8Z</time></trkpt><trkpt lat="45.7291025" lon="10.9701404"><ele>587.6</ele><time>2026-04-26T10:01:55.799Z</time></trkpt><trkpt lat="45.7291745" lon="10.9700652"><ele>591.0</ele><time>2026-04-26T10:01:56.799Z</time></trkpt><trkpt lat="45.729244" lon="10.9699931"><ele>591.0</ele><time>2026-04-26T10:01:57.8Z</time></trkpt><trkpt lat="45.729319" lon="10.9698902"><ele>591.0</ele><time>2026-04-26T10:01:58.799Z</time></trkpt><trkpt lat="45.7293958" lon="10.9698161"><ele>591.0</ele><time>2026-04-26T10:01:59.8Z</time></trkpt><trkpt lat="45.729508" lon="10.9697901"><ele>591.0</ele><time>2026-04-26T10:02:00.799Z</time></trkpt><trkpt lat="45.7296348" lon="10.9697643"><ele>591.0</ele><time>2026-04-26T10:02:01.799Z</time></trkpt><trkpt lat="45.729779" lon="10.9697105"><ele>589.0</ele><time>2026-04-26T10:02:02.799Z</time></trkpt><trkpt lat="45.7299108" lon="10.9696492"><ele>587.0</ele><time>2026-04-26T10:02:03.798Z</time></trkpt><trkpt lat="45.7300297" lon="10.9696184"><ele>585.0</ele><time>2026-04-26T10:02:04.8Z</time></trkpt><trkpt lat="45.7301416" lon="10.9696037"><ele>583.0</ele><time>2026-04-26T10:02:05.799Z</time></trkpt><trkpt lat="45.7302528" lon="10.9696281"><ele>581.6</ele><time>2026-04-26T10:02:06.801Z</time></trkpt><trkpt lat="45.7303403" lon="10.9697046"><ele>580.1999999999999</ele><time>2026-04-26T10:02:07.801Z</time></trkpt><trkpt lat="45.7304482" lon="10.9697269"><ele>578.8</ele><time>2026-04-26T10:02:08.799Z</time></trkpt><trkpt lat="45.7305627" lon="10.9697327"><ele>577.4</ele><time>2026-04-26T10:02:09.8Z</time></trkpt><trkpt lat="45.7306695" lon="10.9697037"><ele>576.0</ele><time>2026-04-26T10:02:10.799Z</time></trkpt><trkpt lat="45.7307731" lon="10.9696653"><ele>576.0</ele><time>2026-04-26T10:02:11.799Z</time></trkpt><trkpt lat="45.7308667" lon="10.9695666"><ele>576.0</ele><time>2026-04-26T10:02:12.8Z</time></trkpt><trkpt lat="45.7309513" lon="10.9694462"><ele>576.0</ele><time>2026-04-26T10:02:13.799Z</time></trkpt><trkpt lat="45.7310344" lon="10.9692925"><ele>576.0</ele><time>2026-04-26T10:02:14.801Z</time></trkpt><trkpt lat="45.7311365" lon="10.9691149"><ele>575.75</ele><time>2026-04-26T10:02:15.8Z</time></trkpt><trkpt lat="45.7312368" lon="10.9689353"><ele>575.5</ele><time>2026-04-26T10:02:16.801Z</time></trkpt><trkpt lat="45.7313253" lon="10.9687775"><ele>575.25</ele><time>2026-04-26T10:02:17.8Z</time></trkpt><trkpt lat="45.7313947" lon="10.9686447"><ele>575.0</ele><time>2026-04-26T10:02:18.801Z</time></trkpt><trkpt lat="45.731453" lon="10.9685294"><ele>575.0</ele><time>2026-04-26T10:02:19.801Z</time></trkpt><trkpt lat="45.7315277" lon="10.9683716"><ele>575.0</ele><time>2026-04-26T10:02:21.8Z</time></trkpt><trkpt lat="45.7314871" lon="10.9682395"><ele>575.0</ele><time>2026-04-26T10:02:23.8Z</time></trkpt><trkpt lat="45.7314005" lon="10.9682199"><ele>575.0</ele><time>2026-04-26T10:02:25.8Z</time></trkpt><trkpt lat="45.7313511" lon="10.9682811"><ele>575.0</ele><time>2026-04-26T10:02:26.801Z</time></trkpt><trkpt lat="45.7312968" lon="10.9684192"><ele>575.0</ele><time>2026-04-26T10:02:27.801Z</time></trkpt><trkpt lat="45.7312495" lon="10.9685353"><ele>575.0</ele><time>2026-04-26T10:02:28.8Z</time></trkpt><trkpt lat="45.7311724" lon="10.9686595"><ele>575.0</ele><time>2026-04-26T10:02:29.8Z</time></trkpt><trkpt lat="45.7310889" lon="10.9687884"><ele>575.0</ele><time>2026-04-26T10:02:30.8Z</time></trkpt><trkpt lat="45.7310006" lon="10.9689076"><ele>582.6</ele><time>2026-04-26T10:02:31.799Z</time></trkpt><trkpt lat="45.7309451" lon="10.9690042"><ele>590.2</ele><time>2026-04-26T10:02:32.8Z</time></trkpt><trkpt lat="45.7308823" lon="10.9690836"><ele>597.8</ele><time>2026-04-26T10:02:33.8Z</time></trkpt><trkpt lat="45.7308284" lon="10.969139"><ele>605.4</ele><time>2026-04-26T10:02:34.799Z</time></trkpt><trkpt lat="45.7307271" lon="10.9691847"><ele>613.0</ele><time>2026-04-26T10:02:36.801Z</time></trkpt><trkpt lat="45.730601" lon="10.9691077"><ele>613.0</ele><time>2026-04-26T10:02:38.8Z</time></trkpt><trkpt lat="45.7305212" lon="10.9690386"><ele>613.0</ele><time>2026-04-26T10:02:39.8Z</time></trkpt><trkpt lat="45.7303953" lon="10.9689834"><ele>613.0</ele><time>2026-04-26T10:02:40.8Z</time></trkpt><trkpt lat="45.7302867" lon="10.9689292"><ele>613.0</ele><time>2026-04-26T10:02:41.799Z</time></trkpt><trkpt lat="45.730139" lon="10.9689302"><ele>617.75</ele><time>2026-04-26T10:02:42.798Z</time></trkpt><trkpt lat="45.7300027" lon="10.9689235"><ele>622.5</ele><time>2026-04-26T10:02:43.8Z</time></trkpt><trkpt lat="45.729883" lon="10.9689309"><ele>627.25</ele><time>2026-04-26T10:02:44.8Z</time></trkpt><trkpt lat="45.7297705" lon="10.9689255"><ele>632.0</ele><time>2026-04-26T10:02:45.799Z</time></trkpt><trkpt lat="45.7296767" lon="10.9688895"><ele>632.0</ele><time>2026-04-26T10:02:46.8Z</time></trkpt><trkpt lat="45.7296007" lon="10.9688461"><ele>632.0</ele><time>2026-04-26T10:02:47.8Z</time></trkpt><trkpt lat="45.7295274" lon="10.9688246"><ele>632.0</ele><time>2026-04-26T10:02:48.798Z</time></trkpt><trkpt lat="45.7294183" lon="10.9688202"><ele>632.0</ele><time>2026-04-26T10:02:50.8Z</time></trkpt><trkpt lat="45.7293419" lon="10.9687568"><ele>632.0</ele><time>2026-04-26T10:02:52.8Z</time></trkpt><trkpt lat="45.7293688" lon="10.9686381"><ele>632.0</ele><time>2026-04-26T10:02:54.8Z</time></trkpt><trkpt lat="45.7294336" lon="10.9686353"><ele>632.0</ele><time>2026-04-26T10:02:55.799Z</time></trkpt><trkpt lat="45.7295338" lon="10.9686422"><ele>632.0</ele><time>2026-04-26T10:02:56.799Z</time></trkpt><trkpt lat="45.7296211" lon="10.9686901"><ele>632.0</ele><time>2026-04-26T10:02:57.799Z</time></trkpt><trkpt lat="45.7297138" lon="10.968717"><ele>632.0</ele><time>2026-04-26T10:02:58.799Z</time></trkpt><trkpt lat="45.7298134" lon="10.9687366"><ele>632.0</ele><time>2026-04-26T10:02:59.8Z</time></trkpt><trkpt lat="45.729951" lon="10.9686819"><ele>632.0</ele><time>2026-04-26T10:03:00.799Z</time></trkpt><trkpt lat="45.7300702" lon="10.9686293"><ele>632.0</ele><time>2026-04-26T10:03:01.798Z</time></trkpt><trkpt lat="45.7302107" lon="10.96856"><ele>632.0</ele><time>2026-04-26T10:03:02.8Z</time></trkpt><trkpt lat="45.7303648" lon="10.9684954"><ele>632.0</ele><time>2026-04-26T10:03:03.799Z</time></trkpt><trkpt lat="45.7305048" lon="10.9684397"><ele>627.25</ele><time>2026-04-26T10:03:04.8Z</time></trkpt><trkpt lat="45.7306246" lon="10.9683792"><ele>622.5</ele><time>2026-04-26T10:03:05.798Z</time></trkpt><trkpt lat="45.7307269" lon="10.9682976"><ele>617.75</ele><time>2026-04-26T10:03:06.8Z</time></trkpt><trkpt lat="45.7308142" lon="10.9681937"><ele>613.0</ele><time>2026-04-26T10:03:07.798Z</time></trkpt><trkpt lat="45.7308596" lon="10.9680756"><ele>619.6666666666667</ele><time>2026-04-26T10:03:08.8Z</time></trkpt><trkpt lat="45.7308891" lon="10.9679743"><ele>626.3333333333334</ele><time>2026-04-26T10:03:09.801Z</time></trkpt><trkpt lat="45.730908" lon="10.9678763"><ele>633.0</ele><time>2026-04-26T10:03:10.8Z</time></trkpt><trkpt lat="45.7308227" lon="10.9677694"><ele>639.6666666666666</ele><time>2026-04-26T10:03:12.799Z</time></trkpt><trkpt lat="45.7307578" lon="10.9677764"><ele>646.3333333333333</ele><time>2026-04-26T10:03:13.799Z</time></trkpt><trkpt lat="45.7306771" lon="10.9678202"><ele>653.0</ele><time>2026-04-26T10:03:14.799Z</time></trkpt><trkpt lat="45.7305719" lon="10.9678616"><ele>653.0</ele><time>2026-04-26T10:03:15.8Z</time></trkpt><trkpt lat="45.7304428" lon="10.9678623"><ele>653.0</ele><time>2026-04-26T10:03:16.799Z</time></trkpt><trkpt lat="45.7303125" lon="10.967831"><ele>653.0</ele><time>2026-04-26T10:03:17.798Z</time></trkpt><trkpt lat="45.7301673" lon="10.9677602"><ele>653.0</ele><time>2026-04-26T10:03:18.799Z</time></trkpt><trkpt lat="45.7300056" lon="10.9676717"><ele>656.5</ele><time>2026-04-26T10:03:19.8Z</time></trkpt><trkpt lat="45.7298557" lon="10.9675962"><ele>660.0</ele><time>2026-04-26T10:03:20.801Z</time></trkpt><trkpt lat="45.7297245" lon="10.9675399"><ele>663.5</ele><time>2026-04-26T10:03:21.799Z</time></trkpt><trkpt lat="45.7296079" lon="10.9675241"><ele>667.0</ele><time>2026-04-26T10:03:22.8Z</time></trkpt><trkpt lat="45.7294952" lon="10.9675554"><ele>667.0</ele><time>2026-04-26T10:03:23.799Z</time></trkpt><trkpt lat="45.7293995" lon="10.9676307"><ele>667.0</ele><time>2026-04-26T10:03:24.799Z</time></trkpt><trkpt lat="45.7293123" lon="10.9677451"><ele>667.0</ele><time>2026-04-26T10:03:25.799Z</time></trkpt><trkpt lat="45.7292316" lon="10.9678733"><ele>667.0</ele><time>2026-04-26T10:03:26.801Z</time></trkpt><trkpt lat="45.7291549" lon="10.9679722"><ele>668.4000000000001</ele><time>2026-04-26T10:03:27.798Z</time></trkpt><trkpt lat="45.7290796" lon="10.9680552"><ele>669.8000000000001</ele><time>2026-04-26T10:03:28.801Z</time></trkpt><trkpt lat="45.7290097" lon="10.9681199"><ele>671.2</ele><time>2026-04-26T10:03:29.8Z</time></trkpt><trkpt lat="45.7288997" lon="10.9681879"><ele>672.6</ele><time>2026-04-26T10:03:31.8Z</time></trkpt><trkpt lat="45.7288197" lon="10.9681248"><ele>674.0</ele><time>2026-04-26T10:03:33.798Z</time></trkpt><trkpt lat="45.7288519" lon="10.9679878"><ele>674.0</ele><time>2026-04-26T10:03:35.799Z</time></trkpt><trkpt lat="45.7289059" lon="10.967929"><ele>674.0</ele><time>2026-04-26T10:03:36.798Z</time></trkpt><trkpt lat="45.7289772" lon="10.967857"><ele>674.0</ele><time>2026-04-26T10:03:37.799Z</time></trkpt><trkpt lat="45.7290434" lon="10.9677727"><ele>674.0</ele><time>2026-04-26T10:03:38.799Z</time></trkpt><trkpt lat="45.7290824" lon="10.9676267"><ele>674.0</ele><time>2026-04-26T10:03:39.801Z</time></trkpt><trkpt lat="45.729116" lon="10.9674501"><ele>680.5</ele><time>2026-04-26T10:03:40.798Z</time></trkpt><trkpt lat="45.7291457" lon="10.9672534"><ele>687.0</ele><time>2026-04-26T10:03:41.8Z</time></trkpt><trkpt lat="45.7291765" lon="10.9670356"><ele>693.5</ele><time>2026-04-26T10:03:42.799Z</time></trkpt><trkpt lat="45.7291949" lon="10.9668435"><ele>700.0</ele><time>2026-04-26T10:03:43.8Z</time></trkpt><trkpt lat="45.7292036" lon="10.966649"><ele>705.0</ele><time>2026-04-26T10:03:44.799Z</time></trkpt><trkpt lat="45.7292011" lon="10.9664615"><ele>710.0</ele><time>2026-04-26T10:03:45.799Z</time></trkpt><trkpt lat="45.7291902" lon="10.966286"><ele>715.0</ele><time>2026-04-26T10:03:46.799Z</time></trkpt><trkpt lat="45.7291633" lon="10.9661319"><ele>720.0</ele><time>2026-04-26T10:03:47.798Z</time></trkpt><trkpt lat="45.7290866" lon="10.9659847"><ele>720.0</ele><time>2026-04-26T10:03:48.799Z</time></trkpt><trkpt lat="45.7290199" lon="10.9658394"><ele>720.0</ele><time>2026-04-26T10:03:49.8Z</time></trkpt><trkpt lat="45.7289025" lon="10.9657019"><ele>720.0</ele><time>2026-04-26T10:03:50.8Z</time></trkpt><trkpt lat="45.7287835" lon="10.9655702"><ele>720.0</ele><time>2026-04-26T10:03:51.799Z</time></trkpt><trkpt lat="45.7286734" lon="10.965448"><ele>720.0</ele><time>2026-04-26T10:03:52.8Z</time></trkpt><trkpt lat="45.7285944" lon="10.9653219"><ele>720.0</ele><time>2026-04-26T10:03:53.8Z</time></trkpt><trkpt lat="45.7285389" lon="10.965196"><ele>720.0</ele><time>2026-04-26T10:03:54.8Z</time></trkpt><trkpt lat="45.7284918" lon="10.9650469"><ele>720.0</ele><time>2026-04-26T10:03:55.799Z</time></trkpt><trkpt lat="45.7284375" lon="10.9649118"><ele>720.0</ele><time>2026-04-26T10:03:56.799Z</time></trkpt><trkpt lat="45.7283684" lon="10.9647869"><ele>723.0</ele><time>2026-04-26T10:03:57.799Z</time></trkpt><trkpt lat="45.7282714" lon="10.9646683"><ele>726.0</ele><time>2026-04-26T10:03:58.8Z</time></trkpt><trkpt lat="45.7281788" lon="10.9645072"><ele>729.0</ele><time>2026-04-26T10:03:59.799Z</time></trkpt><trkpt lat="45.7280939" lon="10.96434"><ele>732.0</ele><time>2026-04-26T10:04:00.799Z</time></trkpt><trkpt lat="45.7280286" lon="10.9641727"><ele>732.0</ele><time>2026-04-26T10:04:01.799Z</time></trkpt><trkpt lat="45.7279723" lon="10.9640127"><ele>732.0</ele><time>2026-04-26T10:04:02.8Z</time></trkpt><trkpt lat="45.7279081" lon="10.9638383"><ele>732.0</ele><time>2026-04-26T10:04:03.8Z</time></trkpt><trkpt lat="45.7278236" lon="10.9636875"><ele>732.0</ele><time>2026-04-26T10:04:04.799Z</time></trkpt><trkpt lat="45.7277639" lon="10.9635575"><ele>737.4000000000001</ele><time>2026-04-26T10:04:05.799Z</time></trkpt><trkpt lat="45.7277264" lon="10.9634411"><ele>742.8000000000001</ele><time>2026-04-26T10:04:06.8Z</time></trkpt><trkpt lat="45.7276948" lon="10.9633602"><ele>748.2</ele><time>2026-04-26T10:04:07.8Z</time></trkpt><trkpt lat="45.7276154" lon="10.9632835"><ele>753.6</ele><time>2026-04-26T10:04:09.8Z</time></trkpt><trkpt lat="45.727549" lon="10.9633478"><ele>759.0</ele><time>2026-04-26T10:04:11.8Z</time></trkpt><trkpt lat="45.7276081" lon="10.9635431"><ele>753.6</ele><time>2026-04-26T10:04:13.799Z</time></trkpt><trkpt lat="45.7276492" lon="10.9636566"><ele>748.2</ele><time>2026-04-26T10:04:14.8Z</time></trkpt><trkpt lat="45.7276935" lon="10.9637756"><ele>742.8000000000001</ele><time>2026-04-26T10:04:15.8Z</time></trkpt><trkpt lat="45.7277288" lon="10.9639136"><ele>737.4000000000001</ele><time>2026-04-26T10:04:16.8Z</time></trkpt><trkpt lat="45.7277534" lon="10.9640442"><ele>732.0</ele><time>2026-04-26T10:04:17.799Z</time></trkpt><trkpt lat="45.7277612" lon="10.9641764"><ele>736.8</ele><time>2026-04-26T10:04:18.8Z</time></trkpt><trkpt lat="45.7277628" lon="10.9643129"><ele>741.6</ele><time>2026-04-26T10:04:19.801Z</time></trkpt><trkpt lat="45.7277936" lon="10.9644166"><ele>746.4</ele><time>2026-04-26T10:04:20.8Z</time></trkpt><trkpt lat="45.7278015" lon="10.9645476"><ele>751.1999999999999</ele><time>2026-04-26T10:04:21.8Z</time></trkpt><trkpt lat="45.7278393" lon="10.9647167"><ele>756.0</ele><time>2026-04-26T10:04:22.801Z</time></trkpt><trkpt lat="45.7279419" lon="10.9648785"><ele>756.0</ele><time>2026-04-26T10:04:23.8Z</time></trkpt><trkpt lat="45.7280128" lon="10.9650216"><ele>756.0</ele><time>2026-04-26T10:04:24.799Z</time></trkpt><trkpt lat="45.7280647" lon="10.9651672"><ele>756.0</ele><time>2026-04-26T10:04:25.798Z</time></trkpt><trkpt lat="45.7281086" lon="10.9653054"><ele>756.0</ele><time>2026-04-26T10:04:26.799Z</time></trkpt><trkpt lat="45.7281212" lon="10.9654276"><ele>756.0</ele><time>2026-04-26T10:04:27.8Z</time></trkpt><trkpt lat="45.728147" lon="10.9655482"><ele>760.5999999999999</ele><time>2026-04-26T10:04:28.798Z</time></trkpt><trkpt lat="45.728171" lon="10.9656404"><ele>765.2</ele><time>2026-04-26T10:04:29.8Z</time></trkpt><trkpt lat="45.7281985" lon="10.96578"><ele>769.8</ele><time>2026-04-26T10:04:31.8Z</time></trkpt><trkpt lat="45.7281482" lon="10.9658867"><ele>774.4000000000001</ele><time>2026-04-26T10:04:33.8Z</time></trkpt><trkpt lat="45.7280336" lon="10.9658708"><ele>779.0</ele><time>2026-04-26T10:04:35.8Z</time></trkpt><trkpt lat="45.7279671" lon="10.9658127"><ele>779.0000000000001</ele><time>2026-04-26T10:04:36.8Z</time></trkpt><trkpt lat="45.7278987" lon="10.965742"><ele>779.0</ele><time>2026-04-26T10:04:37.799Z</time></trkpt><trkpt lat="45.7278458" lon="10.9656286"><ele>779.0</ele><time>2026-04-26T10:04:38.8Z</time></trkpt><trkpt lat="45.727792" lon="10.9655339"><ele>779.0</ele><time>2026-04-26T10:04:39.799Z</time></trkpt><trkpt lat="45.7277462" lon="10.9654503"><ele>779.0000000000001</ele><time>2026-04-26T10:04:40.801Z</time></trkpt><trkpt lat="45.7277024" lon="10.9653855"><ele>779.0</ele><time>2026-04-26T10:04:41.799Z</time></trkpt><trkpt lat="45.7276047" lon="10.9653943"><ele>781.0000000000001</ele><time>2026-04-26T10:04:43.8Z</time></trkpt><trkpt lat="45.7275819" lon="10.9655311"><ele>783.0</ele><time>2026-04-26T10:04:45.799Z</time></trkpt><trkpt lat="45.7276191" lon="10.9656129"><ele>785.0</ele><time>2026-04-26T10:04:46.801Z</time></trkpt><trkpt lat="45.7276644" lon="10.9657038"><ele>787.0</ele><time>2026-04-26T10:04:47.8Z</time></trkpt><trkpt lat="45.7277116" lon="10.9658065"><ele>789.0000000000001</ele><time>2026-04-26T10:04:48.8Z</time></trkpt><trkpt lat="45.7277678" lon="10.9658978"><ele>791.0</ele><time>2026-04-26T10:04:49.8Z</time></trkpt><trkpt lat="45.7278283" lon="10.9659838"><ele>791.0000000000001</ele><time>2026-04-26T10:04:50.8Z</time></trkpt><trkpt lat="45.7278952" lon="10.9660636"><ele>791.0</ele><time>2026-04-26T10:04:51.799Z</time></trkpt><trkpt lat="45.7279585" lon="10.9661544"><ele>791.0</ele><time>2026-04-26T10:04:52.8Z</time></trkpt><trkpt lat="45.7280113" lon="10.9662511"><ele>791.0</ele><time>2026-04-26T10:04:53.8Z</time></trkpt><trkpt lat="45.7280542" lon="10.9663595"><ele>791.0000000000001</ele><time>2026-04-26T10:04:54.799Z</time></trkpt><trkpt lat="45.7280818" lon="10.9664773"><ele>791.0</ele><time>2026-04-26T10:04:55.8Z</time></trkpt><trkpt lat="45.7280951" lon="10.96661"><ele>789.1999999999999</ele><time>2026-04-26T10:04:56.8Z</time></trkpt><trkpt lat="45.7280837" lon="10.9667477"><ele>787.4</ele><time>2026-04-26T10:04:57.8Z</time></trkpt><trkpt lat="45.728053" lon="10.9668875"><ele>785.6</ele><time>2026-04-26T10:04:58.8Z</time></trkpt><trkpt lat="45.7279977" lon="10.9670284"><ele>783.8</ele><time>2026-04-26T10:04:59.798Z</time></trkpt><trkpt lat="45.7279299" lon="10.967166"><ele>782.0</ele><time>2026-04-26T10:05:00.799Z</time></trkpt><trkpt lat="45.7278484" lon="10.9672768"><ele>782.0</ele><time>2026-04-26T10:05:01.798Z</time></trkpt><trkpt lat="45.7277685" lon="10.9673774"><ele>782.0</ele><time>2026-04-26T10:05:02.799Z</time></trkpt><trkpt lat="45.7276838" lon="10.9674544"><ele>782.0</ele><time>2026-04-26T10:05:03.8Z</time></trkpt><trkpt lat="45.727584" lon="10.9675087"><ele>782.0</ele><time>2026-04-26T10:05:04.799Z</time></trkpt><trkpt lat="45.7274802" lon="10.9675622"><ele>782.0</ele><time>2026-04-26T10:05:05.799Z</time></trkpt><trkpt lat="45.7273716" lon="10.9676134"><ele>785.0</ele><time>2026-04-26T10:05:06.799Z</time></trkpt><trkpt lat="45.7272707" lon="10.9676538"><ele>788.0</ele><time>2026-04-26T10:05:07.799Z</time></trkpt><trkpt lat="45.7271801" lon="10.9676907"><ele>791.0</ele><time>2026-04-26T10:05:08.8Z</time></trkpt><trkpt lat="45.7270949" lon="10.9677156"><ele>794.0</ele><time>2026-04-26T10:05:09.799Z</time></trkpt><trkpt lat="45.7270026" lon="10.9677075"><ele>797.0</ele><time>2026-04-26T10:05:10.799Z</time></trkpt><trkpt lat="45.7269095" lon="10.9676799"><ele>797.8</ele><time>2026-04-26T10:05:11.8Z</time></trkpt><trkpt lat="45.7268191" lon="10.9676208"><ele>798.6</ele><time>2026-04-26T10:05:12.799Z</time></trkpt><trkpt lat="45.7267352" lon="10.9675293"><ele>799.4</ele><time>2026-04-26T10:05:13.799Z</time></trkpt><trkpt lat="45.72665" lon="10.9674187"><ele>800.1999999999999</ele><time>2026-04-26T10:05:14.799Z</time></trkpt><trkpt lat="45.7265646" lon="10.9673187"><ele>801.0</ele><time>2026-04-26T10:05:15.8Z</time></trkpt><trkpt lat="45.7264714" lon="10.9672276"><ele>800.5999999999999</ele><time>2026-04-26T10:05:16.8Z</time></trkpt><trkpt lat="45.7263758" lon="10.9671563"><ele>800.2</ele><time>2026-04-26T10:05:17.799Z</time></trkpt><trkpt lat="45.7262859" lon="10.9670924"><ele>799.8</ele><time>2026-04-26T10:05:18.799Z</time></trkpt><trkpt lat="45.7261994" lon="10.9670346"><ele>799.4000000000001</ele><time>2026-04-26T10:05:19.799Z</time></trkpt><trkpt lat="45.7261078" lon="10.9669776"><ele>799.0</ele><time>2026-04-26T10:05:20.799Z</time></trkpt><trkpt lat="45.7260171" lon="10.9669277"><ele>799.0</ele><time>2026-04-26T10:05:21.8Z</time></trkpt><trkpt lat="45.7259209" lon="10.9668915"><ele>799.0</ele><time>2026-04-26T10:05:22.8Z</time></trkpt><trkpt lat="45.7258254" lon="10.9668663"><ele>799.0</ele><time>2026-04-26T10:05:23.799Z</time></trkpt><trkpt lat="45.7257295" lon="10.9668454"><ele>799.0</ele><time>2026-04-26T10:05:24.799Z</time></trkpt><trkpt lat="45.7256269" lon="10.966821"><ele>799.0</ele><time>2026-04-26T10:05:25.799Z</time></trkpt><trkpt lat="45.7255312" lon="10.9668048"><ele>799.0</ele><time>2026-04-26T10:05:26.8Z</time></trkpt><trkpt lat="45.7254446" lon="10.9667896"><ele>799.0</ele><time>2026-04-26T10:05:27.799Z</time></trkpt><trkpt lat="45.7253635" lon="10.9667689"><ele>799.0</ele><time>2026-04-26T10:05:28.8Z</time></trkpt><trkpt lat="45.7252818" lon="10.9667488"><ele>799.0</ele><time>2026-04-26T10:05:29.8Z</time></trkpt><trkpt lat="45.7251887" lon="10.9667258"><ele>799.0</ele><time>2026-04-26T10:05:30.799Z</time></trkpt><trkpt lat="45.7250755" lon="10.9666989"><ele>801.25</ele><time>2026-04-26T10:05:31.799Z</time></trkpt><trkpt lat="45.7249619" lon="10.9666757"><ele>803.5</ele><time>2026-04-26T10:05:32.799Z</time></trkpt><trkpt lat="45.7248372" lon="10.9666594"><ele>805.75</ele><time>2026-04-26T10:05:33.8Z</time></trkpt><trkpt lat="45.7247063" lon="10.9666558"><ele>808.0</ele><time>2026-04-26T10:05:34.8Z</time></trkpt><trkpt lat="45.7245632" lon="10.9666761"><ele>803.3333333333333</ele><time>2026-04-26T10:05:35.799Z</time></trkpt><trkpt lat="45.7244039" lon="10.966705"><ele>798.6666666666667</ele><time>2026-04-26T10:05:36.8Z</time></trkpt><trkpt lat="45.7242433" lon="10.9667418"><ele>794.0</ele><time>2026-04-26T10:05:37.799Z</time></trkpt><trkpt lat="45.7240954" lon="10.9667802"><ele>791.5</ele><time>2026-04-26T10:05:38.8Z</time></trkpt><trkpt lat="45.7239531" lon="10.9668104"><ele>789.0</ele><time>2026-04-26T10:05:39.8Z</time></trkpt><trkpt lat="45.7238214" lon="10.9668297"><ele>786.5</ele><time>2026-04-26T10:05:40.799Z</time></trkpt><trkpt lat="45.7236886" lon="10.9668368"><ele>784.0</ele><time>2026-04-26T10:05:41.799Z</time></trkpt><trkpt lat="45.7235811" lon="10.9667886"><ele>783.1666666666666</ele><time>2026-04-26T10:05:42.799Z</time></trkpt><trkpt lat="45.7234983" lon="10.9667185"><ele>782.3333333333333</ele><time>2026-04-26T10:05:43.799Z</time></trkpt><trkpt lat="45.7234157" lon="10.96664"><ele>781.5</ele><time>2026-04-26T10:05:44.798Z</time></trkpt><trkpt lat="45.7233491" lon="10.966571"><ele>780.6666666666667</ele><time>2026-04-26T10:05:45.8Z</time></trkpt><trkpt lat="45.7232882" lon="10.9665224"><ele>779.8333333333334</ele><time>2026-04-26T10:05:46.798Z</time></trkpt><trkpt lat="45.7232153" lon="10.9665211"><ele>779.0</ele><time>2026-04-26T10:05:47.799Z</time></trkpt><trkpt lat="45.7231463" lon="10.9665166"><ele>779.0</ele><time>2026-04-26T10:05:48.8Z</time></trkpt><trkpt lat="45.7230773" lon="10.9665399"><ele>779.0</ele><time>2026-04-26T10:05:49.8Z</time></trkpt><trkpt lat="45.7229762" lon="10.9666258"><ele>779.0</ele><time>2026-04-26T10:05:51.8Z</time></trkpt><trkpt lat="45.7228647" lon="10.9666851"><ele>779.0</ele><time>2026-04-26T10:05:53.799Z</time></trkpt><trkpt lat="45.7227931" lon="10.9667166"><ele>779.0</ele><time>2026-04-26T10:05:54.798Z</time></trkpt><trkpt lat="45.7226977" lon="10.9667249"><ele>783.0000000000001</ele><time>2026-04-26T10:05:56.799Z</time></trkpt><trkpt lat="45.7226127" lon="10.9667102"><ele>787.0</ele><time>2026-04-26T10:05:58.799Z</time></trkpt><trkpt lat="45.7225773" lon="10.966617"><ele>791.0</ele><time>2026-04-26T10:06:00.799Z</time></trkpt><trkpt lat="45.7226841" lon="10.9665487"><ele>795.0</ele><time>2026-04-26T10:06:02.8Z</time></trkpt><trkpt lat="45.722756" lon="10.9665079"><ele>799.0000000000001</ele><time>2026-04-26T10:06:03.8Z</time></trkpt><trkpt lat="45.7228376" lon="10.9664505"><ele>803.0</ele><time>2026-04-26T10:06:04.799Z</time></trkpt><trkpt lat="45.7229153" lon="10.96635"><ele>808.4</ele><time>2026-04-26T10:06:05.8Z</time></trkpt><trkpt lat="45.7229945" lon="10.9662691"><ele>813.8</ele><time>2026-04-26T10:06:06.8Z</time></trkpt><trkpt lat="45.723074" lon="10.9661977"><ele>819.2</ele><time>2026-04-26T10:06:07.798Z</time></trkpt><trkpt lat="45.7231575" lon="10.9661384"><ele>824.6</ele><time>2026-04-26T10:06:08.798Z</time></trkpt><trkpt lat="45.7232412" lon="10.9660866"><ele>830.0</ele><time>2026-04-26T10:06:09.8Z</time></trkpt><trkpt lat="45.7233199" lon="10.9660883"><ele>830.0000000000001</ele><time>2026-04-26T10:06:10.8Z</time></trkpt><trkpt lat="45.7234078" lon="10.9660908"><ele>830.0</ele><time>2026-04-26T10:06:11.798Z</time></trkpt><trkpt lat="45.7234852" lon="10.9661198"><ele>830.0</ele><time>2026-04-26T10:06:12.798Z</time></trkpt><trkpt lat="45.7235521" lon="10.966139"><ele>830.0</ele><time>2026-04-26T10:06:13.8Z</time></trkpt><trkpt lat="45.7236271" lon="10.9661251"><ele>830.0000000000001</ele><time>2026-04-26T10:06:14.799Z</time></trkpt><trkpt lat="45.7237055" lon="10.9660728"><ele>830.0</ele><time>2026-04-26T10:06:15.798Z</time></trkpt><trkpt lat="45.7237709" lon="10.9660188"><ele>827.8333333333334</ele><time>2026-04-26T10:06:16.799Z</time></trkpt><trkpt lat="45.7238335" lon="10.9659451"><ele>825.6666666666667</ele><time>2026-04-26T10:06:17.799Z</time></trkpt><trkpt lat="45.7239069" lon="10.9658717"><ele>823.5</ele><time>2026-04-26T10:06:18.8Z</time></trkpt><trkpt lat="45.7239774" lon="10.965793"><ele>821.3333333333333</ele><time>2026-04-26T10:06:19.8Z</time></trkpt><trkpt lat="45.7240314" lon="10.965723"><ele>819.1666666666666</ele><time>2026-04-26T10:06:20.8Z</time></trkpt><trkpt lat="45.7240793" lon="10.9656405"><ele>817.0</ele><time>2026-04-26T10:06:21.799Z</time></trkpt><trkpt lat="45.724135" lon="10.9655064"><ele>821.3333333333333</ele><time>2026-04-26T10:06:23.8Z</time></trkpt><trkpt lat="45.7240828" lon="10.9654085"><ele>825.6666666666666</ele><time>2026-04-26T10:06:25.8Z</time></trkpt><trkpt lat="45.7239925" lon="10.9654593"><ele>830.0</ele><time>2026-04-26T10:06:27.8Z</time></trkpt><trkpt lat="45.7239375" lon="10.9655238"><ele>834.3333333333333</ele><time>2026-04-26T10:06:28.8Z</time></trkpt><trkpt lat="45.7238821" lon="10.965587"><ele>838.6666666666666</ele><time>2026-04-26T10:06:29.797Z</time></trkpt><trkpt lat="45.7237705" lon="10.9656575"><ele>843.0</ele><time>2026-04-26T10:06:31.8Z</time></trkpt><trkpt lat="45.7237044" lon="10.9656997"><ele>843.0</ele><time>2026-04-26T10:06:32.799Z</time></trkpt><trkpt lat="45.72363" lon="10.9657147"><ele>843.0</ele><time>2026-04-26T10:06:33.8Z</time></trkpt><trkpt lat="45.7235398" lon="10.9657185"><ele>843.0</ele><time>2026-04-26T10:06:34.799Z</time></trkpt><trkpt lat="45.7234274" lon="10.9657061"><ele>843.0</ele><time>2026-04-26T10:06:35.799Z</time></trkpt><trkpt lat="45.7232977" lon="10.9656877"><ele>843.0</ele><time>2026-04-26T10:06:36.799Z</time></trkpt><trkpt lat="45.7231718" lon="10.9656584"><ele>849.75</ele><time>2026-04-26T10:06:37.8Z</time></trkpt><trkpt lat="45.7230347" lon="10.9656398"><ele>856.5</ele><time>2026-04-26T10:06:38.799Z</time></trkpt><trkpt lat="45.7228894" lon="10.9656196"><ele>863.25</ele><time>2026-04-26T10:06:39.799Z</time></trkpt><trkpt lat="45.7227457" lon="10.9655858"><ele>870.0</ele><time>2026-04-26T10:06:40.799Z</time></trkpt><trkpt lat="45.7225849" lon="10.9655621"><ele>875.3333333333333</ele><time>2026-04-26T10:06:41.799Z</time></trkpt><trkpt lat="45.722403" lon="10.9655107"><ele>880.6666666666666</ele><time>2026-04-26T10:06:42.8Z</time></trkpt><trkpt lat="45.722252" lon="10.9654712"><ele>886.0</ele><time>2026-04-26T10:06:43.798Z</time></trkpt><trkpt lat="45.7221073" lon="10.9654207"><ele>886.0</ele><time>2026-04-26T10:06:44.798Z</time></trkpt><trkpt lat="45.7219739" lon="10.9653981"><ele>886.0</ele><time>2026-04-26T10:06:45.8Z</time></trkpt><trkpt lat="45.7218464" lon="10.9654013"><ele>886.0</ele><time>2026-04-26T10:06:46.8Z</time></trkpt><trkpt lat="45.7217216" lon="10.9654087"><ele>886.0</ele><time>2026-04-26T10:06:47.8Z</time></trkpt><trkpt lat="45.7215935" lon="10.9654472"><ele>891.0</ele><time>2026-04-26T10:06:48.799Z</time></trkpt><trkpt lat="45.7214808" lon="10.9655084"><ele>895.9999999999999</ele><time>2026-04-26T10:06:49.8Z</time></trkpt><trkpt lat="45.721381" lon="10.9655777"><ele>900.9999999999999</ele><time>2026-04-26T10:06:50.799Z</time></trkpt><trkpt lat="45.7212895" lon="10.9656365"><ele>906.0</ele><time>2026-04-26T10:06:51.8Z</time></trkpt><trkpt lat="45.7212478" lon="10.9657268"><ele>911.0</ele><time>2026-04-26T10:06:52.799Z</time></trkpt><trkpt lat="45.721203" lon="10.9658207"><ele>908.1999999999999</ele><time>2026-04-26T10:06:53.799Z</time></trkpt><trkpt lat="45.7211923" lon="10.9659339"><ele>905.3999999999999</ele><time>2026-04-26T10:06:54.799Z</time></trkpt><trkpt lat="45.7211925" lon="10.9660403"><ele>902.6</ele><time>2026-04-26T10:06:55.8Z</time></trkpt><trkpt lat="45.7211648" lon="10.9661945"><ele>899.8</ele><time>2026-04-26T10:06:57.8Z</time></trkpt><trkpt lat="45.7210786" lon="10.9662032"><ele>897.0</ele><time>2026-04-26T10:06:59.799Z</time></trkpt><trkpt lat="45.7210298" lon="10.9660554"><ele>905.4000000000001</ele><time>2026-04-26T10:07:01.799Z</time></trkpt><trkpt lat="45.7209898" lon="10.9659308"><ele>913.8000000000001</ele><time>2026-04-26T10:07:02.799Z</time></trkpt><trkpt lat="45.7209455" lon="10.9658065"><ele>922.2</ele><time>2026-04-26T10:07:03.799Z</time></trkpt><trkpt lat="45.7209084" lon="10.9656881"><ele>930.6</ele><time>2026-04-26T10:07:04.799Z</time></trkpt><trkpt lat="45.7209014" lon="10.9655378"><ele>939.0</ele><time>2026-04-26T10:07:05.799Z</time></trkpt><trkpt lat="45.7209518" lon="10.9654182"><ele>940.0</ele><time>2026-04-26T10:07:06.8Z</time></trkpt><trkpt lat="45.7209763" lon="10.9653233"><ele>941.0</ele><time>2026-04-26T10:07:07.799Z</time></trkpt><trkpt lat="45.720993" lon="10.9652321"><ele>942.0</ele><time>2026-04-26T10:07:08.799Z</time></trkpt><trkpt lat="45.7209428" lon="10.965124"><ele>943.0</ele><time>2026-04-26T10:07:10.799Z</time></trkpt><trkpt lat="45.7208223" lon="10.9651155"><ele>944.0</ele><time>2026-04-26T10:07:12.8Z</time></trkpt><trkpt lat="45.7207275" lon="10.9651336"><ele>945.0</ele><time>2026-04-26T10:07:13.8Z</time></trkpt><trkpt lat="45.7206158" lon="10.9651525"><ele>945.0</ele><time>2026-04-26T10:07:14.799Z</time></trkpt><trkpt lat="45.7204869" lon="10.9651672"><ele>945.0</ele><time>2026-04-26T10:07:15.797Z</time></trkpt><trkpt lat="45.7203756" lon="10.9651762"><ele>945.0</ele><time>2026-04-26T10:07:16.799Z</time></trkpt><trkpt lat="45.7202719" lon="10.9651949"><ele>945.0</ele><time>2026-04-26T10:07:17.799Z</time></trkpt><trkpt lat="45.7201968" lon="10.9652197"><ele>945.0</ele><time>2026-04-26T10:07:18.798Z</time></trkpt><trkpt lat="45.7201315" lon="10.9652611"><ele>949.5</ele><time>2026-04-26T10:07:19.799Z</time></trkpt><trkpt lat="45.7200778" lon="10.965357"><ele>954.0</ele><time>2026-04-26T10:07:21.8Z</time></trkpt><trkpt lat="45.720084" lon="10.9654509"><ele>958.5</ele><time>2026-04-26T10:07:22.799Z</time></trkpt><trkpt lat="45.7201115" lon="10.9655926"><ele>963.0</ele><time>2026-04-26T10:07:24.799Z</time></trkpt><trkpt lat="45.7200625" lon="10.965651"><ele>967.5</ele><time>2026-04-26T10:07:25.799Z</time></trkpt><trkpt lat="45.7199401" lon="10.9656525"><ele>972.0</ele><time>2026-04-26T10:07:27.8Z</time></trkpt><trkpt lat="45.7198489" lon="10.9656213"><ele>972.0</ele><time>2026-04-26T10:07:28.799Z</time></trkpt><trkpt lat="45.7197398" lon="10.9655811"><ele>972.0</ele><time>2026-04-26T10:07:29.8Z</time></trkpt><trkpt lat="45.7196132" lon="10.9655363"><ele>972.0</ele><time>2026-04-26T10:07:30.799Z</time></trkpt><trkpt lat="45.719499" lon="10.965468"><ele>972.0</ele><time>2026-04-26T10:07:31.799Z</time></trkpt><trkpt lat="45.7194253" lon="10.9653934"><ele>972.8</ele><time>2026-04-26T10:07:32.797Z</time></trkpt><trkpt lat="45.7193588" lon="10.9653093"><ele>973.6</ele><time>2026-04-26T10:07:33.8Z</time></trkpt><trkpt lat="45.7193255" lon="10.9652089"><ele>974.3999999999999</ele><time>2026-04-26T10:07:34.799Z</time></trkpt><trkpt lat="45.719324" lon="10.9651113"><ele>975.1999999999999</ele><time>2026-04-26T10:07:35.799Z</time></trkpt><trkpt lat="45.7193734" lon="10.9649698"><ele>976.0</ele><time>2026-04-26T10:07:37.799Z</time></trkpt><trkpt lat="45.7194424" lon="10.9648397"><ele>980.4</ele><time>2026-04-26T10:07:39.799Z</time></trkpt><trkpt lat="45.7193906" lon="10.9647315"><ele>984.8</ele><time>2026-04-26T10:07:41.8Z</time></trkpt><trkpt lat="45.719285" lon="10.9647168"><ele>989.1999999999999</ele><time>2026-04-26T10:07:43.8Z</time></trkpt><trkpt lat="45.7192127" lon="10.9647507"><ele>993.5999999999999</ele><time>2026-04-26T10:07:44.799Z</time></trkpt><trkpt lat="45.7191273" lon="10.9648153"><ele>998.0</ele><time>2026-04-26T10:07:45.8Z</time></trkpt><trkpt lat="45.7190484" lon="10.9649089"><ele>998.0</ele><time>2026-04-26T10:07:46.798Z</time></trkpt><trkpt lat="45.7189854" lon="10.9650215"><ele>998.0</ele><time>2026-04-26T10:07:47.8Z</time></trkpt><trkpt lat="45.7189514" lon="10.9651478"><ele>998.0</ele><time>2026-04-26T10:07:48.8Z</time></trkpt><trkpt lat="45.7189391" lon="10.965287"><ele>998.0</ele><time>2026-04-26T10:07:49.8Z</time></trkpt><trkpt lat="45.7189303" lon="10.965436"><ele>998.0</ele><time>2026-04-26T10:07:50.8Z</time></trkpt><trkpt lat="45.7189516" lon="10.9656087"><ele>998.1666666666667</ele><time>2026-04-26T10:07:51.799Z</time></trkpt><trkpt lat="45.7189725" lon="10.9657708"><ele>998.3333333333334</ele><time>2026-04-26T10:07:52.8Z</time></trkpt><trkpt lat="45.7189859" lon="10.9658699"><ele>998.5</ele><time>2026-04-26T10:07:53.799Z</time></trkpt><trkpt lat="45.7189987" lon="10.9659622"><ele>998.6666666666667</ele><time>2026-04-26T10:07:54.799Z</time></trkpt><trkpt lat="45.7189663" lon="10.9661074"><ele>998.8333333333334</ele><time>2026-04-26T10:07:56.8Z</time></trkpt><trkpt lat="45.7188969" lon="10.9661427"><ele>999.0</ele><time>2026-04-26T10:07:57.798Z</time></trkpt><trkpt lat="45.7188235" lon="10.9661663"><ele>1000.0</ele><time>2026-04-26T10:07:58.799Z</time></trkpt><trkpt lat="45.7187308" lon="10.9661891"><ele>1001.0000000000001</ele><time>2026-04-26T10:07:59.799Z</time></trkpt><trkpt lat="45.7186208" lon="10.966196"><ele>1002.0000000000001</ele><time>2026-04-26T10:08:00.799Z</time></trkpt><trkpt lat="45.7185152" lon="10.9661914"><ele>1003.0</ele><time>2026-04-26T10:08:01.8Z</time></trkpt><trkpt lat="45.7184071" lon="10.9662214"><ele>1004.0</ele><time>2026-04-26T10:08:02.799Z</time></trkpt><trkpt lat="45.7183035" lon="10.9662708"><ele>1004.0</ele><time>2026-04-26T10:08:03.798Z</time></trkpt><trkpt lat="45.7181951" lon="10.9663617"><ele>1004.0</ele><time>2026-04-26T10:08:04.799Z</time></trkpt><trkpt lat="45.718092" lon="10.9664806"><ele>1004.0</ele><time>2026-04-26T10:08:05.8Z</time></trkpt><trkpt lat="45.7179911" lon="10.9666246"><ele>1004.0</ele><time>2026-04-26T10:08:06.798Z</time></trkpt><trkpt lat="45.7178925" lon="10.9667601"><ele>1004.25</ele><time>2026-04-26T10:08:07.798Z</time></trkpt><trkpt lat="45.7177931" lon="10.9668827"><ele>1004.5</ele><time>2026-04-26T10:08:08.799Z</time></trkpt><trkpt lat="45.7176795" lon="10.9669874"><ele>1004.75</ele><time>2026-04-26T10:08:09.8Z</time></trkpt><trkpt lat="45.7175685" lon="10.967079"><ele>1005.0</ele><time>2026-04-26T10:08:10.8Z</time></trkpt><trkpt lat="45.717454" lon="10.9671705"><ele>1005.0</ele><time>2026-04-26T10:08:11.8Z</time></trkpt><trkpt lat="45.7173206" lon="10.9672462"><ele>1005.0</ele><time>2026-04-26T10:08:12.8Z</time></trkpt><trkpt lat="45.7171947" lon="10.967302"><ele>1005.0</ele><time>2026-04-26T10:08:13.799Z</time></trkpt><trkpt lat="45.7170848" lon="10.9673392"><ele>1005.0</ele><time>2026-04-26T10:08:14.8Z</time></trkpt><trkpt lat="45.7169842" lon="10.9673783"><ele>1005.0</ele><time>2026-04-26T10:08:15.799Z</time></trkpt><trkpt lat="45.7169092" lon="10.9674379"><ele>1005.0</ele><time>2026-04-26T10:08:16.8Z</time></trkpt><trkpt lat="45.716825" lon="10.9675048"><ele>1005.0</ele><time>2026-04-26T10:08:18.8Z</time></trkpt><trkpt lat="45.7167442" lon="10.9675075"><ele>1005.0</ele><time>2026-04-26T10:08:20.798Z</time></trkpt><trkpt lat="45.7167541" lon="10.9673989"><ele>1005.0</ele><time>2026-04-26T10:08:22.8Z</time></trkpt><trkpt lat="45.716827" lon="10.9672725"><ele>1005.0</ele><time>2026-04-26T10:08:24.799Z</time></trkpt><trkpt lat="45.7168906" lon="10.9671928"><ele>1005.0</ele><time>2026-04-26T10:08:25.798Z</time></trkpt><trkpt lat="45.7169783" lon="10.9671231"><ele>1005.0</ele><time>2026-04-26T10:08:26.798Z</time></trkpt><trkpt lat="45.7170692" lon="10.9670462"><ele>1005.0</ele><time>2026-04-26T10:08:27.8Z</time></trkpt><trkpt lat="45.7171321" lon="10.9669886"><ele>1005.0</ele><time>2026-04-26T10:08:28.8Z</time></trkpt><trkpt lat="45.7171781" lon="10.9669232"><ele>1005.0</ele><time>2026-04-26T10:08:29.8Z</time></trkpt><trkpt lat="45.7171754" lon="10.9668171"><ele>1005.0</ele><time>2026-04-26T10:08:31.797Z</time></trkpt><trkpt lat="45.7171024" lon="10.9667904"><ele>1005.0</ele><time>2026-04-26T10:08:33.799Z</time></trkpt><trkpt lat="45.7169616" lon="10.9668729"><ele>1005.0</ele><time>2026-04-26T10:08:35.799Z</time></trkpt><trkpt lat="45.7168748" lon="10.9669147"><ele>1005.0</ele><time>2026-04-26T10:08:36.799Z</time></trkpt><trkpt lat="45.7167801" lon="10.9669622"><ele>1005.0</ele><time>2026-04-26T10:08:37.799Z</time></trkpt><trkpt lat="45.7166841" lon="10.9669995"><ele>1006.4</ele><time>2026-04-26T10:08:38.798Z</time></trkpt><trkpt lat="45.7166038" lon="10.9670708"><ele>1007.8</ele><time>2026-04-26T10:08:39.798Z</time></trkpt><trkpt lat="45.7165252" lon="10.9671371"><ele>1009.2</ele><time>2026-04-26T10:08:40.798Z</time></trkpt><trkpt lat="45.7164842" lon="10.9672774"><ele>1010.6</ele><time>2026-04-26T10:08:41.8Z</time></trkpt><trkpt lat="45.7164434" lon="10.9674378"><ele>1012.0</ele><time>2026-04-26T10:08:42.799Z</time></trkpt><trkpt lat="45.7163871" lon="10.9676083"><ele>1012.0</ele><time>2026-04-26T10:08:43.799Z</time></trkpt><trkpt lat="45.7163362" lon="10.9677746"><ele>1012.0</ele><time>2026-04-26T10:08:44.798Z</time></trkpt><trkpt lat="45.7163121" lon="10.9679122"><ele>1012.0</ele><time>2026-04-26T10:08:45.799Z</time></trkpt><trkpt lat="45.7162665" lon="10.9680301"><ele>1012.0</ele><time>2026-04-26T10:08:46.8Z</time></trkpt><trkpt lat="45.7162059" lon="10.9681465"><ele>1012.0</ele><time>2026-04-26T10:08:47.797Z</time></trkpt><trkpt lat="45.7161357" lon="10.968311"><ele>1017.75</ele><time>2026-04-26T10:08:48.8Z</time></trkpt><trkpt lat="45.7160611" lon="10.9684714"><ele>1023.5</ele><time>2026-04-26T10:08:49.799Z</time></trkpt><trkpt lat="45.7159784" lon="10.9686119"><ele>1029.25</ele><time>2026-04-26T10:08:50.8Z</time></trkpt><trkpt lat="45.7159081" lon="10.968719"><ele>1035.0</ele><time>2026-04-26T10:08:51.798Z</time></trkpt><trkpt lat="45.7158313" lon="10.9688137"><ele>1035.0</ele><time>2026-04-26T10:08:52.798Z</time></trkpt><trkpt lat="45.7157551" lon="10.9688909"><ele>1035.0</ele><time>2026-04-26T10:08:53.8Z</time></trkpt><trkpt lat="45.7156594" lon="10.9689169"><ele>1035.0</ele><time>2026-04-26T10:08:54.799Z</time></trkpt><trkpt lat="45.7155563" lon="10.9689576"><ele>1035.0</ele><time>2026-04-26T10:08:55.799Z</time></trkpt><trkpt lat="45.715432" lon="10.9690397"><ele>1035.0</ele><time>2026-04-26T10:08:56.8Z</time></trkpt><trkpt lat="45.7153305" lon="10.9691215"><ele>1035.0</ele><time>2026-04-26T10:08:57.799Z</time></trkpt><trkpt lat="45.7152145" lon="10.9692077"><ele>1035.0</ele><time>2026-04-26T10:08:58.8Z</time></trkpt><trkpt lat="45.7150823" lon="10.9693023"><ele>1035.0</ele><time>2026-04-26T10:08:59.798Z</time></trkpt><trkpt lat="45.7149435" lon="10.9693903"><ele>1035.0</ele><time>2026-04-26T10:09:00.8Z</time></trkpt><trkpt lat="45.7148116" lon="10.9694629"><ele>1035.0</ele><time>2026-04-26T10:09:01.8Z</time></trkpt><trkpt lat="45.7146782" lon="10.9695086"><ele>1035.0</ele><time>2026-04-26T10:09:02.8Z</time></trkpt><trkpt lat="45.7145307" lon="10.969543"><ele>1035.0</ele><time>2026-04-26T10:09:03.8Z</time></trkpt><trkpt lat="45.714372" lon="10.9695591"><ele>1035.0</ele><time>2026-04-26T10:09:04.798Z</time></trkpt><trkpt lat="45.7142026" lon="10.9695619"><ele>1044.6666666666667</ele><time>2026-04-26T10:09:05.799Z</time></trkpt><trkpt lat="45.7140334" lon="10.9695648"><ele>1054.3333333333335</ele><time>2026-04-26T10:09:06.798Z</time></trkpt><trkpt lat="45.7138632" lon="10.9695914"><ele>1064.0</ele><time>2026-04-26T10:09:07.799Z</time></trkpt><trkpt lat="45.713689" lon="10.9696288"><ele>1068.0</ele><time>2026-04-26T10:09:08.798Z</time></trkpt><trkpt lat="45.7135122" lon="10.9696778"><ele>1072.0</ele><time>2026-04-26T10:09:09.798Z</time></trkpt><trkpt lat="45.7133384" lon="10.9697319"><ele>1076.0</ele><time>2026-04-26T10:09:10.799Z</time></trkpt><trkpt lat="45.7131688" lon="10.9697913"><ele>1076.0</ele><time>2026-04-26T10:09:11.799Z</time></trkpt><trkpt lat="45.7130083" lon="10.969858"><ele>1076.0</ele><time>2026-04-26T10:09:12.799Z</time></trkpt><trkpt lat="45.7128502" lon="10.9699039"><ele>1076.0</ele><time>2026-04-26T10:09:13.785Z</time></trkpt><trkpt lat="45.712421" lon="10.9700174"><ele>1080.75</ele><time>2026-04-26T10:09:16.799Z</time></trkpt><trkpt lat="45.7122866" lon="10.9700459"><ele>1085.5</ele><time>2026-04-26T10:09:17.799Z</time></trkpt><trkpt lat="45.7121537" lon="10.970084"><ele>1090.25</ele><time>2026-04-26T10:09:18.798Z</time></trkpt><trkpt lat="45.7120354" lon="10.9701423"><ele>1095.0</ele><time>2026-04-26T10:09:19.798Z</time></trkpt><trkpt lat="45.7119155" lon="10.970205"><ele>1097.5</ele><time>2026-04-26T10:09:20.799Z</time></trkpt><trkpt lat="45.7118024" lon="10.970265"><ele>1100.0</ele><time>2026-04-26T10:09:21.798Z</time></trkpt><trkpt lat="45.7116862" lon="10.9703232"><ele>1102.5</ele><time>2026-04-26T10:09:22.799Z</time></trkpt><trkpt lat="45.7115725" lon="10.9703891"><ele>1105.0</ele><time>2026-04-26T10:09:23.799Z</time></trkpt><trkpt lat="45.7114635" lon="10.9704562"><ele>1105.0</ele><time>2026-04-26T10:09:24.8Z</time></trkpt><trkpt lat="45.7113608" lon="10.9705201"><ele>1105.0</ele><time>2026-04-26T10:09:25.8Z</time></trkpt><trkpt lat="45.7112613" lon="10.9705747"><ele>1105.0</ele><time>2026-04-26T10:09:26.798Z</time></trkpt><trkpt lat="45.7111496" lon="10.970621"><ele>1105.0</ele><time>2026-04-26T10:09:27.798Z</time></trkpt><trkpt lat="45.7110395" lon="10.9706667"><ele>1105.0</ele><time>2026-04-26T10:09:28.799Z</time></trkpt><trkpt lat="45.7109122" lon="10.9707309"><ele>1108.0</ele><time>2026-04-26T10:09:29.798Z</time></trkpt><trkpt lat="45.7107997" lon="10.9707934"><ele>1111.0</ele><time>2026-04-26T10:09:30.799Z</time></trkpt><trkpt lat="45.7106888" lon="10.9708516"><ele>1114.0</ele><time>2026-04-26T10:09:31.799Z</time></trkpt><trkpt lat="45.7105844" lon="10.9709044"><ele>1117.0</ele><time>2026-04-26T10:09:32.799Z</time></trkpt><trkpt lat="45.7104736" lon="10.9709661"><ele>1119.75</ele><time>2026-04-26T10:09:33.799Z</time></trkpt><trkpt lat="45.7103618" lon="10.971029"><ele>1122.5</ele><time>2026-04-26T10:09:34.8Z</time></trkpt><trkpt lat="45.710252" lon="10.9710995"><ele>1125.25</ele><time>2026-04-26T10:09:35.799Z</time></trkpt><trkpt lat="45.7101446" lon="10.9711822"><ele>1128.0</ele><time>2026-04-26T10:09:36.798Z</time></trkpt><trkpt lat="45.7100379" lon="10.9712676"><ele>1128.0</ele><time>2026-04-26T10:09:37.798Z</time></trkpt><trkpt lat="45.7099296" lon="10.9713825"><ele>1128.0</ele><time>2026-04-26T10:09:38.8Z</time></trkpt><trkpt lat="45.7098192" lon="10.9715067"><ele>1128.0</ele><time>2026-04-26T10:09:39.799Z</time></trkpt><trkpt lat="45.7097223" lon="10.9716229"><ele>1128.0</ele><time>2026-04-26T10:09:40.797Z</time></trkpt><trkpt lat="45.709631" lon="10.9717426"><ele>1130.6</ele><time>2026-04-26T10:09:41.8Z</time></trkpt><trkpt lat="45.7095417" lon="10.9718539"><ele>1133.1999999999998</ele><time>2026-04-26T10:09:42.798Z</time></trkpt><trkpt lat="45.7094583" lon="10.971958"><ele>1135.8</ele><time>2026-04-26T10:09:43.799Z</time></trkpt><trkpt lat="45.7093847" lon="10.9720389"><ele>1138.3999999999999</ele><time>2026-04-26T10:09:44.799Z</time></trkpt><trkpt lat="45.7092956" lon="10.9721224"><ele>1141.0</ele><time>2026-04-26T10:09:45.799Z</time></trkpt><trkpt lat="45.709185" lon="10.9722101"><ele>1141.0</ele><time>2026-04-26T10:09:46.8Z</time></trkpt><trkpt lat="45.7090708" lon="10.9722995"><ele>1141.0</ele><time>2026-04-26T10:09:47.8Z</time></trkpt><trkpt lat="45.7089497" lon="10.972374"><ele>1141.0</ele><time>2026-04-26T10:09:48.798Z</time></trkpt><trkpt lat="45.708833" lon="10.9724421"><ele>1141.0</ele><time>2026-04-26T10:09:49.8Z</time></trkpt><trkpt lat="45.7087256" lon="10.9725038"><ele>1142.5</ele><time>2026-04-26T10:09:50.799Z</time></trkpt><trkpt lat="45.7086216" lon="10.9725637"><ele>1144.0</ele><time>2026-04-26T10:09:51.799Z</time></trkpt><trkpt lat="45.7085173" lon="10.9726258"><ele>1145.5</ele><time>2026-04-26T10:09:52.798Z</time></trkpt><trkpt lat="45.7083981" lon="10.9726752"><ele>1147.0</ele><time>2026-04-26T10:09:53.8Z</time></trkpt><trkpt lat="45.7082712" lon="10.9727285"><ele>1147.0</ele><time>2026-04-26T10:09:54.799Z</time></trkpt><trkpt lat="45.7081448" lon="10.9727944"><ele>1147.0</ele><time>2026-04-26T10:09:55.8Z</time></trkpt><trkpt lat="45.7080157" lon="10.9728677"><ele>1147.0</ele><time>2026-04-26T10:09:56.799Z</time></trkpt><trkpt lat="45.7078829" lon="10.9729417"><ele>1147.0</ele><time>2026-04-26T10:09:57.799Z</time></trkpt><trkpt lat="45.707754" lon="10.9730165"><ele>1150.0</ele><time>2026-04-26T10:09:58.798Z</time></trkpt><trkpt lat="45.707633" lon="10.9730966"><ele>1153.0</ele><time>2026-04-26T10:09:59.8Z</time></trkpt><trkpt lat="45.7075223" lon="10.9731693"><ele>1156.0</ele><time>2026-04-26T10:10:00.8Z</time></trkpt><trkpt lat="45.7074168" lon="10.9732386"><ele>1159.0</ele><time>2026-04-26T10:10:01.798Z</time></trkpt><trkpt lat="45.7073129" lon="10.9732803"><ele>1159.0</ele><time>2026-04-26T10:10:02.799Z</time></trkpt><trkpt lat="45.7072023" lon="10.9732974"><ele>1159.0</ele><time>2026-04-26T10:10:03.8Z</time></trkpt><trkpt lat="45.7070763" lon="10.9733023"><ele>1159.0</ele><time>2026-04-26T10:10:04.799Z</time></trkpt><trkpt lat="45.7069461" lon="10.9732965"><ele>1159.0</ele><time>2026-04-26T10:10:05.799Z</time></trkpt><trkpt lat="45.7068193" lon="10.9732627"><ele>1162.75</ele><time>2026-04-26T10:10:06.799Z</time></trkpt><trkpt lat="45.7066915" lon="10.9732138"><ele>1166.5</ele><time>2026-04-26T10:10:07.799Z</time></trkpt><trkpt lat="45.7065634" lon="10.9731808"><ele>1170.25</ele><time>2026-04-26T10:10:08.799Z</time></trkpt><trkpt lat="45.7064407" lon="10.9731413"><ele>1174.0</ele><time>2026-04-26T10:10:09.8Z</time></trkpt><trkpt lat="45.7063274" lon="10.973052"><ele>1174.0</ele><time>2026-04-26T10:10:10.8Z</time></trkpt><trkpt lat="45.7062089" lon="10.9729478"><ele>1174.0</ele><time>2026-04-26T10:10:11.8Z</time></trkpt><trkpt lat="45.7060935" lon="10.9728284"><ele>1174.0</ele><time>2026-04-26T10:10:12.799Z</time></trkpt><trkpt lat="45.7059966" lon="10.9727166"><ele>1174.0</ele><time>2026-04-26T10:10:13.799Z</time></trkpt><trkpt lat="45.7058938" lon="10.9726193"><ele>1176.25</ele><time>2026-04-26T10:10:14.799Z</time></trkpt><trkpt lat="45.7057771" lon="10.9725828"><ele>1178.5</ele><time>2026-04-26T10:10:15.8Z</time></trkpt><trkpt lat="45.7056562" lon="10.9725505"><ele>1180.75</ele><time>2026-04-26T10:10:16.799Z</time></trkpt><trkpt lat="45.705508" lon="10.9725417"><ele>1183.0</ele><time>2026-04-26T10:10:17.8Z</time></trkpt><trkpt lat="45.7053668" lon="10.9725475"><ele>1185.3333333333333</ele><time>2026-04-26T10:10:18.799Z</time></trkpt><trkpt lat="45.7052246" lon="10.9725543"><ele>1187.6666666666667</ele><time>2026-04-26T10:10:19.798Z</time></trkpt><trkpt lat="45.7050708" lon="10.9726292"><ele>1190.0</ele><time>2026-04-26T10:10:20.798Z</time></trkpt><trkpt lat="45.7049011" lon="10.9727441"><ele>1190.0</ele><time>2026-04-26T10:10:21.799Z</time></trkpt><trkpt lat="45.7047646" lon="10.97284"><ele>1190.0</ele><time>2026-04-26T10:10:22.799Z</time></trkpt><trkpt lat="45.7046565" lon="10.9729334"><ele>1190.0</ele><time>2026-04-26T10:10:23.8Z</time></trkpt><trkpt lat="45.7045754" lon="10.9730432"><ele>1190.0</ele><time>2026-04-26T10:10:24.8Z</time></trkpt><trkpt lat="45.7044931" lon="10.9731455"><ele>1189.5</ele><time>2026-04-26T10:10:25.8Z</time></trkpt><trkpt lat="45.7043912" lon="10.9732165"><ele>1189.0</ele><time>2026-04-26T10:10:26.8Z</time></trkpt><trkpt lat="45.7042801" lon="10.9732495"><ele>1188.5</ele><time>2026-04-26T10:10:27.8Z</time></trkpt><trkpt lat="45.7041549" lon="10.9732371"><ele>1188.0</ele><time>2026-04-26T10:10:28.8Z</time></trkpt><trkpt lat="45.7040109" lon="10.9731776"><ele>1188.0</ele><time>2026-04-26T10:10:29.8Z</time></trkpt><trkpt lat="45.703852" lon="10.9730825"><ele>1188.0</ele><time>2026-04-26T10:10:30.799Z</time></trkpt><trkpt lat="45.7036802" lon="10.9729684"><ele>1188.0</ele><time>2026-04-26T10:10:31.8Z</time></trkpt><trkpt lat="45.7035141" lon="10.9728594"><ele>1192.3333333333333</ele><time>2026-04-26T10:10:32.8Z</time></trkpt><trkpt lat="45.7033496" lon="10.972752"><ele>1196.6666666666665</ele><time>2026-04-26T10:10:33.799Z</time></trkpt><trkpt lat="45.7032018" lon="10.972657"><ele>1201.0</ele><time>2026-04-26T10:10:34.8Z</time></trkpt><trkpt lat="45.7030726" lon="10.9725628"><ele>1199.25</ele><time>2026-04-26T10:10:35.799Z</time></trkpt><trkpt lat="45.7029604" lon="10.9725068"><ele>1197.5</ele><time>2026-04-26T10:10:36.8Z</time></trkpt><trkpt lat="45.702852" lon="10.9724857"><ele>1195.75</ele><time>2026-04-26T10:10:37.8Z</time></trkpt><trkpt lat="45.7027414" lon="10.9724974"><ele>1194.0</ele><time>2026-04-26T10:10:38.798Z</time></trkpt><trkpt lat="45.7026296" lon="10.9725261"><ele>1201.3333333333333</ele><time>2026-04-26T10:10:39.799Z</time></trkpt><trkpt lat="45.7025005" lon="10.9725714"><ele>1208.6666666666665</ele><time>2026-04-26T10:10:40.798Z</time></trkpt><trkpt lat="45.702352" lon="10.9726209"><ele>1216.0</ele><time>2026-04-26T10:10:41.799Z</time></trkpt><trkpt lat="45.7021755" lon="10.9726754"><ele>1216.0</ele><time>2026-04-26T10:10:42.8Z</time></trkpt><trkpt lat="45.7020013" lon="10.9727272"><ele>1216.0</ele><time>2026-04-26T10:10:43.8Z</time></trkpt><trkpt lat="45.7018103" lon="10.9727857"><ele>1216.0</ele><time>2026-04-26T10:10:44.799Z</time></trkpt><trkpt lat="45.7016008" lon="10.9728527"><ele>1215.5</ele><time>2026-04-26T10:10:45.799Z</time></trkpt><trkpt lat="45.7013759" lon="10.9729165"><ele>1215.0</ele><time>2026-04-26T10:10:46.799Z</time></trkpt><trkpt lat="45.7011446" lon="10.9729814"><ele>1216.0</ele><time>2026-04-26T10:10:47.799Z</time></trkpt><trkpt lat="45.7009316" lon="10.9730523"><ele>1217.0</ele><time>2026-04-26T10:10:48.799Z</time></trkpt><trkpt lat="45.7007238" lon="10.973132"><ele>1218.0</ele><time>2026-04-26T10:10:49.799Z</time></trkpt><trkpt lat="45.7005192" lon="10.9732229"><ele>1218.0</ele><time>2026-04-26T10:10:50.799Z</time></trkpt><trkpt lat="45.7003239" lon="10.9733169"><ele>1218.0</ele><time>2026-04-26T10:10:51.8Z</time></trkpt><trkpt lat="45.7001369" lon="10.9734006"><ele>1218.0</ele><time>2026-04-26T10:10:52.799Z</time></trkpt><trkpt lat="45.6999649" lon="10.9734838"><ele>1224.0</ele><time>2026-04-26T10:10:53.799Z</time></trkpt><trkpt lat="45.699808" lon="10.9735557"><ele>1230.0</ele><time>2026-04-26T10:10:54.8Z</time></trkpt><trkpt lat="45.699658" lon="10.9736196"><ele>1236.0</ele><time>2026-04-26T10:10:55.8Z</time></trkpt><trkpt lat="45.6995111" lon="10.9736843"><ele>1235.25</ele><time>2026-04-26T10:10:56.8Z</time></trkpt><trkpt lat="45.6993643" lon="10.9737401"><ele>1234.5</ele><time>2026-04-26T10:10:57.799Z</time></trkpt><trkpt lat="45.6992188" lon="10.9737689"><ele>1233.75</ele><time>2026-04-26T10:10:58.799Z</time></trkpt><trkpt lat="45.699081" lon="10.9738005"><ele>1233.0</ele><time>2026-04-26T10:10:59.8Z</time></trkpt><trkpt lat="45.698945" lon="10.9738288"><ele>1233.0</ele><time>2026-04-26T10:11:00.8Z</time></trkpt><trkpt lat="45.6988065" lon="10.9738679"><ele>1233.0</ele><time>2026-04-26T10:11:01.799Z</time></trkpt><trkpt lat="45.6986625" lon="10.9739111"><ele>1233.0</ele><time>2026-04-26T10:11:02.8Z</time></trkpt><trkpt lat="45.6985257" lon="10.9739525"><ele>1233.0</ele><time>2026-04-26T10:11:03.799Z</time></trkpt><trkpt lat="45.6983979" lon="10.9739864"><ele>1231.5</ele><time>2026-04-26T10:11:04.799Z</time></trkpt><trkpt lat="45.6982643" lon="10.9740197"><ele>1230.0</ele><time>2026-04-26T10:11:05.798Z</time></trkpt><trkpt lat="45.6981273" lon="10.9740624"><ele>1228.5</ele><time>2026-04-26T10:11:06.799Z</time></trkpt><trkpt lat="45.6979813" lon="10.9741212"><ele>1227.0</ele><time>2026-04-26T10:11:07.799Z</time></trkpt><trkpt lat="45.6978164" lon="10.9742214"><ele>1230.0</ele><time>2026-04-26T10:11:08.798Z</time></trkpt><trkpt lat="45.6976544" lon="10.9743167"><ele>1233.0</ele><time>2026-04-26T10:11:09.799Z</time></trkpt><trkpt lat="45.6975042" lon="10.9744131"><ele>1236.0</ele><time>2026-04-26T10:11:10.799Z</time></trkpt><trkpt lat="45.6973718" lon="10.9745152"><ele>1236.0</ele><time>2026-04-26T10:11:11.798Z</time></trkpt><trkpt lat="45.6972558" lon="10.9746274"><ele>1236.0</ele><time>2026-04-26T10:11:12.799Z</time></trkpt><trkpt lat="45.6971568" lon="10.9747508"><ele>1236.0</ele><time>2026-04-26T10:11:13.798Z</time></trkpt><trkpt lat="45.6970711" lon="10.974883"><ele>1236.0</ele><time>2026-04-26T10:11:14.8Z</time></trkpt><trkpt lat="45.6969862" lon="10.9749957"><ele>1238.75</ele><time>2026-04-26T10:11:15.797Z</time></trkpt><trkpt lat="45.6968894" lon="10.9750828"><ele>1241.5</ele><time>2026-04-26T10:11:16.8Z</time></trkpt><trkpt lat="45.6967901" lon="10.9751516"><ele>1244.25</ele><time>2026-04-26T10:11:17.799Z</time></trkpt><trkpt lat="45.6966857" lon="10.9752156"><ele>1247.0</ele><time>2026-04-26T10:11:18.799Z</time></trkpt><trkpt lat="45.6965712" lon="10.9752618"><ele>1247.0</ele><time>2026-04-26T10:11:19.8Z</time></trkpt><trkpt lat="45.6964575" lon="10.9753051"><ele>1247.0</ele><time>2026-04-26T10:11:20.8Z</time></trkpt><trkpt lat="45.6963479" lon="10.9753339"><ele>1247.0</ele><time>2026-04-26T10:11:21.798Z</time></trkpt><trkpt lat="45.6962483" lon="10.9753738"><ele>1247.0</ele><time>2026-04-26T10:11:22.8Z</time></trkpt><trkpt lat="45.6961548" lon="10.9754088"><ele>1247.0</ele><time>2026-04-26T10:11:23.8Z</time></trkpt><trkpt lat="45.6960611" lon="10.9754487"><ele>1247.0</ele><time>2026-04-26T10:11:24.799Z</time></trkpt><trkpt lat="45.6959671" lon="10.9754831"><ele>1247.0</ele><time>2026-04-26T10:11:25.8Z</time></trkpt><trkpt lat="45.6958616" lon="10.9755155"><ele>1247.0</ele><time>2026-04-26T10:11:26.8Z</time></trkpt><trkpt lat="45.6957549" lon="10.9755505"><ele>1247.0</ele><time>2026-04-26T10:11:27.8Z</time></trkpt><trkpt lat="45.6956504" lon="10.975581"><ele>1247.0</ele><time>2026-04-26T10:11:28.799Z</time></trkpt><trkpt lat="45.6955447" lon="10.9756104"><ele>1247.0</ele><time>2026-04-26T10:11:29.799Z</time></trkpt><trkpt lat="45.6954335" lon="10.9756428"><ele>1247.0</ele><time>2026-04-26T10:11:30.798Z</time></trkpt><trkpt lat="45.6953281" lon="10.9756691"><ele>1247.0</ele><time>2026-04-26T10:11:31.797Z</time></trkpt><trkpt lat="45.6952134" lon="10.9756961"><ele>1247.0</ele><time>2026-04-26T10:11:32.798Z</time></trkpt><trkpt lat="45.6951009" lon="10.9757305"><ele>1246.4</ele><time>2026-04-26T10:11:33.8Z</time></trkpt><trkpt lat="45.6949885" lon="10.9757599"><ele>1245.8000000000002</ele><time>2026-04-26T10:11:34.799Z</time></trkpt><trkpt lat="45.6948811" lon="10.9757756"><ele>1245.2</ele><time>2026-04-26T10:11:35.8Z</time></trkpt><trkpt lat="45.6947837" lon="10.9757973"><ele>1244.6000000000001</ele><time>2026-04-26T10:11:36.799Z</time></trkpt><trkpt lat="45.6946813" lon="10.9758234"><ele>1244.0</ele><time>2026-04-26T10:11:37.8Z</time></trkpt><trkpt lat="45.6945917" lon="10.9758868"><ele>1245.75</ele><time>2026-04-26T10:11:38.797Z</time></trkpt><trkpt lat="45.6944978" lon="10.9759576"><ele>1247.5</ele><time>2026-04-26T10:11:39.799Z</time></trkpt><trkpt lat="45.6944074" lon="10.9760405"><ele>1249.25</ele><time>2026-04-26T10:11:40.798Z</time></trkpt><trkpt lat="45.6943116" lon="10.9761496"><ele>1251.0</ele><time>2026-04-26T10:11:41.799Z</time></trkpt><trkpt lat="45.6942255" lon="10.9762568"><ele>1251.0</ele><time>2026-04-26T10:11:42.8Z</time></trkpt><trkpt lat="45.6941337" lon="10.9763722"><ele>1251.0</ele><time>2026-04-26T10:11:43.798Z</time></trkpt><trkpt lat="45.6940426" lon="10.9764975"><ele>1251.0</ele><time>2026-04-26T10:11:44.798Z</time></trkpt><trkpt lat="45.6939527" lon="10.9766234"><ele>1251.0</ele><time>2026-04-26T10:11:45.799Z</time></trkpt><trkpt lat="45.6938583" lon="10.9767514"><ele>1250.75</ele><time>2026-04-26T10:11:46.797Z</time></trkpt><trkpt lat="45.6937607" lon="10.9768801"><ele>1250.5</ele><time>2026-04-26T10:11:47.799Z</time></trkpt><trkpt lat="45.693663" lon="10.9770132"><ele>1250.25</ele><time>2026-04-26T10:11:48.799Z</time></trkpt><trkpt lat="45.6935585" lon="10.9771481"><ele>1250.0</ele><time>2026-04-26T10:11:49.799Z</time></trkpt><trkpt lat="45.6934556" lon="10.9772916"><ele>1250.0</ele><time>2026-04-26T10:11:50.798Z</time></trkpt><trkpt lat="45.6933519" lon="10.9774298"><ele>1250.0</ele><time>2026-04-26T10:11:51.798Z</time></trkpt><trkpt lat="45.69326" lon="10.9775584"><ele>1250.0</ele><time>2026-04-26T10:11:52.798Z</time></trkpt><trkpt lat="45.6931764" lon="10.9776809"><ele>1250.0</ele><time>2026-04-26T10:11:53.799Z</time></trkpt><trkpt lat="45.6931009" lon="10.9777932"><ele>1251.5</ele><time>2026-04-26T10:11:54.798Z</time></trkpt><trkpt lat="45.6930332" lon="10.9779165"><ele>1253.0</ele><time>2026-04-26T10:11:55.798Z</time></trkpt><trkpt lat="45.6929761" lon="10.9780576"><ele>1254.5</ele><time>2026-04-26T10:11:56.8Z</time></trkpt><trkpt lat="45.6929273" lon="10.9782208"><ele>1256.0</ele><time>2026-04-26T10:11:57.8Z</time></trkpt><trkpt lat="45.6928961" lon="10.9783912"><ele>1257.0</ele><time>2026-04-26T10:11:58.8Z</time></trkpt><trkpt lat="45.6928711" lon="10.9785727"><ele>1258.0</ele><time>2026-04-26T10:11:59.8Z</time></trkpt><trkpt lat="45.6928468" lon="10.9787664"><ele>1259.0</ele><time>2026-04-26T10:12:00.798Z</time></trkpt><trkpt lat="45.6928275" lon="10.978962"><ele>1260.0</ele><time>2026-04-26T10:12:01.798Z</time></trkpt><trkpt lat="45.6928014" lon="10.9791627"><ele>1260.0</ele><time>2026-04-26T10:12:02.8Z</time></trkpt><trkpt lat="45.6927818" lon="10.9793611"><ele>1260.0</ele><time>2026-04-26T10:12:03.799Z</time></trkpt><trkpt lat="45.6927603" lon="10.9795623"><ele>1260.0</ele><time>2026-04-26T10:12:04.799Z</time></trkpt><trkpt lat="45.6927436" lon="10.9797548"><ele>1260.0</ele><time>2026-04-26T10:12:05.797Z</time></trkpt><trkpt lat="45.6927442" lon="10.9799321"><ele>1260.4</ele><time>2026-04-26T10:12:06.798Z</time></trkpt><trkpt lat="45.6927594" lon="10.9800888"><ele>1260.8</ele><time>2026-04-26T10:12:07.799Z</time></trkpt><trkpt lat="45.6927981" lon="10.9802288"><ele>1261.2</ele><time>2026-04-26T10:12:08.798Z</time></trkpt><trkpt lat="45.6928556" lon="10.9803468"><ele>1261.6</ele><time>2026-04-26T10:12:09.798Z</time></trkpt><trkpt lat="45.6929392" lon="10.9804387"><ele>1262.0</ele><time>2026-04-26T10:12:10.8Z</time></trkpt><trkpt lat="45.6930472" lon="10.9805022"><ele>1262.0</ele><time>2026-04-26T10:12:11.799Z</time></trkpt><trkpt lat="45.6931648" lon="10.9805273"><ele>1262.0</ele><time>2026-04-26T10:12:12.799Z</time></trkpt><trkpt lat="45.6933009" lon="10.9805204"><ele>1262.0</ele><time>2026-04-26T10:12:13.797Z</time></trkpt><trkpt lat="45.693439" lon="10.9805088"><ele>1262.0</ele><time>2026-04-26T10:12:14.798Z</time></trkpt><trkpt lat="45.6935811" lon="10.9805216"><ele>1265.0</ele><time>2026-04-26T10:12:15.799Z</time></trkpt><trkpt lat="45.6937259" lon="10.9805783"><ele>1268.0</ele><time>2026-04-26T10:12:16.799Z</time></trkpt><trkpt lat="45.6938807" lon="10.9806703"><ele>1271.0</ele><time>2026-04-26T10:12:17.8Z</time></trkpt><trkpt lat="45.6940402" lon="10.9807897"><ele>1274.0</ele><time>2026-04-26T10:12:18.798Z</time></trkpt><trkpt lat="45.6941911" lon="10.9809089"><ele>1277.0</ele><time>2026-04-26T10:12:19.799Z</time></trkpt><trkpt lat="45.6943288" lon="10.9810223"><ele>1280.0</ele><time>2026-04-26T10:12:20.8Z</time></trkpt><trkpt lat="45.694455" lon="10.9811227"><ele>1280.2</ele><time>2026-04-26T10:12:21.799Z</time></trkpt><trkpt lat="45.6945733" lon="10.9812164"><ele>1280.4</ele><time>2026-04-26T10:12:22.8Z</time></trkpt><trkpt lat="45.6946647" lon="10.9812953"><ele>1280.6</ele><time>2026-04-26T10:12:23.799Z</time></trkpt><trkpt lat="45.6947537" lon="10.9813645"><ele>1280.8</ele><time>2026-04-26T10:12:24.8Z</time></trkpt><trkpt lat="45.6948292" lon="10.9814341"><ele>1281.0</ele><time>2026-04-26T10:12:25.799Z</time></trkpt><trkpt lat="45.6948826" lon="10.9815113"><ele>1281.0</ele><time>2026-04-26T10:12:26.799Z</time></trkpt><trkpt lat="45.6949122" lon="10.9816067"><ele>1281.0</ele><time>2026-04-26T10:12:27.799Z</time></trkpt><trkpt lat="45.6949115" lon="10.981709"><ele>1281.0</ele><time>2026-04-26T10:12:28.798Z</time></trkpt><trkpt lat="45.6948769" lon="10.9817975"><ele>1281.0</ele><time>2026-04-26T10:12:29.798Z</time></trkpt><trkpt lat="45.6948289" lon="10.9818604"><ele>1281.0</ele><time>2026-04-26T10:12:30.798Z</time></trkpt><trkpt lat="45.694744" lon="10.9818749"><ele>1281.0</ele><time>2026-04-26T10:12:31.799Z</time></trkpt><trkpt lat="45.6946582" lon="10.9818444"><ele>1280.75</ele><time>2026-04-26T10:12:32.8Z</time></trkpt><trkpt lat="45.6945548" lon="10.9817926"><ele>1280.5</ele><time>2026-04-26T10:12:33.798Z</time></trkpt><trkpt lat="45.694441" lon="10.9817376"><ele>1280.25</ele><time>2026-04-26T10:12:34.799Z</time></trkpt><trkpt lat="45.6943246" lon="10.9816912"><ele>1280.0</ele><time>2026-04-26T10:12:35.799Z</time></trkpt><trkpt lat="45.6941976" lon="10.9816675"><ele>1280.0</ele><time>2026-04-26T10:12:36.8Z</time></trkpt><trkpt lat="45.6940634" lon="10.9816694"><ele>1280.0</ele><time>2026-04-26T10:12:37.798Z</time></trkpt><trkpt lat="45.6939373" lon="10.9816948"><ele>1280.0</ele><time>2026-04-26T10:12:38.8Z</time></trkpt><trkpt lat="45.6938152" lon="10.9817447"><ele>1280.0</ele><time>2026-04-26T10:12:39.8Z</time></trkpt><trkpt lat="45.6936929" lon="10.9818145"><ele>1284.0</ele><time>2026-04-26T10:12:40.798Z</time></trkpt><trkpt lat="45.6935788" lon="10.9819418"><ele>1288.0</ele><time>2026-04-26T10:12:41.798Z</time></trkpt><trkpt lat="45.6934584" lon="10.9820872"><ele>1292.0</ele><time>2026-04-26T10:12:42.8Z</time></trkpt><trkpt lat="45.6933361" lon="10.9822462"><ele>1292.0</ele><time>2026-04-26T10:12:43.799Z</time></trkpt><trkpt lat="45.693213" lon="10.9824021"><ele>1292.0</ele><time>2026-04-26T10:12:44.8Z</time></trkpt><trkpt lat="45.6930904" lon="10.9825587"><ele>1292.0</ele><time>2026-04-26T10:12:45.799Z</time></trkpt><trkpt lat="45.6929621" lon="10.9827236"><ele>1294.0</ele><time>2026-04-26T10:12:46.799Z</time></trkpt><trkpt lat="45.6928343" lon="10.9828926"><ele>1296.0</ele><time>2026-04-26T10:12:47.798Z</time></trkpt><trkpt lat="45.6927127" lon="10.9830616"><ele>1298.0</ele><time>2026-04-26T10:12:48.799Z</time></trkpt><trkpt lat="45.69259" lon="10.9832267"><ele>1304.6666666666667</ele><time>2026-04-26T10:12:49.798Z</time></trkpt><trkpt lat="45.6924653" lon="10.9833885"><ele>1311.3333333333333</ele><time>2026-04-26T10:12:50.798Z</time></trkpt><trkpt lat="45.6923352" lon="10.9835248"><ele>1318.0</ele><time>2026-04-26T10:12:51.8Z</time></trkpt><trkpt lat="45.692199" lon="10.9836444"><ele>1318.0</ele><time>2026-04-26T10:12:52.8Z</time></trkpt><trkpt lat="45.6920546" lon="10.9837543"><ele>1318.0</ele><time>2026-04-26T10:12:53.8Z</time></trkpt><trkpt lat="45.6918931" lon="10.9838225"><ele>1318.0</ele><time>2026-04-26T10:12:54.797Z</time></trkpt><trkpt lat="45.6917223" lon="10.9838913"><ele>1317.0</ele><time>2026-04-26T10:12:55.799Z</time></trkpt><trkpt lat="45.6915636" lon="10.9839509"><ele>1316.0</ele><time>2026-04-26T10:12:56.798Z</time></trkpt><trkpt lat="45.6914228" lon="10.9840014"><ele>1315.0</ele><time>2026-04-26T10:12:57.8Z</time></trkpt><trkpt lat="45.6912997" lon="10.9840432"><ele>1314.0</ele><time>2026-04-26T10:12:58.799Z</time></trkpt><trkpt lat="45.6911872" lon="10.9840726"><ele>1314.0</ele><time>2026-04-26T10:12:59.8Z</time></trkpt><trkpt lat="45.691106" lon="10.9840498"><ele>1314.0</ele><time>2026-04-26T10:13:00.799Z</time></trkpt><trkpt lat="45.6910259" lon="10.9840152"><ele>1314.0</ele><time>2026-04-26T10:13:01.799Z</time></trkpt><trkpt lat="45.6909809" lon="10.9839102"><ele>1314.0</ele><time>2026-04-26T10:13:02.799Z</time></trkpt><trkpt lat="45.6909584" lon="10.9838027"><ele>1314.0</ele><time>2026-04-26T10:13:03.798Z</time></trkpt><trkpt lat="45.6909517" lon="10.9836788"><ele>1314.0</ele><time>2026-04-26T10:13:04.799Z</time></trkpt><trkpt lat="45.6910148" lon="10.9835462"><ele>1316.25</ele><time>2026-04-26T10:13:05.8Z</time></trkpt><trkpt lat="45.6910715" lon="10.9834006"><ele>1318.5</ele><time>2026-04-26T10:13:06.799Z</time></trkpt><trkpt lat="45.6911713" lon="10.9832244"><ele>1320.75</ele><time>2026-04-26T10:13:07.799Z</time></trkpt><trkpt lat="45.6912423" lon="10.9830599"><ele>1323.0</ele><time>2026-04-26T10:13:08.798Z</time></trkpt><trkpt lat="45.6913003" lon="10.9828854"><ele>1318.75</ele><time>2026-04-26T10:13:09.799Z</time></trkpt><trkpt lat="45.6913378" lon="10.9826969"><ele>1314.5</ele><time>2026-04-26T10:13:10.799Z</time></trkpt><trkpt lat="45.6913476" lon="10.9825148"><ele>1310.25</ele><time>2026-04-26T10:13:11.799Z</time></trkpt><trkpt lat="45.6913327" lon="10.9823386"><ele>1306.0</ele><time>2026-04-26T10:13:12.797Z</time></trkpt><trkpt lat="45.6912913" lon="10.9821704"><ele>1306.0</ele><time>2026-04-26T10:13:13.799Z</time></trkpt><trkpt lat="45.6912257" lon="10.9820066"><ele>1306.0</ele><time>2026-04-26T10:13:14.799Z</time></trkpt><trkpt lat="45.6911358" lon="10.9818524"><ele>1306.0</ele><time>2026-04-26T10:13:15.799Z</time></trkpt><trkpt lat="45.6910286" lon="10.9816987"><ele>1306.0</ele><time>2026-04-26T10:13:16.8Z</time></trkpt><trkpt lat="45.6909075" lon="10.9815742"><ele>1309.75</ele><time>2026-04-26T10:13:17.799Z</time></trkpt><trkpt lat="45.6907817" lon="10.9814719"><ele>1313.5</ele><time>2026-04-26T10:13:18.799Z</time></trkpt><trkpt lat="45.690655" lon="10.9814053"><ele>1317.25</ele><time>2026-04-26T10:13:19.8Z</time></trkpt><trkpt lat="45.6905336" lon="10.9813984"><ele>1321.0</ele><time>2026-04-26T10:13:20.8Z</time></trkpt><trkpt lat="45.6904207" lon="10.9814162"><ele>1321.0</ele><time>2026-04-26T10:13:21.799Z</time></trkpt><trkpt lat="45.6903122" lon="10.9814795"><ele>1321.0</ele><time>2026-04-26T10:13:22.799Z</time></trkpt><trkpt lat="45.6902095" lon="10.9816048"><ele>1321.0</ele><time>2026-04-26T10:13:23.8Z</time></trkpt><trkpt lat="45.6901126" lon="10.9817606"><ele>1321.0</ele><time>2026-04-26T10:13:24.798Z</time></trkpt><trkpt lat="45.6900371" lon="10.9819808"><ele>1325.5</ele><time>2026-04-26T10:13:25.798Z</time></trkpt><trkpt lat="45.6899641" lon="10.9821882"><ele>1330.0</ele><time>2026-04-26T10:13:26.798Z</time></trkpt><trkpt lat="45.6898944" lon="10.9823954"><ele>1334.5</ele><time>2026-04-26T10:13:27.798Z</time></trkpt><trkpt lat="45.6898267" lon="10.9825431"><ele>1339.0</ele><time>2026-04-26T10:13:28.799Z</time></trkpt><trkpt lat="45.6897579" lon="10.9826571"><ele>1340.2</ele><time>2026-04-26T10:13:29.799Z</time></trkpt><trkpt lat="45.6896867" lon="10.9827255"><ele>1341.4</ele><time>2026-04-26T10:13:30.8Z</time></trkpt><trkpt lat="45.689601" lon="10.98276"><ele>1342.6</ele><time>2026-04-26T10:13:31.799Z</time></trkpt><trkpt lat="45.6895159" lon="10.9827601"><ele>1343.8</ele><time>2026-04-26T10:13:32.8Z</time></trkpt><trkpt lat="45.6894423" lon="10.9826655"><ele>1345.0</ele><time>2026-04-26T10:13:33.799Z</time></trkpt><trkpt lat="45.6893787" lon="10.9825389"><ele>1344.5</ele><time>2026-04-26T10:13:34.8Z</time></trkpt><trkpt lat="45.689331" lon="10.9823781"><ele>1344.0</ele><time>2026-04-26T10:13:35.799Z</time></trkpt><trkpt lat="45.6892817" lon="10.9822099"><ele>1343.5</ele><time>2026-04-26T10:13:36.798Z</time></trkpt><trkpt lat="45.6892244" lon="10.982074"><ele>1343.0</ele><time>2026-04-26T10:13:37.798Z</time></trkpt><trkpt lat="45.6891502" lon="10.981953"><ele>1343.0</ele><time>2026-04-26T10:13:38.8Z</time></trkpt><trkpt lat="45.6890724" lon="10.9818627"><ele>1343.0</ele><time>2026-04-26T10:13:39.8Z</time></trkpt><trkpt lat="45.6889807" lon="10.981803"><ele>1343.0</ele><time>2026-04-26T10:13:40.8Z</time></trkpt><trkpt lat="45.6888731" lon="10.9817662"><ele>1343.0</ele><time>2026-04-26T10:13:41.8Z</time></trkpt><trkpt lat="45.688755" lon="10.9817456"><ele>1343.0</ele><time>2026-04-26T10:13:42.8Z</time></trkpt><trkpt lat="45.688613" lon="10.9817288"><ele>1344.0</ele><time>2026-04-26T10:13:43.8Z</time></trkpt><trkpt lat="45.6884704" lon="10.9817062"><ele>1345.0</ele><time>2026-04-26T10:13:44.799Z</time></trkpt><trkpt lat="45.6883083" lon="10.9816794"><ele>1346.0</ele><time>2026-04-26T10:13:45.799Z</time></trkpt><trkpt lat="45.6881335" lon="10.981655"><ele>1346.0</ele><time>2026-04-26T10:13:46.798Z</time></trkpt><trkpt lat="45.6879608" lon="10.9816264"><ele>1346.0</ele><time>2026-04-26T10:13:47.799Z</time></trkpt><trkpt lat="45.6877847" lon="10.9815886"><ele>1346.0</ele><time>2026-04-26T10:13:48.798Z</time></trkpt><trkpt lat="45.6876115" lon="10.9815362"><ele>1349.6666666666667</ele><time>2026-04-26T10:13:49.799Z</time></trkpt><trkpt lat="45.687442" lon="10.9814778"><ele>1353.3333333333333</ele><time>2026-04-26T10:13:50.798Z</time></trkpt><trkpt lat="45.6872709" lon="10.9814131"><ele>1357.0</ele><time>2026-04-26T10:13:51.8Z</time></trkpt><trkpt lat="45.6871045" lon="10.9813495"><ele>1357.0</ele><time>2026-04-26T10:13:52.8Z</time></trkpt><trkpt lat="45.6869454" lon="10.9812875"><ele>1357.0</ele><time>2026-04-26T10:13:53.799Z</time></trkpt><trkpt lat="45.6867822" lon="10.9812284"><ele>1357.0</ele><time>2026-04-26T10:13:54.8Z</time></trkpt><trkpt lat="45.6866133" lon="10.9811791"><ele>1360.3333333333333</ele><time>2026-04-26T10:13:55.8Z</time></trkpt><trkpt lat="45.6864275" lon="10.9811387"><ele>1363.6666666666667</ele><time>2026-04-26T10:13:56.799Z</time></trkpt><trkpt lat="45.6862375" lon="10.981118"><ele>1367.0</ele><time>2026-04-26T10:13:57.799Z</time></trkpt><trkpt lat="45.6860618" lon="10.9811075"><ele>1369.0</ele><time>2026-04-26T10:13:58.799Z</time></trkpt><trkpt lat="45.6858994" lon="10.9810976"><ele>1371.0</ele><time>2026-04-26T10:13:59.798Z</time></trkpt><trkpt lat="45.6857593" lon="10.9810879"><ele>1373.0</ele><time>2026-04-26T10:14:00.799Z</time></trkpt><trkpt lat="45.6856376" lon="10.9810649"><ele>1375.0</ele><time>2026-04-26T10:14:01.799Z</time></trkpt><trkpt lat="45.6855338" lon="10.9810306"><ele>1375.0</ele><time>2026-04-26T10:14:02.8Z</time></trkpt><trkpt lat="45.6854523" lon="10.98095"><ele>1375.0</ele><time>2026-04-26T10:14:03.8Z</time></trkpt><trkpt lat="45.685382" lon="10.9808378"><ele>1375.0</ele><time>2026-04-26T10:14:04.8Z</time></trkpt><trkpt lat="45.6853183" lon="10.9806988"><ele>1375.0</ele><time>2026-04-26T10:14:05.799Z</time></trkpt><trkpt lat="45.6852621" lon="10.9805396"><ele>1375.0</ele><time>2026-04-26T10:14:06.8Z</time></trkpt><trkpt lat="45.6852036" lon="10.9803791"><ele>1375.0</ele><time>2026-04-26T10:14:07.8Z</time></trkpt><trkpt lat="45.685134" lon="10.9802261"><ele>1375.0</ele><time>2026-04-26T10:14:08.8Z</time></trkpt><trkpt lat="45.6850463" lon="10.9800832"><ele>1375.0</ele><time>2026-04-26T10:14:09.8Z</time></trkpt><trkpt lat="45.684938" lon="10.9799438"><ele>1375.0</ele><time>2026-04-26T10:14:10.8Z</time></trkpt><trkpt lat="45.6848064" lon="10.9798118"><ele>1376.0</ele><time>2026-04-26T10:14:11.799Z</time></trkpt><trkpt lat="45.684684" lon="10.9796951"><ele>1377.0</ele><time>2026-04-26T10:14:12.799Z</time></trkpt><trkpt lat="45.6845628" lon="10.979596"><ele>1378.0</ele><time>2026-04-26T10:14:13.799Z</time></trkpt><trkpt lat="45.684462" lon="10.9795063"><ele>1379.0</ele><time>2026-04-26T10:14:14.799Z</time></trkpt><trkpt lat="45.6843667" lon="10.9794306"><ele>1379.0</ele><time>2026-04-26T10:14:15.8Z</time></trkpt><trkpt lat="45.6842914" lon="10.9793611"><ele>1379.0</ele><time>2026-04-26T10:14:16.8Z</time></trkpt><trkpt lat="45.6842177" lon="10.9792995"><ele>1379.0</ele><time>2026-04-26T10:14:17.799Z</time></trkpt><trkpt lat="45.6841489" lon="10.979243"><ele>1379.0</ele><time>2026-04-26T10:14:18.798Z</time></trkpt><trkpt lat="45.6840869" lon="10.9791982"><ele>1379.0</ele><time>2026-04-26T10:14:19.798Z</time></trkpt><trkpt lat="45.6839891" lon="10.979146"><ele>1379.0</ele><time>2026-04-26T10:14:21.8Z</time></trkpt><trkpt lat="45.6839157" lon="10.97913"><ele>1379.0</ele><time>2026-04-26T10:14:23.8Z</time></trkpt><trkpt lat="45.6838498" lon="10.979138"><ele>1379.0</ele><time>2026-04-26T10:14:34.798Z</time></trkpt><trkpt lat="45.6838013" lon="10.9792256"><ele>1379.0</ele><time>2026-04-26T10:14:38.8Z</time></trkpt><trkpt lat="45.6837859" lon="10.9793168"><ele>1379.0</ele><time>2026-04-26T10:14:41.799Z</time></trkpt><trkpt lat="45.6837559" lon="10.9794114"><ele>1379.0</ele><time>2026-04-26T10:14:56.798Z</time></trkpt><trkpt lat="45.6837772" lon="10.979505"><ele>1379.0</ele><time>2026-04-26T10:15:01.799Z</time></trkpt><trkpt lat="45.6837903" lon="10.9796188"><ele>1379.0</ele><time>2026-04-26T10:15:07.799Z</time></trkpt><trkpt lat="45.68378" lon="10.979709"><ele>1379.0</ele><time>2026-04-26T10:15:12.798Z</time></trkpt><trkpt lat="45.683779" lon="10.9798175"><ele>1379.0</ele><time>2026-04-26T10:15:15.8Z</time></trkpt><trkpt lat="45.6837705" lon="10.9799344"><ele>1379.0</ele><time>2026-04-26T10:15:19.799Z</time></trkpt><trkpt lat="45.6837694" lon="10.9800333"><ele>1384.0</ele><time>2026-04-26T10:15:25.798Z</time></trkpt><trkpt lat="45.6837673" lon="10.9801308"><ele>1384.0</ele><time>2026-04-26T10:15:27.799Z</time></trkpt><trkpt lat="45.6837462" lon="10.9802461"><ele>1384.0</ele><time>2026-04-26T10:15:30.799Z</time></trkpt><trkpt lat="45.6837445" lon="10.9803369"><ele>1384.0</ele><time>2026-04-26T10:15:39.798Z</time></trkpt></trkseg><trkseg><trkpt lat="45.6837304" lon="10.9804922"><ele>1384.0</ele><time>2026-04-26T11:34:58.787Z</time></trkpt><trkpt lat="45.6837156" lon="10.98061"><ele>1384.0</ele><time>2026-04-26T11:34:59.788Z</time></trkpt><trkpt lat="45.6837034" lon="10.9807374"><ele>1384.0</ele><time>2026-04-26T11:35:00.786Z</time></trkpt><trkpt lat="45.6836915" lon="10.9808485"><ele>1384.0</ele><time>2026-04-26T11:35:01.787Z</time></trkpt><trkpt lat="45.6836806" lon="10.9809501"><ele>1384.0</ele><time>2026-04-26T11:35:02.787Z</time></trkpt><trkpt lat="45.6836724" lon="10.981045"><ele>1384.0</ele><time>2026-04-26T11:35:03.787Z</time></trkpt><trkpt lat="45.6836651" lon="10.9811378"><ele>1383.3333333333333</ele><time>2026-04-26T11:35:04.787Z</time></trkpt><trkpt lat="45.6836569" lon="10.9812336"><ele>1382.6666666666665</ele><time>2026-04-26T11:35:05.787Z</time></trkpt><trkpt lat="45.6836455" lon="10.9813323"><ele>1382.0</ele><time>2026-04-26T11:35:06.788Z</time></trkpt><trkpt lat="45.6836294" lon="10.9814379"><ele>1381.3333333333333</ele><time>2026-04-26T11:35:07.788Z</time></trkpt><trkpt lat="45.6836097" lon="10.9815541"><ele>1380.6666666666667</ele><time>2026-04-26T11:35:08.786Z</time></trkpt><trkpt lat="45.6835841" lon="10.9816765"><ele>1380.0</ele><time>2026-04-26T11:35:09.787Z</time></trkpt><trkpt lat="45.6835576" lon="10.9817937"><ele>1379.1666666666667</ele><time>2026-04-26T11:35:10.787Z</time></trkpt><trkpt lat="45.6835378" lon="10.9818947"><ele>1378.3333333333333</ele><time>2026-04-26T11:35:11.787Z</time></trkpt><trkpt lat="45.6835342" lon="10.9819868"><ele>1377.5</ele><time>2026-04-26T11:35:12.787Z</time></trkpt><trkpt lat="45.6835774" lon="10.9821478"><ele>1376.6666666666665</ele><time>2026-04-26T11:35:14.788Z</time></trkpt><trkpt lat="45.6836352" lon="10.9822004"><ele>1375.8333333333333</ele><time>2026-04-26T11:35:15.786Z</time></trkpt><trkpt lat="45.6837177" lon="10.9822275"><ele>1375.0</ele><time>2026-04-26T11:35:16.787Z</time></trkpt><trkpt lat="45.6838117" lon="10.9822449"><ele>1375.0</ele><time>2026-04-26T11:35:17.788Z</time></trkpt><trkpt lat="45.6839263" lon="10.9822552"><ele>1375.0</ele><time>2026-04-26T11:35:18.788Z</time></trkpt><trkpt lat="45.6840631" lon="10.9822647"><ele>1375.0</ele><time>2026-04-26T11:35:19.788Z</time></trkpt><trkpt lat="45.6842005" lon="10.9822802"><ele>1375.0</ele><time>2026-04-26T11:35:20.787Z</time></trkpt><trkpt lat="45.6843478" lon="10.9823017"><ele>1373.6666666666665</ele><time>2026-04-26T11:35:21.787Z</time></trkpt><trkpt lat="45.6845107" lon="10.9823339"><ele>1372.3333333333333</ele><time>2026-04-26T11:35:22.788Z</time></trkpt><trkpt lat="45.6846824" lon="10.982387"><ele>1371.0</ele><time>2026-04-26T11:35:23.788Z</time></trkpt><trkpt lat="45.6848381" lon="10.9824498"><ele>1368.25</ele><time>2026-04-26T11:35:24.788Z</time></trkpt><trkpt lat="45.6849852" lon="10.9825197"><ele>1365.5</ele><time>2026-04-26T11:35:25.787Z</time></trkpt><trkpt lat="45.6851087" lon="10.9826025"><ele>1362.75</ele><time>2026-04-26T11:35:26.788Z</time></trkpt><trkpt lat="45.6852068" lon="10.9826916"><ele>1360.0</ele><time>2026-04-26T11:35:27.788Z</time></trkpt><trkpt lat="45.6852912" lon="10.9827807"><ele>1360.0</ele><time>2026-04-26T11:35:28.788Z</time></trkpt><trkpt lat="45.6853764" lon="10.9828451"><ele>1360.0</ele><time>2026-04-26T11:35:29.787Z</time></trkpt><trkpt lat="45.6854691" lon="10.9828924"><ele>1360.0</ele><time>2026-04-26T11:35:30.787Z</time></trkpt><trkpt lat="45.6855802" lon="10.9829207"><ele>1360.0</ele><time>2026-04-26T11:35:31.787Z</time></trkpt><trkpt lat="45.6857129" lon="10.982928"><ele>1360.0</ele><time>2026-04-26T11:35:32.788Z</time></trkpt><trkpt lat="45.6858684" lon="10.9829188"><ele>1360.0</ele><time>2026-04-26T11:35:33.787Z</time></trkpt><trkpt lat="45.6860443" lon="10.9829051"><ele>1360.0</ele><time>2026-04-26T11:35:34.787Z</time></trkpt><trkpt lat="45.686211" lon="10.9828905"><ele>1360.0</ele><time>2026-04-26T11:35:35.787Z</time></trkpt><trkpt lat="45.6863733" lon="10.9828864"><ele>1362.0</ele><time>2026-04-26T11:35:36.787Z</time></trkpt><trkpt lat="45.6865357" lon="10.9829041"><ele>1364.0</ele><time>2026-04-26T11:35:37.788Z</time></trkpt><trkpt lat="45.6866997" lon="10.9829413"><ele>1366.0</ele><time>2026-04-26T11:35:38.788Z</time></trkpt><trkpt lat="45.6868489" lon="10.9830042"><ele>1368.5</ele><time>2026-04-26T11:35:39.787Z</time></trkpt><trkpt lat="45.6869752" lon="10.9830953"><ele>1371.0</ele><time>2026-04-26T11:35:40.788Z</time></trkpt><trkpt lat="45.6870928" lon="10.9832114"><ele>1373.5</ele><time>2026-04-26T11:35:41.787Z</time></trkpt><trkpt lat="45.6872097" lon="10.983352"><ele>1376.0</ele><time>2026-04-26T11:35:42.786Z</time></trkpt><trkpt lat="45.6873258" lon="10.983488"><ele>1376.0</ele><time>2026-04-26T11:35:43.788Z</time></trkpt><trkpt lat="45.6874387" lon="10.9835932"><ele>1376.0</ele><time>2026-04-26T11:35:44.787Z</time></trkpt><trkpt lat="45.6875518" lon="10.9836819"><ele>1376.0</ele><time>2026-04-26T11:35:45.787Z</time></trkpt><trkpt lat="45.6876544" lon="10.9837854"><ele>1376.0</ele><time>2026-04-26T11:35:46.787Z</time></trkpt><trkpt lat="45.6877601" lon="10.9839284"><ele>1377.0</ele><time>2026-04-26T11:35:47.787Z</time></trkpt><trkpt lat="45.6878567" lon="10.9841033"><ele>1378.0</ele><time>2026-04-26T11:35:48.788Z</time></trkpt><trkpt lat="45.6879513" lon="10.9843066"><ele>1379.0</ele><time>2026-04-26T11:35:49.786Z</time></trkpt><trkpt lat="45.6880337" lon="10.9844851"><ele>1379.75</ele><time>2026-04-26T11:35:50.787Z</time></trkpt><trkpt lat="45.6881056" lon="10.9846501"><ele>1380.5</ele><time>2026-04-26T11:35:51.787Z</time></trkpt><trkpt lat="45.6881591" lon="10.9848083"><ele>1381.25</ele><time>2026-04-26T11:35:52.787Z</time></trkpt><trkpt lat="45.6881939" lon="10.9849698"><ele>1382.0</ele><time>2026-04-26T11:35:53.787Z</time></trkpt><trkpt lat="45.6882109" lon="10.9851483"><ele>1384.25</ele><time>2026-04-26T11:35:54.788Z</time></trkpt><trkpt lat="45.6882125" lon="10.9853359"><ele>1386.5</ele><time>2026-04-26T11:35:55.787Z</time></trkpt><trkpt lat="45.688202" lon="10.9855076"><ele>1388.75</ele><time>2026-04-26T11:35:56.788Z</time></trkpt><trkpt lat="45.6881788" lon="10.9856617"><ele>1391.0</ele><time>2026-04-26T11:35:57.788Z</time></trkpt><trkpt lat="45.6881314" lon="10.9858075"><ele>1391.8</ele><time>2026-04-26T11:35:58.787Z</time></trkpt><trkpt lat="45.6880605" lon="10.9859289"><ele>1392.6</ele><time>2026-04-26T11:35:59.787Z</time></trkpt><trkpt lat="45.6879699" lon="10.9860213"><ele>1393.4</ele><time>2026-04-26T11:36:00.788Z</time></trkpt><trkpt lat="45.6878636" lon="10.9860999"><ele>1394.2</ele><time>2026-04-26T11:36:01.788Z</time></trkpt><trkpt lat="45.6877736" lon="10.986162"><ele>1395.0</ele><time>2026-04-26T11:36:02.786Z</time></trkpt><trkpt lat="45.6876961" lon="10.9862248"><ele>1395.0</ele><time>2026-04-26T11:36:03.788Z</time></trkpt><trkpt lat="45.687631" lon="10.9862941"><ele>1395.0</ele><time>2026-04-26T11:36:04.787Z</time></trkpt><trkpt lat="45.6875847" lon="10.9863792"><ele>1395.0</ele><time>2026-04-26T11:36:05.787Z</time></trkpt><trkpt lat="45.6875521" lon="10.9864895"><ele>1395.0</ele><time>2026-04-26T11:36:06.788Z</time></trkpt><trkpt lat="45.6875292" lon="10.9866135"><ele>1395.0</ele><time>2026-04-26T11:36:07.786Z</time></trkpt><trkpt lat="45.6874933" lon="10.9867605"><ele>1395.0</ele><time>2026-04-26T11:36:08.786Z</time></trkpt><trkpt lat="45.6874369" lon="10.9869242"><ele>1398.75</ele><time>2026-04-26T11:36:09.787Z</time></trkpt><trkpt lat="45.6873677" lon="10.9870961"><ele>1402.5</ele><time>2026-04-26T11:36:10.788Z</time></trkpt><trkpt lat="45.6872972" lon="10.9872457"><ele>1406.25</ele><time>2026-04-26T11:36:11.788Z</time></trkpt><trkpt lat="45.6872243" lon="10.9873771"><ele>1410.0</ele><time>2026-04-26T11:36:12.787Z</time></trkpt><trkpt lat="45.6871488" lon="10.9874801"><ele>1408.4</ele><time>2026-04-26T11:36:13.787Z</time></trkpt><trkpt lat="45.6870836" lon="10.9875681"><ele>1406.8</ele><time>2026-04-26T11:36:14.788Z</time></trkpt><trkpt lat="45.6870184" lon="10.9876471"><ele>1405.1999999999998</ele><time>2026-04-26T11:36:15.787Z</time></trkpt><trkpt lat="45.6869476" lon="10.9877312"><ele>1403.6</ele><time>2026-04-26T11:36:16.786Z</time></trkpt><trkpt lat="45.6868857" lon="10.9878007"><ele>1402.0</ele><time>2026-04-26T11:36:17.787Z</time></trkpt><trkpt lat="45.6868133" lon="10.9879249"><ele>1402.0</ele><time>2026-04-26T11:36:19.788Z</time></trkpt><trkpt lat="45.6868299" lon="10.988084"><ele>1402.0</ele><time>2026-04-26T11:36:21.787Z</time></trkpt><trkpt lat="45.6868531" lon="10.9882501"><ele>1402.0</ele><time>2026-04-26T11:36:23.786Z</time></trkpt><trkpt lat="45.6867839" lon="10.988376"><ele>1402.0</ele><time>2026-04-26T11:36:25.787Z</time></trkpt><trkpt lat="45.6867182" lon="10.988403"><ele>1402.0</ele><time>2026-04-26T11:36:26.788Z</time></trkpt><trkpt lat="45.6866405" lon="10.9884119"><ele>1407.1999999999998</ele><time>2026-04-26T11:36:27.788Z</time></trkpt><trkpt lat="45.6865611" lon="10.9884234"><ele>1412.4</ele><time>2026-04-26T11:36:28.788Z</time></trkpt><trkpt lat="45.6864839" lon="10.9884534"><ele>1417.6</ele><time>2026-04-26T11:36:29.787Z</time></trkpt><trkpt lat="45.6864049" lon="10.9885227"><ele>1422.8000000000002</ele><time>2026-04-26T11:36:30.788Z</time></trkpt><trkpt lat="45.6863128" lon="10.9886125"><ele>1428.0</ele><time>2026-04-26T11:36:31.787Z</time></trkpt><trkpt lat="45.6862105" lon="10.9886936"><ele>1428.0</ele><time>2026-04-26T11:36:32.788Z</time></trkpt><trkpt lat="45.6860984" lon="10.9887558"><ele>1428.0</ele><time>2026-04-26T11:36:33.788Z</time></trkpt><trkpt lat="45.6859722" lon="10.9888056"><ele>1428.0</ele><time>2026-04-26T11:36:34.788Z</time></trkpt><trkpt lat="45.6858336" lon="10.988839"><ele>1428.0</ele><time>2026-04-26T11:36:35.787Z</time></trkpt><trkpt lat="45.6856971" lon="10.9888559"><ele>1427.2</ele><time>2026-04-26T11:36:36.788Z</time></trkpt><trkpt lat="45.6855703" lon="10.9888505"><ele>1426.4</ele><time>2026-04-26T11:36:37.787Z</time></trkpt><trkpt lat="45.6854522" lon="10.9888448"><ele>1425.6000000000001</ele><time>2026-04-26T11:36:38.787Z</time></trkpt><trkpt lat="45.6853507" lon="10.9888409"><ele>1424.8000000000002</ele><time>2026-04-26T11:36:39.788Z</time></trkpt><trkpt lat="45.6852687" lon="10.9888398"><ele>1424.0</ele><time>2026-04-26T11:36:40.788Z</time></trkpt><trkpt lat="45.6851995" lon="10.9888513"><ele>1422.3333333333335</ele><time>2026-04-26T11:36:41.788Z</time></trkpt><trkpt lat="45.6851347" lon="10.9888839"><ele>1420.6666666666667</ele><time>2026-04-26T11:36:42.787Z</time></trkpt><trkpt lat="45.6850815" lon="10.9889439"><ele>1419.0</ele><time>2026-04-26T11:36:43.786Z</time></trkpt><trkpt lat="45.685042" lon="10.9890361"><ele>1417.3333333333333</ele><time>2026-04-26T11:36:44.786Z</time></trkpt><trkpt lat="45.6850068" lon="10.9891464"><ele>1415.6666666666665</ele><time>2026-04-26T11:36:45.786Z</time></trkpt><trkpt lat="45.6849858" lon="10.9892445"><ele>1414.0</ele><time>2026-04-26T11:36:46.788Z</time></trkpt><trkpt lat="45.6849846" lon="10.9893955"><ele>1414.0</ele><time>2026-04-26T11:36:48.787Z</time></trkpt><trkpt lat="45.6850696" lon="10.9894933"><ele>1414.0</ele><time>2026-04-26T11:36:50.787Z</time></trkpt><trkpt lat="45.6851447" lon="10.9895231"><ele>1414.0</ele><time>2026-04-26T11:36:51.787Z</time></trkpt><trkpt lat="45.6852074" lon="10.9895676"><ele>1414.0</ele><time>2026-04-26T11:36:52.788Z</time></trkpt><trkpt lat="45.6852535" lon="10.9896344"><ele>1414.0</ele><time>2026-04-26T11:36:53.787Z</time></trkpt><trkpt lat="45.6852801" lon="10.9897206"><ele>1414.0</ele><time>2026-04-26T11:36:54.787Z</time></trkpt><trkpt lat="45.6852786" lon="10.9898228"><ele>1414.0</ele><time>2026-04-26T11:36:55.787Z</time></trkpt><trkpt lat="45.6852581" lon="10.9899225"><ele>1414.0</ele><time>2026-04-26T11:36:56.788Z</time></trkpt><trkpt lat="45.685246" lon="10.9900173"><ele>1414.0</ele><time>2026-04-26T11:36:57.787Z</time></trkpt><trkpt lat="45.6852548" lon="10.9901155"><ele>1414.0</ele><time>2026-04-26T11:36:58.788Z</time></trkpt><trkpt lat="45.6852907" lon="10.990214"><ele>1414.0</ele><time>2026-04-26T11:36:59.787Z</time></trkpt><trkpt lat="45.6853422" lon="10.9902831"><ele>1414.0</ele><time>2026-04-26T11:37:00.787Z</time></trkpt><trkpt lat="45.6854147" lon="10.9903264"><ele>1414.0</ele><time>2026-04-26T11:37:01.787Z</time></trkpt><trkpt lat="45.6854825" lon="10.9903711"><ele>1419.0</ele><time>2026-04-26T11:37:02.786Z</time></trkpt><trkpt lat="45.6855245" lon="10.9904547"><ele>1424.0</ele><time>2026-04-26T11:37:03.787Z</time></trkpt><trkpt lat="45.6855572" lon="10.9905585"><ele>1429.0</ele><time>2026-04-26T11:37:04.787Z</time></trkpt><trkpt lat="45.6855831" lon="10.9907072"><ele>1434.0</ele><time>2026-04-26T11:37:05.787Z</time></trkpt><trkpt lat="45.6856082" lon="10.9908952"><ele>1439.0</ele><time>2026-04-26T11:37:06.787Z</time></trkpt><trkpt lat="45.6856211" lon="10.9910828"><ele>1439.0</ele><time>2026-04-26T11:37:07.787Z</time></trkpt><trkpt lat="45.6856247" lon="10.9912377"><ele>1439.0</ele><time>2026-04-26T11:37:08.788Z</time></trkpt><trkpt lat="45.6856379" lon="10.991369"><ele>1439.0</ele><time>2026-04-26T11:37:09.786Z</time></trkpt><trkpt lat="45.6856647" lon="10.9914691"><ele>1439.0</ele><time>2026-04-26T11:37:10.787Z</time></trkpt><trkpt lat="45.6857139" lon="10.9915573"><ele>1439.0</ele><time>2026-04-26T11:37:11.786Z</time></trkpt><trkpt lat="45.6857787" lon="10.9916243"><ele>1439.0</ele><time>2026-04-26T11:37:12.787Z</time></trkpt><trkpt lat="45.6858641" lon="10.9916935"><ele>1438.0</ele><time>2026-04-26T11:37:13.788Z</time></trkpt><trkpt lat="45.6859468" lon="10.9917574"><ele>1437.0</ele><time>2026-04-26T11:37:14.786Z</time></trkpt><trkpt lat="45.6860126" lon="10.9918141"><ele>1436.0</ele><time>2026-04-26T11:37:15.788Z</time></trkpt><trkpt lat="45.6860732" lon="10.9918661"><ele>1435.0</ele><time>2026-04-26T11:37:16.788Z</time></trkpt><trkpt lat="45.6861304" lon="10.991917"><ele>1434.0</ele><time>2026-04-26T11:37:17.787Z</time></trkpt><trkpt lat="45.6862263" lon="10.9919893"><ele>1433.0</ele><time>2026-04-26T11:37:19.787Z</time></trkpt><trkpt lat="45.6863472" lon="10.9920059"><ele>1435.8333333333335</ele><time>2026-04-26T11:37:21.788Z</time></trkpt><trkpt lat="45.6864248" lon="10.9920023"><ele>1438.6666666666667</ele><time>2026-04-26T11:37:22.786Z</time></trkpt><trkpt lat="45.6865123" lon="10.9919951"><ele>1441.5</ele><time>2026-04-26T11:37:23.787Z</time></trkpt><trkpt lat="45.6866083" lon="10.9919845"><ele>1444.3333333333333</ele><time>2026-04-26T11:37:24.787Z</time></trkpt><trkpt lat="45.6866899" lon="10.9919755"><ele>1447.1666666666665</ele><time>2026-04-26T11:37:25.788Z</time></trkpt><trkpt lat="45.6867628" lon="10.9919684"><ele>1450.0</ele><time>2026-04-26T11:37:26.788Z</time></trkpt><trkpt lat="45.6868303" lon="10.9919669"><ele>1450.0</ele><time>2026-04-26T11:37:27.787Z</time></trkpt><trkpt lat="45.6869266" lon="10.9920137"><ele>1450.0</ele><time>2026-04-26T11:37:29.787Z</time></trkpt><trkpt lat="45.6869897" lon="10.9921323"><ele>1450.0</ele><time>2026-04-26T11:37:31.788Z</time></trkpt><trkpt lat="45.68697" lon="10.9922903"><ele>1450.0</ele><time>2026-04-26T11:37:33.786Z</time></trkpt><trkpt lat="45.6869324" lon="10.9923737"><ele>1450.0</ele><time>2026-04-26T11:37:34.788Z</time></trkpt><trkpt lat="45.6868812" lon="10.992459"><ele>1450.5714285714287</ele><time>2026-04-26T11:37:35.786Z</time></trkpt><trkpt lat="45.6868199" lon="10.9925338"><ele>1451.1428571428573</ele><time>2026-04-26T11:37:36.788Z</time></trkpt><trkpt lat="45.6867609" lon="10.9925728"><ele>1451.7142857142858</ele><time>2026-04-26T11:37:37.787Z</time></trkpt><trkpt lat="45.6866965" lon="10.992579"><ele>1452.2857142857142</ele><time>2026-04-26T11:37:38.788Z</time></trkpt><trkpt lat="45.6866362" lon="10.9926053"><ele>1452.857142857143</ele><time>2026-04-26T11:37:39.788Z</time></trkpt><trkpt lat="45.6865927" lon="10.9927131"><ele>1453.4285714285713</ele><time>2026-04-26T11:37:41.786Z</time></trkpt><trkpt lat="45.6866529" lon="10.9927969"><ele>1454.0</ele><time>2026-04-26T11:37:43.788Z</time></trkpt><trkpt lat="45.6867738" lon="10.9927634"><ele>1454.0</ele><time>2026-04-26T11:37:45.788Z</time></trkpt><trkpt lat="45.6868394" lon="10.9927015"><ele>1454.0</ele><time>2026-04-26T11:37:46.787Z</time></trkpt><trkpt lat="45.6869158" lon="10.9926257"><ele>1454.0</ele><time>2026-04-26T11:37:47.788Z</time></trkpt><trkpt lat="45.6869915" lon="10.9925515"><ele>1454.0</ele><time>2026-04-26T11:37:48.788Z</time></trkpt><trkpt lat="45.6870708" lon="10.992456"><ele>1454.0</ele><time>2026-04-26T11:37:49.787Z</time></trkpt><trkpt lat="45.6871525" lon="10.9923331"><ele>1457.0</ele><time>2026-04-26T11:37:50.786Z</time></trkpt><trkpt lat="45.6872361" lon="10.992194"><ele>1460.0</ele><time>2026-04-26T11:37:51.787Z</time></trkpt><trkpt lat="45.6873118" lon="10.9920854"><ele>1463.0</ele><time>2026-04-26T11:37:52.788Z</time></trkpt><trkpt lat="45.6873807" lon="10.9920056"><ele>1466.0</ele><time>2026-04-26T11:37:53.787Z</time></trkpt><trkpt lat="45.6874328" lon="10.9919248"><ele>1469.0</ele><time>2026-04-26T11:37:54.787Z</time></trkpt><trkpt lat="45.6874571" lon="10.99184"><ele>1469.0</ele><time>2026-04-26T11:37:55.787Z</time></trkpt><trkpt lat="45.6874504" lon="10.9917438"><ele>1469.0</ele><time>2026-04-26T11:37:56.787Z</time></trkpt><trkpt lat="45.687379" lon="10.9916068"><ele>1469.0</ele><time>2026-04-26T11:37:58.788Z</time></trkpt><trkpt lat="45.6873857" lon="10.9914835"><ele>1469.0</ele><time>2026-04-26T11:38:00.787Z</time></trkpt><trkpt lat="45.6874656" lon="10.9914853"><ele>1469.0</ele><time>2026-04-26T11:38:02.788Z</time></trkpt><trkpt lat="45.68756" lon="10.9916527"><ele>1469.0</ele><time>2026-04-26T11:38:04.787Z</time></trkpt><trkpt lat="45.6876134" lon="10.9917705"><ele>1469.0</ele><time>2026-04-26T11:38:05.787Z</time></trkpt><trkpt lat="45.6876624" lon="10.9918809"><ele>1469.0</ele><time>2026-04-26T11:38:06.787Z</time></trkpt><trkpt lat="45.6877129" lon="10.9919735"><ele>1469.0</ele><time>2026-04-26T11:38:07.786Z</time></trkpt><trkpt lat="45.6877708" lon="10.9920493"><ele>1469.0</ele><time>2026-04-26T11:38:08.788Z</time></trkpt><trkpt lat="45.6878376" lon="10.9920789"><ele>1469.0</ele><time>2026-04-26T11:38:09.788Z</time></trkpt><trkpt lat="45.6879121" lon="10.9920708"><ele>1469.8333333333335</ele><time>2026-04-26T11:38:10.788Z</time></trkpt><trkpt lat="45.6879917" lon="10.9920218"><ele>1470.6666666666667</ele><time>2026-04-26T11:38:11.786Z</time></trkpt><trkpt lat="45.6880706" lon="10.9919401"><ele>1471.5</ele><time>2026-04-26T11:38:12.788Z</time></trkpt><trkpt lat="45.6881499" lon="10.9918576"><ele>1472.3333333333333</ele><time>2026-04-26T11:38:13.788Z</time></trkpt><trkpt lat="45.6882249" lon="10.9918187"><ele>1473.1666666666665</ele><time>2026-04-26T11:38:14.787Z</time></trkpt><trkpt lat="45.6882965" lon="10.9918217"><ele>1474.0</ele><time>2026-04-26T11:38:15.787Z</time></trkpt><trkpt lat="45.6883568" lon="10.9918624"><ele>1474.0</ele><time>2026-04-26T11:38:16.788Z</time></trkpt><trkpt lat="45.6884116" lon="10.9919397"><ele>1474.0</ele><time>2026-04-26T11:38:17.787Z</time></trkpt><trkpt lat="45.6884612" lon="10.9920514"><ele>1474.0</ele><time>2026-04-26T11:38:18.786Z</time></trkpt><trkpt lat="45.6885117" lon="10.9921934"><ele>1474.0</ele><time>2026-04-26T11:38:19.788Z</time></trkpt><trkpt lat="45.6885576" lon="10.9923475"><ele>1474.0</ele><time>2026-04-26T11:38:20.786Z</time></trkpt><trkpt lat="45.6886035" lon="10.9924713"><ele>1477.0</ele><time>2026-04-26T11:38:21.787Z</time></trkpt><trkpt lat="45.6886686" lon="10.9925518"><ele>1480.0</ele><time>2026-04-26T11:38:22.787Z</time></trkpt><trkpt lat="45.6887525" lon="10.9925991"><ele>1483.0</ele><time>2026-04-26T11:38:23.787Z</time></trkpt><trkpt lat="45.6888463" lon="10.9926507"><ele>1486.0</ele><time>2026-04-26T11:38:24.787Z</time></trkpt><trkpt lat="45.6889351" lon="10.9927405"><ele>1489.0</ele><time>2026-04-26T11:38:25.787Z</time></trkpt><trkpt lat="45.6890101" lon="10.9928182"><ele>1489.0</ele><time>2026-04-26T11:38:26.788Z</time></trkpt><trkpt lat="45.6890796" lon="10.9928673"><ele>1489.0</ele><time>2026-04-26T11:38:27.787Z</time></trkpt><trkpt lat="45.6891496" lon="10.9928767"><ele>1489.0</ele><time>2026-04-26T11:38:28.787Z</time></trkpt><trkpt lat="45.6892117" lon="10.9928419"><ele>1489.0</ele><time>2026-04-26T11:38:29.787Z</time></trkpt><trkpt lat="45.6892609" lon="10.9927668"><ele>1489.0</ele><time>2026-04-26T11:38:30.787Z</time></trkpt><trkpt lat="45.689292" lon="10.9926571"><ele>1489.0</ele><time>2026-04-26T11:38:31.787Z</time></trkpt><trkpt lat="45.6893151" lon="10.9925256"><ele>1489.6</ele><time>2026-04-26T11:38:32.787Z</time></trkpt><trkpt lat="45.689352" lon="10.9924091"><ele>1490.2</ele><time>2026-04-26T11:38:33.787Z</time></trkpt><trkpt lat="45.6894139" lon="10.9923065"><ele>1490.8</ele><time>2026-04-26T11:38:34.788Z</time></trkpt><trkpt lat="45.689502" lon="10.9922326"><ele>1491.3999999999999</ele><time>2026-04-26T11:38:35.787Z</time></trkpt><trkpt lat="45.6895936" lon="10.9921849"><ele>1492.0</ele><time>2026-04-26T11:38:36.788Z</time></trkpt><trkpt lat="45.6896668" lon="10.9921508"><ele>1492.0</ele><time>2026-04-26T11:38:37.787Z</time></trkpt><trkpt lat="45.6897663" lon="10.9921257"><ele>1492.0</ele><time>2026-04-26T11:38:39.786Z</time></trkpt><trkpt lat="45.6898537" lon="10.9921974"><ele>1492.0</ele><time>2026-04-26T11:38:41.787Z</time></trkpt><trkpt lat="45.6898907" lon="10.9923888"><ele>1492.0</ele><time>2026-04-26T11:38:43.788Z</time></trkpt><trkpt lat="45.6899183" lon="10.9925051"><ele>1492.0</ele><time>2026-04-26T11:38:44.788Z</time></trkpt><trkpt lat="45.6899612" lon="10.9925945"><ele>1492.6</ele><time>2026-04-26T11:38:45.788Z</time></trkpt><trkpt lat="45.690024" lon="10.9926699"><ele>1493.1999999999998</ele><time>2026-04-26T11:38:46.787Z</time></trkpt><trkpt lat="45.6901118" lon="10.9927346"><ele>1493.8</ele><time>2026-04-26T11:38:47.786Z</time></trkpt><trkpt lat="45.6901936" lon="10.9928333"><ele>1494.4</ele><time>2026-04-26T11:38:48.788Z</time></trkpt><trkpt lat="45.6902611" lon="10.99297"><ele>1495.0</ele><time>2026-04-26T11:38:49.787Z</time></trkpt><trkpt lat="45.6903196" lon="10.9931053"><ele>1496.8</ele><time>2026-04-26T11:38:50.787Z</time></trkpt><trkpt lat="45.6903756" lon="10.9932397"><ele>1498.6</ele><time>2026-04-26T11:38:51.788Z</time></trkpt><trkpt lat="45.6904267" lon="10.9933544"><ele>1500.4</ele><time>2026-04-26T11:38:52.787Z</time></trkpt><trkpt lat="45.6904776" lon="10.9934709"><ele>1502.2</ele><time>2026-04-26T11:38:53.788Z</time></trkpt><trkpt lat="45.6905302" lon="10.9935849"><ele>1504.0</ele><time>2026-04-26T11:38:54.787Z</time></trkpt><trkpt lat="45.6905922" lon="10.9936893"><ele>1504.0</ele><time>2026-04-26T11:38:55.787Z</time></trkpt><trkpt lat="45.6906649" lon="10.9937708"><ele>1504.0</ele><time>2026-04-26T11:38:56.787Z</time></trkpt><trkpt lat="45.6907512" lon="10.993836"><ele>1504.0</ele><time>2026-04-26T11:38:57.786Z</time></trkpt><trkpt lat="45.6908456" lon="10.9938948"><ele>1504.0</ele><time>2026-04-26T11:38:58.787Z</time></trkpt><trkpt lat="45.6909389" lon="10.9939687"><ele>1504.0</ele><time>2026-04-26T11:38:59.786Z</time></trkpt><trkpt lat="45.6910236" lon="10.9940715"><ele>1507.25</ele><time>2026-04-26T11:39:00.785Z</time></trkpt><trkpt lat="45.6910999" lon="10.9942079"><ele>1510.5</ele><time>2026-04-26T11:39:01.786Z</time></trkpt><trkpt lat="45.6911712" lon="10.9943709"><ele>1513.75</ele><time>2026-04-26T11:39:02.785Z</time></trkpt><trkpt lat="45.6912251" lon="10.9945399"><ele>1517.0</ele><time>2026-04-26T11:39:03.786Z</time></trkpt><trkpt lat="45.6912737" lon="10.9946918"><ele>1517.0</ele><time>2026-04-26T11:39:04.787Z</time></trkpt><trkpt lat="45.6913355" lon="10.9948344"><ele>1517.0</ele><time>2026-04-26T11:39:05.787Z</time></trkpt><trkpt lat="45.6914084" lon="10.994975"><ele>1517.0</ele><time>2026-04-26T11:39:06.786Z</time></trkpt><trkpt lat="45.6914824" lon="10.9951116"><ele>1517.0</ele><time>2026-04-26T11:39:07.786Z</time></trkpt><trkpt lat="45.6915552" lon="10.9952423"><ele>1516.8333333333335</ele><time>2026-04-26T11:39:08.786Z</time></trkpt><trkpt lat="45.6916247" lon="10.9953602"><ele>1516.6666666666667</ele><time>2026-04-26T11:39:09.786Z</time></trkpt><trkpt lat="45.6916899" lon="10.9954593"><ele>1516.5</ele><time>2026-04-26T11:39:10.787Z</time></trkpt><trkpt lat="45.691746" lon="10.9955423"><ele>1516.3333333333333</ele><time>2026-04-26T11:39:11.787Z</time></trkpt><trkpt lat="45.6917977" lon="10.9956118"><ele>1516.1666666666665</ele><time>2026-04-26T11:39:12.787Z</time></trkpt><trkpt lat="45.6918521" lon="10.995681"><ele>1516.0</ele><time>2026-04-26T11:39:14.787Z</time></trkpt><trkpt lat="45.691918" lon="10.9957594"><ele>1518.6</ele><time>2026-04-26T11:39:53.785Z</time></trkpt><trkpt lat="45.6920192" lon="10.995877"><ele>1521.1999999999998</ele><time>2026-04-26T11:39:55.786Z</time></trkpt><trkpt lat="45.6920726" lon="10.9959518"><ele>1523.8000000000002</ele><time>2026-04-26T11:39:56.787Z</time></trkpt><trkpt lat="45.6921303" lon="10.9960457"><ele>1526.4</ele><time>2026-04-26T11:39:57.785Z</time></trkpt><trkpt lat="45.6921865" lon="10.9961544"><ele>1529.0</ele><time>2026-04-26T11:39:58.787Z</time></trkpt><trkpt lat="45.6922486" lon="10.9962759"><ele>1529.0</ele><time>2026-04-26T11:39:59.786Z</time></trkpt><trkpt lat="45.6923048" lon="10.9963976"><ele>1529.0</ele><time>2026-04-26T11:40:00.786Z</time></trkpt><trkpt lat="45.6923431" lon="10.9965187"><ele>1529.0</ele><time>2026-04-26T11:40:01.787Z</time></trkpt><trkpt lat="45.6923603" lon="10.9966396"><ele>1529.0</ele><time>2026-04-26T11:40:02.786Z</time></trkpt><trkpt lat="45.6923508" lon="10.9967491"><ele>1529.0</ele><time>2026-04-26T11:40:03.787Z</time></trkpt><trkpt lat="45.6923144" lon="10.9968344"><ele>1529.0</ele><time>2026-04-26T11:40:04.787Z</time></trkpt><trkpt lat="45.6922579" lon="10.9968971"><ele>1530.0</ele><time>2026-04-26T11:40:05.787Z</time></trkpt><trkpt lat="45.6921662" lon="10.9969137"><ele>1531.0</ele><time>2026-04-26T11:40:06.787Z</time></trkpt><trkpt lat="45.6920606" lon="10.9969163"><ele>1532.0</ele><time>2026-04-26T11:40:07.786Z</time></trkpt><trkpt lat="45.691929" lon="10.9969148"><ele>1533.0</ele><time>2026-04-26T11:40:08.786Z</time></trkpt><trkpt lat="45.6917889" lon="10.9969342"><ele>1533.0</ele><time>2026-04-26T11:40:09.787Z</time></trkpt><trkpt lat="45.691643" lon="10.9969596"><ele>1533.0</ele><time>2026-04-26T11:40:10.787Z</time></trkpt><trkpt lat="45.6915189" lon="10.9969933"><ele>1533.0</ele><time>2026-04-26T11:40:11.786Z</time></trkpt><trkpt lat="45.6914107" lon="10.997035"><ele>1533.0</ele><time>2026-04-26T11:40:12.786Z</time></trkpt><trkpt lat="45.6913229" lon="10.9970847"><ele>1533.0</ele><time>2026-04-26T11:40:13.786Z</time></trkpt><trkpt lat="45.6912529" lon="10.9971598"><ele>1533.0</ele><time>2026-04-26T11:40:14.787Z</time></trkpt><trkpt lat="45.6912036" lon="10.9972667"><ele>1533.0</ele><time>2026-04-26T11:40:15.787Z</time></trkpt><trkpt lat="45.6911783" lon="10.9974005"><ele>1533.0</ele><time>2026-04-26T11:40:16.787Z</time></trkpt><trkpt lat="45.6911625" lon="10.9975788"><ele>1533.0</ele><time>2026-04-26T11:40:17.786Z</time></trkpt><trkpt lat="45.6911461" lon="10.9977737"><ele>1532.6000000000001</ele><time>2026-04-26T11:40:18.786Z</time></trkpt><trkpt lat="45.6911328" lon="10.9979444"><ele>1532.2</ele><time>2026-04-26T11:40:19.785Z</time></trkpt><trkpt lat="45.6911116" lon="10.9980909"><ele>1531.8</ele><time>2026-04-26T11:40:20.785Z</time></trkpt><trkpt lat="45.6910717" lon="10.9982061"><ele>1531.4</ele><time>2026-04-26T11:40:21.787Z</time></trkpt><trkpt lat="45.6910046" lon="10.9983009"><ele>1531.0</ele><time>2026-04-26T11:40:22.786Z</time></trkpt><trkpt lat="45.6909158" lon="10.9983653"><ele>1533.75</ele><time>2026-04-26T11:40:23.785Z</time></trkpt><trkpt lat="45.6907936" lon="10.998398"><ele>1536.5</ele><time>2026-04-26T11:40:24.785Z</time></trkpt><trkpt lat="45.690657" lon="10.9984325"><ele>1539.25</ele><time>2026-04-26T11:40:25.785Z</time></trkpt><trkpt lat="45.6905141" lon="10.9984587"><ele>1542.0</ele><time>2026-04-26T11:40:26.786Z</time></trkpt><trkpt lat="45.6903767" lon="10.9984562"><ele>1543.25</ele><time>2026-04-26T11:40:27.786Z</time></trkpt><trkpt lat="45.6902412" lon="10.9984146"><ele>1544.5</ele><time>2026-04-26T11:40:28.786Z</time></trkpt><trkpt lat="45.6901095" lon="10.9983406"><ele>1545.75</ele><time>2026-04-26T11:40:29.786Z</time></trkpt><trkpt lat="45.6899919" lon="10.9982392"><ele>1547.0</ele><time>2026-04-26T11:40:30.786Z</time></trkpt><trkpt lat="45.6898999" lon="10.9981661"><ele>1544.1666666666665</ele><time>2026-04-26T11:40:31.786Z</time></trkpt><trkpt lat="45.6898248" lon="10.9981244"><ele>1541.3333333333333</ele><time>2026-04-26T11:40:32.786Z</time></trkpt><trkpt lat="45.689761" lon="10.9981084"><ele>1538.5</ele><time>2026-04-26T11:40:33.787Z</time></trkpt><trkpt lat="45.6896738" lon="10.9981233"><ele>1535.6666666666665</ele><time>2026-04-26T11:40:35.785Z</time></trkpt><trkpt lat="45.689613" lon="10.9981563"><ele>1532.8333333333333</ele><time>2026-04-26T11:40:37.785Z</time></trkpt><trkpt lat="45.6895105" lon="10.9982291"><ele>1530.0</ele><time>2026-04-26T11:40:39.786Z</time></trkpt><trkpt lat="45.6894437" lon="10.9982777"><ele>1529.2</ele><time>2026-04-26T11:40:40.786Z</time></trkpt><trkpt lat="45.6893749" lon="10.9983262"><ele>1528.4</ele><time>2026-04-26T11:40:41.786Z</time></trkpt><trkpt lat="45.6892964" lon="10.9983772"><ele>1527.6</ele><time>2026-04-26T11:40:42.786Z</time></trkpt><trkpt lat="45.6892076" lon="10.9984354"><ele>1526.8</ele><time>2026-04-26T11:40:43.786Z</time></trkpt><trkpt lat="45.6891121" lon="10.9984985"><ele>1526.0</ele><time>2026-04-26T11:40:44.786Z</time></trkpt><trkpt lat="45.6890065" lon="10.9985686"><ele>1526.1999999999998</ele><time>2026-04-26T11:40:45.786Z</time></trkpt><trkpt lat="45.6888914" lon="10.998645"><ele>1526.3999999999999</ele><time>2026-04-26T11:40:46.787Z</time></trkpt><trkpt lat="45.6887835" lon="10.9987151"><ele>1526.6</ele><time>2026-04-26T11:40:47.786Z</time></trkpt><trkpt lat="45.6886976" lon="10.9987708"><ele>1526.8</ele><time>2026-04-26T11:40:48.787Z</time></trkpt><trkpt lat="45.6886271" lon="10.998815"><ele>1527.0</ele><time>2026-04-26T11:40:49.785Z</time></trkpt><trkpt lat="45.6885553" lon="10.9988606"><ele>1527.0</ele><time>2026-04-26T11:40:50.785Z</time></trkpt><trkpt lat="45.6884828" lon="10.9989074"><ele>1527.0</ele><time>2026-04-26T11:40:51.786Z</time></trkpt><trkpt lat="45.6884263" lon="10.9989564"><ele>1527.0</ele><time>2026-04-26T11:40:52.785Z</time></trkpt><trkpt lat="45.6883774" lon="10.9990296"><ele>1527.0</ele><time>2026-04-26T11:40:53.786Z</time></trkpt><trkpt lat="45.6883394" lon="10.9991194"><ele>1527.0</ele><time>2026-04-26T11:40:54.786Z</time></trkpt><trkpt lat="45.6883183" lon="10.9992316"><ele>1527.0</ele><time>2026-04-26T11:40:55.787Z</time></trkpt><trkpt lat="45.6883086" lon="10.9993624"><ele>1526.6</ele><time>2026-04-26T11:40:56.787Z</time></trkpt><trkpt lat="45.6883194" lon="10.9995101"><ele>1526.1999999999998</ele><time>2026-04-26T11:40:57.787Z</time></trkpt><trkpt lat="45.6883421" lon="10.9996338"><ele>1525.8</ele><time>2026-04-26T11:40:58.787Z</time></trkpt><trkpt lat="45.6883731" lon="10.9997346"><ele>1525.4</ele><time>2026-04-26T11:40:59.787Z</time></trkpt><trkpt lat="45.688406" lon="10.9998148"><ele>1525.0</ele><time>2026-04-26T11:41:00.786Z</time></trkpt><trkpt lat="45.6885136" lon="10.9999529"><ele>1530.0</ele><time>2026-04-26T11:41:02.786Z</time></trkpt><trkpt lat="45.6885989" lon="11.0000587"><ele>1535.0</ele><time>2026-04-26T11:41:03.787Z</time></trkpt><trkpt lat="45.6886931" lon="11.0001869"><ele>1540.0</ele><time>2026-04-26T11:41:04.786Z</time></trkpt><trkpt lat="45.6887886" lon="11.0003003"><ele>1545.0</ele><time>2026-04-26T11:41:05.786Z</time></trkpt><trkpt lat="45.6888949" lon="11.0004054"><ele>1545.0</ele><time>2026-04-26T11:41:06.787Z</time></trkpt><trkpt lat="45.689013" lon="11.000496"><ele>1545.0</ele><time>2026-04-26T11:41:07.786Z</time></trkpt><trkpt lat="45.689125" lon="11.0005825"><ele>1545.0</ele><time>2026-04-26T11:41:08.786Z</time></trkpt><trkpt lat="45.6892137" lon="11.0006768"><ele>1545.0</ele><time>2026-04-26T11:41:09.786Z</time></trkpt><trkpt lat="45.6892771" lon="11.0007813"><ele>1545.0</ele><time>2026-04-26T11:41:10.786Z</time></trkpt><trkpt lat="45.6893173" lon="11.0008906"><ele>1545.0</ele><time>2026-04-26T11:41:11.786Z</time></trkpt><trkpt lat="45.6893525" lon="11.000982"><ele>1545.0</ele><time>2026-04-26T11:41:12.785Z</time></trkpt><trkpt lat="45.6894009" lon="11.0010531"><ele>1545.0</ele><time>2026-04-26T11:41:13.787Z</time></trkpt><trkpt lat="45.6894555" lon="11.0011123"><ele>1545.0</ele><time>2026-04-26T11:41:14.786Z</time></trkpt><trkpt lat="45.6895159" lon="11.0011393"><ele>1545.0</ele><time>2026-04-26T11:41:15.786Z</time></trkpt><trkpt lat="45.6895842" lon="11.0011463"><ele>1545.0</ele><time>2026-04-26T11:41:16.786Z</time></trkpt><trkpt lat="45.6896568" lon="11.0011237"><ele>1545.0</ele><time>2026-04-26T11:41:17.787Z</time></trkpt><trkpt lat="45.6897409" lon="11.0010753"><ele>1545.0</ele><time>2026-04-26T11:41:18.785Z</time></trkpt><trkpt lat="45.6898339" lon="11.0010157"><ele>1545.0</ele><time>2026-04-26T11:41:19.787Z</time></trkpt><trkpt lat="45.6899433" lon="11.0009494"><ele>1545.0</ele><time>2026-04-26T11:41:20.786Z</time></trkpt><trkpt lat="45.6900703" lon="11.00088"><ele>1545.0</ele><time>2026-04-26T11:41:21.786Z</time></trkpt><trkpt lat="45.6902026" lon="11.0008158"><ele>1546.6666666666665</ele><time>2026-04-26T11:41:22.785Z</time></trkpt><trkpt lat="45.6903586" lon="11.0007415"><ele>1548.3333333333333</ele><time>2026-04-26T11:41:23.787Z</time></trkpt><trkpt lat="45.6905243" lon="11.0006673"><ele>1550.0</ele><time>2026-04-26T11:41:24.786Z</time></trkpt><trkpt lat="45.690672" lon="11.0006039"><ele>1550.0</ele><time>2026-04-26T11:41:25.786Z</time></trkpt><trkpt lat="45.6908061" lon="11.0005459"><ele>1550.0</ele><time>2026-04-26T11:41:26.787Z</time></trkpt><trkpt lat="45.6909291" lon="11.0004911"><ele>1550.0</ele><time>2026-04-26T11:41:27.787Z</time></trkpt><trkpt lat="45.6910414" lon="11.0004533"><ele>1550.0</ele><time>2026-04-26T11:41:28.786Z</time></trkpt><trkpt lat="45.691145" lon="11.000445"><ele>1551.25</ele><time>2026-04-26T11:41:29.787Z</time></trkpt><trkpt lat="45.6912474" lon="11.0004667"><ele>1552.5</ele><time>2026-04-26T11:41:30.786Z</time></trkpt><trkpt lat="45.6913537" lon="11.0005358"><ele>1553.75</ele><time>2026-04-26T11:41:31.787Z</time></trkpt><trkpt lat="45.6914664" lon="11.0006165"><ele>1555.0</ele><time>2026-04-26T11:41:32.786Z</time></trkpt><trkpt lat="45.6915922" lon="11.0006983"><ele>1555.0</ele><time>2026-04-26T11:41:33.785Z</time></trkpt><trkpt lat="45.6917014" lon="11.0007683"><ele>1555.0</ele><time>2026-04-26T11:41:34.786Z</time></trkpt><trkpt lat="45.691794" lon="11.0008387"><ele>1555.0</ele><time>2026-04-26T11:41:35.785Z</time></trkpt><trkpt lat="45.6918773" lon="11.0009161"><ele>1555.0</ele><time>2026-04-26T11:41:36.787Z</time></trkpt><trkpt lat="45.6919403" lon="11.001001"><ele>1555.0</ele><time>2026-04-26T11:41:37.787Z</time></trkpt><trkpt lat="45.6919912" lon="11.0011027"><ele>1555.4</ele><time>2026-04-26T11:41:38.787Z</time></trkpt><trkpt lat="45.6920269" lon="11.0012309"><ele>1555.8</ele><time>2026-04-26T11:41:39.786Z</time></trkpt><trkpt lat="45.6920433" lon="11.0013876"><ele>1556.1999999999998</ele><time>2026-04-26T11:41:40.787Z</time></trkpt><trkpt lat="45.6920493" lon="11.0015476"><ele>1556.6</ele><time>2026-04-26T11:41:41.787Z</time></trkpt><trkpt lat="45.6920438" lon="11.0017083"><ele>1557.0</ele><time>2026-04-26T11:41:42.787Z</time></trkpt><trkpt lat="45.6920321" lon="11.0018661"><ele>1557.0</ele><time>2026-04-26T11:41:43.786Z</time></trkpt><trkpt lat="45.6920189" lon="11.0020035"><ele>1557.0</ele><time>2026-04-26T11:41:44.787Z</time></trkpt><trkpt lat="45.6920035" lon="11.0021396"><ele>1557.0</ele><time>2026-04-26T11:41:45.785Z</time></trkpt><trkpt lat="45.6919866" lon="11.0022691"><ele>1557.0</ele><time>2026-04-26T11:41:46.787Z</time></trkpt><trkpt lat="45.6919737" lon="11.0023812"><ele>1557.0</ele><time>2026-04-26T11:41:47.786Z</time></trkpt><trkpt lat="45.6919596" lon="11.0024812"><ele>1557.0</ele><time>2026-04-26T11:41:48.786Z</time></trkpt><trkpt lat="45.6919294" lon="11.0026348"><ele>1557.8333333333333</ele><time>2026-04-26T11:41:50.787Z</time></trkpt><trkpt lat="45.6918784" lon="11.0027617"><ele>1558.6666666666665</ele><time>2026-04-26T11:41:52.785Z</time></trkpt><trkpt lat="45.6918346" lon="11.0028453"><ele>1559.5</ele><time>2026-04-26T11:41:54.785Z</time></trkpt><trkpt lat="45.6918665" lon="11.0029239"><ele>1560.3333333333333</ele><time>2026-04-26T11:41:58.786Z</time></trkpt><trkpt lat="45.6919336" lon="11.0029051"><ele>1561.1666666666665</ele><time>2026-04-26T11:42:00.787Z</time></trkpt><trkpt lat="45.6920093" lon="11.0028007"><ele>1562.0</ele><time>2026-04-26T11:42:02.786Z</time></trkpt><trkpt lat="45.6921002" lon="11.002714"><ele>1563.1999999999998</ele><time>2026-04-26T11:42:04.786Z</time></trkpt><trkpt lat="45.6921897" lon="11.0026579"><ele>1564.4</ele><time>2026-04-26T11:42:06.786Z</time></trkpt><trkpt lat="45.6923006" lon="11.0026123"><ele>1565.6</ele><time>2026-04-26T11:42:08.786Z</time></trkpt><trkpt lat="45.6924131" lon="11.0026073"><ele>1566.8000000000002</ele><time>2026-04-26T11:42:10.786Z</time></trkpt><trkpt lat="45.6924779" lon="11.0026154"><ele>1568.0</ele><time>2026-04-26T11:42:11.785Z</time></trkpt><trkpt lat="45.6925449" lon="11.0026258"><ele>1568.0</ele><time>2026-04-26T11:42:12.785Z</time></trkpt><trkpt lat="45.6926657" lon="11.0026526"><ele>1568.0</ele><time>2026-04-26T11:42:14.787Z</time></trkpt><trkpt lat="45.6927722" lon="11.0026894"><ele>1568.0</ele><time>2026-04-26T11:42:16.786Z</time></trkpt><trkpt lat="45.692868" lon="11.0027538"><ele>1568.0</ele><time>2026-04-26T11:42:18.787Z</time></trkpt><trkpt lat="45.6929528" lon="11.0028293"><ele>1568.0</ele><time>2026-04-26T11:42:20.786Z</time></trkpt><trkpt lat="45.6930277" lon="11.0029179"><ele>1567.2</ele><time>2026-04-26T11:42:22.786Z</time></trkpt><trkpt lat="45.6930933" lon="11.0030269"><ele>1566.4</ele><time>2026-04-26T11:42:24.787Z</time></trkpt><trkpt lat="45.6931397" lon="11.0031755"><ele>1565.6000000000001</ele><time>2026-04-26T11:42:26.787Z</time></trkpt><trkpt lat="45.6931614" lon="11.0033154"><ele>1564.8000000000002</ele><time>2026-04-26T11:42:28.787Z</time></trkpt><trkpt lat="45.6931792" lon="11.0034596"><ele>1564.0</ele><time>2026-04-26T11:42:30.786Z</time></trkpt><trkpt lat="45.6931868" lon="11.0036298"><ele>1565.3333333333335</ele><time>2026-04-26T11:42:32.786Z</time></trkpt><trkpt lat="45.6931885" lon="11.0037256"><ele>1566.6666666666667</ele><time>2026-04-26T11:42:33.786Z</time></trkpt><trkpt lat="45.693188" lon="11.0038982"><ele>1568.0</ele><time>2026-04-26T11:42:35.785Z</time></trkpt><trkpt lat="45.6931894" lon="11.0039922"><ele>1569.3333333333335</ele><time>2026-04-26T11:42:36.786Z</time></trkpt><trkpt lat="45.6931872" lon="11.0040866"><ele>1570.6666666666667</ele><time>2026-04-26T11:42:37.787Z</time></trkpt><trkpt lat="45.6931842" lon="11.0041848"><ele>1572.0</ele><time>2026-04-26T11:42:38.785Z</time></trkpt><trkpt lat="45.6931855" lon="11.0042825"><ele>1573.3333333333333</ele><time>2026-04-26T11:42:39.787Z</time></trkpt><trkpt lat="45.6931931" lon="11.0043791"><ele>1574.6666666666665</ele><time>2026-04-26T11:42:40.787Z</time></trkpt><trkpt lat="45.6932106" lon="11.0044741"><ele>1576.0</ele><time>2026-04-26T11:42:41.787Z</time></trkpt><trkpt lat="45.6932353" lon="11.0045602"><ele>1577.3333333333333</ele><time>2026-04-26T11:42:42.786Z</time></trkpt><trkpt lat="45.6933042" lon="11.0047065"><ele>1578.6666666666665</ele><time>2026-04-26T11:42:44.787Z</time></trkpt><trkpt lat="45.693376" lon="11.004805"><ele>1580.0</ele><time>2026-04-26T11:42:46.787Z</time></trkpt><trkpt lat="45.6934633" lon="11.0048961"><ele>1580.0</ele><time>2026-04-26T11:42:48.787Z</time></trkpt><trkpt lat="45.6935628" lon="11.0049725"><ele>1580.0</ele><time>2026-04-26T11:42:50.787Z</time></trkpt><trkpt lat="45.6936761" lon="11.0050298"><ele>1580.0</ele><time>2026-04-26T11:42:52.785Z</time></trkpt><trkpt lat="45.6937407" lon="11.0050613"><ele>1580.0</ele><time>2026-04-26T11:42:53.786Z</time></trkpt><trkpt lat="45.693815" lon="11.0050923"><ele>1580.0</ele><time>2026-04-26T11:42:54.786Z</time></trkpt><trkpt lat="45.6938895" lon="11.0051159"><ele>1580.3333333333333</ele><time>2026-04-26T11:42:55.787Z</time></trkpt><trkpt lat="45.6939737" lon="11.0051385"><ele>1580.6666666666665</ele><time>2026-04-26T11:42:56.787Z</time></trkpt><trkpt lat="45.6940609" lon="11.0051612"><ele>1581.0</ele><time>2026-04-26T11:42:57.787Z</time></trkpt><trkpt lat="45.6941468" lon="11.0051825"><ele>1581.3333333333335</ele><time>2026-04-26T11:42:58.786Z</time></trkpt><trkpt lat="45.6942319" lon="11.0052001"><ele>1581.6666666666667</ele><time>2026-04-26T11:42:59.785Z</time></trkpt><trkpt lat="45.6943141" lon="11.0052245"><ele>1582.0</ele><time>2026-04-26T11:43:00.786Z</time></trkpt><trkpt lat="45.6943941" lon="11.0052577"><ele>1582.5000000000002</ele><time>2026-04-26T11:43:01.786Z</time></trkpt><trkpt lat="45.6944706" lon="11.0052998"><ele>1583.0</ele><time>2026-04-26T11:43:02.787Z</time></trkpt><trkpt lat="45.694544" lon="11.0053489"><ele>1583.5</ele><time>2026-04-26T11:43:03.785Z</time></trkpt><trkpt lat="45.6946156" lon="11.0054034"><ele>1584.0</ele><time>2026-04-26T11:43:04.786Z</time></trkpt><trkpt lat="45.6946823" lon="11.0054625"><ele>1584.5000000000002</ele><time>2026-04-26T11:43:05.786Z</time></trkpt><trkpt lat="45.6947472" lon="11.0055217"><ele>1585.0</ele><time>2026-04-26T11:43:06.787Z</time></trkpt><trkpt lat="45.6948097" lon="11.0055848"><ele>1585.0</ele><time>2026-04-26T11:43:07.786Z</time></trkpt><trkpt lat="45.6948736" lon="11.00566"><ele>1585.0</ele><time>2026-04-26T11:43:08.786Z</time></trkpt><trkpt lat="45.6949416" lon="11.0057417"><ele>1585.0</ele><time>2026-04-26T11:43:09.785Z</time></trkpt><trkpt lat="45.695015" lon="11.0058288"><ele>1585.0</ele><time>2026-04-26T11:43:10.786Z</time></trkpt><trkpt lat="45.6950922" lon="11.0059212"><ele>1585.0</ele><time>2026-04-26T11:43:11.786Z</time></trkpt><trkpt lat="45.6951728" lon="11.006019"><ele>1586.2</ele><time>2026-04-26T11:43:12.786Z</time></trkpt><trkpt lat="45.6952556" lon="11.0061175"><ele>1587.4</ele><time>2026-04-26T11:43:13.786Z</time></trkpt><trkpt lat="45.6953393" lon="11.0062129"><ele>1588.6</ele><time>2026-04-26T11:43:14.787Z</time></trkpt><trkpt lat="45.6954241" lon="11.0063078"><ele>1589.8</ele><time>2026-04-26T11:43:15.786Z</time></trkpt><trkpt lat="45.6955078" lon="11.0063998"><ele>1591.0</ele><time>2026-04-26T11:43:16.786Z</time></trkpt><trkpt lat="45.6955931" lon="11.0064869"><ele>1591.0000000000002</ele><time>2026-04-26T11:43:17.786Z</time></trkpt><trkpt lat="45.6956764" lon="11.0065656"><ele>1591.0</ele><time>2026-04-26T11:43:18.786Z</time></trkpt><trkpt lat="45.6957526" lon="11.006637"><ele>1591.0</ele><time>2026-04-26T11:43:19.786Z</time></trkpt><trkpt lat="45.6958219" lon="11.0067019"><ele>1591.0</ele><time>2026-04-26T11:43:20.787Z</time></trkpt><trkpt lat="45.6958868" lon="11.0067707"><ele>1591.0000000000002</ele><time>2026-04-26T11:43:21.786Z</time></trkpt><trkpt lat="45.695945" lon="11.006844"><ele>1591.0</ele><time>2026-04-26T11:43:22.787Z</time></trkpt><trkpt lat="45.6960018" lon="11.0069212"><ele>1591.0000000000002</ele><time>2026-04-26T11:43:23.787Z</time></trkpt><trkpt lat="45.6960585" lon="11.0070015"><ele>1591.0</ele><time>2026-04-26T11:43:24.786Z</time></trkpt><trkpt lat="45.696113" lon="11.0070868"><ele>1591.0</ele><time>2026-04-26T11:43:25.787Z</time></trkpt><trkpt lat="45.6961633" lon="11.0071668"><ele>1591.0</ele><time>2026-04-26T11:43:26.787Z</time></trkpt><trkpt lat="45.6962088" lon="11.0072406"><ele>1591.0000000000002</ele><time>2026-04-26T11:43:27.785Z</time></trkpt><trkpt lat="45.6962521" lon="11.0073071"><ele>1591.0</ele><time>2026-04-26T11:43:28.786Z</time></trkpt><trkpt lat="45.6963333" lon="11.0074342"><ele>1594.1666666666667</ele><time>2026-04-26T11:43:30.786Z</time></trkpt><trkpt lat="45.6963998" lon="11.0075433"><ele>1597.3333333333335</ele><time>2026-04-26T11:43:32.787Z</time></trkpt><trkpt lat="45.6964667" lon="11.0076379"><ele>1600.5</ele><time>2026-04-26T11:43:35.786Z</time></trkpt><trkpt lat="45.6965208" lon="11.0077051"><ele>1603.6666666666665</ele><time>2026-04-26T11:43:37.787Z</time></trkpt><trkpt lat="45.6965751" lon="11.0077669"><ele>1606.8333333333333</ele><time>2026-04-26T11:43:39.786Z</time></trkpt><trkpt lat="45.6966353" lon="11.0078405"><ele>1610.0</ele><time>2026-04-26T11:43:41.785Z</time></trkpt><trkpt lat="45.6966984" lon="11.0079036"><ele>1610.0</ele><time>2026-04-26T11:43:43.786Z</time></trkpt><trkpt lat="45.6967656" lon="11.0079617"><ele>1610.0</ele><time>2026-04-26T11:43:45.787Z</time></trkpt><trkpt lat="45.6968288" lon="11.008"><ele>1610.0</ele><time>2026-04-26T11:43:47.786Z</time></trkpt><trkpt lat="45.696897" lon="11.0080307"><ele>1610.0</ele><time>2026-04-26T11:43:49.786Z</time></trkpt><trkpt lat="45.6969626" lon="11.0080477"><ele>1610.0</ele><time>2026-04-26T11:43:52.786Z</time></trkpt><trkpt lat="45.697031" lon="11.0080426"><ele>1610.0</ele><time>2026-04-26T11:44:02.787Z</time></trkpt><trkpt lat="45.6970144" lon="11.0081479"><ele>1610.0</ele><time>2026-04-26T11:46:00.786Z</time></trkpt><trkpt lat="45.696954" lon="11.0080816"><ele>1609.9999999999998</ele><time>2026-04-26T11:46:22.786Z</time></trkpt><trkpt lat="45.696889" lon="11.0080256"><ele>1610.0</ele><time>2026-04-26T11:46:25.785Z</time></trkpt><trkpt lat="45.6968078" lon="11.0079625"><ele>1610.0</ele><time>2026-04-26T11:46:28.787Z</time></trkpt><trkpt lat="45.69673" lon="11.0079"><ele>1610.0</ele><time>2026-04-26T11:46:31.785Z</time></trkpt><trkpt lat="45.6966755" lon="11.0078496"><ele>1609.9999999999998</ele><time>2026-04-26T11:46:34.786Z</time></trkpt><trkpt lat="45.6966138" lon="11.0077821"><ele>1610.0</ele><time>2026-04-26T11:46:37.786Z</time></trkpt><trkpt lat="45.6965563" lon="11.0077213"><ele>1610.0</ele><time>2026-04-26T11:46:40.785Z</time></trkpt><trkpt lat="45.6964904" lon="11.0076988"><ele>1610.0</ele><time>2026-04-26T11:46:44.786Z</time></trkpt><trkpt lat="45.6965724" lon="11.0077436"><ele>1610.0</ele><time>2026-04-26T11:58:59.785Z</time></trkpt><trkpt lat="45.6966454" lon="11.0078267"><ele>1610.0</ele><time>2026-04-26T11:59:01.784Z</time></trkpt><trkpt lat="45.6967485" lon="11.0079243"><ele>1610.0</ele><time>2026-04-26T11:59:03.785Z</time></trkpt><trkpt lat="45.6968558" lon="11.0079962"><ele>1609.25</ele><time>2026-04-26T11:59:05.785Z</time></trkpt><trkpt lat="45.6969701" lon="11.0080295"><ele>1608.5</ele><time>2026-04-26T11:59:07.783Z</time></trkpt><trkpt lat="45.6970799" lon="11.0080401"><ele>1607.75</ele><time>2026-04-26T11:59:09.785Z</time></trkpt><trkpt lat="45.6971906" lon="11.0080548"><ele>1607.0</ele><time>2026-04-26T11:59:11.784Z</time></trkpt><trkpt lat="45.6973145" lon="11.0080585"><ele>1606.9999999999998</ele><time>2026-04-26T11:59:13.785Z</time></trkpt><trkpt lat="45.6973844" lon="11.0080553"><ele>1607.0</ele><time>2026-04-26T11:59:14.783Z</time></trkpt><trkpt lat="45.6974577" lon="11.008055"><ele>1607.0</ele><time>2026-04-26T11:59:15.785Z</time></trkpt><trkpt lat="45.6975259" lon="11.0080584"><ele>1607.0</ele><time>2026-04-26T11:59:16.785Z</time></trkpt><trkpt lat="45.6976507" lon="11.008065"><ele>1606.9999999999998</ele><time>2026-04-26T11:59:18.783Z</time></trkpt><trkpt lat="45.6977177" lon="11.0080694"><ele>1607.0</ele><time>2026-04-26T11:59:19.785Z</time></trkpt><trkpt lat="45.6977894" lon="11.0080738"><ele>1607.4999999999998</ele><time>2026-04-26T11:59:20.783Z</time></trkpt><trkpt lat="45.6978672" lon="11.0080779"><ele>1608.0</ele><time>2026-04-26T11:59:21.783Z</time></trkpt><trkpt lat="45.6979517" lon="11.0080806"><ele>1608.5</ele><time>2026-04-26T11:59:22.784Z</time></trkpt><trkpt lat="45.6980328" lon="11.0080814"><ele>1609.0</ele><time>2026-04-26T11:59:23.784Z</time></trkpt><trkpt lat="45.6981085" lon="11.0080825"><ele>1609.4999999999998</ele><time>2026-04-26T11:59:24.785Z</time></trkpt><trkpt lat="45.6981889" lon="11.0080842"><ele>1610.0</ele><time>2026-04-26T11:59:25.784Z</time></trkpt><trkpt lat="45.6982646" lon="11.0080887"><ele>1609.9999999999998</ele><time>2026-04-26T11:59:26.785Z</time></trkpt><trkpt lat="45.6983339" lon="11.0080938"><ele>1610.0</ele><time>2026-04-26T11:59:27.783Z</time></trkpt><trkpt lat="45.698401" lon="11.0080992"><ele>1610.0</ele><time>2026-04-26T11:59:28.783Z</time></trkpt><trkpt lat="45.6984737" lon="11.0081079"><ele>1610.0</ele><time>2026-04-26T11:59:29.784Z</time></trkpt><trkpt lat="45.6985422" lon="11.0081214"><ele>1609.9999999999998</ele><time>2026-04-26T11:59:30.785Z</time></trkpt><trkpt lat="45.6986048" lon="11.0081417"><ele>1610.0</ele><time>2026-04-26T11:59:31.785Z</time></trkpt><trkpt lat="45.6987235" lon="11.0082022"><ele>1609.1666666666665</ele><time>2026-04-26T11:59:33.784Z</time></trkpt><trkpt lat="45.6987809" lon="11.0082543"><ele>1608.3333333333333</ele><time>2026-04-26T11:59:34.785Z</time></trkpt><trkpt lat="45.6988416" lon="11.0083142"><ele>1607.5</ele><time>2026-04-26T11:59:35.784Z</time></trkpt><trkpt lat="45.6989068" lon="11.0083805"><ele>1606.6666666666665</ele><time>2026-04-26T11:59:36.784Z</time></trkpt><trkpt lat="45.6989738" lon="11.0084437"><ele>1605.8333333333333</ele><time>2026-04-26T11:59:37.784Z</time></trkpt><trkpt lat="45.6990377" lon="11.0085006"><ele>1605.0</ele><time>2026-04-26T11:59:38.783Z</time></trkpt><trkpt lat="45.6991025" lon="11.0085526"><ele>1607.857142857143</ele><time>2026-04-26T11:59:39.784Z</time></trkpt><trkpt lat="45.6991691" lon="11.0085901"><ele>1610.7142857142856</ele><time>2026-04-26T11:59:40.784Z</time></trkpt><trkpt lat="45.6992423" lon="11.0086164"><ele>1613.5714285714284</ele><time>2026-04-26T11:59:41.785Z</time></trkpt><trkpt lat="45.6993162" lon="11.00863"><ele>1616.4285714285716</ele><time>2026-04-26T11:59:42.785Z</time></trkpt><trkpt lat="45.6993863" lon="11.0086301"><ele>1619.2857142857142</ele><time>2026-04-26T11:59:43.784Z</time></trkpt><trkpt lat="45.6994583" lon="11.0086199"><ele>1622.142857142857</ele><time>2026-04-26T11:59:44.785Z</time></trkpt><trkpt lat="45.6995342" lon="11.0086039"><ele>1625.0</ele><time>2026-04-26T11:59:45.783Z</time></trkpt><trkpt lat="45.6996027" lon="11.0085904"><ele>1625.4999999999998</ele><time>2026-04-26T11:59:46.784Z</time></trkpt><trkpt lat="45.699709" lon="11.0086033"><ele>1626.0</ele><time>2026-04-26T11:59:48.785Z</time></trkpt><trkpt lat="45.6998162" lon="11.0086655"><ele>1626.5</ele><time>2026-04-26T11:59:50.784Z</time></trkpt><trkpt lat="45.6998745" lon="11.0087168"><ele>1627.0</ele><time>2026-04-26T11:59:51.784Z</time></trkpt><trkpt lat="45.6999371" lon="11.0087784"><ele>1627.4999999999998</ele><time>2026-04-26T11:59:52.784Z</time></trkpt><trkpt lat="45.6999978" lon="11.0088473"><ele>1628.0</ele><time>2026-04-26T11:59:53.784Z</time></trkpt><trkpt lat="45.7000588" lon="11.0089174"><ele>1627.9999999999998</ele><time>2026-04-26T11:59:54.784Z</time></trkpt><trkpt lat="45.7001218" lon="11.008992"><ele>1628.0</ele><time>2026-04-26T11:59:55.784Z</time></trkpt><trkpt lat="45.7001832" lon="11.0090654"><ele>1628.0</ele><time>2026-04-26T11:59:56.784Z</time></trkpt><trkpt lat="45.70024" lon="11.009131"><ele>1628.0</ele><time>2026-04-26T11:59:57.783Z</time></trkpt><trkpt lat="45.7002908" lon="11.0091886"><ele>1627.9999999999998</ele><time>2026-04-26T11:59:58.785Z</time></trkpt><trkpt lat="45.7003909" lon="11.0092836"><ele>1628.0</ele><time>2026-04-26T12:00:00.785Z</time></trkpt><trkpt lat="45.7004978" lon="11.0093614"><ele>1629.4285714285716</ele><time>2026-04-26T12:00:02.785Z</time></trkpt><trkpt lat="45.7005575" lon="11.0093974"><ele>1630.857142857143</ele><time>2026-04-26T12:00:03.785Z</time></trkpt><trkpt lat="45.7006249" lon="11.0094268"><ele>1632.2857142857142</ele><time>2026-04-26T12:00:04.785Z</time></trkpt><trkpt lat="45.7006942" lon="11.0094499"><ele>1633.7142857142858</ele><time>2026-04-26T12:00:05.785Z</time></trkpt><trkpt lat="45.7007641" lon="11.0094672"><ele>1635.142857142857</ele><time>2026-04-26T12:00:06.784Z</time></trkpt><trkpt lat="45.7008359" lon="11.0094873"><ele>1636.5714285714287</ele><time>2026-04-26T12:00:07.783Z</time></trkpt><trkpt lat="45.7009079" lon="11.0095113"><ele>1638.0</ele><time>2026-04-26T12:00:08.785Z</time></trkpt><trkpt lat="45.7009779" lon="11.0095386"><ele>1638.0</ele><time>2026-04-26T12:00:09.785Z</time></trkpt><trkpt lat="45.7010425" lon="11.0095695"><ele>1638.0</ele><time>2026-04-26T12:00:10.784Z</time></trkpt><trkpt lat="45.7011037" lon="11.0096057"><ele>1638.0</ele><time>2026-04-26T12:00:11.784Z</time></trkpt><trkpt lat="45.701163" lon="11.009642"><ele>1638.0</ele><time>2026-04-26T12:00:12.785Z</time></trkpt><trkpt lat="45.7012228" lon="11.0096778"><ele>1638.0</ele><time>2026-04-26T12:00:13.785Z</time></trkpt><trkpt lat="45.7012854" lon="11.0097074"><ele>1638.0</ele><time>2026-04-26T12:00:14.785Z</time></trkpt><trkpt lat="45.7013487" lon="11.0097339"><ele>1638.0</ele><time>2026-04-26T12:00:15.785Z</time></trkpt><trkpt lat="45.7014702" lon="11.0097824"><ele>1638.6000000000001</ele><time>2026-04-26T12:00:17.785Z</time></trkpt><trkpt lat="45.7015316" lon="11.009808"><ele>1639.2</ele><time>2026-04-26T12:00:18.784Z</time></trkpt><trkpt lat="45.7015924" lon="11.0098315"><ele>1639.8</ele><time>2026-04-26T12:00:19.784Z</time></trkpt><trkpt lat="45.7017067" lon="11.0098623"><ele>1640.4</ele><time>2026-04-26T12:00:21.784Z</time></trkpt><trkpt lat="45.7018118" lon="11.0098847"><ele>1641.0</ele><time>2026-04-26T12:00:23.784Z</time></trkpt><trkpt lat="45.7019161" lon="11.0098955"><ele>1642.4</ele><time>2026-04-26T12:00:25.785Z</time></trkpt><trkpt lat="45.7020291" lon="11.0098853"><ele>1643.8</ele><time>2026-04-26T12:00:27.783Z</time></trkpt><trkpt lat="45.7021424" lon="11.0098492"><ele>1645.2</ele><time>2026-04-26T12:00:29.784Z</time></trkpt><trkpt lat="45.7022049" lon="11.0098197"><ele>1646.6000000000001</ele><time>2026-04-26T12:00:30.784Z</time></trkpt><trkpt lat="45.7022762" lon="11.0097838"><ele>1648.0</ele><time>2026-04-26T12:00:31.784Z</time></trkpt><trkpt lat="45.7023497" lon="11.0097416"><ele>1647.9999999999998</ele><time>2026-04-26T12:00:32.785Z</time></trkpt><trkpt lat="45.7024159" lon="11.0096921"><ele>1648.0</ele><time>2026-04-26T12:00:33.785Z</time></trkpt><trkpt lat="45.7024787" lon="11.0096385"><ele>1648.0</ele><time>2026-04-26T12:00:34.784Z</time></trkpt><trkpt lat="45.7025404" lon="11.0095872"><ele>1648.0</ele><time>2026-04-26T12:00:35.785Z</time></trkpt><trkpt lat="45.7026026" lon="11.0095362"><ele>1648.0</ele><time>2026-04-26T12:00:36.785Z</time></trkpt><trkpt lat="45.7026634" lon="11.0094823"><ele>1647.9999999999998</ele><time>2026-04-26T12:00:37.784Z</time></trkpt><trkpt lat="45.7027226" lon="11.0094233"><ele>1648.0</ele><time>2026-04-26T12:00:38.784Z</time></trkpt><trkpt lat="45.7027817" lon="11.0093631"><ele>1648.1666666666667</ele><time>2026-04-26T12:00:39.783Z</time></trkpt><trkpt lat="45.7028379" lon="11.0092954"><ele>1648.3333333333335</ele><time>2026-04-26T12:00:40.785Z</time></trkpt><trkpt lat="45.702892" lon="11.0092218"><ele>1648.5</ele><time>2026-04-26T12:00:41.785Z</time></trkpt><trkpt lat="45.7029483" lon="11.0091415"><ele>1648.6666666666665</ele><time>2026-04-26T12:00:42.785Z</time></trkpt><trkpt lat="45.7030061" lon="11.0090564"><ele>1648.8333333333333</ele><time>2026-04-26T12:00:43.784Z</time></trkpt><trkpt lat="45.7030597" lon="11.0089785"><ele>1649.0</ele><time>2026-04-26T12:00:44.784Z</time></trkpt><trkpt lat="45.7031124" lon="11.0089073"><ele>1648.9999999999998</ele><time>2026-04-26T12:00:45.785Z</time></trkpt><trkpt lat="45.7031651" lon="11.0088457"><ele>1649.0</ele><time>2026-04-26T12:00:46.785Z</time></trkpt><trkpt lat="45.7032701" lon="11.0087581"><ele>1649.0</ele><time>2026-04-26T12:00:48.784Z</time></trkpt><trkpt lat="45.7033453" lon="11.008733"><ele>1649.0</ele><time>2026-04-26T12:00:50.785Z</time></trkpt><trkpt lat="45.7034135" lon="11.0087591"><ele>1648.9999999999998</ele><time>2026-04-26T12:00:52.783Z</time></trkpt><trkpt lat="45.7034636" lon="11.0088503"><ele>1649.0</ele><time>2026-04-26T12:00:54.784Z</time></trkpt><trkpt lat="45.7034676" lon="11.0089705"><ele>1648.9999999999998</ele><time>2026-04-26T12:00:56.784Z</time></trkpt><trkpt lat="45.7034192" lon="11.0090905"><ele>1649.0</ele><time>2026-04-26T12:00:58.784Z</time></trkpt><trkpt lat="45.7033314" lon="11.0091805"><ele>1649.0</ele><time>2026-04-26T12:01:00.785Z</time></trkpt><trkpt lat="45.7032791" lon="11.0092375"><ele>1649.0</ele><time>2026-04-26T12:01:01.784Z</time></trkpt><trkpt lat="45.7032245" lon="11.0093093"><ele>1648.9999999999998</ele><time>2026-04-26T12:01:02.785Z</time></trkpt><trkpt lat="45.7031776" lon="11.009383"><ele>1649.0</ele><time>2026-04-26T12:01:03.784Z</time></trkpt><trkpt lat="45.7031348" lon="11.009469"><ele>1650.1428571428573</ele><time>2026-04-26T12:01:04.785Z</time></trkpt><trkpt lat="45.7031032" lon="11.0095619"><ele>1651.2857142857142</ele><time>2026-04-26T12:01:05.785Z</time></trkpt><trkpt lat="45.7030819" lon="11.0096499"><ele>1652.4285714285716</ele><time>2026-04-26T12:01:06.785Z</time></trkpt><trkpt lat="45.703068" lon="11.0097429"><ele>1653.5714285714287</ele><time>2026-04-26T12:01:07.785Z</time></trkpt><trkpt lat="45.7030572" lon="11.0098409"><ele>1654.7142857142858</ele><time>2026-04-26T12:01:08.784Z</time></trkpt><trkpt lat="45.7030482" lon="11.0099379"><ele>1655.857142857143</ele><time>2026-04-26T12:01:09.784Z</time></trkpt><trkpt lat="45.7030455" lon="11.0100427"><ele>1657.0</ele><time>2026-04-26T12:01:10.785Z</time></trkpt><trkpt lat="45.7030535" lon="11.0101474"><ele>1658.1666666666667</ele><time>2026-04-26T12:01:11.785Z</time></trkpt><trkpt lat="45.7030696" lon="11.0102506"><ele>1659.3333333333335</ele><time>2026-04-26T12:01:12.784Z</time></trkpt><trkpt lat="45.7030939" lon="11.0103559"><ele>1660.5</ele><time>2026-04-26T12:01:13.784Z</time></trkpt><trkpt lat="45.7031228" lon="11.0104629"><ele>1661.6666666666665</ele><time>2026-04-26T12:01:14.784Z</time></trkpt><trkpt lat="45.7031543" lon="11.010571"><ele>1662.8333333333333</ele><time>2026-04-26T12:01:15.784Z</time></trkpt><trkpt lat="45.7031858" lon="11.0106797"><ele>1664.0</ele><time>2026-04-26T12:01:16.785Z</time></trkpt><trkpt lat="45.703213" lon="11.0107871"><ele>1664.8333333333333</ele><time>2026-04-26T12:01:17.784Z</time></trkpt><trkpt lat="45.703238" lon="11.0108941"><ele>1665.6666666666665</ele><time>2026-04-26T12:01:18.784Z</time></trkpt><trkpt lat="45.7032594" lon="11.0109973"><ele>1666.5</ele><time>2026-04-26T12:01:19.784Z</time></trkpt><trkpt lat="45.7032782" lon="11.0110998"><ele>1667.3333333333335</ele><time>2026-04-26T12:01:20.784Z</time></trkpt><trkpt lat="45.7032917" lon="11.0111935"><ele>1668.1666666666667</ele><time>2026-04-26T12:01:21.784Z</time></trkpt><trkpt lat="45.7032897" lon="11.0113543"><ele>1669.0</ele><time>2026-04-26T12:01:23.784Z</time></trkpt><trkpt lat="45.7032475" lon="11.0115019"><ele>1669.0</ele><time>2026-04-26T12:01:25.784Z</time></trkpt><trkpt lat="45.703165" lon="11.0116525"><ele>1669.0</ele><time>2026-04-26T12:01:27.784Z</time></trkpt><trkpt lat="45.7031235" lon="11.0117388"><ele>1669.0</ele><time>2026-04-26T12:01:28.785Z</time></trkpt><trkpt lat="45.7030909" lon="11.0118209"><ele>1669.0</ele><time>2026-04-26T12:01:29.784Z</time></trkpt><trkpt lat="45.7030652" lon="11.0119051"><ele>1669.0</ele><time>2026-04-26T12:01:30.784Z</time></trkpt><trkpt lat="45.7030423" lon="11.0120724"><ele>1669.5000000000002</ele><time>2026-04-26T12:01:32.784Z</time></trkpt><trkpt lat="45.7030418" lon="11.0121757"><ele>1670.0</ele><time>2026-04-26T12:01:33.784Z</time></trkpt><trkpt lat="45.7030444" lon="11.0122867"><ele>1670.5</ele><time>2026-04-26T12:01:34.784Z</time></trkpt><trkpt lat="45.7030493" lon="11.0123874"><ele>1671.0</ele><time>2026-04-26T12:01:35.784Z</time></trkpt><trkpt lat="45.7030451" lon="11.0125578"><ele>1671.5000000000002</ele><time>2026-04-26T12:01:37.784Z</time></trkpt><trkpt lat="45.703009" lon="11.0127015"><ele>1672.0</ele><time>2026-04-26T12:01:39.783Z</time></trkpt><trkpt lat="45.7029541" lon="11.0128422"><ele>1672.8</ele><time>2026-04-26T12:01:41.784Z</time></trkpt><trkpt lat="45.7029239" lon="11.0129659"><ele>1673.6</ele><time>2026-04-26T12:01:43.784Z</time></trkpt><trkpt lat="45.7029524" lon="11.0130676"><ele>1674.3999999999999</ele><time>2026-04-26T12:01:45.784Z</time></trkpt><trkpt lat="45.7030273" lon="11.0131129"><ele>1675.1999999999998</ele><time>2026-04-26T12:01:47.784Z</time></trkpt><trkpt lat="45.7031576" lon="11.0130733"><ele>1676.0</ele><time>2026-04-26T12:01:49.785Z</time></trkpt><trkpt lat="45.7032637" lon="11.0129916"><ele>1676.0</ele><time>2026-04-26T12:01:51.785Z</time></trkpt><trkpt lat="45.7033347" lon="11.0128643"><ele>1676.0</ele><time>2026-04-26T12:01:53.785Z</time></trkpt><trkpt lat="45.7033777" lon="11.0127157"><ele>1676.0</ele><time>2026-04-26T12:01:55.785Z</time></trkpt><trkpt lat="45.7034299" lon="11.0126053"><ele>1676.0</ele><time>2026-04-26T12:01:57.784Z</time></trkpt><trkpt lat="45.70351" lon="11.0125588"><ele>1676.0</ele><time>2026-04-26T12:01:59.785Z</time></trkpt><trkpt lat="45.7036179" lon="11.012586"><ele>1676.8571428571427</ele><time>2026-04-26T12:02:01.784Z</time></trkpt><trkpt lat="45.7036823" lon="11.0125976"><ele>1677.7142857142858</ele><time>2026-04-26T12:02:02.783Z</time></trkpt><trkpt lat="45.7037507" lon="11.0125955"><ele>1678.5714285714284</ele><time>2026-04-26T12:02:03.784Z</time></trkpt><trkpt lat="45.70382" lon="11.0125786"><ele>1679.4285714285713</ele><time>2026-04-26T12:02:04.785Z</time></trkpt><trkpt lat="45.703889" lon="11.0125457"><ele>1680.2857142857142</ele><time>2026-04-26T12:02:05.785Z</time></trkpt><trkpt lat="45.7039498" lon="11.0124978"><ele>1681.142857142857</ele><time>2026-04-26T12:02:06.785Z</time></trkpt><trkpt lat="45.7040077" lon="11.0124334"><ele>1682.0</ele><time>2026-04-26T12:02:07.785Z</time></trkpt><trkpt lat="45.7040572" lon="11.012354"><ele>1682.0</ele><time>2026-04-26T12:02:08.783Z</time></trkpt><trkpt lat="45.7040994" lon="11.0122645"><ele>1682.0</ele><time>2026-04-26T12:02:09.783Z</time></trkpt><trkpt lat="45.7041355" lon="11.0121736"><ele>1682.0</ele><time>2026-04-26T12:02:10.784Z</time></trkpt><trkpt lat="45.7041732" lon="11.0120845"><ele>1682.0</ele><time>2026-04-26T12:02:11.784Z</time></trkpt><trkpt lat="45.7042165" lon="11.011997"><ele>1682.0</ele><time>2026-04-26T12:02:12.785Z</time></trkpt><trkpt lat="45.7042646" lon="11.0119247"><ele>1682.0</ele><time>2026-04-26T12:02:13.785Z</time></trkpt><trkpt lat="45.7043197" lon="11.0118617"><ele>1682.0</ele><time>2026-04-26T12:02:14.784Z</time></trkpt><trkpt lat="45.7043773" lon="11.0118104"><ele>1682.3333333333333</ele><time>2026-04-26T12:02:15.784Z</time></trkpt><trkpt lat="45.7044415" lon="11.0117675"><ele>1682.6666666666665</ele><time>2026-04-26T12:02:16.784Z</time></trkpt><trkpt lat="45.7045129" lon="11.0117275"><ele>1683.0</ele><time>2026-04-26T12:02:17.784Z</time></trkpt><trkpt lat="45.7045931" lon="11.0116943"><ele>1683.3333333333335</ele><time>2026-04-26T12:02:18.783Z</time></trkpt><trkpt lat="45.7046822" lon="11.0116605"><ele>1683.6666666666667</ele><time>2026-04-26T12:02:19.783Z</time></trkpt><trkpt lat="45.7047708" lon="11.0116301"><ele>1684.0</ele><time>2026-04-26T12:02:20.785Z</time></trkpt><trkpt lat="45.7048557" lon="11.0116099"><ele>1684.0000000000002</ele><time>2026-04-26T12:02:21.785Z</time></trkpt><trkpt lat="45.7049412" lon="11.0115976"><ele>1684.0</ele><time>2026-04-26T12:02:22.783Z</time></trkpt><trkpt lat="45.7050265" lon="11.0115933"><ele>1684.0</ele><time>2026-04-26T12:02:23.784Z</time></trkpt><trkpt lat="45.7051083" lon="11.0115985"><ele>1684.0</ele><time>2026-04-26T12:02:24.783Z</time></trkpt><trkpt lat="45.7051893" lon="11.0116155"><ele>1684.0000000000002</ele><time>2026-04-26T12:02:25.784Z</time></trkpt><trkpt lat="45.7052675" lon="11.0116423"><ele>1684.0</ele><time>2026-04-26T12:02:26.784Z</time></trkpt><trkpt lat="45.7053433" lon="11.0116739"><ele>1685.857142857143</ele><time>2026-04-26T12:02:27.784Z</time></trkpt><trkpt lat="45.7054153" lon="11.01171"><ele>1687.7142857142858</ele><time>2026-04-26T12:02:28.784Z</time></trkpt><trkpt lat="45.7054812" lon="11.0117523"><ele>1689.5714285714284</ele><time>2026-04-26T12:02:29.784Z</time></trkpt><trkpt lat="45.7055406" lon="11.0117984"><ele>1691.4285714285716</ele><time>2026-04-26T12:02:30.784Z</time></trkpt><trkpt lat="45.7056074" lon="11.0118489"><ele>1693.2857142857142</ele><time>2026-04-26T12:02:31.785Z</time></trkpt><trkpt lat="45.7056768" lon="11.0118983"><ele>1695.142857142857</ele><time>2026-04-26T12:02:32.784Z</time></trkpt><trkpt lat="45.7057447" lon="11.0119496"><ele>1697.0</ele><time>2026-04-26T12:02:33.785Z</time></trkpt><trkpt lat="45.7058021" lon="11.0119983"><ele>1696.9999999999998</ele><time>2026-04-26T12:02:34.784Z</time></trkpt><trkpt lat="45.7058726" lon="11.0120657"><ele>1697.0</ele><time>2026-04-26T12:02:36.783Z</time></trkpt><trkpt lat="45.7059303" lon="11.0121313"><ele>1697.0</ele><time>2026-04-26T12:02:40.784Z</time></trkpt><trkpt lat="45.7059873" lon="11.0121845"><ele>1697.0</ele><time>2026-04-26T12:02:50.785Z</time></trkpt><trkpt lat="45.7060834" lon="11.0122496"><ele>1696.9999999999998</ele><time>2026-04-26T12:09:10.782Z</time></trkpt><trkpt lat="45.7061852" lon="11.0123309"><ele>1697.0</ele><time>2026-04-26T12:09:12.783Z</time></trkpt><trkpt lat="45.7063069" lon="11.0124102"><ele>1697.1666666666665</ele><time>2026-04-26T12:09:14.783Z</time></trkpt><trkpt lat="45.7063806" lon="11.0124542"><ele>1697.3333333333333</ele><time>2026-04-26T12:09:15.783Z</time></trkpt><trkpt lat="45.7064627" lon="11.0125008"><ele>1697.5</ele><time>2026-04-26T12:09:16.784Z</time></trkpt><trkpt lat="45.706543" lon="11.0125465"><ele>1697.6666666666665</ele><time>2026-04-26T12:09:17.784Z</time></trkpt><trkpt lat="45.7066113" lon="11.0125891"><ele>1697.8333333333333</ele><time>2026-04-26T12:09:18.784Z</time></trkpt><trkpt lat="45.7066742" lon="11.0126235"><ele>1698.0</ele><time>2026-04-26T12:09:19.771Z</time></trkpt><trkpt lat="45.7067785" lon="11.0126936"><ele>1698.0</ele><time>2026-04-26T12:09:21.771Z</time></trkpt><trkpt lat="45.7068563" lon="11.0127497"><ele>1698.0</ele><time>2026-04-26T12:09:23.783Z</time></trkpt><trkpt lat="45.706928" lon="11.0128123"><ele>1698.0</ele><time>2026-04-26T12:09:26.783Z</time></trkpt><trkpt lat="45.7069907" lon="11.0128793"><ele>1698.0</ele><time>2026-04-26T12:09:30.782Z</time></trkpt><trkpt lat="45.7070453" lon="11.0129732"><ele>1698.0</ele><time>2026-04-26T12:09:41.783Z</time></trkpt><trkpt lat="45.7070908" lon="11.0130686"><ele>1698.0</ele><time>2026-04-26T12:09:43.783Z</time></trkpt><trkpt lat="45.7071286" lon="11.0131465"><ele>1698.1666666666667</ele><time>2026-04-26T12:09:44.783Z</time></trkpt><trkpt lat="45.7071644" lon="11.013223"><ele>1698.3333333333335</ele><time>2026-04-26T12:09:45.784Z</time></trkpt><trkpt lat="45.7072197" lon="11.0133468"><ele>1698.5</ele><time>2026-04-26T12:09:47.783Z</time></trkpt><trkpt lat="45.707266" lon="11.0134506"><ele>1698.6666666666667</ele><time>2026-04-26T12:09:49.783Z</time></trkpt><trkpt lat="45.7072844" lon="11.013564"><ele>1698.8333333333335</ele><time>2026-04-26T12:09:51.782Z</time></trkpt><trkpt lat="45.707272" lon="11.0136744"><ele>1699.0</ele><time>2026-04-26T12:09:53.783Z</time></trkpt><trkpt lat="45.7072284" lon="11.0137637"><ele>1699.0</ele><time>2026-04-26T12:09:55.783Z</time></trkpt><trkpt lat="45.7071477" lon="11.0138368"><ele>1699.0</ele><time>2026-04-26T12:09:57.782Z</time></trkpt><trkpt lat="45.707046" lon="11.0139346"><ele>1699.0</ele><time>2026-04-26T12:09:59.783Z</time></trkpt><trkpt lat="45.7069957" lon="11.0139938"><ele>1699.0</ele><time>2026-04-26T12:10:00.783Z</time></trkpt><trkpt lat="45.7069493" lon="11.0140578"><ele>1699.0</ele><time>2026-04-26T12:10:01.784Z</time></trkpt><trkpt lat="45.7068704" lon="11.0141989"><ele>1696.8333333333335</ele><time>2026-04-26T12:10:03.783Z</time></trkpt><trkpt lat="45.7068381" lon="11.014282"><ele>1694.6666666666667</ele><time>2026-04-26T12:10:04.783Z</time></trkpt><trkpt lat="45.7068098" lon="11.014367"><ele>1692.5</ele><time>2026-04-26T12:10:05.782Z</time></trkpt><trkpt lat="45.7067832" lon="11.0144508"><ele>1690.3333333333335</ele><time>2026-04-26T12:10:06.783Z</time></trkpt><trkpt lat="45.7067185" lon="11.0145846"><ele>1688.1666666666667</ele><time>2026-04-26T12:10:08.784Z</time></trkpt><trkpt lat="45.7066588" lon="11.0147117"><ele>1686.0</ele><time>2026-04-26T12:10:10.782Z</time></trkpt><trkpt lat="45.7066467" lon="11.0148473"><ele>1686.0</ele><time>2026-04-26T12:10:12.784Z</time></trkpt><trkpt lat="45.7066772" lon="11.0149807"><ele>1686.0</ele><time>2026-04-26T12:10:14.784Z</time></trkpt><trkpt lat="45.7067314" lon="11.0151"><ele>1686.0</ele><time>2026-04-26T12:10:16.783Z</time></trkpt><trkpt lat="45.7067854" lon="11.0152264"><ele>1686.0</ele><time>2026-04-26T12:10:18.784Z</time></trkpt><trkpt lat="45.706807" lon="11.0153509"><ele>1686.0</ele><time>2026-04-26T12:10:20.784Z</time></trkpt><trkpt lat="45.706791" lon="11.0154893"><ele>1686.8333333333333</ele><time>2026-04-26T12:10:22.783Z</time></trkpt><trkpt lat="45.7067143" lon="11.0155976"><ele>1687.6666666666665</ele><time>2026-04-26T12:10:24.784Z</time></trkpt><trkpt lat="45.706653" lon="11.0156476"><ele>1688.5</ele><time>2026-04-26T12:10:25.783Z</time></trkpt><trkpt lat="45.7065837" lon="11.0156928"><ele>1689.3333333333333</ele><time>2026-04-26T12:10:26.783Z</time></trkpt><trkpt lat="45.7065085" lon="11.0157435"><ele>1690.1666666666665</ele><time>2026-04-26T12:10:27.784Z</time></trkpt><trkpt lat="45.7064389" lon="11.0157939"><ele>1691.0</ele><time>2026-04-26T12:10:28.784Z</time></trkpt><trkpt lat="45.7063726" lon="11.0158417"><ele>1691.4</ele><time>2026-04-26T12:10:29.783Z</time></trkpt><trkpt lat="45.7063141" lon="11.0158937"><ele>1691.8</ele><time>2026-04-26T12:10:30.783Z</time></trkpt><trkpt lat="45.7062173" lon="11.0160057"><ele>1692.2</ele><time>2026-04-26T12:10:32.784Z</time></trkpt><trkpt lat="45.7061525" lon="11.016125"><ele>1692.6000000000001</ele><time>2026-04-26T12:10:34.783Z</time></trkpt><trkpt lat="45.7061289" lon="11.016263"><ele>1693.0</ele><time>2026-04-26T12:10:36.783Z</time></trkpt><trkpt lat="45.7061497" lon="11.01641"><ele>1693.0000000000002</ele><time>2026-04-26T12:10:38.783Z</time></trkpt><trkpt lat="45.7061776" lon="11.0164939"><ele>1693.0</ele><time>2026-04-26T12:10:39.783Z</time></trkpt><trkpt lat="45.7062153" lon="11.0165959"><ele>1693.0</ele><time>2026-04-26T12:10:40.783Z</time></trkpt><trkpt lat="45.7062587" lon="11.0167098"><ele>1693.0</ele><time>2026-04-26T12:10:41.784Z</time></trkpt><trkpt lat="45.7063041" lon="11.0168237"><ele>1693.0000000000002</ele><time>2026-04-26T12:10:42.784Z</time></trkpt><trkpt lat="45.7063398" lon="11.016916"><ele>1693.0</ele><time>2026-04-26T12:10:43.783Z</time></trkpt><trkpt lat="45.7063721" lon="11.0170062"><ele>1692.5000000000002</ele><time>2026-04-26T12:10:44.783Z</time></trkpt><trkpt lat="45.7064023" lon="11.0170973"><ele>1692.0</ele><time>2026-04-26T12:10:45.783Z</time></trkpt><trkpt lat="45.7064213" lon="11.0171857"><ele>1691.5</ele><time>2026-04-26T12:10:46.783Z</time></trkpt><trkpt lat="45.706427" lon="11.0173685"><ele>1691.0</ele><time>2026-04-26T12:10:48.783Z</time></trkpt><trkpt lat="45.7064136" lon="11.0174737"><ele>1690.5000000000002</ele><time>2026-04-26T12:10:49.784Z</time></trkpt><trkpt lat="45.7063878" lon="11.0175871"><ele>1690.0</ele><time>2026-04-26T12:10:50.783Z</time></trkpt><trkpt lat="45.7063485" lon="11.0177016"><ele>1690.0000000000002</ele><time>2026-04-26T12:10:51.783Z</time></trkpt><trkpt lat="45.7062978" lon="11.01781"><ele>1690.0</ele><time>2026-04-26T12:10:52.783Z</time></trkpt><trkpt lat="45.706247" lon="11.0179018"><ele>1690.0</ele><time>2026-04-26T12:10:53.782Z</time></trkpt><trkpt lat="45.7061917" lon="11.0179895"><ele>1690.0</ele><time>2026-04-26T12:10:54.784Z</time></trkpt><trkpt lat="45.7061317" lon="11.0180714"><ele>1690.0000000000002</ele><time>2026-04-26T12:10:55.784Z</time></trkpt><trkpt lat="45.7060703" lon="11.0181547"><ele>1690.0</ele><time>2026-04-26T12:10:56.784Z</time></trkpt><trkpt lat="45.7060064" lon="11.0182412"><ele>1687.5000000000002</ele><time>2026-04-26T12:10:57.784Z</time></trkpt><trkpt lat="45.7059389" lon="11.0183263"><ele>1685.0</ele><time>2026-04-26T12:10:58.783Z</time></trkpt><trkpt lat="45.7058716" lon="11.0184086"><ele>1682.5</ele><time>2026-04-26T12:10:59.783Z</time></trkpt><trkpt lat="45.7058084" lon="11.0184811"><ele>1680.0</ele><time>2026-04-26T12:11:00.783Z</time></trkpt><trkpt lat="45.7057412" lon="11.0185544"><ele>1677.5000000000002</ele><time>2026-04-26T12:11:01.784Z</time></trkpt><trkpt lat="45.7056779" lon="11.018623"><ele>1675.0</ele><time>2026-04-26T12:11:02.782Z</time></trkpt><trkpt lat="45.7056183" lon="11.0186923"><ele>1675.0000000000002</ele><time>2026-04-26T12:11:03.783Z</time></trkpt><trkpt lat="45.7055578" lon="11.0187668"><ele>1675.0</ele><time>2026-04-26T12:11:04.784Z</time></trkpt><trkpt lat="45.7054981" lon="11.0188395"><ele>1675.0</ele><time>2026-04-26T12:11:05.784Z</time></trkpt><trkpt lat="45.7054426" lon="11.0189112"><ele>1675.0</ele><time>2026-04-26T12:11:06.784Z</time></trkpt><trkpt lat="45.70539" lon="11.0189833"><ele>1675.0000000000002</ele><time>2026-04-26T12:11:07.784Z</time></trkpt><trkpt lat="45.7053373" lon="11.0190547"><ele>1675.0</ele><time>2026-04-26T12:11:08.784Z</time></trkpt><trkpt lat="45.7052825" lon="11.0191334"><ele>1673.5000000000002</ele><time>2026-04-26T12:11:09.783Z</time></trkpt><trkpt lat="45.7052256" lon="11.019214"><ele>1672.0</ele><time>2026-04-26T12:11:10.784Z</time></trkpt><trkpt lat="45.7051721" lon="11.0192906"><ele>1670.5</ele><time>2026-04-26T12:11:11.782Z</time></trkpt><trkpt lat="45.7051212" lon="11.0193649"><ele>1669.0</ele><time>2026-04-26T12:11:12.783Z</time></trkpt><trkpt lat="45.7050341" lon="11.0194917"><ele>1667.5000000000002</ele><time>2026-04-26T12:11:14.784Z</time></trkpt><trkpt lat="45.7049919" lon="11.0195608"><ele>1666.0</ele><time>2026-04-26T12:11:15.783Z</time></trkpt><trkpt lat="45.7049189" lon="11.0197005"><ele>1666.0</ele><time>2026-04-26T12:11:17.783Z</time></trkpt><trkpt lat="45.7048666" lon="11.0198374"><ele>1666.0</ele><time>2026-04-26T12:11:19.782Z</time></trkpt><trkpt lat="45.7048323" lon="11.0199775"><ele>1666.0</ele><time>2026-04-26T12:11:21.783Z</time></trkpt><trkpt lat="45.704814" lon="11.0201277"><ele>1666.0</ele><time>2026-04-26T12:11:23.783Z</time></trkpt><trkpt lat="45.7048082" lon="11.0203031"><ele>1666.0</ele><time>2026-04-26T12:11:25.783Z</time></trkpt><trkpt lat="45.7048086" lon="11.0204019"><ele>1667.0000000000002</ele><time>2026-04-26T12:11:26.782Z</time></trkpt><trkpt lat="45.704808" lon="11.0204962"><ele>1668.0</ele><time>2026-04-26T12:11:27.783Z</time></trkpt><trkpt lat="45.7048092" lon="11.0206756"><ele>1669.0</ele><time>2026-04-26T12:11:29.784Z</time></trkpt><trkpt lat="45.7048163" lon="11.0207654"><ele>1670.0</ele><time>2026-04-26T12:11:30.784Z</time></trkpt><trkpt lat="45.7048295" lon="11.0208548"><ele>1671.0000000000002</ele><time>2026-04-26T12:11:31.783Z</time></trkpt><trkpt lat="45.7048474" lon="11.0209464"><ele>1672.0</ele><time>2026-04-26T12:11:32.782Z</time></trkpt><trkpt lat="45.7048711" lon="11.0210455"><ele>1672.0</ele><time>2026-04-26T12:11:33.783Z</time></trkpt><trkpt lat="45.7049008" lon="11.021152"><ele>1672.0</ele><time>2026-04-26T12:11:34.783Z</time></trkpt><trkpt lat="45.7049322" lon="11.0212529"><ele>1672.0</ele><time>2026-04-26T12:11:35.783Z</time></trkpt><trkpt lat="45.704965" lon="11.0213486"><ele>1672.0</ele><time>2026-04-26T12:11:36.784Z</time></trkpt><trkpt lat="45.7049961" lon="11.0214434"><ele>1672.0</ele><time>2026-04-26T12:11:37.783Z</time></trkpt><trkpt lat="45.7050259" lon="11.0215356"><ele>1672.0</ele><time>2026-04-26T12:11:38.782Z</time></trkpt><trkpt lat="45.7050576" lon="11.0216227"><ele>1672.0</ele><time>2026-04-26T12:11:39.784Z</time></trkpt><trkpt lat="45.7051147" lon="11.0217746"><ele>1671.6</ele><time>2026-04-26T12:11:41.783Z</time></trkpt><trkpt lat="45.7051711" lon="11.0219039"><ele>1671.1999999999998</ele><time>2026-04-26T12:11:43.784Z</time></trkpt><trkpt lat="45.7052245" lon="11.0220386"><ele>1670.8</ele><time>2026-04-26T12:11:45.782Z</time></trkpt><trkpt lat="45.7052545" lon="11.0221854"><ele>1670.4</ele><time>2026-04-26T12:11:47.782Z</time></trkpt><trkpt lat="45.7052457" lon="11.0223639"><ele>1670.0</ele><time>2026-04-26T12:11:49.784Z</time></trkpt><trkpt lat="45.7052249" lon="11.0224636"><ele>1668.3333333333333</ele><time>2026-04-26T12:11:50.784Z</time></trkpt><trkpt lat="45.7051964" lon="11.0225581"><ele>1666.6666666666665</ele><time>2026-04-26T12:11:51.784Z</time></trkpt><trkpt lat="45.705157" lon="11.022645"><ele>1665.0</ele><time>2026-04-26T12:11:52.784Z</time></trkpt><trkpt lat="45.7051128" lon="11.0227442"><ele>1663.3333333333335</ele><time>2026-04-26T12:11:53.783Z</time></trkpt><trkpt lat="45.7050685" lon="11.0228393"><ele>1661.6666666666667</ele><time>2026-04-26T12:11:54.782Z</time></trkpt><trkpt lat="45.7050261" lon="11.0229319"><ele>1660.0</ele><time>2026-04-26T12:11:55.784Z</time></trkpt><trkpt lat="45.7049876" lon="11.0230278"><ele>1660.0000000000002</ele><time>2026-04-26T12:11:56.783Z</time></trkpt><trkpt lat="45.7049498" lon="11.0231317"><ele>1660.0</ele><time>2026-04-26T12:11:57.783Z</time></trkpt><trkpt lat="45.7049101" lon="11.0232352"><ele>1660.0</ele><time>2026-04-26T12:11:58.783Z</time></trkpt><trkpt lat="45.7048736" lon="11.0233374"><ele>1660.0</ele><time>2026-04-26T12:11:59.783Z</time></trkpt><trkpt lat="45.70484" lon="11.0234395"><ele>1660.0000000000002</ele><time>2026-04-26T12:12:00.782Z</time></trkpt><trkpt lat="45.7048066" lon="11.0235488"><ele>1660.0</ele><time>2026-04-26T12:12:01.782Z</time></trkpt><trkpt lat="45.7047691" lon="11.02366"><ele>1660.3333333333335</ele><time>2026-04-26T12:12:02.782Z</time></trkpt><trkpt lat="45.7047341" lon="11.0237724"><ele>1660.6666666666667</ele><time>2026-04-26T12:12:03.781Z</time></trkpt><trkpt lat="45.7046955" lon="11.0238849"><ele>1661.0</ele><time>2026-04-26T12:12:04.782Z</time></trkpt><trkpt lat="45.7046576" lon="11.0239892"><ele>1661.3333333333335</ele><time>2026-04-26T12:12:05.782Z</time></trkpt><trkpt lat="45.7046235" lon="11.0240882"><ele>1661.6666666666667</ele><time>2026-04-26T12:12:06.783Z</time></trkpt><trkpt lat="45.7045919" lon="11.0241838"><ele>1662.0</ele><time>2026-04-26T12:12:07.783Z</time></trkpt><trkpt lat="45.7045611" lon="11.0242772"><ele>1662.8</ele><time>2026-04-26T12:12:08.782Z</time></trkpt><trkpt lat="45.7045305" lon="11.0243611"><ele>1663.6</ele><time>2026-04-26T12:12:09.783Z</time></trkpt><trkpt lat="45.7044933" lon="11.024434"><ele>1664.3999999999999</ele><time>2026-04-26T12:12:10.782Z</time></trkpt><trkpt lat="45.704415" lon="11.0245557"><ele>1665.1999999999998</ele><time>2026-04-26T12:12:12.783Z</time></trkpt><trkpt lat="45.7043213" lon="11.0246318"><ele>1666.0</ele><time>2026-04-26T12:12:14.782Z</time></trkpt><trkpt lat="45.7042059" lon="11.0246759"><ele>1662.0</ele><time>2026-04-26T12:12:16.781Z</time></trkpt><trkpt lat="45.704091" lon="11.0247076"><ele>1658.0</ele><time>2026-04-26T12:12:18.783Z</time></trkpt><trkpt lat="45.7039752" lon="11.0247367"><ele>1654.0</ele><time>2026-04-26T12:12:20.781Z</time></trkpt><trkpt lat="45.7038678" lon="11.0247715"><ele>1650.0</ele><time>2026-04-26T12:12:22.783Z</time></trkpt><trkpt lat="45.7037531" lon="11.024816"><ele>1650.0</ele><time>2026-04-26T12:12:24.783Z</time></trkpt><trkpt lat="45.703688" lon="11.0248508"><ele>1650.0</ele><time>2026-04-26T12:12:25.783Z</time></trkpt><trkpt lat="45.7036297" lon="11.0248864"><ele>1650.0</ele><time>2026-04-26T12:12:26.782Z</time></trkpt><trkpt lat="45.7035726" lon="11.0249256"><ele>1650.0</ele><time>2026-04-26T12:12:27.782Z</time></trkpt><trkpt lat="45.7035129" lon="11.0249715"><ele>1650.0</ele><time>2026-04-26T12:12:28.784Z</time></trkpt><trkpt lat="45.7034499" lon="11.0250169"><ele>1650.0</ele><time>2026-04-26T12:12:29.781Z</time></trkpt><trkpt lat="45.7033897" lon="11.0250674"><ele>1650.0</ele><time>2026-04-26T12:12:30.784Z</time></trkpt><trkpt lat="45.7033252" lon="11.0251233"><ele>1649.857142857143</ele><time>2026-04-26T12:12:31.784Z</time></trkpt><trkpt lat="45.7032659" lon="11.0251852"><ele>1649.7142857142858</ele><time>2026-04-26T12:12:32.782Z</time></trkpt><trkpt lat="45.7032162" lon="11.0252441"><ele>1649.5714285714287</ele><time>2026-04-26T12:12:33.784Z</time></trkpt><trkpt lat="45.7031668" lon="11.0253085"><ele>1649.4285714285716</ele><time>2026-04-26T12:12:34.784Z</time></trkpt><trkpt lat="45.7031101" lon="11.0253782"><ele>1649.2857142857142</ele><time>2026-04-26T12:12:35.784Z</time></trkpt><trkpt lat="45.7030572" lon="11.025457"><ele>1649.1428571428573</ele><time>2026-04-26T12:12:36.783Z</time></trkpt><trkpt lat="45.7030066" lon="11.0255334"><ele>1649.0</ele><time>2026-04-26T12:12:37.782Z</time></trkpt><trkpt lat="45.7029595" lon="11.025613"><ele>1648.9999999999998</ele><time>2026-04-26T12:12:38.783Z</time></trkpt><trkpt lat="45.7029182" lon="11.0256933"><ele>1649.0</ele><time>2026-04-26T12:12:39.784Z</time></trkpt><trkpt lat="45.7028768" lon="11.0257792"><ele>1649.0</ele><time>2026-04-26T12:12:40.781Z</time></trkpt><trkpt lat="45.702845" lon="11.0258653"><ele>1649.0</ele><time>2026-04-26T12:12:41.782Z</time></trkpt><trkpt lat="45.7028208" lon="11.0259501"><ele>1648.9999999999998</ele><time>2026-04-26T12:12:42.782Z</time></trkpt><trkpt lat="45.7027844" lon="11.0261043"><ele>1649.0</ele><time>2026-04-26T12:12:44.781Z</time></trkpt><trkpt lat="45.7027753" lon="11.0262538"><ele>1651.4</ele><time>2026-04-26T12:12:46.782Z</time></trkpt><trkpt lat="45.7027934" lon="11.0264237"><ele>1653.8000000000002</ele><time>2026-04-26T12:12:48.783Z</time></trkpt><trkpt lat="45.7028247" lon="11.0265915"><ele>1656.1999999999998</ele><time>2026-04-26T12:12:50.781Z</time></trkpt><trkpt lat="45.7028683" lon="11.0267549"><ele>1658.6</ele><time>2026-04-26T12:12:52.782Z</time></trkpt><trkpt lat="45.7028925" lon="11.0268442"><ele>1661.0</ele><time>2026-04-26T12:12:53.784Z</time></trkpt><trkpt lat="45.7029211" lon="11.0269406"><ele>1660.9999999999998</ele><time>2026-04-26T12:12:54.782Z</time></trkpt><trkpt lat="45.7029592" lon="11.0270403"><ele>1661.0</ele><time>2026-04-26T12:12:55.784Z</time></trkpt><trkpt lat="45.7029975" lon="11.027139"><ele>1661.0</ele><time>2026-04-26T12:12:56.784Z</time></trkpt><trkpt lat="45.7030308" lon="11.0272384"><ele>1661.0</ele><time>2026-04-26T12:12:57.782Z</time></trkpt><trkpt lat="45.7030578" lon="11.0273409"><ele>1660.9999999999998</ele><time>2026-04-26T12:12:58.782Z</time></trkpt><trkpt lat="45.7030857" lon="11.0274442"><ele>1661.0</ele><time>2026-04-26T12:12:59.782Z</time></trkpt><trkpt lat="45.7031061" lon="11.027543"><ele>1659.0</ele><time>2026-04-26T12:13:00.784Z</time></trkpt><trkpt lat="45.7031269" lon="11.0276328"><ele>1657.0</ele><time>2026-04-26T12:13:01.784Z</time></trkpt><trkpt lat="45.7031511" lon="11.0277184"><ele>1655.0</ele><time>2026-04-26T12:13:02.783Z</time></trkpt><trkpt lat="45.70319" lon="11.0278702"><ele>1653.0</ele><time>2026-04-26T12:13:04.782Z</time></trkpt><trkpt lat="45.7031823" lon="11.0280179"><ele>1651.0</ele><time>2026-04-26T12:13:06.782Z</time></trkpt><trkpt lat="45.7031271" lon="11.0281518"><ele>1651.0000000000002</ele><time>2026-04-26T12:13:08.783Z</time></trkpt><trkpt lat="45.7030208" lon="11.0282458"><ele>1651.0</ele><time>2026-04-26T12:13:10.784Z</time></trkpt><trkpt lat="45.7029538" lon="11.0282897"><ele>1651.0</ele><time>2026-04-26T12:13:11.782Z</time></trkpt><trkpt lat="45.70288" lon="11.0283304"><ele>1651.0</ele><time>2026-04-26T12:13:12.783Z</time></trkpt><trkpt lat="45.7028056" lon="11.0283766"><ele>1651.0000000000002</ele><time>2026-04-26T12:13:13.783Z</time></trkpt><trkpt lat="45.7027255" lon="11.0284212"><ele>1651.0</ele><time>2026-04-26T12:13:14.782Z</time></trkpt><trkpt lat="45.7026428" lon="11.0284634"><ele>1648.0000000000002</ele><time>2026-04-26T12:13:15.781Z</time></trkpt><trkpt lat="45.7025653" lon="11.0284985"><ele>1645.0</ele><time>2026-04-26T12:13:16.784Z</time></trkpt><trkpt lat="45.7024962" lon="11.0285386"><ele>1642.0</ele><time>2026-04-26T12:13:17.783Z</time></trkpt><trkpt lat="45.7024265" lon="11.0285708"><ele>1639.0</ele><time>2026-04-26T12:13:18.782Z</time></trkpt><trkpt lat="45.702362" lon="11.0286141"><ele>1636.0000000000002</ele><time>2026-04-26T12:13:19.783Z</time></trkpt><trkpt lat="45.7022652" lon="11.0287146"><ele>1633.0</ele><time>2026-04-26T12:13:21.783Z</time></trkpt><trkpt lat="45.7022216" lon="11.0288542"><ele>1633.0</ele><time>2026-04-26T12:13:23.781Z</time></trkpt><trkpt lat="45.7022359" lon="11.0290009"><ele>1633.0</ele><time>2026-04-26T12:13:25.783Z</time></trkpt><trkpt lat="45.7023108" lon="11.0291352"><ele>1633.0</ele><time>2026-04-26T12:13:27.783Z</time></trkpt><trkpt lat="45.7023691" lon="11.0291957"><ele>1633.0</ele><time>2026-04-26T12:13:28.781Z</time></trkpt><trkpt lat="45.7024402" lon="11.0292604"><ele>1633.0</ele><time>2026-04-26T12:13:29.784Z</time></trkpt><trkpt lat="45.7025157" lon="11.0293188"><ele>1634.0</ele><time>2026-04-26T12:13:30.783Z</time></trkpt><trkpt lat="45.7025983" lon="11.029375"><ele>1635.0</ele><time>2026-04-26T12:13:31.783Z</time></trkpt><trkpt lat="45.7026865" lon="11.0294259"><ele>1636.0</ele><time>2026-04-26T12:13:32.783Z</time></trkpt><trkpt lat="45.7027761" lon="11.0294707"><ele>1637.0</ele><time>2026-04-26T12:13:33.784Z</time></trkpt><trkpt lat="45.7028612" lon="11.0295037"><ele>1638.0</ele><time>2026-04-26T12:13:34.781Z</time></trkpt><trkpt lat="45.7029438" lon="11.0295277"><ele>1639.4285714285713</ele><time>2026-04-26T12:13:35.783Z</time></trkpt><trkpt lat="45.7030195" lon="11.0295423"><ele>1640.857142857143</ele><time>2026-04-26T12:13:36.783Z</time></trkpt><trkpt lat="45.7030946" lon="11.0295559"><ele>1642.2857142857142</ele><time>2026-04-26T12:13:37.783Z</time></trkpt><trkpt lat="45.7031675" lon="11.0295596"><ele>1643.7142857142858</ele><time>2026-04-26T12:13:38.782Z</time></trkpt><trkpt lat="45.7032308" lon="11.0295696"><ele>1645.142857142857</ele><time>2026-04-26T12:13:39.782Z</time></trkpt><trkpt lat="45.7033003" lon="11.0295736"><ele>1646.5714285714284</ele><time>2026-04-26T12:13:40.783Z</time></trkpt><trkpt lat="45.7033789" lon="11.0295639"><ele>1648.0</ele><time>2026-04-26T12:13:41.783Z</time></trkpt><trkpt lat="45.7034634" lon="11.0295526"><ele>1648.0</ele><time>2026-04-26T12:13:42.782Z</time></trkpt><trkpt lat="45.7035553" lon="11.0295335"><ele>1648.0</ele><time>2026-04-26T12:13:43.784Z</time></trkpt><trkpt lat="45.7036521" lon="11.0295157"><ele>1648.0</ele><time>2026-04-26T12:13:44.782Z</time></trkpt><trkpt lat="45.7037418" lon="11.0294983"><ele>1648.0</ele><time>2026-04-26T12:13:45.781Z</time></trkpt><trkpt lat="45.7038362" lon="11.0294783"><ele>1648.0</ele><time>2026-04-26T12:13:46.782Z</time></trkpt><trkpt lat="45.7039226" lon="11.0294644"><ele>1647.6666666666667</ele><time>2026-04-26T12:13:47.782Z</time></trkpt><trkpt lat="45.7040028" lon="11.0294433"><ele>1647.3333333333335</ele><time>2026-04-26T12:13:48.783Z</time></trkpt><trkpt lat="45.7040914" lon="11.0294188"><ele>1647.0</ele><time>2026-04-26T12:13:49.783Z</time></trkpt><trkpt lat="45.7041764" lon="11.0294019"><ele>1646.6666666666665</ele><time>2026-04-26T12:13:50.782Z</time></trkpt><trkpt lat="45.7042704" lon="11.0293862"><ele>1646.3333333333333</ele><time>2026-04-26T12:13:51.782Z</time></trkpt><trkpt lat="45.704362" lon="11.0293789"><ele>1646.0</ele><time>2026-04-26T12:13:52.783Z</time></trkpt><trkpt lat="45.7044478" lon="11.0293751"><ele>1645.8333333333333</ele><time>2026-04-26T12:13:53.782Z</time></trkpt><trkpt lat="45.7045281" lon="11.0293746"><ele>1645.6666666666665</ele><time>2026-04-26T12:13:54.783Z</time></trkpt><trkpt lat="45.7046106" lon="11.0293748"><ele>1645.5</ele><time>2026-04-26T12:13:55.783Z</time></trkpt><trkpt lat="45.704689" lon="11.0293802"><ele>1645.3333333333335</ele><time>2026-04-26T12:13:56.783Z</time></trkpt><trkpt lat="45.7047639" lon="11.0293917"><ele>1645.1666666666667</ele><time>2026-04-26T12:13:57.783Z</time></trkpt><trkpt lat="45.7048348" lon="11.0294061"><ele>1645.0</ele><time>2026-04-26T12:13:58.782Z</time></trkpt><trkpt lat="45.7049071" lon="11.0294296"><ele>1645.0000000000002</ele><time>2026-04-26T12:13:59.782Z</time></trkpt><trkpt lat="45.7049829" lon="11.0294628"><ele>1645.0</ele><time>2026-04-26T12:14:00.783Z</time></trkpt><trkpt lat="45.7050537" lon="11.0295027"><ele>1645.0</ele><time>2026-04-26T12:14:01.782Z</time></trkpt><trkpt lat="45.7051283" lon="11.0295553"><ele>1645.0</ele><time>2026-04-26T12:14:02.782Z</time></trkpt><trkpt lat="45.7051915" lon="11.0296136"><ele>1645.0000000000002</ele><time>2026-04-26T12:14:03.782Z</time></trkpt><trkpt lat="45.7052405" lon="11.0296851"><ele>1645.0</ele><time>2026-04-26T12:14:04.784Z</time></trkpt><trkpt lat="45.705273" lon="11.0297713"><ele>1645.4285714285713</ele><time>2026-04-26T12:14:05.783Z</time></trkpt><trkpt lat="45.7052986" lon="11.0298579"><ele>1645.857142857143</ele><time>2026-04-26T12:14:06.782Z</time></trkpt><trkpt lat="45.7053025" lon="11.0299554"><ele>1646.2857142857142</ele><time>2026-04-26T12:14:07.782Z</time></trkpt><trkpt lat="45.7052916" lon="11.030056"><ele>1646.7142857142858</ele><time>2026-04-26T12:14:08.783Z</time></trkpt><trkpt lat="45.70527" lon="11.0301588"><ele>1647.142857142857</ele><time>2026-04-26T12:14:09.782Z</time></trkpt><trkpt lat="45.705246" lon="11.0302558"><ele>1647.5714285714284</ele><time>2026-04-26T12:14:10.784Z</time></trkpt><trkpt lat="45.7052213" lon="11.0303489"><ele>1648.0</ele><time>2026-04-26T12:14:11.781Z</time></trkpt><trkpt lat="45.7051852" lon="11.0304556"><ele>1645.8333333333335</ele><time>2026-04-26T12:14:12.783Z</time></trkpt><trkpt lat="45.7051514" lon="11.0305633"><ele>1643.6666666666667</ele><time>2026-04-26T12:14:13.783Z</time></trkpt><trkpt lat="45.7051128" lon="11.030666"><ele>1641.5</ele><time>2026-04-26T12:14:14.782Z</time></trkpt><trkpt lat="45.7050734" lon="11.0307667"><ele>1639.3333333333335</ele><time>2026-04-26T12:14:15.782Z</time></trkpt><trkpt lat="45.7050341" lon="11.030864"><ele>1637.1666666666667</ele><time>2026-04-26T12:14:16.782Z</time></trkpt><trkpt lat="45.7049977" lon="11.03096"><ele>1635.0</ele><time>2026-04-26T12:14:17.784Z</time></trkpt><trkpt lat="45.7049572" lon="11.0310499"><ele>1635.0</ele><time>2026-04-26T12:14:18.783Z</time></trkpt><trkpt lat="45.7049241" lon="11.0311304"><ele>1635.0</ele><time>2026-04-26T12:14:19.782Z</time></trkpt><trkpt lat="45.7048807" lon="11.0312225"><ele>1635.0</ele><time>2026-04-26T12:14:20.784Z</time></trkpt><trkpt lat="45.7048371" lon="11.0313034"><ele>1635.0</ele><time>2026-04-26T12:14:21.784Z</time></trkpt><trkpt lat="45.7048011" lon="11.0313889"><ele>1635.0</ele><time>2026-04-26T12:14:22.782Z</time></trkpt><trkpt lat="45.7047464" lon="11.0315502"><ele>1635.0</ele><time>2026-04-26T12:14:24.782Z</time></trkpt><trkpt lat="45.7047258" lon="11.0316405"><ele>1637.6</ele><time>2026-04-26T12:14:25.781Z</time></trkpt><trkpt lat="45.7046909" lon="11.0318202"><ele>1640.2</ele><time>2026-04-26T12:14:27.783Z</time></trkpt><trkpt lat="45.7046744" lon="11.0320001"><ele>1642.8000000000002</ele><time>2026-04-26T12:14:29.783Z</time></trkpt><trkpt lat="45.7046756" lon="11.0321151"><ele>1645.4</ele><time>2026-04-26T12:14:30.782Z</time></trkpt><trkpt lat="45.7046714" lon="11.0322415"><ele>1648.0</ele><time>2026-04-26T12:14:31.781Z</time></trkpt><trkpt lat="45.7046658" lon="11.0323708"><ele>1649.3333333333335</ele><time>2026-04-26T12:14:32.783Z</time></trkpt><trkpt lat="45.7046569" lon="11.0324842"><ele>1650.6666666666667</ele><time>2026-04-26T12:14:33.782Z</time></trkpt><trkpt lat="45.7046418" lon="11.032595"><ele>1652.0</ele><time>2026-04-26T12:14:34.781Z</time></trkpt><trkpt lat="45.7046137" lon="11.0326986"><ele>1653.3333333333335</ele><time>2026-04-26T12:14:35.782Z</time></trkpt><trkpt lat="45.7045689" lon="11.0327988"><ele>1654.6666666666667</ele><time>2026-04-26T12:14:36.783Z</time></trkpt><trkpt lat="45.7045151" lon="11.0329012"><ele>1656.0</ele><time>2026-04-26T12:14:37.783Z</time></trkpt><trkpt lat="45.7044411" lon="11.0330132"><ele>1653.0</ele><time>2026-04-26T12:14:38.783Z</time></trkpt><trkpt lat="45.7043637" lon="11.033126"><ele>1650.0</ele><time>2026-04-26T12:14:39.784Z</time></trkpt><trkpt lat="45.7042956" lon="11.03323"><ele>1647.0</ele><time>2026-04-26T12:14:40.782Z</time></trkpt><trkpt lat="45.7042237" lon="11.0333291"><ele>1644.0</ele><time>2026-04-26T12:14:41.783Z</time></trkpt><trkpt lat="45.7041417" lon="11.0334367"><ele>1641.0</ele><time>2026-04-26T12:14:42.783Z</time></trkpt><trkpt lat="45.7040651" lon="11.0335359"><ele>1641.0</ele><time>2026-04-26T12:14:43.782Z</time></trkpt><trkpt lat="45.7039963" lon="11.0336354"><ele>1641.0</ele><time>2026-04-26T12:14:44.782Z</time></trkpt><trkpt lat="45.7039416" lon="11.033717"><ele>1641.0</ele><time>2026-04-26T12:14:45.782Z</time></trkpt><trkpt lat="45.7038921" lon="11.0338005"><ele>1641.0</ele><time>2026-04-26T12:14:46.782Z</time></trkpt><trkpt lat="45.7038484" lon="11.0338827"><ele>1641.0</ele><time>2026-04-26T12:14:47.784Z</time></trkpt><trkpt lat="45.7038027" lon="11.0339755"><ele>1641.0</ele><time>2026-04-26T12:14:48.781Z</time></trkpt><trkpt lat="45.7037457" lon="11.0340616"><ele>1641.0</ele><time>2026-04-26T12:14:49.781Z</time></trkpt><trkpt lat="45.7036866" lon="11.0341351"><ele>1641.0</ele><time>2026-04-26T12:14:50.782Z</time></trkpt><trkpt lat="45.7036163" lon="11.0342021"><ele>1641.0</ele><time>2026-04-26T12:14:51.782Z</time></trkpt><trkpt lat="45.7035415" lon="11.0342521"><ele>1641.0</ele><time>2026-04-26T12:14:52.782Z</time></trkpt><trkpt lat="45.7034665" lon="11.0342987"><ele>1641.0</ele><time>2026-04-26T12:14:53.783Z</time></trkpt><trkpt lat="45.703395" lon="11.0343442"><ele>1641.0</ele><time>2026-04-26T12:14:54.782Z</time></trkpt><trkpt lat="45.7033165" lon="11.034397"><ele>1640.6666666666667</ele><time>2026-04-26T12:14:55.782Z</time></trkpt><trkpt lat="45.7032446" lon="11.0344448"><ele>1640.3333333333335</ele><time>2026-04-26T12:14:56.783Z</time></trkpt><trkpt lat="45.7031728" lon="11.0344913"><ele>1640.0</ele><time>2026-04-26T12:14:57.782Z</time></trkpt><trkpt lat="45.703103" lon="11.0345341"><ele>1639.6666666666667</ele><time>2026-04-26T12:14:58.783Z</time></trkpt><trkpt lat="45.7030266" lon="11.0345801"><ele>1639.3333333333335</ele><time>2026-04-26T12:14:59.783Z</time></trkpt><trkpt lat="45.702945" lon="11.0346293"><ele>1639.0</ele><time>2026-04-26T12:15:00.781Z</time></trkpt><trkpt lat="45.7028716" lon="11.0346716"><ele>1639.0000000000002</ele><time>2026-04-26T12:15:01.783Z</time></trkpt><trkpt lat="45.7028024" lon="11.0346989"><ele>1639.0</ele><time>2026-04-26T12:15:02.782Z</time></trkpt><trkpt lat="45.7027347" lon="11.0347293"><ele>1639.0</ele><time>2026-04-26T12:15:03.783Z</time></trkpt><trkpt lat="45.7026725" lon="11.0347615"><ele>1639.0</ele><time>2026-04-26T12:15:04.782Z</time></trkpt><trkpt lat="45.7026151" lon="11.0347994"><ele>1639.0000000000002</ele><time>2026-04-26T12:15:05.782Z</time></trkpt><trkpt lat="45.7025266" lon="11.0349015"><ele>1639.0</ele><time>2026-04-26T12:15:07.782Z</time></trkpt><trkpt lat="45.7024746" lon="11.0350384"><ele>1639.3333333333335</ele><time>2026-04-26T12:15:09.783Z</time></trkpt><trkpt lat="45.702459" lon="11.0351765"><ele>1639.6666666666667</ele><time>2026-04-26T12:15:11.782Z</time></trkpt><trkpt lat="45.7024871" lon="11.0353051"><ele>1640.0</ele><time>2026-04-26T12:15:13.782Z</time></trkpt><trkpt lat="45.7025593" lon="11.0354149"><ele>1640.3333333333335</ele><time>2026-04-26T12:15:15.781Z</time></trkpt><trkpt lat="45.7026133" lon="11.0354708"><ele>1640.6666666666667</ele><time>2026-04-26T12:15:16.782Z</time></trkpt><trkpt lat="45.7026722" lon="11.0355271"><ele>1641.0</ele><time>2026-04-26T12:15:17.782Z</time></trkpt><trkpt lat="45.7027361" lon="11.0355907"><ele>1642.8</ele><time>2026-04-26T12:15:18.783Z</time></trkpt><trkpt lat="45.7028047" lon="11.0356534"><ele>1644.6</ele><time>2026-04-26T12:15:19.782Z</time></trkpt><trkpt lat="45.7028817" lon="11.035725"><ele>1646.4</ele><time>2026-04-26T12:15:20.782Z</time></trkpt><trkpt lat="45.7029636" lon="11.0358056"><ele>1648.2</ele><time>2026-04-26T12:15:21.783Z</time></trkpt><trkpt lat="45.7030452" lon="11.0358857"><ele>1650.0</ele><time>2026-04-26T12:15:22.782Z</time></trkpt><trkpt lat="45.7031289" lon="11.0359708"><ele>1650.0</ele><time>2026-04-26T12:15:23.782Z</time></trkpt><trkpt lat="45.7032123" lon="11.036054"><ele>1650.0</ele><time>2026-04-26T12:15:24.783Z</time></trkpt><trkpt lat="45.7032933" lon="11.0361334"><ele>1650.0</ele><time>2026-04-26T12:15:25.782Z</time></trkpt><trkpt lat="45.7033745" lon="11.0362206"><ele>1650.0</ele><time>2026-04-26T12:15:26.783Z</time></trkpt><trkpt lat="45.7034472" lon="11.0362981"><ele>1650.0</ele><time>2026-04-26T12:15:27.783Z</time></trkpt><trkpt lat="45.7035252" lon="11.0363792"><ele>1650.3333333333333</ele><time>2026-04-26T12:15:28.783Z</time></trkpt><trkpt lat="45.7035993" lon="11.0364556"><ele>1650.6666666666665</ele><time>2026-04-26T12:15:29.782Z</time></trkpt><trkpt lat="45.7036692" lon="11.0365306"><ele>1651.0</ele><time>2026-04-26T12:15:30.782Z</time></trkpt><trkpt lat="45.7037403" lon="11.0366032"><ele>1651.3333333333333</ele><time>2026-04-26T12:15:31.782Z</time></trkpt><trkpt lat="45.7038144" lon="11.036676"><ele>1651.6666666666665</ele><time>2026-04-26T12:15:32.783Z</time></trkpt><trkpt lat="45.7038846" lon="11.0367391"><ele>1652.0</ele><time>2026-04-26T12:15:33.783Z</time></trkpt><trkpt lat="45.7039604" lon="11.0368014"><ele>1651.9999999999998</ele><time>2026-04-26T12:15:34.782Z</time></trkpt><trkpt lat="45.7040339" lon="11.0368561"><ele>1652.0</ele><time>2026-04-26T12:15:35.782Z</time></trkpt><trkpt lat="45.7041115" lon="11.0369081"><ele>1652.0</ele><time>2026-04-26T12:15:36.781Z</time></trkpt><trkpt lat="45.7041853" lon="11.0369539"><ele>1652.0</ele><time>2026-04-26T12:15:37.782Z</time></trkpt><trkpt lat="45.704258" lon="11.0369908"><ele>1651.9999999999998</ele><time>2026-04-26T12:15:38.782Z</time></trkpt><trkpt lat="45.7043363" lon="11.0370228"><ele>1652.0</ele><time>2026-04-26T12:15:39.782Z</time></trkpt><trkpt lat="45.7044106" lon="11.0370445"><ele>1652.9999999999998</ele><time>2026-04-26T12:15:40.782Z</time></trkpt><trkpt lat="45.7044889" lon="11.0370521"><ele>1654.0</ele><time>2026-04-26T12:15:41.782Z</time></trkpt><trkpt lat="45.7045659" lon="11.0370589"><ele>1655.0</ele><time>2026-04-26T12:15:42.782Z</time></trkpt><trkpt lat="45.704654" lon="11.037065"><ele>1656.0</ele><time>2026-04-26T12:15:43.783Z</time></trkpt><trkpt lat="45.7047463" lon="11.0370679"><ele>1656.9999999999998</ele><time>2026-04-26T12:15:44.783Z</time></trkpt><trkpt lat="45.7048513" lon="11.037068"><ele>1658.0</ele><time>2026-04-26T12:15:45.781Z</time></trkpt><trkpt lat="45.704951" lon="11.0370645"><ele>1657.9999999999998</ele><time>2026-04-26T12:15:46.781Z</time></trkpt><trkpt lat="45.7050456" lon="11.0370629"><ele>1658.0</ele><time>2026-04-26T12:15:47.782Z</time></trkpt><trkpt lat="45.7051359" lon="11.0370611"><ele>1658.0</ele><time>2026-04-26T12:15:48.783Z</time></trkpt><trkpt lat="45.7052237" lon="11.0370599"><ele>1658.0</ele><time>2026-04-26T12:15:49.781Z</time></trkpt><trkpt lat="45.7053112" lon="11.03706"><ele>1657.9999999999998</ele><time>2026-04-26T12:15:50.783Z</time></trkpt><trkpt lat="45.7053996" lon="11.0370635"><ele>1658.0</ele><time>2026-04-26T12:15:51.782Z</time></trkpt><trkpt lat="45.7054862" lon="11.0370722"><ele>1658.3333333333333</ele><time>2026-04-26T12:15:52.781Z</time></trkpt><trkpt lat="45.7055716" lon="11.0370752"><ele>1658.6666666666665</ele><time>2026-04-26T12:15:53.782Z</time></trkpt><trkpt lat="45.7056512" lon="11.0370743"><ele>1659.0</ele><time>2026-04-26T12:15:54.782Z</time></trkpt><trkpt lat="45.7057323" lon="11.0370599"><ele>1659.3333333333335</ele><time>2026-04-26T12:15:55.781Z</time></trkpt><trkpt lat="45.7058191" lon="11.0370372"><ele>1659.6666666666667</ele><time>2026-04-26T12:15:56.782Z</time></trkpt><trkpt lat="45.7059121" lon="11.037008"><ele>1660.0</ele><time>2026-04-26T12:15:57.783Z</time></trkpt><trkpt lat="45.7059939" lon="11.036973"><ele>1660.0000000000002</ele><time>2026-04-26T12:15:58.783Z</time></trkpt><trkpt lat="45.7060656" lon="11.0369454"><ele>1660.0</ele><time>2026-04-26T12:15:59.782Z</time></trkpt><trkpt lat="45.7061311" lon="11.0369177"><ele>1660.0</ele><time>2026-04-26T12:16:00.782Z</time></trkpt><trkpt lat="45.7062399" lon="11.0368797"><ele>1660.0</ele><time>2026-04-26T12:16:02.781Z</time></trkpt><trkpt lat="45.7063335" lon="11.036897"><ele>1660.0000000000002</ele><time>2026-04-26T12:16:04.783Z</time></trkpt><trkpt lat="45.7064005" lon="11.0369834"><ele>1660.0</ele><time>2026-04-26T12:16:06.782Z</time></trkpt><trkpt lat="45.7064203" lon="11.0371185"><ele>1660.857142857143</ele><time>2026-04-26T12:16:08.782Z</time></trkpt><trkpt lat="45.7063964" lon="11.0372084"><ele>1661.7142857142858</ele><time>2026-04-26T12:16:09.782Z</time></trkpt><trkpt lat="45.7063761" lon="11.0372946"><ele>1662.5714285714284</ele><time>2026-04-26T12:16:10.781Z</time></trkpt><trkpt lat="45.7063296" lon="11.0373906"><ele>1663.4285714285716</ele><time>2026-04-26T12:16:11.783Z</time></trkpt><trkpt lat="45.7062895" lon="11.0374873"><ele>1664.2857142857142</ele><time>2026-04-26T12:16:12.783Z</time></trkpt><trkpt lat="45.7062536" lon="11.0375757"><ele>1665.142857142857</ele><time>2026-04-26T12:16:13.782Z</time></trkpt><trkpt lat="45.7062218" lon="11.0376551"><ele>1666.0</ele><time>2026-04-26T12:16:14.782Z</time></trkpt><trkpt lat="45.7061734" lon="11.0378016"><ele>1666.0</ele><time>2026-04-26T12:16:16.782Z</time></trkpt><trkpt lat="45.706158" lon="11.0379731"><ele>1666.0</ele><time>2026-04-26T12:16:18.783Z</time></trkpt><trkpt lat="45.7061584" lon="11.0380685"><ele>1666.0</ele><time>2026-04-26T12:16:19.783Z</time></trkpt><trkpt lat="45.706163" lon="11.0381634"><ele>1666.0</ele><time>2026-04-26T12:16:20.783Z</time></trkpt><trkpt lat="45.7061467" lon="11.0383054"><ele>1666.0</ele><time>2026-04-26T12:16:22.782Z</time></trkpt><trkpt lat="45.706084" lon="11.0384331"><ele>1664.142857142857</ele><time>2026-04-26T12:16:24.782Z</time></trkpt><trkpt lat="45.706031" lon="11.0384865"><ele>1662.2857142857142</ele><time>2026-04-26T12:16:25.782Z</time></trkpt><trkpt lat="45.7059792" lon="11.0385438"><ele>1660.4285714285716</ele><time>2026-04-26T12:16:26.783Z</time></trkpt><trkpt lat="45.7059303" lon="11.0386102"><ele>1658.5714285714284</ele><time>2026-04-26T12:16:27.782Z</time></trkpt><trkpt lat="45.7058856" lon="11.0386916"><ele>1656.7142857142858</ele><time>2026-04-26T12:16:28.783Z</time></trkpt><trkpt lat="45.7058526" lon="11.0387757"><ele>1654.857142857143</ele><time>2026-04-26T12:16:29.783Z</time></trkpt><trkpt lat="45.7058201" lon="11.0388647"><ele>1653.0</ele><time>2026-04-26T12:16:30.783Z</time></trkpt><trkpt lat="45.7057854" lon="11.0389529"><ele>1653.0</ele><time>2026-04-26T12:16:31.782Z</time></trkpt><trkpt lat="45.7057491" lon="11.0390274"><ele>1653.0</ele><time>2026-04-26T12:16:32.783Z</time></trkpt><trkpt lat="45.7056671" lon="11.0391222"><ele>1653.0</ele><time>2026-04-26T12:16:34.782Z</time></trkpt><trkpt lat="45.7055551" lon="11.0391859"><ele>1653.0</ele><time>2026-04-26T12:16:36.783Z</time></trkpt><trkpt lat="45.7054478" lon="11.0392745"><ele>1653.0</ele><time>2026-04-26T12:16:38.783Z</time></trkpt><trkpt lat="45.7054063" lon="11.0393441"><ele>1655.2</ele><time>2026-04-26T12:16:39.782Z</time></trkpt><trkpt lat="45.7053754" lon="11.0394252"><ele>1657.4</ele><time>2026-04-26T12:16:40.781Z</time></trkpt><trkpt lat="45.7053475" lon="11.0395899"><ele>1659.6000000000001</ele><time>2026-04-26T12:16:42.782Z</time></trkpt><trkpt lat="45.7053315" lon="11.0397657"><ele>1661.8000000000002</ele><time>2026-04-26T12:16:44.782Z</time></trkpt><trkpt lat="45.7053262" lon="11.0399517"><ele>1664.0</ele><time>2026-04-26T12:16:46.782Z</time></trkpt><trkpt lat="45.7053253" lon="11.0400481"><ele>1664.857142857143</ele><time>2026-04-26T12:16:47.781Z</time></trkpt><trkpt lat="45.7053208" lon="11.0401494"><ele>1665.7142857142858</ele><time>2026-04-26T12:16:48.783Z</time></trkpt><trkpt lat="45.7053196" lon="11.0402614"><ele>1666.5714285714287</ele><time>2026-04-26T12:16:49.783Z</time></trkpt><trkpt lat="45.7053219" lon="11.0403645"><ele>1667.4285714285716</ele><time>2026-04-26T12:16:50.781Z</time></trkpt><trkpt lat="45.7053249" lon="11.0404576"><ele>1668.2857142857142</ele><time>2026-04-26T12:16:51.783Z</time></trkpt><trkpt lat="45.7053245" lon="11.0405601"><ele>1669.1428571428573</ele><time>2026-04-26T12:16:52.782Z</time></trkpt><trkpt lat="45.7053255" lon="11.0406602"><ele>1670.0</ele><time>2026-04-26T12:16:53.783Z</time></trkpt><trkpt lat="45.7053264" lon="11.0407645"><ele>1670.8333333333333</ele><time>2026-04-26T12:16:54.782Z</time></trkpt><trkpt lat="45.7053236" lon="11.0408676"><ele>1671.6666666666665</ele><time>2026-04-26T12:16:55.782Z</time></trkpt><trkpt lat="45.705322" lon="11.0409619"><ele>1672.5</ele><time>2026-04-26T12:16:56.783Z</time></trkpt><trkpt lat="45.705305" lon="11.0411257"><ele>1673.3333333333335</ele><time>2026-04-26T12:16:58.783Z</time></trkpt><trkpt lat="45.7052481" lon="11.0412407"><ele>1674.1666666666667</ele><time>2026-04-26T12:17:00.783Z</time></trkpt><trkpt lat="45.7051596" lon="11.041282"><ele>1675.0</ele><time>2026-04-26T12:17:02.783Z</time></trkpt><trkpt lat="45.7050975" lon="11.0412974"><ele>1671.6666666666667</ele><time>2026-04-26T12:17:03.782Z</time></trkpt><trkpt lat="45.7050294" lon="11.0413072"><ele>1668.3333333333335</ele><time>2026-04-26T12:17:04.781Z</time></trkpt><trkpt lat="45.7049274" lon="11.0413194"><ele>1665.0</ele><time>2026-04-26T12:17:06.782Z</time></trkpt><trkpt lat="45.7048176" lon="11.0413377"><ele>1661.6666666666665</ele><time>2026-04-26T12:17:08.781Z</time></trkpt><trkpt lat="45.7047484" lon="11.0413709"><ele>1658.3333333333333</ele><time>2026-04-26T12:17:09.783Z</time></trkpt><trkpt lat="45.7046884" lon="11.0414024"><ele>1655.0</ele><time>2026-04-26T12:17:10.781Z</time></trkpt><trkpt lat="45.7045994" lon="11.0414892"><ele>1655.0</ele><time>2026-04-26T12:17:12.782Z</time></trkpt><trkpt lat="45.7045494" lon="11.0415968"><ele>1655.0</ele><time>2026-04-26T12:17:14.783Z</time></trkpt><trkpt lat="45.7044951" lon="11.0416911"><ele>1655.0</ele><time>2026-04-26T12:17:16.782Z</time></trkpt><trkpt lat="45.7044157" lon="11.0417757"><ele>1655.0</ele><time>2026-04-26T12:17:18.781Z</time></trkpt><trkpt lat="45.7043149" lon="11.0417792"><ele>1655.0</ele><time>2026-04-26T12:17:20.782Z</time></trkpt><trkpt lat="45.7042127" lon="11.0416846"><ele>1654.5714285714284</ele><time>2026-04-26T12:17:22.782Z</time></trkpt><trkpt lat="45.7041599" lon="11.0416233"><ele>1654.142857142857</ele><time>2026-04-26T12:17:23.783Z</time></trkpt><trkpt lat="45.7041057" lon="11.0415598"><ele>1653.7142857142858</ele><time>2026-04-26T12:17:24.782Z</time></trkpt><trkpt lat="45.7040531" lon="11.041507"><ele>1653.2857142857142</ele><time>2026-04-26T12:17:25.783Z</time></trkpt><trkpt lat="45.7039932" lon="11.0414712"><ele>1652.857142857143</ele><time>2026-04-26T12:17:26.781Z</time></trkpt><trkpt lat="45.7039264" lon="11.0414454"><ele>1652.4285714285713</ele><time>2026-04-26T12:17:27.781Z</time></trkpt><trkpt lat="45.703863" lon="11.0414431"><ele>1652.0</ele><time>2026-04-26T12:17:28.781Z</time></trkpt><trkpt lat="45.7037981" lon="11.0414649"><ele>1651.9999999999998</ele><time>2026-04-26T12:17:29.783Z</time></trkpt><trkpt lat="45.7037398" lon="11.041512"><ele>1652.0</ele><time>2026-04-26T12:17:30.782Z</time></trkpt><trkpt lat="45.70368" lon="11.0415807"><ele>1652.0</ele><time>2026-04-26T12:17:31.782Z</time></trkpt><trkpt lat="45.7036272" lon="11.0416605"><ele>1652.0</ele><time>2026-04-26T12:17:32.782Z</time></trkpt><trkpt lat="45.7035792" lon="11.0417588"><ele>1651.9999999999998</ele><time>2026-04-26T12:17:33.782Z</time></trkpt><trkpt lat="45.7035371" lon="11.0418555"><ele>1652.0</ele><time>2026-04-26T12:17:34.781Z</time></trkpt><trkpt lat="45.7034984" lon="11.0419497"><ele>1652.8333333333333</ele><time>2026-04-26T12:17:35.782Z</time></trkpt><trkpt lat="45.7034655" lon="11.0420997"><ele>1653.6666666666665</ele><time>2026-04-26T12:17:37.781Z</time></trkpt><trkpt lat="45.7034644" lon="11.0421915"><ele>1654.5</ele><time>2026-04-26T12:17:38.783Z</time></trkpt><trkpt lat="45.7034721" lon="11.0422987"><ele>1655.3333333333335</ele><time>2026-04-26T12:17:39.783Z</time></trkpt><trkpt lat="45.7034938" lon="11.0424073"><ele>1656.1666666666667</ele><time>2026-04-26T12:17:40.782Z</time></trkpt><trkpt lat="45.7035279" lon="11.0425129"><ele>1657.0</ele><time>2026-04-26T12:17:41.781Z</time></trkpt><trkpt lat="45.7035746" lon="11.0426261"><ele>1660.1999999999998</ele><time>2026-04-26T12:17:42.782Z</time></trkpt><trkpt lat="45.7036314" lon="11.0427583"><ele>1663.4</ele><time>2026-04-26T12:17:43.782Z</time></trkpt><trkpt lat="45.7037025" lon="11.0428931"><ele>1666.6</ele><time>2026-04-26T12:17:44.782Z</time></trkpt><trkpt lat="45.7037677" lon="11.0430218"><ele>1669.8000000000002</ele><time>2026-04-26T12:17:45.782Z</time></trkpt><trkpt lat="45.7038296" lon="11.0431338"><ele>1673.0</ele><time>2026-04-26T12:17:46.783Z</time></trkpt><trkpt lat="45.7038944" lon="11.0432372"><ele>1672.4999999999998</ele><time>2026-04-26T12:17:47.782Z</time></trkpt><trkpt lat="45.7039578" lon="11.0433233"><ele>1672.0</ele><time>2026-04-26T12:17:48.782Z</time></trkpt><trkpt lat="45.7040278" lon="11.043395"><ele>1671.5</ele><time>2026-04-26T12:17:49.783Z</time></trkpt><trkpt lat="45.7041051" lon="11.0434601"><ele>1671.0</ele><time>2026-04-26T12:17:50.783Z</time></trkpt><trkpt lat="45.7041662" lon="11.0435406"><ele>1670.4999999999998</ele><time>2026-04-26T12:17:51.783Z</time></trkpt><trkpt lat="45.7042164" lon="11.0436216"><ele>1670.0</ele><time>2026-04-26T12:17:52.783Z</time></trkpt><trkpt lat="45.7042524" lon="11.043718"><ele>1669.9999999999998</ele><time>2026-04-26T12:17:53.782Z</time></trkpt><trkpt lat="45.7042764" lon="11.0438172"><ele>1670.0</ele><time>2026-04-26T12:17:54.783Z</time></trkpt><trkpt lat="45.7042844" lon="11.0439218"><ele>1670.0</ele><time>2026-04-26T12:17:55.783Z</time></trkpt><trkpt lat="45.7042875" lon="11.0440455"><ele>1670.0</ele><time>2026-04-26T12:17:56.782Z</time></trkpt><trkpt lat="45.7042888" lon="11.0441578"><ele>1669.9999999999998</ele><time>2026-04-26T12:17:57.781Z</time></trkpt><trkpt lat="45.7042924" lon="11.0442802"><ele>1670.0</ele><time>2026-04-26T12:17:58.782Z</time></trkpt><trkpt lat="45.7043113" lon="11.0444029"><ele>1669.3333333333333</ele><time>2026-04-26T12:17:59.782Z</time></trkpt><trkpt lat="45.7043397" lon="11.0445157"><ele>1668.6666666666665</ele><time>2026-04-26T12:18:00.783Z</time></trkpt><trkpt lat="45.7043758" lon="11.0446127"><ele>1668.0</ele><time>2026-04-26T12:18:01.782Z</time></trkpt><trkpt lat="45.7044263" lon="11.0447045"><ele>1667.3333333333335</ele><time>2026-04-26T12:18:02.782Z</time></trkpt><trkpt lat="45.7044943" lon="11.0447936"><ele>1666.6666666666667</ele><time>2026-04-26T12:18:03.782Z</time></trkpt><trkpt lat="45.7045688" lon="11.0448852"><ele>1666.0</ele><time>2026-04-26T12:18:04.783Z</time></trkpt><trkpt lat="45.7046441" lon="11.0449784"><ele>1667.8</ele><time>2026-04-26T12:18:05.782Z</time></trkpt><trkpt lat="45.7047128" lon="11.0450714"><ele>1669.6</ele><time>2026-04-26T12:18:06.783Z</time></trkpt><trkpt lat="45.7047834" lon="11.0451726"><ele>1671.4</ele><time>2026-04-26T12:18:07.781Z</time></trkpt><trkpt lat="45.704843" lon="11.0452774"><ele>1673.2</ele><time>2026-04-26T12:18:08.782Z</time></trkpt><trkpt lat="45.7048897" lon="11.0453899"><ele>1675.0</ele><time>2026-04-26T12:18:09.783Z</time></trkpt><trkpt lat="45.7049277" lon="11.0455075"><ele>1675.0</ele><time>2026-04-26T12:18:10.782Z</time></trkpt><trkpt lat="45.7049637" lon="11.0456304"><ele>1675.0</ele><time>2026-04-26T12:18:11.782Z</time></trkpt><trkpt lat="45.7049922" lon="11.0457563"><ele>1675.0</ele><time>2026-04-26T12:18:12.783Z</time></trkpt><trkpt lat="45.7050243" lon="11.0458866"><ele>1675.0</ele><time>2026-04-26T12:18:13.781Z</time></trkpt><trkpt lat="45.7050484" lon="11.0460292"><ele>1675.0</ele><time>2026-04-26T12:18:14.782Z</time></trkpt><trkpt lat="45.7050612" lon="11.0461563"><ele>1674.0000000000002</ele><time>2026-04-26T12:18:15.783Z</time></trkpt><trkpt lat="45.7050647" lon="11.0462725"><ele>1673.0</ele><time>2026-04-26T12:18:16.783Z</time></trkpt><trkpt lat="45.7050607" lon="11.0463851"><ele>1672.0</ele><time>2026-04-26T12:18:17.782Z</time></trkpt><trkpt lat="45.7050462" lon="11.0465006"><ele>1671.0</ele><time>2026-04-26T12:18:18.783Z</time></trkpt><trkpt lat="45.7050202" lon="11.0466131"><ele>1670.0000000000002</ele><time>2026-04-26T12:18:19.782Z</time></trkpt><trkpt lat="45.7049861" lon="11.0467163"><ele>1669.0</ele><time>2026-04-26T12:18:20.781Z</time></trkpt><trkpt lat="45.7049471" lon="11.0468271"><ele>1669.0</ele><time>2026-04-26T12:18:21.782Z</time></trkpt><trkpt lat="45.704913" lon="11.0469462"><ele>1669.0</ele><time>2026-04-26T12:18:22.783Z</time></trkpt><trkpt lat="45.7048776" lon="11.0470696"><ele>1669.0</ele><time>2026-04-26T12:18:23.782Z</time></trkpt><trkpt lat="45.7048392" lon="11.0471969"><ele>1669.0</ele><time>2026-04-26T12:18:24.783Z</time></trkpt><trkpt lat="45.7047984" lon="11.0473166"><ele>1669.0</ele><time>2026-04-26T12:18:25.782Z</time></trkpt><trkpt lat="45.7047599" lon="11.0474362"><ele>1668.6666666666667</ele><time>2026-04-26T12:18:26.782Z</time></trkpt><trkpt lat="45.7047206" lon="11.0475581"><ele>1668.3333333333335</ele><time>2026-04-26T12:18:27.782Z</time></trkpt><trkpt lat="45.7046834" lon="11.0476689"><ele>1668.0</ele><time>2026-04-26T12:18:28.783Z</time></trkpt><trkpt lat="45.7046467" lon="11.0477762"><ele>1667.6666666666665</ele><time>2026-04-26T12:18:29.781Z</time></trkpt><trkpt lat="45.7046116" lon="11.0478843"><ele>1667.3333333333333</ele><time>2026-04-26T12:18:30.782Z</time></trkpt><trkpt lat="45.7045679" lon="11.0479855"><ele>1667.0</ele><time>2026-04-26T12:18:31.782Z</time></trkpt><trkpt lat="45.7045149" lon="11.0480822"><ele>1666.9999999999998</ele><time>2026-04-26T12:18:32.782Z</time></trkpt><trkpt lat="45.7044569" lon="11.0481609"><ele>1667.0</ele><time>2026-04-26T12:18:33.78Z</time></trkpt><trkpt lat="45.7043966" lon="11.048246"><ele>1667.0</ele><time>2026-04-26T12:18:34.782Z</time></trkpt><trkpt lat="45.7043297" lon="11.04831"><ele>1667.0</ele><time>2026-04-26T12:18:35.783Z</time></trkpt><trkpt lat="45.704259" lon="11.0483606"><ele>1666.9999999999998</ele><time>2026-04-26T12:18:36.781Z</time></trkpt><trkpt lat="45.7041791" lon="11.0483939"><ele>1667.0</ele><time>2026-04-26T12:18:37.782Z</time></trkpt><trkpt lat="45.7040901" lon="11.0484161"><ele>1667.8333333333333</ele><time>2026-04-26T12:18:38.782Z</time></trkpt><trkpt lat="45.7039923" lon="11.0484317"><ele>1668.6666666666665</ele><time>2026-04-26T12:18:39.782Z</time></trkpt><trkpt lat="45.7039013" lon="11.0484427"><ele>1669.5</ele><time>2026-04-26T12:18:40.783Z</time></trkpt><trkpt lat="45.7038257" lon="11.0484591"><ele>1670.3333333333335</ele><time>2026-04-26T12:18:41.781Z</time></trkpt><trkpt lat="45.7037561" lon="11.0484872"><ele>1671.1666666666667</ele><time>2026-04-26T12:18:42.781Z</time></trkpt><trkpt lat="45.7036886" lon="11.0485224"><ele>1672.0</ele><time>2026-04-26T12:18:43.781Z</time></trkpt><trkpt lat="45.7036297" lon="11.048565"><ele>1671.3333333333335</ele><time>2026-04-26T12:18:44.783Z</time></trkpt><trkpt lat="45.703578" lon="11.0486189"><ele>1670.6666666666667</ele><time>2026-04-26T12:18:45.781Z</time></trkpt><trkpt lat="45.7035437" lon="11.0486951"><ele>1670.0</ele><time>2026-04-26T12:18:46.781Z</time></trkpt><trkpt lat="45.7035122" lon="11.0487846"><ele>1669.3333333333335</ele><time>2026-04-26T12:18:47.782Z</time></trkpt><trkpt lat="45.7034855" lon="11.0488799"><ele>1668.6666666666667</ele><time>2026-04-26T12:18:48.783Z</time></trkpt><trkpt lat="45.70346" lon="11.0489755"><ele>1668.0</ele><time>2026-04-26T12:18:49.783Z</time></trkpt><trkpt lat="45.7033977" lon="11.0491173"><ele>1669.2</ele><time>2026-04-26T12:18:51.783Z</time></trkpt><trkpt lat="45.7032866" lon="11.0491932"><ele>1670.4</ele><time>2026-04-26T12:18:53.781Z</time></trkpt><trkpt lat="45.7032094" lon="11.0492103"><ele>1671.6000000000001</ele><time>2026-04-26T12:18:54.782Z</time></trkpt><trkpt lat="45.7031333" lon="11.0492347"><ele>1672.8000000000002</ele><time>2026-04-26T12:18:55.782Z</time></trkpt><trkpt lat="45.7030265" lon="11.0493046"><ele>1674.0</ele><time>2026-04-26T12:18:57.782Z</time></trkpt><trkpt lat="45.7029453" lon="11.049422"><ele>1674.0</ele><time>2026-04-26T12:18:59.781Z</time></trkpt><trkpt lat="45.7029117" lon="11.0495867"><ele>1674.0</ele><time>2026-04-26T12:19:01.783Z</time></trkpt><trkpt lat="45.7029036" lon="11.0496827"><ele>1674.0</ele><time>2026-04-26T12:19:02.78Z</time></trkpt><trkpt lat="45.7029055" lon="11.0497797"><ele>1674.0</ele><time>2026-04-26T12:19:03.783Z</time></trkpt><trkpt lat="45.7029304" lon="11.0499603"><ele>1674.0</ele><time>2026-04-26T12:19:05.782Z</time></trkpt><trkpt lat="45.7029557" lon="11.0500515"><ele>1675.0</ele><time>2026-04-26T12:19:06.781Z</time></trkpt><trkpt lat="45.7029881" lon="11.0501465"><ele>1676.0</ele><time>2026-04-26T12:19:07.783Z</time></trkpt><trkpt lat="45.7030245" lon="11.0502489"><ele>1677.0</ele><time>2026-04-26T12:19:08.781Z</time></trkpt><trkpt lat="45.7030653" lon="11.0503467"><ele>1678.0</ele><time>2026-04-26T12:19:09.783Z</time></trkpt><trkpt lat="45.7031106" lon="11.0504357"><ele>1679.0</ele><time>2026-04-26T12:19:10.783Z</time></trkpt><trkpt lat="45.7031553" lon="11.0505214"><ele>1680.0</ele><time>2026-04-26T12:19:11.781Z</time></trkpt><trkpt lat="45.7032067" lon="11.0506047"><ele>1680.0</ele><time>2026-04-26T12:19:12.783Z</time></trkpt><trkpt lat="45.70326" lon="11.0506836"><ele>1680.0</ele><time>2026-04-26T12:19:13.783Z</time></trkpt><trkpt lat="45.7033148" lon="11.0507754"><ele>1680.0</ele><time>2026-04-26T12:19:14.781Z</time></trkpt><trkpt lat="45.7033673" lon="11.0508618"><ele>1680.0</ele><time>2026-04-26T12:19:15.782Z</time></trkpt><trkpt lat="45.7034229" lon="11.0509341"><ele>1680.0</ele><time>2026-04-26T12:19:16.781Z</time></trkpt><trkpt lat="45.7034787" lon="11.0510094"><ele>1680.0</ele><time>2026-04-26T12:19:17.781Z</time></trkpt><trkpt lat="45.7035413" lon="11.0510821"><ele>1681.8333333333333</ele><time>2026-04-26T12:19:18.781Z</time></trkpt><trkpt lat="45.7036123" lon="11.0511507"><ele>1683.6666666666665</ele><time>2026-04-26T12:19:19.783Z</time></trkpt><trkpt lat="45.7036842" lon="11.0512157"><ele>1685.5</ele><time>2026-04-26T12:19:20.781Z</time></trkpt><trkpt lat="45.7037517" lon="11.0512707"><ele>1687.3333333333333</ele><time>2026-04-26T12:19:21.782Z</time></trkpt><trkpt lat="45.7038117" lon="11.0513215"><ele>1689.1666666666665</ele><time>2026-04-26T12:19:22.783Z</time></trkpt><trkpt lat="45.7038673" lon="11.0513756"><ele>1691.0</ele><time>2026-04-26T12:19:23.783Z</time></trkpt><trkpt lat="45.7039434" lon="11.0515129"><ele>1691.0000000000002</ele><time>2026-04-26T12:19:25.782Z</time></trkpt><trkpt lat="45.7039698" lon="11.0516018"><ele>1691.0</ele><time>2026-04-26T12:19:26.783Z</time></trkpt><trkpt lat="45.7039908" lon="11.0516992"><ele>1691.0</ele><time>2026-04-26T12:19:27.782Z</time></trkpt><trkpt lat="45.7040043" lon="11.0518095"><ele>1691.0</ele><time>2026-04-26T12:19:28.781Z</time></trkpt><trkpt lat="45.7040213" lon="11.051916"><ele>1691.0</ele><time>2026-04-26T12:19:29.781Z</time></trkpt><trkpt lat="45.7040471" lon="11.0520125"><ele>1691.0000000000002</ele><time>2026-04-26T12:19:30.783Z</time></trkpt><trkpt lat="45.7040755" lon="11.0521116"><ele>1691.0</ele><time>2026-04-26T12:19:31.783Z</time></trkpt><trkpt lat="45.7041139" lon="11.0521987"><ele>1690.1999999999998</ele><time>2026-04-26T12:19:32.783Z</time></trkpt><trkpt lat="45.7041501" lon="11.0522822"><ele>1689.3999999999999</ele><time>2026-04-26T12:19:33.781Z</time></trkpt><trkpt lat="45.7042158" lon="11.0524238"><ele>1688.6</ele><time>2026-04-26T12:19:35.783Z</time></trkpt><trkpt lat="45.7042533" lon="11.052568"><ele>1687.8</ele><time>2026-04-26T12:19:37.783Z</time></trkpt><trkpt lat="45.7042463" lon="11.0527043"><ele>1687.0</ele><time>2026-04-26T12:19:39.782Z</time></trkpt><trkpt lat="45.7041831" lon="11.0528135"><ele>1687.0000000000002</ele><time>2026-04-26T12:19:41.781Z</time></trkpt><trkpt lat="45.7040687" lon="11.0528788"><ele>1687.0</ele><time>2026-04-26T12:19:43.782Z</time></trkpt><trkpt lat="45.7039901" lon="11.052885"><ele>1687.0</ele><time>2026-04-26T12:19:44.783Z</time></trkpt><trkpt lat="45.7039019" lon="11.052891"><ele>1687.0</ele><time>2026-04-26T12:19:45.782Z</time></trkpt><trkpt lat="45.7038266" lon="11.0528922"><ele>1687.0000000000002</ele><time>2026-04-26T12:19:46.781Z</time></trkpt><trkpt lat="45.7037572" lon="11.0528977"><ele>1687.0</ele><time>2026-04-26T12:19:47.782Z</time></trkpt><trkpt lat="45.7036404" lon="11.0529307"><ele>1686.6</ele><time>2026-04-26T12:19:49.782Z</time></trkpt><trkpt lat="45.7035555" lon="11.0530214"><ele>1686.1999999999998</ele><time>2026-04-26T12:19:51.781Z</time></trkpt><trkpt lat="45.7035296" lon="11.0531634"><ele>1685.8</ele><time>2026-04-26T12:19:53.782Z</time></trkpt><trkpt lat="45.7035608" lon="11.0533269"><ele>1685.4</ele><time>2026-04-26T12:19:55.783Z</time></trkpt><trkpt lat="45.7035872" lon="11.0534161"><ele>1685.0</ele><time>2026-04-26T12:19:56.78Z</time></trkpt><trkpt lat="45.7036197" lon="11.0535821"><ele>1684.9999999999998</ele><time>2026-04-26T12:19:58.783Z</time></trkpt><trkpt lat="45.7035973" lon="11.0537118"><ele>1685.0</ele><time>2026-04-26T12:20:00.783Z</time></trkpt><trkpt lat="45.7035133" lon="11.0538301"><ele>1685.0</ele><time>2026-04-26T12:20:02.781Z</time></trkpt><trkpt lat="45.7034538" lon="11.0538877"><ele>1685.0</ele><time>2026-04-26T12:20:03.782Z</time></trkpt><trkpt lat="45.7033773" lon="11.0539467"><ele>1684.9999999999998</ele><time>2026-04-26T12:20:04.783Z</time></trkpt><trkpt lat="45.7033063" lon="11.0539979"><ele>1685.0</ele><time>2026-04-26T12:20:05.782Z</time></trkpt><trkpt lat="45.7032407" lon="11.0540552"><ele>1686.8</ele><time>2026-04-26T12:20:06.782Z</time></trkpt><trkpt lat="45.7031406" lon="11.0541601"><ele>1688.6</ele><time>2026-04-26T12:20:08.783Z</time></trkpt><trkpt lat="45.7030746" lon="11.0543015"><ele>1690.4</ele><time>2026-04-26T12:20:10.782Z</time></trkpt><trkpt lat="45.7030399" lon="11.0544424"><ele>1692.2</ele><time>2026-04-26T12:20:12.782Z</time></trkpt><trkpt lat="45.7030452" lon="11.0545866"><ele>1694.0</ele><time>2026-04-26T12:20:14.782Z</time></trkpt><trkpt lat="45.7030861" lon="11.0547644"><ele>1693.9999999999998</ele><time>2026-04-26T12:20:16.781Z</time></trkpt><trkpt lat="45.7031016" lon="11.0548818"><ele>1694.0</ele><time>2026-04-26T12:20:17.783Z</time></trkpt><trkpt lat="45.7031135" lon="11.0550038"><ele>1694.0</ele><time>2026-04-26T12:20:18.782Z</time></trkpt><trkpt lat="45.7031117" lon="11.0551103"><ele>1694.0</ele><time>2026-04-26T12:20:19.783Z</time></trkpt><trkpt lat="45.7030996" lon="11.0552052"><ele>1693.9999999999998</ele><time>2026-04-26T12:20:20.783Z</time></trkpt><trkpt lat="45.7030745" lon="11.0552895"><ele>1694.0</ele><time>2026-04-26T12:20:21.781Z</time></trkpt><trkpt lat="45.7030027" lon="11.0554079"><ele>1695.1666666666665</ele><time>2026-04-26T12:20:23.782Z</time></trkpt><trkpt lat="45.7029142" lon="11.0554568"><ele>1696.3333333333333</ele><time>2026-04-26T12:20:25.782Z</time></trkpt><trkpt lat="45.7027893" lon="11.0554611"><ele>1697.5</ele><time>2026-04-26T12:20:27.782Z</time></trkpt><trkpt lat="45.7027181" lon="11.055457"><ele>1698.6666666666665</ele><time>2026-04-26T12:20:28.782Z</time></trkpt><trkpt lat="45.7026408" lon="11.0554612"><ele>1699.8333333333333</ele><time>2026-04-26T12:20:29.781Z</time></trkpt><trkpt lat="45.7025701" lon="11.0554856"><ele>1701.0</ele><time>2026-04-26T12:20:30.782Z</time></trkpt><trkpt lat="45.7025111" lon="11.0555188"><ele>1700.6</ele><time>2026-04-26T12:20:31.782Z</time></trkpt><trkpt lat="45.7024169" lon="11.0556234"><ele>1700.1999999999998</ele><time>2026-04-26T12:20:33.782Z</time></trkpt><trkpt lat="45.7023765" lon="11.0556943"><ele>1699.8000000000002</ele><time>2026-04-26T12:20:34.782Z</time></trkpt><trkpt lat="45.7023453" lon="11.0557743"><ele>1699.4</ele><time>2026-04-26T12:20:35.782Z</time></trkpt><trkpt lat="45.7022997" lon="11.0559186"><ele>1699.0</ele><time>2026-04-26T12:20:37.782Z</time></trkpt><trkpt lat="45.7022455" lon="11.0560682"><ele>1699.0000000000002</ele><time>2026-04-26T12:20:39.782Z</time></trkpt><trkpt lat="45.7022154" lon="11.0561548"><ele>1699.0</ele><time>2026-04-26T12:20:40.781Z</time></trkpt><trkpt lat="45.7021838" lon="11.0562379"><ele>1699.0</ele><time>2026-04-26T12:20:41.783Z</time></trkpt><trkpt lat="45.7021231" lon="11.0564005"><ele>1699.0</ele><time>2026-04-26T12:20:43.782Z</time></trkpt><trkpt lat="45.7020858" lon="11.0564891"><ele>1699.0000000000002</ele><time>2026-04-26T12:20:44.782Z</time></trkpt><trkpt lat="45.7020416" lon="11.0565861"><ele>1699.0</ele><time>2026-04-26T12:20:45.781Z</time></trkpt><trkpt lat="45.7019867" lon="11.0566883"><ele>1699.1666666666667</ele><time>2026-04-26T12:20:46.782Z</time></trkpt><trkpt lat="45.7019273" lon="11.0567761"><ele>1699.3333333333335</ele><time>2026-04-26T12:20:47.783Z</time></trkpt><trkpt lat="45.7018681" lon="11.0568363"><ele>1699.5</ele><time>2026-04-26T12:20:48.783Z</time></trkpt><trkpt lat="45.7018021" lon="11.0568679"><ele>1699.6666666666665</ele><time>2026-04-26T12:20:49.782Z</time></trkpt><trkpt lat="45.7017317" lon="11.0568854"><ele>1699.8333333333333</ele><time>2026-04-26T12:20:50.783Z</time></trkpt><trkpt lat="45.7016107" lon="11.0568657"><ele>1700.0</ele><time>2026-04-26T12:20:52.782Z</time></trkpt><trkpt lat="45.701547" lon="11.0568475"><ele>1700.0</ele><time>2026-04-26T12:20:53.783Z</time></trkpt><trkpt lat="45.7014295" lon="11.0568418"><ele>1700.0</ele><time>2026-04-26T12:20:55.782Z</time></trkpt><trkpt lat="45.7013288" lon="11.0568936"><ele>1700.0</ele><time>2026-04-26T12:20:57.783Z</time></trkpt><trkpt lat="45.7012656" lon="11.0570169"><ele>1700.0</ele><time>2026-04-26T12:20:59.782Z</time></trkpt><trkpt lat="45.7012042" lon="11.0571415"><ele>1700.0</ele><time>2026-04-26T12:21:01.782Z</time></trkpt><trkpt lat="45.701115" lon="11.0572236"><ele>1700.6</ele><time>2026-04-26T12:21:03.782Z</time></trkpt><trkpt lat="45.701005" lon="11.0572074"><ele>1701.2</ele><time>2026-04-26T12:21:05.782Z</time></trkpt><trkpt lat="45.7009143" lon="11.0570956"><ele>1701.8000000000002</ele><time>2026-04-26T12:21:07.782Z</time></trkpt><trkpt lat="45.7008484" lon="11.0569491"><ele>1702.4</ele><time>2026-04-26T12:21:09.783Z</time></trkpt><trkpt lat="45.7008142" lon="11.0568702"><ele>1703.0</ele><time>2026-04-26T12:21:10.783Z</time></trkpt><trkpt lat="45.7007774" lon="11.0567955"><ele>1703.0</ele><time>2026-04-26T12:21:11.782Z</time></trkpt><trkpt lat="45.7007382" lon="11.0567173"><ele>1703.0</ele><time>2026-04-26T12:21:12.783Z</time></trkpt><trkpt lat="45.7006968" lon="11.0566407"><ele>1703.0</ele><time>2026-04-26T12:21:13.783Z</time></trkpt><trkpt lat="45.7006516" lon="11.056572"><ele>1703.0</ele><time>2026-04-26T12:21:14.782Z</time></trkpt><trkpt lat="45.7006058" lon="11.0565049"><ele>1703.0</ele><time>2026-04-26T12:21:15.783Z</time></trkpt><trkpt lat="45.7005557" lon="11.0564403"><ele>1703.0</ele><time>2026-04-26T12:21:16.782Z</time></trkpt><trkpt lat="45.700501" lon="11.0563805"><ele>1703.0</ele><time>2026-04-26T12:21:17.782Z</time></trkpt><trkpt lat="45.7004424" lon="11.056322"><ele>1702.4999999999998</ele><time>2026-04-26T12:21:18.782Z</time></trkpt><trkpt lat="45.7003814" lon="11.0562689"><ele>1702.0</ele><time>2026-04-26T12:21:19.782Z</time></trkpt><trkpt lat="45.7003124" lon="11.0562136"><ele>1701.5</ele><time>2026-04-26T12:21:20.782Z</time></trkpt><trkpt lat="45.7002362" lon="11.0561588"><ele>1701.0</ele><time>2026-04-26T12:21:21.782Z</time></trkpt><trkpt lat="45.7001542" lon="11.0561086"><ele>1700.4999999999998</ele><time>2026-04-26T12:21:22.782Z</time></trkpt><trkpt lat="45.700078" lon="11.0560685"><ele>1700.0</ele><time>2026-04-26T12:21:23.782Z</time></trkpt><trkpt lat="45.7000069" lon="11.0560414"><ele>1699.9999999999998</ele><time>2026-04-26T12:21:24.781Z</time></trkpt><trkpt lat="45.6999338" lon="11.0560248"><ele>1700.0</ele><time>2026-04-26T12:21:25.781Z</time></trkpt><trkpt lat="45.6998617" lon="11.0560239"><ele>1700.0</ele><time>2026-04-26T12:21:26.781Z</time></trkpt><trkpt lat="45.6997908" lon="11.0560379"><ele>1700.0</ele><time>2026-04-26T12:21:27.782Z</time></trkpt><trkpt lat="45.6997195" lon="11.0560666"><ele>1699.9999999999998</ele><time>2026-04-26T12:21:28.783Z</time></trkpt><trkpt lat="45.6996509" lon="11.0561144"><ele>1700.0</ele><time>2026-04-26T12:21:29.782Z</time></trkpt><trkpt lat="45.6995777" lon="11.0561786"><ele>1700.0</ele><time>2026-04-26T12:21:30.783Z</time></trkpt><trkpt lat="45.6995046" lon="11.0562585"><ele>1700.0</ele><time>2026-04-26T12:21:31.783Z</time></trkpt><trkpt lat="45.6994293" lon="11.0563482"><ele>1700.0</ele><time>2026-04-26T12:21:32.782Z</time></trkpt><trkpt lat="45.6993567" lon="11.0564329"><ele>1700.0</ele><time>2026-04-26T12:21:33.782Z</time></trkpt><trkpt lat="45.6992816" lon="11.0565186"><ele>1700.0</ele><time>2026-04-26T12:21:34.783Z</time></trkpt><trkpt lat="45.6991983" lon="11.0566096"><ele>1700.2</ele><time>2026-04-26T12:21:35.781Z</time></trkpt><trkpt lat="45.6991116" lon="11.0566881"><ele>1700.4</ele><time>2026-04-26T12:21:36.781Z</time></trkpt><trkpt lat="45.6990214" lon="11.056756"><ele>1700.6</ele><time>2026-04-26T12:21:37.781Z</time></trkpt><trkpt lat="45.6989347" lon="11.0568086"><ele>1700.8</ele><time>2026-04-26T12:21:38.782Z</time></trkpt><trkpt lat="45.6988419" lon="11.0568429"><ele>1701.0</ele><time>2026-04-26T12:21:39.782Z</time></trkpt><trkpt lat="45.69875" lon="11.0568602"><ele>1701.0</ele><time>2026-04-26T12:21:40.781Z</time></trkpt><trkpt lat="45.6986599" lon="11.056858"><ele>1701.0</ele><time>2026-04-26T12:21:41.781Z</time></trkpt><trkpt lat="45.6985688" lon="11.0568443"><ele>1701.0</ele><time>2026-04-26T12:21:42.781Z</time></trkpt><trkpt lat="45.6984821" lon="11.0568191"><ele>1701.0</ele><time>2026-04-26T12:21:43.782Z</time></trkpt><trkpt lat="45.6983983" lon="11.0567962"><ele>1701.0</ele><time>2026-04-26T12:21:44.783Z</time></trkpt><trkpt lat="45.6983257" lon="11.0567857"><ele>1701.0</ele><time>2026-04-26T12:21:45.781Z</time></trkpt><trkpt lat="45.6982557" lon="11.0567805"><ele>1699.8333333333333</ele><time>2026-04-26T12:21:46.782Z</time></trkpt><trkpt lat="45.698187" lon="11.0567866"><ele>1698.6666666666665</ele><time>2026-04-26T12:21:47.781Z</time></trkpt><trkpt lat="45.698121" lon="11.0568067"><ele>1697.5</ele><time>2026-04-26T12:21:48.782Z</time></trkpt><trkpt lat="45.6980513" lon="11.056844"><ele>1696.3333333333333</ele><time>2026-04-26T12:21:49.78Z</time></trkpt><trkpt lat="45.697978" lon="11.0568952"><ele>1695.1666666666665</ele><time>2026-04-26T12:21:50.783Z</time></trkpt><trkpt lat="45.6979046" lon="11.0569586"><ele>1694.0</ele><time>2026-04-26T12:21:51.782Z</time></trkpt><trkpt lat="45.6978288" lon="11.057035"><ele>1694.0</ele><time>2026-04-26T12:21:52.781Z</time></trkpt><trkpt lat="45.69775" lon="11.0571177"><ele>1694.0</ele><time>2026-04-26T12:21:53.782Z</time></trkpt><trkpt lat="45.6976629" lon="11.057219"><ele>1694.0</ele><time>2026-04-26T12:21:54.782Z</time></trkpt><trkpt lat="45.6975741" lon="11.0573165"><ele>1694.0</ele><time>2026-04-26T12:21:55.782Z</time></trkpt><trkpt lat="45.6974943" lon="11.0574086"><ele>1694.0</ele><time>2026-04-26T12:21:56.782Z</time></trkpt><trkpt lat="45.6974158" lon="11.0574878"><ele>1694.0</ele><time>2026-04-26T12:21:57.781Z</time></trkpt><trkpt lat="45.6973401" lon="11.0575634"><ele>1694.0</ele><time>2026-04-26T12:21:58.781Z</time></trkpt><trkpt lat="45.6972535" lon="11.057633"><ele>1694.0</ele><time>2026-04-26T12:21:59.782Z</time></trkpt><trkpt lat="45.6971708" lon="11.0576844"><ele>1694.0</ele><time>2026-04-26T12:22:00.781Z</time></trkpt><trkpt lat="45.6970817" lon="11.0577338"><ele>1694.0</ele><time>2026-04-26T12:22:01.782Z</time></trkpt><trkpt lat="45.6969874" lon="11.0577847"><ele>1691.4</ele><time>2026-04-26T12:22:02.783Z</time></trkpt><trkpt lat="45.6969018" lon="11.0578257"><ele>1688.8000000000002</ele><time>2026-04-26T12:22:03.782Z</time></trkpt><trkpt lat="45.6968176" lon="11.0578679"><ele>1686.1999999999998</ele><time>2026-04-26T12:22:04.781Z</time></trkpt><trkpt lat="45.696737" lon="11.0579096"><ele>1683.6</ele><time>2026-04-26T12:22:05.782Z</time></trkpt><trkpt lat="45.6966493" lon="11.0579576"><ele>1681.0</ele><time>2026-04-26T12:22:06.781Z</time></trkpt><trkpt lat="45.6965602" lon="11.058003"><ele>1681.0000000000002</ele><time>2026-04-26T12:22:07.782Z</time></trkpt><trkpt lat="45.6964802" lon="11.0580459"><ele>1681.0</ele><time>2026-04-26T12:22:08.781Z</time></trkpt><trkpt lat="45.6963994" lon="11.0580851"><ele>1681.0</ele><time>2026-04-26T12:22:09.783Z</time></trkpt><trkpt lat="45.6963293" lon="11.0581202"><ele>1681.0</ele><time>2026-04-26T12:22:10.782Z</time></trkpt><trkpt lat="45.6962585" lon="11.058156"><ele>1681.0000000000002</ele><time>2026-04-26T12:22:11.782Z</time></trkpt><trkpt lat="45.6961892" lon="11.058192"><ele>1681.0</ele><time>2026-04-26T12:22:12.782Z</time></trkpt><trkpt lat="45.6961125" lon="11.058223"><ele>1681.1666666666667</ele><time>2026-04-26T12:22:13.782Z</time></trkpt><trkpt lat="45.6960373" lon="11.0582588"><ele>1681.3333333333335</ele><time>2026-04-26T12:22:14.782Z</time></trkpt><trkpt lat="45.6959594" lon="11.0582905"><ele>1681.5</ele><time>2026-04-26T12:22:15.781Z</time></trkpt><trkpt lat="45.6958812" lon="11.0583156"><ele>1681.6666666666665</ele><time>2026-04-26T12:22:16.782Z</time></trkpt><trkpt lat="45.6958085" lon="11.0583303"><ele>1681.8333333333333</ele><time>2026-04-26T12:22:17.782Z</time></trkpt><trkpt lat="45.6957428" lon="11.0583388"><ele>1682.0</ele><time>2026-04-26T12:22:18.782Z</time></trkpt><trkpt lat="45.6956325" lon="11.058348"><ele>1681.9999999999998</ele><time>2026-04-26T12:22:20.781Z</time></trkpt><trkpt lat="45.6955409" lon="11.0583579"><ele>1682.0</ele><time>2026-04-26T12:22:22.781Z</time></trkpt><trkpt lat="45.6954533" lon="11.0583504"><ele>1682.0</ele><time>2026-04-26T12:22:24.782Z</time></trkpt><trkpt lat="45.6953818" lon="11.0582911"><ele>1682.0</ele><time>2026-04-26T12:22:26.783Z</time></trkpt><trkpt lat="45.695375" lon="11.0581474"><ele>1681.9999999999998</ele><time>2026-04-26T12:22:28.781Z</time></trkpt><trkpt lat="45.6953898" lon="11.0580549"><ele>1682.0</ele><time>2026-04-26T12:22:29.782Z</time></trkpt><trkpt lat="45.6954104" lon="11.0579531"><ele>1682.0</ele><time>2026-04-26T12:22:30.782Z</time></trkpt><trkpt lat="45.6954289" lon="11.0578602"><ele>1682.0</ele><time>2026-04-26T12:22:31.783Z</time></trkpt><trkpt lat="45.6954566" lon="11.0577169"><ele>1682.0</ele><time>2026-04-26T12:22:33.783Z</time></trkpt><trkpt lat="45.6954442" lon="11.0576033"><ele>1682.0</ele><time>2026-04-26T12:22:35.783Z</time></trkpt><trkpt lat="45.6953853" lon="11.0575106"><ele>1682.0</ele><time>2026-04-26T12:22:37.781Z</time></trkpt><trkpt lat="45.6952754" lon="11.05745"><ele>1682.6</ele><time>2026-04-26T12:22:39.781Z</time></trkpt><trkpt lat="45.6951606" lon="11.0573924"><ele>1683.1999999999998</ele><time>2026-04-26T12:22:41.783Z</time></trkpt><trkpt lat="45.6950459" lon="11.0573379"><ele>1683.8</ele><time>2026-04-26T12:22:43.781Z</time></trkpt><trkpt lat="45.69496" lon="11.0573041"><ele>1684.4</ele><time>2026-04-26T12:22:45.78Z</time></trkpt><trkpt lat="45.6948819" lon="11.0572863"><ele>1685.0</ele><time>2026-04-26T12:22:47.781Z</time></trkpt><trkpt lat="45.6947993" lon="11.0572794"><ele>1685.0</ele><time>2026-04-26T12:22:49.783Z</time></trkpt><trkpt lat="45.6946953" lon="11.0572518"><ele>1685.0</ele><time>2026-04-26T12:22:51.782Z</time></trkpt><trkpt lat="45.6946041" lon="11.0571488"><ele>1685.0</ele><time>2026-04-26T12:22:53.782Z</time></trkpt><trkpt lat="45.6945451" lon="11.0570249"><ele>1685.0</ele><time>2026-04-26T12:22:55.782Z</time></trkpt><trkpt lat="45.6944998" lon="11.0568949"><ele>1685.0</ele><time>2026-04-26T12:22:57.78Z</time></trkpt><trkpt lat="45.6944756" lon="11.0567581"><ele>1686.0</ele><time>2026-04-26T12:22:59.781Z</time></trkpt><trkpt lat="45.694488" lon="11.0565977"><ele>1687.0</ele><time>2026-04-26T12:23:01.781Z</time></trkpt><trkpt lat="45.6945436" lon="11.0564329"><ele>1688.0</ele><time>2026-04-26T12:23:03.782Z</time></trkpt><trkpt lat="45.6945848" lon="11.0563531"><ele>1689.0</ele><time>2026-04-26T12:23:04.782Z</time></trkpt><trkpt lat="45.6946298" lon="11.0562691"><ele>1690.0</ele><time>2026-04-26T12:23:05.782Z</time></trkpt><trkpt lat="45.6946759" lon="11.0561883"><ele>1690.0000000000002</ele><time>2026-04-26T12:23:06.782Z</time></trkpt><trkpt lat="45.6947202" lon="11.0561063"><ele>1690.0</ele><time>2026-04-26T12:23:07.783Z</time></trkpt><trkpt lat="45.6947594" lon="11.0560254"><ele>1690.0</ele><time>2026-04-26T12:23:08.781Z</time></trkpt><trkpt lat="45.6948028" lon="11.055887"><ele>1690.0</ele><time>2026-04-26T12:23:10.78Z</time></trkpt><trkpt lat="45.694796" lon="11.0557693"><ele>1690.0000000000002</ele><time>2026-04-26T12:23:12.782Z</time></trkpt><trkpt lat="45.6947454" lon="11.0556717"><ele>1690.0</ele><time>2026-04-26T12:23:14.783Z</time></trkpt><trkpt lat="45.6946547" lon="11.0556211"><ele>1690.0</ele><time>2026-04-26T12:23:16.782Z</time></trkpt><trkpt lat="45.6945519" lon="11.0556032"><ele>1690.0</ele><time>2026-04-26T12:23:18.782Z</time></trkpt><trkpt lat="45.6944477" lon="11.0555961"><ele>1690.0</ele><time>2026-04-26T12:23:20.781Z</time></trkpt><trkpt lat="45.6943354" lon="11.0555769"><ele>1690.0</ele><time>2026-04-26T12:23:22.782Z</time></trkpt><trkpt lat="45.6942472" lon="11.0555593"><ele>1690.0</ele><time>2026-04-26T12:23:24.782Z</time></trkpt><trkpt lat="45.6941611" lon="11.0555186"><ele>1690.0</ele><time>2026-04-26T12:23:26.78Z</time></trkpt><trkpt lat="45.694072" lon="11.0554947"><ele>1690.0</ele><time>2026-04-26T12:23:28.783Z</time></trkpt><trkpt lat="45.6939682" lon="11.0554681"><ele>1690.0</ele><time>2026-04-26T12:23:30.782Z</time></trkpt><trkpt lat="45.6938507" lon="11.0554009"><ele>1690.0</ele><time>2026-04-26T12:23:32.78Z</time></trkpt><trkpt lat="45.6937972" lon="11.0553473"><ele>1690.0</ele><time>2026-04-26T12:23:33.783Z</time></trkpt><trkpt lat="45.6937069" lon="11.0552447"><ele>1690.0</ele><time>2026-04-26T12:23:35.783Z</time></trkpt><trkpt lat="45.6936335" lon="11.055097"><ele>1690.0</ele><time>2026-04-26T12:23:37.78Z</time></trkpt><trkpt lat="45.6936069" lon="11.0550036"><ele>1690.0</ele><time>2026-04-26T12:23:38.782Z</time></trkpt><trkpt lat="45.6935768" lon="11.0548356"><ele>1690.0</ele><time>2026-04-26T12:23:40.782Z</time></trkpt><trkpt lat="45.6935564" lon="11.0546759"><ele>1690.0</ele><time>2026-04-26T12:23:42.783Z</time></trkpt><trkpt lat="45.6935255" lon="11.0545303"><ele>1690.8333333333335</ele><time>2026-04-26T12:23:44.782Z</time></trkpt><trkpt lat="45.6934626" lon="11.0543754"><ele>1691.6666666666667</ele><time>2026-04-26T12:23:46.783Z</time></trkpt><trkpt lat="45.6934317" lon="11.054296"><ele>1692.5</ele><time>2026-04-26T12:23:47.782Z</time></trkpt><trkpt lat="45.693392" lon="11.05422"><ele>1693.3333333333335</ele><time>2026-04-26T12:23:48.782Z</time></trkpt><trkpt lat="45.6933556" lon="11.0541412"><ele>1694.1666666666667</ele><time>2026-04-26T12:23:49.782Z</time></trkpt><trkpt lat="45.6933218" lon="11.0540413"><ele>1695.0</ele><time>2026-04-26T12:23:50.783Z</time></trkpt><trkpt lat="45.6932948" lon="11.0539374"><ele>1695.0</ele><time>2026-04-26T12:23:51.781Z</time></trkpt><trkpt lat="45.6932845" lon="11.0538276"><ele>1695.0</ele><time>2026-04-26T12:23:52.782Z</time></trkpt><trkpt lat="45.6932865" lon="11.0537274"><ele>1695.0</ele><time>2026-04-26T12:23:53.781Z</time></trkpt><trkpt lat="45.6933016" lon="11.0536155"><ele>1695.0</ele><time>2026-04-26T12:23:54.783Z</time></trkpt><trkpt lat="45.6933197" lon="11.0535049"><ele>1695.0</ele><time>2026-04-26T12:23:55.782Z</time></trkpt><trkpt lat="45.6933439" lon="11.0533934"><ele>1695.0</ele><time>2026-04-26T12:23:56.782Z</time></trkpt><trkpt lat="45.6933695" lon="11.053298"><ele>1694.2</ele><time>2026-04-26T12:23:57.782Z</time></trkpt><trkpt lat="45.6934127" lon="11.0531384"><ele>1693.4</ele><time>2026-04-26T12:23:59.782Z</time></trkpt><trkpt lat="45.693446" lon="11.053006"><ele>1692.6</ele><time>2026-04-26T12:24:01.783Z</time></trkpt><trkpt lat="45.693475" lon="11.0528777"><ele>1691.8</ele><time>2026-04-26T12:24:03.781Z</time></trkpt><trkpt lat="45.693487" lon="11.0527431"><ele>1691.0</ele><time>2026-04-26T12:24:05.782Z</time></trkpt><trkpt lat="45.6934651" lon="11.0526122"><ele>1691.0</ele><time>2026-04-26T12:24:07.781Z</time></trkpt><trkpt lat="45.6934013" lon="11.0524794"><ele>1691.0</ele><time>2026-04-26T12:24:09.782Z</time></trkpt><trkpt lat="45.6932863" lon="11.0524046"><ele>1691.0</ele><time>2026-04-26T12:24:11.783Z</time></trkpt><trkpt lat="45.6931701" lon="11.0524016"><ele>1691.0</ele><time>2026-04-26T12:24:13.782Z</time></trkpt><trkpt lat="45.6930771" lon="11.0524169"><ele>1691.0</ele><time>2026-04-26T12:24:15.782Z</time></trkpt><trkpt lat="45.6929983" lon="11.0524543"><ele>1689.6666666666665</ele><time>2026-04-26T12:24:17.781Z</time></trkpt><trkpt lat="45.6928973" lon="11.0524506"><ele>1688.3333333333333</ele><time>2026-04-26T12:24:19.782Z</time></trkpt><trkpt lat="45.6928013" lon="11.052383"><ele>1687.0</ele><time>2026-04-26T12:24:21.782Z</time></trkpt><trkpt lat="45.6927549" lon="11.0523187"><ele>1685.6666666666665</ele><time>2026-04-26T12:24:22.783Z</time></trkpt><trkpt lat="45.6927226" lon="11.0522293"><ele>1684.3333333333333</ele><time>2026-04-26T12:24:23.781Z</time></trkpt><trkpt lat="45.6926983" lon="11.0521346"><ele>1683.0</ele><time>2026-04-26T12:24:24.783Z</time></trkpt><trkpt lat="45.6926834" lon="11.052041"><ele>1683.0</ele><time>2026-04-26T12:24:25.781Z</time></trkpt><trkpt lat="45.6926574" lon="11.0518885"><ele>1683.0</ele><time>2026-04-26T12:24:27.783Z</time></trkpt><trkpt lat="45.6926259" lon="11.05176"><ele>1683.0</ele><time>2026-04-26T12:24:29.782Z</time></trkpt><trkpt lat="45.6925916" lon="11.0516285"><ele>1683.0</ele><time>2026-04-26T12:24:31.783Z</time></trkpt><trkpt lat="45.693446" lon="11.053006"><ele>1682.6000000000001</ele><time>2026-04-26T12:24:01.783Z</time></trkpt><trkpt lat="45.693475" lon="11.0528777"><ele>1682.2</ele><time>2026-04-26T12:24:03.781Z</time></trkpt><trkpt lat="45.693487" lon="11.0527431"><ele>1681.8</ele><time>2026-04-26T12:24:05.782Z</time></trkpt><trkpt lat="45.6934651" lon="11.0526122"><ele>1681.4</ele><time>2026-04-26T12:24:07.781Z</time></trkpt><trkpt lat="45.6934013" lon="11.0524794"><ele>1681.0</ele><time>2026-04-26T12:24:09.782Z</time></trkpt><trkpt lat="45.6932863" lon="11.0524046"><ele>1681.0</ele><time>2026-04-26T12:24:11.783Z</time></trkpt><trkpt lat="45.6931701" lon="11.0524016"><ele>1681.0</ele><time>2026-04-26T12:24:13.782Z</time></trkpt><trkpt lat="45.6930771" lon="11.0524169"><ele>1681.0</ele><time>2026-04-26T12:24:15.782Z</time></trkpt><trkpt lat="45.6929983" lon="11.0524543"><ele>1681.0</ele><time>2026-04-26T12:24:17.781Z</time></trkpt><trkpt lat="45.6928973" lon="11.0524506"><ele>1681.0</ele><time>2026-04-26T12:24:19.782Z</time></trkpt><trkpt lat="45.6928013" lon="11.052383"><ele>1681.3333333333335</ele><time>2026-04-26T12:24:21.782Z</time></trkpt><trkpt lat="45.6927549" lon="11.0523187"><ele>1681.6666666666667</ele><time>2026-04-26T12:24:22.783Z</time></trkpt><trkpt lat="45.6927226" lon="11.0522293"><ele>1682.0</ele><time>2026-04-26T12:24:23.781Z</time></trkpt><trkpt lat="45.6926983" lon="11.0521346"><ele>1682.3333333333335</ele><time>2026-04-26T12:24:24.783Z</time></trkpt><trkpt lat="45.6926834" lon="11.052041"><ele>1682.6666666666667</ele><time>2026-04-26T12:24:25.781Z</time></trkpt><trkpt lat="45.6926574" lon="11.0518885"><ele>1683.0</ele><time>2026-04-26T12:24:27.783Z</time></trkpt><trkpt lat="45.6926259" lon="11.05176"><ele>1683.0</ele><time>2026-04-26T12:24:29.782Z</time></trkpt><trkpt lat="45.6925916" lon="11.0516285"><ele>1683.0</ele><time>2026-04-26T12:24:31.783Z</time></trkpt><trkpt lat="45.6925348" lon="11.0514968"><ele>1683.0</ele><time>2026-04-26T12:24:33.781Z</time></trkpt><trkpt lat="45.6924462" lon="11.0513942"><ele>1683.0</ele><time>2026-04-26T12:24:35.782Z</time></trkpt><trkpt lat="45.6923423" lon="11.051334"><ele>1683.0</ele><time>2026-04-26T12:24:37.781Z</time></trkpt><trkpt lat="45.6922136" lon="11.0513234"><ele>1681.6000000000001</ele><time>2026-04-26T12:24:39.782Z</time></trkpt><trkpt lat="45.6920958" lon="11.0513499"><ele>1680.2</ele><time>2026-04-26T12:24:41.781Z</time></trkpt><trkpt lat="45.6919906" lon="11.0514175"><ele>1678.8</ele><time>2026-04-26T12:24:43.782Z</time></trkpt><trkpt lat="45.6919003" lon="11.0515037"><ele>1677.4</ele><time>2026-04-26T12:24:45.781Z</time></trkpt><trkpt lat="45.6918438" lon="11.0515463"><ele>1676.0</ele><time>2026-04-26T12:24:46.782Z</time></trkpt><trkpt lat="45.6917723" lon="11.051571"><ele>1675.1666666666665</ele><time>2026-04-26T12:24:47.783Z</time></trkpt><trkpt lat="45.6916956" lon="11.051588"><ele>1674.3333333333333</ele><time>2026-04-26T12:24:48.783Z</time></trkpt><trkpt lat="45.6916112" lon="11.0515879"><ele>1673.5</ele><time>2026-04-26T12:24:49.783Z</time></trkpt><trkpt lat="45.6915279" lon="11.051579"><ele>1672.6666666666665</ele><time>2026-04-26T12:24:50.781Z</time></trkpt><trkpt lat="45.6914465" lon="11.0515673"><ele>1671.8333333333333</ele><time>2026-04-26T12:24:51.781Z</time></trkpt><trkpt lat="45.6913673" lon="11.0515544"><ele>1671.0</ele><time>2026-04-26T12:24:52.782Z</time></trkpt><trkpt lat="45.6912923" lon="11.0515386"><ele>1671.0</ele><time>2026-04-26T12:24:53.782Z</time></trkpt><trkpt lat="45.6912239" lon="11.051525"><ele>1671.0</ele><time>2026-04-26T12:24:54.782Z</time></trkpt><trkpt lat="45.6911583" lon="11.0515024"><ele>1671.0</ele><time>2026-04-26T12:24:55.782Z</time></trkpt><trkpt lat="45.6910924" lon="11.0514706"><ele>1671.0</ele><time>2026-04-26T12:24:56.782Z</time></trkpt><trkpt lat="45.6910107" lon="11.0514272"><ele>1671.0</ele><time>2026-04-26T12:24:57.78Z</time></trkpt><trkpt lat="45.6909306" lon="11.0513764"><ele>1671.0</ele><time>2026-04-26T12:24:58.782Z</time></trkpt><trkpt lat="45.6908505" lon="11.0513199"><ele>1670.8333333333333</ele><time>2026-04-26T12:24:59.782Z</time></trkpt><trkpt lat="45.6907678" lon="11.051266"><ele>1670.6666666666665</ele><time>2026-04-26T12:25:00.781Z</time></trkpt><trkpt lat="45.6906838" lon="11.051229"><ele>1670.5</ele><time>2026-04-26T12:25:01.782Z</time></trkpt><trkpt lat="45.6906016" lon="11.0512006"><ele>1670.3333333333333</ele><time>2026-04-26T12:25:02.782Z</time></trkpt><trkpt lat="45.6905221" lon="11.0511866"><ele>1670.1666666666665</ele><time>2026-04-26T12:25:03.781Z</time></trkpt><trkpt lat="45.6904438" lon="11.0511727"><ele>1670.0</ele><time>2026-04-26T12:25:04.782Z</time></trkpt><trkpt lat="45.6903626" lon="11.0511576"><ele>1669.9999999999998</ele><time>2026-04-26T12:25:05.781Z</time></trkpt><trkpt lat="45.6902913" lon="11.0511329"><ele>1670.0</ele><time>2026-04-26T12:25:06.782Z</time></trkpt><trkpt lat="45.690219" lon="11.0511072"><ele>1670.0</ele><time>2026-04-26T12:25:07.782Z</time></trkpt><trkpt lat="45.6901529" lon="11.0510657"><ele>1670.0</ele><time>2026-04-26T12:25:08.782Z</time></trkpt><trkpt lat="45.6900829" lon="11.0510145"><ele>1669.9999999999998</ele><time>2026-04-26T12:25:09.783Z</time></trkpt><trkpt lat="45.6900121" lon="11.0509603"><ele>1670.0</ele><time>2026-04-26T12:25:10.781Z</time></trkpt><trkpt lat="45.6899392" lon="11.050902"><ele>1670.1666666666665</ele><time>2026-04-26T12:25:11.783Z</time></trkpt><trkpt lat="45.6898533" lon="11.0508414"><ele>1670.3333333333333</ele><time>2026-04-26T12:25:12.781Z</time></trkpt><trkpt lat="45.6897704" lon="11.0507846"><ele>1670.5</ele><time>2026-04-26T12:25:13.782Z</time></trkpt><trkpt lat="45.689694" lon="11.0507322"><ele>1670.6666666666665</ele><time>2026-04-26T12:25:14.783Z</time></trkpt><trkpt lat="45.6896353" lon="11.0506862"><ele>1670.8333333333333</ele><time>2026-04-26T12:25:15.783Z</time></trkpt><trkpt lat="45.6895831" lon="11.0506355"><ele>1671.0</ele><time>2026-04-26T12:25:16.782Z</time></trkpt><trkpt lat="45.6895015" lon="11.0505413"><ele>1671.0</ele><time>2026-04-26T12:25:18.783Z</time></trkpt><trkpt lat="45.6894518" lon="11.0504328"><ele>1671.0</ele><time>2026-04-26T12:25:20.782Z</time></trkpt><trkpt lat="45.6894121" lon="11.0503253"><ele>1671.0</ele><time>2026-04-26T12:25:22.781Z</time></trkpt><trkpt lat="45.689365" lon="11.0502184"><ele>1671.0</ele><time>2026-04-26T12:25:24.782Z</time></trkpt><trkpt lat="45.6892893" lon="11.0501861"><ele>1671.0</ele><time>2026-04-26T12:25:26.783Z</time></trkpt><trkpt lat="45.6892232" lon="11.0502454"><ele>1671.0</ele><time>2026-04-26T12:25:28.782Z</time></trkpt><trkpt lat="45.6891948" lon="11.0503651"><ele>1670.0</ele><time>2026-04-26T12:25:30.783Z</time></trkpt><trkpt lat="45.6892111" lon="11.0505182"><ele>1669.0</ele><time>2026-04-26T12:25:32.781Z</time></trkpt><trkpt lat="45.6892669" lon="11.0506648"><ele>1668.0</ele><time>2026-04-26T12:25:34.782Z</time></trkpt><trkpt lat="45.6893399" lon="11.0507709"><ele>1667.0</ele><time>2026-04-26T12:25:36.783Z</time></trkpt><trkpt lat="45.6894341" lon="11.0508875"><ele>1666.9999999999998</ele><time>2026-04-26T12:25:38.782Z</time></trkpt><trkpt lat="45.6895255" lon="11.0510081"><ele>1667.0</ele><time>2026-04-26T12:25:40.782Z</time></trkpt><trkpt lat="45.6895761" lon="11.0510706"><ele>1667.0</ele><time>2026-04-26T12:25:41.782Z</time></trkpt><trkpt lat="45.689624" lon="11.0511327"><ele>1667.0</ele><time>2026-04-26T12:25:42.782Z</time></trkpt><trkpt lat="45.6896725" lon="11.0511977"><ele>1666.9999999999998</ele><time>2026-04-26T12:25:43.781Z</time></trkpt><trkpt lat="45.6897288" lon="11.0512653"><ele>1667.0</ele><time>2026-04-26T12:25:44.781Z</time></trkpt><trkpt lat="45.6897917" lon="11.0513302"><ele>1666.9999999999998</ele><time>2026-04-26T12:25:45.782Z</time></trkpt><trkpt lat="45.6898478" lon="11.0513904"><ele>1667.0</ele><time>2026-04-26T12:25:46.78Z</time></trkpt><trkpt lat="45.6899039" lon="11.0514466"><ele>1667.0</ele><time>2026-04-26T12:25:47.782Z</time></trkpt><trkpt lat="45.6899906" lon="11.0515357"><ele>1667.0</ele><time>2026-04-26T12:25:49.782Z</time></trkpt><trkpt lat="45.6900554" lon="11.0516212"><ele>1666.9999999999998</ele><time>2026-04-26T12:25:51.782Z</time></trkpt><trkpt lat="45.6901036" lon="11.0517377"><ele>1667.0</ele><time>2026-04-26T12:25:53.782Z</time></trkpt><trkpt lat="45.6901181" lon="11.0518912"><ele>1664.5</ele><time>2026-04-26T12:25:55.783Z</time></trkpt><trkpt lat="45.6900898" lon="11.052072"><ele>1662.0</ele><time>2026-04-26T12:25:57.78Z</time></trkpt><trkpt lat="45.6900521" lon="11.0522214"><ele>1659.5</ele><time>2026-04-26T12:25:59.781Z</time></trkpt><trkpt lat="45.689999" lon="11.0523326"><ele>1657.0</ele><time>2026-04-26T12:26:01.782Z</time></trkpt><trkpt lat="45.6898997" lon="11.052429"><ele>1656.8333333333335</ele><time>2026-04-26T12:26:03.782Z</time></trkpt><trkpt lat="45.6898327" lon="11.0524564"><ele>1656.6666666666667</ele><time>2026-04-26T12:26:04.783Z</time></trkpt><trkpt lat="45.6897552" lon="11.0524711"><ele>1656.5</ele><time>2026-04-26T12:26:05.782Z</time></trkpt><trkpt lat="45.6896672" lon="11.0524808"><ele>1656.3333333333335</ele><time>2026-04-26T12:26:06.782Z</time></trkpt><trkpt lat="45.6895684" lon="11.0524902"><ele>1656.1666666666667</ele><time>2026-04-26T12:26:07.783Z</time></trkpt><trkpt lat="45.6894774" lon="11.0524878"><ele>1656.0</ele><time>2026-04-26T12:26:08.781Z</time></trkpt><trkpt lat="45.6893886" lon="11.052479"><ele>1654.1666666666667</ele><time>2026-04-26T12:26:09.782Z</time></trkpt><trkpt lat="45.6892978" lon="11.0524758"><ele>1652.3333333333335</ele><time>2026-04-26T12:26:10.781Z</time></trkpt><trkpt lat="45.6892103" lon="11.0524729"><ele>1650.5</ele><time>2026-04-26T12:26:11.782Z</time></trkpt><trkpt lat="45.68912" lon="11.0524798"><ele>1648.6666666666667</ele><time>2026-04-26T12:26:12.782Z</time></trkpt><trkpt lat="45.6890365" lon="11.0524846"><ele>1646.8333333333335</ele><time>2026-04-26T12:26:13.783Z</time></trkpt><trkpt lat="45.6889618" lon="11.0524893"><ele>1645.0</ele><time>2026-04-26T12:26:14.783Z</time></trkpt><trkpt lat="45.6888893" lon="11.0525011"><ele>1645.0</ele><time>2026-04-26T12:26:15.781Z</time></trkpt><trkpt lat="45.6888188" lon="11.0525284"><ele>1645.0</ele><time>2026-04-26T12:26:16.78Z</time></trkpt><trkpt lat="45.6887476" lon="11.0525664"><ele>1645.0</ele><time>2026-04-26T12:26:17.781Z</time></trkpt><trkpt lat="45.688674" lon="11.0526135"><ele>1645.0</ele><time>2026-04-26T12:26:18.782Z</time></trkpt><trkpt lat="45.6886087" lon="11.0526678"><ele>1645.0</ele><time>2026-04-26T12:26:19.783Z</time></trkpt><trkpt lat="45.688547" lon="11.0527177"><ele>1645.0</ele><time>2026-04-26T12:26:20.783Z</time></trkpt><trkpt lat="45.6884863" lon="11.0527732"><ele>1645.0</ele><time>2026-04-26T12:26:21.782Z</time></trkpt><trkpt lat="45.6883979" lon="11.0528421"><ele>1645.5000000000002</ele><time>2026-04-26T12:26:23.782Z</time></trkpt><trkpt lat="45.6882995" lon="11.0529184"><ele>1646.0</ele><time>2026-04-26T12:26:25.781Z</time></trkpt><trkpt lat="45.6882476" lon="11.0529881"><ele>1646.5</ele><time>2026-04-26T12:26:26.782Z</time></trkpt><trkpt lat="45.6881965" lon="11.0530699"><ele>1647.0</ele><time>2026-04-26T12:26:27.783Z</time></trkpt><trkpt lat="45.6881577" lon="11.0531492"><ele>1647.5000000000002</ele><time>2026-04-26T12:26:28.782Z</time></trkpt><trkpt lat="45.6881285" lon="11.0532366"><ele>1648.0</ele><time>2026-04-26T12:26:29.781Z</time></trkpt><trkpt lat="45.6881148" lon="11.0533304"><ele>1648.0000000000002</ele><time>2026-04-26T12:26:30.782Z</time></trkpt><trkpt lat="45.688109" lon="11.0534314"><ele>1648.0</ele><time>2026-04-26T12:26:31.782Z</time></trkpt><trkpt lat="45.688102" lon="11.0535488"><ele>1648.0</ele><time>2026-04-26T12:26:32.783Z</time></trkpt><trkpt lat="45.6880891" lon="11.0536681"><ele>1648.0</ele><time>2026-04-26T12:26:33.782Z</time></trkpt><trkpt lat="45.6880659" lon="11.0538007"><ele>1648.0000000000002</ele><time>2026-04-26T12:26:34.782Z</time></trkpt><trkpt lat="45.6880368" lon="11.0539147"><ele>1648.0</ele><time>2026-04-26T12:26:35.781Z</time></trkpt><trkpt lat="45.6879957" lon="11.0540118"><ele>1647.9999999999998</ele><time>2026-04-26T12:26:36.783Z</time></trkpt><trkpt lat="45.6879511" lon="11.0540897"><ele>1648.0</ele><time>2026-04-26T12:26:37.782Z</time></trkpt><trkpt lat="45.6879018" lon="11.0541611"><ele>1648.0</ele><time>2026-04-26T12:26:38.782Z</time></trkpt><trkpt lat="45.687839" lon="11.0542306"><ele>1648.0</ele><time>2026-04-26T12:26:39.782Z</time></trkpt><trkpt lat="45.6877801" lon="11.0542936"><ele>1648.0</ele><time>2026-04-26T12:26:40.782Z</time></trkpt><trkpt lat="45.6877163" lon="11.0543557"><ele>1647.9999999999998</ele><time>2026-04-26T12:26:41.783Z</time></trkpt><trkpt lat="45.6876587" lon="11.0544135"><ele>1648.0</ele><time>2026-04-26T12:26:42.783Z</time></trkpt><trkpt lat="45.6875991" lon="11.0544858"><ele>1647.8333333333335</ele><time>2026-04-26T12:26:43.782Z</time></trkpt><trkpt lat="45.6875496" lon="11.0545566"><ele>1647.6666666666667</ele><time>2026-04-26T12:26:44.782Z</time></trkpt><trkpt lat="45.6875012" lon="11.0546421"><ele>1647.5</ele><time>2026-04-26T12:26:45.78Z</time></trkpt><trkpt lat="45.6874565" lon="11.0547298"><ele>1647.3333333333335</ele><time>2026-04-26T12:26:46.783Z</time></trkpt><trkpt lat="45.6874124" lon="11.0548272"><ele>1647.1666666666667</ele><time>2026-04-26T12:26:47.783Z</time></trkpt><trkpt lat="45.6873637" lon="11.0549117"><ele>1647.0</ele><time>2026-04-26T12:26:48.78Z</time></trkpt><trkpt lat="45.6873226" lon="11.0550003"><ele>1647.0</ele><time>2026-04-26T12:26:49.782Z</time></trkpt><trkpt lat="45.6872808" lon="11.0551042"><ele>1647.0</ele><time>2026-04-26T12:26:50.782Z</time></trkpt><trkpt lat="45.6872484" lon="11.0552032"><ele>1647.0</ele><time>2026-04-26T12:26:51.782Z</time></trkpt><trkpt lat="45.6872125" lon="11.0553039"><ele>1647.0</ele><time>2026-04-26T12:26:52.781Z</time></trkpt><trkpt lat="45.6871819" lon="11.0554082"><ele>1647.0</ele><time>2026-04-26T12:26:53.783Z</time></trkpt><trkpt lat="45.6871531" lon="11.0554985"><ele>1647.0</ele><time>2026-04-26T12:26:54.781Z</time></trkpt><trkpt lat="45.6870775" lon="11.0556131"><ele>1647.0</ele><time>2026-04-26T12:26:56.782Z</time></trkpt><trkpt lat="45.6869572" lon="11.0556557"><ele>1647.0</ele><time>2026-04-26T12:26:58.782Z</time></trkpt><trkpt lat="45.6868512" lon="11.0557313"><ele>1647.0</ele><time>2026-04-26T12:27:00.781Z</time></trkpt><trkpt lat="45.6867928" lon="11.0557919"><ele>1647.0</ele><time>2026-04-26T12:27:01.781Z</time></trkpt><trkpt lat="45.6867347" lon="11.0558462"><ele>1647.0</ele><time>2026-04-26T12:27:02.781Z</time></trkpt><trkpt lat="45.6866296" lon="11.0559116"><ele>1646.3999999999999</ele><time>2026-04-26T12:27:04.782Z</time></trkpt><trkpt lat="45.6865053" lon="11.0559048"><ele>1645.8</ele><time>2026-04-26T12:27:06.782Z</time></trkpt><trkpt lat="45.6863954" lon="11.0559474"><ele>1645.2</ele><time>2026-04-26T12:27:08.782Z</time></trkpt><trkpt lat="45.6863436" lon="11.0559996"><ele>1644.6</ele><time>2026-04-26T12:27:09.781Z</time></trkpt><trkpt lat="45.6862999" lon="11.0560729"><ele>1644.0</ele><time>2026-04-26T12:27:10.782Z</time></trkpt><trkpt lat="45.6862493" lon="11.056174"><ele>1644.0</ele><time>2026-04-26T12:27:11.782Z</time></trkpt><trkpt lat="45.6862075" lon="11.0562722"><ele>1644.0</ele><time>2026-04-26T12:27:12.782Z</time></trkpt><trkpt lat="45.6861833" lon="11.0563686"><ele>1644.0</ele><time>2026-04-26T12:27:13.782Z</time></trkpt><trkpt lat="45.6861667" lon="11.0564758"><ele>1644.0</ele><time>2026-04-26T12:27:14.782Z</time></trkpt><trkpt lat="45.6861521" lon="11.0565897"><ele>1644.0</ele><time>2026-04-26T12:27:15.782Z</time></trkpt><trkpt lat="45.6861492" lon="11.0567103"><ele>1644.0</ele><time>2026-04-26T12:27:16.782Z</time></trkpt><trkpt lat="45.6861491" lon="11.05682"><ele>1645.0</ele><time>2026-04-26T12:27:17.782Z</time></trkpt><trkpt lat="45.6861543" lon="11.0569527"><ele>1646.0</ele><time>2026-04-26T12:27:18.782Z</time></trkpt><trkpt lat="45.6861651" lon="11.0570735"><ele>1647.0</ele><time>2026-04-26T12:27:19.782Z</time></trkpt><trkpt lat="45.6861806" lon="11.0571725"><ele>1648.0</ele><time>2026-04-26T12:27:20.781Z</time></trkpt><trkpt lat="45.6861958" lon="11.0572662"><ele>1649.0</ele><time>2026-04-26T12:27:21.781Z</time></trkpt><trkpt lat="45.6862121" lon="11.0573766"><ele>1650.0</ele><time>2026-04-26T12:27:22.781Z</time></trkpt><trkpt lat="45.6862334" lon="11.0574764"><ele>1650.4</ele><time>2026-04-26T12:27:23.783Z</time></trkpt><trkpt lat="45.6862921" lon="11.0576299"><ele>1650.8</ele><time>2026-04-26T12:27:25.782Z</time></trkpt><trkpt lat="45.686327" lon="11.0577186"><ele>1651.1999999999998</ele><time>2026-04-26T12:27:26.782Z</time></trkpt><trkpt lat="45.6863974" lon="11.057864"><ele>1651.6</ele><time>2026-04-26T12:27:28.782Z</time></trkpt><trkpt lat="45.6864448" lon="11.0580005"><ele>1652.0</ele><time>2026-04-26T12:27:30.783Z</time></trkpt><trkpt lat="45.6864448" lon="11.058111"><ele>1651.9999999999998</ele><time>2026-04-26T12:27:32.781Z</time></trkpt><trkpt lat="45.686379" lon="11.0581892"><ele>1652.0</ele><time>2026-04-26T12:27:34.783Z</time></trkpt><trkpt lat="45.6863167" lon="11.0582193"><ele>1652.0</ele><time>2026-04-26T12:27:35.78Z</time></trkpt><trkpt lat="45.6862423" lon="11.0582342"><ele>1652.0</ele><time>2026-04-26T12:27:36.781Z</time></trkpt><trkpt lat="45.6861571" lon="11.0582405"><ele>1651.9999999999998</ele><time>2026-04-26T12:27:37.782Z</time></trkpt><trkpt lat="45.6860624" lon="11.0582273"><ele>1652.0</ele><time>2026-04-26T12:27:38.783Z</time></trkpt><trkpt lat="45.6859696" lon="11.0582204"><ele>1648.6666666666665</ele><time>2026-04-26T12:27:39.782Z</time></trkpt><trkpt lat="45.6858861" lon="11.0582096"><ele>1645.3333333333333</ele><time>2026-04-26T12:27:40.783Z</time></trkpt><trkpt lat="45.6858075" lon="11.0582165"><ele>1642.0</ele><time>2026-04-26T12:27:41.782Z</time></trkpt><trkpt lat="45.6857379" lon="11.0582247"><ele>1638.6666666666665</ele><time>2026-04-26T12:27:42.781Z</time></trkpt><trkpt lat="45.6856659" lon="11.0582212"><ele>1635.3333333333333</ele><time>2026-04-26T12:27:43.782Z</time></trkpt><trkpt lat="45.6855967" lon="11.0582065"><ele>1632.0</ele><time>2026-04-26T12:27:44.783Z</time></trkpt><trkpt lat="45.6855194" lon="11.0581844"><ele>1632.0</ele><time>2026-04-26T12:27:45.781Z</time></trkpt><trkpt lat="45.6854557" lon="11.0581567"><ele>1632.0</ele><time>2026-04-26T12:27:46.781Z</time></trkpt><trkpt lat="45.6853498" lon="11.0581348"><ele>1632.0</ele><time>2026-04-26T12:27:48.781Z</time></trkpt><trkpt lat="45.6852436" lon="11.0581731"><ele>1632.0</ele><time>2026-04-26T12:27:50.782Z</time></trkpt><trkpt lat="45.6851441" lon="11.0582649"><ele>1632.0</ele><time>2026-04-26T12:27:52.782Z</time></trkpt><trkpt lat="45.6850937" lon="11.0583332"><ele>1632.1666666666667</ele><time>2026-04-26T12:27:53.782Z</time></trkpt><trkpt lat="45.6850455" lon="11.0584131"><ele>1632.3333333333335</ele><time>2026-04-26T12:27:54.781Z</time></trkpt><trkpt lat="45.6849912" lon="11.0585032"><ele>1632.5</ele><time>2026-04-26T12:27:55.782Z</time></trkpt><trkpt lat="45.6849408" lon="11.0585949"><ele>1632.6666666666667</ele><time>2026-04-26T12:27:56.782Z</time></trkpt><trkpt lat="45.6848909" lon="11.058684"><ele>1632.8333333333335</ele><time>2026-04-26T12:27:57.782Z</time></trkpt><trkpt lat="45.6848438" lon="11.0587615"><ele>1633.0</ele><time>2026-04-26T12:27:58.782Z</time></trkpt><trkpt lat="45.6847927" lon="11.0588432"><ele>1633.0000000000002</ele><time>2026-04-26T12:27:59.782Z</time></trkpt><trkpt lat="45.6847369" lon="11.0589195"><ele>1633.0</ele><time>2026-04-26T12:28:00.781Z</time></trkpt><trkpt lat="45.6846764" lon="11.0589853"><ele>1633.0</ele><time>2026-04-26T12:28:01.782Z</time></trkpt><trkpt lat="45.6846062" lon="11.0590354"><ele>1633.0</ele><time>2026-04-26T12:28:02.782Z</time></trkpt><trkpt lat="45.6845328" lon="11.0590763"><ele>1633.0000000000002</ele><time>2026-04-26T12:28:03.782Z</time></trkpt><trkpt lat="45.6844495" lon="11.0591057"><ele>1633.0</ele><time>2026-04-26T12:28:04.782Z</time></trkpt><trkpt lat="45.6843715" lon="11.0591266"><ele>1632.8000000000002</ele><time>2026-04-26T12:28:05.782Z</time></trkpt><trkpt lat="45.6843093" lon="11.0591499"><ele>1632.6</ele><time>2026-04-26T12:28:06.782Z</time></trkpt><trkpt lat="45.6842246" lon="11.0592129"><ele>1632.4</ele><time>2026-04-26T12:28:08.783Z</time></trkpt><trkpt lat="45.6841587" lon="11.0593059"><ele>1632.1999999999998</ele><time>2026-04-26T12:28:10.782Z</time></trkpt><trkpt lat="45.6840975" lon="11.0594441"><ele>1632.0</ele><time>2026-04-26T12:28:12.782Z</time></trkpt><trkpt lat="45.6840779" lon="11.0595956"><ele>1632.0</ele><time>2026-04-26T12:28:14.782Z</time></trkpt><trkpt lat="45.6841023" lon="11.0597532"><ele>1632.0</ele><time>2026-04-26T12:28:16.782Z</time></trkpt><trkpt lat="45.6841452" lon="11.0599171"><ele>1632.0</ele><time>2026-04-26T12:28:18.78Z</time></trkpt><trkpt lat="45.6841844" lon="11.0600713"><ele>1632.0</ele><time>2026-04-26T12:28:20.78Z</time></trkpt><trkpt lat="45.6842097" lon="11.0602225"><ele>1632.0</ele><time>2026-04-26T12:28:22.781Z</time></trkpt><trkpt lat="45.6841889" lon="11.060362"><ele>1632.0</ele><time>2026-04-26T12:28:24.783Z</time></trkpt><trkpt lat="45.6841201" lon="11.0605154"><ele>1632.0</ele><time>2026-04-26T12:28:26.783Z</time></trkpt><trkpt lat="45.6840771" lon="11.0605957"><ele>1632.0</ele><time>2026-04-26T12:28:27.781Z</time></trkpt><trkpt lat="45.6840344" lon="11.060672"><ele>1632.0</ele><time>2026-04-26T12:28:28.782Z</time></trkpt><trkpt lat="45.6839978" lon="11.0607506"><ele>1632.0</ele><time>2026-04-26T12:28:29.782Z</time></trkpt><trkpt lat="45.6839379" lon="11.060917"><ele>1632.0</ele><time>2026-04-26T12:28:31.782Z</time></trkpt><trkpt lat="45.6839138" lon="11.0610208"><ele>1632.0</ele><time>2026-04-26T12:28:32.782Z</time></trkpt><trkpt lat="45.6838911" lon="11.0611339"><ele>1632.0</ele><time>2026-04-26T12:28:33.781Z</time></trkpt><trkpt lat="45.6838803" lon="11.0612369"><ele>1632.0</ele><time>2026-04-26T12:28:34.782Z</time></trkpt><trkpt lat="45.6838702" lon="11.0613429"><ele>1632.0</ele><time>2026-04-26T12:28:35.783Z</time></trkpt><trkpt lat="45.6838609" lon="11.0614416"><ele>1632.0</ele><time>2026-04-26T12:28:36.782Z</time></trkpt><trkpt lat="45.6838619" lon="11.061555"><ele>1631.6666666666667</ele><time>2026-04-26T12:28:37.782Z</time></trkpt><trkpt lat="45.683863" lon="11.0616599"><ele>1631.3333333333335</ele><time>2026-04-26T12:28:38.782Z</time></trkpt><trkpt lat="45.6838708" lon="11.0617629"><ele>1631.0</ele><time>2026-04-26T12:28:39.783Z</time></trkpt><trkpt lat="45.6838807" lon="11.061865"><ele>1630.6666666666667</ele><time>2026-04-26T12:28:40.782Z</time></trkpt><trkpt lat="45.6838937" lon="11.0619567"><ele>1630.3333333333335</ele><time>2026-04-26T12:28:41.783Z</time></trkpt><trkpt lat="45.6839081" lon="11.0620517"><ele>1630.0</ele><time>2026-04-26T12:28:42.782Z</time></trkpt><trkpt lat="45.6839276" lon="11.0622165"><ele>1630.0</ele><time>2026-04-26T12:28:44.781Z</time></trkpt><trkpt lat="45.6839088" lon="11.0623815"><ele>1630.0</ele><time>2026-04-26T12:28:46.781Z</time></trkpt><trkpt lat="45.6838288" lon="11.0625153"><ele>1630.0</ele><time>2026-04-26T12:28:48.781Z</time></trkpt><trkpt lat="45.6837744" lon="11.0625712"><ele>1630.0</ele><time>2026-04-26T12:28:49.782Z</time></trkpt><trkpt lat="45.6837199" lon="11.0626278"><ele>1630.0</ele><time>2026-04-26T12:28:50.782Z</time></trkpt><trkpt lat="45.6836559" lon="11.0626948"><ele>1629.8333333333335</ele><time>2026-04-26T12:28:51.782Z</time></trkpt><trkpt lat="45.6836009" lon="11.0627611"><ele>1629.6666666666667</ele><time>2026-04-26T12:28:52.78Z</time></trkpt><trkpt lat="45.6835475" lon="11.0628315"><ele>1629.5</ele><time>2026-04-26T12:28:53.782Z</time></trkpt><trkpt lat="45.6834822" lon="11.0629212"><ele>1629.3333333333335</ele><time>2026-04-26T12:28:54.781Z</time></trkpt><trkpt lat="45.6834203" lon="11.0630155"><ele>1629.1666666666667</ele><time>2026-04-26T12:28:55.781Z</time></trkpt><trkpt lat="45.6833667" lon="11.0631065"><ele>1629.0</ele><time>2026-04-26T12:28:56.781Z</time></trkpt><trkpt lat="45.6833189" lon="11.0631917"><ele>1626.8333333333333</ele><time>2026-04-26T12:28:57.782Z</time></trkpt><trkpt lat="45.6832781" lon="11.0632738"><ele>1624.6666666666665</ele><time>2026-04-26T12:28:58.782Z</time></trkpt><trkpt lat="45.6832356" lon="11.0633617"><ele>1622.5</ele><time>2026-04-26T12:28:59.78Z</time></trkpt><trkpt lat="45.6831984" lon="11.0634531"><ele>1620.3333333333333</ele><time>2026-04-26T12:29:00.783Z</time></trkpt><trkpt lat="45.6831511" lon="11.0635418"><ele>1618.1666666666665</ele><time>2026-04-26T12:29:01.782Z</time></trkpt><trkpt lat="45.6831074" lon="11.0636303"><ele>1616.0</ele><time>2026-04-26T12:29:02.783Z</time></trkpt><trkpt lat="45.6830615" lon="11.06372"><ele>1615.9999999999998</ele><time>2026-04-26T12:29:03.783Z</time></trkpt><trkpt lat="45.6830043" lon="11.0637918"><ele>1616.0</ele><time>2026-04-26T12:29:04.782Z</time></trkpt><trkpt lat="45.6829393" lon="11.0638527"><ele>1616.0</ele><time>2026-04-26T12:29:05.781Z</time></trkpt><trkpt lat="45.6828721" lon="11.063909"><ele>1616.0</ele><time>2026-04-26T12:29:06.782Z</time></trkpt><trkpt lat="45.6828006" lon="11.0639685"><ele>1615.9999999999998</ele><time>2026-04-26T12:29:07.783Z</time></trkpt><trkpt lat="45.6827355" lon="11.0640298"><ele>1616.0</ele><time>2026-04-26T12:29:08.783Z</time></trkpt><trkpt lat="45.682672" lon="11.064095"><ele>1613.6666666666665</ele><time>2026-04-26T12:29:09.783Z</time></trkpt><trkpt lat="45.6826136" lon="11.064173"><ele>1611.3333333333333</ele><time>2026-04-26T12:29:10.781Z</time></trkpt><trkpt lat="45.6825693" lon="11.0642429"><ele>1609.0</ele><time>2026-04-26T12:29:11.782Z</time></trkpt><trkpt lat="45.6825315" lon="11.0643245"><ele>1606.6666666666665</ele><time>2026-04-26T12:29:12.781Z</time></trkpt><trkpt lat="45.6824864" lon="11.0644258"><ele>1604.3333333333333</ele><time>2026-04-26T12:29:13.782Z</time></trkpt><trkpt lat="45.682443" lon="11.0645305"><ele>1602.0</ele><time>2026-04-26T12:29:14.783Z</time></trkpt><trkpt lat="45.6823989" lon="11.0646442"><ele>1602.0</ele><time>2026-04-26T12:29:15.782Z</time></trkpt><trkpt lat="45.6823558" lon="11.0647496"><ele>1602.0</ele><time>2026-04-26T12:29:16.783Z</time></trkpt><trkpt lat="45.6823149" lon="11.0648426"><ele>1602.0</ele><time>2026-04-26T12:29:17.783Z</time></trkpt><trkpt lat="45.6822704" lon="11.0649406"><ele>1602.0</ele><time>2026-04-26T12:29:18.781Z</time></trkpt><trkpt lat="45.6822213" lon="11.0650349"><ele>1602.0</ele><time>2026-04-26T12:29:19.783Z</time></trkpt><trkpt lat="45.6821733" lon="11.0651285"><ele>1602.0</ele><time>2026-04-26T12:29:20.783Z</time></trkpt><trkpt lat="45.682127" lon="11.0652209"><ele>1603.6666666666667</ele><time>2026-04-26T12:29:21.782Z</time></trkpt><trkpt lat="45.6820807" lon="11.0653181"><ele>1605.3333333333335</ele><time>2026-04-26T12:29:22.781Z</time></trkpt><trkpt lat="45.6820371" lon="11.0654149"><ele>1607.0</ele><time>2026-04-26T12:29:23.783Z</time></trkpt><trkpt lat="45.6819951" lon="11.0655159"><ele>1608.6666666666667</ele><time>2026-04-26T12:29:24.781Z</time></trkpt><trkpt lat="45.6819537" lon="11.0656231"><ele>1610.3333333333335</ele><time>2026-04-26T12:29:25.781Z</time></trkpt><trkpt lat="45.6819058" lon="11.0657441"><ele>1612.0</ele><time>2026-04-26T12:29:26.781Z</time></trkpt><trkpt lat="45.681857" lon="11.0658757"><ele>1607.8</ele><time>2026-04-26T12:29:27.781Z</time></trkpt><trkpt lat="45.6818054" lon="11.0660086"><ele>1603.6</ele><time>2026-04-26T12:29:28.781Z</time></trkpt><trkpt lat="45.6817541" lon="11.0661348"><ele>1599.3999999999999</ele><time>2026-04-26T12:29:29.782Z</time></trkpt><trkpt lat="45.681705" lon="11.0662607"><ele>1595.1999999999998</ele><time>2026-04-26T12:29:30.782Z</time></trkpt><trkpt lat="45.6816619" lon="11.0663803"><ele>1591.0</ele><time>2026-04-26T12:29:31.782Z</time></trkpt><trkpt lat="45.681619" lon="11.0664894"><ele>1591.0000000000002</ele><time>2026-04-26T12:29:32.783Z</time></trkpt><trkpt lat="45.6815766" lon="11.0666009"><ele>1591.0</ele><time>2026-04-26T12:29:33.782Z</time></trkpt><trkpt lat="45.681535" lon="11.0667115"><ele>1591.0</ele><time>2026-04-26T12:29:34.782Z</time></trkpt><trkpt lat="45.681504" lon="11.0668102"><ele>1591.0</ele><time>2026-04-26T12:29:35.782Z</time></trkpt><trkpt lat="45.6814714" lon="11.0669089"><ele>1591.0000000000002</ele><time>2026-04-26T12:29:36.781Z</time></trkpt><trkpt lat="45.6814417" lon="11.0670081"><ele>1591.0</ele><time>2026-04-26T12:29:37.782Z</time></trkpt><trkpt lat="45.6814174" lon="11.0670962"><ele>1591.0</ele><time>2026-04-26T12:29:38.783Z</time></trkpt><trkpt lat="45.6813925" lon="11.0671864"><ele>1591.0</ele><time>2026-04-26T12:29:39.783Z</time></trkpt><trkpt lat="45.6813667" lon="11.0672715"><ele>1591.0</ele><time>2026-04-26T12:29:40.782Z</time></trkpt><trkpt lat="45.6813329" lon="11.0673513"><ele>1591.0</ele><time>2026-04-26T12:29:41.781Z</time></trkpt><trkpt lat="45.6812905" lon="11.0674341"><ele>1591.0</ele><time>2026-04-26T12:29:42.781Z</time></trkpt><trkpt lat="45.6812375" lon="11.0675256"><ele>1591.0</ele><time>2026-04-26T12:29:43.782Z</time></trkpt><trkpt lat="45.6811843" lon="11.067611"><ele>1591.0</ele><time>2026-04-26T12:29:44.782Z</time></trkpt><trkpt lat="45.6811378" lon="11.067688"><ele>1590.857142857143</ele><time>2026-04-26T12:29:45.782Z</time></trkpt><trkpt lat="45.6810912" lon="11.067766"><ele>1590.7142857142856</ele><time>2026-04-26T12:29:46.781Z</time></trkpt><trkpt lat="45.6810563" lon="11.0678641"><ele>1590.5714285714284</ele><time>2026-04-26T12:29:47.782Z</time></trkpt><trkpt lat="45.681044" lon="11.0679604"><ele>1590.4285714285716</ele><time>2026-04-26T12:29:48.782Z</time></trkpt><trkpt lat="45.6810373" lon="11.0680514"><ele>1590.2857142857142</ele><time>2026-04-26T12:29:49.782Z</time></trkpt><trkpt lat="45.681022" lon="11.06815"><ele>1590.142857142857</ele><time>2026-04-26T12:29:50.781Z</time></trkpt><trkpt lat="45.6810058" lon="11.0682454"><ele>1590.0</ele><time>2026-04-26T12:29:51.782Z</time></trkpt><trkpt lat="45.6809797" lon="11.0683428"><ele>1590.0</ele><time>2026-04-26T12:29:52.781Z</time></trkpt><trkpt lat="45.6809504" lon="11.0684452"><ele>1590.0</ele><time>2026-04-26T12:29:53.782Z</time></trkpt><trkpt lat="45.6809173" lon="11.0685394"><ele>1590.0</ele><time>2026-04-26T12:29:54.783Z</time></trkpt><trkpt lat="45.6808858" lon="11.0686263"><ele>1590.0</ele><time>2026-04-26T12:29:55.783Z</time></trkpt><trkpt lat="45.6808255" lon="11.0687794"><ele>1590.0</ele><time>2026-04-26T12:29:57.781Z</time></trkpt><trkpt lat="45.6807942" lon="11.0688667"><ele>1590.0</ele><time>2026-04-26T12:29:58.782Z</time></trkpt><trkpt lat="45.6807468" lon="11.0689671"><ele>1590.0</ele><time>2026-04-26T12:29:59.782Z</time></trkpt><trkpt lat="45.6807052" lon="11.0690547"><ele>1590.0</ele><time>2026-04-26T12:30:00.782Z</time></trkpt><trkpt lat="45.6806325" lon="11.0691866"><ele>1590.0</ele><time>2026-04-26T12:30:02.782Z</time></trkpt><trkpt lat="45.6805449" lon="11.0693064"><ele>1590.0</ele><time>2026-04-26T12:30:04.782Z</time></trkpt><trkpt lat="45.6804944" lon="11.0693647"><ele>1590.0</ele><time>2026-04-26T12:30:05.783Z</time></trkpt><trkpt lat="45.6804232" lon="11.0694464"><ele>1588.3333333333333</ele><time>2026-04-26T12:30:07.783Z</time></trkpt><trkpt lat="45.6803804" lon="11.0695342"><ele>1586.6666666666665</ele><time>2026-04-26T12:30:11.782Z</time></trkpt><trkpt lat="45.6803887" lon="11.0696348"><ele>1585.0</ele><time>2026-04-26T12:30:16.783Z</time></trkpt><trkpt lat="45.6804497" lon="11.0696617"><ele>1583.3333333333333</ele><time>2026-04-26T12:30:22.781Z</time></trkpt><trkpt lat="45.6804998" lon="11.0695759"><ele>1581.6666666666665</ele><time>2026-04-26T12:33:57.781Z</time></trkpt><trkpt lat="45.6805559" lon="11.0695162"><ele>1580.0</ele><time>2026-04-26T12:33:59.781Z</time></trkpt><trkpt lat="45.6806448" lon="11.0694338"><ele>1579.9999999999998</ele><time>2026-04-26T12:34:01.781Z</time></trkpt><trkpt lat="45.680705" lon="11.0693755"><ele>1580.0</ele><time>2026-04-26T12:34:02.782Z</time></trkpt><trkpt lat="45.6807671" lon="11.0693106"><ele>1580.0</ele><time>2026-04-26T12:34:03.782Z</time></trkpt><trkpt lat="45.6808333" lon="11.0692478"><ele>1580.0</ele><time>2026-04-26T12:34:04.782Z</time></trkpt><trkpt lat="45.6808982" lon="11.0691841"><ele>1579.9999999999998</ele><time>2026-04-26T12:34:05.781Z</time></trkpt><trkpt lat="45.6809673" lon="11.069118"><ele>1580.0</ele><time>2026-04-26T12:34:06.783Z</time></trkpt><trkpt lat="45.6810431" lon="11.0690655"><ele>1580.1666666666665</ele><time>2026-04-26T12:34:07.782Z</time></trkpt><trkpt lat="45.6811187" lon="11.0690406"><ele>1580.3333333333333</ele><time>2026-04-26T12:34:08.781Z</time></trkpt><trkpt lat="45.6811979" lon="11.0690454"><ele>1580.5</ele><time>2026-04-26T12:34:09.783Z</time></trkpt><trkpt lat="45.6812728" lon="11.0690792"><ele>1580.6666666666665</ele><time>2026-04-26T12:34:10.781Z</time></trkpt><trkpt lat="45.6813408" lon="11.069139"><ele>1580.8333333333333</ele><time>2026-04-26T12:34:11.783Z</time></trkpt><trkpt lat="45.6813973" lon="11.0692317"><ele>1581.0</ele><time>2026-04-26T12:34:12.783Z</time></trkpt><trkpt lat="45.6814398" lon="11.0693584"><ele>1581.0</ele><time>2026-04-26T12:34:13.782Z</time></trkpt><trkpt lat="45.6814649" lon="11.0695182"><ele>1581.0</ele><time>2026-04-26T12:34:14.782Z</time></trkpt><trkpt lat="45.6814738" lon="11.0696949"><ele>1581.0</ele><time>2026-04-26T12:34:15.782Z</time></trkpt><trkpt lat="45.6814727" lon="11.0698957"><ele>1581.0</ele><time>2026-04-26T12:34:16.783Z</time></trkpt><trkpt lat="45.681468" lon="11.0701102"><ele>1580.0</ele><time>2026-04-26T12:34:17.782Z</time></trkpt><trkpt lat="45.6814633" lon="11.0703483"><ele>1579.0</ele><time>2026-04-26T12:34:18.782Z</time></trkpt><trkpt lat="45.6814619" lon="11.0706127"><ele>1578.0</ele><time>2026-04-26T12:34:19.782Z</time></trkpt><trkpt lat="45.6814609" lon="11.0708715"><ele>1577.0</ele><time>2026-04-26T12:34:20.782Z</time></trkpt><trkpt lat="45.6814622" lon="11.071112"><ele>1576.0</ele><time>2026-04-26T12:34:21.783Z</time></trkpt><trkpt lat="45.6814629" lon="11.0713482"><ele>1575.0</ele><time>2026-04-26T12:34:22.781Z</time></trkpt><trkpt lat="45.6814624" lon="11.071572"><ele>1574.25</ele><time>2026-04-26T12:34:23.782Z</time></trkpt><trkpt lat="45.6814636" lon="11.0717789"><ele>1573.5</ele><time>2026-04-26T12:34:24.782Z</time></trkpt><trkpt lat="45.6814706" lon="11.07198"><ele>1572.75</ele><time>2026-04-26T12:34:25.783Z</time></trkpt><trkpt lat="45.6814896" lon="11.0721738"><ele>1572.0</ele><time>2026-04-26T12:34:26.782Z</time></trkpt><trkpt lat="45.6815176" lon="11.0723579"><ele>1569.25</ele><time>2026-04-26T12:34:27.783Z</time></trkpt><trkpt lat="45.6815596" lon="11.0725285"><ele>1566.5</ele><time>2026-04-26T12:34:28.782Z</time></trkpt><trkpt lat="45.6816219" lon="11.0726796"><ele>1563.75</ele><time>2026-04-26T12:34:29.781Z</time></trkpt><trkpt lat="45.6817059" lon="11.0728212"><ele>1561.0</ele><time>2026-04-26T12:34:30.782Z</time></trkpt><trkpt lat="45.6818239" lon="11.0729542"><ele>1563.3333333333335</ele><time>2026-04-26T12:34:31.783Z</time></trkpt><trkpt lat="45.6819721" lon="11.0730845"><ele>1565.6666666666665</ele><time>2026-04-26T12:34:32.781Z</time></trkpt><trkpt lat="45.6821312" lon="11.0732041"><ele>1568.0</ele><time>2026-04-26T12:34:33.782Z</time></trkpt><trkpt lat="45.682296" lon="11.0733214"><ele>1562.3333333333333</ele><time>2026-04-26T12:34:34.782Z</time></trkpt><trkpt lat="45.6824532" lon="11.0734405"><ele>1556.6666666666665</ele><time>2026-04-26T12:34:35.783Z</time></trkpt><trkpt lat="45.6826058" lon="11.07356"><ele>1551.0</ele><time>2026-04-26T12:34:36.783Z</time></trkpt><trkpt lat="45.6827591" lon="11.0736771"><ele>1551.0</ele><time>2026-04-26T12:34:37.782Z</time></trkpt><trkpt lat="45.6829166" lon="11.073794"><ele>1551.0</ele><time>2026-04-26T12:34:38.783Z</time></trkpt><trkpt lat="45.6830764" lon="11.0739118"><ele>1551.0</ele><time>2026-04-26T12:34:39.782Z</time></trkpt><trkpt lat="45.6832396" lon="11.0740331"><ele>1551.0</ele><time>2026-04-26T12:34:40.782Z</time></trkpt><trkpt lat="45.6834053" lon="11.0741559"><ele>1551.0</ele><time>2026-04-26T12:34:41.781Z</time></trkpt><trkpt lat="45.6835752" lon="11.074283"><ele>1551.0</ele><time>2026-04-26T12:34:42.781Z</time></trkpt><trkpt lat="45.6837515" lon="11.0744124"><ele>1556.0</ele><time>2026-04-26T12:34:43.782Z</time></trkpt><trkpt lat="45.6839304" lon="11.0745436"><ele>1561.0</ele><time>2026-04-26T12:34:44.783Z</time></trkpt><trkpt lat="45.6841084" lon="11.0746736"><ele>1566.0</ele><time>2026-04-26T12:34:45.783Z</time></trkpt><trkpt lat="45.6842938" lon="11.0748083"><ele>1563.0</ele><time>2026-04-26T12:34:46.781Z</time></trkpt><trkpt lat="45.684492" lon="11.0749532"><ele>1560.0</ele><time>2026-04-26T12:34:47.782Z</time></trkpt><trkpt lat="45.6846997" lon="11.0751064"><ele>1560.0</ele><time>2026-04-26T12:34:48.782Z</time></trkpt><trkpt lat="45.6848963" lon="11.0752511"><ele>1560.0</ele><time>2026-04-26T12:34:49.783Z</time></trkpt><trkpt lat="45.6850868" lon="11.075391"><ele>1560.0</ele><time>2026-04-26T12:34:50.783Z</time></trkpt><trkpt lat="45.6852711" lon="11.075526"><ele>1562.0</ele><time>2026-04-26T12:34:51.781Z</time></trkpt><trkpt lat="45.6854515" lon="11.0756581"><ele>1564.0</ele><time>2026-04-26T12:34:52.783Z</time></trkpt><trkpt lat="45.685625" lon="11.0757855"><ele>1566.0</ele><time>2026-04-26T12:34:53.783Z</time></trkpt><trkpt lat="45.6857931" lon="11.0759093"><ele>1561.6666666666665</ele><time>2026-04-26T12:34:54.782Z</time></trkpt><trkpt lat="45.6859612" lon="11.0760333"><ele>1557.3333333333333</ele><time>2026-04-26T12:34:55.782Z</time></trkpt><trkpt lat="45.6861323" lon="11.0761617"><ele>1553.0</ele><time>2026-04-26T12:34:56.782Z</time></trkpt><trkpt lat="45.6863047" lon="11.0762951"><ele>1553.0</ele><time>2026-04-26T12:34:57.783Z</time></trkpt><trkpt lat="45.6864861" lon="11.0764376"><ele>1553.0</ele><time>2026-04-26T12:34:58.783Z</time></trkpt><trkpt lat="45.6866677" lon="11.0765728"><ele>1553.0</ele><time>2026-04-26T12:34:59.783Z</time></trkpt><trkpt lat="45.6868314" lon="11.0766937"><ele>1550.0</ele><time>2026-04-26T12:35:00.781Z</time></trkpt><trkpt lat="45.6869751" lon="11.0767997"><ele>1547.0</ele><time>2026-04-26T12:35:01.783Z</time></trkpt><trkpt lat="45.6871071" lon="11.0769034"><ele>1544.0</ele><time>2026-04-26T12:35:02.781Z</time></trkpt><trkpt lat="45.6872251" lon="11.0770078"><ele>1544.0</ele><time>2026-04-26T12:35:03.782Z</time></trkpt><trkpt lat="45.6873253" lon="11.0771155"><ele>1544.0</ele><time>2026-04-26T12:35:04.783Z</time></trkpt><trkpt lat="45.6874097" lon="11.0772267"><ele>1544.0</ele><time>2026-04-26T12:35:05.782Z</time></trkpt><trkpt lat="45.6874852" lon="11.0773514"><ele>1544.0</ele><time>2026-04-26T12:35:06.783Z</time></trkpt><trkpt lat="45.6875501" lon="11.0775009"><ele>1543.25</ele><time>2026-04-26T12:35:07.783Z</time></trkpt><trkpt lat="45.6875942" lon="11.0776627"><ele>1542.5</ele><time>2026-04-26T12:35:08.783Z</time></trkpt><trkpt lat="45.6876212" lon="11.0778365"><ele>1541.75</ele><time>2026-04-26T12:35:09.781Z</time></trkpt><trkpt lat="45.6876323" lon="11.0780182"><ele>1541.0</ele><time>2026-04-26T12:35:10.783Z</time></trkpt><trkpt lat="45.6876182" lon="11.0782042"><ele>1540.75</ele><time>2026-04-26T12:35:11.782Z</time></trkpt><trkpt lat="45.6875804" lon="11.0783836"><ele>1540.5</ele><time>2026-04-26T12:35:12.783Z</time></trkpt><trkpt lat="45.6875222" lon="11.0785454"><ele>1540.25</ele><time>2026-04-26T12:35:13.783Z</time></trkpt><trkpt lat="45.6874416" lon="11.0787031"><ele>1540.0</ele><time>2026-04-26T12:35:14.783Z</time></trkpt><trkpt lat="45.6873377" lon="11.0788467"><ele>1540.0</ele><time>2026-04-26T12:35:15.782Z</time></trkpt><trkpt lat="45.6872091" lon="11.0789805"><ele>1540.0</ele><time>2026-04-26T12:35:16.783Z</time></trkpt><trkpt lat="45.6870699" lon="11.0791035"><ele>1540.0</ele><time>2026-04-26T12:35:17.783Z</time></trkpt><trkpt lat="45.6869201" lon="11.0792338"><ele>1537.3333333333335</ele><time>2026-04-26T12:35:18.782Z</time></trkpt><trkpt lat="45.6867645" lon="11.0793662"><ele>1534.6666666666667</ele><time>2026-04-26T12:35:19.781Z</time></trkpt><trkpt lat="45.6866129" lon="11.0794992"><ele>1532.0</ele><time>2026-04-26T12:35:20.783Z</time></trkpt><trkpt lat="45.686464" lon="11.0796304"><ele>1532.0</ele><time>2026-04-26T12:35:21.782Z</time></trkpt><trkpt lat="45.6863216" lon="11.0797572"><ele>1532.0</ele><time>2026-04-26T12:35:22.782Z</time></trkpt><trkpt lat="45.6861924" lon="11.0798724"><ele>1532.0</ele><time>2026-04-26T12:35:23.782Z</time></trkpt><trkpt lat="45.6860765" lon="11.0799869"><ele>1531.0</ele><time>2026-04-26T12:35:24.781Z</time></trkpt><trkpt lat="45.6859747" lon="11.080112"><ele>1530.0</ele><time>2026-04-26T12:35:25.782Z</time></trkpt><trkpt lat="45.6858921" lon="11.0802466"><ele>1529.0</ele><time>2026-04-26T12:35:26.782Z</time></trkpt><trkpt lat="45.6858296" lon="11.0803936"><ele>1528.0</ele><time>2026-04-26T12:35:27.782Z</time></trkpt><trkpt lat="45.6857862" lon="11.0805612"><ele>1528.0</ele><time>2026-04-26T12:35:28.782Z</time></trkpt><trkpt lat="45.6857696" lon="11.0807439"><ele>1528.0</ele><time>2026-04-26T12:35:29.781Z</time></trkpt><trkpt lat="45.6857754" lon="11.0809397"><ele>1528.0</ele><time>2026-04-26T12:35:30.782Z</time></trkpt><trkpt lat="45.6857988" lon="11.0811506"><ele>1528.0</ele><time>2026-04-26T12:35:31.782Z</time></trkpt><trkpt lat="45.6858318" lon="11.0813774"><ele>1525.5</ele><time>2026-04-26T12:35:32.783Z</time></trkpt><trkpt lat="45.6858654" lon="11.0815892"><ele>1523.0</ele><time>2026-04-26T12:35:33.782Z</time></trkpt><trkpt lat="45.6858933" lon="11.0817882"><ele>1520.5</ele><time>2026-04-26T12:35:34.782Z</time></trkpt><trkpt lat="45.68591" lon="11.0819834"><ele>1518.0</ele><time>2026-04-26T12:35:35.781Z</time></trkpt><trkpt lat="45.6859074" lon="11.0821692"><ele>1516.75</ele><time>2026-04-26T12:35:36.782Z</time></trkpt><trkpt lat="45.6858819" lon="11.0823483"><ele>1515.5</ele><time>2026-04-26T12:35:37.783Z</time></trkpt><trkpt lat="45.6858353" lon="11.0825295"><ele>1514.25</ele><time>2026-04-26T12:35:38.783Z</time></trkpt><trkpt lat="45.6857728" lon="11.0827102"><ele>1513.0</ele><time>2026-04-26T12:35:39.782Z</time></trkpt><trkpt lat="45.6857023" lon="11.0828958"><ele>1511.3333333333333</ele><time>2026-04-26T12:35:40.782Z</time></trkpt><trkpt lat="45.6856202" lon="11.083077"><ele>1509.6666666666667</ele><time>2026-04-26T12:35:41.782Z</time></trkpt><trkpt lat="45.6855251" lon="11.0832551"><ele>1508.0</ele><time>2026-04-26T12:35:42.783Z</time></trkpt><trkpt lat="45.6854243" lon="11.0834259"><ele>1509.25</ele><time>2026-04-26T12:35:43.781Z</time></trkpt><trkpt lat="45.6853345" lon="11.0835585"><ele>1510.5</ele><time>2026-04-26T12:35:44.782Z</time></trkpt><trkpt lat="45.6852513" lon="11.0836716"><ele>1511.75</ele><time>2026-04-26T12:35:45.782Z</time></trkpt><trkpt lat="45.685169" lon="11.0837744"><ele>1513.0</ele><time>2026-04-26T12:35:46.781Z</time></trkpt><trkpt lat="45.6850919" lon="11.0838619"><ele>1513.0</ele><time>2026-04-26T12:35:47.782Z</time></trkpt><trkpt lat="45.6850025" lon="11.0839464"><ele>1513.0</ele><time>2026-04-26T12:35:48.782Z</time></trkpt><trkpt lat="45.6849012" lon="11.0840253"><ele>1513.0</ele><time>2026-04-26T12:35:49.781Z</time></trkpt><trkpt lat="45.6847952" lon="11.0840972"><ele>1513.0</ele><time>2026-04-26T12:35:50.782Z</time></trkpt><trkpt lat="45.6846815" lon="11.0841661"><ele>1510.0</ele><time>2026-04-26T12:35:51.782Z</time></trkpt><trkpt lat="45.6845611" lon="11.0842374"><ele>1507.0</ele><time>2026-04-26T12:35:52.781Z</time></trkpt><trkpt lat="45.6844304" lon="11.0843218"><ele>1504.0</ele><time>2026-04-26T12:35:53.782Z</time></trkpt><trkpt lat="45.6843077" lon="11.0844022"><ele>1501.0</ele><time>2026-04-26T12:35:54.782Z</time></trkpt><trkpt lat="45.6841882" lon="11.0844807"><ele>1501.0</ele><time>2026-04-26T12:35:55.782Z</time></trkpt><trkpt lat="45.6840784" lon="11.0845571"><ele>1501.0</ele><time>2026-04-26T12:35:56.781Z</time></trkpt><trkpt lat="45.683971" lon="11.0846338"><ele>1501.0</ele><time>2026-04-26T12:35:57.782Z</time></trkpt><trkpt lat="45.6838788" lon="11.0847099"><ele>1501.0</ele><time>2026-04-26T12:35:58.782Z</time></trkpt><trkpt lat="45.6837972" lon="11.0847887"><ele>1501.0</ele><time>2026-04-26T12:35:59.782Z</time></trkpt><trkpt lat="45.6837249" lon="11.0848731"><ele>1498.0</ele><time>2026-04-26T12:36:00.782Z</time></trkpt><trkpt lat="45.6836577" lon="11.0849685"><ele>1495.0</ele><time>2026-04-26T12:36:01.782Z</time></trkpt><trkpt lat="45.6835934" lon="11.0850878"><ele>1492.0</ele><time>2026-04-26T12:36:02.783Z</time></trkpt><trkpt lat="45.6835238" lon="11.0852488"><ele>1489.0</ele><time>2026-04-26T12:36:03.783Z</time></trkpt><trkpt lat="45.6834388" lon="11.0854411"><ele>1486.6666666666665</ele><time>2026-04-26T12:36:04.783Z</time></trkpt><trkpt lat="45.6833484" lon="11.0856382"><ele>1484.3333333333333</ele><time>2026-04-26T12:36:05.781Z</time></trkpt><trkpt lat="45.6832458" lon="11.0858555"><ele>1482.0</ele><time>2026-04-26T12:36:06.783Z</time></trkpt><trkpt lat="45.6831419" lon="11.0860698"><ele>1478.6666666666667</ele><time>2026-04-26T12:36:07.782Z</time></trkpt><trkpt lat="45.6830324" lon="11.0862801"><ele>1475.3333333333335</ele><time>2026-04-26T12:36:08.783Z</time></trkpt><trkpt lat="45.6829052" lon="11.0864922"><ele>1472.0</ele><time>2026-04-26T12:36:09.781Z</time></trkpt><trkpt lat="45.6827618" lon="11.0866953"><ele>1470.3333333333335</ele><time>2026-04-26T12:36:10.782Z</time></trkpt><trkpt lat="45.6826231" lon="11.0868761"><ele>1468.6666666666667</ele><time>2026-04-26T12:36:11.782Z</time></trkpt><trkpt lat="45.6824885" lon="11.0870441"><ele>1467.0</ele><time>2026-04-26T12:36:12.782Z</time></trkpt><trkpt lat="45.6823668" lon="11.0871917"><ele>1467.0</ele><time>2026-04-26T12:36:13.783Z</time></trkpt><trkpt lat="45.6822578" lon="11.087323"><ele>1467.0</ele><time>2026-04-26T12:36:14.783Z</time></trkpt><trkpt lat="45.6821544" lon="11.0874424"><ele>1467.0</ele><time>2026-04-26T12:36:15.781Z</time></trkpt><trkpt lat="45.6820542" lon="11.0875536"><ele>1467.0</ele><time>2026-04-26T12:36:16.782Z</time></trkpt><trkpt lat="45.6819566" lon="11.0876528"><ele>1466.25</ele><time>2026-04-26T12:36:17.783Z</time></trkpt><trkpt lat="45.6818552" lon="11.0877399"><ele>1465.5</ele><time>2026-04-26T12:36:18.783Z</time></trkpt><trkpt lat="45.6817364" lon="11.0878198"><ele>1464.75</ele><time>2026-04-26T12:36:19.781Z</time></trkpt><trkpt lat="45.6816067" lon="11.0878907"><ele>1464.0</ele><time>2026-04-26T12:36:20.782Z</time></trkpt><trkpt lat="45.6814677" lon="11.0879581"><ele>1464.0</ele><time>2026-04-26T12:36:21.783Z</time></trkpt><trkpt lat="45.6813345" lon="11.088027"><ele>1464.0</ele><time>2026-04-26T12:36:22.782Z</time></trkpt><trkpt lat="45.6812062" lon="11.088095"><ele>1464.0</ele><time>2026-04-26T12:36:23.782Z</time></trkpt><trkpt lat="45.6810767" lon="11.0881645"><ele>1464.0</ele><time>2026-04-26T12:36:24.783Z</time></trkpt><trkpt lat="45.6809416" lon="11.0882318"><ele>1462.0</ele><time>2026-04-26T12:36:25.782Z</time></trkpt><trkpt lat="45.6808015" lon="11.0883004"><ele>1460.0</ele><time>2026-04-26T12:36:26.782Z</time></trkpt><trkpt lat="45.6806524" lon="11.0883719"><ele>1458.0</ele><time>2026-04-26T12:36:27.782Z</time></trkpt><trkpt lat="45.6804876" lon="11.0884528"><ele>1458.0</ele><time>2026-04-26T12:36:28.782Z</time></trkpt><trkpt lat="45.680331" lon="11.0885321"><ele>1458.0</ele><time>2026-04-26T12:36:29.781Z</time></trkpt><trkpt lat="45.6801658" lon="11.0886171"><ele>1458.0</ele><time>2026-04-26T12:36:30.782Z</time></trkpt><trkpt lat="45.6799985" lon="11.0887094"><ele>1455.3333333333333</ele><time>2026-04-26T12:36:31.783Z</time></trkpt><trkpt lat="45.6798287" lon="11.0888132"><ele>1452.6666666666665</ele><time>2026-04-26T12:36:32.783Z</time></trkpt><trkpt lat="45.6796417" lon="11.0889376"><ele>1450.0</ele><time>2026-04-26T12:36:33.783Z</time></trkpt><trkpt lat="45.6794581" lon="11.0890748"><ele>1449.0</ele><time>2026-04-26T12:36:34.781Z</time></trkpt><trkpt lat="45.6792724" lon="11.0892083"><ele>1448.0</ele><time>2026-04-26T12:36:35.781Z</time></trkpt><trkpt lat="45.6790946" lon="11.0893318"><ele>1447.0</ele><time>2026-04-26T12:36:36.782Z</time></trkpt><trkpt lat="45.6789191" lon="11.0894394"><ele>1447.0</ele><time>2026-04-26T12:36:37.782Z</time></trkpt><trkpt lat="45.6787466" lon="11.0895272"><ele>1447.0</ele><time>2026-04-26T12:36:38.783Z</time></trkpt><trkpt lat="45.6785775" lon="11.0895951"><ele>1447.0</ele><time>2026-04-26T12:36:39.782Z</time></trkpt><trkpt lat="45.6784056" lon="11.0896216"><ele>1444.3333333333333</ele><time>2026-04-26T12:36:40.783Z</time></trkpt><trkpt lat="45.6782138" lon="11.0896062"><ele>1441.6666666666667</ele><time>2026-04-26T12:36:41.782Z</time></trkpt><trkpt lat="45.6780064" lon="11.0895563"><ele>1439.0</ele><time>2026-04-26T12:36:42.782Z</time></trkpt><trkpt lat="45.6777801" lon="11.0894861"><ele>1437.6666666666667</ele><time>2026-04-26T12:36:43.781Z</time></trkpt><trkpt lat="45.6775591" lon="11.08941"><ele>1436.3333333333333</ele><time>2026-04-26T12:36:44.782Z</time></trkpt><trkpt lat="45.6773503" lon="11.0893356"><ele>1435.0</ele><time>2026-04-26T12:36:45.782Z</time></trkpt><trkpt lat="45.6771501" lon="11.0892675"><ele>1435.0</ele><time>2026-04-26T12:36:46.782Z</time></trkpt><trkpt lat="45.6769548" lon="11.0892144"><ele>1435.0</ele><time>2026-04-26T12:36:47.781Z</time></trkpt><trkpt lat="45.6767635" lon="11.0891923"><ele>1435.0</ele><time>2026-04-26T12:36:48.783Z</time></trkpt><trkpt lat="45.6765647" lon="11.0891965"><ele>1434.3333333333333</ele><time>2026-04-26T12:36:49.782Z</time></trkpt><trkpt lat="45.6763507" lon="11.0892205"><ele>1433.6666666666667</ele><time>2026-04-26T12:36:50.782Z</time></trkpt><trkpt lat="45.6761492" lon="11.0892503"><ele>1433.0</ele><time>2026-04-26T12:36:51.782Z</time></trkpt><trkpt lat="45.6759588" lon="11.0892628"><ele>1431.3333333333335</ele><time>2026-04-26T12:36:52.781Z</time></trkpt><trkpt lat="45.6757754" lon="11.0892453"><ele>1429.6666666666667</ele><time>2026-04-26T12:36:53.782Z</time></trkpt><trkpt lat="45.6756007" lon="11.0891857"><ele>1428.0</ele><time>2026-04-26T12:36:54.781Z</time></trkpt><trkpt lat="45.6754119" lon="11.0890875"><ele>1422.0</ele><time>2026-04-26T12:36:55.782Z</time></trkpt><trkpt lat="45.6752088" lon="11.0889623"><ele>1416.0</ele><time>2026-04-26T12:36:56.782Z</time></trkpt><trkpt lat="45.6749917" lon="11.0888211"><ele>1416.0</ele><time>2026-04-26T12:36:57.782Z</time></trkpt><trkpt lat="45.6747816" lon="11.0886812"><ele>1416.0</ele><time>2026-04-26T12:36:58.783Z</time></trkpt><trkpt lat="45.6745766" lon="11.0885465"><ele>1415.6666666666667</ele><time>2026-04-26T12:36:59.781Z</time></trkpt><trkpt lat="45.6743801" lon="11.0884261"><ele>1415.3333333333335</ele><time>2026-04-26T12:37:00.781Z</time></trkpt><trkpt lat="45.6742059" lon="11.0883252"><ele>1415.0</ele><time>2026-04-26T12:37:01.782Z</time></trkpt><trkpt lat="45.6740489" lon="11.0882509"><ele>1411.3333333333335</ele><time>2026-04-26T12:37:02.783Z</time></trkpt><trkpt lat="45.6738937" lon="11.0882067"><ele>1407.6666666666667</ele><time>2026-04-26T12:37:03.782Z</time></trkpt><trkpt lat="45.6737257" lon="11.0881887"><ele>1404.0</ele><time>2026-04-26T12:37:04.782Z</time></trkpt><trkpt lat="45.6735496" lon="11.0881933"><ele>1402.0</ele><time>2026-04-26T12:37:05.782Z</time></trkpt><trkpt lat="45.673385" lon="11.0881931"><ele>1400.0</ele><time>2026-04-26T12:37:06.782Z</time></trkpt><trkpt lat="45.6732387" lon="11.0881725"><ele>1398.0</ele><time>2026-04-26T12:37:07.782Z</time></trkpt><trkpt lat="45.6731073" lon="11.0881206"><ele>1396.0</ele><time>2026-04-26T12:37:08.781Z</time></trkpt><trkpt lat="45.6729947" lon="11.0880279"><ele>1396.0</ele><time>2026-04-26T12:37:09.781Z</time></trkpt><trkpt lat="45.6728968" lon="11.0878948"><ele>1396.0</ele><time>2026-04-26T12:37:10.783Z</time></trkpt><trkpt lat="45.6728113" lon="11.0877252"><ele>1396.0</ele><time>2026-04-26T12:37:11.783Z</time></trkpt><trkpt lat="45.6727332" lon="11.0875576"><ele>1396.0</ele><time>2026-04-26T12:37:12.783Z</time></trkpt><trkpt lat="45.6726545" lon="11.0874073"><ele>1392.25</ele><time>2026-04-26T12:37:13.783Z</time></trkpt><trkpt lat="45.6725722" lon="11.08729"><ele>1388.5</ele><time>2026-04-26T12:37:14.782Z</time></trkpt><trkpt lat="45.672472" lon="11.0872007"><ele>1384.75</ele><time>2026-04-26T12:37:15.781Z</time></trkpt><trkpt lat="45.6723439" lon="11.0871233"><ele>1381.0</ele><time>2026-04-26T12:37:16.783Z</time></trkpt><trkpt lat="45.6721866" lon="11.0870556"><ele>1381.0</ele><time>2026-04-26T12:37:17.783Z</time></trkpt><trkpt lat="45.6720008" lon="11.0869941"><ele>1381.0</ele><time>2026-04-26T12:37:18.783Z</time></trkpt><trkpt lat="45.6718014" lon="11.0869306"><ele>1381.0</ele><time>2026-04-26T12:37:19.781Z</time></trkpt><trkpt lat="45.6715938" lon="11.0868551"><ele>1381.5</ele><time>2026-04-26T12:37:20.783Z</time></trkpt><trkpt lat="45.6713808" lon="11.0867631"><ele>1382.0</ele><time>2026-04-26T12:37:21.783Z</time></trkpt><trkpt lat="45.6711582" lon="11.0866476"><ele>1378.5</ele><time>2026-04-26T12:37:22.782Z</time></trkpt><trkpt lat="45.6709279" lon="11.0865157"><ele>1375.0</ele><time>2026-04-26T12:37:23.783Z</time></trkpt><trkpt lat="45.6706842" lon="11.0863789"><ele>1375.0</ele><time>2026-04-26T12:37:24.781Z</time></trkpt><trkpt lat="45.6704364" lon="11.0862456"><ele>1375.0</ele><time>2026-04-26T12:37:25.783Z</time></trkpt><trkpt lat="45.6701933" lon="11.086109"><ele>1373.0</ele><time>2026-04-26T12:37:26.783Z</time></trkpt><trkpt lat="45.6699622" lon="11.0859701"><ele>1371.0</ele><time>2026-04-26T12:37:27.782Z</time></trkpt><trkpt lat="45.6697501" lon="11.0858517"><ele>1371.0</ele><time>2026-04-26T12:37:28.783Z</time></trkpt><trkpt lat="45.6695403" lon="11.0857698"><ele>1371.0</ele><time>2026-04-26T12:37:29.781Z</time></trkpt><trkpt lat="45.6693271" lon="11.0857358"><ele>1371.0</ele><time>2026-04-26T12:37:30.781Z</time></trkpt><trkpt lat="45.6691027" lon="11.0857414"><ele>1371.0</ele><time>2026-04-26T12:37:31.782Z</time></trkpt><trkpt lat="45.6688651" lon="11.0857668"><ele>1371.0</ele><time>2026-04-26T12:37:32.782Z</time></trkpt><trkpt lat="45.6686179" lon="11.0857977"><ele>1369.0</ele><time>2026-04-26T12:37:33.783Z</time></trkpt><trkpt lat="45.668367" lon="11.0858338"><ele>1367.0</ele><time>2026-04-26T12:37:34.781Z</time></trkpt><trkpt lat="45.6681301" lon="11.0858669"><ele>1367.0</ele><time>2026-04-26T12:37:35.783Z</time></trkpt><trkpt lat="45.6678995" lon="11.0858815"><ele>1367.0</ele><time>2026-04-26T12:37:36.782Z</time></trkpt><trkpt lat="45.6676661" lon="11.0858716"><ele>1367.5</ele><time>2026-04-26T12:37:37.782Z</time></trkpt><trkpt lat="45.6674351" lon="11.0858509"><ele>1368.0</ele><time>2026-04-26T12:37:38.783Z</time></trkpt><trkpt lat="45.6671971" lon="11.0858199"><ele>1368.0</ele><time>2026-04-26T12:37:39.781Z</time></trkpt><trkpt lat="45.6669486" lon="11.0857796"><ele>1368.0</ele><time>2026-04-26T12:37:40.782Z</time></trkpt><trkpt lat="45.6666931" lon="11.0857378"><ele>1360.5</ele><time>2026-04-26T12:37:41.783Z</time></trkpt><trkpt lat="45.6664299" lon="11.0856975"><ele>1353.0</ele><time>2026-04-26T12:37:42.783Z</time></trkpt><trkpt lat="45.6661591" lon="11.0856567"><ele>1355.5</ele><time>2026-04-26T12:37:43.783Z</time></trkpt><trkpt lat="45.6658845" lon="11.0856137"><ele>1358.0</ele><time>2026-04-26T12:37:44.783Z</time></trkpt><trkpt lat="45.6656162" lon="11.085573"><ele>1358.0</ele><time>2026-04-26T12:37:45.781Z</time></trkpt><trkpt lat="45.6653538" lon="11.0855366"><ele>1358.0</ele><time>2026-04-26T12:37:46.783Z</time></trkpt><trkpt lat="45.6650989" lon="11.0855001"><ele>1362.5</ele><time>2026-04-26T12:37:47.782Z</time></trkpt><trkpt lat="45.6648492" lon="11.0854646"><ele>1367.0</ele><time>2026-04-26T12:37:48.782Z</time></trkpt><trkpt lat="45.6646038" lon="11.0854278"><ele>1369.0</ele><time>2026-04-26T12:37:49.782Z</time></trkpt><trkpt lat="45.6643627" lon="11.0853917"><ele>1371.0</ele><time>2026-04-26T12:37:50.782Z</time></trkpt><trkpt lat="45.6641221" lon="11.0853572"><ele>1371.0</ele><time>2026-04-26T12:37:51.783Z</time></trkpt><trkpt lat="45.6638837" lon="11.085323"><ele>1371.0</ele><time>2026-04-26T12:37:52.783Z</time></trkpt><trkpt lat="45.6636461" lon="11.0852862"><ele>1373.5</ele><time>2026-04-26T12:37:53.783Z</time></trkpt><trkpt lat="45.6634096" lon="11.0852488"><ele>1376.0</ele><time>2026-04-26T12:37:54.782Z</time></trkpt><trkpt lat="45.6631748" lon="11.0852129"><ele>1376.0</ele><time>2026-04-26T12:37:55.781Z</time></trkpt><trkpt lat="45.662941" lon="11.08518"><ele>1376.0</ele><time>2026-04-26T12:37:56.782Z</time></trkpt><trkpt lat="45.6627041" lon="11.0851467"><ele>1378.0</ele><time>2026-04-26T12:37:57.782Z</time></trkpt><trkpt lat="45.6624751" lon="11.0851093"><ele>1380.0</ele><time>2026-04-26T12:37:58.783Z</time></trkpt><trkpt lat="45.6622504" lon="11.0850783"><ele>1380.0</ele><time>2026-04-26T12:37:59.782Z</time></trkpt><trkpt lat="45.6620277" lon="11.0850541"><ele>1380.0</ele><time>2026-04-26T12:38:00.782Z</time></trkpt><trkpt lat="45.661819" lon="11.0850367"><ele>1380.0</ele><time>2026-04-26T12:38:01.783Z</time></trkpt><trkpt lat="45.6616221" lon="11.0850248"><ele>1382.6666666666667</ele><time>2026-04-26T12:38:02.782Z</time></trkpt><trkpt lat="45.6614358" lon="11.0850258"><ele>1385.3333333333335</ele><time>2026-04-26T12:38:03.782Z</time></trkpt><trkpt lat="45.661265" lon="11.0850565"><ele>1388.0</ele><time>2026-04-26T12:38:04.781Z</time></trkpt><trkpt lat="45.6611024" lon="11.0851255"><ele>1388.3333333333335</ele><time>2026-04-26T12:38:05.782Z</time></trkpt><trkpt lat="45.6609344" lon="11.0852266"><ele>1388.6666666666667</ele><time>2026-04-26T12:38:06.782Z</time></trkpt><trkpt lat="45.6607562" lon="11.0853467"><ele>1389.0</ele><time>2026-04-26T12:38:07.782Z</time></trkpt><trkpt lat="45.6605648" lon="11.0854801"><ele>1389.0</ele><time>2026-04-26T12:38:08.782Z</time></trkpt><trkpt lat="45.6603613" lon="11.0856278"><ele>1389.0</ele><time>2026-04-26T12:38:09.782Z</time></trkpt><trkpt lat="45.6601623" lon="11.0857871"><ele>1389.0</ele><time>2026-04-26T12:38:10.781Z</time></trkpt><trkpt lat="45.659974" lon="11.0859477"><ele>1389.0</ele><time>2026-04-26T12:38:11.782Z</time></trkpt><trkpt lat="45.6597904" lon="11.0861065"><ele>1389.0</ele><time>2026-04-26T12:38:12.783Z</time></trkpt><trkpt lat="45.6596104" lon="11.086262"><ele>1387.3333333333333</ele><time>2026-04-26T12:38:13.782Z</time></trkpt><trkpt lat="45.659435" lon="11.0864166"><ele>1385.6666666666665</ele><time>2026-04-26T12:38:14.783Z</time></trkpt><trkpt lat="45.6592604" lon="11.0865698"><ele>1384.0</ele><time>2026-04-26T12:38:15.782Z</time></trkpt><trkpt lat="45.6590863" lon="11.0867203"><ele>1384.0</ele><time>2026-04-26T12:38:16.783Z</time></trkpt><trkpt lat="45.6589103" lon="11.0868717"><ele>1384.0</ele><time>2026-04-26T12:38:17.782Z</time></trkpt><trkpt lat="45.6587402" lon="11.0870178"><ele>1384.0</ele><time>2026-04-26T12:38:18.781Z</time></trkpt><trkpt lat="45.6585842" lon="11.0871566"><ele>1384.6666666666665</ele><time>2026-04-26T12:38:19.783Z</time></trkpt><trkpt lat="45.658437" lon="11.0873054"><ele>1385.3333333333333</ele><time>2026-04-26T12:38:20.783Z</time></trkpt><trkpt lat="45.6582955" lon="11.0874665"><ele>1386.0</ele><time>2026-04-26T12:38:21.782Z</time></trkpt><trkpt lat="45.6581673" lon="11.0876194"><ele>1386.0</ele><time>2026-04-26T12:38:22.783Z</time></trkpt><trkpt lat="45.658051" lon="11.0877709"><ele>1386.0</ele><time>2026-04-26T12:38:23.782Z</time></trkpt><trkpt lat="45.6579524" lon="11.0879148"><ele>1386.0</ele><time>2026-04-26T12:38:24.782Z</time></trkpt><trkpt lat="45.6578591" lon="11.088054"><ele>1386.0</ele><time>2026-04-26T12:38:25.782Z</time></trkpt><trkpt lat="45.6577843" lon="11.0881973"><ele>1386.5</ele><time>2026-04-26T12:38:26.781Z</time></trkpt><trkpt lat="45.6577317" lon="11.0883568"><ele>1387.0</ele><time>2026-04-26T12:38:27.781Z</time></trkpt><trkpt lat="45.6576978" lon="11.088543"><ele>1387.5</ele><time>2026-04-26T12:38:28.781Z</time></trkpt><trkpt lat="45.6576921" lon="11.0887404"><ele>1388.0</ele><time>2026-04-26T12:38:29.782Z</time></trkpt><trkpt lat="45.6577172" lon="11.0889564"><ele>1385.0</ele><time>2026-04-26T12:38:30.783Z</time></trkpt><trkpt lat="45.6577646" lon="11.0891948"><ele>1382.0</ele><time>2026-04-26T12:38:31.782Z</time></trkpt><trkpt lat="45.6578259" lon="11.0894568"><ele>1379.0</ele><time>2026-04-26T12:38:32.783Z</time></trkpt><trkpt lat="45.6578923" lon="11.0897246"><ele>1384.3333333333335</ele><time>2026-04-26T12:38:33.782Z</time></trkpt><trkpt lat="45.6579578" lon="11.0900043"><ele>1389.6666666666667</ele><time>2026-04-26T12:38:34.782Z</time></trkpt><trkpt lat="45.6580161" lon="11.090301"><ele>1395.0</ele><time>2026-04-26T12:38:35.782Z</time></trkpt><trkpt lat="45.6580669" lon="11.0905939"><ele>1392.0</ele><time>2026-04-26T12:38:36.782Z</time></trkpt><trkpt lat="45.6581062" lon="11.090886"><ele>1389.0</ele><time>2026-04-26T12:38:37.781Z</time></trkpt><trkpt lat="45.6581421" lon="11.0911647"><ele>1386.0</ele><time>2026-04-26T12:38:38.782Z</time></trkpt><trkpt lat="45.6581732" lon="11.0914286"><ele>1386.0</ele><time>2026-04-26T12:38:39.781Z</time></trkpt><trkpt lat="45.6582012" lon="11.0916599"><ele>1386.0</ele><time>2026-04-26T12:38:40.783Z</time></trkpt><trkpt lat="45.6582234" lon="11.0918689"><ele>1386.0</ele><time>2026-04-26T12:38:41.782Z</time></trkpt><trkpt lat="45.6582337" lon="11.0920683"><ele>1386.0</ele><time>2026-04-26T12:38:42.782Z</time></trkpt><trkpt lat="45.6582221" lon="11.0922432"><ele>1386.0</ele><time>2026-04-26T12:38:43.782Z</time></trkpt><trkpt lat="45.6581848" lon="11.0923996"><ele>1386.0</ele><time>2026-04-26T12:38:44.781Z</time></trkpt><trkpt lat="45.658119" lon="11.0925235"><ele>1386.0</ele><time>2026-04-26T12:38:45.782Z</time></trkpt><trkpt lat="45.6580349" lon="11.0926054"><ele>1386.0</ele><time>2026-04-26T12:38:46.782Z</time></trkpt><trkpt lat="45.6579394" lon="11.0926438"><ele>1385.5</ele><time>2026-04-26T12:38:47.782Z</time></trkpt><trkpt lat="45.6578383" lon="11.0926336"><ele>1385.0</ele><time>2026-04-26T12:38:48.781Z</time></trkpt><trkpt lat="45.6577337" lon="11.0925844"><ele>1384.5</ele><time>2026-04-26T12:38:49.783Z</time></trkpt><trkpt lat="45.6576231" lon="11.0925101"><ele>1384.0</ele><time>2026-04-26T12:38:50.782Z</time></trkpt><trkpt lat="45.6575028" lon="11.0924265"><ele>1381.3333333333333</ele><time>2026-04-26T12:38:51.782Z</time></trkpt><trkpt lat="45.6573714" lon="11.0923434"><ele>1378.6666666666667</ele><time>2026-04-26T12:38:52.782Z</time></trkpt><trkpt lat="45.6572268" lon="11.0922622"><ele>1376.0</ele><time>2026-04-26T12:38:53.782Z</time></trkpt><trkpt lat="45.6570674" lon="11.0921939"><ele>1379.3333333333335</ele><time>2026-04-26T12:38:54.782Z</time></trkpt><trkpt lat="45.6568989" lon="11.0921427"><ele>1382.6666666666667</ele><time>2026-04-26T12:38:55.782Z</time></trkpt><trkpt lat="45.6567274" lon="11.0921087"><ele>1386.0</ele><time>2026-04-26T12:38:56.783Z</time></trkpt><trkpt lat="45.6565696" lon="11.0920801"><ele>1386.0</ele><time>2026-04-26T12:38:57.783Z</time></trkpt><trkpt lat="45.6564196" lon="11.0920429"><ele>1386.0</ele><time>2026-04-26T12:38:58.783Z</time></trkpt><trkpt lat="45.6562873" lon="11.0919948"><ele>1386.0</ele><time>2026-04-26T12:38:59.781Z</time></trkpt><trkpt lat="45.6561672" lon="11.0919515"><ele>1386.0</ele><time>2026-04-26T12:39:00.781Z</time></trkpt><trkpt lat="45.6560604" lon="11.091923"><ele>1387.4</ele><time>2026-04-26T12:39:01.781Z</time></trkpt><trkpt lat="45.6559613" lon="11.0919102"><ele>1388.8</ele><time>2026-04-26T12:39:02.782Z</time></trkpt><trkpt lat="45.6558574" lon="11.0919165"><ele>1390.2</ele><time>2026-04-26T12:39:03.781Z</time></trkpt><trkpt lat="45.6557556" lon="11.0919538"><ele>1391.6000000000001</ele><time>2026-04-26T12:39:04.781Z</time></trkpt><trkpt lat="45.6556593" lon="11.0920206"><ele>1393.0</ele><time>2026-04-26T12:39:05.783Z</time></trkpt><trkpt lat="45.6555657" lon="11.092115"><ele>1393.0</ele><time>2026-04-26T12:39:06.782Z</time></trkpt><trkpt lat="45.6554813" lon="11.0922296"><ele>1393.0</ele><time>2026-04-26T12:39:07.782Z</time></trkpt><trkpt lat="45.6554127" lon="11.0923549"><ele>1393.0</ele><time>2026-04-26T12:39:08.782Z</time></trkpt><trkpt lat="45.6553536" lon="11.0924968"><ele>1393.0</ele><time>2026-04-26T12:39:09.783Z</time></trkpt><trkpt lat="45.6553158" lon="11.0926632"><ele>1392.75</ele><time>2026-04-26T12:39:10.782Z</time></trkpt><trkpt lat="45.6552999" lon="11.0928573"><ele>1392.5</ele><time>2026-04-26T12:39:11.782Z</time></trkpt><trkpt lat="45.6552873" lon="11.093059"><ele>1392.25</ele><time>2026-04-26T12:39:12.783Z</time></trkpt><trkpt lat="45.6552534" lon="11.0932318"><ele>1392.0</ele><time>2026-04-26T12:39:13.782Z</time></trkpt><trkpt lat="45.6551917" lon="11.09339"><ele>1394.75</ele><time>2026-04-26T12:39:14.783Z</time></trkpt><trkpt lat="45.6551006" lon="11.093517"><ele>1397.5</ele><time>2026-04-26T12:39:15.783Z</time></trkpt><trkpt lat="45.6549818" lon="11.0936171"><ele>1400.25</ele><time>2026-04-26T12:39:16.782Z</time></trkpt><trkpt lat="45.6548392" lon="11.0937046"><ele>1403.0</ele><time>2026-04-26T12:39:17.783Z</time></trkpt><trkpt lat="45.6546696" lon="11.0937918"><ele>1403.0</ele><time>2026-04-26T12:39:18.782Z</time></trkpt><trkpt lat="45.6545056" lon="11.0938823"><ele>1403.0</ele><time>2026-04-26T12:39:19.783Z</time></trkpt><trkpt lat="45.6543323" lon="11.0939771"><ele>1403.0</ele><time>2026-04-26T12:39:20.782Z</time></trkpt><trkpt lat="45.6541597" lon="11.0940703"><ele>1403.0</ele><time>2026-04-26T12:39:21.783Z</time></trkpt><trkpt lat="45.65398" lon="11.0941579"><ele>1403.0</ele><time>2026-04-26T12:39:22.781Z</time></trkpt><trkpt lat="45.6537951" lon="11.0942271"><ele>1403.0</ele><time>2026-04-26T12:39:23.782Z</time></trkpt><trkpt lat="45.6535988" lon="11.0942795"><ele>1403.0</ele><time>2026-04-26T12:39:24.782Z</time></trkpt><trkpt lat="45.6533894" lon="11.0943177"><ele>1403.0</ele><time>2026-04-26T12:39:25.783Z</time></trkpt><trkpt lat="45.6531861" lon="11.0943399"><ele>1403.0</ele><time>2026-04-26T12:39:26.781Z</time></trkpt><trkpt lat="45.6529847" lon="11.0943586"><ele>1403.6666666666667</ele><time>2026-04-26T12:39:27.783Z</time></trkpt><trkpt lat="45.6527845" lon="11.0943763"><ele>1404.3333333333333</ele><time>2026-04-26T12:39:28.782Z</time></trkpt><trkpt lat="45.652597" lon="11.094392"><ele>1405.0</ele><time>2026-04-26T12:39:29.782Z</time></trkpt><trkpt lat="45.6524186" lon="11.0944082"><ele>1405.0</ele><time>2026-04-26T12:39:30.782Z</time></trkpt><trkpt lat="45.6522474" lon="11.0944184"><ele>1405.0</ele><time>2026-04-26T12:39:31.781Z</time></trkpt><trkpt lat="45.6520806" lon="11.0944142"><ele>1405.0</ele><time>2026-04-26T12:39:32.782Z</time></trkpt><trkpt lat="45.6519211" lon="11.0943947"><ele>1405.0</ele><time>2026-04-26T12:39:33.783Z</time></trkpt><trkpt lat="45.6517757" lon="11.094369"><ele>1405.0</ele><time>2026-04-26T12:39:34.782Z</time></trkpt><trkpt lat="45.6516396" lon="11.0943483"><ele>1405.0</ele><time>2026-04-26T12:39:35.781Z</time></trkpt><trkpt lat="45.6515169" lon="11.0943368"><ele>1405.0</ele><time>2026-04-26T12:39:36.783Z</time></trkpt><trkpt lat="45.6514003" lon="11.0943385"><ele>1405.0</ele><time>2026-04-26T12:39:37.782Z</time></trkpt><trkpt lat="45.651302" lon="11.0943569"><ele>1405.0</ele><time>2026-04-26T12:39:38.782Z</time></trkpt><trkpt lat="45.6512107" lon="11.0943969"><ele>1405.0</ele><time>2026-04-26T12:39:39.782Z</time></trkpt><trkpt lat="45.6511276" lon="11.0944498"><ele>1405.0</ele><time>2026-04-26T12:39:40.781Z</time></trkpt><trkpt lat="45.6510486" lon="11.0945076"><ele>1405.0</ele><time>2026-04-26T12:39:41.782Z</time></trkpt><trkpt lat="45.6509766" lon="11.0945725"><ele>1404.3333333333333</ele><time>2026-04-26T12:39:42.782Z</time></trkpt><trkpt lat="45.6509112" lon="11.094637"><ele>1403.6666666666665</ele><time>2026-04-26T12:39:43.783Z</time></trkpt><trkpt lat="45.6508428" lon="11.0947051"><ele>1403.0</ele><time>2026-04-26T12:39:44.782Z</time></trkpt><trkpt lat="45.6507713" lon="11.0947732"><ele>1402.3333333333333</ele><time>2026-04-26T12:39:45.783Z</time></trkpt><trkpt lat="45.6507024" lon="11.0948297"><ele>1401.6666666666667</ele><time>2026-04-26T12:39:46.783Z</time></trkpt><trkpt lat="45.6506256" lon="11.094873"><ele>1401.0</ele><time>2026-04-26T12:39:47.782Z</time></trkpt><trkpt lat="45.6505367" lon="11.0948978"><ele>1401.0</ele><time>2026-04-26T12:39:48.782Z</time></trkpt><trkpt lat="45.6504368" lon="11.0948987"><ele>1401.0</ele><time>2026-04-26T12:39:49.782Z</time></trkpt><trkpt lat="45.650329" lon="11.0948761"><ele>1401.0</ele><time>2026-04-26T12:39:50.783Z</time></trkpt><trkpt lat="45.6502103" lon="11.0948353"><ele>1401.0</ele><time>2026-04-26T12:39:51.783Z</time></trkpt><trkpt lat="45.6500845" lon="11.094784"><ele>1399.25</ele><time>2026-04-26T12:39:52.782Z</time></trkpt><trkpt lat="45.6499551" lon="11.0947362"><ele>1397.5</ele><time>2026-04-26T12:39:53.782Z</time></trkpt><trkpt lat="45.6498229" lon="11.0947015"><ele>1395.75</ele><time>2026-04-26T12:39:54.783Z</time></trkpt><trkpt lat="45.6496796" lon="11.0946805"><ele>1394.0</ele><time>2026-04-26T12:39:55.782Z</time></trkpt><trkpt lat="45.649529" lon="11.0946928"><ele>1390.6666666666667</ele><time>2026-04-26T12:39:56.782Z</time></trkpt><trkpt lat="45.6493668" lon="11.0947292"><ele>1387.3333333333333</ele><time>2026-04-26T12:39:57.782Z</time></trkpt><trkpt lat="45.6491977" lon="11.0947817"><ele>1384.0</ele><time>2026-04-26T12:39:58.782Z</time></trkpt><trkpt lat="45.6490302" lon="11.0948377"><ele>1384.0</ele><time>2026-04-26T12:39:59.781Z</time></trkpt><trkpt lat="45.6488557" lon="11.0948928"><ele>1384.0</ele><time>2026-04-26T12:40:00.781Z</time></trkpt><trkpt lat="45.6486748" lon="11.0949395"><ele>1384.0</ele><time>2026-04-26T12:40:01.782Z</time></trkpt><trkpt lat="45.6484933" lon="11.0949552"><ele>1384.0</ele><time>2026-04-26T12:40:02.783Z</time></trkpt><trkpt lat="45.648317" lon="11.0949387"><ele>1384.0</ele><time>2026-04-26T12:40:03.782Z</time></trkpt><trkpt lat="45.6481407" lon="11.0948999"><ele>1384.0</ele><time>2026-04-26T12:40:04.782Z</time></trkpt><trkpt lat="45.6479754" lon="11.0948572"><ele>1384.0</ele><time>2026-04-26T12:40:05.782Z</time></trkpt><trkpt lat="45.6478234" lon="11.0948267"><ele>1384.0</ele><time>2026-04-26T12:40:06.781Z</time></trkpt><trkpt lat="45.6476734" lon="11.0948126"><ele>1384.0</ele><time>2026-04-26T12:40:07.782Z</time></trkpt><trkpt lat="45.6475261" lon="11.0948141"><ele>1383.25</ele><time>2026-04-26T12:40:08.782Z</time></trkpt><trkpt lat="45.647379" lon="11.0948262"><ele>1382.5</ele><time>2026-04-26T12:40:09.783Z</time></trkpt><trkpt lat="45.6472368" lon="11.0948409"><ele>1381.75</ele><time>2026-04-26T12:40:10.783Z</time></trkpt><trkpt lat="45.6471032" lon="11.0948524"><ele>1381.0</ele><time>2026-04-26T12:40:11.783Z</time></trkpt><trkpt lat="45.6469791" lon="11.0948599"><ele>1384.5</ele><time>2026-04-26T12:40:12.782Z</time></trkpt><trkpt lat="45.6468591" lon="11.0948579"><ele>1388.0</ele><time>2026-04-26T12:40:13.783Z</time></trkpt><trkpt lat="45.6467466" lon="11.0948339"><ele>1391.5</ele><time>2026-04-26T12:40:14.783Z</time></trkpt><trkpt lat="45.646641" lon="11.0947778"><ele>1395.0</ele><time>2026-04-26T12:40:15.781Z</time></trkpt><trkpt lat="45.6465519" lon="11.0946891"><ele>1395.0</ele><time>2026-04-26T12:40:16.782Z</time></trkpt><trkpt lat="45.646483" lon="11.0945724"><ele>1395.0</ele><time>2026-04-26T12:40:17.783Z</time></trkpt><trkpt lat="45.6464233" lon="11.0944342"><ele>1395.0</ele><time>2026-04-26T12:40:18.783Z</time></trkpt><trkpt lat="45.6463751" lon="11.0942686"><ele>1395.0</ele><time>2026-04-26T12:40:19.783Z</time></trkpt><trkpt lat="45.6463128" lon="11.0941004"><ele>1394.75</ele><time>2026-04-26T12:40:20.782Z</time></trkpt><trkpt lat="45.6462388" lon="11.0939489"><ele>1394.5</ele><time>2026-04-26T12:40:21.781Z</time></trkpt><trkpt lat="45.6461555" lon="11.093812"><ele>1394.25</ele><time>2026-04-26T12:40:22.782Z</time></trkpt><trkpt lat="45.6460713" lon="11.0936894"><ele>1394.0</ele><time>2026-04-26T12:40:23.782Z</time></trkpt><trkpt lat="45.6459833" lon="11.0935659"><ele>1393.75</ele><time>2026-04-26T12:40:24.782Z</time></trkpt><trkpt lat="45.6458929" lon="11.0934427"><ele>1393.5</ele><time>2026-04-26T12:40:25.782Z</time></trkpt><trkpt lat="45.6458087" lon="11.0933233"><ele>1393.25</ele><time>2026-04-26T12:40:26.782Z</time></trkpt><trkpt lat="45.6457299" lon="11.0932018"><ele>1393.0</ele><time>2026-04-26T12:40:27.782Z</time></trkpt><trkpt lat="45.6456642" lon="11.0930796"><ele>1393.0</ele><time>2026-04-26T12:40:28.782Z</time></trkpt><trkpt lat="45.6456041" lon="11.092958"><ele>1393.0</ele><time>2026-04-26T12:40:29.783Z</time></trkpt><trkpt lat="45.6455483" lon="11.0928412"><ele>1393.0</ele><time>2026-04-26T12:40:30.782Z</time></trkpt><trkpt lat="45.6454959" lon="11.0927278"><ele>1393.0</ele><time>2026-04-26T12:40:31.783Z</time></trkpt><trkpt lat="45.6454433" lon="11.0926203"><ele>1393.0</ele><time>2026-04-26T12:40:32.781Z</time></trkpt><trkpt lat="45.6453916" lon="11.0925161"><ele>1393.1666666666665</ele><time>2026-04-26T12:40:33.783Z</time></trkpt><trkpt lat="45.6453423" lon="11.0924147"><ele>1393.3333333333333</ele><time>2026-04-26T12:40:34.783Z</time></trkpt><trkpt lat="45.6452916" lon="11.0923188"><ele>1393.5</ele><time>2026-04-26T12:40:35.782Z</time></trkpt><trkpt lat="45.6452398" lon="11.0922258"><ele>1393.6666666666667</ele><time>2026-04-26T12:40:36.782Z</time></trkpt><trkpt lat="45.6451876" lon="11.092135"><ele>1393.8333333333335</ele><time>2026-04-26T12:40:37.782Z</time></trkpt><trkpt lat="45.6451289" lon="11.0920418"><ele>1394.0</ele><time>2026-04-26T12:40:38.782Z</time></trkpt><trkpt lat="45.6450628" lon="11.0919401"><ele>1394.0</ele><time>2026-04-26T12:40:39.782Z</time></trkpt><trkpt lat="45.6449969" lon="11.0918448"><ele>1394.0</ele><time>2026-04-26T12:40:40.782Z</time></trkpt><trkpt lat="45.6449361" lon="11.0917678"><ele>1394.0</ele><time>2026-04-26T12:40:41.781Z</time></trkpt><trkpt lat="45.6448703" lon="11.0917009"><ele>1394.0</ele><time>2026-04-26T12:40:42.782Z</time></trkpt><trkpt lat="45.6447962" lon="11.0916392"><ele>1394.0</ele><time>2026-04-26T12:40:43.782Z</time></trkpt><trkpt lat="45.6447177" lon="11.0915858"><ele>1394.0</ele><time>2026-04-26T12:40:44.783Z</time></trkpt><trkpt lat="45.6446313" lon="11.0915454"><ele>1392.4</ele><time>2026-04-26T12:40:45.783Z</time></trkpt><trkpt lat="45.6445435" lon="11.0915273"><ele>1390.8000000000002</ele><time>2026-04-26T12:40:46.782Z</time></trkpt><trkpt lat="45.6444438" lon="11.0915219"><ele>1389.1999999999998</ele><time>2026-04-26T12:40:47.783Z</time></trkpt><trkpt lat="45.6443408" lon="11.0915119"><ele>1387.6</ele><time>2026-04-26T12:40:48.782Z</time></trkpt><trkpt lat="45.6442339" lon="11.0914878"><ele>1386.0</ele><time>2026-04-26T12:40:49.782Z</time></trkpt><trkpt lat="45.644132" lon="11.0914527"><ele>1386.0</ele><time>2026-04-26T12:40:50.783Z</time></trkpt><trkpt lat="45.6440311" lon="11.0914076"><ele>1386.0</ele><time>2026-04-26T12:40:51.781Z</time></trkpt><trkpt lat="45.6439331" lon="11.0913591"><ele>1386.0</ele><time>2026-04-26T12:40:52.781Z</time></trkpt><trkpt lat="45.6438331" lon="11.0913103"><ele>1386.0</ele><time>2026-04-26T12:40:53.782Z</time></trkpt><trkpt lat="45.6437292" lon="11.0912598"><ele>1386.0</ele><time>2026-04-26T12:40:54.782Z</time></trkpt><trkpt lat="45.6436194" lon="11.0912098"><ele>1383.6</ele><time>2026-04-26T12:40:55.781Z</time></trkpt><trkpt lat="45.6435114" lon="11.091162"><ele>1381.1999999999998</ele><time>2026-04-26T12:40:56.783Z</time></trkpt><trkpt lat="45.6434076" lon="11.0911163"><ele>1378.8000000000002</ele><time>2026-04-26T12:40:57.783Z</time></trkpt><trkpt lat="45.6433046" lon="11.091071"><ele>1376.4</ele><time>2026-04-26T12:40:58.782Z</time></trkpt><trkpt lat="45.643201" lon="11.0910244"><ele>1374.0</ele><time>2026-04-26T12:40:59.782Z</time></trkpt><trkpt lat="45.6430935" lon="11.0909806"><ele>1374.0</ele><time>2026-04-26T12:41:00.783Z</time></trkpt><trkpt lat="45.6429816" lon="11.0909394"><ele>1374.0</ele><time>2026-04-26T12:41:01.783Z</time></trkpt><trkpt lat="45.6428658" lon="11.0909024"><ele>1374.0</ele><time>2026-04-26T12:41:02.782Z</time></trkpt><trkpt lat="45.642749" lon="11.0908728"><ele>1374.0</ele><time>2026-04-26T12:41:03.783Z</time></trkpt><trkpt lat="45.6426319" lon="11.0908467"><ele>1371.0</ele><time>2026-04-26T12:41:04.783Z</time></trkpt><trkpt lat="45.6425171" lon="11.0908211"><ele>1368.0</ele><time>2026-04-26T12:41:05.783Z</time></trkpt><trkpt lat="45.6424018" lon="11.0907975"><ele>1365.0</ele><time>2026-04-26T12:41:06.781Z</time></trkpt><trkpt lat="45.6422885" lon="11.0907748"><ele>1362.0</ele><time>2026-04-26T12:41:07.783Z</time></trkpt><trkpt lat="45.6421743" lon="11.0907501"><ele>1361.75</ele><time>2026-04-26T12:41:08.782Z</time></trkpt><trkpt lat="45.6420589" lon="11.0907236"><ele>1361.5</ele><time>2026-04-26T12:41:09.781Z</time></trkpt><trkpt lat="45.641944" lon="11.0906885"><ele>1361.25</ele><time>2026-04-26T12:41:10.783Z</time></trkpt><trkpt lat="45.6418291" lon="11.0906435"><ele>1361.0</ele><time>2026-04-26T12:41:11.782Z</time></trkpt><trkpt lat="45.6417155" lon="11.0905907"><ele>1358.0</ele><time>2026-04-26T12:41:12.781Z</time></trkpt><trkpt lat="45.641607" lon="11.0905323"><ele>1355.0</ele><time>2026-04-26T12:41:13.782Z</time></trkpt><trkpt lat="45.6415027" lon="11.090469"><ele>1352.0</ele><time>2026-04-26T12:41:14.783Z</time></trkpt><trkpt lat="45.6413887" lon="11.0904031"><ele>1349.0</ele><time>2026-04-26T12:41:15.782Z</time></trkpt><trkpt lat="45.6412719" lon="11.0903281"><ele>1349.0</ele><time>2026-04-26T12:41:16.783Z</time></trkpt><trkpt lat="45.6411582" lon="11.0902625"><ele>1349.0</ele><time>2026-04-26T12:41:17.781Z</time></trkpt><trkpt lat="45.6410528" lon="11.0902096"><ele>1349.0</ele><time>2026-04-26T12:41:18.782Z</time></trkpt><trkpt lat="45.6409465" lon="11.0901569"><ele>1349.0</ele><time>2026-04-26T12:41:19.782Z</time></trkpt><trkpt lat="45.6408442" lon="11.0900986"><ele>1347.8000000000002</ele><time>2026-04-26T12:41:20.783Z</time></trkpt><trkpt lat="45.6407469" lon="11.0900332"><ele>1346.6000000000001</ele><time>2026-04-26T12:41:21.782Z</time></trkpt><trkpt lat="45.6406588" lon="11.0899488"><ele>1345.4</ele><time>2026-04-26T12:41:22.782Z</time></trkpt><trkpt lat="45.6405952" lon="11.0898341"><ele>1344.2</ele><time>2026-04-26T12:41:23.783Z</time></trkpt><trkpt lat="45.6405529" lon="11.0896963"><ele>1343.0</ele><time>2026-04-26T12:41:24.783Z</time></trkpt><trkpt lat="45.6405307" lon="11.0895359"><ele>1340.4</ele><time>2026-04-26T12:41:25.781Z</time></trkpt><trkpt lat="45.6405145" lon="11.0893671"><ele>1337.8000000000002</ele><time>2026-04-26T12:41:26.781Z</time></trkpt><trkpt lat="45.6404954" lon="11.0892129"><ele>1335.2</ele><time>2026-04-26T12:41:27.783Z</time></trkpt><trkpt lat="45.6404663" lon="11.0890655"><ele>1332.6</ele><time>2026-04-26T12:41:28.782Z</time></trkpt><trkpt lat="45.6404169" lon="11.0889433"><ele>1330.0</ele><time>2026-04-26T12:41:29.782Z</time></trkpt><trkpt lat="45.6403528" lon="11.0888538"><ele>1328.6</ele><time>2026-04-26T12:41:30.783Z</time></trkpt><trkpt lat="45.6402714" lon="11.0888092"><ele>1327.2</ele><time>2026-04-26T12:41:31.782Z</time></trkpt><trkpt lat="45.6401745" lon="11.0888065"><ele>1325.8000000000002</ele><time>2026-04-26T12:41:32.783Z</time></trkpt><trkpt lat="45.6400599" lon="11.0888393"><ele>1324.4</ele><time>2026-04-26T12:41:33.782Z</time></trkpt><trkpt lat="45.6399272" lon="11.0888835"><ele>1323.0</ele><time>2026-04-26T12:41:34.781Z</time></trkpt><trkpt lat="45.6397949" lon="11.0888948"><ele>1323.0</ele><time>2026-04-26T12:41:35.782Z</time></trkpt><trkpt lat="45.6396683" lon="11.0888775"><ele>1323.0</ele><time>2026-04-26T12:41:36.782Z</time></trkpt><trkpt lat="45.6395578" lon="11.088831"><ele>1323.0</ele><time>2026-04-26T12:41:37.783Z</time></trkpt><trkpt lat="45.6394745" lon="11.0887533"><ele>1323.0</ele><time>2026-04-26T12:41:38.783Z</time></trkpt><trkpt lat="45.6394185" lon="11.0886428"><ele>1323.0</ele><time>2026-04-26T12:41:39.782Z</time></trkpt><trkpt lat="45.639388" lon="11.0884954"><ele>1323.25</ele><time>2026-04-26T12:41:40.783Z</time></trkpt><trkpt lat="45.6393873" lon="11.0883237"><ele>1323.5</ele><time>2026-04-26T12:41:41.782Z</time></trkpt><trkpt lat="45.6394292" lon="11.0881305"><ele>1323.75</ele><time>2026-04-26T12:41:42.781Z</time></trkpt><trkpt lat="45.6394861" lon="11.087933"><ele>1324.0</ele><time>2026-04-26T12:41:43.782Z</time></trkpt><trkpt lat="45.6395344" lon="11.0877455"><ele>1320.75</ele><time>2026-04-26T12:41:44.783Z</time></trkpt><trkpt lat="45.6395774" lon="11.0875584"><ele>1317.5</ele><time>2026-04-26T12:41:45.782Z</time></trkpt><trkpt lat="45.6396072" lon="11.0873734"><ele>1314.25</ele><time>2026-04-26T12:41:46.782Z</time></trkpt><trkpt lat="45.6396165" lon="11.0871999"><ele>1311.0</ele><time>2026-04-26T12:41:47.783Z</time></trkpt><trkpt lat="45.6396069" lon="11.0870266"><ele>1308.75</ele><time>2026-04-26T12:41:48.782Z</time></trkpt><trkpt lat="45.6395909" lon="11.0868545"><ele>1306.5</ele><time>2026-04-26T12:41:49.782Z</time></trkpt><trkpt lat="45.6395623" lon="11.0866784"><ele>1304.25</ele><time>2026-04-26T12:41:50.783Z</time></trkpt><trkpt lat="45.6395118" lon="11.0865031"><ele>1302.0</ele><time>2026-04-26T12:41:51.783Z</time></trkpt><trkpt lat="45.6394326" lon="11.0863227"><ele>1302.0</ele><time>2026-04-26T12:41:52.782Z</time></trkpt><trkpt lat="45.6393206" lon="11.0861289"><ele>1302.0</ele><time>2026-04-26T12:41:53.782Z</time></trkpt><trkpt lat="45.6391893" lon="11.0859417"><ele>1302.0</ele><time>2026-04-26T12:41:54.782Z</time></trkpt><trkpt lat="45.6390377" lon="11.0857406"><ele>1297.6666666666667</ele><time>2026-04-26T12:41:55.783Z</time></trkpt><trkpt lat="45.6389022" lon="11.0855613"><ele>1293.3333333333335</ele><time>2026-04-26T12:41:56.782Z</time></trkpt><trkpt lat="45.6387765" lon="11.0854065"><ele>1289.0</ele><time>2026-04-26T12:41:57.782Z</time></trkpt><trkpt lat="45.6386572" lon="11.085269"><ele>1288.25</ele><time>2026-04-26T12:41:58.781Z</time></trkpt><trkpt lat="45.6385347" lon="11.0851439"><ele>1287.5</ele><time>2026-04-26T12:41:59.783Z</time></trkpt><trkpt lat="45.6384083" lon="11.085045"><ele>1286.75</ele><time>2026-04-26T12:42:00.783Z</time></trkpt><trkpt lat="45.638282" lon="11.084958"><ele>1286.0</ele><time>2026-04-26T12:42:01.782Z</time></trkpt><trkpt lat="45.6381661" lon="11.0848945"><ele>1286.0</ele><time>2026-04-26T12:42:02.783Z</time></trkpt><trkpt lat="45.6380617" lon="11.0848674"><ele>1286.0</ele><time>2026-04-26T12:42:03.782Z</time></trkpt><trkpt lat="45.6379655" lon="11.0848758"><ele>1286.0</ele><time>2026-04-26T12:42:04.783Z</time></trkpt><trkpt lat="45.6378754" lon="11.0849205"><ele>1286.0</ele><time>2026-04-26T12:42:05.783Z</time></trkpt><trkpt lat="45.6377988" lon="11.0850025"><ele>1286.0</ele><time>2026-04-26T12:42:06.782Z</time></trkpt><trkpt lat="45.6377279" lon="11.0851255"><ele>1286.25</ele><time>2026-04-26T12:42:07.783Z</time></trkpt><trkpt lat="45.6376693" lon="11.0852793"><ele>1286.5</ele><time>2026-04-26T12:42:08.782Z</time></trkpt><trkpt lat="45.6376337" lon="11.0854523"><ele>1286.75</ele><time>2026-04-26T12:42:09.782Z</time></trkpt><trkpt lat="45.6376258" lon="11.0856368"><ele>1287.0</ele><time>2026-04-26T12:42:10.782Z</time></trkpt><trkpt lat="45.6376206" lon="11.0858103"><ele>1288.0</ele><time>2026-04-26T12:42:11.783Z</time></trkpt><trkpt lat="45.6375962" lon="11.0859699"><ele>1289.0</ele><time>2026-04-26T12:42:12.783Z</time></trkpt><trkpt lat="45.6375392" lon="11.0861168"><ele>1290.0</ele><time>2026-04-26T12:42:13.783Z</time></trkpt><trkpt lat="45.6374548" lon="11.0862391"><ele>1291.0</ele><time>2026-04-26T12:42:14.782Z</time></trkpt><trkpt lat="45.6373644" lon="11.0863033"><ele>1291.0</ele><time>2026-04-26T12:42:15.782Z</time></trkpt><trkpt lat="45.6372689" lon="11.0863111"><ele>1291.0</ele><time>2026-04-26T12:42:16.781Z</time></trkpt><trkpt lat="45.6371694" lon="11.0862578"><ele>1291.0</ele><time>2026-04-26T12:42:17.782Z</time></trkpt><trkpt lat="45.637071" lon="11.0861449"><ele>1291.0</ele><time>2026-04-26T12:42:18.782Z</time></trkpt><trkpt lat="45.6369653" lon="11.085976"><ele>1290.3333333333333</ele><time>2026-04-26T12:42:19.783Z</time></trkpt><trkpt lat="45.6368452" lon="11.0857821"><ele>1289.6666666666667</ele><time>2026-04-26T12:42:20.783Z</time></trkpt><trkpt lat="45.636723" lon="11.0855904"><ele>1289.0</ele><time>2026-04-26T12:42:21.781Z</time></trkpt><trkpt lat="45.6365975" lon="11.0853935"><ele>1284.3333333333335</ele><time>2026-04-26T12:42:22.782Z</time></trkpt><trkpt lat="45.6364706" lon="11.0852138"><ele>1279.6666666666667</ele><time>2026-04-26T12:42:23.783Z</time></trkpt><trkpt lat="45.6363452" lon="11.0850567"><ele>1275.0</ele><time>2026-04-26T12:42:24.782Z</time></trkpt><trkpt lat="45.6362225" lon="11.0849228"><ele>1273.25</ele><time>2026-04-26T12:42:25.783Z</time></trkpt><trkpt lat="45.6361117" lon="11.0848215"><ele>1271.5</ele><time>2026-04-26T12:42:26.783Z</time></trkpt><trkpt lat="45.6360067" lon="11.0847531"><ele>1269.75</ele><time>2026-04-26T12:42:27.781Z</time></trkpt><trkpt lat="45.6359" lon="11.0847295"><ele>1268.0</ele><time>2026-04-26T12:42:28.781Z</time></trkpt><trkpt lat="45.6357823" lon="11.0847511"><ele>1268.0</ele><time>2026-04-26T12:42:29.782Z</time></trkpt><trkpt lat="45.6356593" lon="11.0848078"><ele>1268.0</ele><time>2026-04-26T12:42:30.783Z</time></trkpt><trkpt lat="45.6355268" lon="11.0849279"><ele>1268.0</ele><time>2026-04-26T12:42:31.782Z</time></trkpt><trkpt lat="45.6353872" lon="11.0851024"><ele>1267.0</ele><time>2026-04-26T12:42:32.783Z</time></trkpt><trkpt lat="45.6352633" lon="11.0852709"><ele>1266.0</ele><time>2026-04-26T12:42:33.782Z</time></trkpt><trkpt lat="45.6351502" lon="11.0854341"><ele>1265.0</ele><time>2026-04-26T12:42:34.783Z</time></trkpt><trkpt lat="45.6350636" lon="11.0856012"><ele>1266.75</ele><time>2026-04-26T12:42:35.781Z</time></trkpt><trkpt lat="45.6350009" lon="11.0857799"><ele>1268.5</ele><time>2026-04-26T12:42:36.782Z</time></trkpt><trkpt lat="45.6349485" lon="11.0859612"><ele>1270.25</ele><time>2026-04-26T12:42:37.783Z</time></trkpt><trkpt lat="45.6348975" lon="11.0861511"><ele>1272.0</ele><time>2026-04-26T12:42:38.782Z</time></trkpt><trkpt lat="45.6348376" lon="11.0863436"><ele>1272.0</ele><time>2026-04-26T12:42:39.783Z</time></trkpt><trkpt lat="45.6347741" lon="11.0865258"><ele>1272.0</ele><time>2026-04-26T12:42:40.782Z</time></trkpt><trkpt lat="45.6347266" lon="11.0867112"><ele>1272.0</ele><time>2026-04-26T12:42:41.781Z</time></trkpt><trkpt lat="45.6346911" lon="11.0868964"><ele>1272.0</ele><time>2026-04-26T12:42:42.781Z</time></trkpt><trkpt lat="45.6346677" lon="11.0870807"><ele>1271.75</ele><time>2026-04-26T12:42:43.781Z</time></trkpt><trkpt lat="45.6346736" lon="11.0872584"><ele>1271.5</ele><time>2026-04-26T12:42:44.783Z</time></trkpt><trkpt lat="45.6347002" lon="11.0874394"><ele>1271.25</ele><time>2026-04-26T12:42:45.782Z</time></trkpt><trkpt lat="45.6347506" lon="11.0876552"><ele>1271.0</ele><time>2026-04-26T12:42:46.782Z</time></trkpt><trkpt lat="45.6348104" lon="11.0878738"><ele>1268.3333333333335</ele><time>2026-04-26T12:42:47.782Z</time></trkpt><trkpt lat="45.6348558" lon="11.0880878"><ele>1265.6666666666667</ele><time>2026-04-26T12:42:48.782Z</time></trkpt><trkpt lat="45.6348795" lon="11.0883079"><ele>1263.0</ele><time>2026-04-26T12:42:49.783Z</time></trkpt><trkpt lat="45.634876" lon="11.0885267"><ele>1261.5</ele><time>2026-04-26T12:42:50.783Z</time></trkpt><trkpt lat="45.6348477" lon="11.0887417"><ele>1260.0</ele><time>2026-04-26T12:42:51.781Z</time></trkpt><trkpt lat="45.6348095" lon="11.0889232"><ele>1258.5</ele><time>2026-04-26T12:42:52.782Z</time></trkpt><trkpt lat="45.6347642" lon="11.0890705"><ele>1257.0</ele><time>2026-04-26T12:42:53.782Z</time></trkpt><trkpt lat="45.6347128" lon="11.0891852"><ele>1257.0</ele><time>2026-04-26T12:42:54.782Z</time></trkpt><trkpt lat="45.6346562" lon="11.089259"><ele>1257.0</ele><time>2026-04-26T12:42:55.782Z</time></trkpt><trkpt lat="45.6345861" lon="11.0892955"><ele>1257.0</ele><time>2026-04-26T12:42:56.782Z</time></trkpt><trkpt lat="45.6345004" lon="11.089287"><ele>1257.0</ele><time>2026-04-26T12:42:57.781Z</time></trkpt><trkpt lat="45.634403" lon="11.0892249"><ele>1257.0</ele><time>2026-04-26T12:42:58.782Z</time></trkpt><trkpt lat="45.63429" lon="11.0891248"><ele>1251.75</ele><time>2026-04-26T12:42:59.782Z</time></trkpt><trkpt lat="45.6341746" lon="11.0890219"><ele>1246.5</ele><time>2026-04-26T12:43:00.782Z</time></trkpt><trkpt lat="45.6340482" lon="11.0889278"><ele>1241.25</ele><time>2026-04-26T12:43:01.783Z</time></trkpt><trkpt lat="45.6338967" lon="11.0888658"><ele>1236.0</ele><time>2026-04-26T12:43:02.782Z</time></trkpt><trkpt lat="45.633729" lon="11.0888328"><ele>1231.6666666666667</ele><time>2026-04-26T12:43:03.782Z</time></trkpt><trkpt lat="45.6335621" lon="11.0888026"><ele>1227.3333333333335</ele><time>2026-04-26T12:43:04.782Z</time></trkpt><trkpt lat="45.6333841" lon="11.0887333"><ele>1223.0</ele><time>2026-04-26T12:43:05.782Z</time></trkpt><trkpt lat="45.6332071" lon="11.088628"><ele>1223.0</ele><time>2026-04-26T12:43:06.782Z</time></trkpt><trkpt lat="45.6330254" lon="11.088502"><ele>1223.0</ele><time>2026-04-26T12:43:07.782Z</time></trkpt><trkpt lat="45.6328416" lon="11.0883835"><ele>1223.0</ele><time>2026-04-26T12:43:08.782Z</time></trkpt><trkpt lat="45.6326405" lon="11.0882744"><ele>1216.6666666666667</ele><time>2026-04-26T12:43:09.781Z</time></trkpt><trkpt lat="45.6324363" lon="11.0881816"><ele>1210.3333333333333</ele><time>2026-04-26T12:43:10.783Z</time></trkpt><trkpt lat="45.6322244" lon="11.0880984"><ele>1204.0</ele><time>2026-04-26T12:43:11.781Z</time></trkpt><trkpt lat="45.6320128" lon="11.0880219"><ele>1204.3333333333333</ele><time>2026-04-26T12:43:12.781Z</time></trkpt><trkpt lat="45.631799" lon="11.0879541"><ele>1204.6666666666667</ele><time>2026-04-26T12:43:13.782Z</time></trkpt><trkpt lat="45.6315763" lon="11.0878934"><ele>1205.0</ele><time>2026-04-26T12:43:14.781Z</time></trkpt><trkpt lat="45.6313504" lon="11.0878335"><ele>1202.3333333333335</ele><time>2026-04-26T12:43:15.782Z</time></trkpt><trkpt lat="45.631132" lon="11.0877733"><ele>1199.6666666666667</ele><time>2026-04-26T12:43:16.782Z</time></trkpt><trkpt lat="45.6309197" lon="11.0877185"><ele>1197.0</ele><time>2026-04-26T12:43:17.782Z</time></trkpt><trkpt lat="45.6307118" lon="11.0876652"><ele>1197.0</ele><time>2026-04-26T12:43:18.781Z</time></trkpt><trkpt lat="45.6305121" lon="11.0876166"><ele>1197.0</ele><time>2026-04-26T12:43:19.782Z</time></trkpt><trkpt lat="45.6303282" lon="11.0875778"><ele>1197.0</ele><time>2026-04-26T12:43:20.782Z</time></trkpt><trkpt lat="45.6301494" lon="11.087551"><ele>1194.0</ele><time>2026-04-26T12:43:21.782Z</time></trkpt><trkpt lat="45.6299724" lon="11.0875391"><ele>1191.0</ele><time>2026-04-26T12:43:22.782Z</time></trkpt><trkpt lat="45.6297975" lon="11.087538"><ele>1188.0</ele><time>2026-04-26T12:43:23.783Z</time></trkpt><trkpt lat="45.6296238" lon="11.0875447"><ele>1185.0</ele><time>2026-04-26T12:43:24.782Z</time></trkpt><trkpt lat="45.6294525" lon="11.0875562"><ele>1182.0</ele><time>2026-04-26T12:43:25.782Z</time></trkpt><trkpt lat="45.6292845" lon="11.0875696"><ele>1179.0</ele><time>2026-04-26T12:43:26.782Z</time></trkpt><trkpt lat="45.6291308" lon="11.0875895"><ele>1179.0</ele><time>2026-04-26T12:43:27.781Z</time></trkpt><trkpt lat="45.6289905" lon="11.0876156"><ele>1179.0</ele><time>2026-04-26T12:43:28.782Z</time></trkpt><trkpt lat="45.6288655" lon="11.0876518"><ele>1179.0</ele><time>2026-04-26T12:43:29.783Z</time></trkpt><trkpt lat="45.6287467" lon="11.0877078"><ele>1179.0</ele><time>2026-04-26T12:43:30.782Z</time></trkpt><trkpt lat="45.6286334" lon="11.0877841"><ele>1177.75</ele><time>2026-04-26T12:43:31.781Z</time></trkpt><trkpt lat="45.6285237" lon="11.0878721"><ele>1176.5</ele><time>2026-04-26T12:43:32.783Z</time></trkpt><trkpt lat="45.6284152" lon="11.0879633"><ele>1175.25</ele><time>2026-04-26T12:43:33.782Z</time></trkpt><trkpt lat="45.6283024" lon="11.0880535"><ele>1174.0</ele><time>2026-04-26T12:43:34.782Z</time></trkpt><trkpt lat="45.6281838" lon="11.0881324"><ele>1174.0</ele><time>2026-04-26T12:43:35.783Z</time></trkpt><trkpt lat="45.628057" lon="11.0881886"><ele>1174.0</ele><time>2026-04-26T12:43:36.783Z</time></trkpt><trkpt lat="45.6279258" lon="11.0882192"><ele>1174.0</ele><time>2026-04-26T12:43:37.783Z</time></trkpt><trkpt lat="45.6278004" lon="11.0882391"><ele>1174.0</ele><time>2026-04-26T12:43:38.781Z</time></trkpt><trkpt lat="45.6276896" lon="11.0882532"><ele>1173.0</ele><time>2026-04-26T12:43:39.782Z</time></trkpt><trkpt lat="45.6275973" lon="11.0882648"><ele>1172.0</ele><time>2026-04-26T12:43:40.782Z</time></trkpt><trkpt lat="45.6275143" lon="11.0882749"><ele>1171.0</ele><time>2026-04-26T12:43:41.782Z</time></trkpt><trkpt lat="45.6274412" lon="11.0882842"><ele>1170.0</ele><time>2026-04-26T12:43:42.782Z</time></trkpt><trkpt lat="45.6273751" lon="11.0882928"><ele>1169.0</ele><time>2026-04-26T12:43:43.781Z</time></trkpt><trkpt lat="45.6272573" lon="11.0883001"><ele>1168.0</ele><time>2026-04-26T12:43:45.782Z</time></trkpt><trkpt lat="45.6271748" lon="11.0882804"><ele>1168.1666666666665</ele><time>2026-04-26T12:43:47.783Z</time></trkpt><trkpt lat="45.6271135" lon="11.0882285"><ele>1168.3333333333333</ele><time>2026-04-26T12:43:50.781Z</time></trkpt><trkpt lat="45.6270604" lon="11.0881476"><ele>1168.5</ele><time>2026-04-26T12:44:21.782Z</time></trkpt><trkpt lat="45.6270335" lon="11.0880488"><ele>1168.6666666666667</ele><time>2026-04-26T12:44:23.783Z</time></trkpt><trkpt lat="45.6270218" lon="11.0878732"><ele>1168.8333333333335</ele><time>2026-04-26T12:44:25.783Z</time></trkpt><trkpt lat="45.6270168" lon="11.0877755"><ele>1169.0</ele><time>2026-04-26T12:44:26.783Z</time></trkpt><trkpt lat="45.6270101" lon="11.0876599"><ele>1169.0</ele><time>2026-04-26T12:44:27.783Z</time></trkpt><trkpt lat="45.6269943" lon="11.087536"><ele>1169.0</ele><time>2026-04-26T12:44:28.782Z</time></trkpt><trkpt lat="45.6269679" lon="11.0874072"><ele>1169.0</ele><time>2026-04-26T12:44:29.782Z</time></trkpt><trkpt lat="45.6269387" lon="11.0872916"><ele>1169.0</ele><time>2026-04-26T12:44:30.783Z</time></trkpt><trkpt lat="45.6269013" lon="11.0871745"><ele>1169.0</ele><time>2026-04-26T12:44:31.782Z</time></trkpt><trkpt lat="45.6268602" lon="11.0870691"><ele>1169.0</ele><time>2026-04-26T12:44:32.782Z</time></trkpt><trkpt lat="45.626817" lon="11.0869739"><ele>1167.6000000000001</ele><time>2026-04-26T12:44:33.782Z</time></trkpt><trkpt lat="45.6267683" lon="11.0868758"><ele>1166.2</ele><time>2026-04-26T12:44:34.783Z</time></trkpt><trkpt lat="45.6267155" lon="11.0867634"><ele>1164.8000000000002</ele><time>2026-04-26T12:44:35.783Z</time></trkpt><trkpt lat="45.6266599" lon="11.0866438"><ele>1163.4</ele><time>2026-04-26T12:44:36.783Z</time></trkpt><trkpt lat="45.6265966" lon="11.0865133"><ele>1162.0</ele><time>2026-04-26T12:44:37.781Z</time></trkpt><trkpt lat="45.626524" lon="11.0863708"><ele>1162.0</ele><time>2026-04-26T12:44:38.783Z</time></trkpt><trkpt lat="45.6264513" lon="11.086224"><ele>1162.0</ele><time>2026-04-26T12:44:39.783Z</time></trkpt><trkpt lat="45.6263819" lon="11.0860758"><ele>1162.0</ele><time>2026-04-26T12:44:40.782Z</time></trkpt><trkpt lat="45.6263209" lon="11.0859078"><ele>1162.0</ele><time>2026-04-26T12:44:41.781Z</time></trkpt><trkpt lat="45.626279" lon="11.085728"><ele>1164.6666666666665</ele><time>2026-04-26T12:44:42.782Z</time></trkpt><trkpt lat="45.626251" lon="11.0855307"><ele>1167.3333333333333</ele><time>2026-04-26T12:44:43.782Z</time></trkpt><trkpt lat="45.626231" lon="11.0853041"><ele>1170.0</ele><time>2026-04-26T12:44:44.783Z</time></trkpt><trkpt lat="45.6262158" lon="11.0850706"><ele>1171.0</ele><time>2026-04-26T12:44:45.782Z</time></trkpt><trkpt lat="45.6262016" lon="11.0848106"><ele>1172.0</ele><time>2026-04-26T12:44:46.782Z</time></trkpt><trkpt lat="45.6261905" lon="11.0845288"><ele>1173.0</ele><time>2026-04-26T12:44:47.783Z</time></trkpt><trkpt lat="45.626172" lon="11.0842541"><ele>1172.3333333333333</ele><time>2026-04-26T12:44:48.783Z</time></trkpt><trkpt lat="45.6261558" lon="11.0839781"><ele>1171.6666666666665</ele><time>2026-04-26T12:44:49.783Z</time></trkpt><trkpt lat="45.6261362" lon="11.0836908"><ele>1171.0</ele><time>2026-04-26T12:44:50.782Z</time></trkpt><trkpt lat="45.6261126" lon="11.0833966"><ele>1161.6666666666665</ele><time>2026-04-26T12:44:51.781Z</time></trkpt><trkpt lat="45.626084" lon="11.0830718"><ele>1152.3333333333333</ele><time>2026-04-26T12:44:52.783Z</time></trkpt><trkpt lat="45.6260553" lon="11.0827635"><ele>1143.0</ele><time>2026-04-26T12:44:53.783Z</time></trkpt><trkpt lat="45.6260235" lon="11.082445"><ele>1139.5</ele><time>2026-04-26T12:44:54.782Z</time></trkpt><trkpt lat="45.6259883" lon="11.0821187"><ele>1136.0</ele><time>2026-04-26T12:44:55.781Z</time></trkpt><trkpt lat="45.6259529" lon="11.0817897"><ele>1134.5</ele><time>2026-04-26T12:44:56.782Z</time></trkpt><trkpt lat="45.6259191" lon="11.0814643"><ele>1133.0</ele><time>2026-04-26T12:44:57.782Z</time></trkpt><trkpt lat="45.625885" lon="11.08115"><ele>1133.0</ele><time>2026-04-26T12:44:58.783Z</time></trkpt><trkpt lat="45.6258524" lon="11.0808485"><ele>1133.0</ele><time>2026-04-26T12:44:59.783Z</time></trkpt><trkpt lat="45.6258212" lon="11.0805613"><ele>1133.0</ele><time>2026-04-26T12:45:00.781Z</time></trkpt><trkpt lat="45.6257927" lon="11.080296"><ele>1133.0</ele><time>2026-04-26T12:45:01.783Z</time></trkpt><trkpt lat="45.6257652" lon="11.080043"><ele>1133.0</ele><time>2026-04-26T12:45:02.782Z</time></trkpt><trkpt lat="45.6257411" lon="11.0798029"><ele>1133.0</ele><time>2026-04-26T12:45:03.782Z</time></trkpt><trkpt lat="45.6257202" lon="11.0795724"><ele>1132.0</ele><time>2026-04-26T12:45:04.783Z</time></trkpt><trkpt lat="45.6257001" lon="11.0793408"><ele>1131.0</ele><time>2026-04-26T12:45:05.782Z</time></trkpt><trkpt lat="45.6256801" lon="11.0791027"><ele>1130.0</ele><time>2026-04-26T12:45:06.783Z</time></trkpt><trkpt lat="45.6256639" lon="11.0788593"><ele>1130.0</ele><time>2026-04-26T12:45:07.782Z</time></trkpt><trkpt lat="45.6256575" lon="11.0786172"><ele>1130.0</ele><time>2026-04-26T12:45:08.781Z</time></trkpt><trkpt lat="45.6256545" lon="11.0783831"><ele>1130.0</ele><time>2026-04-26T12:45:09.782Z</time></trkpt><trkpt lat="45.6256496" lon="11.0781529"><ele>1128.3333333333335</ele><time>2026-04-26T12:45:10.782Z</time></trkpt><trkpt lat="45.625646" lon="11.077925"><ele>1126.6666666666667</ele><time>2026-04-26T12:45:11.782Z</time></trkpt><trkpt lat="45.6256446" lon="11.0776984"><ele>1125.0</ele><time>2026-04-26T12:45:12.783Z</time></trkpt><trkpt lat="45.6256447" lon="11.0774761"><ele>1124.0</ele><time>2026-04-26T12:45:13.781Z</time></trkpt><trkpt lat="45.6256468" lon="11.0772683"><ele>1123.0</ele><time>2026-04-26T12:45:14.782Z</time></trkpt><trkpt lat="45.6256489" lon="11.077076"><ele>1122.0</ele><time>2026-04-26T12:45:15.782Z</time></trkpt><trkpt lat="45.6256617" lon="11.0769037"><ele>1121.0</ele><time>2026-04-26T12:45:16.783Z</time></trkpt><trkpt lat="45.6257069" lon="11.0767398"><ele>1119.0</ele><time>2026-04-26T12:45:17.783Z</time></trkpt><trkpt lat="45.6257923" lon="11.0765885"><ele>1117.0</ele><time>2026-04-26T12:45:18.783Z</time></trkpt><trkpt lat="45.6258922" lon="11.0764397"><ele>1115.0</ele><time>2026-04-26T12:45:19.783Z</time></trkpt><trkpt lat="45.6259879" lon="11.076306"><ele>1113.0</ele><time>2026-04-26T12:45:20.783Z</time></trkpt><trkpt lat="45.626057" lon="11.0761758"><ele>1113.0</ele><time>2026-04-26T12:45:21.783Z</time></trkpt><trkpt lat="45.6261149" lon="11.0760262"><ele>1113.0</ele><time>2026-04-26T12:45:22.782Z</time></trkpt><trkpt lat="45.6261416" lon="11.0758417"><ele>1113.0</ele><time>2026-04-26T12:45:23.782Z</time></trkpt><trkpt lat="45.6261473" lon="11.0756392"><ele>1113.0</ele><time>2026-04-26T12:45:24.782Z</time></trkpt><trkpt lat="45.6261422" lon="11.0754094"><ele>1111.3333333333333</ele><time>2026-04-26T12:45:25.781Z</time></trkpt><trkpt lat="45.6261287" lon="11.0751696"><ele>1109.6666666666665</ele><time>2026-04-26T12:45:26.782Z</time></trkpt><trkpt lat="45.626122" lon="11.0749548"><ele>1108.0</ele><time>2026-04-26T12:45:27.782Z</time></trkpt><trkpt lat="45.6261293" lon="11.0747573"><ele>1109.0</ele><time>2026-04-26T12:45:28.783Z</time></trkpt><trkpt lat="45.6261561" lon="11.0745603"><ele>1110.0</ele><time>2026-04-26T12:45:29.782Z</time></trkpt><trkpt lat="45.6261999" lon="11.0743436"><ele>1111.0</ele><time>2026-04-26T12:45:30.783Z</time></trkpt><trkpt lat="45.6262531" lon="11.0741147"><ele>1108.0</ele><time>2026-04-26T12:45:31.781Z</time></trkpt><trkpt lat="45.626309" lon="11.0738821"><ele>1105.0</ele><time>2026-04-26T12:45:32.782Z</time></trkpt><trkpt lat="45.6263632" lon="11.0736621"><ele>1102.0</ele><time>2026-04-26T12:45:33.781Z</time></trkpt><trkpt lat="45.6264118" lon="11.0734649"><ele>1102.0</ele><time>2026-04-26T12:45:34.781Z</time></trkpt><trkpt lat="45.6264553" lon="11.0732796"><ele>1102.0</ele><time>2026-04-26T12:45:35.783Z</time></trkpt><trkpt lat="45.6264989" lon="11.0730959"><ele>1102.0</ele><time>2026-04-26T12:45:36.782Z</time></trkpt><trkpt lat="45.6265407" lon="11.0729213"><ele>1102.0</ele><time>2026-04-26T12:45:37.783Z</time></trkpt><trkpt lat="45.6265831" lon="11.0727494"><ele>1100.75</ele><time>2026-04-26T12:45:38.781Z</time></trkpt><trkpt lat="45.6266259" lon="11.0725776"><ele>1099.5</ele><time>2026-04-26T12:45:39.783Z</time></trkpt><trkpt lat="45.6266739" lon="11.0723888"><ele>1098.25</ele><time>2026-04-26T12:45:40.781Z</time></trkpt><trkpt lat="45.6267166" lon="11.0722048"><ele>1097.0</ele><time>2026-04-26T12:45:41.783Z</time></trkpt><trkpt lat="45.6267603" lon="11.072026"><ele>1097.0</ele><time>2026-04-26T12:45:42.782Z</time></trkpt><trkpt lat="45.6268086" lon="11.0718595"><ele>1097.0</ele><time>2026-04-26T12:45:43.781Z</time></trkpt><trkpt lat="45.6268637" lon="11.0717197"><ele>1097.0</ele><time>2026-04-26T12:45:44.781Z</time></trkpt><trkpt lat="45.6269339" lon="11.0716071"><ele>1097.0</ele><time>2026-04-26T12:45:45.783Z</time></trkpt><trkpt lat="45.6270199" lon="11.0715316"><ele>1097.0</ele><time>2026-04-26T12:45:46.783Z</time></trkpt><trkpt lat="45.6271278" lon="11.0714846"><ele>1098.6666666666667</ele><time>2026-04-26T12:45:47.782Z</time></trkpt><trkpt lat="45.6272553" lon="11.0714501"><ele>1100.3333333333333</ele><time>2026-04-26T12:45:48.782Z</time></trkpt><trkpt lat="45.6274154" lon="11.0714259"><ele>1102.0</ele><time>2026-04-26T12:45:49.782Z</time></trkpt><trkpt lat="45.6275955" lon="11.0713931"><ele>1102.0</ele><time>2026-04-26T12:45:50.782Z</time></trkpt><trkpt lat="45.6277725" lon="11.0713635"><ele>1102.0</ele><time>2026-04-26T12:45:51.782Z</time></trkpt><trkpt lat="45.6279446" lon="11.0713409"><ele>1102.0</ele><time>2026-04-26T12:45:52.782Z</time></trkpt><trkpt lat="45.6281139" lon="11.0713226"><ele>1102.6666666666665</ele><time>2026-04-26T12:45:53.782Z</time></trkpt><trkpt lat="45.6282832" lon="11.0713142"><ele>1103.3333333333333</ele><time>2026-04-26T12:45:54.783Z</time></trkpt><trkpt lat="45.6284539" lon="11.0713231"><ele>1104.0</ele><time>2026-04-26T12:45:55.782Z</time></trkpt><trkpt lat="45.6286332" lon="11.0713597"><ele>1096.0</ele><time>2026-04-26T12:45:56.783Z</time></trkpt><trkpt lat="45.6288251" lon="11.0714351"><ele>1088.0</ele><time>2026-04-26T12:45:57.782Z</time></trkpt><trkpt lat="45.6290038" lon="11.0715108"><ele>1080.0</ele><time>2026-04-26T12:45:58.783Z</time></trkpt><trkpt lat="45.6291675" lon="11.0715786"><ele>1081.0</ele><time>2026-04-26T12:45:59.782Z</time></trkpt><trkpt lat="45.629307" lon="11.0716319"><ele>1082.0</ele><time>2026-04-26T12:46:00.783Z</time></trkpt><trkpt lat="45.6294395" lon="11.0716606"><ele>1083.0</ele><time>2026-04-26T12:46:01.782Z</time></trkpt><trkpt lat="45.629569" lon="11.0716618"><ele>1084.0</ele><time>2026-04-26T12:46:02.782Z</time></trkpt><trkpt lat="45.6296902" lon="11.0716473"><ele>1084.8</ele><time>2026-04-26T12:46:03.782Z</time></trkpt><trkpt lat="45.6297906" lon="11.0716134"><ele>1085.6000000000001</ele><time>2026-04-26T12:46:04.782Z</time></trkpt><trkpt lat="45.6298756" lon="11.0715491"><ele>1086.4</ele><time>2026-04-26T12:46:05.782Z</time></trkpt><trkpt lat="45.6299522" lon="11.0714486"><ele>1087.2</ele><time>2026-04-26T12:46:06.782Z</time></trkpt><trkpt lat="45.6300354" lon="11.0713247"><ele>1088.0</ele><time>2026-04-26T12:46:07.783Z</time></trkpt><trkpt lat="45.6301363" lon="11.0712052"><ele>1084.3333333333335</ele><time>2026-04-26T12:46:08.783Z</time></trkpt><trkpt lat="45.6302599" lon="11.0710853"><ele>1080.6666666666667</ele><time>2026-04-26T12:46:09.781Z</time></trkpt><trkpt lat="45.6304001" lon="11.0709687"><ele>1077.0</ele><time>2026-04-26T12:46:10.782Z</time></trkpt><trkpt lat="45.6305439" lon="11.0708582"><ele>1065.6666666666667</ele><time>2026-04-26T12:46:11.783Z</time></trkpt><trkpt lat="45.6306898" lon="11.070742"><ele>1054.3333333333335</ele><time>2026-04-26T12:46:12.782Z</time></trkpt><trkpt lat="45.6308371" lon="11.0706295"><ele>1043.0</ele><time>2026-04-26T12:46:13.781Z</time></trkpt><trkpt lat="45.6309858" lon="11.0705183"><ele>1049.3333333333335</ele><time>2026-04-26T12:46:14.783Z</time></trkpt><trkpt lat="45.6311497" lon="11.0704147"><ele>1055.6666666666667</ele><time>2026-04-26T12:46:15.783Z</time></trkpt><trkpt lat="45.6313268" lon="11.0702994"><ele>1062.0</ele><time>2026-04-26T12:46:16.782Z</time></trkpt><trkpt lat="45.6315119" lon="11.0701821"><ele>1062.0</ele><time>2026-04-26T12:46:17.782Z</time></trkpt><trkpt lat="45.6317311" lon="11.0700614"><ele>1062.0</ele><time>2026-04-26T12:46:18.783Z</time></trkpt><trkpt lat="45.6319468" lon="11.0699561"><ele>1054.3333333333333</ele><time>2026-04-26T12:46:19.782Z</time></trkpt><trkpt lat="45.632155" lon="11.069855"><ele>1046.6666666666665</ele><time>2026-04-26T12:46:20.782Z</time></trkpt><trkpt lat="45.6323556" lon="11.0697514"><ele>1039.0</ele><time>2026-04-26T12:46:21.783Z</time></trkpt><trkpt lat="45.6325457" lon="11.0696406"><ele>1039.0</ele><time>2026-04-26T12:46:22.782Z</time></trkpt><trkpt lat="45.6327283" lon="11.0695305"><ele>1039.0</ele><time>2026-04-26T12:46:23.783Z</time></trkpt><trkpt lat="45.6328981" lon="11.0694237"><ele>1039.0</ele><time>2026-04-26T12:46:24.783Z</time></trkpt><trkpt lat="45.6330686" lon="11.0693261"><ele>1045.3333333333333</ele><time>2026-04-26T12:46:25.783Z</time></trkpt><trkpt lat="45.6332213" lon="11.0692501"><ele>1051.6666666666667</ele><time>2026-04-26T12:46:26.782Z</time></trkpt><trkpt lat="45.6333812" lon="11.0691625"><ele>1058.0</ele><time>2026-04-26T12:46:27.782Z</time></trkpt><trkpt lat="45.6335402" lon="11.0690836"><ele>1049.75</ele><time>2026-04-26T12:46:28.783Z</time></trkpt><trkpt lat="45.6336913" lon="11.0690092"><ele>1041.5</ele><time>2026-04-26T12:46:29.783Z</time></trkpt><trkpt lat="45.633825" lon="11.0689534"><ele>1033.25</ele><time>2026-04-26T12:46:30.782Z</time></trkpt><trkpt lat="45.633945" lon="11.0689306"><ele>1025.0</ele><time>2026-04-26T12:46:31.782Z</time></trkpt><trkpt lat="45.6340568" lon="11.0689261"><ele>1025.0</ele><time>2026-04-26T12:46:32.781Z</time></trkpt><trkpt lat="45.6341688" lon="11.0689391"><ele>1025.0</ele><time>2026-04-26T12:46:33.782Z</time></trkpt><trkpt lat="45.6342875" lon="11.0689701"><ele>1025.0</ele><time>2026-04-26T12:46:34.783Z</time></trkpt><trkpt lat="45.6343975" lon="11.0690126"><ele>1025.0</ele><time>2026-04-26T12:46:35.783Z</time></trkpt><trkpt lat="45.6345011" lon="11.0690546"><ele>1028.8</ele><time>2026-04-26T12:46:36.781Z</time></trkpt><trkpt lat="45.6346059" lon="11.0690744"><ele>1032.6</ele><time>2026-04-26T12:46:37.782Z</time></trkpt><trkpt lat="45.6346961" lon="11.0690544"><ele>1036.4</ele><time>2026-04-26T12:46:38.783Z</time></trkpt><trkpt lat="45.6347837" lon="11.0689957"><ele>1040.2</ele><time>2026-04-26T12:46:39.783Z</time></trkpt><trkpt lat="45.6348634" lon="11.0689086"><ele>1044.0</ele><time>2026-04-26T12:46:40.781Z</time></trkpt><trkpt lat="45.6349299" lon="11.0687845"><ele>1044.0</ele><time>2026-04-26T12:46:41.782Z</time></trkpt><trkpt lat="45.6349939" lon="11.0686172"><ele>1044.0</ele><time>2026-04-26T12:46:42.782Z</time></trkpt><trkpt lat="45.6350638" lon="11.0683967"><ele>1044.0</ele><time>2026-04-26T12:46:43.783Z</time></trkpt><trkpt lat="45.6351284" lon="11.0681695"><ele>1036.3333333333333</ele><time>2026-04-26T12:46:44.783Z</time></trkpt><trkpt lat="45.6351903" lon="11.0679462"><ele>1028.6666666666665</ele><time>2026-04-26T12:46:45.783Z</time></trkpt><trkpt lat="45.6352497" lon="11.0677343"><ele>1021.0</ele><time>2026-04-26T12:46:46.781Z</time></trkpt><trkpt lat="45.6353019" lon="11.0675479"><ele>1022.8</ele><time>2026-04-26T12:46:47.783Z</time></trkpt><trkpt lat="45.6353564" lon="11.0673805"><ele>1024.6</ele><time>2026-04-26T12:46:48.782Z</time></trkpt><trkpt lat="45.6354136" lon="11.0672425"><ele>1026.4</ele><time>2026-04-26T12:46:49.782Z</time></trkpt><trkpt lat="45.6354847" lon="11.0671422"><ele>1028.2</ele><time>2026-04-26T12:46:50.782Z</time></trkpt><trkpt lat="45.6355625" lon="11.0670718"><ele>1030.0</ele><time>2026-04-26T12:46:51.782Z</time></trkpt><trkpt lat="45.6356611" lon="11.0670501"><ele>1030.0</ele><time>2026-04-26T12:46:52.782Z</time></trkpt><trkpt lat="45.6357804" lon="11.0670587"><ele>1030.0</ele><time>2026-04-26T12:46:53.783Z</time></trkpt><trkpt lat="45.6358908" lon="11.0670463"><ele>1030.0</ele><time>2026-04-26T12:46:54.782Z</time></trkpt><trkpt lat="45.6359883" lon="11.0670084"><ele>1030.0</ele><time>2026-04-26T12:46:55.783Z</time></trkpt><trkpt lat="45.6360873" lon="11.0669288"><ele>1030.0</ele><time>2026-04-26T12:46:56.782Z</time></trkpt><trkpt lat="45.6361906" lon="11.0668032"><ele>1031.25</ele><time>2026-04-26T12:46:57.781Z</time></trkpt><trkpt lat="45.6363054" lon="11.0666578"><ele>1032.5</ele><time>2026-04-26T12:46:58.783Z</time></trkpt><trkpt lat="45.636409" lon="11.0665298"><ele>1033.75</ele><time>2026-04-26T12:46:59.783Z</time></trkpt><trkpt lat="45.6365291" lon="11.0664315"><ele>1035.0</ele><time>2026-04-26T12:47:00.781Z</time></trkpt><trkpt lat="45.6366275" lon="11.0663592"><ele>1035.0</ele><time>2026-04-26T12:47:01.782Z</time></trkpt><trkpt lat="45.6367135" lon="11.0662949"><ele>1035.0</ele><time>2026-04-26T12:47:02.782Z</time></trkpt><trkpt lat="45.6367731" lon="11.0662052"><ele>1035.0</ele><time>2026-04-26T12:47:03.783Z</time></trkpt><trkpt lat="45.6368165" lon="11.0661124"><ele>1035.0</ele><time>2026-04-26T12:47:04.781Z</time></trkpt><trkpt lat="45.6368211" lon="11.0659903"><ele>1035.0</ele><time>2026-04-26T12:47:05.782Z</time></trkpt><trkpt lat="45.636796" lon="11.0658609"><ele>1035.0</ele><time>2026-04-26T12:47:06.782Z</time></trkpt><trkpt lat="45.636744" lon="11.0657145"><ele>1034.6666666666667</ele><time>2026-04-26T12:47:07.782Z</time></trkpt><trkpt lat="45.6366625" lon="11.0655367"><ele>1034.3333333333335</ele><time>2026-04-26T12:47:08.782Z</time></trkpt><trkpt lat="45.6365681" lon="11.0653433"><ele>1034.0</ele><time>2026-04-26T12:47:09.783Z</time></trkpt><trkpt lat="45.636483" lon="11.0651729"><ele>1034.0</ele><time>2026-04-26T12:47:10.782Z</time></trkpt><trkpt lat="45.6364054" lon="11.0650079"><ele>1034.0</ele><time>2026-04-26T12:47:11.782Z</time></trkpt><trkpt lat="45.6363456" lon="11.0648483"><ele>1034.0</ele><time>2026-04-26T12:47:12.781Z</time></trkpt><trkpt lat="45.6363117" lon="11.0646885"><ele>1034.0</ele><time>2026-04-26T12:47:13.782Z</time></trkpt><trkpt lat="45.6362973" lon="11.064526"><ele>1033.0</ele><time>2026-04-26T12:47:14.783Z</time></trkpt><trkpt lat="45.6363164" lon="11.0643668"><ele>1032.0</ele><time>2026-04-26T12:47:15.782Z</time></trkpt><trkpt lat="45.6363586" lon="11.0641929"><ele>1031.0</ele><time>2026-04-26T12:47:16.782Z</time></trkpt><trkpt lat="45.6364255" lon="11.0640098"><ele>1030.0</ele><time>2026-04-26T12:47:17.782Z</time></trkpt><trkpt lat="45.6364974" lon="11.0638293"><ele>1026.25</ele><time>2026-04-26T12:47:18.783Z</time></trkpt><trkpt lat="45.6365726" lon="11.0636621"><ele>1022.5</ele><time>2026-04-26T12:47:19.783Z</time></trkpt><trkpt lat="45.6366489" lon="11.0635035"><ele>1018.75</ele><time>2026-04-26T12:47:20.782Z</time></trkpt><trkpt lat="45.6366976" lon="11.0633742"><ele>1015.0</ele><time>2026-04-26T12:47:21.782Z</time></trkpt><trkpt lat="45.6367519" lon="11.0632637"><ele>1012.2</ele><time>2026-04-26T12:47:22.783Z</time></trkpt><trkpt lat="45.6367987" lon="11.0631624"><ele>1009.4</ele><time>2026-04-26T12:47:23.782Z</time></trkpt><trkpt lat="45.6368659" lon="11.0630415"><ele>1006.5999999999999</ele><time>2026-04-26T12:47:25.782Z</time></trkpt><trkpt lat="45.6369231" lon="11.0629352"><ele>1003.8</ele><time>2026-04-26T12:47:27.783Z</time></trkpt><trkpt lat="45.6369987" lon="11.0627865"><ele>1001.0</ele><time>2026-04-26T12:47:29.782Z</time></trkpt><trkpt lat="45.637045" lon="11.06269"><ele>1002.4</ele><time>2026-04-26T12:47:30.782Z</time></trkpt><trkpt lat="45.6371007" lon="11.0625739"><ele>1003.8</ele><time>2026-04-26T12:47:31.782Z</time></trkpt><trkpt lat="45.6371588" lon="11.0624489"><ele>1005.1999999999999</ele><time>2026-04-26T12:47:32.782Z</time></trkpt><trkpt lat="45.6372141" lon="11.062316"><ele>1006.5999999999999</ele><time>2026-04-26T12:47:33.781Z</time></trkpt><trkpt lat="45.6372668" lon="11.0621798"><ele>1008.0</ele><time>2026-04-26T12:47:34.781Z</time></trkpt><trkpt lat="45.6373226" lon="11.0620314"><ele>1008.0</ele><time>2026-04-26T12:47:35.782Z</time></trkpt><trkpt lat="45.637383" lon="11.0618667"><ele>1008.0</ele><time>2026-04-26T12:47:36.781Z</time></trkpt><trkpt lat="45.6374444" lon="11.0617033"><ele>1008.0</ele><time>2026-04-26T12:47:37.783Z</time></trkpt><trkpt lat="45.6375091" lon="11.0615498"><ele>1008.0</ele><time>2026-04-26T12:47:38.781Z</time></trkpt><trkpt lat="45.6375815" lon="11.0613963"><ele>1008.25</ele><time>2026-04-26T12:47:39.782Z</time></trkpt><trkpt lat="45.6376649" lon="11.0612424"><ele>1008.5</ele><time>2026-04-26T12:47:40.781Z</time></trkpt><trkpt lat="45.6377604" lon="11.0611002"><ele>1008.75</ele><time>2026-04-26T12:47:41.783Z</time></trkpt><trkpt lat="45.6378641" lon="11.0609753"><ele>1009.0</ele><time>2026-04-26T12:47:42.781Z</time></trkpt><trkpt lat="45.6379809" lon="11.0608739"><ele>1000.6666666666666</ele><time>2026-04-26T12:47:43.782Z</time></trkpt><trkpt lat="45.6381062" lon="11.0607758"><ele>992.3333333333333</ele><time>2026-04-26T12:47:44.783Z</time></trkpt><trkpt lat="45.6382552" lon="11.060712"><ele>984.0</ele><time>2026-04-26T12:47:45.783Z</time></trkpt><trkpt lat="45.638407" lon="11.0606415"><ele>984.0</ele><time>2026-04-26T12:47:46.782Z</time></trkpt><trkpt lat="45.6385549" lon="11.0605736"><ele>984.0</ele><time>2026-04-26T12:47:47.782Z</time></trkpt><trkpt lat="45.638699" lon="11.0605018"><ele>984.0</ele><time>2026-04-26T12:47:48.782Z</time></trkpt><trkpt lat="45.6388575" lon="11.0604281"><ele>987.6666666666667</ele><time>2026-04-26T12:47:49.783Z</time></trkpt><trkpt lat="45.6390292" lon="11.0603503"><ele>991.3333333333334</ele><time>2026-04-26T12:47:50.783Z</time></trkpt><trkpt lat="45.6392168" lon="11.0602881"><ele>995.0</ele><time>2026-04-26T12:47:51.781Z</time></trkpt><trkpt lat="45.6393882" lon="11.0602355"><ele>998.6666666666667</ele><time>2026-04-26T12:47:52.783Z</time></trkpt><trkpt lat="45.639555" lon="11.0601924"><ele>1002.3333333333333</ele><time>2026-04-26T12:47:53.783Z</time></trkpt><trkpt lat="45.6397222" lon="11.0601607"><ele>1006.0</ele><time>2026-04-26T12:47:54.781Z</time></trkpt><trkpt lat="45.6398914" lon="11.0601323"><ele>1006.0</ele><time>2026-04-26T12:47:55.783Z</time></trkpt><trkpt lat="45.64006" lon="11.0600995"><ele>1006.0</ele><time>2026-04-26T12:47:56.782Z</time></trkpt><trkpt lat="45.6402385" lon="11.0600801"><ele>1006.0</ele><time>2026-04-26T12:47:57.783Z</time></trkpt><trkpt lat="45.6403976" lon="11.0600614"><ele>1005.75</ele><time>2026-04-26T12:47:58.782Z</time></trkpt><trkpt lat="45.6405284" lon="11.0600501"><ele>1005.5</ele><time>2026-04-26T12:47:59.783Z</time></trkpt><trkpt lat="45.6406688" lon="11.0600329"><ele>1005.25</ele><time>2026-04-26T12:48:00.782Z</time></trkpt><trkpt lat="45.6407981" lon="11.0600206"><ele>1005.0</ele><time>2026-04-26T12:48:01.783Z</time></trkpt><trkpt lat="45.6409111" lon="11.0600011"><ele>1005.0</ele><time>2026-04-26T12:48:02.783Z</time></trkpt><trkpt lat="45.6410088" lon="11.0599807"><ele>1005.0</ele><time>2026-04-26T12:48:03.783Z</time></trkpt><trkpt lat="45.6410925" lon="11.0599503"><ele>1005.0</ele><time>2026-04-26T12:48:04.782Z</time></trkpt><trkpt lat="45.6411614" lon="11.0598959"><ele>1005.0</ele><time>2026-04-26T12:48:05.782Z</time></trkpt><trkpt lat="45.6412044" lon="11.05982"><ele>1005.0</ele><time>2026-04-26T12:48:06.783Z</time></trkpt><trkpt lat="45.6412274" lon="11.0597326"><ele>1005.0</ele><time>2026-04-26T12:48:07.783Z</time></trkpt><trkpt lat="45.6412182" lon="11.0596357"><ele>1009.2</ele><time>2026-04-26T12:48:08.781Z</time></trkpt><trkpt lat="45.6411778" lon="11.0595563"><ele>1013.4</ele><time>2026-04-26T12:48:09.782Z</time></trkpt><trkpt lat="45.64111" lon="11.0594896"><ele>1017.5999999999999</ele><time>2026-04-26T12:48:10.782Z</time></trkpt><trkpt lat="45.6410153" lon="11.0594422"><ele>1021.8</ele><time>2026-04-26T12:48:11.783Z</time></trkpt><trkpt lat="45.6409003" lon="11.0593955"><ele>1026.0</ele><time>2026-04-26T12:48:12.783Z</time></trkpt><trkpt lat="45.6407814" lon="11.0593482"><ele>1026.0</ele><time>2026-04-26T12:48:13.782Z</time></trkpt><trkpt lat="45.640641" lon="11.0593137"><ele>1026.0</ele><time>2026-04-26T12:48:14.781Z</time></trkpt><trkpt lat="45.640488" lon="11.0592902"><ele>1026.0</ele><time>2026-04-26T12:48:15.783Z</time></trkpt><trkpt lat="45.6403386" lon="11.05928"><ele>1026.0</ele><time>2026-04-26T12:48:16.783Z</time></trkpt><trkpt lat="45.6401846" lon="11.0592623"><ele>1021.6666666666667</ele><time>2026-04-26T12:48:17.781Z</time></trkpt><trkpt lat="45.6400207" lon="11.0592344"><ele>1017.3333333333334</ele><time>2026-04-26T12:48:18.783Z</time></trkpt><trkpt lat="45.639855" lon="11.0591964"><ele>1013.0</ele><time>2026-04-26T12:48:19.783Z</time></trkpt><trkpt lat="45.6396906" lon="11.0591733"><ele>1013.0</ele><time>2026-04-26T12:48:20.781Z</time></trkpt><trkpt lat="45.6395254" lon="11.0591537"><ele>1013.0</ele><time>2026-04-26T12:48:21.783Z</time></trkpt><trkpt lat="45.6393621" lon="11.0591498"><ele>1013.0</ele><time>2026-04-26T12:48:22.782Z</time></trkpt><trkpt lat="45.6391962" lon="11.0591491"><ele>1011.3333333333334</ele><time>2026-04-26T12:48:23.781Z</time></trkpt><trkpt lat="45.6390285" lon="11.0591492"><ele>1009.6666666666667</ele><time>2026-04-26T12:48:24.782Z</time></trkpt><trkpt lat="45.638858" lon="11.0591361"><ele>1008.0</ele><time>2026-04-26T12:48:25.782Z</time></trkpt><trkpt lat="45.6386846" lon="11.059114"><ele>1022.6666666666667</ele><time>2026-04-26T12:48:26.782Z</time></trkpt><trkpt lat="45.6385046" lon="11.0590951"><ele>1037.3333333333335</ele><time>2026-04-26T12:48:27.782Z</time></trkpt><trkpt lat="45.6383227" lon="11.0590886"><ele>1052.0</ele><time>2026-04-26T12:48:28.782Z</time></trkpt><trkpt lat="45.6381485" lon="11.0590867"><ele>1052.0</ele><time>2026-04-26T12:48:29.782Z</time></trkpt><trkpt lat="45.6379731" lon="11.0590927"><ele>1052.0</ele><time>2026-04-26T12:48:30.782Z</time></trkpt><trkpt lat="45.6377986" lon="11.0591064"><ele>1052.0</ele><time>2026-04-26T12:48:31.781Z</time></trkpt><trkpt lat="45.6376388" lon="11.0591308"><ele>1039.3333333333335</ele><time>2026-04-26T12:48:32.782Z</time></trkpt><trkpt lat="45.6374862" lon="11.0591609"><ele>1026.6666666666667</ele><time>2026-04-26T12:48:33.781Z</time></trkpt><trkpt lat="45.637338" lon="11.0592085"><ele>1014.0</ele><time>2026-04-26T12:48:34.782Z</time></trkpt><trkpt lat="45.6371959" lon="11.0592569"><ele>1014.0</ele><time>2026-04-26T12:48:35.782Z</time></trkpt><trkpt lat="45.6370514" lon="11.0593303"><ele>1014.0</ele><time>2026-04-26T12:48:36.782Z</time></trkpt><trkpt lat="45.636909" lon="11.0594144"><ele>1014.0</ele><time>2026-04-26T12:48:37.783Z</time></trkpt><trkpt lat="45.6367741" lon="11.059472"><ele>1014.0</ele><time>2026-04-26T12:48:38.782Z</time></trkpt><trkpt lat="45.6366455" lon="11.0595304"><ele>1016.75</ele><time>2026-04-26T12:48:39.783Z</time></trkpt><trkpt lat="45.6365132" lon="11.0596004"><ele>1019.5</ele><time>2026-04-26T12:48:40.782Z</time></trkpt><trkpt lat="45.6363846" lon="11.0596728"><ele>1022.25</ele><time>2026-04-26T12:48:41.782Z</time></trkpt><trkpt lat="45.6362541" lon="11.0597455"><ele>1025.0</ele><time>2026-04-26T12:48:42.781Z</time></trkpt><trkpt lat="45.636123" lon="11.0598099"><ele>1019.5</ele><time>2026-04-26T12:48:43.782Z</time></trkpt><trkpt lat="45.635989" lon="11.0598626"><ele>1014.0</ele><time>2026-04-26T12:48:44.783Z</time></trkpt><trkpt lat="45.635851" lon="11.0599075"><ele>1008.5</ele><time>2026-04-26T12:48:45.781Z</time></trkpt><trkpt lat="45.6357161" lon="11.0599354"><ele>1003.0</ele><time>2026-04-26T12:48:46.783Z</time></trkpt><trkpt lat="45.6355785" lon="11.0599721"><ele>1003.0</ele><time>2026-04-26T12:48:47.782Z</time></trkpt><trkpt lat="45.6354423" lon="11.0600149"><ele>1003.0</ele><time>2026-04-26T12:48:48.782Z</time></trkpt><trkpt lat="45.635307" lon="11.0600602"><ele>1003.0</ele><time>2026-04-26T12:48:49.782Z</time></trkpt><trkpt lat="45.6351759" lon="11.0601013"><ele>1003.0</ele><time>2026-04-26T12:48:50.783Z</time></trkpt><trkpt lat="45.6350574" lon="11.060145"><ele>1010.75</ele><time>2026-04-26T12:48:51.783Z</time></trkpt><trkpt lat="45.6349503" lon="11.0602031"><ele>1018.5</ele><time>2026-04-26T12:48:52.782Z</time></trkpt><trkpt lat="45.634852" lon="11.0602834"><ele>1026.25</ele><time>2026-04-26T12:48:53.783Z</time></trkpt><trkpt lat="45.6347625" lon="11.0604034"><ele>1034.0</ele><time>2026-04-26T12:48:54.782Z</time></trkpt><trkpt lat="45.6346748" lon="11.06054"><ele>1034.0</ele><time>2026-04-26T12:48:55.781Z</time></trkpt><trkpt lat="45.6345773" lon="11.0606831"><ele>1034.0</ele><time>2026-04-26T12:48:56.782Z</time></trkpt><trkpt lat="45.6344866" lon="11.0607952"><ele>1034.0</ele><time>2026-04-26T12:48:57.783Z</time></trkpt><trkpt lat="45.6344035" lon="11.0608723"><ele>1034.0</ele><time>2026-04-26T12:48:58.783Z</time></trkpt><trkpt lat="45.6343223" lon="11.0609177"><ele>1034.0</ele><time>2026-04-26T12:48:59.782Z</time></trkpt><trkpt lat="45.634246" lon="11.0609256"><ele>1030.6000000000001</ele><time>2026-04-26T12:49:00.783Z</time></trkpt><trkpt lat="45.6341677" lon="11.0609188"><ele>1027.2</ele><time>2026-04-26T12:49:01.783Z</time></trkpt><trkpt lat="45.6340731" lon="11.0609341"><ele>1023.8000000000001</ele><time>2026-04-26T12:49:02.782Z</time></trkpt><trkpt lat="45.6339763" lon="11.0609618"><ele>1020.4000000000001</ele><time>2026-04-26T12:49:03.781Z</time></trkpt><trkpt lat="45.6338864" lon="11.0610197"><ele>1017.0</ele><time>2026-04-26T12:49:04.782Z</time></trkpt><trkpt lat="45.6337969" lon="11.0610519"><ele>1017.0</ele><time>2026-04-26T12:49:05.782Z</time></trkpt><trkpt lat="45.6337212" lon="11.0610989"><ele>1017.0</ele><time>2026-04-26T12:49:06.781Z</time></trkpt><trkpt lat="45.6336669" lon="11.0611532"><ele>1017.0</ele><time>2026-04-26T12:49:07.782Z</time></trkpt><trkpt lat="45.6336375" lon="11.0612555"><ele>1017.0</ele><time>2026-04-26T12:49:08.782Z</time></trkpt><trkpt lat="45.6335996" lon="11.061364"><ele>1017.0</ele><time>2026-04-26T12:49:09.783Z</time></trkpt><trkpt lat="45.6335581" lon="11.0614572"><ele>1017.0</ele><time>2026-04-26T12:49:10.78Z</time></trkpt><trkpt lat="45.6335012" lon="11.0615342"><ele>1020.2</ele><time>2026-04-26T12:49:11.782Z</time></trkpt><trkpt lat="45.6334346" lon="11.0615832"><ele>1023.4000000000001</ele><time>2026-04-26T12:49:12.781Z</time></trkpt><trkpt lat="45.6333764" lon="11.0616646"><ele>1026.6</ele><time>2026-04-26T12:49:13.782Z</time></trkpt><trkpt lat="45.6333227" lon="11.0618201"><ele>1029.8</ele><time>2026-04-26T12:49:14.781Z</time></trkpt><trkpt lat="45.6332579" lon="11.0619581"><ele>1033.0</ele><time>2026-04-26T12:49:15.782Z</time></trkpt><trkpt lat="45.6331925" lon="11.0620937"><ele>1033.0</ele><time>2026-04-26T12:49:16.782Z</time></trkpt><trkpt lat="45.6331113" lon="11.0622076"><ele>1033.0</ele><time>2026-04-26T12:49:17.781Z</time></trkpt><trkpt lat="45.6330236" lon="11.0623157"><ele>1033.0</ele><time>2026-04-26T12:49:18.782Z</time></trkpt><trkpt lat="45.6329131" lon="11.0624176"><ele>1033.0</ele><time>2026-04-26T12:49:19.782Z</time></trkpt><trkpt lat="45.6327914" lon="11.062513"><ele>1033.0</ele><time>2026-04-26T12:49:20.783Z</time></trkpt><trkpt lat="45.6326756" lon="11.0626068"><ele>1033.0</ele><time>2026-04-26T12:49:21.782Z</time></trkpt><trkpt lat="45.6325574" lon="11.0626591"><ele>1033.0</ele><time>2026-04-26T12:49:22.78Z</time></trkpt><trkpt lat="45.6324428" lon="11.0627085"><ele>1033.0</ele><time>2026-04-26T12:49:23.783Z</time></trkpt><trkpt lat="45.6323267" lon="11.0627511"><ele>1033.0</ele><time>2026-04-26T12:49:24.782Z</time></trkpt><trkpt lat="45.6322035" lon="11.0627642"><ele>1033.0</ele><time>2026-04-26T12:49:25.782Z</time></trkpt><trkpt lat="45.6320951" lon="11.0627679"><ele>1033.0</ele><time>2026-04-26T12:49:26.782Z</time></trkpt><trkpt lat="45.6319799" lon="11.062743"><ele>1033.0</ele><time>2026-04-26T12:49:27.783Z</time></trkpt><trkpt lat="45.6318589" lon="11.0627024"><ele>1033.25</ele><time>2026-04-26T12:49:28.781Z</time></trkpt><trkpt lat="45.6317289" lon="11.0626505"><ele>1033.5</ele><time>2026-04-26T12:49:29.781Z</time></trkpt><trkpt lat="45.6315891" lon="11.0625875"><ele>1033.75</ele><time>2026-04-26T12:49:30.782Z</time></trkpt><trkpt lat="45.631447" lon="11.0625127"><ele>1034.0</ele><time>2026-04-26T12:49:31.782Z</time></trkpt><trkpt lat="45.6312927" lon="11.0624366"><ele>1041.0</ele><time>2026-04-26T12:49:32.782Z</time></trkpt><trkpt lat="45.6311263" lon="11.0623548"><ele>1048.0</ele><time>2026-04-26T12:49:33.783Z</time></trkpt><trkpt lat="45.630955" lon="11.0622713"><ele>1055.0</ele><time>2026-04-26T12:49:34.782Z</time></trkpt><trkpt lat="45.6307957" lon="11.06219"><ele>1055.0</ele><time>2026-04-26T12:49:35.782Z</time></trkpt><trkpt lat="45.6306471" lon="11.0621128"><ele>1055.0</ele><time>2026-04-26T12:49:36.781Z</time></trkpt><trkpt lat="45.6305166" lon="11.0620523"><ele>1055.0</ele><time>2026-04-26T12:49:37.782Z</time></trkpt><trkpt lat="45.6304055" lon="11.0619873"><ele>1055.0</ele><time>2026-04-26T12:49:38.782Z</time></trkpt><trkpt lat="45.6303032" lon="11.0619103"><ele>1055.25</ele><time>2026-04-26T12:49:39.782Z</time></trkpt><trkpt lat="45.6302207" lon="11.0618019"><ele>1055.5</ele><time>2026-04-26T12:49:40.782Z</time></trkpt><trkpt lat="45.6301323" lon="11.0616578"><ele>1055.75</ele><time>2026-04-26T12:49:41.782Z</time></trkpt><trkpt lat="45.6300288" lon="11.0615124"><ele>1056.0</ele><time>2026-04-26T12:49:42.782Z</time></trkpt><trkpt lat="45.6299392" lon="11.0613795"><ele>1056.0</ele><time>2026-04-26T12:49:43.78Z</time></trkpt><trkpt lat="45.629864" lon="11.0612489"><ele>1056.0</ele><time>2026-04-26T12:49:44.783Z</time></trkpt><trkpt lat="45.6298258" lon="11.0610854"><ele>1056.0</ele><time>2026-04-26T12:49:45.782Z</time></trkpt><trkpt lat="45.6297803" lon="11.0609266"><ele>1056.0</ele><time>2026-04-26T12:49:46.78Z</time></trkpt><trkpt lat="45.62975" lon="11.0607757"><ele>1057.8333333333333</ele><time>2026-04-26T12:49:47.783Z</time></trkpt><trkpt lat="45.6297196" lon="11.060672"><ele>1059.6666666666667</ele><time>2026-04-26T12:49:48.781Z</time></trkpt><trkpt lat="45.6296694" lon="11.0605906"><ele>1061.5</ele><time>2026-04-26T12:49:49.783Z</time></trkpt><trkpt lat="45.6296208" lon="11.0605296"><ele>1063.3333333333335</ele><time>2026-04-26T12:49:50.781Z</time></trkpt><trkpt lat="45.6295294" lon="11.0605505"><ele>1065.1666666666667</ele><time>2026-04-26T12:49:51.783Z</time></trkpt><trkpt lat="45.6294204" lon="11.0605851"><ele>1067.0</ele><time>2026-04-26T12:49:52.782Z</time></trkpt><trkpt lat="45.6292976" lon="11.060667"><ele>1068.8</ele><time>2026-04-26T12:49:53.782Z</time></trkpt><trkpt lat="45.6291746" lon="11.0607373"><ele>1070.6</ele><time>2026-04-26T12:49:54.782Z</time></trkpt><trkpt lat="45.6290596" lon="11.0607997"><ele>1072.3999999999999</ele><time>2026-04-26T12:49:55.781Z</time></trkpt><trkpt lat="45.6289673" lon="11.0608551"><ele>1074.2</ele><time>2026-04-26T12:49:56.782Z</time></trkpt><trkpt lat="45.6288876" lon="11.060907"><ele>1076.0</ele><time>2026-04-26T12:49:57.781Z</time></trkpt><trkpt lat="45.6287988" lon="11.0609493"><ele>1071.2</ele><time>2026-04-26T12:49:58.783Z</time></trkpt><trkpt lat="45.6287084" lon="11.0609907"><ele>1066.3999999999999</ele><time>2026-04-26T12:49:59.782Z</time></trkpt><trkpt lat="45.628614" lon="11.061023"><ele>1061.6</ele><time>2026-04-26T12:50:00.782Z</time></trkpt><trkpt lat="45.6285107" lon="11.0610383"><ele>1056.8</ele><time>2026-04-26T12:50:01.781Z</time></trkpt><trkpt lat="45.6284223" lon="11.0610439"><ele>1052.0</ele><time>2026-04-26T12:50:02.783Z</time></trkpt><trkpt lat="45.6283135" lon="11.0610379"><ele>1052.0</ele><time>2026-04-26T12:50:03.781Z</time></trkpt><trkpt lat="45.6281804" lon="11.0609827"><ele>1052.0</ele><time>2026-04-26T12:50:04.782Z</time></trkpt><trkpt lat="45.6280425" lon="11.0609418"><ele>1052.0</ele><time>2026-04-26T12:50:05.781Z</time></trkpt><trkpt lat="45.6278738" lon="11.0608897"><ele>1050.6666666666667</ele><time>2026-04-26T12:50:06.782Z</time></trkpt><trkpt lat="45.6276926" lon="11.0608276"><ele>1049.3333333333333</ele><time>2026-04-26T12:50:07.783Z</time></trkpt><trkpt lat="45.6274953" lon="11.0607508"><ele>1048.0</ele><time>2026-04-26T12:50:08.782Z</time></trkpt><trkpt lat="45.6272957" lon="11.0606696"><ele>1052.6666666666665</ele><time>2026-04-26T12:50:09.782Z</time></trkpt><trkpt lat="45.6271129" lon="11.0606072"><ele>1057.3333333333333</ele><time>2026-04-26T12:50:10.782Z</time></trkpt><trkpt lat="45.6269428" lon="11.0605392"><ele>1062.0</ele><time>2026-04-26T12:50:11.781Z</time></trkpt><trkpt lat="45.6267908" lon="11.0604683"><ele>1062.0</ele><time>2026-04-26T12:50:12.782Z</time></trkpt><trkpt lat="45.626652" lon="11.0603909"><ele>1062.0</ele><time>2026-04-26T12:50:13.783Z</time></trkpt><trkpt lat="45.6265187" lon="11.060302"><ele>1062.0</ele><time>2026-04-26T12:50:14.782Z</time></trkpt><trkpt lat="45.6264079" lon="11.060206"><ele>1062.0</ele><time>2026-04-26T12:50:15.782Z</time></trkpt><trkpt lat="45.626313" lon="11.0601169"><ele>1062.0</ele><time>2026-04-26T12:50:16.78Z</time></trkpt><trkpt lat="45.6262407" lon="11.0600399"><ele>1062.0</ele><time>2026-04-26T12:50:17.782Z</time></trkpt><trkpt lat="45.6261951" lon="11.0599631"><ele>1062.0</ele><time>2026-04-26T12:50:18.781Z</time></trkpt><trkpt lat="45.6261644" lon="11.0598459"><ele>1062.0</ele><time>2026-04-26T12:50:19.781Z</time></trkpt><trkpt lat="45.626152" lon="11.0597135"><ele>1062.0</ele><time>2026-04-26T12:50:20.783Z</time></trkpt><trkpt lat="45.626145" lon="11.0595671"><ele>1062.0</ele><time>2026-04-26T12:50:21.782Z</time></trkpt><trkpt lat="45.6261463" lon="11.0593807"><ele>1064.3333333333333</ele><time>2026-04-26T12:50:22.782Z</time></trkpt><trkpt lat="45.6261528" lon="11.0591442"><ele>1066.6666666666665</ele><time>2026-04-26T12:50:23.782Z</time></trkpt><trkpt lat="45.6261502" lon="11.0589111"><ele>1069.0</ele><time>2026-04-26T12:50:24.782Z</time></trkpt><trkpt lat="45.6261499" lon="11.0586816"><ele>1069.75</ele><time>2026-04-26T12:50:25.782Z</time></trkpt><trkpt lat="45.6261401" lon="11.0584665"><ele>1070.5</ele><time>2026-04-26T12:50:26.781Z</time></trkpt><trkpt lat="45.626132" lon="11.0582751"><ele>1071.25</ele><time>2026-04-26T12:50:27.781Z</time></trkpt><trkpt lat="45.62614" lon="11.0580847"><ele>1072.0</ele><time>2026-04-26T12:50:28.783Z</time></trkpt><trkpt lat="45.6261668" lon="11.0579028"><ele>1072.0</ele><time>2026-04-26T12:50:29.782Z</time></trkpt><trkpt lat="45.6262122" lon="11.0577155"><ele>1072.0</ele><time>2026-04-26T12:50:30.783Z</time></trkpt><trkpt lat="45.6262666" lon="11.0575293"><ele>1072.0</ele><time>2026-04-26T12:50:31.781Z</time></trkpt><trkpt lat="45.6263402" lon="11.0573471"><ele>1072.0</ele><time>2026-04-26T12:50:32.782Z</time></trkpt><trkpt lat="45.6264349" lon="11.0571543"><ele>1067.6666666666665</ele><time>2026-04-26T12:50:33.781Z</time></trkpt><trkpt lat="45.6265312" lon="11.0569463"><ele>1063.3333333333333</ele><time>2026-04-26T12:50:34.782Z</time></trkpt><trkpt lat="45.6266228" lon="11.0567317"><ele>1059.0</ele><time>2026-04-26T12:50:35.78Z</time></trkpt><trkpt lat="45.6267185" lon="11.056542"><ele>1056.0</ele><time>2026-04-26T12:50:36.782Z</time></trkpt><trkpt lat="45.6268267" lon="11.0563661"><ele>1053.0</ele><time>2026-04-26T12:50:37.781Z</time></trkpt><trkpt lat="45.6269376" lon="11.0561913"><ele>1050.0</ele><time>2026-04-26T12:50:38.782Z</time></trkpt><trkpt lat="45.6270506" lon="11.0560176"><ele>1056.0</ele><time>2026-04-26T12:50:39.782Z</time></trkpt><trkpt lat="45.6271754" lon="11.0558332"><ele>1062.0</ele><time>2026-04-26T12:50:40.782Z</time></trkpt><trkpt lat="45.6273061" lon="11.0556501"><ele>1068.0</ele><time>2026-04-26T12:50:41.782Z</time></trkpt><trkpt lat="45.627414" lon="11.055508"><ele>1068.0</ele><time>2026-04-26T12:50:42.783Z</time></trkpt><trkpt lat="45.6275007" lon="11.0553939"><ele>1068.0</ele><time>2026-04-26T12:50:43.782Z</time></trkpt><trkpt lat="45.627587" lon="11.0552887"><ele>1068.0</ele><time>2026-04-26T12:50:44.781Z</time></trkpt><trkpt lat="45.6276433" lon="11.0551476"><ele>1068.0</ele><time>2026-04-26T12:50:46.783Z</time></trkpt><trkpt lat="45.627683" lon="11.0550352"><ele>1068.0</ele><time>2026-04-26T12:50:49.783Z</time></trkpt><trkpt lat="45.6275257" lon="11.0549143"><ele>1071.6</ele><time>2026-04-26T12:58:33.783Z</time></trkpt><trkpt lat="45.6274542" lon="11.0548932"><ele>1075.1999999999998</ele><time>2026-04-26T12:58:34.783Z</time></trkpt><trkpt lat="45.6273715" lon="11.0548933"><ele>1078.8</ele><time>2026-04-26T12:58:35.781Z</time></trkpt><trkpt lat="45.6272753" lon="11.0549041"><ele>1082.3999999999999</ele><time>2026-04-26T12:58:36.783Z</time></trkpt><trkpt lat="45.6271692" lon="11.0549113"><ele>1086.0</ele><time>2026-04-26T12:58:37.782Z</time></trkpt><trkpt lat="45.6270581" lon="11.0549107"><ele>1085.0</ele><time>2026-04-26T12:58:38.782Z</time></trkpt><trkpt lat="45.6269467" lon="11.0549036"><ele>1084.0</ele><time>2026-04-26T12:58:39.781Z</time></trkpt><trkpt lat="45.6268311" lon="11.0548917"><ele>1083.0</ele><time>2026-04-26T12:58:40.782Z</time></trkpt><trkpt lat="45.6267139" lon="11.0548837"><ele>1082.0</ele><time>2026-04-26T12:58:41.782Z</time></trkpt><trkpt lat="45.6265956" lon="11.0548753"><ele>1082.0</ele><time>2026-04-26T12:58:42.783Z</time></trkpt><trkpt lat="45.6264816" lon="11.054861"><ele>1082.0</ele><time>2026-04-26T12:58:43.783Z</time></trkpt><trkpt lat="45.6263792" lon="11.0548473"><ele>1082.0</ele><time>2026-04-26T12:58:44.782Z</time></trkpt><trkpt lat="45.626302" lon="11.0548166"><ele>1082.0</ele><time>2026-04-26T12:58:45.783Z</time></trkpt><trkpt lat="45.6262254" lon="11.0547755"><ele>1082.0</ele><time>2026-04-26T12:58:46.782Z</time></trkpt><trkpt lat="45.626158" lon="11.0546947"><ele>1077.25</ele><time>2026-04-26T12:58:47.781Z</time></trkpt><trkpt lat="45.6260959" lon="11.0545729"><ele>1072.5</ele><time>2026-04-26T12:58:48.782Z</time></trkpt><trkpt lat="45.6260436" lon="11.0544214"><ele>1067.75</ele><time>2026-04-26T12:58:49.782Z</time></trkpt><trkpt lat="45.6259814" lon="11.0542798"><ele>1063.0</ele><time>2026-04-26T12:58:50.781Z</time></trkpt><trkpt lat="45.6258809" lon="11.0541374"><ele>1070.3333333333333</ele><time>2026-04-26T12:58:51.782Z</time></trkpt><trkpt lat="45.6257527" lon="11.0539844"><ele>1077.6666666666667</ele><time>2026-04-26T12:58:52.781Z</time></trkpt><trkpt lat="45.6256329" lon="11.0538522"><ele>1085.0</ele><time>2026-04-26T12:58:53.783Z</time></trkpt><trkpt lat="45.6255136" lon="11.0537534"><ele>1085.0</ele><time>2026-04-26T12:58:54.782Z</time></trkpt><trkpt lat="45.6253818" lon="11.0536919"><ele>1085.0</ele><time>2026-04-26T12:58:55.783Z</time></trkpt><trkpt lat="45.6252458" lon="11.0536357"><ele>1085.0</ele><time>2026-04-26T12:58:56.781Z</time></trkpt><trkpt lat="45.6251234" lon="11.0535857"><ele>1085.0</ele><time>2026-04-26T12:58:57.782Z</time></trkpt><trkpt lat="45.6250067" lon="11.053537"><ele>1084.0</ele><time>2026-04-26T12:58:58.783Z</time></trkpt><trkpt lat="45.6248965" lon="11.0534876"><ele>1083.0</ele><time>2026-04-26T12:58:59.783Z</time></trkpt><trkpt lat="45.6247933" lon="11.0534336"><ele>1082.0</ele><time>2026-04-26T12:59:00.783Z</time></trkpt><trkpt lat="45.624696" lon="11.0533615"><ele>1081.0</ele><time>2026-04-26T12:59:01.782Z</time></trkpt><trkpt lat="45.6246042" lon="11.0532718"><ele>1080.0</ele><time>2026-04-26T12:59:02.783Z</time></trkpt><trkpt lat="45.6245257" lon="11.0531765"><ele>1076.4</ele><time>2026-04-26T12:59:03.781Z</time></trkpt><trkpt lat="45.6244539" lon="11.0530681"><ele>1072.8</ele><time>2026-04-26T12:59:04.782Z</time></trkpt><trkpt lat="45.6243889" lon="11.052937"><ele>1069.2</ele><time>2026-04-26T12:59:05.783Z</time></trkpt><trkpt lat="45.6243372" lon="11.0528089"><ele>1065.6</ele><time>2026-04-26T12:59:06.783Z</time></trkpt><trkpt lat="45.6242922" lon="11.0526859"><ele>1062.0</ele><time>2026-04-26T12:59:07.783Z</time></trkpt><trkpt lat="45.6242549" lon="11.0525612"><ele>1062.6</ele><time>2026-04-26T12:59:08.783Z</time></trkpt><trkpt lat="45.6242258" lon="11.0524376"><ele>1063.2</ele><time>2026-04-26T12:59:09.783Z</time></trkpt><trkpt lat="45.6242095" lon="11.0523116"><ele>1063.8</ele><time>2026-04-26T12:59:10.782Z</time></trkpt><trkpt lat="45.6242032" lon="11.0521795"><ele>1064.4</ele><time>2026-04-26T12:59:11.782Z</time></trkpt><trkpt lat="45.6241988" lon="11.0520377"><ele>1065.0</ele><time>2026-04-26T12:59:12.783Z</time></trkpt><trkpt lat="45.6241986" lon="11.0518856"><ele>1065.0</ele><time>2026-04-26T12:59:13.782Z</time></trkpt><trkpt lat="45.6242031" lon="11.0517341"><ele>1065.0</ele><time>2026-04-26T12:59:14.782Z</time></trkpt><trkpt lat="45.6242093" lon="11.0516017"><ele>1065.0</ele><time>2026-04-26T12:59:15.782Z</time></trkpt><trkpt lat="45.6242179" lon="11.0514945"><ele>1065.0</ele><time>2026-04-26T12:59:16.781Z</time></trkpt><trkpt lat="45.6242329" lon="11.0513983"><ele>1065.0</ele><time>2026-04-26T12:59:17.783Z</time></trkpt><trkpt lat="45.6242981" lon="11.0512546"><ele>1064.8</ele><time>2026-04-26T12:59:19.782Z</time></trkpt><trkpt lat="45.6243894" lon="11.0511991"><ele>1064.6</ele><time>2026-04-26T12:59:21.783Z</time></trkpt><trkpt lat="45.6245188" lon="11.0511969"><ele>1064.4</ele><time>2026-04-26T12:59:23.781Z</time></trkpt><trkpt lat="45.6246054" lon="11.0511949"><ele>1064.2</ele><time>2026-04-26T12:59:24.782Z</time></trkpt><trkpt lat="45.6247054" lon="11.0511871"><ele>1064.0</ele><time>2026-04-26T12:59:25.782Z</time></trkpt><trkpt lat="45.6248128" lon="11.0511778"><ele>1064.0</ele><time>2026-04-26T12:59:26.783Z</time></trkpt><trkpt lat="45.6249203" lon="11.0511637"><ele>1064.0</ele><time>2026-04-26T12:59:27.783Z</time></trkpt><trkpt lat="45.6250275" lon="11.0511412"><ele>1064.0</ele><time>2026-04-26T12:59:28.781Z</time></trkpt><trkpt lat="45.625119" lon="11.0511155"><ele>1064.0</ele><time>2026-04-26T12:59:29.783Z</time></trkpt><trkpt lat="45.6252065" lon="11.0510859"><ele>1064.0</ele><time>2026-04-26T12:59:30.783Z</time></trkpt><trkpt lat="45.6252973" lon="11.0510604"><ele>1066.0</ele><time>2026-04-26T12:59:31.782Z</time></trkpt><trkpt lat="45.6253922" lon="11.051026"><ele>1068.0</ele><time>2026-04-26T12:59:32.782Z</time></trkpt><trkpt lat="45.625474" lon="11.0509888"><ele>1070.0</ele><time>2026-04-26T12:59:33.782Z</time></trkpt><trkpt lat="45.6255574" lon="11.050949"><ele>1072.0</ele><time>2026-04-26T12:59:34.781Z</time></trkpt><trkpt lat="45.6256472" lon="11.0509086"><ele>1074.0</ele><time>2026-04-26T12:59:35.782Z</time></trkpt><trkpt lat="45.6257532" lon="11.0508858"><ele>1074.0</ele><time>2026-04-26T12:59:36.783Z</time></trkpt><trkpt lat="45.6258686" lon="11.0508727"><ele>1074.0</ele><time>2026-04-26T12:59:37.782Z</time></trkpt><trkpt lat="45.6259805" lon="11.0508671"><ele>1074.0</ele><time>2026-04-26T12:59:38.783Z</time></trkpt><trkpt lat="45.6260962" lon="11.0508656"><ele>1074.0</ele><time>2026-04-26T12:59:39.782Z</time></trkpt><trkpt lat="45.6262083" lon="11.0508605"><ele>1073.8</ele><time>2026-04-26T12:59:40.782Z</time></trkpt><trkpt lat="45.6263132" lon="11.050853"><ele>1073.6000000000001</ele><time>2026-04-26T12:59:41.782Z</time></trkpt><trkpt lat="45.6264157" lon="11.0508535"><ele>1073.4</ele><time>2026-04-26T12:59:42.781Z</time></trkpt><trkpt lat="45.6265014" lon="11.0508391"><ele>1073.2</ele><time>2026-04-26T12:59:43.783Z</time></trkpt><trkpt lat="45.6265794" lon="11.0508024"><ele>1073.0</ele><time>2026-04-26T12:59:44.782Z</time></trkpt><trkpt lat="45.6266453" lon="11.0507466"><ele>1072.5</ele><time>2026-04-26T12:59:45.783Z</time></trkpt><trkpt lat="45.6266961" lon="11.0506684"><ele>1072.0</ele><time>2026-04-26T12:59:46.782Z</time></trkpt><trkpt lat="45.6267341" lon="11.0505623"><ele>1071.5</ele><time>2026-04-26T12:59:47.781Z</time></trkpt><trkpt lat="45.6267448" lon="11.0504343"><ele>1071.0</ele><time>2026-04-26T12:59:48.783Z</time></trkpt><trkpt lat="45.6267268" lon="11.0503038"><ele>1070.5</ele><time>2026-04-26T12:59:49.783Z</time></trkpt><trkpt lat="45.6266848" lon="11.0501965"><ele>1070.0</ele><time>2026-04-26T12:59:50.783Z</time></trkpt><trkpt lat="45.6266198" lon="11.0500985"><ele>1070.0</ele><time>2026-04-26T12:59:51.782Z</time></trkpt><trkpt lat="45.6265325" lon="11.0500006"><ele>1070.0</ele><time>2026-04-26T12:59:52.781Z</time></trkpt><trkpt lat="45.6264292" lon="11.0498934"><ele>1070.0</ele><time>2026-04-26T12:59:53.782Z</time></trkpt><trkpt lat="45.626329" lon="11.0497876"><ele>1070.0</ele><time>2026-04-26T12:59:54.783Z</time></trkpt><trkpt lat="45.6262514" lon="11.0496794"><ele>1068.25</ele><time>2026-04-26T12:59:55.782Z</time></trkpt><trkpt lat="45.6261859" lon="11.0495565"><ele>1066.5</ele><time>2026-04-26T12:59:56.782Z</time></trkpt><trkpt lat="45.6261265" lon="11.0494127"><ele>1064.75</ele><time>2026-04-26T12:59:57.781Z</time></trkpt><trkpt lat="45.6260652" lon="11.0492445"><ele>1063.0</ele><time>2026-04-26T12:59:58.781Z</time></trkpt><trkpt lat="45.6260144" lon="11.0490837"><ele>1063.0</ele><time>2026-04-26T12:59:59.781Z</time></trkpt><trkpt lat="45.625966" lon="11.0489174"><ele>1063.0</ele><time>2026-04-26T13:00:00.781Z</time></trkpt><trkpt lat="45.6259327" lon="11.0487574"><ele>1063.0</ele><time>2026-04-26T13:00:01.781Z</time></trkpt><trkpt lat="45.6259174" lon="11.0485965"><ele>1063.0</ele><time>2026-04-26T13:00:02.782Z</time></trkpt><trkpt lat="45.6259239" lon="11.0484328"><ele>1062.8333333333333</ele><time>2026-04-26T13:00:03.782Z</time></trkpt><trkpt lat="45.6259465" lon="11.0482841"><ele>1062.6666666666665</ele><time>2026-04-26T13:00:04.781Z</time></trkpt><trkpt lat="45.6259843" lon="11.0481692"><ele>1062.5</ele><time>2026-04-26T13:00:05.782Z</time></trkpt><trkpt lat="45.6260407" lon="11.0480832"><ele>1062.3333333333333</ele><time>2026-04-26T13:00:06.782Z</time></trkpt><trkpt lat="45.6261105" lon="11.0480291"><ele>1062.1666666666667</ele><time>2026-04-26T13:00:07.782Z</time></trkpt><trkpt lat="45.6261943" lon="11.0480039"><ele>1062.0</ele><time>2026-04-26T13:00:08.781Z</time></trkpt><trkpt lat="45.626295" lon="11.0480059"><ele>1062.0</ele><time>2026-04-26T13:00:09.78Z</time></trkpt><trkpt lat="45.6264109" lon="11.048021"><ele>1062.0</ele><time>2026-04-26T13:00:10.781Z</time></trkpt><trkpt lat="45.6265471" lon="11.0480419"><ele>1062.0</ele><time>2026-04-26T13:00:11.782Z</time></trkpt><trkpt lat="45.6266732" lon="11.0480701"><ele>1062.0</ele><time>2026-04-26T13:00:12.782Z</time></trkpt><trkpt lat="45.6267876" lon="11.0480835"><ele>1062.0</ele><time>2026-04-26T13:00:13.782Z</time></trkpt><trkpt lat="45.6268919" lon="11.0480812"><ele>1062.0</ele><time>2026-04-26T13:00:14.781Z</time></trkpt><trkpt lat="45.626972" lon="11.0480465"><ele>1062.0</ele><time>2026-04-26T13:00:15.782Z</time></trkpt><trkpt lat="45.627029" lon="11.0479785"><ele>1062.0</ele><time>2026-04-26T13:00:16.78Z</time></trkpt><trkpt lat="45.6270577" lon="11.0478768"><ele>1062.0</ele><time>2026-04-26T13:00:17.782Z</time></trkpt><trkpt lat="45.6270575" lon="11.0477477"><ele>1062.0</ele><time>2026-04-26T13:00:18.781Z</time></trkpt><trkpt lat="45.6270256" lon="11.0475882"><ele>1062.75</ele><time>2026-04-26T13:00:19.78Z</time></trkpt><trkpt lat="45.6269735" lon="11.0474137"><ele>1063.5</ele><time>2026-04-26T13:00:20.782Z</time></trkpt><trkpt lat="45.6269003" lon="11.0472333"><ele>1064.25</ele><time>2026-04-26T13:00:21.781Z</time></trkpt><trkpt lat="45.6268055" lon="11.0470328"><ele>1065.0</ele><time>2026-04-26T13:00:22.781Z</time></trkpt><trkpt lat="45.6267286" lon="11.046846"><ele>1065.0</ele><time>2026-04-26T13:00:23.781Z</time></trkpt><trkpt lat="45.626665" lon="11.0466614"><ele>1065.0</ele><time>2026-04-26T13:00:24.781Z</time></trkpt><trkpt lat="45.6266084" lon="11.0464873"><ele>1065.0</ele><time>2026-04-26T13:00:25.781Z</time></trkpt><trkpt lat="45.6265639" lon="11.0463196"><ele>1065.0</ele><time>2026-04-26T13:00:26.781Z</time></trkpt><trkpt lat="45.6265328" lon="11.0461601"><ele>1065.6</ele><time>2026-04-26T13:00:27.78Z</time></trkpt><trkpt lat="45.6265121" lon="11.0460049"><ele>1066.2</ele><time>2026-04-26T13:00:28.781Z</time></trkpt><trkpt lat="45.6264916" lon="11.0458469"><ele>1066.8</ele><time>2026-04-26T13:00:29.781Z</time></trkpt><trkpt lat="45.6264791" lon="11.0457053"><ele>1067.4</ele><time>2026-04-26T13:00:30.781Z</time></trkpt><trkpt lat="45.6264725" lon="11.0455827"><ele>1068.0</ele><time>2026-04-26T13:00:31.781Z</time></trkpt><trkpt lat="45.6264742" lon="11.0454736"><ele>1066.6666666666667</ele><time>2026-04-26T13:00:32.782Z</time></trkpt><trkpt lat="45.6264832" lon="11.0453642"><ele>1065.3333333333333</ele><time>2026-04-26T13:00:33.782Z</time></trkpt><trkpt lat="45.6265012" lon="11.0452689"><ele>1064.0</ele><time>2026-04-26T13:00:34.781Z</time></trkpt><trkpt lat="45.626531" lon="11.0451734"><ele>1062.6666666666665</ele><time>2026-04-26T13:00:35.782Z</time></trkpt><trkpt lat="45.6265833" lon="11.0450926"><ele>1061.3333333333333</ele><time>2026-04-26T13:00:36.78Z</time></trkpt><trkpt lat="45.6266426" lon="11.0450295"><ele>1060.0</ele><time>2026-04-26T13:00:37.78Z</time></trkpt><trkpt lat="45.6267118" lon="11.0449737"><ele>1055.6</ele><time>2026-04-26T13:00:38.781Z</time></trkpt><trkpt lat="45.6267957" lon="11.0449313"><ele>1051.2</ele><time>2026-04-26T13:00:39.782Z</time></trkpt><trkpt lat="45.6268897" lon="11.0448961"><ele>1046.8</ele><time>2026-04-26T13:00:40.781Z</time></trkpt><trkpt lat="45.6269841" lon="11.0448769"><ele>1042.4</ele><time>2026-04-26T13:00:41.781Z</time></trkpt><trkpt lat="45.6270911" lon="11.04487"><ele>1038.0</ele><time>2026-04-26T13:00:42.78Z</time></trkpt><trkpt lat="45.6271953" lon="11.0448707"><ele>1038.0</ele><time>2026-04-26T13:00:43.781Z</time></trkpt><trkpt lat="45.6272835" lon="11.0448865"><ele>1038.0</ele><time>2026-04-26T13:00:44.781Z</time></trkpt><trkpt lat="45.6273659" lon="11.044912"><ele>1038.0</ele><time>2026-04-26T13:00:45.78Z</time></trkpt><trkpt lat="45.6274491" lon="11.0449432"><ele>1038.0</ele><time>2026-04-26T13:00:46.781Z</time></trkpt><trkpt lat="45.6275337" lon="11.0449803"><ele>1038.0</ele><time>2026-04-26T13:00:47.781Z</time></trkpt><trkpt lat="45.6276173" lon="11.045026"><ele>1038.0</ele><time>2026-04-26T13:00:48.782Z</time></trkpt><trkpt lat="45.6277039" lon="11.045086"><ele>1042.3333333333333</ele><time>2026-04-26T13:00:49.78Z</time></trkpt><trkpt lat="45.6277793" lon="11.0451547"><ele>1046.6666666666667</ele><time>2026-04-26T13:00:50.782Z</time></trkpt><trkpt lat="45.6278521" lon="11.0452088"><ele>1051.0</ele><time>2026-04-26T13:00:51.782Z</time></trkpt><trkpt lat="45.6279226" lon="11.0452626"><ele>1055.3333333333335</ele><time>2026-04-26T13:00:52.78Z</time></trkpt><trkpt lat="45.6279895" lon="11.0453137"><ele>1059.6666666666667</ele><time>2026-04-26T13:00:53.781Z</time></trkpt><trkpt lat="45.6280611" lon="11.0453567"><ele>1064.0</ele><time>2026-04-26T13:00:54.78Z</time></trkpt><trkpt lat="45.6281378" lon="11.0454008"><ele>1064.5</ele><time>2026-04-26T13:00:55.782Z</time></trkpt><trkpt lat="45.6282056" lon="11.0454308"><ele>1065.0</ele><time>2026-04-26T13:00:56.781Z</time></trkpt><trkpt lat="45.6282691" lon="11.0454483"><ele>1065.5</ele><time>2026-04-26T13:00:57.781Z</time></trkpt><trkpt lat="45.6283324" lon="11.0454453"><ele>1066.0</ele><time>2026-04-26T13:00:58.782Z</time></trkpt><trkpt lat="45.6284413" lon="11.0453673"><ele>1066.5</ele><time>2026-04-26T13:01:00.782Z</time></trkpt><trkpt lat="45.6284705" lon="11.0452798"><ele>1067.0</ele><time>2026-04-26T13:01:01.781Z</time></trkpt><trkpt lat="45.6284726" lon="11.0451791"><ele>1067.0</ele><time>2026-04-26T13:01:02.782Z</time></trkpt><trkpt lat="45.6284445" lon="11.0450651"><ele>1067.0</ele><time>2026-04-26T13:01:03.782Z</time></trkpt><trkpt lat="45.6284119" lon="11.0449431"><ele>1067.0</ele><time>2026-04-26T13:01:04.782Z</time></trkpt><trkpt lat="45.6283926" lon="11.0447971"><ele>1067.0</ele><time>2026-04-26T13:01:05.782Z</time></trkpt><trkpt lat="45.6283785" lon="11.0446046"><ele>1067.0</ele><time>2026-04-26T13:01:06.781Z</time></trkpt><trkpt lat="45.6283748" lon="11.0444049"><ele>1064.0</ele><time>2026-04-26T13:01:07.781Z</time></trkpt><trkpt lat="45.6283836" lon="11.0442326"><ele>1061.0</ele><time>2026-04-26T13:01:08.78Z</time></trkpt><trkpt lat="45.6284086" lon="11.0440935"><ele>1058.0</ele><time>2026-04-26T13:01:09.782Z</time></trkpt><trkpt lat="45.6284502" lon="11.0440049"><ele>1055.0</ele><time>2026-04-26T13:01:10.782Z</time></trkpt><trkpt lat="45.6285044" lon="11.0439423"><ele>1052.0</ele><time>2026-04-26T13:01:11.782Z</time></trkpt><trkpt lat="45.6285895" lon="11.0438984"><ele>1051.75</ele><time>2026-04-26T13:01:12.781Z</time></trkpt><trkpt lat="45.6287145" lon="11.0438639"><ele>1051.5</ele><time>2026-04-26T13:01:13.781Z</time></trkpt><trkpt lat="45.6288423" lon="11.0438476"><ele>1051.25</ele><time>2026-04-26T13:01:14.782Z</time></trkpt><trkpt lat="45.6289988" lon="11.0438577"><ele>1051.0</ele><time>2026-04-26T13:01:15.782Z</time></trkpt><trkpt lat="45.6291652" lon="11.0438865"><ele>1051.0</ele><time>2026-04-26T13:01:16.781Z</time></trkpt><trkpt lat="45.6293441" lon="11.0439404"><ele>1051.0</ele><time>2026-04-26T13:01:17.782Z</time></trkpt><trkpt lat="45.6295051" lon="11.0439953"><ele>1051.0</ele><time>2026-04-26T13:01:18.781Z</time></trkpt><trkpt lat="45.6296414" lon="11.0440421"><ele>1053.6</ele><time>2026-04-26T13:01:19.782Z</time></trkpt><trkpt lat="45.6297553" lon="11.0440868"><ele>1056.1999999999998</ele><time>2026-04-26T13:01:20.782Z</time></trkpt><trkpt lat="45.6298507" lon="11.0441305"><ele>1058.8000000000002</ele><time>2026-04-26T13:01:21.781Z</time></trkpt><trkpt lat="45.6299342" lon="11.0441615"><ele>1061.4</ele><time>2026-04-26T13:01:22.782Z</time></trkpt><trkpt lat="45.6300149" lon="11.0441724"><ele>1064.0</ele><time>2026-04-26T13:01:23.782Z</time></trkpt><trkpt lat="45.6300923" lon="11.0441363"><ele>1065.1666666666667</ele><time>2026-04-26T13:01:24.781Z</time></trkpt><trkpt lat="45.6301589" lon="11.0440537"><ele>1066.3333333333335</ele><time>2026-04-26T13:01:25.781Z</time></trkpt><trkpt lat="45.6302068" lon="11.04394"><ele>1067.5</ele><time>2026-04-26T13:01:26.781Z</time></trkpt><trkpt lat="45.630235" lon="11.0438333"><ele>1068.6666666666667</ele><time>2026-04-26T13:01:27.78Z</time></trkpt><trkpt lat="45.6302181" lon="11.0437238"><ele>1069.8333333333333</ele><time>2026-04-26T13:01:28.781Z</time></trkpt><trkpt lat="45.630171" lon="11.0436137"><ele>1071.0</ele><time>2026-04-26T13:01:29.782Z</time></trkpt><trkpt lat="45.6300924" lon="11.0435132"><ele>1071.0</ele><time>2026-04-26T13:01:30.782Z</time></trkpt><trkpt lat="45.6299937" lon="11.0434083"><ele>1071.0</ele><time>2026-04-26T13:01:31.781Z</time></trkpt><trkpt lat="45.6299117" lon="11.0433155"><ele>1071.0</ele><time>2026-04-26T13:01:32.78Z</time></trkpt><trkpt lat="45.6298367" lon="11.0432167"><ele>1071.0</ele><time>2026-04-26T13:01:33.782Z</time></trkpt><trkpt lat="45.6297634" lon="11.0430964"><ele>1071.0</ele><time>2026-04-26T13:01:34.782Z</time></trkpt><trkpt lat="45.6296843" lon="11.0429374"><ele>1074.0</ele><time>2026-04-26T13:01:35.78Z</time></trkpt><trkpt lat="45.6295865" lon="11.0427483"><ele>1077.0</ele><time>2026-04-26T13:01:36.782Z</time></trkpt><trkpt lat="45.6294741" lon="11.0425458"><ele>1080.0</ele><time>2026-04-26T13:01:37.782Z</time></trkpt><trkpt lat="45.6293547" lon="11.0423358"><ele>1080.0</ele><time>2026-04-26T13:01:38.781Z</time></trkpt><trkpt lat="45.6292407" lon="11.0421452"><ele>1080.0</ele><time>2026-04-26T13:01:39.78Z</time></trkpt><trkpt lat="45.6291421" lon="11.0419794"><ele>1080.0</ele><time>2026-04-26T13:01:40.781Z</time></trkpt><trkpt lat="45.6290513" lon="11.0418214"><ele>1080.0</ele><time>2026-04-26T13:01:41.781Z</time></trkpt><trkpt lat="45.6289826" lon="11.0416617"><ele>1080.0</ele><time>2026-04-26T13:01:42.782Z</time></trkpt><trkpt lat="45.6289249" lon="11.0415027"><ele>1080.0</ele><time>2026-04-26T13:01:43.782Z</time></trkpt><trkpt lat="45.6288742" lon="11.0413578"><ele>1080.0</ele><time>2026-04-26T13:01:44.782Z</time></trkpt><trkpt lat="45.6288244" lon="11.0412423"><ele>1079.2</ele><time>2026-04-26T13:01:45.781Z</time></trkpt><trkpt lat="45.6287741" lon="11.041134"><ele>1078.4</ele><time>2026-04-26T13:01:46.78Z</time></trkpt><trkpt lat="45.6286832" lon="11.0411308"><ele>1077.6</ele><time>2026-04-26T13:01:47.78Z</time></trkpt><trkpt lat="45.6285863" lon="11.0411217"><ele>1076.8</ele><time>2026-04-26T13:01:48.782Z</time></trkpt><trkpt lat="45.6284712" lon="11.041141"><ele>1076.0</ele><time>2026-04-26T13:01:49.781Z</time></trkpt><trkpt lat="45.6283221" lon="11.0411777"><ele>1076.0</ele><time>2026-04-26T13:01:50.782Z</time></trkpt><trkpt lat="45.62815" lon="11.0411858"><ele>1076.0</ele><time>2026-04-26T13:01:51.782Z</time></trkpt><trkpt lat="45.6279894" lon="11.041168"><ele>1076.0</ele><time>2026-04-26T13:01:52.782Z</time></trkpt><trkpt lat="45.6278358" lon="11.0411436"><ele>1072.6666666666667</ele><time>2026-04-26T13:01:53.78Z</time></trkpt><trkpt lat="45.627681" lon="11.0411071"><ele>1069.3333333333333</ele><time>2026-04-26T13:01:54.781Z</time></trkpt><trkpt lat="45.6275254" lon="11.0410577"><ele>1066.0</ele><time>2026-04-26T13:01:55.781Z</time></trkpt><trkpt lat="45.6273687" lon="11.0409795"><ele>1066.0</ele><time>2026-04-26T13:01:56.781Z</time></trkpt><trkpt lat="45.6272165" lon="11.0408796"><ele>1066.0</ele><time>2026-04-26T13:01:57.78Z</time></trkpt><trkpt lat="45.6270495" lon="11.0407422"><ele>1066.0</ele><time>2026-04-26T13:01:58.781Z</time></trkpt><trkpt lat="45.6268747" lon="11.0405875"><ele>1071.0</ele><time>2026-04-26T13:01:59.781Z</time></trkpt><trkpt lat="45.6267141" lon="11.0404409"><ele>1076.0</ele><time>2026-04-26T13:02:00.781Z</time></trkpt><trkpt lat="45.6265599" lon="11.040306"><ele>1081.0</ele><time>2026-04-26T13:02:01.782Z</time></trkpt><trkpt lat="45.6264182" lon="11.0401731"><ele>1081.0</ele><time>2026-04-26T13:02:02.78Z</time></trkpt><trkpt lat="45.6262896" lon="11.0400417"><ele>1081.0</ele><time>2026-04-26T13:02:03.781Z</time></trkpt><trkpt lat="45.6261613" lon="11.0399368"><ele>1081.0</ele><time>2026-04-26T13:02:04.781Z</time></trkpt><trkpt lat="45.6260312" lon="11.0398612"><ele>1081.0</ele><time>2026-04-26T13:02:05.782Z</time></trkpt><trkpt lat="45.6259033" lon="11.0397944"><ele>1081.0</ele><time>2026-04-26T13:02:06.781Z</time></trkpt><trkpt lat="45.6257895" lon="11.0397221"><ele>1081.0</ele><time>2026-04-26T13:02:07.782Z</time></trkpt><trkpt lat="45.6256838" lon="11.0396292"><ele>1081.0</ele><time>2026-04-26T13:02:08.781Z</time></trkpt><trkpt lat="45.6255835" lon="11.0395003"><ele>1081.0</ele><time>2026-04-26T13:02:09.782Z</time></trkpt><trkpt lat="45.6254836" lon="11.039326"><ele>1081.0</ele><time>2026-04-26T13:02:10.782Z</time></trkpt><trkpt lat="45.625404" lon="11.0391377"><ele>1081.0</ele><time>2026-04-26T13:02:11.781Z</time></trkpt><trkpt lat="45.6253459" lon="11.0389615"><ele>1081.0</ele><time>2026-04-26T13:02:12.78Z</time></trkpt><trkpt lat="45.6253137" lon="11.038786"><ele>1081.0</ele><time>2026-04-26T13:02:13.782Z</time></trkpt><trkpt lat="45.6253114" lon="11.03858"><ele>1082.6666666666665</ele><time>2026-04-26T13:02:14.781Z</time></trkpt><trkpt lat="45.6253243" lon="11.0383436"><ele>1084.3333333333333</ele><time>2026-04-26T13:02:15.781Z</time></trkpt><trkpt lat="45.6253375" lon="11.038112"><ele>1086.0</ele><time>2026-04-26T13:02:16.781Z</time></trkpt><trkpt lat="45.6253611" lon="11.0378989"><ele>1086.0</ele><time>2026-04-26T13:02:17.782Z</time></trkpt><trkpt lat="45.6253961" lon="11.037702"><ele>1086.0</ele><time>2026-04-26T13:02:18.78Z</time></trkpt><trkpt lat="45.6254348" lon="11.0375221"><ele>1086.0</ele><time>2026-04-26T13:02:19.78Z</time></trkpt><trkpt lat="45.6254729" lon="11.037358"><ele>1086.0</ele><time>2026-04-26T13:02:20.782Z</time></trkpt><trkpt lat="45.6254979" lon="11.0372038"><ele>1085.6666666666667</ele><time>2026-04-26T13:02:21.781Z</time></trkpt><trkpt lat="45.6254988" lon="11.0370723"><ele>1085.3333333333333</ele><time>2026-04-26T13:02:22.782Z</time></trkpt><trkpt lat="45.6254797" lon="11.0369616"><ele>1085.0</ele><time>2026-04-26T13:02:23.781Z</time></trkpt><trkpt lat="45.625431" lon="11.0368691"><ele>1084.6666666666665</ele><time>2026-04-26T13:02:24.782Z</time></trkpt><trkpt lat="45.6253582" lon="11.0368146"><ele>1084.3333333333333</ele><time>2026-04-26T13:02:25.782Z</time></trkpt><trkpt lat="45.6252707" lon="11.0367925"><ele>1084.0</ele><time>2026-04-26T13:02:26.781Z</time></trkpt><trkpt lat="45.6251638" lon="11.0368042"><ele>1080.75</ele><time>2026-04-26T13:02:27.782Z</time></trkpt><trkpt lat="45.6250485" lon="11.0368415"><ele>1077.5</ele><time>2026-04-26T13:02:28.782Z</time></trkpt><trkpt lat="45.6249485" lon="11.0369131"><ele>1074.25</ele><time>2026-04-26T13:02:29.78Z</time></trkpt><trkpt lat="45.6248587" lon="11.0370181"><ele>1071.0</ele><time>2026-04-26T13:02:30.782Z</time></trkpt><trkpt lat="45.6247645" lon="11.0371317"><ele>1071.0</ele><time>2026-04-26T13:02:31.78Z</time></trkpt><trkpt lat="45.6246646" lon="11.0372179"><ele>1071.0</ele><time>2026-04-26T13:02:32.782Z</time></trkpt><trkpt lat="45.6245647" lon="11.0372776"><ele>1071.0</ele><time>2026-04-26T13:02:33.78Z</time></trkpt><trkpt lat="45.6244633" lon="11.037297"><ele>1071.0</ele><time>2026-04-26T13:02:34.781Z</time></trkpt><trkpt lat="45.6243587" lon="11.0372639"><ele>1071.0</ele><time>2026-04-26T13:02:35.782Z</time></trkpt><trkpt lat="45.6242633" lon="11.0371856"><ele>1069.3999999999999</ele><time>2026-04-26T13:02:36.782Z</time></trkpt><trkpt lat="45.6241871" lon="11.0370707"><ele>1067.8</ele><time>2026-04-26T13:02:37.78Z</time></trkpt><trkpt lat="45.6241312" lon="11.0369161"><ele>1066.1999999999998</ele><time>2026-04-26T13:02:38.781Z</time></trkpt><trkpt lat="45.6240967" lon="11.0367631"><ele>1064.6</ele><time>2026-04-26T13:02:39.781Z</time></trkpt><trkpt lat="45.6240484" lon="11.03664"><ele>1063.0</ele><time>2026-04-26T13:02:40.78Z</time></trkpt><trkpt lat="45.6239823" lon="11.0365569"><ele>1065.2</ele><time>2026-04-26T13:02:41.781Z</time></trkpt><trkpt lat="45.6238973" lon="11.0365069"><ele>1067.4</ele><time>2026-04-26T13:02:42.781Z</time></trkpt><trkpt lat="45.6238034" lon="11.0364947"><ele>1069.6000000000001</ele><time>2026-04-26T13:02:43.782Z</time></trkpt><trkpt lat="45.6236964" lon="11.0365133"><ele>1071.8</ele><time>2026-04-26T13:02:44.781Z</time></trkpt><trkpt lat="45.6235866" lon="11.0365364"><ele>1074.0</ele><time>2026-04-26T13:02:45.782Z</time></trkpt><trkpt lat="45.6234943" lon="11.0365383"><ele>1074.0</ele><time>2026-04-26T13:02:46.782Z</time></trkpt><trkpt lat="45.6234075" lon="11.0365261"><ele>1074.0</ele><time>2026-04-26T13:02:47.781Z</time></trkpt><trkpt lat="45.623338" lon="11.0364848"><ele>1074.0</ele><time>2026-04-26T13:02:48.782Z</time></trkpt><trkpt lat="45.6232607" lon="11.0363634"><ele>1074.0</ele><time>2026-04-26T13:02:50.78Z</time></trkpt><trkpt lat="45.6232279" lon="11.0362547"><ele>1074.0</ele><time>2026-04-26T13:02:52.781Z</time></trkpt><trkpt lat="45.6232017" lon="11.0361558"><ele>1074.0</ele><time>2026-04-26T13:03:15.781Z</time></trkpt><trkpt lat="45.6231778" lon="11.0360721"><ele>1074.0</ele><time>2026-04-26T13:03:18.782Z</time></trkpt><trkpt lat="45.6231132" lon="11.0360319"><ele>1074.0</ele><time>2026-04-26T13:03:23.78Z</time></trkpt><trkpt lat="45.6230396" lon="11.0360335"><ele>1074.0</ele><time>2026-04-26T13:03:26.78Z</time></trkpt><trkpt lat="45.6229738" lon="11.0360104"><ele>1074.0</ele><time>2026-04-26T13:04:07.781Z</time></trkpt><trkpt lat="45.6228944" lon="11.0360094"><ele>1074.0</ele><time>2026-04-26T13:04:09.782Z</time></trkpt><trkpt lat="45.6227812" lon="11.0359799"><ele>1074.0</ele><time>2026-04-26T13:04:11.781Z</time></trkpt><trkpt lat="45.6227162" lon="11.0359607"><ele>1072.1666666666667</ele><time>2026-04-26T13:04:12.781Z</time></trkpt><trkpt lat="45.6226494" lon="11.035944"><ele>1070.3333333333333</ele><time>2026-04-26T13:04:13.782Z</time></trkpt><trkpt lat="45.6225683" lon="11.0359215"><ele>1068.5</ele><time>2026-04-26T13:04:14.781Z</time></trkpt><trkpt lat="45.62248" lon="11.0358882"><ele>1066.6666666666665</ele><time>2026-04-26T13:04:15.781Z</time></trkpt><trkpt lat="45.6223909" lon="11.0358464"><ele>1064.8333333333333</ele><time>2026-04-26T13:04:16.781Z</time></trkpt><trkpt lat="45.6222987" lon="11.035799"><ele>1063.0</ele><time>2026-04-26T13:04:17.781Z</time></trkpt><trkpt lat="45.6222023" lon="11.0357474"><ele>1066.6</ele><time>2026-04-26T13:04:18.781Z</time></trkpt><trkpt lat="45.6221066" lon="11.0356941"><ele>1070.1999999999998</ele><time>2026-04-26T13:04:19.78Z</time></trkpt><trkpt lat="45.622008" lon="11.0356423"><ele>1073.8</ele><time>2026-04-26T13:04:20.782Z</time></trkpt><trkpt lat="45.6219144" lon="11.0356019"><ele>1077.3999999999999</ele><time>2026-04-26T13:04:21.782Z</time></trkpt><trkpt lat="45.6218238" lon="11.0355776"><ele>1081.0</ele><time>2026-04-26T13:04:22.782Z</time></trkpt><trkpt lat="45.6217412" lon="11.0355821"><ele>1081.0</ele><time>2026-04-26T13:04:23.781Z</time></trkpt><trkpt lat="45.6216669" lon="11.0356194"><ele>1081.0</ele><time>2026-04-26T13:04:24.782Z</time></trkpt><trkpt lat="45.6215972" lon="11.0356858"><ele>1081.0</ele><time>2026-04-26T13:04:25.781Z</time></trkpt><trkpt lat="45.6215295" lon="11.0357759"><ele>1081.0</ele><time>2026-04-26T13:04:26.781Z</time></trkpt><trkpt lat="45.6214598" lon="11.0358751"><ele>1081.0</ele><time>2026-04-26T13:04:27.782Z</time></trkpt><trkpt lat="45.6214021" lon="11.0359606"><ele>1081.0</ele><time>2026-04-26T13:04:28.781Z</time></trkpt><trkpt lat="45.6213489" lon="11.0360354"><ele>1078.5714285714284</ele><time>2026-04-26T13:04:29.781Z</time></trkpt><trkpt lat="45.621298" lon="11.0360939"><ele>1076.142857142857</ele><time>2026-04-26T13:04:30.782Z</time></trkpt><trkpt lat="45.6212343" lon="11.036142"><ele>1073.7142857142858</ele><time>2026-04-26T13:04:31.781Z</time></trkpt><trkpt lat="45.6211649" lon="11.0361662"><ele>1071.2857142857142</ele><time>2026-04-26T13:04:32.78Z</time></trkpt><trkpt lat="45.6210936" lon="11.0361645"><ele>1068.857142857143</ele><time>2026-04-26T13:04:33.781Z</time></trkpt><trkpt lat="45.6210196" lon="11.036144"><ele>1066.4285714285713</ele><time>2026-04-26T13:04:34.781Z</time></trkpt><trkpt lat="45.620948" lon="11.0361059"><ele>1064.0</ele><time>2026-04-26T13:04:35.782Z</time></trkpt><trkpt lat="45.6208788" lon="11.0360365"><ele>1064.0</ele><time>2026-04-26T13:04:36.781Z</time></trkpt><trkpt lat="45.6208176" lon="11.0359707"><ele>1064.0</ele><time>2026-04-26T13:04:37.781Z</time></trkpt><trkpt lat="45.6207596" lon="11.0359044"><ele>1064.0</ele><time>2026-04-26T13:04:38.781Z</time></trkpt><trkpt lat="45.6206995" lon="11.0358363"><ele>1064.0</ele><time>2026-04-26T13:04:39.781Z</time></trkpt><trkpt lat="45.6206296" lon="11.0357656"><ele>1064.0</ele><time>2026-04-26T13:04:40.78Z</time></trkpt><trkpt lat="45.6205548" lon="11.0356959"><ele>1064.0</ele><time>2026-04-26T13:04:41.782Z</time></trkpt><trkpt lat="45.6204797" lon="11.0356317"><ele>1064.6000000000001</ele><time>2026-04-26T13:04:42.782Z</time></trkpt><trkpt lat="45.6204154" lon="11.0355801"><ele>1065.2</ele><time>2026-04-26T13:04:43.781Z</time></trkpt><trkpt lat="45.6203135" lon="11.0354992"><ele>1065.8000000000002</ele><time>2026-04-26T13:04:45.781Z</time></trkpt><trkpt lat="45.6202102" lon="11.0354144"><ele>1066.4</ele><time>2026-04-26T13:04:47.781Z</time></trkpt><trkpt lat="45.6201075" lon="11.0353355"><ele>1067.0</ele><time>2026-04-26T13:04:49.782Z</time></trkpt><trkpt lat="45.6199983" lon="11.0352651"><ele>1067.0</ele><time>2026-04-26T13:04:51.782Z</time></trkpt><trkpt lat="45.6199343" lon="11.0352342"><ele>1067.0</ele><time>2026-04-26T13:04:53.782Z</time></trkpt><trkpt lat="45.6198525" lon="11.0352404"><ele>1067.0</ele><time>2026-04-26T13:04:55.78Z</time></trkpt><trkpt lat="45.6197781" lon="11.0352965"><ele>1067.0</ele><time>2026-04-26T13:04:57.781Z</time></trkpt><trkpt lat="45.6197013" lon="11.035359"><ele>1067.0</ele><time>2026-04-26T13:04:59.782Z</time></trkpt><trkpt lat="45.6195933" lon="11.0354259"><ele>1067.0</ele><time>2026-04-26T13:05:01.781Z</time></trkpt><trkpt lat="45.6195207" lon="11.0354876"><ele>1067.0</ele><time>2026-04-26T13:05:03.781Z</time></trkpt><trkpt lat="45.6194709" lon="11.035624"><ele>1067.0</ele><time>2026-04-26T13:05:05.782Z</time></trkpt><trkpt lat="45.6194608" lon="11.035783"><ele>1067.0</ele><time>2026-04-26T13:05:07.78Z</time></trkpt><trkpt lat="45.6195017" lon="11.0358647"><ele>1067.0</ele><time>2026-04-26T13:05:09.78Z</time></trkpt><trkpt lat="45.6195737" lon="11.0358462"><ele>1067.0</ele><time>2026-04-26T13:05:11.782Z</time></trkpt><trkpt lat="45.6196488" lon="11.0357236"><ele>1067.0</ele><time>2026-04-26T13:05:13.781Z</time></trkpt><trkpt lat="45.6196887" lon="11.03564"><ele>1067.0</ele><time>2026-04-26T13:05:14.782Z</time></trkpt><trkpt lat="45.619761" lon="11.03552"><ele>1067.0</ele><time>2026-04-26T13:05:16.781Z</time></trkpt><trkpt lat="45.6198616" lon="11.0354575"><ele>1067.0</ele><time>2026-04-26T13:05:18.781Z</time></trkpt><trkpt lat="45.6199324" lon="11.0354754"><ele>1067.0</ele><time>2026-04-26T13:05:20.782Z</time></trkpt><trkpt lat="45.6200003" lon="11.0354895"><ele>1067.0</ele><time>2026-04-26T13:05:31.781Z</time></trkpt><trkpt lat="45.6200807" lon="11.0354681"><ele>1067.0</ele><time>2026-04-26T13:05:34.781Z</time></trkpt><trkpt lat="45.6201454" lon="11.0355373"><ele>1067.0</ele><time>2026-04-26T13:05:38.782Z</time></trkpt><trkpt lat="45.6202061" lon="11.0355103"><ele>1067.0</ele><time>2026-04-26T13:10:29.78Z</time></trkpt><trkpt lat="45.6202726" lon="11.0355259"><ele>1067.0</ele><time>2026-04-26T13:10:31.779Z</time></trkpt><trkpt lat="45.6203893" lon="11.0356318"><ele>1067.0</ele><time>2026-04-26T13:10:33.779Z</time></trkpt><trkpt lat="45.6204545" lon="11.0356877"><ele>1067.0</ele><time>2026-04-26T13:10:34.78Z</time></trkpt><trkpt lat="45.6205288" lon="11.0357509"><ele>1066.4</ele><time>2026-04-26T13:10:35.781Z</time></trkpt><trkpt lat="45.6206135" lon="11.0358257"><ele>1065.8000000000002</ele><time>2026-04-26T13:10:36.781Z</time></trkpt><trkpt lat="45.6207008" lon="11.035908"><ele>1065.2</ele><time>2026-04-26T13:10:37.781Z</time></trkpt><trkpt lat="45.6207869" lon="11.0359959"><ele>1064.6000000000001</ele><time>2026-04-26T13:10:38.78Z</time></trkpt><trkpt lat="45.6208638" lon="11.0360771"><ele>1064.0</ele><time>2026-04-26T13:10:39.779Z</time></trkpt><trkpt lat="45.6209396" lon="11.0361389"><ele>1064.0</ele><time>2026-04-26T13:10:40.781Z</time></trkpt><trkpt lat="45.6210166" lon="11.036174"><ele>1064.0</ele><time>2026-04-26T13:10:41.78Z</time></trkpt><trkpt lat="45.6211009" lon="11.0361907"><ele>1064.0</ele><time>2026-04-26T13:10:42.779Z</time></trkpt><trkpt lat="45.6211748" lon="11.0361859"><ele>1064.0</ele><time>2026-04-26T13:10:43.78Z</time></trkpt><trkpt lat="45.6212454" lon="11.0361561"><ele>1064.0</ele><time>2026-04-26T13:10:44.78Z</time></trkpt><trkpt lat="45.6213183" lon="11.0360944"><ele>1064.0</ele><time>2026-04-26T13:10:45.781Z</time></trkpt><trkpt lat="45.6213902" lon="11.0360007"><ele>1063.8</ele><time>2026-04-26T13:10:46.78Z</time></trkpt><trkpt lat="45.6214602" lon="11.035891"><ele>1063.6000000000001</ele><time>2026-04-26T13:10:47.781Z</time></trkpt><trkpt lat="45.6215301" lon="11.0357864"><ele>1063.4</ele><time>2026-04-26T13:10:48.78Z</time></trkpt><trkpt lat="45.6216013" lon="11.035699"><ele>1063.2</ele><time>2026-04-26T13:10:49.78Z</time></trkpt><trkpt lat="45.6216724" lon="11.0356357"><ele>1063.0</ele><time>2026-04-26T13:10:50.78Z</time></trkpt><trkpt lat="45.6217494" lon="11.0356041"><ele>1067.5</ele><time>2026-04-26T13:10:51.78Z</time></trkpt><trkpt lat="45.6218373" lon="11.03561"><ele>1072.0</ele><time>2026-04-26T13:10:52.78Z</time></trkpt><trkpt lat="45.6219381" lon="11.0356487"><ele>1076.5</ele><time>2026-04-26T13:10:53.779Z</time></trkpt><trkpt lat="45.6220567" lon="11.035708"><ele>1081.0</ele><time>2026-04-26T13:10:54.78Z</time></trkpt><trkpt lat="45.6221915" lon="11.0357818"><ele>1076.5</ele><time>2026-04-26T13:10:55.78Z</time></trkpt><trkpt lat="45.6223123" lon="11.0358423"><ele>1072.0</ele><time>2026-04-26T13:10:56.781Z</time></trkpt><trkpt lat="45.6224386" lon="11.0359006"><ele>1067.5</ele><time>2026-04-26T13:10:57.781Z</time></trkpt><trkpt lat="45.6225641" lon="11.0359517"><ele>1063.0</ele><time>2026-04-26T13:10:58.779Z</time></trkpt><trkpt lat="45.6226869" lon="11.0359946"><ele>1065.75</ele><time>2026-04-26T13:10:59.781Z</time></trkpt><trkpt lat="45.6228182" lon="11.0360277"><ele>1068.5</ele><time>2026-04-26T13:11:00.781Z</time></trkpt><trkpt lat="45.6229651" lon="11.036058"><ele>1071.25</ele><time>2026-04-26T13:11:01.779Z</time></trkpt><trkpt lat="45.623111" lon="11.0360824"><ele>1074.0</ele><time>2026-04-26T13:11:02.78Z</time></trkpt><trkpt lat="45.6232697" lon="11.0360919"><ele>1074.0</ele><time>2026-04-26T13:11:03.779Z</time></trkpt><trkpt lat="45.6234443" lon="11.0360925"><ele>1074.0</ele><time>2026-04-26T13:11:04.78Z</time></trkpt><trkpt lat="45.6236332" lon="11.036103"><ele>1074.0</ele><time>2026-04-26T13:11:05.78Z</time></trkpt><trkpt lat="45.6238107" lon="11.0361324"><ele>1079.0</ele><time>2026-04-26T13:11:06.78Z</time></trkpt><trkpt lat="45.6239816" lon="11.0361741"><ele>1084.0</ele><time>2026-04-26T13:11:07.781Z</time></trkpt><trkpt lat="45.6241468" lon="11.0362193"><ele>1089.0</ele><time>2026-04-26T13:11:08.78Z</time></trkpt><trkpt lat="45.6243184" lon="11.0362653"><ele>1091.0</ele><time>2026-04-26T13:11:09.781Z</time></trkpt><trkpt lat="45.6244966" lon="11.0362938"><ele>1093.0</ele><time>2026-04-26T13:11:10.78Z</time></trkpt><trkpt lat="45.6246807" lon="11.0363002"><ele>1095.0</ele><time>2026-04-26T13:11:11.78Z</time></trkpt><trkpt lat="45.6248601" lon="11.0362922"><ele>1095.0</ele><time>2026-04-26T13:11:12.78Z</time></trkpt><trkpt lat="45.6250413" lon="11.0362736"><ele>1095.0</ele><time>2026-04-26T13:11:13.78Z</time></trkpt><trkpt lat="45.6252286" lon="11.0362423"><ele>1095.0</ele><time>2026-04-26T13:11:14.78Z</time></trkpt><trkpt lat="45.6254041" lon="11.0361937"><ele>1095.0</ele><time>2026-04-26T13:11:15.781Z</time></trkpt><trkpt lat="45.6255633" lon="11.0361508"><ele>1095.0</ele><time>2026-04-26T13:11:16.781Z</time></trkpt><trkpt lat="45.6257108" lon="11.0361128"><ele>1095.0</ele><time>2026-04-26T13:11:17.78Z</time></trkpt><trkpt lat="45.6258316" lon="11.0360763"><ele>1095.0</ele><time>2026-04-26T13:11:18.78Z</time></trkpt><trkpt lat="45.6259299" lon="11.0360411"><ele>1095.0</ele><time>2026-04-26T13:11:19.78Z</time></trkpt><trkpt lat="45.6260093" lon="11.0359947"><ele>1095.0</ele><time>2026-04-26T13:11:20.78Z</time></trkpt><trkpt lat="45.6260675" lon="11.0359185"><ele>1095.0</ele><time>2026-04-26T13:11:21.78Z</time></trkpt><trkpt lat="45.6260968" lon="11.0358144"><ele>1095.0</ele><time>2026-04-26T13:11:22.781Z</time></trkpt><trkpt lat="45.626087" lon="11.0357022"><ele>1095.0</ele><time>2026-04-26T13:11:23.78Z</time></trkpt><trkpt lat="45.6260376" lon="11.0356019"><ele>1095.0</ele><time>2026-04-26T13:11:24.779Z</time></trkpt><trkpt lat="45.6259615" lon="11.0355453"><ele>1099.25</ele><time>2026-04-26T13:11:25.781Z</time></trkpt><trkpt lat="45.6258734" lon="11.0355455"><ele>1103.5</ele><time>2026-04-26T13:11:26.781Z</time></trkpt><trkpt lat="45.6257695" lon="11.0355974"><ele>1107.75</ele><time>2026-04-26T13:11:27.779Z</time></trkpt><trkpt lat="45.6256449" lon="11.0356703"><ele>1112.0</ele><time>2026-04-26T13:11:28.781Z</time></trkpt><trkpt lat="45.6255179" lon="11.0357443"><ele>1114.0</ele><time>2026-04-26T13:11:29.78Z</time></trkpt><trkpt lat="45.625385" lon="11.0358108"><ele>1116.0</ele><time>2026-04-26T13:11:30.78Z</time></trkpt><trkpt lat="45.6252492" lon="11.0358296"><ele>1118.0</ele><time>2026-04-26T13:11:31.781Z</time></trkpt><trkpt lat="45.6251094" lon="11.035805"><ele>1120.0</ele><time>2026-04-26T13:11:32.78Z</time></trkpt><trkpt lat="45.6249531" lon="11.0357387"><ele>1120.0</ele><time>2026-04-26T13:11:33.78Z</time></trkpt><trkpt lat="45.6247799" lon="11.0356495"><ele>1120.0</ele><time>2026-04-26T13:11:34.78Z</time></trkpt><trkpt lat="45.6246123" lon="11.0355664"><ele>1120.0</ele><time>2026-04-26T13:11:35.78Z</time></trkpt><trkpt lat="45.6244648" lon="11.0354921"><ele>1119.2</ele><time>2026-04-26T13:11:36.779Z</time></trkpt><trkpt lat="45.6243359" lon="11.0354298"><ele>1118.4</ele><time>2026-04-26T13:11:37.781Z</time></trkpt><trkpt lat="45.6242264" lon="11.0353755"><ele>1117.6</ele><time>2026-04-26T13:11:38.781Z</time></trkpt><trkpt lat="45.6241441" lon="11.035325"><ele>1116.8</ele><time>2026-04-26T13:11:39.781Z</time></trkpt><trkpt lat="45.6240784" lon="11.0352612"><ele>1116.0</ele><time>2026-04-26T13:11:40.779Z</time></trkpt><trkpt lat="45.6240418" lon="11.0351737"><ele>1116.0</ele><time>2026-04-26T13:11:41.78Z</time></trkpt><trkpt lat="45.6240418" lon="11.0350731"><ele>1116.0</ele><time>2026-04-26T13:11:42.78Z</time></trkpt><trkpt lat="45.6240786" lon="11.0349738"><ele>1116.0</ele><time>2026-04-26T13:11:43.779Z</time></trkpt><trkpt lat="45.6241427" lon="11.0349211"><ele>1116.0</ele><time>2026-04-26T13:11:44.78Z</time></trkpt><trkpt lat="45.6242305" lon="11.0349142"><ele>1116.0</ele><time>2026-04-26T13:11:45.78Z</time></trkpt><trkpt lat="45.6243423" lon="11.0349457"><ele>1116.0</ele><time>2026-04-26T13:11:46.78Z</time></trkpt><trkpt lat="45.6244771" lon="11.0349887"><ele>1117.0</ele><time>2026-04-26T13:11:47.781Z</time></trkpt><trkpt lat="45.6246119" lon="11.0350386"><ele>1118.0</ele><time>2026-04-26T13:11:48.781Z</time></trkpt><trkpt lat="45.6247484" lon="11.0350891"><ele>1119.0</ele><time>2026-04-26T13:11:49.779Z</time></trkpt><trkpt lat="45.6248724" lon="11.0351185"><ele>1120.0</ele><time>2026-04-26T13:11:50.78Z</time></trkpt><trkpt lat="45.6250038" lon="11.0351164"><ele>1120.0</ele><time>2026-04-26T13:11:51.78Z</time></trkpt><trkpt lat="45.6251402" lon="11.0350963"><ele>1120.0</ele><time>2026-04-26T13:11:52.78Z</time></trkpt><trkpt lat="45.6252787" lon="11.0350361"><ele>1120.0</ele><time>2026-04-26T13:11:53.781Z</time></trkpt><trkpt lat="45.6254167" lon="11.034939"><ele>1120.0</ele><time>2026-04-26T13:11:54.78Z</time></trkpt><trkpt lat="45.6255445" lon="11.0348176"><ele>1122.5</ele><time>2026-04-26T13:11:55.779Z</time></trkpt><trkpt lat="45.6256531" lon="11.0346804"><ele>1125.0</ele><time>2026-04-26T13:11:56.78Z</time></trkpt><trkpt lat="45.6257543" lon="11.0345324"><ele>1127.5</ele><time>2026-04-26T13:11:57.78Z</time></trkpt><trkpt lat="45.6258436" lon="11.0344229"><ele>1130.0</ele><time>2026-04-26T13:11:58.779Z</time></trkpt><trkpt lat="45.6259475" lon="11.0343594"><ele>1130.0</ele><time>2026-04-26T13:11:59.78Z</time></trkpt><trkpt lat="45.6260707" lon="11.0343241"><ele>1130.0</ele><time>2026-04-26T13:12:00.781Z</time></trkpt><trkpt lat="45.6261997" lon="11.0343108"><ele>1130.0</ele><time>2026-04-26T13:12:01.779Z</time></trkpt><trkpt lat="45.6263079" lon="11.0343085"><ele>1130.0</ele><time>2026-04-26T13:12:02.78Z</time></trkpt><trkpt lat="45.6263969" lon="11.034313"><ele>1130.8</ele><time>2026-04-26T13:12:03.78Z</time></trkpt><trkpt lat="45.626488" lon="11.0343356"><ele>1131.6</ele><time>2026-04-26T13:12:05.78Z</time></trkpt><trkpt lat="45.6265646" lon="11.0343237"><ele>1132.4</ele><time>2026-04-26T13:12:07.78Z</time></trkpt><trkpt lat="45.6266013" lon="11.034216"><ele>1133.2</ele><time>2026-04-26T13:12:09.78Z</time></trkpt><trkpt lat="45.6265436" lon="11.0340615"><ele>1134.0</ele><time>2026-04-26T13:12:11.781Z</time></trkpt><trkpt lat="45.6264801" lon="11.0339683"><ele>1134.0</ele><time>2026-04-26T13:12:12.781Z</time></trkpt><trkpt lat="45.6264149" lon="11.0338861"><ele>1134.0</ele><time>2026-04-26T13:12:13.781Z</time></trkpt><trkpt lat="45.626354" lon="11.0338086"><ele>1134.0</ele><time>2026-04-26T13:12:14.78Z</time></trkpt><trkpt lat="45.6263033" lon="11.033744"><ele>1134.0</ele><time>2026-04-26T13:12:15.781Z</time></trkpt><trkpt lat="45.6262507" lon="11.0336814"><ele>1134.0</ele><time>2026-04-26T13:12:16.78Z</time></trkpt><trkpt lat="45.6261295" lon="11.0336306"><ele>1134.0</ele><time>2026-04-26T13:12:18.78Z</time></trkpt><trkpt lat="45.6260528" lon="11.0336443"><ele>1132.6666666666667</ele><time>2026-04-26T13:12:19.78Z</time></trkpt><trkpt lat="45.6259745" lon="11.0336531"><ele>1131.3333333333333</ele><time>2026-04-26T13:12:20.779Z</time></trkpt><trkpt lat="45.6259015" lon="11.0336372"><ele>1130.0</ele><time>2026-04-26T13:12:21.781Z</time></trkpt><trkpt lat="45.6258264" lon="11.0335974"><ele>1128.6666666666665</ele><time>2026-04-26T13:12:22.781Z</time></trkpt><trkpt lat="45.6257523" lon="11.0335238"><ele>1127.3333333333333</ele><time>2026-04-26T13:12:23.781Z</time></trkpt><trkpt lat="45.6256861" lon="11.0334168"><ele>1126.0</ele><time>2026-04-26T13:12:24.78Z</time></trkpt><trkpt lat="45.6256323" lon="11.033283"><ele>1122.3999999999999</ele><time>2026-04-26T13:12:25.78Z</time></trkpt><trkpt lat="45.6255929" lon="11.0331256"><ele>1118.8</ele><time>2026-04-26T13:12:26.779Z</time></trkpt><trkpt lat="45.6255545" lon="11.0329775"><ele>1115.1999999999998</ele><time>2026-04-26T13:12:27.781Z</time></trkpt><trkpt lat="45.6255161" lon="11.0328681"><ele>1111.6</ele><time>2026-04-26T13:12:28.781Z</time></trkpt><trkpt lat="45.6254653" lon="11.0327975"><ele>1108.0</ele><time>2026-04-26T13:12:29.779Z</time></trkpt><trkpt lat="45.625347" lon="11.0327771"><ele>1110.6</ele><time>2026-04-26T13:12:31.781Z</time></trkpt><trkpt lat="45.6252169" lon="11.0328086"><ele>1113.1999999999998</ele><time>2026-04-26T13:12:33.78Z</time></trkpt><trkpt lat="45.6251032" lon="11.0327881"><ele>1115.8</ele><time>2026-04-26T13:12:35.781Z</time></trkpt><trkpt lat="45.6250758" lon="11.0327001"><ele>1118.3999999999999</ele><time>2026-04-26T13:12:38.781Z</time></trkpt><trkpt lat="45.6251362" lon="11.0326702"><ele>1121.0</ele><time>2026-04-26T13:12:40.78Z</time></trkpt><trkpt lat="45.6252625" lon="11.0326892"><ele>1118.8333333333335</ele><time>2026-04-26T13:12:42.779Z</time></trkpt><trkpt lat="45.6253356" lon="11.0326805"><ele>1116.6666666666667</ele><time>2026-04-26T13:12:43.781Z</time></trkpt><trkpt lat="45.6254117" lon="11.0326879"><ele>1114.5</ele><time>2026-04-26T13:12:44.78Z</time></trkpt><trkpt lat="45.6254745" lon="11.0327214"><ele>1112.3333333333333</ele><time>2026-04-26T13:12:45.781Z</time></trkpt><trkpt lat="45.6255362" lon="11.0327917"><ele>1110.1666666666665</ele><time>2026-04-26T13:12:46.78Z</time></trkpt><trkpt lat="45.625594" lon="11.0328972"><ele>1108.0</ele><time>2026-04-26T13:12:47.78Z</time></trkpt><trkpt lat="45.6256466" lon="11.0330274"><ele>1108.0</ele><time>2026-04-26T13:12:48.781Z</time></trkpt><trkpt lat="45.6257015" lon="11.0331525"><ele>1108.0</ele><time>2026-04-26T13:12:49.781Z</time></trkpt><trkpt lat="45.625771" lon="11.0332567"><ele>1108.0</ele><time>2026-04-26T13:12:50.78Z</time></trkpt><trkpt lat="45.6258513" lon="11.0333205"><ele>1108.0</ele><time>2026-04-26T13:12:51.78Z</time></trkpt><trkpt lat="45.6259493" lon="11.0333567"><ele>1108.0</ele><time>2026-04-26T13:12:52.781Z</time></trkpt><trkpt lat="45.6260608" lon="11.0333607"><ele>1109.25</ele><time>2026-04-26T13:12:53.781Z</time></trkpt><trkpt lat="45.6261803" lon="11.0333373"><ele>1110.5</ele><time>2026-04-26T13:12:54.78Z</time></trkpt><trkpt lat="45.6262884" lon="11.0332858"><ele>1111.75</ele><time>2026-04-26T13:12:55.78Z</time></trkpt><trkpt lat="45.6263915" lon="11.0331978"><ele>1113.0</ele><time>2026-04-26T13:12:56.781Z</time></trkpt><trkpt lat="45.6264897" lon="11.0330956"><ele>1113.0</ele><time>2026-04-26T13:12:57.78Z</time></trkpt><trkpt lat="45.6265815" lon="11.0330204"><ele>1113.0</ele><time>2026-04-26T13:12:58.781Z</time></trkpt><trkpt lat="45.6266697" lon="11.0329768"><ele>1113.0</ele><time>2026-04-26T13:12:59.781Z</time></trkpt><trkpt lat="45.6267611" lon="11.0329588"><ele>1113.0</ele><time>2026-04-26T13:13:00.78Z</time></trkpt><trkpt lat="45.6268637" lon="11.032923"><ele>1113.0</ele><time>2026-04-26T13:13:01.78Z</time></trkpt><trkpt lat="45.6269718" lon="11.0328664"><ele>1112.4</ele><time>2026-04-26T13:13:02.78Z</time></trkpt><trkpt lat="45.6270888" lon="11.0327977"><ele>1111.8</ele><time>2026-04-26T13:13:03.78Z</time></trkpt><trkpt lat="45.6271849" lon="11.0327212"><ele>1111.2</ele><time>2026-04-26T13:13:04.78Z</time></trkpt><trkpt lat="45.6272606" lon="11.0326425"><ele>1110.6</ele><time>2026-04-26T13:13:05.779Z</time></trkpt><trkpt lat="45.6273281" lon="11.0325584"><ele>1110.0</ele><time>2026-04-26T13:13:06.781Z</time></trkpt><trkpt lat="45.6273852" lon="11.0324411"><ele>1110.0</ele><time>2026-04-26T13:13:07.78Z</time></trkpt><trkpt lat="45.6274294" lon="11.0323206"><ele>1110.0</ele><time>2026-04-26T13:13:08.781Z</time></trkpt><trkpt lat="45.6274632" lon="11.032219"><ele>1110.0</ele><time>2026-04-26T13:13:09.78Z</time></trkpt><trkpt lat="45.6274998" lon="11.0321139"><ele>1110.0</ele><time>2026-04-26T13:13:10.781Z</time></trkpt><trkpt lat="45.6275406" lon="11.032037"><ele>1110.0</ele><time>2026-04-26T13:13:11.78Z</time></trkpt><trkpt lat="45.6276444" lon="11.0319502"><ele>1110.0</ele><time>2026-04-26T13:13:13.781Z</time></trkpt><trkpt lat="45.6277111" lon="11.0319493"><ele>1109.2</ele><time>2026-04-26T13:13:14.78Z</time></trkpt><trkpt lat="45.6278202" lon="11.0320417"><ele>1108.4</ele><time>2026-04-26T13:13:16.78Z</time></trkpt><trkpt lat="45.627867" lon="11.0321208"><ele>1107.6</ele><time>2026-04-26T13:13:17.78Z</time></trkpt><trkpt lat="45.6279174" lon="11.0322337"><ele>1106.8</ele><time>2026-04-26T13:13:18.781Z</time></trkpt><trkpt lat="45.6279648" lon="11.0323569"><ele>1106.0</ele><time>2026-04-26T13:13:19.781Z</time></trkpt><trkpt lat="45.6280073" lon="11.0324606"><ele>1109.8333333333335</ele><time>2026-04-26T13:13:20.78Z</time></trkpt><trkpt lat="45.6280673" lon="11.0325472"><ele>1113.6666666666667</ele><time>2026-04-26T13:13:21.78Z</time></trkpt><trkpt lat="45.6281258" lon="11.0326103"><ele>1117.5</ele><time>2026-04-26T13:13:22.78Z</time></trkpt><trkpt lat="45.6281959" lon="11.0326385"><ele>1121.3333333333333</ele><time>2026-04-26T13:13:23.78Z</time></trkpt><trkpt lat="45.6282618" lon="11.0326465"><ele>1125.1666666666665</ele><time>2026-04-26T13:13:24.781Z</time></trkpt><trkpt lat="45.6283267" lon="11.0326361"><ele>1129.0</ele><time>2026-04-26T13:13:25.78Z</time></trkpt><trkpt lat="45.6284281" lon="11.0325388"><ele>1129.0</ele><time>2026-04-26T13:13:27.781Z</time></trkpt><trkpt lat="45.6284867" lon="11.0324848"><ele>1129.0</ele><time>2026-04-26T13:13:28.78Z</time></trkpt><trkpt lat="45.6285385" lon="11.0323909"><ele>1129.0</ele><time>2026-04-26T13:13:29.779Z</time></trkpt><trkpt lat="45.6285962" lon="11.0322946"><ele>1129.0</ele><time>2026-04-26T13:13:30.779Z</time></trkpt><trkpt lat="45.6286594" lon="11.0321936"><ele>1129.0</ele><time>2026-04-26T13:13:31.78Z</time></trkpt><trkpt lat="45.6287271" lon="11.0321139"><ele>1129.0</ele><time>2026-04-26T13:13:32.781Z</time></trkpt><trkpt lat="45.6287995" lon="11.0320453"><ele>1124.8333333333333</ele><time>2026-04-26T13:13:33.78Z</time></trkpt><trkpt lat="45.6288747" lon="11.0319952"><ele>1120.6666666666665</ele><time>2026-04-26T13:13:34.779Z</time></trkpt><trkpt lat="45.6289488" lon="11.0319664"><ele>1116.5</ele><time>2026-04-26T13:13:35.78Z</time></trkpt><trkpt lat="45.6290287" lon="11.0319571"><ele>1112.3333333333333</ele><time>2026-04-26T13:13:36.781Z</time></trkpt><trkpt lat="45.6291191" lon="11.0319885"><ele>1108.1666666666667</ele><time>2026-04-26T13:13:37.78Z</time></trkpt><trkpt lat="45.6292035" lon="11.0320298"><ele>1104.0</ele><time>2026-04-26T13:13:38.779Z</time></trkpt><trkpt lat="45.6292942" lon="11.0320532"><ele>1104.0</ele><time>2026-04-26T13:13:39.78Z</time></trkpt><trkpt lat="45.6293941" lon="11.0320467"><ele>1104.0</ele><time>2026-04-26T13:13:40.781Z</time></trkpt><trkpt lat="45.6294915" lon="11.0320163"><ele>1104.0</ele><time>2026-04-26T13:13:41.78Z</time></trkpt><trkpt lat="45.6295782" lon="11.0319571"><ele>1104.0</ele><time>2026-04-26T13:13:42.78Z</time></trkpt><trkpt lat="45.6296545" lon="11.0318647"><ele>1104.0</ele><time>2026-04-26T13:13:43.78Z</time></trkpt><trkpt lat="45.629712" lon="11.0317502"><ele>1104.6000000000001</ele><time>2026-04-26T13:13:44.781Z</time></trkpt><trkpt lat="45.6297557" lon="11.0316132"><ele>1105.2</ele><time>2026-04-26T13:13:45.779Z</time></trkpt><trkpt lat="45.6297899" lon="11.0314651"><ele>1105.8000000000002</ele><time>2026-04-26T13:13:46.781Z</time></trkpt><trkpt lat="45.6298185" lon="11.0313263"><ele>1106.4</ele><time>2026-04-26T13:13:47.78Z</time></trkpt><trkpt lat="45.629855" lon="11.0312114"><ele>1107.0</ele><time>2026-04-26T13:13:48.781Z</time></trkpt><trkpt lat="45.6299081" lon="11.0311217"><ele>1107.0</ele><time>2026-04-26T13:13:49.779Z</time></trkpt><trkpt lat="45.62998" lon="11.0310537"><ele>1107.0</ele><time>2026-04-26T13:13:50.78Z</time></trkpt><trkpt lat="45.6300724" lon="11.0310049"><ele>1107.0</ele><time>2026-04-26T13:13:51.78Z</time></trkpt><trkpt lat="45.6301821" lon="11.0309669"><ele>1107.0</ele><time>2026-04-26T13:13:52.781Z</time></trkpt><trkpt lat="45.6303029" lon="11.0309156"><ele>1107.0</ele><time>2026-04-26T13:13:53.781Z</time></trkpt><trkpt lat="45.6304081" lon="11.0308488"><ele>1107.0</ele><time>2026-04-26T13:13:54.78Z</time></trkpt><trkpt lat="45.6305061" lon="11.0307688"><ele>1107.0</ele><time>2026-04-26T13:13:55.78Z</time></trkpt><trkpt lat="45.6306047" lon="11.0306797"><ele>1107.0</ele><time>2026-04-26T13:13:56.781Z</time></trkpt><trkpt lat="45.6306957" lon="11.0305925"><ele>1107.0</ele><time>2026-04-26T13:13:57.779Z</time></trkpt><trkpt lat="45.630774" lon="11.0304932"><ele>1107.0</ele><time>2026-04-26T13:13:58.781Z</time></trkpt><trkpt lat="45.6308421" lon="11.0303732"><ele>1107.0</ele><time>2026-04-26T13:13:59.78Z</time></trkpt><trkpt lat="45.6308989" lon="11.0302454"><ele>1107.0</ele><time>2026-04-26T13:14:00.781Z</time></trkpt><trkpt lat="45.6309458" lon="11.0301368"><ele>1107.0</ele><time>2026-04-26T13:14:01.78Z</time></trkpt><trkpt lat="45.6309946" lon="11.0300445"><ele>1107.0</ele><time>2026-04-26T13:14:02.78Z</time></trkpt><trkpt lat="45.6310751" lon="11.0299424"><ele>1107.0</ele><time>2026-04-26T13:14:04.781Z</time></trkpt><trkpt lat="45.6311689" lon="11.0298879"><ele>1107.3333333333333</ele><time>2026-04-26T13:14:06.78Z</time></trkpt><trkpt lat="45.6312323" lon="11.0298838"><ele>1107.6666666666667</ele><time>2026-04-26T13:14:07.779Z</time></trkpt><trkpt lat="45.6313038" lon="11.0299016"><ele>1108.0</ele><time>2026-04-26T13:14:08.781Z</time></trkpt><trkpt lat="45.6313822" lon="11.0299437"><ele>1108.3333333333335</ele><time>2026-04-26T13:14:09.781Z</time></trkpt><trkpt lat="45.6314654" lon="11.0300125"><ele>1108.6666666666667</ele><time>2026-04-26T13:14:10.78Z</time></trkpt><trkpt lat="45.631548" lon="11.0300965"><ele>1109.0</ele><time>2026-04-26T13:14:11.781Z</time></trkpt><trkpt lat="45.6316279" lon="11.0301815"><ele>1109.0</ele><time>2026-04-26T13:14:12.779Z</time></trkpt><trkpt lat="45.6317121" lon="11.030264"><ele>1109.0</ele><time>2026-04-26T13:14:13.779Z</time></trkpt><trkpt lat="45.6317896" lon="11.0303296"><ele>1109.0</ele><time>2026-04-26T13:14:14.779Z</time></trkpt><trkpt lat="45.631867" lon="11.0303826"><ele>1109.0</ele><time>2026-04-26T13:14:15.779Z</time></trkpt><trkpt lat="45.6319576" lon="11.0304251"><ele>1109.0</ele><time>2026-04-26T13:14:16.78Z</time></trkpt><trkpt lat="45.6320655" lon="11.0304557"><ele>1107.8</ele><time>2026-04-26T13:14:17.781Z</time></trkpt><trkpt lat="45.6321751" lon="11.0304701"><ele>1106.6000000000001</ele><time>2026-04-26T13:14:18.781Z</time></trkpt><trkpt lat="45.6322733" lon="11.0304756"><ele>1105.4</ele><time>2026-04-26T13:14:19.78Z</time></trkpt><trkpt lat="45.6323737" lon="11.0304858"><ele>1104.2</ele><time>2026-04-26T13:14:20.779Z</time></trkpt><trkpt lat="45.6324815" lon="11.0305027"><ele>1103.0</ele><time>2026-04-26T13:14:21.781Z</time></trkpt><trkpt lat="45.6325893" lon="11.0305252"><ele>1103.0</ele><time>2026-04-26T13:14:22.78Z</time></trkpt><trkpt lat="45.6327055" lon="11.0305513"><ele>1103.0</ele><time>2026-04-26T13:14:23.78Z</time></trkpt><trkpt lat="45.6328316" lon="11.0305851"><ele>1103.0</ele><time>2026-04-26T13:14:24.781Z</time></trkpt><trkpt lat="45.6329716" lon="11.0306263"><ele>1103.0</ele><time>2026-04-26T13:14:25.781Z</time></trkpt><trkpt lat="45.6331001" lon="11.0306691"><ele>1104.8</ele><time>2026-04-26T13:14:26.78Z</time></trkpt><trkpt lat="45.6331959" lon="11.0307178"><ele>1106.6</ele><time>2026-04-26T13:14:27.78Z</time></trkpt><trkpt lat="45.633276" lon="11.0307867"><ele>1108.4</ele><time>2026-04-26T13:14:28.779Z</time></trkpt><trkpt lat="45.6333425" lon="11.0308839"><ele>1110.2</ele><time>2026-04-26T13:14:29.779Z</time></trkpt><trkpt lat="45.6333917" lon="11.0310022"><ele>1112.0</ele><time>2026-04-26T13:14:30.781Z</time></trkpt><trkpt lat="45.6334067" lon="11.0311242"><ele>1112.0</ele><time>2026-04-26T13:14:31.781Z</time></trkpt><trkpt lat="45.6334005" lon="11.0312721"><ele>1112.0</ele><time>2026-04-26T13:14:32.781Z</time></trkpt><trkpt lat="45.6333711" lon="11.0314446"><ele>1112.0</ele><time>2026-04-26T13:14:33.781Z</time></trkpt><trkpt lat="45.6333274" lon="11.03164"><ele>1112.0</ele><time>2026-04-26T13:14:34.781Z</time></trkpt><trkpt lat="45.6332784" lon="11.031831"><ele>1114.0</ele><time>2026-04-26T13:14:35.781Z</time></trkpt><trkpt lat="45.6332303" lon="11.0320034"><ele>1116.0</ele><time>2026-04-26T13:14:36.779Z</time></trkpt><trkpt lat="45.633189" lon="11.0321788"><ele>1118.0</ele><time>2026-04-26T13:14:37.779Z</time></trkpt><trkpt lat="45.6331613" lon="11.0323395"><ele>1120.0</ele><time>2026-04-26T13:14:38.781Z</time></trkpt><trkpt lat="45.6331478" lon="11.0324893"><ele>1120.0</ele><time>2026-04-26T13:14:39.781Z</time></trkpt><trkpt lat="45.6331599" lon="11.0326191"><ele>1120.0</ele><time>2026-04-26T13:14:40.781Z</time></trkpt><trkpt lat="45.6332009" lon="11.0327326"><ele>1120.0</ele><time>2026-04-26T13:14:41.78Z</time></trkpt><trkpt lat="45.633267" lon="11.0328237"><ele>1120.0</ele><time>2026-04-26T13:14:42.78Z</time></trkpt><trkpt lat="45.6333617" lon="11.0328689"><ele>1120.0</ele><time>2026-04-26T13:14:43.781Z</time></trkpt><trkpt lat="45.6334706" lon="11.0328738"><ele>1120.0</ele><time>2026-04-26T13:14:44.781Z</time></trkpt><trkpt lat="45.6335914" lon="11.0328405"><ele>1120.0</ele><time>2026-04-26T13:14:45.781Z</time></trkpt><trkpt lat="45.6337157" lon="11.0328053"><ele>1120.0</ele><time>2026-04-26T13:14:46.781Z</time></trkpt><trkpt lat="45.6338293" lon="11.0328003"><ele>1120.0</ele><time>2026-04-26T13:14:47.779Z</time></trkpt><trkpt lat="45.633943" lon="11.0328391"><ele>1118.5</ele><time>2026-04-26T13:14:48.779Z</time></trkpt><trkpt lat="45.6340638" lon="11.0329198"><ele>1117.0</ele><time>2026-04-26T13:14:49.779Z</time></trkpt><trkpt lat="45.6341842" lon="11.0330111"><ele>1115.5</ele><time>2026-04-26T13:14:50.779Z</time></trkpt><trkpt lat="45.6343011" lon="11.0330596"><ele>1114.0</ele><time>2026-04-26T13:14:51.781Z</time></trkpt><trkpt lat="45.6344316" lon="11.0330723"><ele>1116.25</ele><time>2026-04-26T13:14:52.781Z</time></trkpt><trkpt lat="45.6345633" lon="11.0330434"><ele>1118.5</ele><time>2026-04-26T13:14:53.781Z</time></trkpt><trkpt lat="45.6346884" lon="11.0330284"><ele>1120.75</ele><time>2026-04-26T13:14:54.781Z</time></trkpt><trkpt lat="45.6348303" lon="11.0330464"><ele>1123.0</ele><time>2026-04-26T13:14:55.781Z</time></trkpt><trkpt lat="45.6349927" lon="11.0330871"><ele>1123.0</ele><time>2026-04-26T13:14:56.78Z</time></trkpt><trkpt lat="45.6351589" lon="11.0331319"><ele>1123.0</ele><time>2026-04-26T13:14:57.779Z</time></trkpt><trkpt lat="45.6353058" lon="11.0331841"><ele>1123.0</ele><time>2026-04-26T13:14:58.78Z</time></trkpt><trkpt lat="45.6354402" lon="11.0332378"><ele>1127.0</ele><time>2026-04-26T13:14:59.781Z</time></trkpt><trkpt lat="45.6355567" lon="11.0332858"><ele>1131.0</ele><time>2026-04-26T13:15:00.781Z</time></trkpt><trkpt lat="45.635649" lon="11.0332993"><ele>1135.0</ele><time>2026-04-26T13:15:01.78Z</time></trkpt><trkpt lat="45.6357283" lon="11.0332843"><ele>1139.0</ele><time>2026-04-26T13:15:02.78Z</time></trkpt><trkpt lat="45.6357942" lon="11.0332317"><ele>1143.0</ele><time>2026-04-26T13:15:03.78Z</time></trkpt><trkpt lat="45.635845" lon="11.0331377"><ele>1143.0</ele><time>2026-04-26T13:15:04.779Z</time></trkpt><trkpt lat="45.6358654" lon="11.0330164"><ele>1143.0</ele><time>2026-04-26T13:15:05.781Z</time></trkpt><trkpt lat="45.6358557" lon="11.0328821"><ele>1143.0</ele><time>2026-04-26T13:15:06.779Z</time></trkpt><trkpt lat="45.6358297" lon="11.0327395"><ele>1143.0</ele><time>2026-04-26T13:15:07.78Z</time></trkpt><trkpt lat="45.6357758" lon="11.0325983"><ele>1143.0</ele><time>2026-04-26T13:15:08.78Z</time></trkpt><trkpt lat="45.6356906" lon="11.0324654"><ele>1143.25</ele><time>2026-04-26T13:15:09.781Z</time></trkpt><trkpt lat="45.6355887" lon="11.0323511"><ele>1143.5</ele><time>2026-04-26T13:15:10.78Z</time></trkpt><trkpt lat="45.6354771" lon="11.0322343"><ele>1143.75</ele><time>2026-04-26T13:15:11.781Z</time></trkpt><trkpt lat="45.635387" lon="11.0321212"><ele>1144.0</ele><time>2026-04-26T13:15:12.78Z</time></trkpt><trkpt lat="45.63532" lon="11.0320104"><ele>1140.6000000000001</ele><time>2026-04-26T13:15:13.78Z</time></trkpt><trkpt lat="45.6352802" lon="11.0319029"><ele>1137.2</ele><time>2026-04-26T13:15:14.78Z</time></trkpt><trkpt lat="45.6352722" lon="11.031791"><ele>1133.8000000000002</ele><time>2026-04-26T13:15:15.78Z</time></trkpt><trkpt lat="45.6352976" lon="11.0316754"><ele>1130.4</ele><time>2026-04-26T13:15:16.78Z</time></trkpt><trkpt lat="45.6353597" lon="11.0315579"><ele>1127.0</ele><time>2026-04-26T13:15:17.781Z</time></trkpt><trkpt lat="45.6354534" lon="11.0314428"><ele>1127.0</ele><time>2026-04-26T13:15:18.78Z</time></trkpt><trkpt lat="45.6355657" lon="11.0313549"><ele>1127.0</ele><time>2026-04-26T13:15:19.781Z</time></trkpt><trkpt lat="45.6356985" lon="11.0312985"><ele>1127.0</ele><time>2026-04-26T13:15:20.779Z</time></trkpt><trkpt lat="45.6358345" lon="11.0312658"><ele>1127.0</ele><time>2026-04-26T13:15:21.779Z</time></trkpt><trkpt lat="45.636017" lon="11.0313178"><ele>1128.3333333333335</ele><time>2026-04-26T13:15:22.78Z</time></trkpt><trkpt lat="45.6361874" lon="11.0313683"><ele>1129.6666666666667</ele><time>2026-04-26T13:15:23.78Z</time></trkpt><trkpt lat="45.6363732" lon="11.03144"><ele>1131.0</ele><time>2026-04-26T13:15:24.781Z</time></trkpt><trkpt lat="45.6365439" lon="11.0314838"><ele>1131.0</ele><time>2026-04-26T13:15:25.781Z</time></trkpt><trkpt lat="45.6367097" lon="11.0315014"><ele>1131.0</ele><time>2026-04-26T13:15:26.781Z</time></trkpt><trkpt lat="45.6368795" lon="11.0314834"><ele>1131.0</ele><time>2026-04-26T13:15:27.78Z</time></trkpt><trkpt lat="45.6370662" lon="11.0314471"><ele>1135.0</ele><time>2026-04-26T13:15:28.779Z</time></trkpt><trkpt lat="45.637245" lon="11.0313979"><ele>1139.0</ele><time>2026-04-26T13:15:29.779Z</time></trkpt><trkpt lat="45.6374126" lon="11.0313384"><ele>1143.0</ele><time>2026-04-26T13:15:30.781Z</time></trkpt><trkpt lat="45.6375673" lon="11.0312713"><ele>1143.0</ele><time>2026-04-26T13:15:31.78Z</time></trkpt><trkpt lat="45.6377119" lon="11.0312019"><ele>1143.0</ele><time>2026-04-26T13:15:32.781Z</time></trkpt><trkpt lat="45.6378529" lon="11.0311283"><ele>1143.0</ele><time>2026-04-26T13:15:33.781Z</time></trkpt><trkpt lat="45.6379912" lon="11.0310392"><ele>1143.75</ele><time>2026-04-26T13:15:34.779Z</time></trkpt><trkpt lat="45.6381215" lon="11.0309505"><ele>1144.5</ele><time>2026-04-26T13:15:35.781Z</time></trkpt><trkpt lat="45.6382451" lon="11.0308824"><ele>1145.25</ele><time>2026-04-26T13:15:36.781Z</time></trkpt><trkpt lat="45.6383608" lon="11.0308211"><ele>1146.0</ele><time>2026-04-26T13:15:37.78Z</time></trkpt><trkpt lat="45.638468" lon="11.0307571"><ele>1146.0</ele><time>2026-04-26T13:15:38.781Z</time></trkpt><trkpt lat="45.6385571" lon="11.0307078"><ele>1146.0</ele><time>2026-04-26T13:15:39.78Z</time></trkpt><trkpt lat="45.6386336" lon="11.0306785"><ele>1146.0</ele><time>2026-04-26T13:15:40.78Z</time></trkpt><trkpt lat="45.6387075" lon="11.0306831"><ele>1146.0</ele><time>2026-04-26T13:15:41.779Z</time></trkpt><trkpt lat="45.6387761" lon="11.0307316"><ele>1146.0</ele><time>2026-04-26T13:15:42.78Z</time></trkpt><trkpt lat="45.6388373" lon="11.0308177"><ele>1146.0</ele><time>2026-04-26T13:15:43.781Z</time></trkpt><trkpt lat="45.6388982" lon="11.030944"><ele>1144.25</ele><time>2026-04-26T13:15:44.78Z</time></trkpt><trkpt lat="45.6389767" lon="11.0310814"><ele>1142.5</ele><time>2026-04-26T13:15:45.781Z</time></trkpt><trkpt lat="45.6390669" lon="11.031203"><ele>1140.75</ele><time>2026-04-26T13:15:46.78Z</time></trkpt><trkpt lat="45.639159" lon="11.0312993"><ele>1139.0</ele><time>2026-04-26T13:15:47.78Z</time></trkpt><trkpt lat="45.6392619" lon="11.0313631"><ele>1139.0</ele><time>2026-04-26T13:15:48.779Z</time></trkpt><trkpt lat="45.6393695" lon="11.0313942"><ele>1139.0</ele><time>2026-04-26T13:15:49.779Z</time></trkpt><trkpt lat="45.6394882" lon="11.031393"><ele>1139.0</ele><time>2026-04-26T13:15:50.78Z</time></trkpt><trkpt lat="45.6396168" lon="11.0313744"><ele>1139.0</ele><time>2026-04-26T13:15:51.781Z</time></trkpt><trkpt lat="45.6397487" lon="11.0313438"><ele>1135.75</ele><time>2026-04-26T13:15:52.779Z</time></trkpt><trkpt lat="45.6398723" lon="11.0312978"><ele>1132.5</ele><time>2026-04-26T13:15:53.78Z</time></trkpt><trkpt lat="45.6399909" lon="11.0312393"><ele>1129.25</ele><time>2026-04-26T13:15:54.781Z</time></trkpt><trkpt lat="45.6400942" lon="11.0311667"><ele>1126.0</ele><time>2026-04-26T13:15:55.78Z</time></trkpt><trkpt lat="45.6401794" lon="11.0310621"><ele>1126.0</ele><time>2026-04-26T13:15:56.78Z</time></trkpt><trkpt lat="45.6402553" lon="11.0309188"><ele>1126.0</ele><time>2026-04-26T13:15:57.78Z</time></trkpt><trkpt lat="45.6403136" lon="11.030734"><ele>1126.0</ele><time>2026-04-26T13:15:58.781Z</time></trkpt><trkpt lat="45.6403549" lon="11.0305195"><ele>1126.0</ele><time>2026-04-26T13:15:59.781Z</time></trkpt><trkpt lat="45.6403816" lon="11.030269"><ele>1131.0</ele><time>2026-04-26T13:16:00.78Z</time></trkpt><trkpt lat="45.640402" lon="11.0299821"><ele>1136.0</ele><time>2026-04-26T13:16:01.78Z</time></trkpt><trkpt lat="45.6404238" lon="11.0297119"><ele>1141.0</ele><time>2026-04-26T13:16:02.78Z</time></trkpt><trkpt lat="45.6404514" lon="11.0294427"><ele>1141.0</ele><time>2026-04-26T13:16:03.781Z</time></trkpt><trkpt lat="45.6404872" lon="11.0291817"><ele>1141.0</ele><time>2026-04-26T13:16:04.781Z</time></trkpt><trkpt lat="45.6405383" lon="11.0289411"><ele>1141.0</ele><time>2026-04-26T13:16:05.78Z</time></trkpt><trkpt lat="45.64061" lon="11.028698"><ele>1135.6666666666665</ele><time>2026-04-26T13:16:06.78Z</time></trkpt><trkpt lat="45.6407002" lon="11.0284411"><ele>1130.3333333333333</ele><time>2026-04-26T13:16:07.78Z</time></trkpt><trkpt lat="45.6408041" lon="11.0281763"><ele>1125.0</ele><time>2026-04-26T13:16:08.781Z</time></trkpt><trkpt lat="45.6409074" lon="11.0279229"><ele>1119.0</ele><time>2026-04-26T13:16:09.78Z</time></trkpt><trkpt lat="45.6410059" lon="11.0276802"><ele>1113.0</ele><time>2026-04-26T13:16:10.779Z</time></trkpt><trkpt lat="45.6410912" lon="11.027467"><ele>1107.0</ele><time>2026-04-26T13:16:11.78Z</time></trkpt><trkpt lat="45.6411688" lon="11.0272772"><ele>1105.5</ele><time>2026-04-26T13:16:12.78Z</time></trkpt><trkpt lat="45.6412449" lon="11.0271143"><ele>1104.0</ele><time>2026-04-26T13:16:13.78Z</time></trkpt><trkpt lat="45.6413365" lon="11.0269723"><ele>1102.5</ele><time>2026-04-26T13:16:14.78Z</time></trkpt><trkpt lat="45.6414557" lon="11.0268535"><ele>1101.0</ele><time>2026-04-26T13:16:15.78Z</time></trkpt><trkpt lat="45.6416" lon="11.0267504"><ele>1101.0</ele><time>2026-04-26T13:16:16.781Z</time></trkpt><trkpt lat="45.6417615" lon="11.0266571"><ele>1101.0</ele><time>2026-04-26T13:16:17.78Z</time></trkpt><trkpt lat="45.6419341" lon="11.0265624"><ele>1101.0</ele><time>2026-04-26T13:16:18.78Z</time></trkpt><trkpt lat="45.6421116" lon="11.0264663"><ele>1098.3333333333333</ele><time>2026-04-26T13:16:19.779Z</time></trkpt><trkpt lat="45.6422843" lon="11.0263793"><ele>1095.6666666666665</ele><time>2026-04-26T13:16:20.781Z</time></trkpt><trkpt lat="45.6424419" lon="11.0262907"><ele>1093.0</ele><time>2026-04-26T13:16:21.78Z</time></trkpt><trkpt lat="45.6425851" lon="11.0261775"><ele>1093.0</ele><time>2026-04-26T13:16:22.78Z</time></trkpt><trkpt lat="45.642722" lon="11.0260314"><ele>1093.0</ele><time>2026-04-26T13:16:23.78Z</time></trkpt><trkpt lat="45.6428602" lon="11.0258566"><ele>1093.0</ele><time>2026-04-26T13:16:24.78Z</time></trkpt><trkpt lat="45.6430069" lon="11.0256812"><ele>1092.6666666666665</ele><time>2026-04-26T13:16:25.779Z</time></trkpt><trkpt lat="45.6431632" lon="11.025523"><ele>1092.3333333333333</ele><time>2026-04-26T13:16:26.78Z</time></trkpt><trkpt lat="45.643326" lon="11.0253735"><ele>1092.0</ele><time>2026-04-26T13:16:27.78Z</time></trkpt><trkpt lat="45.64349" lon="11.0252265"><ele>1094.0</ele><time>2026-04-26T13:16:28.781Z</time></trkpt><trkpt lat="45.6436518" lon="11.0250754"><ele>1096.0</ele><time>2026-04-26T13:16:29.779Z</time></trkpt><trkpt lat="45.6438111" lon="11.024925"><ele>1098.0</ele><time>2026-04-26T13:16:30.781Z</time></trkpt><trkpt lat="45.643962" lon="11.0247801"><ele>1098.0</ele><time>2026-04-26T13:16:31.781Z</time></trkpt><trkpt lat="45.6440993" lon="11.024643"><ele>1098.0</ele><time>2026-04-26T13:16:32.781Z</time></trkpt><trkpt lat="45.644208" lon="11.0245378"><ele>1098.0</ele><time>2026-04-26T13:16:33.781Z</time></trkpt><trkpt lat="45.6443002" lon="11.0244585"><ele>1098.0</ele><time>2026-04-26T13:16:34.78Z</time></trkpt><trkpt lat="45.6443852" lon="11.0244156"><ele>1097.0</ele><time>2026-04-26T13:16:35.781Z</time></trkpt><trkpt lat="45.6444825" lon="11.0244055"><ele>1096.0</ele><time>2026-04-26T13:16:36.78Z</time></trkpt><trkpt lat="45.6445896" lon="11.0244117"><ele>1095.0</ele><time>2026-04-26T13:16:37.781Z</time></trkpt><trkpt lat="45.6447084" lon="11.024423"><ele>1094.0</ele><time>2026-04-26T13:16:38.78Z</time></trkpt><trkpt lat="45.6448302" lon="11.0244266"><ele>1093.0</ele><time>2026-04-26T13:16:39.781Z</time></trkpt><trkpt lat="45.6449322" lon="11.0244072"><ele>1093.0</ele><time>2026-04-26T13:16:40.78Z</time></trkpt><trkpt lat="45.6450313" lon="11.0243578"><ele>1093.0</ele><time>2026-04-26T13:16:41.781Z</time></trkpt><trkpt lat="45.645141" lon="11.0242805"><ele>1093.0</ele><time>2026-04-26T13:16:42.78Z</time></trkpt><trkpt lat="45.6452573" lon="11.0241839"><ele>1093.0</ele><time>2026-04-26T13:16:43.78Z</time></trkpt><trkpt lat="45.6453737" lon="11.0240563"><ele>1096.4</ele><time>2026-04-26T13:16:44.779Z</time></trkpt><trkpt lat="45.6454708" lon="11.0239329"><ele>1099.8</ele><time>2026-04-26T13:16:45.78Z</time></trkpt><trkpt lat="45.6455487" lon="11.0238235"><ele>1103.2</ele><time>2026-04-26T13:16:46.78Z</time></trkpt><trkpt lat="45.6456111" lon="11.0237136"><ele>1106.6</ele><time>2026-04-26T13:16:47.78Z</time></trkpt><trkpt lat="45.6456394" lon="11.0235954"><ele>1110.0</ele><time>2026-04-26T13:16:48.781Z</time></trkpt><trkpt lat="45.6456329" lon="11.0234775"><ele>1110.0</ele><time>2026-04-26T13:16:49.781Z</time></trkpt><trkpt lat="45.6455941" lon="11.0233578"><ele>1110.0</ele><time>2026-04-26T13:16:50.78Z</time></trkpt><trkpt lat="45.6455243" lon="11.0232314"><ele>1110.0</ele><time>2026-04-26T13:16:51.779Z</time></trkpt><trkpt lat="45.6454328" lon="11.0230893"><ele>1110.0</ele><time>2026-04-26T13:16:52.779Z</time></trkpt><trkpt lat="45.6453256" lon="11.0229277"><ele>1104.25</ele><time>2026-04-26T13:16:53.78Z</time></trkpt><trkpt lat="45.6452334" lon="11.0227777"><ele>1098.5</ele><time>2026-04-26T13:16:54.779Z</time></trkpt><trkpt lat="45.6451634" lon="11.0226255"><ele>1092.75</ele><time>2026-04-26T13:16:55.781Z</time></trkpt><trkpt lat="45.6451119" lon="11.0224581"><ele>1087.0</ele><time>2026-04-26T13:16:56.781Z</time></trkpt><trkpt lat="45.6450777" lon="11.0222803"><ele>1085.5</ele><time>2026-04-26T13:16:57.78Z</time></trkpt><trkpt lat="45.6450677" lon="11.022101"><ele>1084.0</ele><time>2026-04-26T13:16:58.781Z</time></trkpt><trkpt lat="45.6450837" lon="11.0219186"><ele>1082.5</ele><time>2026-04-26T13:16:59.78Z</time></trkpt><trkpt lat="45.6451381" lon="11.0217079"><ele>1081.0</ele><time>2026-04-26T13:17:00.78Z</time></trkpt><trkpt lat="45.6451959" lon="11.0214886"><ele>1079.5</ele><time>2026-04-26T13:17:01.779Z</time></trkpt><trkpt lat="45.645231" lon="11.0213035"><ele>1078.0</ele><time>2026-04-26T13:17:02.78Z</time></trkpt><trkpt lat="45.6452386" lon="11.0211277"><ele>1076.5</ele><time>2026-04-26T13:17:03.779Z</time></trkpt><trkpt lat="45.6452598" lon="11.0209881"><ele>1075.0</ele><time>2026-04-26T13:17:04.78Z</time></trkpt><trkpt lat="45.6453101" lon="11.0208647"><ele>1080.0</ele><time>2026-04-26T13:17:05.78Z</time></trkpt><trkpt lat="45.6453869" lon="11.0207313"><ele>1085.0</ele><time>2026-04-26T13:17:06.78Z</time></trkpt><trkpt lat="45.645462" lon="11.0205758"><ele>1090.0</ele><time>2026-04-26T13:17:07.78Z</time></trkpt><trkpt lat="45.6455076" lon="11.0204174"><ele>1095.0</ele><time>2026-04-26T13:17:08.781Z</time></trkpt><trkpt lat="45.6455233" lon="11.0202464"><ele>1095.0</ele><time>2026-04-26T13:17:09.78Z</time></trkpt><trkpt lat="45.6455001" lon="11.0200779"><ele>1095.0</ele><time>2026-04-26T13:17:10.781Z</time></trkpt><trkpt lat="45.6454544" lon="11.019903"><ele>1095.0</ele><time>2026-04-26T13:17:11.779Z</time></trkpt><trkpt lat="45.6454229" lon="11.01974"><ele>1095.0</ele><time>2026-04-26T13:17:12.779Z</time></trkpt><trkpt lat="45.6454197" lon="11.0195913"><ele>1092.0</ele><time>2026-04-26T13:17:13.781Z</time></trkpt><trkpt lat="45.6454454" lon="11.0194586"><ele>1089.0</ele><time>2026-04-26T13:17:14.779Z</time></trkpt><trkpt lat="45.6455043" lon="11.0193504"><ele>1086.0</ele><time>2026-04-26T13:17:15.78Z</time></trkpt><trkpt lat="45.6455974" lon="11.0192386"><ele>1083.0</ele><time>2026-04-26T13:17:16.781Z</time></trkpt><trkpt lat="45.6457061" lon="11.0191159"><ele>1076.0</ele><time>2026-04-26T13:17:17.781Z</time></trkpt><trkpt lat="45.6458322" lon="11.0189641"><ele>1069.0</ele><time>2026-04-26T13:17:18.78Z</time></trkpt><trkpt lat="45.6459516" lon="11.0188338"><ele>1062.0</ele><time>2026-04-26T13:17:19.78Z</time></trkpt><trkpt lat="45.6460673" lon="11.0187307"><ele>1063.0</ele><time>2026-04-26T13:17:20.78Z</time></trkpt><trkpt lat="45.6461835" lon="11.0186725"><ele>1064.0</ele><time>2026-04-26T13:17:21.78Z</time></trkpt><trkpt lat="45.6463098" lon="11.0186661"><ele>1065.0</ele><time>2026-04-26T13:17:22.781Z</time></trkpt><trkpt lat="45.6464561" lon="11.0186973"><ele>1066.0</ele><time>2026-04-26T13:17:23.78Z</time></trkpt><trkpt lat="45.6466206" lon="11.0187558"><ele>1066.0</ele><time>2026-04-26T13:17:24.779Z</time></trkpt><trkpt lat="45.6467876" lon="11.0188186"><ele>1066.0</ele><time>2026-04-26T13:17:25.78Z</time></trkpt><trkpt lat="45.6469787" lon="11.0188913"><ele>1066.0</ele><time>2026-04-26T13:17:26.78Z</time></trkpt><trkpt lat="45.6471806" lon="11.0189659"><ele>1066.0</ele><time>2026-04-26T13:17:27.779Z</time></trkpt><trkpt lat="45.6473623" lon="11.0190278"><ele>1066.0</ele><time>2026-04-26T13:17:28.779Z</time></trkpt><trkpt lat="45.6475439" lon="11.0190731"><ele>1066.0</ele><time>2026-04-26T13:17:29.781Z</time></trkpt><trkpt lat="45.6477206" lon="11.0190938"><ele>1066.6666666666665</ele><time>2026-04-26T13:17:30.78Z</time></trkpt><trkpt lat="45.6478897" lon="11.0190865"><ele>1067.3333333333333</ele><time>2026-04-26T13:17:31.78Z</time></trkpt><trkpt lat="45.6480645" lon="11.0190504"><ele>1068.0</ele><time>2026-04-26T13:17:32.78Z</time></trkpt><trkpt lat="45.6482443" lon="11.018983"><ele>1068.0</ele><time>2026-04-26T13:17:33.78Z</time></trkpt><trkpt lat="45.648438" lon="11.0188954"><ele>1068.0</ele><time>2026-04-26T13:17:34.781Z</time></trkpt><trkpt lat="45.648621" lon="11.0188229"><ele>1068.0</ele><time>2026-04-26T13:17:35.781Z</time></trkpt><trkpt lat="45.6487835" lon="11.0187655"><ele>1070.25</ele><time>2026-04-26T13:17:36.78Z</time></trkpt><trkpt lat="45.6489336" lon="11.0187069"><ele>1072.5</ele><time>2026-04-26T13:17:37.779Z</time></trkpt><trkpt lat="45.6490601" lon="11.0186327"><ele>1074.75</ele><time>2026-04-26T13:17:38.781Z</time></trkpt><trkpt lat="45.6491738" lon="11.0185375"><ele>1077.0</ele><time>2026-04-26T13:17:39.781Z</time></trkpt><trkpt lat="45.6492681" lon="11.0184368"><ele>1076.5</ele><time>2026-04-26T13:17:40.78Z</time></trkpt><trkpt lat="45.6493275" lon="11.0183025"><ele>1076.0</ele><time>2026-04-26T13:17:41.78Z</time></trkpt><trkpt lat="45.6493751" lon="11.0181389"><ele>1075.5</ele><time>2026-04-26T13:17:42.779Z</time></trkpt><trkpt lat="45.6493954" lon="11.0179288"><ele>1075.0</ele><time>2026-04-26T13:17:43.781Z</time></trkpt><trkpt lat="45.6494034" lon="11.0177154"><ele>1075.0</ele><time>2026-04-26T13:17:44.78Z</time></trkpt><trkpt lat="45.6494151" lon="11.0175433"><ele>1075.0</ele><time>2026-04-26T13:17:45.779Z</time></trkpt><trkpt lat="45.6494409" lon="11.0173957"><ele>1075.0</ele><time>2026-04-26T13:17:46.78Z</time></trkpt><trkpt lat="45.6494836" lon="11.0172795"><ele>1075.0</ele><time>2026-04-26T13:17:47.779Z</time></trkpt><trkpt lat="45.6495484" lon="11.0171583"><ele>1075.0</ele><time>2026-04-26T13:17:48.781Z</time></trkpt><trkpt lat="45.6496578" lon="11.0170862"><ele>1073.25</ele><time>2026-04-26T13:17:49.779Z</time></trkpt><trkpt lat="45.6497695" lon="11.0170393"><ele>1071.5</ele><time>2026-04-26T13:17:50.78Z</time></trkpt><trkpt lat="45.6499075" lon="11.0170252"><ele>1069.75</ele><time>2026-04-26T13:17:51.78Z</time></trkpt><trkpt lat="45.6500682" lon="11.0170465"><ele>1068.0</ele><time>2026-04-26T13:17:52.779Z</time></trkpt><trkpt lat="45.6502312" lon="11.0170937"><ele>1061.75</ele><time>2026-04-26T13:17:53.779Z</time></trkpt><trkpt lat="45.6503767" lon="11.0171532"><ele>1055.5</ele><time>2026-04-26T13:17:54.779Z</time></trkpt><trkpt lat="45.6504868" lon="11.01724"><ele>1049.25</ele><time>2026-04-26T13:17:55.78Z</time></trkpt><trkpt lat="45.6505886" lon="11.0173499"><ele>1043.0</ele><time>2026-04-26T13:17:56.78Z</time></trkpt><trkpt lat="45.6506773" lon="11.017478"><ele>1048.0</ele><time>2026-04-26T13:17:57.779Z</time></trkpt><trkpt lat="45.6507678" lon="11.0175995"><ele>1053.0</ele><time>2026-04-26T13:17:58.779Z</time></trkpt><trkpt lat="45.6508577" lon="11.0176831"><ele>1058.0</ele><time>2026-04-26T13:17:59.778Z</time></trkpt><trkpt lat="45.6509306" lon="11.0177119"><ele>1063.0</ele><time>2026-04-26T13:18:00.778Z</time></trkpt><trkpt lat="45.6510279" lon="11.0177362"><ele>1068.0</ele><time>2026-04-26T13:18:01.78Z</time></trkpt><trkpt lat="45.6511454" lon="11.0177089"><ele>1068.0</ele><time>2026-04-26T13:18:02.778Z</time></trkpt><trkpt lat="45.6512866" lon="11.0176023"><ele>1068.0</ele><time>2026-04-26T13:18:03.78Z</time></trkpt><trkpt lat="45.6514141" lon="11.0175417"><ele>1068.0</ele><time>2026-04-26T13:18:04.779Z</time></trkpt><trkpt lat="45.6515387" lon="11.0174901"><ele>1068.0</ele><time>2026-04-26T13:18:05.779Z</time></trkpt><trkpt lat="45.6516685" lon="11.0174582"><ele>1068.0</ele><time>2026-04-26T13:18:06.781Z</time></trkpt><trkpt lat="45.6517708" lon="11.0174826"><ele>1068.0</ele><time>2026-04-26T13:18:07.78Z</time></trkpt><trkpt lat="45.6518949" lon="11.0175123"><ele>1068.0</ele><time>2026-04-26T13:18:08.779Z</time></trkpt><trkpt lat="45.6520342" lon="11.0175654"><ele>1068.0</ele><time>2026-04-26T13:18:09.779Z</time></trkpt><trkpt lat="45.6521786" lon="11.0176204"><ele>1062.75</ele><time>2026-04-26T13:18:10.779Z</time></trkpt><trkpt lat="45.6523191" lon="11.0176745"><ele>1057.5</ele><time>2026-04-26T13:18:11.779Z</time></trkpt><trkpt lat="45.6524382" lon="11.017756"><ele>1052.25</ele><time>2026-04-26T13:18:12.78Z</time></trkpt><trkpt lat="45.6525513" lon="11.0178402"><ele>1047.0</ele><time>2026-04-26T13:18:13.779Z</time></trkpt><trkpt lat="45.6526674" lon="11.0179768"><ele>1047.0</ele><time>2026-04-26T13:18:14.778Z</time></trkpt><trkpt lat="45.6527717" lon="11.0181706"><ele>1047.0</ele><time>2026-04-26T13:18:15.779Z</time></trkpt><trkpt lat="45.6528761" lon="11.0183627"><ele>1047.0</ele><time>2026-04-26T13:18:16.78Z</time></trkpt><trkpt lat="45.6529889" lon="11.018603"><ele>1042.6666666666667</ele><time>2026-04-26T13:18:17.778Z</time></trkpt><trkpt lat="45.6530821" lon="11.0188281"><ele>1038.3333333333335</ele><time>2026-04-26T13:18:18.779Z</time></trkpt><trkpt lat="45.6531583" lon="11.0190263"><ele>1034.0</ele><time>2026-04-26T13:18:19.78Z</time></trkpt><trkpt lat="45.6532389" lon="11.0192078"><ele>1039.6000000000001</ele><time>2026-04-26T13:18:20.78Z</time></trkpt><trkpt lat="45.6533078" lon="11.0193511"><ele>1045.2</ele><time>2026-04-26T13:18:21.778Z</time></trkpt><trkpt lat="45.6533892" lon="11.0194819"><ele>1050.8000000000002</ele><time>2026-04-26T13:18:22.781Z</time></trkpt><trkpt lat="45.6534478" lon="11.0195989"><ele>1056.4</ele><time>2026-04-26T13:18:23.779Z</time></trkpt><trkpt lat="45.6535151" lon="11.0197001"><ele>1062.0</ele><time>2026-04-26T13:18:24.789Z</time></trkpt><trkpt lat="45.6535994" lon="11.0197332"><ele>1063.4</ele><time>2026-04-26T13:18:25.778Z</time></trkpt><trkpt lat="45.6536777" lon="11.0197497"><ele>1064.8000000000002</ele><time>2026-04-26T13:18:26.778Z</time></trkpt><trkpt lat="45.6537858" lon="11.0196678"><ele>1066.2</ele><time>2026-04-26T13:18:28.781Z</time></trkpt><trkpt lat="45.6538102" lon="11.019531"><ele>1067.6000000000001</ele><time>2026-04-26T13:18:29.781Z</time></trkpt><trkpt lat="45.6538434" lon="11.0193721"><ele>1069.0</ele><time>2026-04-26T13:18:30.782Z</time></trkpt><trkpt lat="45.6538757" lon="11.0191684"><ele>1062.75</ele><time>2026-04-26T13:18:31.78Z</time></trkpt><trkpt lat="45.6539081" lon="11.0189694"><ele>1056.5</ele><time>2026-04-26T13:18:32.78Z</time></trkpt><trkpt lat="45.6539427" lon="11.0187871"><ele>1050.25</ele><time>2026-04-26T13:18:33.78Z</time></trkpt><trkpt lat="45.6540172" lon="11.0186058"><ele>1044.0</ele><time>2026-04-26T13:18:34.78Z</time></trkpt><trkpt lat="45.6540875" lon="11.0184407"><ele>1038.8333333333333</ele><time>2026-04-26T13:18:35.778Z</time></trkpt><trkpt lat="45.6541505" lon="11.0183014"><ele>1033.6666666666667</ele><time>2026-04-26T13:18:36.779Z</time></trkpt><trkpt lat="45.6542088" lon="11.0182016"><ele>1028.5</ele><time>2026-04-26T13:18:37.779Z</time></trkpt><trkpt lat="45.6542629" lon="11.0181285"><ele>1023.3333333333334</ele><time>2026-04-26T13:18:38.781Z</time></trkpt><trkpt lat="45.6543213" lon="11.0180799"><ele>1018.1666666666667</ele><time>2026-04-26T13:18:39.78Z</time></trkpt><trkpt lat="45.6544027" lon="11.0180972"><ele>1013.0</ele><time>2026-04-26T13:18:40.78Z</time></trkpt><trkpt lat="45.6545081" lon="11.0181411"><ele>1013.0</ele><time>2026-04-26T13:18:41.78Z</time></trkpt><trkpt lat="45.654623" lon="11.0181701"><ele>1013.0</ele><time>2026-04-26T13:18:42.78Z</time></trkpt><trkpt lat="45.6547457" lon="11.0181573"><ele>1013.0</ele><time>2026-04-26T13:18:43.78Z</time></trkpt><trkpt lat="45.6548833" lon="11.0180877"><ele>1013.0</ele><time>2026-04-26T13:18:44.78Z</time></trkpt><trkpt lat="45.6550284" lon="11.0179963"><ele>1013.0</ele><time>2026-04-26T13:18:45.778Z</time></trkpt><trkpt lat="45.6551828" lon="11.0178632"><ele>1013.0</ele><time>2026-04-26T13:18:46.78Z</time></trkpt><trkpt lat="45.6553299" lon="11.017738"><ele>1013.0</ele><time>2026-04-26T13:18:47.781Z</time></trkpt><trkpt lat="45.6554489" lon="11.0176266"><ele>1012.6666666666667</ele><time>2026-04-26T13:18:48.779Z</time></trkpt><trkpt lat="45.6555784" lon="11.0175252"><ele>1012.3333333333333</ele><time>2026-04-26T13:18:49.779Z</time></trkpt><trkpt lat="45.6557185" lon="11.017452"><ele>1012.0</ele><time>2026-04-26T13:18:50.779Z</time></trkpt><trkpt lat="45.6558635" lon="11.0173814"><ele>1012.0</ele><time>2026-04-26T13:18:51.779Z</time></trkpt><trkpt lat="45.6560294" lon="11.017344"><ele>1012.0</ele><time>2026-04-26T13:18:52.778Z</time></trkpt><trkpt lat="45.6562068" lon="11.0173072"><ele>1012.0</ele><time>2026-04-26T13:18:53.778Z</time></trkpt><trkpt lat="45.6563685" lon="11.0172636"><ele>1012.0</ele><time>2026-04-26T13:18:54.781Z</time></trkpt><trkpt lat="45.6565286" lon="11.0172109"><ele>1012.0</ele><time>2026-04-26T13:18:55.779Z</time></trkpt><trkpt lat="45.656684" lon="11.0171661"><ele>1012.0</ele><time>2026-04-26T13:18:56.781Z</time></trkpt><trkpt lat="45.6568288" lon="11.0171269"><ele>1015.0</ele><time>2026-04-26T13:18:57.779Z</time></trkpt><trkpt lat="45.6569656" lon="11.0170943"><ele>1018.0</ele><time>2026-04-26T13:18:58.779Z</time></trkpt><trkpt lat="45.6570731" lon="11.017058"><ele>1021.0</ele><time>2026-04-26T13:18:59.778Z</time></trkpt><trkpt lat="45.6571726" lon="11.017026"><ele>1024.0</ele><time>2026-04-26T13:19:00.779Z</time></trkpt><trkpt lat="45.6572538" lon="11.0169947"><ele>1027.0</ele><time>2026-04-26T13:19:01.78Z</time></trkpt><trkpt lat="45.6573176" lon="11.0169396"><ele>1027.0</ele><time>2026-04-26T13:19:02.778Z</time></trkpt><trkpt lat="45.6573559" lon="11.0168669"><ele>1027.0</ele><time>2026-04-26T13:19:03.778Z</time></trkpt><trkpt lat="45.657372" lon="11.0167714"><ele>1027.0</ele><time>2026-04-26T13:19:04.778Z</time></trkpt><trkpt lat="45.6573803" lon="11.0166617"><ele>1027.0</ele><time>2026-04-26T13:19:05.78Z</time></trkpt><trkpt lat="45.6573578" lon="11.0164881"><ele>1027.0</ele><time>2026-04-26T13:19:06.78Z</time></trkpt><trkpt lat="45.6573371" lon="11.0163605"><ele>1027.0</ele><time>2026-04-26T13:19:07.779Z</time></trkpt><trkpt lat="45.6573002" lon="11.0162607"><ele>1031.2</ele><time>2026-04-26T13:19:08.779Z</time></trkpt><trkpt lat="45.6572516" lon="11.0161887"><ele>1035.4</ele><time>2026-04-26T13:19:09.78Z</time></trkpt><trkpt lat="45.6571932" lon="11.0161384"><ele>1039.6</ele><time>2026-04-26T13:19:10.779Z</time></trkpt><trkpt lat="45.6571024" lon="11.0161106"><ele>1043.8</ele><time>2026-04-26T13:19:11.781Z</time></trkpt><trkpt lat="45.6569928" lon="11.0160822"><ele>1048.0</ele><time>2026-04-26T13:19:12.779Z</time></trkpt><trkpt lat="45.6568787" lon="11.0160588"><ele>1048.0</ele><time>2026-04-26T13:19:13.781Z</time></trkpt><trkpt lat="45.6567575" lon="11.0160582"><ele>1048.0</ele><time>2026-04-26T13:19:14.78Z</time></trkpt><trkpt lat="45.6566287" lon="11.0160682"><ele>1048.0</ele><time>2026-04-26T13:19:15.78Z</time></trkpt><trkpt lat="45.656493" lon="11.0161082"><ele>1048.0</ele><time>2026-04-26T13:19:16.779Z</time></trkpt><trkpt lat="45.6563613" lon="11.0161479"><ele>1048.0</ele><time>2026-04-26T13:19:17.779Z</time></trkpt><trkpt lat="45.6562334" lon="11.016178"><ele>1048.0</ele><time>2026-04-26T13:19:18.778Z</time></trkpt><trkpt lat="45.6561012" lon="11.0161786"><ele>1048.0</ele><time>2026-04-26T13:19:19.779Z</time></trkpt><trkpt lat="45.655966" lon="11.0161765"><ele>1048.0</ele><time>2026-04-26T13:19:20.779Z</time></trkpt><trkpt lat="45.6558023" lon="11.0161005"><ele>1050.3333333333333</ele><time>2026-04-26T13:19:21.779Z</time></trkpt><trkpt lat="45.6556398" lon="11.01604"><ele>1052.6666666666667</ele><time>2026-04-26T13:19:22.779Z</time></trkpt><trkpt lat="45.6554835" lon="11.0160089"><ele>1055.0</ele><time>2026-04-26T13:19:23.781Z</time></trkpt><trkpt lat="45.6553385" lon="11.01599"><ele>1057.25</ele><time>2026-04-26T13:19:24.778Z</time></trkpt><trkpt lat="45.6552055" lon="11.0159909"><ele>1059.5</ele><time>2026-04-26T13:19:25.78Z</time></trkpt><trkpt lat="45.6550748" lon="11.0160772"><ele>1061.75</ele><time>2026-04-26T13:19:26.78Z</time></trkpt><trkpt lat="45.6549356" lon="11.0161295"><ele>1064.0</ele><time>2026-04-26T13:19:27.78Z</time></trkpt><trkpt lat="45.654809" lon="11.0161777"><ele>1064.0</ele><time>2026-04-26T13:19:28.779Z</time></trkpt><trkpt lat="45.6547007" lon="11.0161934"><ele>1064.0</ele><time>2026-04-26T13:19:29.78Z</time></trkpt><trkpt lat="45.6545749" lon="11.0161567"><ele>1064.0</ele><time>2026-04-26T13:19:30.78Z</time></trkpt><trkpt lat="45.6544461" lon="11.0161099"><ele>1064.0</ele><time>2026-04-26T13:19:31.779Z</time></trkpt><trkpt lat="45.6543271" lon="11.0160554"><ele>1058.5</ele><time>2026-04-26T13:19:32.78Z</time></trkpt><trkpt lat="45.6542103" lon="11.0160072"><ele>1053.0</ele><time>2026-04-26T13:19:33.779Z</time></trkpt><trkpt lat="45.6541073" lon="11.0159317"><ele>1047.5</ele><time>2026-04-26T13:19:34.779Z</time></trkpt><trkpt lat="45.6540004" lon="11.015834"><ele>1042.0</ele><time>2026-04-26T13:19:35.779Z</time></trkpt><trkpt lat="45.653875" lon="11.015749"><ele>1049.3333333333333</ele><time>2026-04-26T13:19:36.779Z</time></trkpt><trkpt lat="45.6537517" lon="11.0156305"><ele>1056.6666666666667</ele><time>2026-04-26T13:19:37.779Z</time></trkpt><trkpt lat="45.6536226" lon="11.0154734"><ele>1064.0</ele><time>2026-04-26T13:19:38.779Z</time></trkpt><trkpt lat="45.6535025" lon="11.0153247"><ele>1064.0</ele><time>2026-04-26T13:19:39.78Z</time></trkpt><trkpt lat="45.653386" lon="11.0151854"><ele>1064.0</ele><time>2026-04-26T13:19:40.779Z</time></trkpt><trkpt lat="45.6532593" lon="11.0150564"><ele>1064.0</ele><time>2026-04-26T13:19:41.779Z</time></trkpt><trkpt lat="45.6531204" lon="11.0149532"><ele>1068.6666666666667</ele><time>2026-04-26T13:19:42.779Z</time></trkpt><trkpt lat="45.6529211" lon="11.014911"><ele>1073.3333333333333</ele><time>2026-04-26T13:19:43.779Z</time></trkpt><trkpt lat="45.6527331" lon="11.0148229"><ele>1078.0</ele><time>2026-04-26T13:19:44.781Z</time></trkpt><trkpt lat="45.6525564" lon="11.0147443"><ele>1078.0</ele><time>2026-04-26T13:19:45.78Z</time></trkpt><trkpt lat="45.6524156" lon="11.0146537"><ele>1078.0</ele><time>2026-04-26T13:19:46.779Z</time></trkpt><trkpt lat="45.6522846" lon="11.0145698"><ele>1078.0</ele><time>2026-04-26T13:19:47.78Z</time></trkpt><trkpt lat="45.6521748" lon="11.0144898"><ele>1078.0</ele><time>2026-04-26T13:19:48.779Z</time></trkpt><trkpt lat="45.6520868" lon="11.0144097"><ele>1078.0</ele><time>2026-04-26T13:19:49.78Z</time></trkpt><trkpt lat="45.6520202" lon="11.0142877"><ele>1078.0</ele><time>2026-04-26T13:19:50.781Z</time></trkpt><trkpt lat="45.6519482" lon="11.0141472"><ele>1078.0</ele><time>2026-04-26T13:19:51.779Z</time></trkpt><trkpt lat="45.6518741" lon="11.0139986"><ele>1078.0</ele><time>2026-04-26T13:19:52.78Z</time></trkpt><trkpt lat="45.6518198" lon="11.0138015"><ele>1070.5</ele><time>2026-04-26T13:19:53.78Z</time></trkpt><trkpt lat="45.6517848" lon="11.0136189"><ele>1063.0</ele><time>2026-04-26T13:19:54.78Z</time></trkpt><trkpt lat="45.6517858" lon="11.0134228"><ele>1055.5</ele><time>2026-04-26T13:19:55.778Z</time></trkpt><trkpt lat="45.6517792" lon="11.0132236"><ele>1048.0</ele><time>2026-04-26T13:19:56.779Z</time></trkpt><trkpt lat="45.6517745" lon="11.0130264"><ele>1048.0</ele><time>2026-04-26T13:19:57.779Z</time></trkpt><trkpt lat="45.6517672" lon="11.0128476"><ele>1048.0</ele><time>2026-04-26T13:19:58.779Z</time></trkpt><trkpt lat="45.6517483" lon="11.0126699"><ele>1048.0</ele><time>2026-04-26T13:19:59.779Z</time></trkpt><trkpt lat="45.6517543" lon="11.0125062"><ele>1048.0</ele><time>2026-04-26T13:20:00.78Z</time></trkpt><trkpt lat="45.6517795" lon="11.0123371"><ele>1052.2</ele><time>2026-04-26T13:20:01.78Z</time></trkpt><trkpt lat="45.6518039" lon="11.012172"><ele>1056.4</ele><time>2026-04-26T13:20:02.78Z</time></trkpt><trkpt lat="45.6518131" lon="11.0120169"><ele>1060.6000000000001</ele><time>2026-04-26T13:20:03.779Z</time></trkpt><trkpt lat="45.6518002" lon="11.011862"><ele>1064.8</ele><time>2026-04-26T13:20:04.78Z</time></trkpt><trkpt lat="45.6517555" lon="11.0117362"><ele>1069.0</ele><time>2026-04-26T13:20:05.779Z</time></trkpt><trkpt lat="45.6516811" lon="11.011629"><ele>1078.25</ele><time>2026-04-26T13:20:06.779Z</time></trkpt><trkpt lat="45.6515798" lon="11.0115406"><ele>1087.5</ele><time>2026-04-26T13:20:07.779Z</time></trkpt><trkpt lat="45.6514851" lon="11.0114458"><ele>1096.75</ele><time>2026-04-26T13:20:08.78Z</time></trkpt><trkpt lat="45.6514012" lon="11.0113194"><ele>1106.0</ele><time>2026-04-26T13:20:09.778Z</time></trkpt><trkpt lat="45.6513182" lon="11.0111812"><ele>1106.0</ele><time>2026-04-26T13:20:10.78Z</time></trkpt><trkpt lat="45.6512412" lon="11.0110123"><ele>1106.0</ele><time>2026-04-26T13:20:11.78Z</time></trkpt><trkpt lat="45.6511669" lon="11.0108582"><ele>1106.0</ele><time>2026-04-26T13:20:12.779Z</time></trkpt><trkpt lat="45.6510626" lon="11.0107301"><ele>1106.0</ele><time>2026-04-26T13:20:13.78Z</time></trkpt><trkpt lat="45.6509658" lon="11.0106176"><ele>1100.0</ele><time>2026-04-26T13:20:14.779Z</time></trkpt><trkpt lat="45.6508802" lon="11.0105076"><ele>1094.0</ele><time>2026-04-26T13:20:15.78Z</time></trkpt><trkpt lat="45.6508092" lon="11.0104072"><ele>1088.0</ele><time>2026-04-26T13:20:16.779Z</time></trkpt><trkpt lat="45.6507824" lon="11.0102652"><ele>1082.0</ele><time>2026-04-26T13:20:17.779Z</time></trkpt><trkpt lat="45.6507653" lon="11.010116"><ele>1076.0</ele><time>2026-04-26T13:20:18.78Z</time></trkpt><trkpt lat="45.6507521" lon="11.0099557"><ele>1076.0</ele><time>2026-04-26T13:20:19.779Z</time></trkpt><trkpt lat="45.6507434" lon="11.0097753"><ele>1076.0</ele><time>2026-04-26T13:20:20.78Z</time></trkpt><trkpt lat="45.6507387" lon="11.0096121"><ele>1076.0</ele><time>2026-04-26T13:20:21.78Z</time></trkpt><trkpt lat="45.6507398" lon="11.0094469"><ele>1076.0</ele><time>2026-04-26T13:20:22.781Z</time></trkpt><trkpt lat="45.6507709" lon="11.0092739"><ele>1075.5</ele><time>2026-04-26T13:20:23.779Z</time></trkpt><trkpt lat="45.6508168" lon="11.0090977"><ele>1075.0</ele><time>2026-04-26T13:20:24.778Z</time></trkpt><trkpt lat="45.6508827" lon="11.0089176"><ele>1074.5</ele><time>2026-04-26T13:20:25.779Z</time></trkpt><trkpt lat="45.6509442" lon="11.0087503"><ele>1074.0</ele><time>2026-04-26T13:20:26.779Z</time></trkpt><trkpt lat="45.6509967" lon="11.0085987"><ele>1074.0</ele><time>2026-04-26T13:20:27.779Z</time></trkpt><trkpt lat="45.6510414" lon="11.0084671"><ele>1074.0</ele><time>2026-04-26T13:20:28.78Z</time></trkpt><trkpt lat="45.6510429" lon="11.0083569"><ele>1074.0</ele><time>2026-04-26T13:20:29.779Z</time></trkpt><trkpt lat="45.6510264" lon="11.0082416"><ele>1074.0</ele><time>2026-04-26T13:20:30.779Z</time></trkpt><trkpt lat="45.6509793" lon="11.0081387"><ele>1074.0</ele><time>2026-04-26T13:20:31.78Z</time></trkpt><trkpt lat="45.6509085" lon="11.0080574"><ele>1074.0</ele><time>2026-04-26T13:20:32.779Z</time></trkpt><trkpt lat="45.6508103" lon="11.0079996"><ele>1076.0</ele><time>2026-04-26T13:20:33.779Z</time></trkpt><trkpt lat="45.650697" lon="11.0079646"><ele>1078.0</ele><time>2026-04-26T13:20:34.779Z</time></trkpt><trkpt lat="45.6505703" lon="11.0079402"><ele>1080.0</ele><time>2026-04-26T13:20:35.78Z</time></trkpt><trkpt lat="45.6504324" lon="11.0079024"><ele>1082.0</ele><time>2026-04-26T13:20:36.78Z</time></trkpt><trkpt lat="45.6502873" lon="11.0078274"><ele>1083.0</ele><time>2026-04-26T13:20:37.779Z</time></trkpt><trkpt lat="45.6501374" lon="11.0077465"><ele>1084.0</ele><time>2026-04-26T13:20:38.78Z</time></trkpt><trkpt lat="45.6499982" lon="11.0076192"><ele>1085.0</ele><time>2026-04-26T13:20:39.779Z</time></trkpt><trkpt lat="45.6498617" lon="11.0075179"><ele>1085.2</ele><time>2026-04-26T13:20:40.779Z</time></trkpt><trkpt lat="45.6497485" lon="11.0074265"><ele>1085.4</ele><time>2026-04-26T13:20:41.779Z</time></trkpt><trkpt lat="45.6496509" lon="11.0073494"><ele>1085.6</ele><time>2026-04-26T13:20:42.779Z</time></trkpt><trkpt lat="45.6495764" lon="11.0072579"><ele>1085.8</ele><time>2026-04-26T13:20:43.78Z</time></trkpt><trkpt lat="45.6495173" lon="11.0071672"><ele>1086.0</ele><time>2026-04-26T13:20:44.779Z</time></trkpt><trkpt lat="45.6495181" lon="11.0070716"><ele>1086.0</ele><time>2026-04-26T13:20:45.779Z</time></trkpt><trkpt lat="45.6495299" lon="11.0069638"><ele>1086.0</ele><time>2026-04-26T13:20:46.779Z</time></trkpt><trkpt lat="45.6495778" lon="11.006834"><ele>1086.0</ele><time>2026-04-26T13:20:47.78Z</time></trkpt><trkpt lat="45.6496436" lon="11.0066836"><ele>1086.0</ele><time>2026-04-26T13:20:48.781Z</time></trkpt><trkpt lat="45.6497209" lon="11.0065539"><ele>1086.0</ele><time>2026-04-26T13:20:49.779Z</time></trkpt><trkpt lat="45.6498222" lon="11.0064323"><ele>1086.1666666666667</ele><time>2026-04-26T13:20:50.779Z</time></trkpt><trkpt lat="45.6499223" lon="11.0063443"><ele>1086.3333333333333</ele><time>2026-04-26T13:20:51.779Z</time></trkpt><trkpt lat="45.6500061" lon="11.0062658"><ele>1086.5</ele><time>2026-04-26T13:20:52.779Z</time></trkpt><trkpt lat="45.6500672" lon="11.006187"><ele>1086.6666666666665</ele><time>2026-04-26T13:20:53.779Z</time></trkpt><trkpt lat="45.6501089" lon="11.0061068"><ele>1086.8333333333333</ele><time>2026-04-26T13:20:54.779Z</time></trkpt><trkpt lat="45.6501176" lon="11.0060087"><ele>1087.0</ele><time>2026-04-26T13:20:55.779Z</time></trkpt><trkpt lat="45.6500937" lon="11.0059094"><ele>1087.0</ele><time>2026-04-26T13:20:56.78Z</time></trkpt><trkpt lat="45.6500358" lon="11.0058315"><ele>1087.0</ele><time>2026-04-26T13:20:57.78Z</time></trkpt><trkpt lat="45.6499519" lon="11.0057787"><ele>1087.0</ele><time>2026-04-26T13:20:58.779Z</time></trkpt><trkpt lat="45.6498397" lon="11.0057414"><ele>1087.0</ele><time>2026-04-26T13:20:59.78Z</time></trkpt><trkpt lat="45.649721" lon="11.0057137"><ele>1087.0</ele><time>2026-04-26T13:21:00.78Z</time></trkpt><trkpt lat="45.6495868" lon="11.0056976"><ele>1092.5</ele><time>2026-04-26T13:21:01.779Z</time></trkpt><trkpt lat="45.6494365" lon="11.0056782"><ele>1098.0</ele><time>2026-04-26T13:21:02.779Z</time></trkpt><trkpt lat="45.649285" lon="11.0056614"><ele>1103.5</ele><time>2026-04-26T13:21:03.78Z</time></trkpt><trkpt lat="45.6491484" lon="11.0056427"><ele>1109.0</ele><time>2026-04-26T13:21:04.78Z</time></trkpt><trkpt lat="45.6490279" lon="11.0055967"><ele>1109.0</ele><time>2026-04-26T13:21:05.781Z</time></trkpt><trkpt lat="45.6489274" lon="11.0055284"><ele>1109.0</ele><time>2026-04-26T13:21:06.778Z</time></trkpt><trkpt lat="45.6488356" lon="11.0054248"><ele>1109.0</ele><time>2026-04-26T13:21:07.78Z</time></trkpt><trkpt lat="45.6487558" lon="11.0052846"><ele>1109.0</ele><time>2026-04-26T13:21:08.78Z</time></trkpt><trkpt lat="45.6486707" lon="11.0051155"><ele>1109.6000000000001</ele><time>2026-04-26T13:21:09.78Z</time></trkpt><trkpt lat="45.6485999" lon="11.0049593"><ele>1110.2</ele><time>2026-04-26T13:21:10.78Z</time></trkpt><trkpt lat="45.6485368" lon="11.0048268"><ele>1110.8000000000002</ele><time>2026-04-26T13:21:11.779Z</time></trkpt><trkpt lat="45.6484767" lon="11.0047194"><ele>1111.4</ele><time>2026-04-26T13:21:12.779Z</time></trkpt><trkpt lat="45.6484147" lon="11.0046794"><ele>1112.0</ele><time>2026-04-26T13:21:13.78Z</time></trkpt><trkpt lat="45.6483529" lon="11.0046581"><ele>1112.0</ele><time>2026-04-26T13:21:14.781Z</time></trkpt><trkpt lat="45.6482904" lon="11.0046795"><ele>1112.0</ele><time>2026-04-26T13:21:15.78Z</time></trkpt><trkpt lat="45.6482344" lon="11.0047404"><ele>1112.0</ele><time>2026-04-26T13:21:16.78Z</time></trkpt><trkpt lat="45.6481876" lon="11.0048519"><ele>1112.0</ele><time>2026-04-26T13:21:17.778Z</time></trkpt><trkpt lat="45.6481281" lon="11.0049714"><ele>1112.0</ele><time>2026-04-26T13:21:18.779Z</time></trkpt><trkpt lat="45.6480586" lon="11.0050998"><ele>1112.0</ele><time>2026-04-26T13:21:19.78Z</time></trkpt><trkpt lat="45.647968" lon="11.0052071"><ele>1110.75</ele><time>2026-04-26T13:21:20.78Z</time></trkpt><trkpt lat="45.6478617" lon="11.0053004"><ele>1109.5</ele><time>2026-04-26T13:21:21.78Z</time></trkpt><trkpt lat="45.647742" lon="11.0053442"><ele>1108.25</ele><time>2026-04-26T13:21:22.779Z</time></trkpt><trkpt lat="45.6476365" lon="11.0053867"><ele>1107.0</ele><time>2026-04-26T13:21:23.779Z</time></trkpt><trkpt lat="45.6475343" lon="11.0053691"><ele>1107.0</ele><time>2026-04-26T13:21:24.78Z</time></trkpt><trkpt lat="45.6474259" lon="11.0053367"><ele>1107.0</ele><time>2026-04-26T13:21:25.779Z</time></trkpt><trkpt lat="45.6472991" lon="11.005215"><ele>1107.0</ele><time>2026-04-26T13:21:26.781Z</time></trkpt><trkpt lat="45.6471586" lon="11.0050844"><ele>1107.0</ele><time>2026-04-26T13:21:27.779Z</time></trkpt><trkpt lat="45.6470197" lon="11.0049385"><ele>1108.0</ele><time>2026-04-26T13:21:28.778Z</time></trkpt><trkpt lat="45.646899" lon="11.0047969"><ele>1109.0</ele><time>2026-04-26T13:21:29.778Z</time></trkpt><trkpt lat="45.6467827" lon="11.0046529"><ele>1110.0</ele><time>2026-04-26T13:21:30.78Z</time></trkpt><trkpt lat="45.6466768" lon="11.004503"><ele>1110.0</ele><time>2026-04-26T13:21:31.779Z</time></trkpt><trkpt lat="45.6465808" lon="11.0043618"><ele>1110.0</ele><time>2026-04-26T13:21:32.78Z</time></trkpt><trkpt lat="45.6464865" lon="11.0042247"><ele>1110.0</ele><time>2026-04-26T13:21:33.78Z</time></trkpt><trkpt lat="45.6463988" lon="11.0040878"><ele>1110.0</ele><time>2026-04-26T13:21:34.779Z</time></trkpt><trkpt lat="45.6463299" lon="11.0039395"><ele>1113.75</ele><time>2026-04-26T13:21:35.78Z</time></trkpt><trkpt lat="45.6462746" lon="11.0037788"><ele>1117.5</ele><time>2026-04-26T13:21:36.779Z</time></trkpt><trkpt lat="45.6462302" lon="11.0036043"><ele>1121.25</ele><time>2026-04-26T13:21:37.779Z</time></trkpt><trkpt lat="45.6461924" lon="11.0034363"><ele>1125.0</ele><time>2026-04-26T13:21:38.78Z</time></trkpt><trkpt lat="45.646158" lon="11.0032809"><ele>1124.0</ele><time>2026-04-26T13:21:39.778Z</time></trkpt><trkpt lat="45.6461259" lon="11.0031385"><ele>1123.0</ele><time>2026-04-26T13:21:40.78Z</time></trkpt><trkpt lat="45.6460957" lon="11.0030083"><ele>1122.0</ele><time>2026-04-26T13:21:41.78Z</time></trkpt><trkpt lat="45.6460562" lon="11.0028845"><ele>1121.0</ele><time>2026-04-26T13:21:42.779Z</time></trkpt><trkpt lat="45.6460032" lon="11.002777"><ele>1120.0</ele><time>2026-04-26T13:21:43.78Z</time></trkpt><trkpt lat="45.6459361" lon="11.0026934"><ele>1120.0</ele><time>2026-04-26T13:21:44.779Z</time></trkpt><trkpt lat="45.6458613" lon="11.0026317"><ele>1120.0</ele><time>2026-04-26T13:21:45.78Z</time></trkpt><trkpt lat="45.6457771" lon="11.0026248"><ele>1120.0</ele><time>2026-04-26T13:21:46.779Z</time></trkpt><trkpt lat="45.6456855" lon="11.0026572"><ele>1120.0</ele><time>2026-04-26T13:21:47.78Z</time></trkpt><trkpt lat="45.6455923" lon="11.0027326"><ele>1120.0</ele><time>2026-04-26T13:21:48.779Z</time></trkpt><trkpt lat="45.6454971" lon="11.0028167"><ele>1120.0</ele><time>2026-04-26T13:21:49.779Z</time></trkpt><trkpt lat="45.6453956" lon="11.0028891"><ele>1120.0</ele><time>2026-04-26T13:21:50.779Z</time></trkpt><trkpt lat="45.645296" lon="11.0029298"><ele>1120.0</ele><time>2026-04-26T13:21:51.781Z</time></trkpt><trkpt lat="45.6452063" lon="11.0029374"><ele>1120.0</ele><time>2026-04-26T13:21:52.78Z</time></trkpt><trkpt lat="45.6451317" lon="11.0028896"><ele>1120.0</ele><time>2026-04-26T13:21:53.78Z</time></trkpt><trkpt lat="45.6450763" lon="11.0027774"><ele>1118.0</ele><time>2026-04-26T13:21:54.779Z</time></trkpt><trkpt lat="45.6450293" lon="11.0026558"><ele>1116.0</ele><time>2026-04-26T13:21:55.779Z</time></trkpt><trkpt lat="45.6450239" lon="11.0024983"><ele>1114.0</ele><time>2026-04-26T13:21:56.779Z</time></trkpt><trkpt lat="45.6450385" lon="11.0023371"><ele>1112.0</ele><time>2026-04-26T13:21:57.779Z</time></trkpt><trkpt lat="45.6450845" lon="11.0021596"><ele>1112.0</ele><time>2026-04-26T13:21:58.78Z</time></trkpt><trkpt lat="45.6451402" lon="11.0019666"><ele>1112.0</ele><time>2026-04-26T13:21:59.779Z</time></trkpt><trkpt lat="45.645206" lon="11.0017721"><ele>1112.0</ele><time>2026-04-26T13:22:00.78Z</time></trkpt><trkpt lat="45.645267" lon="11.001588"><ele>1112.0</ele><time>2026-04-26T13:22:01.778Z</time></trkpt><trkpt lat="45.6452942" lon="11.0014287"><ele>1113.4</ele><time>2026-04-26T13:22:02.779Z</time></trkpt><trkpt lat="45.6453102" lon="11.0012754"><ele>1114.8000000000002</ele><time>2026-04-26T13:22:03.78Z</time></trkpt><trkpt lat="45.6452985" lon="11.0011391"><ele>1116.2</ele><time>2026-04-26T13:22:04.781Z</time></trkpt><trkpt lat="45.6452518" lon="11.0010194"><ele>1117.6000000000001</ele><time>2026-04-26T13:22:05.778Z</time></trkpt><trkpt lat="45.6451772" lon="11.0009258"><ele>1119.0</ele><time>2026-04-26T13:22:06.78Z</time></trkpt><trkpt lat="45.6450827" lon="11.0008663"><ele>1119.0</ele><time>2026-04-26T13:22:07.779Z</time></trkpt><trkpt lat="45.6449731" lon="11.0008401"><ele>1119.0</ele><time>2026-04-26T13:22:08.781Z</time></trkpt><trkpt lat="45.6448478" lon="11.0008539"><ele>1119.0</ele><time>2026-04-26T13:22:09.78Z</time></trkpt><trkpt lat="45.644708" lon="11.0009075"><ele>1119.0</ele><time>2026-04-26T13:22:10.779Z</time></trkpt><trkpt lat="45.6445521" lon="11.0009845"><ele>1117.5</ele><time>2026-04-26T13:22:11.78Z</time></trkpt><trkpt lat="45.6444044" lon="11.0010526"><ele>1116.0</ele><time>2026-04-26T13:22:12.78Z</time></trkpt><trkpt lat="45.6442703" lon="11.0011116"><ele>1114.5</ele><time>2026-04-26T13:22:13.779Z</time></trkpt><trkpt lat="45.6441555" lon="11.00113"><ele>1113.0</ele><time>2026-04-26T13:22:14.779Z</time></trkpt><trkpt lat="45.644057" lon="11.0010955"><ele>1113.0</ele><time>2026-04-26T13:22:15.778Z</time></trkpt><trkpt lat="45.6439797" lon="11.0010365"><ele>1113.0</ele><time>2026-04-26T13:22:16.78Z</time></trkpt><trkpt lat="45.6439164" lon="11.0009311"><ele>1113.0</ele><time>2026-04-26T13:22:17.779Z</time></trkpt><trkpt lat="45.6438668" lon="11.000808"><ele>1113.0</ele><time>2026-04-26T13:22:18.78Z</time></trkpt><trkpt lat="45.6438498" lon="11.00065"><ele>1113.0</ele><time>2026-04-26T13:22:19.779Z</time></trkpt><trkpt lat="45.6438304" lon="11.0004645"><ele>1113.25</ele><time>2026-04-26T13:22:20.779Z</time></trkpt><trkpt lat="45.6437941" lon="11.0002779"><ele>1113.5</ele><time>2026-04-26T13:22:21.78Z</time></trkpt><trkpt lat="45.6437449" lon="11.0001096"><ele>1113.75</ele><time>2026-04-26T13:22:22.779Z</time></trkpt><trkpt lat="45.6436808" lon="10.9999632"><ele>1114.0</ele><time>2026-04-26T13:22:23.78Z</time></trkpt><trkpt lat="45.6435985" lon="10.9998638"><ele>1114.0</ele><time>2026-04-26T13:22:24.779Z</time></trkpt><trkpt lat="45.6435057" lon="10.9997759"><ele>1114.0</ele><time>2026-04-26T13:22:25.779Z</time></trkpt><trkpt lat="45.6434354" lon="10.9997199"><ele>1114.0</ele><time>2026-04-26T13:22:26.779Z</time></trkpt><trkpt lat="45.6433692" lon="10.9996682"><ele>1114.0</ele><time>2026-04-26T13:22:27.78Z</time></trkpt><trkpt lat="45.6433154" lon="10.9995793"><ele>1114.0</ele><time>2026-04-26T13:22:29.778Z</time></trkpt><trkpt lat="45.6432722" lon="10.9994637"><ele>1114.0</ele><time>2026-04-26T13:22:32.779Z</time></trkpt><trkpt lat="45.6432676" lon="10.999346"><ele>1114.0</ele><time>2026-04-26T13:22:35.781Z</time></trkpt><trkpt lat="45.6432748" lon="10.9992482"><ele>1114.0</ele><time>2026-04-26T13:22:37.778Z</time></trkpt><trkpt lat="45.6432797" lon="10.9990824"><ele>1114.0</ele><time>2026-04-26T13:22:39.78Z</time></trkpt><trkpt lat="45.6433005" lon="10.9989228"><ele>1114.0</ele><time>2026-04-26T13:22:41.78Z</time></trkpt><trkpt lat="45.6433353" lon="10.9987834"><ele>1114.0</ele><time>2026-04-26T13:22:43.78Z</time></trkpt><trkpt lat="45.6433673" lon="10.9986621"><ele>1114.6000000000001</ele><time>2026-04-26T13:22:45.78Z</time></trkpt><trkpt lat="45.6434166" lon="10.998562"><ele>1115.2</ele><time>2026-04-26T13:22:47.778Z</time></trkpt><trkpt lat="45.6434891" lon="10.9984664"><ele>1115.8000000000002</ele><time>2026-04-26T13:22:49.779Z</time></trkpt><trkpt lat="45.6435896" lon="10.9983937"><ele>1116.4</ele><time>2026-04-26T13:22:51.779Z</time></trkpt><trkpt lat="45.6436797" lon="10.9983538"><ele>1117.0</ele><time>2026-04-26T13:22:53.78Z</time></trkpt><trkpt lat="45.6437417" lon="10.9982739"><ele>1117.0</ele><time>2026-04-26T13:22:55.78Z</time></trkpt><trkpt lat="45.6437258" lon="10.9981435"><ele>1117.0</ele><time>2026-04-26T13:22:57.78Z</time></trkpt><trkpt lat="45.6436311" lon="10.9980242"><ele>1117.0</ele><time>2026-04-26T13:22:59.779Z</time></trkpt><trkpt lat="45.6435634" lon="10.9979647"><ele>1117.0</ele><time>2026-04-26T13:23:00.779Z</time></trkpt><trkpt lat="45.6434829" lon="10.9979016"><ele>1117.0</ele><time>2026-04-26T13:23:01.779Z</time></trkpt><trkpt lat="45.643398" lon="10.9978294"><ele>1117.2</ele><time>2026-04-26T13:23:02.78Z</time></trkpt><trkpt lat="45.643306" lon="10.9977472"><ele>1117.4</ele><time>2026-04-26T13:23:03.78Z</time></trkpt><trkpt lat="45.6432169" lon="10.9976626"><ele>1117.6</ele><time>2026-04-26T13:23:04.78Z</time></trkpt><trkpt lat="45.6431236" lon="10.9975811"><ele>1117.8</ele><time>2026-04-26T13:23:05.779Z</time></trkpt><trkpt lat="45.6430324" lon="10.9974983"><ele>1118.0</ele><time>2026-04-26T13:23:06.779Z</time></trkpt><trkpt lat="45.6429415" lon="10.9974281"><ele>1116.6</ele><time>2026-04-26T13:23:07.779Z</time></trkpt><trkpt lat="45.6428524" lon="10.9973752"><ele>1115.1999999999998</ele><time>2026-04-26T13:23:08.78Z</time></trkpt><trkpt lat="45.6427557" lon="10.9973531"><ele>1113.8</ele><time>2026-04-26T13:23:09.78Z</time></trkpt><trkpt lat="45.6426616" lon="10.9973706"><ele>1112.3999999999999</ele><time>2026-04-26T13:23:10.779Z</time></trkpt><trkpt lat="45.6425767" lon="10.9974193"><ele>1111.0</ele><time>2026-04-26T13:23:11.78Z</time></trkpt><trkpt lat="45.6425121" lon="10.9974871"><ele>1108.0</ele><time>2026-04-26T13:23:12.78Z</time></trkpt><trkpt lat="45.6424708" lon="10.9975609"><ele>1108.0</ele><time>2026-04-26T13:23:13.78Z</time></trkpt><trkpt lat="45.6424261" lon="10.9977007"><ele>1108.0</ele><time>2026-04-26T13:23:15.779Z</time></trkpt><trkpt lat="45.6423997" lon="10.997793"><ele>1108.0</ele><time>2026-04-26T13:23:17.779Z</time></trkpt><trkpt lat="45.6423692" lon="10.9978855"><ele>1108.0</ele><time>2026-04-26T13:23:20.779Z</time></trkpt></trkseg></trk></gpx>